<?xml version='1.0' encoding='UTF-8'?><gpx version="1.1" creator="JPX - https://github.com/jenetics/jpx" xmlns="http://www.topografix.com/GPX/1/1"><trk><trkseg><trkpt lat="43.46453850364081" lon="11.863553583678037"><ele>251.0</ele><time>2026-04-25T08:06:08.985Z</time></trkpt><trkpt lat="43.46445784493957" lon="11.863593620845357"><ele>251.00000000000003</ele><time>2026-04-25T08:06:10.985Z</time></trkpt><trkpt lat="43.46444230780723" lon="11.863799906193803"><ele>251.00000000000003</ele><time>2026-04-25T08:06:19.984Z</time></trkpt><trkpt lat="43.46446368870817" lon="11.86391206816762"><ele>251.0</ele><time>2026-04-25T08:06:20.984Z</time></trkpt><trkpt lat="43.46447502340732" lon="11.864005348573853"><ele>251.0</ele><time>2026-04-25T08:06:21.984Z</time></trkpt><trkpt lat="43.464475434353304" lon="11.864118520545734"><ele>251.0</ele><time>2026-04-25T08:06:22.984Z</time></trkpt><trkpt lat="43.46440521816927" lon="11.864246384144934"><ele>251.00000000000003</ele><time>2026-04-25T08:06:23.984Z</time></trkpt><trkpt lat="43.464416185458504" lon="11.86436634437574"><ele>251.00000000000003</ele><time>2026-04-25T08:06:24.984Z</time></trkpt><trkpt lat="43.46449049372074" lon="11.864464764758909"><ele>251.0</ele><time>2026-04-25T08:06:25.984Z</time></trkpt><trkpt lat="43.464486980210154" lon="11.864571261223665"><ele>251.0</ele><time>2026-04-25T08:06:26.984Z</time></trkpt><trkpt lat="43.46449810728571" lon="11.864667450322417"><ele>250.66666666666669</ele><time>2026-04-25T08:06:27.984Z</time></trkpt><trkpt lat="43.46450052425807" lon="11.864769478743062"><ele>250.33333333333334</ele><time>2026-04-25T08:06:28.984Z</time></trkpt><trkpt lat="43.46451214253349" lon="11.86488025236146"><ele>250.0</ele><time>2026-04-25T08:06:29.984Z</time></trkpt><trkpt lat="43.46451858743346" lon="11.86498787787886"><ele>249.66666666666669</ele><time>2026-04-25T08:06:30.984Z</time></trkpt><trkpt lat="43.464533099892996" lon="11.865096607243691"><ele>249.33333333333334</ele><time>2026-04-25T08:06:31.984Z</time></trkpt><trkpt lat="43.464546017877424" lon="11.865198248137258"><ele>249.0</ele><time>2026-04-25T08:06:32.984Z</time></trkpt><trkpt lat="43.4645631245855" lon="11.865312374360215"><ele>249.0</ele><time>2026-04-25T08:06:33.984Z</time></trkpt><trkpt lat="43.464565742242605" lon="11.86542693294256"><ele>249.0</ele><time>2026-04-25T08:06:34.984Z</time></trkpt><trkpt lat="43.464582460314865" lon="11.865543665038945"><ele>249.0</ele><time>2026-04-25T08:06:35.984Z</time></trkpt><trkpt lat="43.464585569039805" lon="11.86566157580767"><ele>249.0</ele><time>2026-04-25T08:06:36.984Z</time></trkpt><trkpt lat="43.46459417196763" lon="11.865778230963604"><ele>249.0</ele><time>2026-04-25T08:06:37.984Z</time></trkpt><trkpt lat="43.4646069316645" lon="11.865895994165475"><ele>249.0</ele><time>2026-04-25T08:06:38.984Z</time></trkpt><trkpt lat="43.464615797017686" lon="11.866013350864346"><ele>249.16666666666666</ele><time>2026-04-25T08:06:39.984Z</time></trkpt><trkpt lat="43.46462665221854" lon="11.866126446273562"><ele>249.33333333333331</ele><time>2026-04-25T08:06:40.984Z</time></trkpt><trkpt lat="43.4646348245505" lon="11.866244389222764"><ele>249.5</ele><time>2026-04-25T08:06:41.984Z</time></trkpt><trkpt lat="43.46464446209387" lon="11.866353412358968"><ele>249.66666666666666</ele><time>2026-04-25T08:06:42.984Z</time></trkpt><trkpt lat="43.4646476380202" lon="11.866460648512009"><ele>249.83333333333331</ele><time>2026-04-25T08:06:43.984Z</time></trkpt><trkpt lat="43.464660113934016" lon="11.866560017658925"><ele>250.0</ele><time>2026-04-25T08:06:44.984Z</time></trkpt><trkpt lat="43.46466298629133" lon="11.866651649169167"><ele>250.0</ele><time>2026-04-25T08:06:45.984Z</time></trkpt><trkpt lat="43.46464817695327" lon="11.866748161492785"><ele>250.0</ele><time>2026-04-25T08:06:46.984Z</time></trkpt><trkpt lat="43.46463863134216" lon="11.866849148237051"><ele>250.0</ele><time>2026-04-25T08:06:47.984Z</time></trkpt><trkpt lat="43.46462341402883" lon="11.866950049112205"><ele>250.0</ele><time>2026-04-25T08:06:48.984Z</time></trkpt><trkpt lat="43.46461125903381" lon="11.867055992341058"><ele>250.0</ele><time>2026-04-25T08:06:49.984Z</time></trkpt><trkpt lat="43.46460705272621" lon="11.867163095497203"><ele>250.0</ele><time>2026-04-25T08:06:50.984Z</time></trkpt><trkpt lat="43.46459562644721" lon="11.867260869563392"><ele>250.0</ele><time>2026-04-25T08:06:51.984Z</time></trkpt><trkpt lat="43.46457939355379" lon="11.867362578160058"><ele>250.2</ele><time>2026-04-25T08:06:52.984Z</time></trkpt><trkpt lat="43.464576240888604" lon="11.867469254011402"><ele>250.4</ele><time>2026-04-25T08:06:53.984Z</time></trkpt><trkpt lat="43.464563594948146" lon="11.867598320617512"><ele>250.60000000000002</ele><time>2026-04-25T08:06:54.984Z</time></trkpt><trkpt lat="43.46455364860925" lon="11.867745244718966"><ele>250.8</ele><time>2026-04-25T08:06:55.984Z</time></trkpt><trkpt lat="43.46453111761644" lon="11.867904688088853"><ele>251.0</ele><time>2026-04-25T08:06:56.984Z</time></trkpt><trkpt lat="43.46451763959496" lon="11.868084493148977"><ele>251.0</ele><time>2026-04-25T08:06:57.984Z</time></trkpt><trkpt lat="43.46449769820332" lon="11.8682571708027"><ele>251.00000000000003</ele><time>2026-04-25T08:06:58.984Z</time></trkpt><trkpt lat="43.46448457468875" lon="11.868415103792705"><ele>251.00000000000003</ele><time>2026-04-25T08:06:59.984Z</time></trkpt><trkpt lat="43.46446405352967" lon="11.86855971172835"><ele>251.0</ele><time>2026-04-25T08:07:00.984Z</time></trkpt><trkpt lat="43.4644485419867" lon="11.868693922585841"><ele>251.0</ele><time>2026-04-25T08:07:01.984Z</time></trkpt><trkpt lat="43.464429680146246" lon="11.868816429367609"><ele>251.00000000000003</ele><time>2026-04-25T08:07:02.984Z</time></trkpt><trkpt lat="43.46441739633524" lon="11.868931645893"><ele>251.0</ele><time>2026-04-25T08:07:03.984Z</time></trkpt><trkpt lat="43.464395386363606" lon="11.869035092645957"><ele>251.0</ele><time>2026-04-25T08:07:04.984Z</time></trkpt><trkpt lat="43.46436897983539" lon="11.869148373933056"><ele>251.0</ele><time>2026-04-25T08:07:05.984Z</time></trkpt><trkpt lat="43.464341225440734" lon="11.869241315463954"><ele>251.00000000000003</ele><time>2026-04-25T08:07:06.984Z</time></trkpt><trkpt lat="43.46431451871039" lon="11.869335263315664"><ele>251.0</ele><time>2026-04-25T08:07:07.984Z</time></trkpt><trkpt lat="43.464289209143374" lon="11.869420189606444"><ele>251.16666666666669</ele><time>2026-04-25T08:07:08.984Z</time></trkpt><trkpt lat="43.46427867858145" lon="11.86951282452116"><ele>251.33333333333334</ele><time>2026-04-25T08:07:09.984Z</time></trkpt><trkpt lat="43.46430980475637" lon="11.869612302886141"><ele>251.5</ele><time>2026-04-25T08:07:10.984Z</time></trkpt><trkpt lat="43.46436568803276" lon="11.869705588999308"><ele>251.66666666666669</ele><time>2026-04-25T08:07:11.984Z</time></trkpt><trkpt lat="43.46441871839445" lon="11.869798334380384"><ele>251.83333333333334</ele><time>2026-04-25T08:07:12.984Z</time></trkpt><trkpt lat="43.46448612726976" lon="11.869916145672493"><ele>252.0</ele><time>2026-04-25T08:07:13.984Z</time></trkpt><trkpt lat="43.46453307842341" lon="11.870013010076478"><ele>252.33333333333334</ele><time>2026-04-25T08:07:14.984Z</time></trkpt><trkpt lat="43.46458945387168" lon="11.87011242153909"><ele>252.66666666666669</ele><time>2026-04-25T08:07:15.984Z</time></trkpt><trkpt lat="43.46465041058281" lon="11.870149526034272"><ele>253.0</ele><time>2026-04-25T08:07:16.983Z</time></trkpt><trkpt lat="43.46471048911228" lon="11.870271624240416"><ele>253.33333333333334</ele><time>2026-04-25T08:07:18.983Z</time></trkpt><trkpt lat="43.46472060999718" lon="11.870386155572744"><ele>253.66666666666669</ele><time>2026-04-25T08:07:19.983Z</time></trkpt><trkpt lat="43.46473228156406" lon="11.870510258519415"><ele>254.0</ele><time>2026-04-25T08:07:20.983Z</time></trkpt><trkpt lat="43.464764615274326" lon="11.870609306451122"><ele>254.0</ele><time>2026-04-25T08:07:21.983Z</time></trkpt><trkpt lat="43.46481569336121" lon="11.870679737147292"><ele>254.0</ele><time>2026-04-25T08:07:22.983Z</time></trkpt><trkpt lat="43.46488543633783" lon="11.870721355720656"><ele>254.0</ele><time>2026-04-25T08:07:23.983Z</time></trkpt><trkpt lat="43.464958114690035" lon="11.870721848902553"><ele>254.0</ele><time>2026-04-25T08:07:24.983Z</time></trkpt><trkpt lat="43.46501860150018" lon="11.870677290682073"><ele>254.0</ele><time>2026-04-25T08:07:25.983Z</time></trkpt><trkpt lat="43.46506485381281" lon="11.870602043148814"><ele>254.0</ele><time>2026-04-25T08:07:26.983Z</time></trkpt><trkpt lat="43.46510682000526" lon="11.870498409495093"><ele>254.0</ele><time>2026-04-25T08:07:27.983Z</time></trkpt><trkpt lat="43.465128012598505" lon="11.870364246303694"><ele>254.0</ele><time>2026-04-25T08:07:28.983Z</time></trkpt><trkpt lat="43.46514020234396" lon="11.87022559299821"><ele>253.99999999999997</ele><time>2026-04-25T08:07:29.983Z</time></trkpt><trkpt lat="43.465163036342055" lon="11.870105371242223"><ele>253.99999999999997</ele><time>2026-04-25T08:07:30.983Z</time></trkpt><trkpt lat="43.465213241978944" lon="11.869988210505353"><ele>254.0</ele><time>2026-04-25T08:07:31.983Z</time></trkpt><trkpt lat="43.46528295953171" lon="11.86987850817163"><ele>254.0</ele><time>2026-04-25T08:07:32.983Z</time></trkpt><trkpt lat="43.465361560451214" lon="11.869763176346762"><ele>253.79999999999998</ele><time>2026-04-25T08:07:33.983Z</time></trkpt><trkpt lat="43.46543833485436" lon="11.869631861028774"><ele>253.59999999999997</ele><time>2026-04-25T08:07:34.983Z</time></trkpt><trkpt lat="43.465508734907935" lon="11.86950151568611"><ele>253.4</ele><time>2026-04-25T08:07:35.983Z</time></trkpt><trkpt lat="43.46556825908039" lon="11.86938782981725"><ele>253.2</ele><time>2026-04-25T08:07:36.983Z</time></trkpt><trkpt lat="43.46562648904792" lon="11.869276511837857"><ele>253.0</ele><time>2026-04-25T08:07:37.983Z</time></trkpt><trkpt lat="43.46568597729076" lon="11.869185400200829"><ele>252.0</ele><time>2026-04-25T08:07:38.983Z</time></trkpt><trkpt lat="43.46573739583805" lon="11.869086848251792"><ele>251.0</ele><time>2026-04-25T08:07:39.983Z</time></trkpt><trkpt lat="43.465788299867064" lon="11.86898273946196"><ele>250.0</ele><time>2026-04-25T08:07:40.983Z</time></trkpt><trkpt lat="43.46583175811459" lon="11.86886373788506"><ele>249.0</ele><time>2026-04-25T08:07:41.983Z</time></trkpt><trkpt lat="43.465876368240544" lon="11.868733747812648"><ele>248.0</ele><time>2026-04-25T08:07:42.983Z</time></trkpt><trkpt lat="43.46590740141612" lon="11.868591568466536"><ele>248.25</ele><time>2026-04-25T08:07:43.983Z</time></trkpt><trkpt lat="43.465928031841" lon="11.868433492067947"><ele>248.5</ele><time>2026-04-25T08:07:44.983Z</time></trkpt><trkpt lat="43.46593893016834" lon="11.868263331271562"><ele>248.75</ele><time>2026-04-25T08:07:45.983Z</time></trkpt><trkpt lat="43.465954233630676" lon="11.868081215441956"><ele>249.0</ele><time>2026-04-25T08:07:46.983Z</time></trkpt><trkpt lat="43.465962640329366" lon="11.867888198337656"><ele>249.0</ele><time>2026-04-25T08:07:47.983Z</time></trkpt><trkpt lat="43.46596969145935" lon="11.867689176669831"><ele>249.0</ele><time>2026-04-25T08:07:48.983Z</time></trkpt><trkpt lat="43.46596677793047" lon="11.867499304093954"><ele>249.0</ele><time>2026-04-25T08:07:49.983Z</time></trkpt><trkpt lat="43.465967492233844" lon="11.867308470781829"><ele>249.0</ele><time>2026-04-25T08:07:50.983Z</time></trkpt><trkpt lat="43.46597065603049" lon="11.867129015424878"><ele>249.5</ele><time>2026-04-25T08:07:51.983Z</time></trkpt><trkpt lat="43.465979511478096" lon="11.866955579279923"><ele>250.0</ele><time>2026-04-25T08:07:52.983Z</time></trkpt><trkpt lat="43.46598445249806" lon="11.86677033696085"><ele>250.5</ele><time>2026-04-25T08:07:53.983Z</time></trkpt><trkpt lat="43.466005456697744" lon="11.866579529207366"><ele>251.0</ele><time>2026-04-25T08:07:54.983Z</time></trkpt><trkpt lat="43.4660446910562" lon="11.866399395584681"><ele>251.0</ele><time>2026-04-25T08:07:55.983Z</time></trkpt><trkpt lat="43.466084598275565" lon="11.86622085457836"><ele>251.0</ele><time>2026-04-25T08:07:56.983Z</time></trkpt><trkpt lat="43.46611937658562" lon="11.866055634099025"><ele>251.0</ele><time>2026-04-25T08:07:57.983Z</time></trkpt><trkpt lat="43.46615826658428" lon="11.86590193417993"><ele>251.0</ele><time>2026-04-25T08:07:58.983Z</time></trkpt><trkpt lat="43.46619714967744" lon="11.865761763607164"><ele>250.8</ele><time>2026-04-25T08:07:59.983Z</time></trkpt><trkpt lat="43.46623301455025" lon="11.8656302701245"><ele>250.60000000000002</ele><time>2026-04-25T08:08:00.983Z</time></trkpt><trkpt lat="43.46627232880479" lon="11.86550640111282"><ele>250.4</ele><time>2026-04-25T08:08:01.983Z</time></trkpt><trkpt lat="43.466311744255236" lon="11.865395967629572"><ele>250.2</ele><time>2026-04-25T08:08:02.983Z</time></trkpt><trkpt lat="43.466348536877454" lon="11.865288424475372"><ele>250.0</ele><time>2026-04-25T08:08:03.983Z</time></trkpt><trkpt lat="43.46638923080078" lon="11.865176639850553"><ele>249.6</ele><time>2026-04-25T08:08:04.983Z</time></trkpt><trkpt lat="43.46643514569224" lon="11.865061908145986"><ele>249.2</ele><time>2026-04-25T08:08:05.983Z</time></trkpt><trkpt lat="43.46647780460766" lon="11.864954047101184"><ele>248.8</ele><time>2026-04-25T08:08:06.983Z</time></trkpt><trkpt lat="43.466518033553854" lon="11.864838421255119"><ele>248.4</ele><time>2026-04-25T08:08:07.983Z</time></trkpt><trkpt lat="43.46656174667414" lon="11.864722124366912"><ele>248.0</ele><time>2026-04-25T08:08:08.983Z</time></trkpt><trkpt lat="43.46660562674814" lon="11.864600128161912"><ele>248.0</ele><time>2026-04-25T08:08:09.983Z</time></trkpt><trkpt lat="43.46666777480849" lon="11.86447639938261"><ele>248.0</ele><time>2026-04-25T08:08:10.983Z</time></trkpt><trkpt lat="43.46673609014807" lon="11.864338811799353"><ele>248.0</ele><time>2026-04-25T08:08:11.983Z</time></trkpt><trkpt lat="43.466819593535625" lon="11.864189447150935"><ele>248.0</ele><time>2026-04-25T08:08:12.983Z</time></trkpt><trkpt lat="43.466924596602894" lon="11.864041277087955"><ele>248.25</ele><time>2026-04-25T08:08:13.983Z</time></trkpt><trkpt lat="43.46704693131127" lon="11.86390259945669"><ele>248.5</ele><time>2026-04-25T08:08:14.983Z</time></trkpt><trkpt lat="43.46715826290759" lon="11.863778228724291"><ele>248.75</ele><time>2026-04-25T08:08:15.983Z</time></trkpt><trkpt lat="43.46726573932393" lon="11.863660457104515"><ele>249.0</ele><time>2026-04-25T08:08:16.982Z</time></trkpt><trkpt lat="43.46735751541243" lon="11.863544681821867"><ele>248.5</ele><time>2026-04-25T08:08:17.982Z</time></trkpt><trkpt lat="43.46745436249172" lon="11.863434612332583"><ele>248.0</ele><time>2026-04-25T08:08:18.982Z</time></trkpt><trkpt lat="43.467547099827605" lon="11.863334975709652"><ele>247.5</ele><time>2026-04-25T08:08:19.982Z</time></trkpt><trkpt lat="43.46762757046806" lon="11.863237552464058"><ele>247.0</ele><time>2026-04-25T08:08:20.982Z</time></trkpt><trkpt lat="43.46771350790029" lon="11.863132885347506"><ele>247.0</ele><time>2026-04-25T08:08:21.982Z</time></trkpt><trkpt lat="43.46779259841066" lon="11.86301567114818"><ele>247.0</ele><time>2026-04-25T08:08:22.982Z</time></trkpt><trkpt lat="43.46786607565034" lon="11.862897826488739"><ele>247.0</ele><time>2026-04-25T08:08:23.982Z</time></trkpt><trkpt lat="43.467929700178885" lon="11.862796246276222"><ele>247.0</ele><time>2026-04-25T08:08:24.982Z</time></trkpt><trkpt lat="43.4679762508567" lon="11.862715004748736"><ele>247.0</ele><time>2026-04-25T08:08:25.982Z</time></trkpt><trkpt lat="43.46801562800689" lon="11.862634381233427"><ele>247.42857142857144</ele><time>2026-04-25T08:08:26.982Z</time></trkpt><trkpt lat="43.468068283387716" lon="11.862567555583416"><ele>247.85714285714283</ele><time>2026-04-25T08:08:27.982Z</time></trkpt><trkpt lat="43.46813288423779" lon="11.862525234293656"><ele>248.28571428571428</ele><time>2026-04-25T08:08:28.982Z</time></trkpt><trkpt lat="43.468195130500426" lon="11.862493416549707"><ele>248.71428571428572</ele><time>2026-04-25T08:08:29.982Z</time></trkpt><trkpt lat="43.46825411280738" lon="11.862446360898504"><ele>249.14285714285717</ele><time>2026-04-25T08:08:30.982Z</time></trkpt><trkpt lat="43.46829550009203" lon="11.862368829693077"><ele>249.57142857142856</ele><time>2026-04-25T08:08:31.982Z</time></trkpt><trkpt lat="43.46832391672714" lon="11.862273909805767"><ele>250.0</ele><time>2026-04-25T08:08:32.982Z</time></trkpt><trkpt lat="43.46833505602324" lon="11.862164552341182"><ele>250.0</ele><time>2026-04-25T08:08:33.982Z</time></trkpt><trkpt lat="43.46834737816461" lon="11.862031436826536"><ele>250.0</ele><time>2026-04-25T08:08:34.982Z</time></trkpt><trkpt lat="43.468385364150045" lon="11.861876406778688"><ele>250.0</ele><time>2026-04-25T08:08:35.982Z</time></trkpt><trkpt lat="43.46844654143464" lon="11.861747800671816"><ele>250.0</ele><time>2026-04-25T08:08:36.982Z</time></trkpt><trkpt lat="43.468526308983634" lon="11.861652456970676"><ele>250.0</ele><time>2026-04-25T08:08:37.982Z</time></trkpt><trkpt lat="43.46861737636879" lon="11.861568801058324"><ele>249.75</ele><time>2026-04-25T08:08:38.982Z</time></trkpt><trkpt lat="43.46872228501005" lon="11.861507106972178"><ele>249.5</ele><time>2026-04-25T08:08:39.982Z</time></trkpt><trkpt lat="43.468834342459076" lon="11.861454197986944"><ele>249.25</ele><time>2026-04-25T08:08:40.982Z</time></trkpt><trkpt lat="43.46895917563403" lon="11.861428182115715"><ele>249.0</ele><time>2026-04-25T08:08:41.982Z</time></trkpt><trkpt lat="43.46909751123745" lon="11.861421514848338"><ele>249.0</ele><time>2026-04-25T08:08:42.982Z</time></trkpt><trkpt lat="43.46924886896643" lon="11.861433796032381"><ele>249.0</ele><time>2026-04-25T08:08:43.982Z</time></trkpt><trkpt lat="43.46940970193179" lon="11.861465348111008"><ele>249.0</ele><time>2026-04-25T08:08:44.982Z</time></trkpt><trkpt lat="43.469560999725815" lon="11.861501794017705"><ele>248.66666666666669</ele><time>2026-04-25T08:08:45.982Z</time></trkpt><trkpt lat="43.4697135580146" lon="11.861547206356667"><ele>248.33333333333334</ele><time>2026-04-25T08:08:46.982Z</time></trkpt><trkpt lat="43.46986902425505" lon="11.861591394467482"><ele>248.0</ele><time>2026-04-25T08:08:47.982Z</time></trkpt><trkpt lat="43.47002754540121" lon="11.861635659082808"><ele>248.0</ele><time>2026-04-25T08:08:48.982Z</time></trkpt><trkpt lat="43.470175470060205" lon="11.861677851127586"><ele>248.0</ele><time>2026-04-25T08:08:49.982Z</time></trkpt><trkpt lat="43.470328225232" lon="11.861720814172436"><ele>248.0</ele><time>2026-04-25T08:08:50.982Z</time></trkpt><trkpt lat="43.470481360812634" lon="11.861756129022373"><ele>248.33333333333334</ele><time>2026-04-25T08:08:51.982Z</time></trkpt><trkpt lat="43.47064432307822" lon="11.861794545055165"><ele>248.66666666666669</ele><time>2026-04-25T08:08:52.982Z</time></trkpt><trkpt lat="43.4708043397284" lon="11.86185023765468"><ele>249.0</ele><time>2026-04-25T08:08:53.982Z</time></trkpt><trkpt lat="43.470972703059225" lon="11.861910682047988"><ele>249.0</ele><time>2026-04-25T08:08:54.982Z</time></trkpt><trkpt lat="43.47114392101059" lon="11.861965557599406"><ele>249.0</ele><time>2026-04-25T08:08:55.982Z</time></trkpt><trkpt lat="43.47131286487743" lon="11.86201738663506"><ele>249.0</ele><time>2026-04-25T08:08:56.982Z</time></trkpt><trkpt lat="43.47147531441805" lon="11.86206668491055"><ele>249.33333333333331</ele><time>2026-04-25T08:08:57.982Z</time></trkpt><trkpt lat="43.47162683973808" lon="11.862113046987446"><ele>249.66666666666666</ele><time>2026-04-25T08:08:58.982Z</time></trkpt><trkpt lat="43.471773314405254" lon="11.86216252510622"><ele>250.0</ele><time>2026-04-25T08:08:59.982Z</time></trkpt><trkpt lat="43.471917351609086" lon="11.86222447955705"><ele>250.0</ele><time>2026-04-25T08:09:00.982Z</time></trkpt><trkpt lat="43.47205739819171" lon="11.862303122041553"><ele>250.0</ele><time>2026-04-25T08:09:01.982Z</time></trkpt><trkpt lat="43.4721934394073" lon="11.862397324288628"><ele>250.0</ele><time>2026-04-25T08:09:02.982Z</time></trkpt><trkpt lat="43.47232752551632" lon="11.862495467231915"><ele>249.0</ele><time>2026-04-25T08:09:03.982Z</time></trkpt><trkpt lat="43.47245696508723" lon="11.862592534202543"><ele>248.0</ele><time>2026-04-25T08:09:04.982Z</time></trkpt><trkpt lat="43.47259048153751" lon="11.86269861979495"><ele>247.0</ele><time>2026-04-25T08:09:05.982Z</time></trkpt><trkpt lat="43.47272917450219" lon="11.862815427526458"><ele>246.66666666666666</ele><time>2026-04-25T08:09:06.982Z</time></trkpt><trkpt lat="43.472877369165175" lon="11.862932824769803"><ele>246.33333333333331</ele><time>2026-04-25T08:09:07.982Z</time></trkpt><trkpt lat="43.473036854690726" lon="11.863049432437299"><ele>246.0</ele><time>2026-04-25T08:09:08.982Z</time></trkpt><trkpt lat="43.47319939756173" lon="11.863176164200427"><ele>246.0</ele><time>2026-04-25T08:09:09.982Z</time></trkpt><trkpt lat="43.47335802491325" lon="11.86331234381011"><ele>246.0</ele><time>2026-04-25T08:09:10.982Z</time></trkpt><trkpt lat="43.47352043369687" lon="11.863452914787244"><ele>246.0</ele><time>2026-04-25T08:09:11.982Z</time></trkpt><trkpt lat="43.473684227442234" lon="11.863599383570852"><ele>245.66666666666669</ele><time>2026-04-25T08:09:12.982Z</time></trkpt><trkpt lat="43.47385604330127" lon="11.863742050396725"><ele>245.33333333333334</ele><time>2026-04-25T08:09:13.982Z</time></trkpt><trkpt lat="43.474027015340134" lon="11.86388609563172"><ele>245.0</ele><time>2026-04-25T08:09:14.982Z</time></trkpt><trkpt lat="43.47419223152886" lon="11.864022559780127"><ele>245.0</ele><time>2026-04-25T08:09:15.982Z</time></trkpt><trkpt lat="43.47434698103431" lon="11.86415372508578"><ele>245.0</ele><time>2026-04-25T08:09:16.981Z</time></trkpt><trkpt lat="43.474493489925536" lon="11.864275243207013"><ele>245.0</ele><time>2026-04-25T08:09:17.981Z</time></trkpt><trkpt lat="43.47463662715076" lon="11.864388384852687"><ele>245.33333333333334</ele><time>2026-04-25T08:09:18.981Z</time></trkpt><trkpt lat="43.47477543429374" lon="11.864511807920604"><ele>245.66666666666669</ele><time>2026-04-25T08:09:19.981Z</time></trkpt><trkpt lat="43.47491222795285" lon="11.864632814778773"><ele>246.0</ele><time>2026-04-25T08:09:20.981Z</time></trkpt><trkpt lat="43.475055226986555" lon="11.86474450156485"><ele>246.0</ele><time>2026-04-25T08:09:21.981Z</time></trkpt><trkpt lat="43.475196155876276" lon="11.864857002690657"><ele>246.0</ele><time>2026-04-25T08:09:22.981Z</time></trkpt><trkpt lat="43.47534264152333" lon="11.864973826315978"><ele>246.0</ele><time>2026-04-25T08:09:23.981Z</time></trkpt><trkpt lat="43.47548207555098" lon="11.865076368386399"><ele>246.66666666666669</ele><time>2026-04-25T08:09:24.981Z</time></trkpt><trkpt lat="43.475626383276236" lon="11.865191813307035"><ele>247.33333333333334</ele><time>2026-04-25T08:09:25.981Z</time></trkpt><trkpt lat="43.475771838132275" lon="11.865307929161911"><ele>248.0</ele><time>2026-04-25T08:09:26.981Z</time></trkpt><trkpt lat="43.47591738736502" lon="11.865422896951163"><ele>248.0</ele><time>2026-04-25T08:09:27.981Z</time></trkpt><trkpt lat="43.47606231304582" lon="11.865534214442844"><ele>248.0</ele><time>2026-04-25T08:09:28.981Z</time></trkpt><trkpt lat="43.47620616979768" lon="11.865648542504356"><ele>248.0</ele><time>2026-04-25T08:09:29.981Z</time></trkpt><trkpt lat="43.47635361158813" lon="11.865766249215266"><ele>248.33333333333334</ele><time>2026-04-25T08:09:30.981Z</time></trkpt><trkpt lat="43.476508587278204" lon="11.865887985987571"><ele>248.66666666666669</ele><time>2026-04-25T08:09:31.981Z</time></trkpt><trkpt lat="43.476659199973" lon="11.865999008266275"><ele>249.0</ele><time>2026-04-25T08:09:32.981Z</time></trkpt><trkpt lat="43.47681255718461" lon="11.86611848276474"><ele>249.0</ele><time>2026-04-25T08:09:33.981Z</time></trkpt><trkpt lat="43.4769641495705" lon="11.866237526989911"><ele>249.0</ele><time>2026-04-25T08:09:34.981Z</time></trkpt><trkpt lat="43.47711346913036" lon="11.866350877911296"><ele>249.0</ele><time>2026-04-25T08:09:35.981Z</time></trkpt><trkpt lat="43.47725983924423" lon="11.866464401502522"><ele>249.0</ele><time>2026-04-25T08:09:36.981Z</time></trkpt><trkpt lat="43.477389132807964" lon="11.866566322008612"><ele>249.0</ele><time>2026-04-25T08:09:37.981Z</time></trkpt><trkpt lat="43.477517187299526" lon="11.866652373771592"><ele>249.0</ele><time>2026-04-25T08:09:38.981Z</time></trkpt><trkpt lat="43.47761862873209" lon="11.866729508978196"><ele>249.0</ele><time>2026-04-25T08:09:39.981Z</time></trkpt><trkpt lat="43.477697860170785" lon="11.866800760297878"><ele>248.83333333333334</ele><time>2026-04-25T08:09:40.981Z</time></trkpt><trkpt lat="43.477759621918985" lon="11.866859674709106"><ele>248.66666666666669</ele><time>2026-04-25T08:09:41.981Z</time></trkpt><trkpt lat="43.477809656211676" lon="11.866929472054641"><ele>248.5</ele><time>2026-04-25T08:09:42.981Z</time></trkpt><trkpt lat="43.47784515845174" lon="11.867014583440502"><ele>248.33333333333334</ele><time>2026-04-25T08:09:43.981Z</time></trkpt><trkpt lat="43.47787094049794" lon="11.867116258407663"><ele>248.16666666666669</ele><time>2026-04-25T08:09:44.981Z</time></trkpt><trkpt lat="43.47790102849833" lon="11.867230962672856"><ele>248.0</ele><time>2026-04-25T08:09:45.981Z</time></trkpt><trkpt lat="43.47794952238098" lon="11.867351563293338"><ele>248.0</ele><time>2026-04-25T08:09:46.981Z</time></trkpt><trkpt lat="43.478015185080274" lon="11.867459628558438"><ele>248.0</ele><time>2026-04-25T08:09:47.981Z</time></trkpt><trkpt lat="43.47809880676472" lon="11.86753881934677"><ele>248.0</ele><time>2026-04-25T08:09:48.981Z</time></trkpt><trkpt lat="43.478195890907365" lon="11.867584057577467"><ele>248.0</ele><time>2026-04-25T08:09:49.981Z</time></trkpt><trkpt lat="43.47830351223103" lon="11.867597401959904"><ele>248.0</ele><time>2026-04-25T08:09:50.981Z</time></trkpt><trkpt lat="43.47840426337861" lon="11.867570517194478"><ele>248.0</ele><time>2026-04-25T08:09:51.981Z</time></trkpt><trkpt lat="43.47850408375901" lon="11.867505793134038"><ele>248.0</ele><time>2026-04-25T08:09:52.981Z</time></trkpt><trkpt lat="43.47860821261309" lon="11.867444899755288"><ele>248.0</ele><time>2026-04-25T08:09:53.981Z</time></trkpt><trkpt lat="43.47872204557995" lon="11.867429999236053"><ele>248.0</ele><time>2026-04-25T08:09:54.981Z</time></trkpt><trkpt lat="43.478842035891255" lon="11.86747413302365"><ele>248.25</ele><time>2026-04-25T08:09:55.981Z</time></trkpt><trkpt lat="43.47895115356765" lon="11.86756422805359"><ele>248.5</ele><time>2026-04-25T08:09:56.981Z</time></trkpt><trkpt lat="43.4790671128566" lon="11.867653792952675"><ele>248.75</ele><time>2026-04-25T08:09:57.981Z</time></trkpt><trkpt lat="43.47919080010796" lon="11.867750504816783"><ele>249.0</ele><time>2026-04-25T08:09:58.981Z</time></trkpt><trkpt lat="43.479316316998315" lon="11.867843385598247"><ele>248.5</ele><time>2026-04-25T08:09:59.981Z</time></trkpt><trkpt lat="43.479440467115985" lon="11.867936782470931"><ele>248.0</ele><time>2026-04-25T08:10:00.981Z</time></trkpt><trkpt lat="43.47956229806133" lon="11.868031524552011"><ele>247.5</ele><time>2026-04-25T08:10:01.981Z</time></trkpt><trkpt lat="43.47969746317127" lon="11.868118902330675"><ele>247.0</ele><time>2026-04-25T08:10:02.981Z</time></trkpt><trkpt lat="43.47983704599769" lon="11.868206107034153"><ele>247.0</ele><time>2026-04-25T08:10:03.981Z</time></trkpt><trkpt lat="43.479976768421345" lon="11.868305774594285"><ele>247.0</ele><time>2026-04-25T08:10:04.981Z</time></trkpt><trkpt lat="43.48011456692117" lon="11.868417137011605"><ele>247.0</ele><time>2026-04-25T08:10:05.981Z</time></trkpt><trkpt lat="43.48026205260068" lon="11.868525475942823"><ele>247.0</ele><time>2026-04-25T08:10:06.981Z</time></trkpt><trkpt lat="43.48040915503201" lon="11.868639494139503"><ele>247.0</ele><time>2026-04-25T08:10:07.981Z</time></trkpt><trkpt lat="43.48055354318426" lon="11.868747258810336"><ele>247.0</ele><time>2026-04-25T08:10:08.981Z</time></trkpt><trkpt lat="43.480698247873164" lon="11.868855635636274"><ele>247.0</ele><time>2026-04-25T08:10:09.981Z</time></trkpt><trkpt lat="43.480841631341" lon="11.868971427596293"><ele>247.0</ele><time>2026-04-25T08:10:10.981Z</time></trkpt><trkpt lat="43.48098772603648" lon="11.869081287982498"><ele>247.0</ele><time>2026-04-25T08:10:11.981Z</time></trkpt><trkpt lat="43.481134505273324" lon="11.869192274472216"><ele>247.66666666666666</ele><time>2026-04-25T08:10:12.981Z</time></trkpt><trkpt lat="43.48128565014998" lon="11.869307888980517"><ele>248.33333333333331</ele><time>2026-04-25T08:10:13.981Z</time></trkpt><trkpt lat="43.481436314203734" lon="11.869424002239498"><ele>249.0</ele><time>2026-04-25T08:10:14.981Z</time></trkpt><trkpt lat="43.481589264952305" lon="11.869543483770244"><ele>249.0</ele><time>2026-04-25T08:10:15.981Z</time></trkpt><trkpt lat="43.4817473714775" lon="11.869666299034208"><ele>249.0</ele><time>2026-04-25T08:10:16.98Z</time></trkpt><trkpt lat="43.481908510622965" lon="11.869793159504882"><ele>249.0</ele><time>2026-04-25T08:10:17.98Z</time></trkpt><trkpt lat="43.482072945105536" lon="11.869920345764307"><ele>249.66666666666669</ele><time>2026-04-25T08:10:18.98Z</time></trkpt><trkpt lat="43.482242086202206" lon="11.870052221360455"><ele>250.33333333333334</ele><time>2026-04-25T08:10:19.98Z</time></trkpt><trkpt lat="43.48241019896435" lon="11.87018444048345"><ele>251.0</ele><time>2026-04-25T08:10:20.98Z</time></trkpt><trkpt lat="43.48258050964571" lon="11.870315584990985"><ele>251.0</ele><time>2026-04-25T08:10:21.98Z</time></trkpt><trkpt lat="43.482752899124115" lon="11.870441789312464"><ele>251.0</ele><time>2026-04-25T08:10:22.98Z</time></trkpt><trkpt lat="43.482926552306104" lon="11.870574949588626"><ele>251.0</ele><time>2026-04-25T08:10:23.98Z</time></trkpt><trkpt lat="43.48310048247718" lon="11.870706662395984"><ele>251.0</ele><time>2026-04-25T08:10:24.98Z</time></trkpt><trkpt lat="43.48327558905416" lon="11.870846514975408"><ele>251.0</ele><time>2026-04-25T08:10:25.98Z</time></trkpt><trkpt lat="43.48345365343691" lon="11.870990889765102"><ele>251.0</ele><time>2026-04-25T08:10:26.98Z</time></trkpt><trkpt lat="43.48362518615351" lon="11.871137783483483"><ele>251.0</ele><time>2026-04-25T08:10:27.98Z</time></trkpt><trkpt lat="43.483793355867356" lon="11.871301186556233"><ele>251.0</ele><time>2026-04-25T08:10:28.98Z</time></trkpt><trkpt lat="43.48395241194834" lon="11.871467750140976"><ele>251.0</ele><time>2026-04-25T08:10:29.98Z</time></trkpt><trkpt lat="43.48410700108178" lon="11.871638675379376"><ele>251.0</ele><time>2026-04-25T08:10:30.98Z</time></trkpt><trkpt lat="43.484258779932915" lon="11.871813867303437"><ele>251.0</ele><time>2026-04-25T08:10:31.98Z</time></trkpt><trkpt lat="43.484403540916304" lon="11.871995737719992"><ele>251.0</ele><time>2026-04-25T08:10:32.98Z</time></trkpt><trkpt lat="43.48453966119658" lon="11.872186833905545"><ele>251.0</ele><time>2026-04-25T08:10:33.98Z</time></trkpt><trkpt lat="43.4846674408475" lon="11.872387728564766"><ele>251.0</ele><time>2026-04-25T08:10:34.98Z</time></trkpt><trkpt lat="43.48479066361766" lon="11.872587444527301"><ele>251.0</ele><time>2026-04-25T08:10:35.98Z</time></trkpt><trkpt lat="43.484910004918774" lon="11.872786026127004"><ele>251.0</ele><time>2026-04-25T08:10:36.98Z</time></trkpt><trkpt lat="43.485017096609646" lon="11.872984730109973"><ele>251.0</ele><time>2026-04-25T08:10:37.98Z</time></trkpt><trkpt lat="43.48511928084448" lon="11.87317846790193"><ele>251.0</ele><time>2026-04-25T08:10:38.98Z</time></trkpt><trkpt lat="43.48519686045753" lon="11.873382619424216"><ele>251.0</ele><time>2026-04-25T08:10:39.98Z</time></trkpt><trkpt lat="43.48527767713507" lon="11.873563647714416"><ele>251.0</ele><time>2026-04-25T08:10:40.98Z</time></trkpt><trkpt lat="43.485351191408014" lon="11.873742623834785"><ele>251.0</ele><time>2026-04-25T08:10:41.98Z</time></trkpt><trkpt lat="43.48542029295805" lon="11.873925064396147"><ele>251.0</ele><time>2026-04-25T08:10:42.98Z</time></trkpt><trkpt lat="43.48548517025001" lon="11.874112760954157"><ele>251.0</ele><time>2026-04-25T08:10:43.98Z</time></trkpt><trkpt lat="43.48554610345742" lon="11.874296138309026"><ele>251.0</ele><time>2026-04-25T08:10:44.986Z</time></trkpt><trkpt lat="43.485599668174785" lon="11.874468692943438"><ele>251.0</ele><time>2026-04-25T08:10:45.986Z</time></trkpt><trkpt lat="43.48565171928874" lon="11.874645371909367"><ele>251.0</ele><time>2026-04-25T08:10:46.986Z</time></trkpt><trkpt lat="43.48571325071064" lon="11.874813494547785"><ele>251.0</ele><time>2026-04-25T08:10:47.986Z</time></trkpt><trkpt lat="43.48574048684799" lon="11.874991125086035"><ele>251.0</ele><time>2026-04-25T08:10:48.986Z</time></trkpt><trkpt lat="43.485776773400524" lon="11.875147441956775"><ele>251.0</ele><time>2026-04-25T08:10:49.986Z</time></trkpt><trkpt lat="43.48582004345307" lon="11.875282675789608"><ele>250.83333333333334</ele><time>2026-04-25T08:10:50.986Z</time></trkpt><trkpt lat="43.48584172663985" lon="11.875423608223276"><ele>250.66666666666669</ele><time>2026-04-25T08:10:51.986Z</time></trkpt><trkpt lat="43.48585461145981" lon="11.875552658510781"><ele>250.5</ele><time>2026-04-25T08:10:52.985Z</time></trkpt><trkpt lat="43.48584513646408" lon="11.875669491885809"><ele>250.33333333333331</ele><time>2026-04-25T08:10:53.985Z</time></trkpt><trkpt lat="43.48583745058783" lon="11.87576187794607"><ele>250.16666666666666</ele><time>2026-04-25T08:10:54.985Z</time></trkpt><trkpt lat="43.48579112670262" lon="11.875872595064218"><ele>250.0</ele><time>2026-04-25T08:10:56.985Z</time></trkpt><trkpt lat="43.485733659175956" lon="11.875985313300953"><ele>250.33333333333331</ele><time>2026-04-25T08:10:58.985Z</time></trkpt><trkpt lat="43.485698388520454" lon="11.876058336773779"><ele>250.66666666666666</ele><time>2026-04-25T08:10:59.985Z</time></trkpt><trkpt lat="43.48567205465344" lon="11.876149620570898"><ele>251.0</ele><time>2026-04-25T08:11:00.985Z</time></trkpt><trkpt lat="43.485656907305575" lon="11.876255429887921"><ele>251.33333333333331</ele><time>2026-04-25T08:11:01.985Z</time></trkpt><trkpt lat="43.485654420942545" lon="11.87636439185527"><ele>251.66666666666666</ele><time>2026-04-25T08:11:02.985Z</time></trkpt><trkpt lat="43.485678113836016" lon="11.876482967482078"><ele>252.0</ele><time>2026-04-25T08:11:03.985Z</time></trkpt><trkpt lat="43.485724567917764" lon="11.876591558914136"><ele>252.0</ele><time>2026-04-25T08:11:04.985Z</time></trkpt><trkpt lat="43.485801992563665" lon="11.876678892022081"><ele>252.0</ele><time>2026-04-25T08:11:05.985Z</time></trkpt><trkpt lat="43.485882900228034" lon="11.876734285118491"><ele>252.0</ele><time>2026-04-25T08:11:06.985Z</time></trkpt><trkpt lat="43.485977180736256" lon="11.876743344858253"><ele>252.0</ele><time>2026-04-25T08:11:07.985Z</time></trkpt><trkpt lat="43.48607323974663" lon="11.876716912264193"><ele>252.0</ele><time>2026-04-25T08:11:08.985Z</time></trkpt><trkpt lat="43.48616293227513" lon="11.87665066166416"><ele>252.0</ele><time>2026-04-25T08:11:09.985Z</time></trkpt><trkpt lat="43.48624033934514" lon="11.876553780464507"><ele>252.0</ele><time>2026-04-25T08:11:10.985Z</time></trkpt><trkpt lat="43.48630876395844" lon="11.876431154413687"><ele>252.0</ele><time>2026-04-25T08:11:11.985Z</time></trkpt><trkpt lat="43.486382143395986" lon="11.876302649025012"><ele>252.0</ele><time>2026-04-25T08:11:12.985Z</time></trkpt><trkpt lat="43.48647395592169" lon="11.876207026243732"><ele>252.0</ele><time>2026-04-25T08:11:13.985Z</time></trkpt><trkpt lat="43.48659782044162" lon="11.876146355128965"><ele>252.0</ele><time>2026-04-25T08:11:14.985Z</time></trkpt><trkpt lat="43.48674767958922" lon="11.876109672389044"><ele>252.0</ele><time>2026-04-25T08:11:15.985Z</time></trkpt><trkpt lat="43.48691951096941" lon="11.876090335962061"><ele>252.0</ele><time>2026-04-25T08:11:16.985Z</time></trkpt><trkpt lat="43.487089061714585" lon="11.876055753609236"><ele>252.0</ele><time>2026-04-25T08:11:17.985Z</time></trkpt><trkpt lat="43.48724821975035" lon="11.876019476930615"><ele>252.0</ele><time>2026-04-25T08:11:18.985Z</time></trkpt><trkpt lat="43.487407450828165" lon="11.875981980413219"><ele>252.25</ele><time>2026-04-25T08:11:19.985Z</time></trkpt><trkpt lat="43.487562814132055" lon="11.875944946791815"><ele>252.5</ele><time>2026-04-25T08:11:20.985Z</time></trkpt><trkpt lat="43.487706628881725" lon="11.87590892755574"><ele>252.75</ele><time>2026-04-25T08:11:21.985Z</time></trkpt><trkpt lat="43.48784077039298" lon="11.875877296758054"><ele>253.0</ele><time>2026-04-25T08:11:22.985Z</time></trkpt><trkpt lat="43.487970610036726" lon="11.875850105050116"><ele>253.0</ele><time>2026-04-25T08:11:23.985Z</time></trkpt><trkpt lat="43.488101178295366" lon="11.875819006200627"><ele>253.0</ele><time>2026-04-25T08:11:24.985Z</time></trkpt><trkpt lat="43.48824041767389" lon="11.875793018699463"><ele>253.0</ele><time>2026-04-25T08:11:25.985Z</time></trkpt><trkpt lat="43.48838094708253" lon="11.875762395552783"><ele>253.0</ele><time>2026-04-25T08:11:26.985Z</time></trkpt><trkpt lat="43.48852046978737" lon="11.875728340965447"><ele>253.0</ele><time>2026-04-25T08:11:27.985Z</time></trkpt><trkpt lat="43.48866236332928" lon="11.875696643083074"><ele>253.0</ele><time>2026-04-25T08:11:28.985Z</time></trkpt><trkpt lat="43.48879351254435" lon="11.875667129197783"><ele>253.0</ele><time>2026-04-25T08:11:29.985Z</time></trkpt><trkpt lat="43.48891982023622" lon="11.875637548661071"><ele>253.0</ele><time>2026-04-25T08:11:30.985Z</time></trkpt><trkpt lat="43.48903791396096" lon="11.875610778161748"><ele>253.25</ele><time>2026-04-25T08:11:31.984Z</time></trkpt><trkpt lat="43.4891504499075" lon="11.8755837595815"><ele>253.5</ele><time>2026-04-25T08:11:32.984Z</time></trkpt><trkpt lat="43.48926249350086" lon="11.875559506135303"><ele>253.75</ele><time>2026-04-25T08:11:33.984Z</time></trkpt><trkpt lat="43.4893826796" lon="11.875543405091374"><ele>254.0</ele><time>2026-04-25T08:11:34.984Z</time></trkpt><trkpt lat="43.489499385419634" lon="11.87553695836351"><ele>253.6</ele><time>2026-04-25T08:11:35.985Z</time></trkpt><trkpt lat="43.48960540990959" lon="11.875561850451392"><ele>253.2</ele><time>2026-04-25T08:11:36.985Z</time></trkpt><trkpt lat="43.489701775896336" lon="11.875582658062543"><ele>252.79999999999998</ele><time>2026-04-25T08:11:37.984Z</time></trkpt><trkpt lat="43.48979564932248" lon="11.87560954929461"><ele>252.39999999999998</ele><time>2026-04-25T08:11:38.984Z</time></trkpt><trkpt lat="43.48988358862109" lon="11.875621531548004"><ele>252.0</ele><time>2026-04-25T08:11:39.984Z</time></trkpt><trkpt lat="43.48996930151108" lon="11.87566065641842"><ele>252.0</ele><time>2026-04-25T08:11:40.984Z</time></trkpt><trkpt lat="43.490051849665406" lon="11.875711843904082"><ele>252.0</ele><time>2026-04-25T08:11:41.984Z</time></trkpt><trkpt lat="43.490134579913274" lon="11.875779871371106"><ele>252.0</ele><time>2026-04-25T08:11:42.984Z</time></trkpt><trkpt lat="43.490211358122515" lon="11.875851184397842"><ele>252.0</ele><time>2026-04-25T08:11:43.984Z</time></trkpt><trkpt lat="43.49027473754751" lon="11.875922619539098"><ele>252.0</ele><time>2026-04-25T08:11:44.984Z</time></trkpt><trkpt lat="43.490338762381576" lon="11.875993118913929"><ele>252.0</ele><time>2026-04-25T08:11:45.984Z</time></trkpt><trkpt lat="43.49039840030904" lon="11.876038717477728"><ele>252.14285714285714</ele><time>2026-04-25T08:11:46.984Z</time></trkpt><trkpt lat="43.490459569615254" lon="11.876065030046798"><ele>252.28571428571428</ele><time>2026-04-25T08:11:47.984Z</time></trkpt><trkpt lat="43.4905250753841" lon="11.876075248268807"><ele>252.42857142857144</ele><time>2026-04-25T08:11:48.984Z</time></trkpt><trkpt lat="43.490595422035355" lon="11.876059695889687"><ele>252.57142857142858</ele><time>2026-04-25T08:11:49.984Z</time></trkpt><trkpt lat="43.49066617617499" lon="11.876014631899617"><ele>252.71428571428572</ele><time>2026-04-25T08:11:50.984Z</time></trkpt><trkpt lat="43.490713928519355" lon="11.875952380468796"><ele>252.8571428571429</ele><time>2026-04-25T08:11:51.984Z</time></trkpt><trkpt lat="43.49075353099716" lon="11.875884609237977"><ele>253.00000000000003</ele><time>2026-04-25T08:11:52.984Z</time></trkpt><trkpt lat="43.49078617384852" lon="11.875793355857347"><ele>253.0</ele><time>2026-04-25T08:11:53.984Z</time></trkpt><trkpt lat="43.49080421779255" lon="11.875687457369484"><ele>253.0</ele><time>2026-04-25T08:11:54.984Z</time></trkpt><trkpt lat="43.490828977421316" lon="11.875576557902376"><ele>253.0</ele><time>2026-04-25T08:11:55.984Z</time></trkpt><trkpt lat="43.490879752819595" lon="11.875477045124914"><ele>253.0</ele><time>2026-04-25T08:11:56.984Z</time></trkpt><trkpt lat="43.49095656228037" lon="11.875388986478482"><ele>253.0</ele><time>2026-04-25T08:11:57.984Z</time></trkpt><trkpt lat="43.4910493605364" lon="11.875308887238377"><ele>253.0</ele><time>2026-04-25T08:11:58.984Z</time></trkpt><trkpt lat="43.49113329761574" lon="11.875248998039853"><ele>253.0</ele><time>2026-04-25T08:11:59.984Z</time></trkpt><trkpt lat="43.4912277937545" lon="11.87518714536507"><ele>253.0</ele><time>2026-04-25T08:12:00.984Z</time></trkpt><trkpt lat="43.49132924541672" lon="11.875124158975016"><ele>253.0</ele><time>2026-04-25T08:12:01.984Z</time></trkpt><trkpt lat="43.49143928515009" lon="11.875076900392395"><ele>253.0</ele><time>2026-04-25T08:12:02.984Z</time></trkpt><trkpt lat="43.49156294296941" lon="11.875053719104306"><ele>253.0</ele><time>2026-04-25T08:12:03.984Z</time></trkpt><trkpt lat="43.49169294921821" lon="11.875034246438986"><ele>253.0</ele><time>2026-04-25T08:12:04.984Z</time></trkpt><trkpt lat="43.49181614142739" lon="11.875004826777019"><ele>253.0</ele><time>2026-04-25T08:12:05.984Z</time></trkpt><trkpt lat="43.491939346643164" lon="11.874974891732569"><ele>253.0</ele><time>2026-04-25T08:12:06.984Z</time></trkpt><trkpt lat="43.49206509420045" lon="11.874942133920575"><ele>252.75</ele><time>2026-04-25T08:12:07.984Z</time></trkpt><trkpt lat="43.49219619752609" lon="11.874915680903069"><ele>252.5</ele><time>2026-04-25T08:12:08.984Z</time></trkpt><trkpt lat="43.492330724343304" lon="11.874893033995505"><ele>252.25</ele><time>2026-04-25T08:12:09.984Z</time></trkpt><trkpt lat="43.49246608648292" lon="11.874868646081417"><ele>252.0</ele><time>2026-04-25T08:12:10.984Z</time></trkpt><trkpt lat="43.49260186110398" lon="11.874837962324936"><ele>252.0</ele><time>2026-04-25T08:12:11.984Z</time></trkpt><trkpt lat="43.49273994457313" lon="11.87481033948242"><ele>252.0</ele><time>2026-04-25T08:12:12.984Z</time></trkpt><trkpt lat="43.49288650230394" lon="11.874777282903366"><ele>252.0</ele><time>2026-04-25T08:12:13.984Z</time></trkpt><trkpt lat="43.493038649382015" lon="11.874736074539566"><ele>252.0</ele><time>2026-04-25T08:12:14.984Z</time></trkpt><trkpt lat="43.493195655822085" lon="11.874699429249578"><ele>252.5</ele><time>2026-04-25T08:12:15.983Z</time></trkpt><trkpt lat="43.49334894466082" lon="11.874666305311361"><ele>253.0</ele><time>2026-04-25T08:12:16.983Z</time></trkpt><trkpt lat="43.493490147169794" lon="11.874634845222317"><ele>253.5</ele><time>2026-04-25T08:12:17.983Z</time></trkpt><trkpt lat="43.49363066211403" lon="11.874604444137162"><ele>254.0</ele><time>2026-04-25T08:12:18.983Z</time></trkpt><trkpt lat="43.49377480238059" lon="11.87456953469215"><ele>254.0</ele><time>2026-04-25T08:12:19.983Z</time></trkpt><trkpt lat="43.493922953755344" lon="11.874532134003669"><ele>254.0</ele><time>2026-04-25T08:12:20.983Z</time></trkpt><trkpt lat="43.49408108925395" lon="11.874514057508263"><ele>254.0</ele><time>2026-04-25T08:12:21.983Z</time></trkpt><trkpt lat="43.49423390801218" lon="11.87447526848341"><ele>254.0</ele><time>2026-04-25T08:12:22.983Z</time></trkpt><trkpt lat="43.49439459510312" lon="11.874437063874534"><ele>254.0</ele><time>2026-04-25T08:12:23.983Z</time></trkpt><trkpt lat="43.49456032759374" lon="11.874401503778962"><ele>254.0</ele><time>2026-04-25T08:12:24.983Z</time></trkpt><trkpt lat="43.49472133203334" lon="11.874364199162375"><ele>253.33333333333334</ele><time>2026-04-25T08:12:25.983Z</time></trkpt><trkpt lat="43.49487728359336" lon="11.874325775796839"><ele>252.66666666666669</ele><time>2026-04-25T08:12:26.983Z</time></trkpt><trkpt lat="43.495033991334566" lon="11.87428800176028"><ele>252.0</ele><time>2026-04-25T08:12:27.983Z</time></trkpt><trkpt lat="43.49519616379211" lon="11.874258173448897"><ele>252.0</ele><time>2026-04-25T08:12:28.983Z</time></trkpt><trkpt lat="43.495358145622156" lon="11.87421943479489"><ele>252.0</ele><time>2026-04-25T08:12:29.983Z</time></trkpt><trkpt lat="43.495525500520536" lon="11.874180995114456"><ele>252.0</ele><time>2026-04-25T08:12:30.983Z</time></trkpt><trkpt lat="43.49569583715105" lon="11.874144210952965"><ele>251.66666666666669</ele><time>2026-04-25T08:12:31.983Z</time></trkpt><trkpt lat="43.49587112725238" lon="11.874107132325365"><ele>251.33333333333334</ele><time>2026-04-25T08:12:32.983Z</time></trkpt><trkpt lat="43.49604830895095" lon="11.8740675766317"><ele>251.0</ele><time>2026-04-25T08:12:33.983Z</time></trkpt><trkpt lat="43.49622581592" lon="11.874030382146827"><ele>251.33333333333334</ele><time>2026-04-25T08:12:34.983Z</time></trkpt><trkpt lat="43.496402922976216" lon="11.873987033767815"><ele>251.66666666666669</ele><time>2026-04-25T08:12:35.983Z</time></trkpt><trkpt lat="43.49658259000568" lon="11.873945096430813"><ele>252.0</ele><time>2026-04-25T08:12:36.983Z</time></trkpt><trkpt lat="43.496764306624364" lon="11.87390390014717"><ele>252.0</ele><time>2026-04-25T08:12:37.983Z</time></trkpt><trkpt lat="43.496939885292285" lon="11.87386526460512"><ele>252.0</ele><time>2026-04-25T08:12:38.983Z</time></trkpt><trkpt lat="43.49711796855916" lon="11.873826772243511"><ele>252.0</ele><time>2026-04-25T08:12:39.983Z</time></trkpt><trkpt lat="43.49729791896921" lon="11.873790580356113"><ele>252.0</ele><time>2026-04-25T08:12:40.983Z</time></trkpt><trkpt lat="43.497477083706855" lon="11.873754026317762"><ele>252.0</ele><time>2026-04-25T08:12:41.983Z</time></trkpt><trkpt lat="43.49765319745247" lon="11.873717011147468"><ele>252.0</ele><time>2026-04-25T08:12:42.983Z</time></trkpt><trkpt lat="43.49782787274196" lon="11.873682885873711"><ele>252.33333333333331</ele><time>2026-04-25T08:12:43.983Z</time></trkpt><trkpt lat="43.49800228708048" lon="11.873650672543901"><ele>252.66666666666666</ele><time>2026-04-25T08:12:44.983Z</time></trkpt><trkpt lat="43.49818142828021" lon="11.873620204798664"><ele>253.0</ele><time>2026-04-25T08:12:45.983Z</time></trkpt><trkpt lat="43.49836094905741" lon="11.873588368861174"><ele>253.0</ele><time>2026-04-25T08:12:46.983Z</time></trkpt><trkpt lat="43.498537240372315" lon="11.87355204136463"><ele>253.0</ele><time>2026-04-25T08:12:47.983Z</time></trkpt><trkpt lat="43.49871620922987" lon="11.87351468803882"><ele>253.0</ele><time>2026-04-25T08:12:48.983Z</time></trkpt><trkpt lat="43.49889388612264" lon="11.873475779094845"><ele>252.66666666666666</ele><time>2026-04-25T08:12:49.983Z</time></trkpt><trkpt lat="43.49907158841997" lon="11.873437096436325"><ele>252.33333333333331</ele><time>2026-04-25T08:12:50.983Z</time></trkpt><trkpt lat="43.49925719552014" lon="11.873416337983283"><ele>252.0</ele><time>2026-04-25T08:12:51.983Z</time></trkpt><trkpt lat="43.499437419115885" lon="11.873375506362711"><ele>251.66666666666669</ele><time>2026-04-25T08:12:52.983Z</time></trkpt><trkpt lat="43.49961704150204" lon="11.873337224012147"><ele>251.33333333333334</ele><time>2026-04-25T08:12:53.983Z</time></trkpt><trkpt lat="43.49979516735382" lon="11.873293692125614"><ele>251.0</ele><time>2026-04-25T08:12:54.983Z</time></trkpt><trkpt lat="43.49997230102201" lon="11.873248560478872"><ele>251.0</ele><time>2026-04-25T08:12:55.983Z</time></trkpt><trkpt lat="43.50014613677745" lon="11.873204649279932"><ele>251.0</ele><time>2026-04-25T08:12:56.983Z</time></trkpt><trkpt lat="43.500318068584996" lon="11.87316523376782"><ele>251.0</ele><time>2026-04-25T08:12:57.983Z</time></trkpt><trkpt lat="43.500484009432576" lon="11.873130902538561"><ele>251.66666666666669</ele><time>2026-04-25T08:12:58.983Z</time></trkpt><trkpt lat="43.50064278805772" lon="11.87309834912275"><ele>252.33333333333331</ele><time>2026-04-25T08:12:59.983Z</time></trkpt><trkpt lat="43.50080149076878" lon="11.87305797656417"><ele>253.0</ele><time>2026-04-25T08:13:00.983Z</time></trkpt><trkpt lat="43.50096317339255" lon="11.873022575574334"><ele>253.0</ele><time>2026-04-25T08:13:01.983Z</time></trkpt><trkpt lat="43.50113127020463" lon="11.872986572241203"><ele>253.0</ele><time>2026-04-25T08:13:02.983Z</time></trkpt><trkpt lat="43.50130102021147" lon="11.87294948690791"><ele>253.0</ele><time>2026-04-25T08:13:03.983Z</time></trkpt><trkpt lat="43.50147504407907" lon="11.872912484902718"><ele>253.33333333333331</ele><time>2026-04-25T08:13:04.983Z</time></trkpt><trkpt lat="43.501650809355326" lon="11.872872923924058"><ele>253.66666666666669</ele><time>2026-04-25T08:13:05.983Z</time></trkpt><trkpt lat="43.50183016663535" lon="11.87284733937732"><ele>254.0</ele><time>2026-04-25T08:13:06.983Z</time></trkpt><trkpt lat="43.50200705658181" lon="11.87280849226661"><ele>253.66666666666669</ele><time>2026-04-25T08:13:07.983Z</time></trkpt><trkpt lat="43.50218248802081" lon="11.872765756570061"><ele>253.33333333333331</ele><time>2026-04-25T08:13:08.983Z</time></trkpt><trkpt lat="43.502357824813714" lon="11.872726943109187"><ele>253.0</ele><time>2026-04-25T08:13:09.983Z</time></trkpt><trkpt lat="43.50252626454806" lon="11.87268919544591"><ele>253.0</ele><time>2026-04-25T08:13:10.983Z</time></trkpt><trkpt lat="43.5026954522946" lon="11.872651821314093"><ele>253.0</ele><time>2026-04-25T08:13:11.983Z</time></trkpt><trkpt lat="43.50286284488318" lon="11.872613461045612"><ele>253.0</ele><time>2026-04-25T08:13:12.983Z</time></trkpt><trkpt lat="43.503021706924784" lon="11.872573927515974"><ele>253.0</ele><time>2026-04-25T08:13:13.983Z</time></trkpt><trkpt lat="43.503178650959235" lon="11.872534287385184"><ele>253.0</ele><time>2026-04-25T08:13:14.983Z</time></trkpt><trkpt lat="43.50333785011445" lon="11.872494449864519"><ele>253.0</ele><time>2026-04-25T08:13:15.982Z</time></trkpt><trkpt lat="43.50350203967809" lon="11.872457054275586"><ele>253.0</ele><time>2026-04-25T08:13:16.982Z</time></trkpt><trkpt lat="43.50367166659424" lon="11.872422304228463"><ele>253.0</ele><time>2026-04-25T08:13:17.982Z</time></trkpt><trkpt lat="43.503836638266236" lon="11.87238650792264"><ele>253.0</ele><time>2026-04-25T08:13:18.982Z</time></trkpt><trkpt lat="43.503996409252295" lon="11.87235059614681"><ele>253.0</ele><time>2026-04-25T08:13:19.982Z</time></trkpt><trkpt lat="43.50415670037772" lon="11.872316634880717"><ele>253.0</ele><time>2026-04-25T08:13:20.982Z</time></trkpt><trkpt lat="43.5043158172279" lon="11.872283238783655"><ele>253.0</ele><time>2026-04-25T08:13:21.982Z</time></trkpt><trkpt lat="43.50447590200215" lon="11.872250059152615"><ele>253.66666666666666</ele><time>2026-04-25T08:13:22.982Z</time></trkpt><trkpt lat="43.50463856477182" lon="11.872214222118705"><ele>254.33333333333331</ele><time>2026-04-25T08:13:23.982Z</time></trkpt><trkpt lat="43.504802636983236" lon="11.87217887044406"><ele>255.0</ele><time>2026-04-25T08:13:24.982Z</time></trkpt><trkpt lat="43.50497026211738" lon="11.872140394760043"><ele>255.0</ele><time>2026-04-25T08:13:25.982Z</time></trkpt><trkpt lat="43.505142861526686" lon="11.87210344323504"><ele>255.0</ele><time>2026-04-25T08:13:26.982Z</time></trkpt><trkpt lat="43.50531571133144" lon="11.872059780401694"><ele>255.0</ele><time>2026-04-25T08:13:27.982Z</time></trkpt><trkpt lat="43.50549261326385" lon="11.872016885769092"><ele>254.66666666666669</ele><time>2026-04-25T08:13:28.982Z</time></trkpt><trkpt lat="43.50567407726193" lon="11.871976705885773"><ele>254.33333333333334</ele><time>2026-04-25T08:13:29.982Z</time></trkpt><trkpt lat="43.50585868831773" lon="11.871938108435415"><ele>254.0</ele><time>2026-04-25T08:13:30.982Z</time></trkpt><trkpt lat="43.50603932532373" lon="11.871904196393622"><ele>254.0</ele><time>2026-04-25T08:13:31.982Z</time></trkpt><trkpt lat="43.506217269066624" lon="11.87186913316199"><ele>254.0</ele><time>2026-04-25T08:13:32.982Z</time></trkpt><trkpt lat="43.50639576894202" lon="11.871828561903316"><ele>254.0</ele><time>2026-04-25T08:13:33.982Z</time></trkpt><trkpt lat="43.506576886563586" lon="11.8717894318755"><ele>254.0</ele><time>2026-04-25T08:13:34.982Z</time></trkpt><trkpt lat="43.50675823906342" lon="11.871751668082807"><ele>254.0</ele><time>2026-04-25T08:13:35.982Z</time></trkpt><trkpt lat="43.506942856100196" lon="11.871713136067784"><ele>254.0</ele><time>2026-04-25T08:13:36.982Z</time></trkpt><trkpt lat="43.507127839533645" lon="11.87167052069692"><ele>255.0</ele><time>2026-04-25T08:13:37.981Z</time></trkpt><trkpt lat="43.50731400717272" lon="11.871629560132307"><ele>256.0</ele><time>2026-04-25T08:13:38.981Z</time></trkpt><trkpt lat="43.50750646546323" lon="11.8715884857779"><ele>257.0</ele><time>2026-04-25T08:13:39.981Z</time></trkpt><trkpt lat="43.50769822680502" lon="11.871544150296547"><ele>257.0</ele><time>2026-04-25T08:13:40.981Z</time></trkpt><trkpt lat="43.50788681566466" lon="11.871504092632572"><ele>257.0</ele><time>2026-04-25T08:13:41.981Z</time></trkpt><trkpt lat="43.50808283500281" lon="11.871464478405633"><ele>257.0</ele><time>2026-04-25T08:13:42.981Z</time></trkpt><trkpt lat="43.508277994764775" lon="11.871423583249262"><ele>257.0</ele><time>2026-04-25T08:13:43.981Z</time></trkpt><trkpt lat="43.508470267596465" lon="11.871387149485154"><ele>257.0</ele><time>2026-04-25T08:13:44.981Z</time></trkpt><trkpt lat="43.50865843925002" lon="11.871343753236587"><ele>257.0</ele><time>2026-04-25T08:13:45.981Z</time></trkpt><trkpt lat="43.50884973093547" lon="11.871302552071302"><ele>257.0</ele><time>2026-04-25T08:13:46.981Z</time></trkpt><trkpt lat="43.509040111743914" lon="11.871260480423736"><ele>257.0</ele><time>2026-04-25T08:13:47.981Z</time></trkpt><trkpt lat="43.50923137523501" lon="11.871217335904694"><ele>257.0</ele><time>2026-04-25T08:13:48.98Z</time></trkpt><trkpt lat="43.509421282039376" lon="11.87118170918118"><ele>256.6666666666667</ele><time>2026-04-25T08:13:49.981Z</time></trkpt><trkpt lat="43.5096078827606" lon="11.871145374489895"><ele>256.3333333333333</ele><time>2026-04-25T08:13:50.981Z</time></trkpt><trkpt lat="43.50979285425292" lon="11.871107012510748"><ele>256.0</ele><time>2026-04-25T08:13:51.981Z</time></trkpt><trkpt lat="43.50997697180006" lon="11.8710671710213"><ele>256.0</ele><time>2026-04-25T08:13:52.981Z</time></trkpt><trkpt lat="43.51015878987919" lon="11.871027138955906"><ele>256.0</ele><time>2026-04-25T08:13:53.981Z</time></trkpt><trkpt lat="43.510341686866504" lon="11.870993783282614"><ele>256.0</ele><time>2026-04-25T08:13:54.981Z</time></trkpt><trkpt lat="43.510525360794894" lon="11.870954530035881"><ele>256.66666666666663</ele><time>2026-04-25T08:13:55.981Z</time></trkpt><trkpt lat="43.51070743852643" lon="11.870913485698456"><ele>257.3333333333333</ele><time>2026-04-25T08:13:56.981Z</time></trkpt><trkpt lat="43.51088337996383" lon="11.870876514531968"><ele>258.0</ele><time>2026-04-25T08:13:57.981Z</time></trkpt><trkpt lat="43.51105345273058" lon="11.870841618131298"><ele>258.0</ele><time>2026-04-25T08:13:58.981Z</time></trkpt><trkpt lat="43.511224867331364" lon="11.870807708053542"><ele>258.0</ele><time>2026-04-25T08:13:59.981Z</time></trkpt><trkpt lat="43.5113908179171" lon="11.870775885265843"><ele>258.0</ele><time>2026-04-25T08:14:00.981Z</time></trkpt><trkpt lat="43.51155909383159" lon="11.870741699964208"><ele>258.0</ele><time>2026-04-25T08:14:01.981Z</time></trkpt><trkpt lat="43.511728063621014" lon="11.870707209146877"><ele>258.0</ele><time>2026-04-25T08:14:02.981Z</time></trkpt><trkpt lat="43.511894191752184" lon="11.870671420496258"><ele>258.0</ele><time>2026-04-25T08:14:03.981Z</time></trkpt><trkpt lat="43.512057835570936" lon="11.870637345673723"><ele>257.6666666666667</ele><time>2026-04-25T08:14:04.981Z</time></trkpt><trkpt lat="43.512215081798296" lon="11.870606368027993"><ele>257.33333333333337</ele><time>2026-04-25T08:14:05.981Z</time></trkpt><trkpt lat="43.512372316168175" lon="11.870571334626147"><ele>257.0</ele><time>2026-04-25T08:14:06.981Z</time></trkpt><trkpt lat="43.512531493383136" lon="11.870535427319808"><ele>257.0</ele><time>2026-04-25T08:14:07.981Z</time></trkpt><trkpt lat="43.51269624900662" lon="11.87050201846324"><ele>257.0</ele><time>2026-04-25T08:14:08.981Z</time></trkpt><trkpt lat="43.512864302209884" lon="11.870468071542259"><ele>257.0</ele><time>2026-04-25T08:14:09.981Z</time></trkpt><trkpt lat="43.51303638807553" lon="11.870431264720407"><ele>257.6666666666667</ele><time>2026-04-25T08:14:10.981Z</time></trkpt><trkpt lat="43.51320765013479" lon="11.870390394540408"><ele>258.3333333333333</ele><time>2026-04-25T08:14:11.981Z</time></trkpt><trkpt lat="43.51337549818064" lon="11.870361871319608"><ele>259.0</ele><time>2026-04-25T08:14:12.981Z</time></trkpt><trkpt lat="43.51354381381305" lon="11.870321583739242"><ele>259.0</ele><time>2026-04-25T08:14:13.981Z</time></trkpt><trkpt lat="43.51371580619375" lon="11.870277895824064"><ele>259.0</ele><time>2026-04-25T08:14:14.981Z</time></trkpt><trkpt lat="43.5138932941209" lon="11.870233233290758"><ele>259.0</ele><time>2026-04-25T08:14:15.981Z</time></trkpt><trkpt lat="43.51406587601224" lon="11.870186950451034"><ele>258.66666666666663</ele><time>2026-04-25T08:14:16.981Z</time></trkpt><trkpt lat="43.51423994353217" lon="11.870133231271293"><ele>258.3333333333333</ele><time>2026-04-25T08:14:17.981Z</time></trkpt><trkpt lat="43.51441956565536" lon="11.870079988175966"><ele>258.0</ele><time>2026-04-25T08:14:18.981Z</time></trkpt><trkpt lat="43.51459914092707" lon="11.87002472676024"><ele>258.0</ele><time>2026-04-25T08:14:19.981Z</time></trkpt><trkpt lat="43.51477677608252" lon="11.86997135411758"><ele>258.0</ele><time>2026-04-25T08:14:20.981Z</time></trkpt><trkpt lat="43.514954019887256" lon="11.869917838899179"><ele>258.0</ele><time>2026-04-25T08:14:21.981Z</time></trkpt><trkpt lat="43.51512983565433" lon="11.869864962073953"><ele>258.0</ele><time>2026-04-25T08:14:22.981Z</time></trkpt><trkpt lat="43.515302225465035" lon="11.869811245775159"><ele>258.0</ele><time>2026-04-25T08:14:23.981Z</time></trkpt><trkpt lat="43.51547369233423" lon="11.869758129945966"><ele>258.0</ele><time>2026-04-25T08:14:24.981Z</time></trkpt><trkpt lat="43.51564742337803" lon="11.869708767301612"><ele>257.3333333333333</ele><time>2026-04-25T08:14:25.981Z</time></trkpt><trkpt lat="43.51582532724641" lon="11.869656914460764"><ele>256.66666666666663</ele><time>2026-04-25T08:14:26.981Z</time></trkpt><trkpt lat="43.516006121248054" lon="11.869605528163985"><ele>256.0</ele><time>2026-04-25T08:14:27.981Z</time></trkpt><trkpt lat="43.51617997167682" lon="11.869555944596586"><ele>255.66666666666666</ele><time>2026-04-25T08:14:28.981Z</time></trkpt><trkpt lat="43.51635161895012" lon="11.869507266126234"><ele>255.33333333333331</ele><time>2026-04-25T08:14:29.981Z</time></trkpt><trkpt lat="43.51652430328339" lon="11.86945815488223"><ele>255.0</ele><time>2026-04-25T08:14:30.981Z</time></trkpt><trkpt lat="43.51669277953084" lon="11.869411298404705"><ele>255.0</ele><time>2026-04-25T08:14:31.981Z</time></trkpt><trkpt lat="43.51686305855711" lon="11.869365823774073"><ele>255.0</ele><time>2026-04-25T08:14:32.981Z</time></trkpt><trkpt lat="43.5170353017775" lon="11.869318684357383"><ele>255.0</ele><time>2026-04-25T08:14:33.98Z</time></trkpt><trkpt lat="43.5172072012038" lon="11.869267972787647"><ele>256.0</ele><time>2026-04-25T08:14:34.98Z</time></trkpt><trkpt lat="43.51738107930389" lon="11.869222013832239"><ele>257.0</ele><time>2026-04-25T08:14:35.98Z</time></trkpt><trkpt lat="43.51755123278537" lon="11.869179541961795"><ele>258.0</ele><time>2026-04-25T08:14:36.98Z</time></trkpt><trkpt lat="43.51771979798137" lon="11.8691419248882"><ele>258.0</ele><time>2026-04-25T08:14:37.98Z</time></trkpt><trkpt lat="43.51788394086036" lon="11.86909717982283"><ele>258.0</ele><time>2026-04-25T08:14:38.98Z</time></trkpt><trkpt lat="43.51805340820325" lon="11.869050194436303"><ele>258.0</ele><time>2026-04-25T08:14:39.98Z</time></trkpt><trkpt lat="43.5182240074213" lon="11.869004242162475"><ele>257.0</ele><time>2026-04-25T08:14:40.98Z</time></trkpt><trkpt lat="43.51839497164651" lon="11.86896402681167"><ele>256.0</ele><time>2026-04-25T08:14:41.98Z</time></trkpt><trkpt lat="43.51857453370946" lon="11.868924799828463"><ele>255.0</ele><time>2026-04-25T08:14:42.98Z</time></trkpt><trkpt lat="43.518751521913245" lon="11.868879456027676"><ele>254.66666666666669</ele><time>2026-04-25T08:14:43.98Z</time></trkpt><trkpt lat="43.51893990437677" lon="11.868840528046066"><ele>254.33333333333334</ele><time>2026-04-25T08:14:44.98Z</time></trkpt><trkpt lat="43.51913061973978" lon="11.868802904568923"><ele>254.0</ele><time>2026-04-25T08:14:45.98Z</time></trkpt><trkpt lat="43.5193226293406" lon="11.868770171853106"><ele>254.0</ele><time>2026-04-25T08:14:46.98Z</time></trkpt><trkpt lat="43.51952285140452" lon="11.868744051615302"><ele>254.0</ele><time>2026-04-25T08:14:47.98Z</time></trkpt><trkpt lat="43.51971976303183" lon="11.868728190720367"><ele>254.0</ele><time>2026-04-25T08:14:48.98Z</time></trkpt><trkpt lat="43.51991932940029" lon="11.868712867740108"><ele>253.33333333333334</ele><time>2026-04-25T08:14:49.98Z</time></trkpt><trkpt lat="43.52011615185317" lon="11.86870711213858"><ele>252.66666666666669</ele><time>2026-04-25T08:14:50.98Z</time></trkpt><trkpt lat="43.52031379222849" lon="11.868702746980155"><ele>252.0</ele><time>2026-04-25T08:14:51.98Z</time></trkpt><trkpt lat="43.52051048874498" lon="11.868696784330371"><ele>250.66666666666669</ele><time>2026-04-25T08:14:52.98Z</time></trkpt><trkpt lat="43.52070970797633" lon="11.868692808206575"><ele>249.33333333333334</ele><time>2026-04-25T08:14:53.98Z</time></trkpt><trkpt lat="43.5209056419288" lon="11.86868596113065"><ele>248.0</ele><time>2026-04-25T08:14:54.98Z</time></trkpt><trkpt lat="43.521100970541085" lon="11.86870342759158"><ele>248.0</ele><time>2026-04-25T08:14:55.98Z</time></trkpt><trkpt lat="43.52129748537074" lon="11.868700754928156"><ele>248.0</ele><time>2026-04-25T08:14:56.98Z</time></trkpt><trkpt lat="43.52149826823624" lon="11.868696158241473"><ele>248.0</ele><time>2026-04-25T08:14:57.98Z</time></trkpt><trkpt lat="43.52169168645779" lon="11.868691599237883"><ele>248.0</ele><time>2026-04-25T08:14:58.98Z</time></trkpt><trkpt lat="43.52187780200202" lon="11.868687181180833"><ele>248.0</ele><time>2026-04-25T08:14:59.98Z</time></trkpt><trkpt lat="43.52206276792203" lon="11.868682680450265"><ele>248.0</ele><time>2026-04-25T08:15:00.98Z</time></trkpt><trkpt lat="43.52225486346026" lon="11.868677806273707"><ele>248.33333333333334</ele><time>2026-04-25T08:15:01.98Z</time></trkpt><trkpt lat="43.5224404073253" lon="11.868674183981021"><ele>248.66666666666669</ele><time>2026-04-25T08:15:02.98Z</time></trkpt><trkpt lat="43.5226351220384" lon="11.868669849237953"><ele>249.0</ele><time>2026-04-25T08:15:03.98Z</time></trkpt><trkpt lat="43.522819026563155" lon="11.868665607026223"><ele>249.0</ele><time>2026-04-25T08:15:04.98Z</time></trkpt><trkpt lat="43.52300903422897" lon="11.868660727400963"><ele>249.0</ele><time>2026-04-25T08:15:05.98Z</time></trkpt><trkpt lat="43.523196236545104" lon="11.868655862718487"><ele>249.0</ele><time>2026-04-25T08:15:06.98Z</time></trkpt><trkpt lat="43.52338106484712" lon="11.868629581539794"><ele>249.0</ele><time>2026-04-25T08:15:07.98Z</time></trkpt><trkpt lat="43.52355567152663" lon="11.868624578911597"><ele>249.0</ele><time>2026-04-25T08:15:08.98Z</time></trkpt><trkpt lat="43.52372486849012" lon="11.868642642362662"><ele>249.0</ele><time>2026-04-25T08:15:09.98Z</time></trkpt><trkpt lat="43.52389314700675" lon="11.868638492240073"><ele>249.66666666666669</ele><time>2026-04-25T08:15:10.98Z</time></trkpt><trkpt lat="43.524057690693695" lon="11.86863429605996"><ele>250.33333333333334</ele><time>2026-04-25T08:15:11.98Z</time></trkpt><trkpt lat="43.52422423382116" lon="11.868630351757806"><ele>251.0</ele><time>2026-04-25T08:15:12.98Z</time></trkpt><trkpt lat="43.52439279841764" lon="11.868626764559604"><ele>251.0</ele><time>2026-04-25T08:15:13.98Z</time></trkpt><trkpt lat="43.524562162893304" lon="11.868623160351612"><ele>251.0</ele><time>2026-04-25T08:15:14.98Z</time></trkpt><trkpt lat="43.52473456435343" lon="11.868618917614267"><ele>251.0</ele><time>2026-04-25T08:15:15.98Z</time></trkpt><trkpt lat="43.52490863957526" lon="11.868592372224994"><ele>251.33333333333334</ele><time>2026-04-25T08:15:16.98Z</time></trkpt><trkpt lat="43.525086593358395" lon="11.868608887476796"><ele>251.66666666666669</ele><time>2026-04-25T08:15:17.98Z</time></trkpt><trkpt lat="43.52526236651432" lon="11.868606301024705"><ele>252.0</ele><time>2026-04-25T08:15:18.98Z</time></trkpt><trkpt lat="43.525439865817646" lon="11.86859921031804"><ele>252.0</ele><time>2026-04-25T08:15:19.98Z</time></trkpt><trkpt lat="43.52561598729725" lon="11.86859377314629"><ele>252.0</ele><time>2026-04-25T08:15:20.98Z</time></trkpt><trkpt lat="43.52579073022367" lon="11.868588282935573"><ele>252.0</ele><time>2026-04-25T08:15:21.98Z</time></trkpt><trkpt lat="43.525964112845145" lon="11.868585143092844"><ele>252.0</ele><time>2026-04-25T08:15:22.98Z</time></trkpt><trkpt lat="43.52613759187767" lon="11.868576978221679"><ele>252.0</ele><time>2026-04-25T08:15:23.98Z</time></trkpt><trkpt lat="43.52631624823411" lon="11.868591067063432"><ele>252.0</ele><time>2026-04-25T08:15:24.98Z</time></trkpt><trkpt lat="43.52648629767577" lon="11.868584991751284"><ele>252.66666666666669</ele><time>2026-04-25T08:15:25.98Z</time></trkpt><trkpt lat="43.52665575376788" lon="11.86858153601023"><ele>253.33333333333334</ele><time>2026-04-25T08:15:26.98Z</time></trkpt><trkpt lat="43.52683175635761" lon="11.868580531514688"><ele>254.0</ele><time>2026-04-25T08:15:27.98Z</time></trkpt><trkpt lat="43.52700382366977" lon="11.868574172876972"><ele>253.66666666666669</ele><time>2026-04-25T08:15:28.98Z</time></trkpt><trkpt lat="43.5271811252709" lon="11.868572374871691"><ele>253.33333333333331</ele><time>2026-04-25T08:15:29.98Z</time></trkpt><trkpt lat="43.52735236159992" lon="11.868567569449507"><ele>253.0</ele><time>2026-04-25T08:15:30.98Z</time></trkpt><trkpt lat="43.527525297693494" lon="11.868562029793424"><ele>253.0</ele><time>2026-04-25T08:15:31.98Z</time></trkpt><trkpt lat="43.52770146522455" lon="11.86855120765242"><ele>253.0</ele><time>2026-04-25T08:15:32.98Z</time></trkpt><trkpt lat="43.5278766339537" lon="11.86853733266135"><ele>253.0</ele><time>2026-04-25T08:15:33.979Z</time></trkpt><trkpt lat="43.52804954879053" lon="11.868515556406255"><ele>253.66666666666666</ele><time>2026-04-25T08:15:34.979Z</time></trkpt><trkpt lat="43.52822327219288" lon="11.868490221580247"><ele>254.33333333333331</ele><time>2026-04-25T08:15:35.979Z</time></trkpt><trkpt lat="43.52840216331796" lon="11.868455581110824"><ele>255.0</ele><time>2026-04-25T08:15:36.979Z</time></trkpt><trkpt lat="43.52857442899028" lon="11.868423887324857"><ele>255.66666666666669</ele><time>2026-04-25T08:15:37.979Z</time></trkpt><trkpt lat="43.528750287007924" lon="11.86838786639603"><ele>256.33333333333337</ele><time>2026-04-25T08:15:38.979Z</time></trkpt><trkpt lat="43.528925187506886" lon="11.868346853362919"><ele>257.0</ele><time>2026-04-25T08:15:39.979Z</time></trkpt><trkpt lat="43.52909646274027" lon="11.868298987684954"><ele>257.0</ele><time>2026-04-25T08:15:40.979Z</time></trkpt><trkpt lat="43.52927150627705" lon="11.868254984835191"><ele>257.0</ele><time>2026-04-25T08:15:41.979Z</time></trkpt><trkpt lat="43.52944510834056" lon="11.868200336487327"><ele>257.0</ele><time>2026-04-25T08:15:42.979Z</time></trkpt><trkpt lat="43.52962107805402" lon="11.868151026311676"><ele>257.0</ele><time>2026-04-25T08:15:43.979Z</time></trkpt><trkpt lat="43.529799146789" lon="11.86810877736856"><ele>257.0</ele><time>2026-04-25T08:15:44.978Z</time></trkpt><trkpt lat="43.529973153511925" lon="11.868056781873634"><ele>257.0</ele><time>2026-04-25T08:15:45.978Z</time></trkpt><trkpt lat="43.53014395983647" lon="11.867996817183288"><ele>257.0</ele><time>2026-04-25T08:15:46.978Z</time></trkpt><trkpt lat="43.530319420762254" lon="11.867951054764466"><ele>257.0</ele><time>2026-04-25T08:15:47.979Z</time></trkpt><trkpt lat="43.53049549094388" lon="11.867904103931437"><ele>257.0</ele><time>2026-04-25T08:15:48.979Z</time></trkpt><trkpt lat="43.530670693756505" lon="11.867851346789633"><ele>256.6666666666667</ele><time>2026-04-25T08:15:49.978Z</time></trkpt><trkpt lat="43.53084088715613" lon="11.867793988399534"><ele>256.3333333333333</ele><time>2026-04-25T08:15:50.979Z</time></trkpt><trkpt lat="43.53100711043047" lon="11.867739122511171"><ele>256.0</ele><time>2026-04-25T08:15:51.979Z</time></trkpt><trkpt lat="43.531176325518636" lon="11.86768830187608"><ele>256.3333333333333</ele><time>2026-04-25T08:15:52.978Z</time></trkpt><trkpt lat="43.53134729048468" lon="11.86764036295637"><ele>256.6666666666667</ele><time>2026-04-25T08:15:53.978Z</time></trkpt><trkpt lat="43.53152037421263" lon="11.867590153699773"><ele>257.0</ele><time>2026-04-25T08:15:54.978Z</time></trkpt><trkpt lat="43.53169425267727" lon="11.86754070243655"><ele>257.0</ele><time>2026-04-25T08:15:55.978Z</time></trkpt><trkpt lat="43.531866116704" lon="11.867487457330839"><ele>257.0</ele><time>2026-04-25T08:15:56.978Z</time></trkpt><trkpt lat="43.53203824839919" lon="11.867434487454478"><ele>257.0</ele><time>2026-04-25T08:15:57.978Z</time></trkpt><trkpt lat="43.53220702704447" lon="11.867406745806697"><ele>257.0</ele><time>2026-04-25T08:15:58.978Z</time></trkpt><trkpt lat="43.532365085983166" lon="11.867339538547009"><ele>257.0</ele><time>2026-04-25T08:15:59.978Z</time></trkpt><trkpt lat="43.53252707404534" lon="11.867292540047895"><ele>257.0</ele><time>2026-04-25T08:16:00.978Z</time></trkpt><trkpt lat="43.53268829817412" lon="11.867249521348526"><ele>257.0</ele><time>2026-04-25T08:16:01.978Z</time></trkpt><trkpt lat="43.53284402373701" lon="11.867200886956512"><ele>257.0</ele><time>2026-04-25T08:16:02.978Z</time></trkpt><trkpt lat="43.53300049716788" lon="11.867177617531416"><ele>257.0</ele><time>2026-04-25T08:16:03.978Z</time></trkpt><trkpt lat="43.533167096489336" lon="11.867129638237945"><ele>257.33333333333337</ele><time>2026-04-25T08:16:04.978Z</time></trkpt><trkpt lat="43.5333528961716" lon="11.867075405161962"><ele>257.6666666666667</ele><time>2026-04-25T08:16:05.978Z</time></trkpt><trkpt lat="43.53354815364225" lon="11.867017443327965"><ele>258.0</ele><time>2026-04-25T08:16:06.978Z</time></trkpt><trkpt lat="43.53375085210546" lon="11.866956475978126"><ele>258.3333333333333</ele><time>2026-04-25T08:16:07.978Z</time></trkpt><trkpt lat="43.53395535421112" lon="11.866897662329626"><ele>258.66666666666663</ele><time>2026-04-25T08:16:08.978Z</time></trkpt><trkpt lat="43.53415460120947" lon="11.866840360053354"><ele>259.0</ele><time>2026-04-25T08:16:09.978Z</time></trkpt><trkpt lat="43.53434251530029" lon="11.866786317012316"><ele>258.66666666666663</ele><time>2026-04-25T08:16:10.977Z</time></trkpt><trkpt lat="43.53451737874531" lon="11.866736027308296"><ele>258.3333333333333</ele><time>2026-04-25T08:16:11.977Z</time></trkpt><trkpt lat="43.53467756264125" lon="11.86666761893484"><ele>258.0</ele><time>2026-04-25T08:16:12.977Z</time></trkpt><trkpt lat="43.534829461036686" lon="11.86662880788882"><ele>257.75</ele><time>2026-04-25T08:16:13.977Z</time></trkpt><trkpt lat="43.53496861894573" lon="11.86658379574575"><ele>257.5</ele><time>2026-04-25T08:16:14.977Z</time></trkpt><trkpt lat="43.5351078359826" lon="11.86656619832665"><ele>257.25</ele><time>2026-04-25T08:16:15.977Z</time></trkpt><trkpt lat="43.53524446587382" lon="11.866526225964343"><ele>257.0</ele><time>2026-04-25T08:16:16.977Z</time></trkpt><trkpt lat="43.53538181550423" lon="11.866463343091048"><ele>256.33333333333337</ele><time>2026-04-25T08:16:17.977Z</time></trkpt><trkpt lat="43.53553440421787" lon="11.866436458134187"><ele>255.66666666666669</ele><time>2026-04-25T08:16:18.977Z</time></trkpt><trkpt lat="43.53568161453798" lon="11.866374280306685"><ele>255.0</ele><time>2026-04-25T08:16:19.977Z</time></trkpt><trkpt lat="43.53584367422652" lon="11.866322461935004"><ele>255.0</ele><time>2026-04-25T08:16:20.977Z</time></trkpt><trkpt lat="43.53600859273205" lon="11.866261594093894"><ele>255.0</ele><time>2026-04-25T08:16:21.977Z</time></trkpt><trkpt lat="43.53618293847765" lon="11.866215899439098"><ele>255.0</ele><time>2026-04-25T08:16:22.977Z</time></trkpt><trkpt lat="43.53635435275632" lon="11.866144976451068"><ele>254.0</ele><time>2026-04-25T08:16:23.977Z</time></trkpt><trkpt lat="43.5365228562013" lon="11.86605087323281"><ele>253.0</ele><time>2026-04-25T08:16:24.977Z</time></trkpt><trkpt lat="43.53669485559738" lon="11.86597507653176"><ele>252.0</ele><time>2026-04-25T08:16:25.977Z</time></trkpt><trkpt lat="43.53686401154899" lon="11.865893240628008"><ele>252.0</ele><time>2026-04-25T08:16:26.977Z</time></trkpt><trkpt lat="43.53703365382253" lon="11.865804687558224"><ele>252.0</ele><time>2026-04-25T08:16:27.977Z</time></trkpt><trkpt lat="43.53720300973533" lon="11.865708043498014"><ele>252.0</ele><time>2026-04-25T08:16:28.977Z</time></trkpt><trkpt lat="43.53737326409419" lon="11.865610319587582"><ele>252.66666666666669</ele><time>2026-04-25T08:16:29.977Z</time></trkpt><trkpt lat="43.53754160001612" lon="11.86551375076406"><ele>253.33333333333334</ele><time>2026-04-25T08:16:30.977Z</time></trkpt><trkpt lat="43.537710128002765" lon="11.865406860069749"><ele>254.0</ele><time>2026-04-25T08:16:31.977Z</time></trkpt><trkpt lat="43.53787214636928" lon="11.865300412424356"><ele>254.0</ele><time>2026-04-25T08:16:32.977Z</time></trkpt><trkpt lat="43.538034182999155" lon="11.86518974355268"><ele>254.0</ele><time>2026-04-25T08:16:33.977Z</time></trkpt><trkpt lat="43.53819403929966" lon="11.865084723189367"><ele>254.0</ele><time>2026-04-25T08:16:34.977Z</time></trkpt><trkpt lat="43.53834374631698" lon="11.864987078998698"><ele>255.66666666666669</ele><time>2026-04-25T08:16:35.977Z</time></trkpt><trkpt lat="43.538491835941656" lon="11.864890506301244"><ele>257.3333333333333</ele><time>2026-04-25T08:16:36.977Z</time></trkpt><trkpt lat="43.53864415116505" lon="11.864789843647731"><ele>259.0</ele><time>2026-04-25T08:16:37.977Z</time></trkpt><trkpt lat="43.5387915628796" lon="11.864692031682344"><ele>259.3333333333333</ele><time>2026-04-25T08:16:38.977Z</time></trkpt><trkpt lat="43.53893906787383" lon="11.864596313155777"><ele>259.6666666666667</ele><time>2026-04-25T08:16:39.977Z</time></trkpt><trkpt lat="43.53909388594286" lon="11.864516553495733"><ele>260.0</ele><time>2026-04-25T08:16:40.977Z</time></trkpt><trkpt lat="43.53923166702905" lon="11.864425890412784"><ele>260.0</ele><time>2026-04-25T08:16:41.977Z</time></trkpt><trkpt lat="43.539374444627185" lon="11.864331827985023"><ele>260.0</ele><time>2026-04-25T08:16:42.977Z</time></trkpt><trkpt lat="43.53952212909467" lon="11.864234532894503"><ele>260.0</ele><time>2026-04-25T08:16:43.977Z</time></trkpt><trkpt lat="43.53968126988011" lon="11.864129690336053"><ele>259.6666666666667</ele><time>2026-04-25T08:16:44.977Z</time></trkpt><trkpt lat="43.5398618553115" lon="11.864010719961612"><ele>259.3333333333333</ele><time>2026-04-25T08:16:45.977Z</time></trkpt><trkpt lat="43.54005038946011" lon="11.863887615078019"><ele>259.0</ele><time>2026-04-25T08:16:46.977Z</time></trkpt><trkpt lat="43.54025395320879" lon="11.863755340218717"><ele>260.0</ele><time>2026-04-25T08:16:47.977Z</time></trkpt><trkpt lat="43.540469065216676" lon="11.863616298751356"><ele>261.0</ele><time>2026-04-25T08:16:48.977Z</time></trkpt><trkpt lat="43.540695623659964" lon="11.863470291259352"><ele>261.0</ele><time>2026-04-25T08:16:49.977Z</time></trkpt><trkpt lat="43.540939733483505" lon="11.863312837125909"><ele>261.0</ele><time>2026-04-25T08:16:50.977Z</time></trkpt><trkpt lat="43.541175791724875" lon="11.863158809259042"><ele>260.0</ele><time>2026-04-25T08:16:51.977Z</time></trkpt><trkpt lat="43.5414106354393" lon="11.863005806620677"><ele>259.0</ele><time>2026-04-25T08:16:52.977Z</time></trkpt><trkpt lat="43.541629637832926" lon="11.862863123244347"><ele>259.0</ele><time>2026-04-25T08:16:53.977Z</time></trkpt><trkpt lat="43.54183620099944" lon="11.862728544213127"><ele>259.0</ele><time>2026-04-25T08:16:54.977Z</time></trkpt><trkpt lat="43.54203660534638" lon="11.862597977746388"><ele>258.66666666666663</ele><time>2026-04-25T08:16:55.977Z</time></trkpt><trkpt lat="43.54222512993176" lon="11.862475151119806"><ele>258.3333333333333</ele><time>2026-04-25T08:16:56.977Z</time></trkpt><trkpt lat="43.54240505641222" lon="11.862356979852455"><ele>258.0</ele><time>2026-04-25T08:16:57.977Z</time></trkpt><trkpt lat="43.54257858881894" lon="11.862242569950814"><ele>258.0</ele><time>2026-04-25T08:16:58.977Z</time></trkpt><trkpt lat="43.54274916094045" lon="11.862130450010575"><ele>258.0</ele><time>2026-04-25T08:16:59.977Z</time></trkpt><trkpt lat="43.542922331811255" lon="11.862016621871913"><ele>258.0</ele><time>2026-04-25T08:17:00.977Z</time></trkpt><trkpt lat="43.54309829103437" lon="11.861900960901432"><ele>258.0</ele><time>2026-04-25T08:17:01.977Z</time></trkpt><trkpt lat="43.54328217854305" lon="11.861779694583557"><ele>258.0</ele><time>2026-04-25T08:17:02.977Z</time></trkpt><trkpt lat="43.543468083235254" lon="11.861656676861942"><ele>258.0</ele><time>2026-04-25T08:17:03.977Z</time></trkpt><trkpt lat="43.54365231377634" lon="11.861532833146397"><ele>259.0</ele><time>2026-04-25T08:17:04.977Z</time></trkpt><trkpt lat="43.54383062150732" lon="11.861410219174113"><ele>260.0</ele><time>2026-04-25T08:17:05.977Z</time></trkpt><trkpt lat="43.54400664108376" lon="11.861283106725464"><ele>261.0</ele><time>2026-04-25T08:17:06.977Z</time></trkpt><trkpt lat="43.5441794919826" lon="11.861149918914023"><ele>261.0</ele><time>2026-04-25T08:17:07.977Z</time></trkpt><trkpt lat="43.544350248159546" lon="11.861011041166751"><ele>261.0</ele><time>2026-04-25T08:17:08.977Z</time></trkpt><trkpt lat="43.54452166570261" lon="11.860858011915388"><ele>261.0</ele><time>2026-04-25T08:17:09.977Z</time></trkpt><trkpt lat="43.54469570309448" lon="11.86069675371498"><ele>260.6666666666667</ele><time>2026-04-25T08:17:10.976Z</time></trkpt><trkpt lat="43.544876426057" lon="11.860527394656495"><ele>260.33333333333337</ele><time>2026-04-25T08:17:11.976Z</time></trkpt><trkpt lat="43.545052884493046" lon="11.860358613209183"><ele>260.0</ele><time>2026-04-25T08:17:12.976Z</time></trkpt><trkpt lat="43.54521849819609" lon="11.860194428260616"><ele>260.0</ele><time>2026-04-25T08:17:13.976Z</time></trkpt><trkpt lat="43.545373545281116" lon="11.860029443775431"><ele>260.0</ele><time>2026-04-25T08:17:14.976Z</time></trkpt><trkpt lat="43.545518501743665" lon="11.859860916799057"><ele>260.0</ele><time>2026-04-25T08:17:15.976Z</time></trkpt><trkpt lat="43.54565445012256" lon="11.859671555147425"><ele>260.0</ele><time>2026-04-25T08:17:16.976Z</time></trkpt><trkpt lat="43.54580034279592" lon="11.859494901805851"><ele>260.0</ele><time>2026-04-25T08:17:17.976Z</time></trkpt><trkpt lat="43.5459530884597" lon="11.85930916003636"><ele>260.0</ele><time>2026-04-25T08:17:18.976Z</time></trkpt><trkpt lat="43.54610707265192" lon="11.8591183911155"><ele>259.6666666666667</ele><time>2026-04-25T08:17:19.976Z</time></trkpt><trkpt lat="43.5462626784362" lon="11.858920878711023"><ele>259.3333333333333</ele><time>2026-04-25T08:17:20.976Z</time></trkpt><trkpt lat="43.54643107891483" lon="11.858739013401667"><ele>259.0</ele><time>2026-04-25T08:17:21.976Z</time></trkpt><trkpt lat="43.54657283238466" lon="11.858530783101157"><ele>259.0</ele><time>2026-04-25T08:17:22.976Z</time></trkpt><trkpt lat="43.54671941944487" lon="11.858350596288908"><ele>259.0</ele><time>2026-04-25T08:17:23.976Z</time></trkpt><trkpt lat="43.546859333131" lon="11.85817183955184"><ele>259.0</ele><time>2026-04-25T08:17:24.976Z</time></trkpt><trkpt lat="43.547002463961626" lon="11.857992341117304"><ele>258.66666666666663</ele><time>2026-04-25T08:17:25.976Z</time></trkpt><trkpt lat="43.54714349564029" lon="11.857817954621465"><ele>258.3333333333333</ele><time>2026-04-25T08:17:26.976Z</time></trkpt><trkpt lat="43.5472845374045" lon="11.857639484108468"><ele>258.0</ele><time>2026-04-25T08:17:27.976Z</time></trkpt><trkpt lat="43.547421081410846" lon="11.857469100435077"><ele>257.6666666666667</ele><time>2026-04-25T08:17:28.976Z</time></trkpt><trkpt lat="43.547558265351405" lon="11.857305984917666"><ele>257.33333333333337</ele><time>2026-04-25T08:17:29.976Z</time></trkpt><trkpt lat="43.54769643667354" lon="11.857132477673854"><ele>257.0</ele><time>2026-04-25T08:17:30.976Z</time></trkpt><trkpt lat="43.54784034451214" lon="11.856947127641556"><ele>257.6666666666667</ele><time>2026-04-25T08:17:31.976Z</time></trkpt><trkpt lat="43.54799423216601" lon="11.856760069999424"><ele>258.3333333333333</ele><time>2026-04-25T08:17:32.976Z</time></trkpt><trkpt lat="43.54815294566562" lon="11.856576639789843"><ele>259.0</ele><time>2026-04-25T08:17:33.976Z</time></trkpt><trkpt lat="43.548317957801615" lon="11.856397951284682"><ele>259.0</ele><time>2026-04-25T08:17:34.976Z</time></trkpt><trkpt lat="43.548487675713176" lon="11.856225703656332"><ele>259.0</ele><time>2026-04-25T08:17:35.976Z</time></trkpt><trkpt lat="43.548674890785115" lon="11.856076291382283"><ele>259.0</ele><time>2026-04-25T08:17:36.976Z</time></trkpt><trkpt lat="43.54884832158155" lon="11.855917443420655"><ele>258.66666666666663</ele><time>2026-04-25T08:17:37.976Z</time></trkpt><trkpt lat="43.549015356599824" lon="11.855760778566868"><ele>258.3333333333333</ele><time>2026-04-25T08:17:38.976Z</time></trkpt><trkpt lat="43.54918157184598" lon="11.85561227372944"><ele>258.0</ele><time>2026-04-25T08:17:39.976Z</time></trkpt><trkpt lat="43.5493473156703" lon="11.855474072688468"><ele>258.0</ele><time>2026-04-25T08:17:40.976Z</time></trkpt><trkpt lat="43.54951154945882" lon="11.855342099707787"><ele>258.0</ele><time>2026-04-25T08:17:41.976Z</time></trkpt><trkpt lat="43.54968339773546" lon="11.855210200970394"><ele>258.0</ele><time>2026-04-25T08:17:42.976Z</time></trkpt><trkpt lat="43.549859676262166" lon="11.855087194484511"><ele>257.3333333333333</ele><time>2026-04-25T08:17:43.976Z</time></trkpt><trkpt lat="43.55003444032061" lon="11.854967792803281"><ele>256.66666666666663</ele><time>2026-04-25T08:17:44.976Z</time></trkpt><trkpt lat="43.550208646606514" lon="11.854856590474697"><ele>256.0</ele><time>2026-04-25T08:17:45.976Z</time></trkpt><trkpt lat="43.55037416581131" lon="11.854752161490602"><ele>256.66666666666663</ele><time>2026-04-25T08:17:46.976Z</time></trkpt><trkpt lat="43.550542473921524" lon="11.854649061188166"><ele>257.3333333333333</ele><time>2026-04-25T08:17:47.976Z</time></trkpt><trkpt lat="43.55070741718993" lon="11.854554012152338"><ele>258.0</ele><time>2026-04-25T08:17:48.976Z</time></trkpt><trkpt lat="43.5508681787884" lon="11.854454387242264"><ele>258.0</ele><time>2026-04-25T08:17:49.976Z</time></trkpt><trkpt lat="43.55102743216442" lon="11.854355292978875"><ele>258.0</ele><time>2026-04-25T08:17:50.976Z</time></trkpt><trkpt lat="43.55119184150005" lon="11.854249201608752"><ele>258.0</ele><time>2026-04-25T08:17:51.976Z</time></trkpt><trkpt lat="43.551354212317705" lon="11.854145513644943"><ele>258.3333333333333</ele><time>2026-04-25T08:17:52.975Z</time></trkpt><trkpt lat="43.55153352849224" lon="11.854036019722983"><ele>258.66666666666663</ele><time>2026-04-25T08:17:53.976Z</time></trkpt><trkpt lat="43.55171584696849" lon="11.853921553163135"><ele>259.0</ele><time>2026-04-25T08:17:54.976Z</time></trkpt><trkpt lat="43.55189644238424" lon="11.85380568179948"><ele>260.0</ele><time>2026-04-25T08:17:55.976Z</time></trkpt><trkpt lat="43.552078149744936" lon="11.853697768767699"><ele>261.0</ele><time>2026-04-25T08:17:56.976Z</time></trkpt><trkpt lat="43.552242845918265" lon="11.85358817135639"><ele>262.0</ele><time>2026-04-25T08:17:57.976Z</time></trkpt><trkpt lat="43.5524092832816" lon="11.853484132207853"><ele>261.3333333333333</ele><time>2026-04-25T08:17:58.976Z</time></trkpt><trkpt lat="43.5525762023647" lon="11.853376938002455"><ele>260.6666666666667</ele><time>2026-04-25T08:17:59.976Z</time></trkpt><trkpt lat="43.552754152224395" lon="11.853269555798413"><ele>260.0</ele><time>2026-04-25T08:18:00.976Z</time></trkpt><trkpt lat="43.552932721574315" lon="11.853162394311918"><ele>260.0</ele><time>2026-04-25T08:18:01.976Z</time></trkpt><trkpt lat="43.55310928297" lon="11.853052931095862"><ele>260.0</ele><time>2026-04-25T08:18:02.975Z</time></trkpt><trkpt lat="43.55328339049335" lon="11.852945914141548"><ele>260.0</ele><time>2026-04-25T08:18:03.975Z</time></trkpt><trkpt lat="43.553458123935904" lon="11.852839884410528"><ele>260.0</ele><time>2026-04-25T08:18:04.975Z</time></trkpt><trkpt lat="43.553632818106735" lon="11.852729324947052"><ele>260.0</ele><time>2026-04-25T08:18:05.975Z</time></trkpt><trkpt lat="43.553806917759964" lon="11.852621970210853"><ele>260.0</ele><time>2026-04-25T08:18:06.975Z</time></trkpt><trkpt lat="43.5539802904011" lon="11.852517353382243"><ele>259.33333333333337</ele><time>2026-04-25T08:18:07.975Z</time></trkpt><trkpt lat="43.55415205876918" lon="11.852413387969065"><ele>258.6666666666667</ele><time>2026-04-25T08:18:08.975Z</time></trkpt><trkpt lat="43.554322953841805" lon="11.852310671233264"><ele>258.0</ele><time>2026-04-25T08:18:09.975Z</time></trkpt><trkpt lat="43.55449282219828" lon="11.852210530686866"><ele>258.3333333333333</ele><time>2026-04-25T08:18:10.975Z</time></trkpt><trkpt lat="43.55466407460965" lon="11.85211876234555"><ele>258.66666666666663</ele><time>2026-04-25T08:18:11.975Z</time></trkpt><trkpt lat="43.554830610301586" lon="11.852026998766132"><ele>259.0</ele><time>2026-04-25T08:18:12.975Z</time></trkpt><trkpt lat="43.554992521452846" lon="11.85192201107344"><ele>259.0</ele><time>2026-04-25T08:18:13.975Z</time></trkpt><trkpt lat="43.555157534208284" lon="11.851822770482679"><ele>259.0</ele><time>2026-04-25T08:18:14.975Z</time></trkpt><trkpt lat="43.555322004165355" lon="11.851724961739828"><ele>259.0</ele><time>2026-04-25T08:18:15.975Z</time></trkpt><trkpt lat="43.55548721097567" lon="11.851620403504832"><ele>259.0</ele><time>2026-04-25T08:18:16.975Z</time></trkpt><trkpt lat="43.55565787307111" lon="11.851517993199813"><ele>259.0</ele><time>2026-04-25T08:18:17.975Z</time></trkpt><trkpt lat="43.555827925212974" lon="11.851413907034289"><ele>259.0</ele><time>2026-04-25T08:18:18.975Z</time></trkpt><trkpt lat="43.55600096849907" lon="11.851303232035818"><ele>259.0</ele><time>2026-04-25T08:18:19.975Z</time></trkpt><trkpt lat="43.55616697032126" lon="11.85119439960589"><ele>259.0</ele><time>2026-04-25T08:18:20.975Z</time></trkpt><trkpt lat="43.55632504603095" lon="11.85108071169166"><ele>259.0</ele><time>2026-04-25T08:18:21.975Z</time></trkpt><trkpt lat="43.556489653015376" lon="11.850975516801086"><ele>259.0</ele><time>2026-04-25T08:18:22.975Z</time></trkpt><trkpt lat="43.55666855763955" lon="11.850870058862037"><ele>259.0</ele><time>2026-04-25T08:18:23.975Z</time></trkpt><trkpt lat="43.55684159227968" lon="11.850758694459184"><ele>259.0</ele><time>2026-04-25T08:18:24.975Z</time></trkpt><trkpt lat="43.55702238590723" lon="11.850646042409789"><ele>259.0</ele><time>2026-04-25T08:18:25.975Z</time></trkpt><trkpt lat="43.557197909374715" lon="11.850530759437461"><ele>259.0</ele><time>2026-04-25T08:18:26.975Z</time></trkpt><trkpt lat="43.557364720278485" lon="11.850424660536156"><ele>259.0</ele><time>2026-04-25T08:18:27.975Z</time></trkpt><trkpt lat="43.5575279390757" lon="11.85031991334187"><ele>259.0</ele><time>2026-04-25T08:18:28.975Z</time></trkpt><trkpt lat="43.5576929868392" lon="11.850217330213622"><ele>259.0</ele><time>2026-04-25T08:18:29.975Z</time></trkpt><trkpt lat="43.55787080776706" lon="11.850145417738824"><ele>259.0</ele><time>2026-04-25T08:18:30.975Z</time></trkpt><trkpt lat="43.558042398947435" lon="11.850037431801184"><ele>258.3333333333333</ele><time>2026-04-25T08:18:31.975Z</time></trkpt><trkpt lat="43.55821745393284" lon="11.849927606280744"><ele>257.6666666666667</ele><time>2026-04-25T08:18:32.975Z</time></trkpt><trkpt lat="43.55839302986458" lon="11.849815348372596"><ele>257.0</ele><time>2026-04-25T08:18:33.975Z</time></trkpt><trkpt lat="43.55857046590067" lon="11.849679758785458"><ele>257.0</ele><time>2026-04-25T08:18:34.975Z</time></trkpt><trkpt lat="43.55876295979305" lon="11.84958099319636"><ele>257.0</ele><time>2026-04-25T08:18:35.975Z</time></trkpt><trkpt lat="43.55895783851421" lon="11.849468350247289"><ele>257.0</ele><time>2026-04-25T08:18:36.975Z</time></trkpt><trkpt lat="43.55915834220439" lon="11.849351862308719"><ele>256.6666666666667</ele><time>2026-04-25T08:18:37.975Z</time></trkpt><trkpt lat="43.559359244801776" lon="11.849242733267081"><ele>256.3333333333333</ele><time>2026-04-25T08:18:38.975Z</time></trkpt><trkpt lat="43.55955973526704" lon="11.84914441981878"><ele>256.0</ele><time>2026-04-25T08:18:39.975Z</time></trkpt><trkpt lat="43.55976236285897" lon="11.849068593846402"><ele>255.0</ele><time>2026-04-25T08:18:40.975Z</time></trkpt><trkpt lat="43.559965161230565" lon="11.84901992059763"><ele>254.0</ele><time>2026-04-25T08:18:41.975Z</time></trkpt><trkpt lat="43.560162644283885" lon="11.848985954315296"><ele>253.0</ele><time>2026-04-25T08:18:42.975Z</time></trkpt><trkpt lat="43.56035488868067" lon="11.84897101890348"><ele>252.0</ele><time>2026-04-25T08:18:43.975Z</time></trkpt><trkpt lat="43.56053783737156" lon="11.848964320244763"><ele>251.0</ele><time>2026-04-25T08:18:44.975Z</time></trkpt><trkpt lat="43.56072142249054" lon="11.848971256674668"><ele>250.0</ele><time>2026-04-25T08:18:45.975Z</time></trkpt><trkpt lat="43.560901469008385" lon="11.848987720687793"><ele>250.0</ele><time>2026-04-25T08:18:46.975Z</time></trkpt><trkpt lat="43.561085088320695" lon="11.849012412157531"><ele>250.0</ele><time>2026-04-25T08:18:47.975Z</time></trkpt><trkpt lat="43.561266581299684" lon="11.849071998825845"><ele>250.0</ele><time>2026-04-25T08:18:48.975Z</time></trkpt><trkpt lat="43.5614465060506" lon="11.849122065540428"><ele>250.0</ele><time>2026-04-25T08:18:49.975Z</time></trkpt><trkpt lat="43.56162350391972" lon="11.849182606369808"><ele>250.0</ele><time>2026-04-25T08:18:50.974Z</time></trkpt><trkpt lat="43.56179911928448" lon="11.849254345609536"><ele>250.0</ele><time>2026-04-25T08:18:51.974Z</time></trkpt><trkpt lat="43.561978072716" lon="11.849338363398527"><ele>252.66666666666666</ele><time>2026-04-25T08:18:52.974Z</time></trkpt><trkpt lat="43.56214807706299" lon="11.84943271579275"><ele>255.33333333333331</ele><time>2026-04-25T08:18:53.974Z</time></trkpt><trkpt lat="43.56231601581032" lon="11.849540925277745"><ele>258.0</ele><time>2026-04-25T08:18:54.974Z</time></trkpt><trkpt lat="43.56248241067181" lon="11.84966150794268"><ele>258.0</ele><time>2026-04-25T08:18:55.974Z</time></trkpt><trkpt lat="43.56264385843931" lon="11.849787729857109"><ele>258.0</ele><time>2026-04-25T08:18:56.974Z</time></trkpt><trkpt lat="43.56279867310148" lon="11.84992124704542"><ele>258.0</ele><time>2026-04-25T08:18:57.974Z</time></trkpt><trkpt lat="43.562947461311914" lon="11.850062049094715"><ele>260.0</ele><time>2026-04-25T08:18:58.974Z</time></trkpt><trkpt lat="43.56308643929666" lon="11.850210439786398"><ele>262.0</ele><time>2026-04-25T08:18:59.974Z</time></trkpt><trkpt lat="43.56322857220935" lon="11.850349355455982"><ele>264.0</ele><time>2026-04-25T08:19:00.974Z</time></trkpt><trkpt lat="43.563358098849136" lon="11.85051501480899"><ele>264.0</ele><time>2026-04-25T08:19:01.974Z</time></trkpt><trkpt lat="43.56348763999695" lon="11.850684521950637"><ele>264.0</ele><time>2026-04-25T08:19:02.974Z</time></trkpt><trkpt lat="43.56361387509689" lon="11.850870982438014"><ele>264.0</ele><time>2026-04-25T08:19:03.974Z</time></trkpt><trkpt lat="43.56373139283705" lon="11.851067897761332"><ele>271.0</ele><time>2026-04-25T08:19:04.974Z</time></trkpt><trkpt lat="43.5638446373427" lon="11.851277850266877"><ele>278.0</ele><time>2026-04-25T08:19:05.974Z</time></trkpt><trkpt lat="43.563948211731294" lon="11.851477509635364"><ele>285.0</ele><time>2026-04-25T08:19:06.974Z</time></trkpt><trkpt lat="43.56404442652793" lon="11.85167846405241"><ele>282.3333333333333</ele><time>2026-04-25T08:19:07.974Z</time></trkpt><trkpt lat="43.56411704746267" lon="11.851891318569123"><ele>279.66666666666663</ele><time>2026-04-25T08:19:08.974Z</time></trkpt><trkpt lat="43.564216913716756" lon="11.852103932110726"><ele>277.0</ele><time>2026-04-25T08:19:09.974Z</time></trkpt><trkpt lat="43.56427516260516" lon="11.852336119809218"><ele>277.0</ele><time>2026-04-25T08:19:10.974Z</time></trkpt><trkpt lat="43.56434185198722" lon="11.852563616993594"><ele>277.0</ele><time>2026-04-25T08:19:11.974Z</time></trkpt><trkpt lat="43.5644020243066" lon="11.852790473016032"><ele>277.0</ele><time>2026-04-25T08:19:12.974Z</time></trkpt><trkpt lat="43.56445535599281" lon="11.853018020344564"><ele>276.66666666666663</ele><time>2026-04-25T08:19:13.974Z</time></trkpt><trkpt lat="43.564506630830365" lon="11.85324849929446"><ele>276.3333333333333</ele><time>2026-04-25T08:19:14.974Z</time></trkpt><trkpt lat="43.564559208067024" lon="11.853479776354412"><ele>276.0</ele><time>2026-04-25T08:19:15.974Z</time></trkpt><trkpt lat="43.564606619210814" lon="11.853692295730715"><ele>276.0</ele><time>2026-04-25T08:19:16.974Z</time></trkpt><trkpt lat="43.564654508777764" lon="11.853906882491714"><ele>276.0</ele><time>2026-04-25T08:19:17.974Z</time></trkpt><trkpt lat="43.56470294778898" lon="11.85412254633925"><ele>276.0</ele><time>2026-04-25T08:19:18.974Z</time></trkpt><trkpt lat="43.56475132951746" lon="11.854337812351545"><ele>273.3333333333333</ele><time>2026-04-25T08:19:19.974Z</time></trkpt><trkpt lat="43.5648007004837" lon="11.854557816309551"><ele>270.66666666666663</ele><time>2026-04-25T08:19:20.974Z</time></trkpt><trkpt lat="43.5648509290395" lon="11.854782997801545"><ele>268.0</ele><time>2026-04-25T08:19:21.974Z</time></trkpt><trkpt lat="43.56490164877888" lon="11.855011112379314"><ele>267.0</ele><time>2026-04-25T08:19:22.974Z</time></trkpt><trkpt lat="43.56495436039588" lon="11.855248185540614"><ele>266.0</ele><time>2026-04-25T08:19:23.974Z</time></trkpt><trkpt lat="43.565007783990566" lon="11.855488140194112"><ele>265.0</ele><time>2026-04-25T08:19:24.974Z</time></trkpt><trkpt lat="43.56506168166443" lon="11.85572761770612"><ele>264.66666666666663</ele><time>2026-04-25T08:19:25.974Z</time></trkpt><trkpt lat="43.565115204165274" lon="11.855965428259125"><ele>264.3333333333333</ele><time>2026-04-25T08:19:26.974Z</time></trkpt><trkpt lat="43.56516812537416" lon="11.856200567154627"><ele>264.0</ele><time>2026-04-25T08:19:27.974Z</time></trkpt><trkpt lat="43.565218574215535" lon="11.856426878944067"><ele>264.0</ele><time>2026-04-25T08:19:28.974Z</time></trkpt><trkpt lat="43.56526935616497" lon="11.856655267060496"><ele>264.0</ele><time>2026-04-25T08:19:29.974Z</time></trkpt><trkpt lat="43.56532196538014" lon="11.856888806080457"><ele>264.0</ele><time>2026-04-25T08:19:30.974Z</time></trkpt><trkpt lat="43.56537530127319" lon="11.857122523619363"><ele>267.3333333333333</ele><time>2026-04-25T08:19:31.974Z</time></trkpt><trkpt lat="43.56543096591383" lon="11.857366445722901"><ele>270.66666666666663</ele><time>2026-04-25T08:19:32.974Z</time></trkpt><trkpt lat="43.5654881538592" lon="11.857609670420167"><ele>274.0</ele><time>2026-04-25T08:19:33.974Z</time></trkpt><trkpt lat="43.565549474908764" lon="11.857850918138189"><ele>274.0</ele><time>2026-04-25T08:19:34.974Z</time></trkpt><trkpt lat="43.565613093319506" lon="11.858095584121623"><ele>274.0</ele><time>2026-04-25T08:19:35.974Z</time></trkpt><trkpt lat="43.56568330577333" lon="11.858338716656405"><ele>274.0</ele><time>2026-04-25T08:19:36.974Z</time></trkpt><trkpt lat="43.565759344033005" lon="11.85857935016017"><ele>273.0</ele><time>2026-04-25T08:19:37.974Z</time></trkpt><trkpt lat="43.56584428703521" lon="11.858813484697079"><ele>272.0</ele><time>2026-04-25T08:19:38.974Z</time></trkpt><trkpt lat="43.56593328013955" lon="11.859039669148894"><ele>271.0</ele><time>2026-04-25T08:19:39.974Z</time></trkpt><trkpt lat="43.56603304824474" lon="11.859245431048945"><ele>269.3333333333333</ele><time>2026-04-25T08:19:40.974Z</time></trkpt><trkpt lat="43.56612036406252" lon="11.859462746151225"><ele>267.6666666666667</ele><time>2026-04-25T08:19:41.974Z</time></trkpt><trkpt lat="43.56619463491555" lon="11.859682785460976"><ele>266.0</ele><time>2026-04-25T08:19:42.974Z</time></trkpt><trkpt lat="43.56627996606936" lon="11.859886712211457"><ele>266.0</ele><time>2026-04-25T08:19:43.974Z</time></trkpt><trkpt lat="43.566364504713725" lon="11.860089525250306"><ele>266.0</ele><time>2026-04-25T08:19:44.974Z</time></trkpt><trkpt lat="43.566446103134915" lon="11.86028528452442"><ele>266.0</ele><time>2026-04-25T08:19:45.974Z</time></trkpt><trkpt lat="43.56654265668388" lon="11.860472209439784"><ele>266.0</ele><time>2026-04-25T08:19:46.974Z</time></trkpt><trkpt lat="43.566623325201526" lon="11.860670489105546"><ele>266.0</ele><time>2026-04-25T08:19:47.974Z</time></trkpt><trkpt lat="43.56669347336886" lon="11.860877402259778"><ele>266.0</ele><time>2026-04-25T08:19:48.974Z</time></trkpt><trkpt lat="43.56678824226994" lon="11.86105690886749"><ele>265.0</ele><time>2026-04-25T08:19:49.974Z</time></trkpt><trkpt lat="43.56686662564279" lon="11.861244651066984"><ele>264.0</ele><time>2026-04-25T08:19:50.973Z</time></trkpt><trkpt lat="43.56693414205709" lon="11.861449104412037"><ele>263.0</ele><time>2026-04-25T08:19:51.973Z</time></trkpt><trkpt lat="43.56701436805367" lon="11.86164108366893"><ele>263.33333333333337</ele><time>2026-04-25T08:19:52.973Z</time></trkpt><trkpt lat="43.56710164884632" lon="11.861849944902255"><ele>263.6666666666667</ele><time>2026-04-25T08:19:53.973Z</time></trkpt><trkpt lat="43.56719148286088" lon="11.86206491596052"><ele>264.0</ele><time>2026-04-25T08:19:54.973Z</time></trkpt><trkpt lat="43.56728183978104" lon="11.8622811383129"><ele>264.0</ele><time>2026-04-25T08:19:55.973Z</time></trkpt><trkpt lat="43.56737517575598" lon="11.862504150052283"><ele>264.0</ele><time>2026-04-25T08:19:56.973Z</time></trkpt><trkpt lat="43.567476697293955" lon="11.862746614101411"><ele>264.0</ele><time>2026-04-25T08:19:57.973Z</time></trkpt><trkpt lat="43.56758524360646" lon="11.863009810634008"><ele>264.0</ele><time>2026-04-25T08:19:58.973Z</time></trkpt><trkpt lat="43.567691172222396" lon="11.863264899694876"><ele>264.0</ele><time>2026-04-25T08:19:59.973Z</time></trkpt><trkpt lat="43.5677929626007" lon="11.863510235698433"><ele>264.0</ele><time>2026-04-25T08:20:00.973Z</time></trkpt><trkpt lat="43.5678877107796" lon="11.863736503582727"><ele>263.6666666666667</ele><time>2026-04-25T08:20:01.973Z</time></trkpt><trkpt lat="43.56798155615932" lon="11.863961952104205"><ele>263.33333333333337</ele><time>2026-04-25T08:20:02.973Z</time></trkpt><trkpt lat="43.5680708790225" lon="11.86417653601936"><ele>263.0</ele><time>2026-04-25T08:20:03.973Z</time></trkpt><trkpt lat="43.5681574841271" lon="11.86438459096625"><ele>263.0</ele><time>2026-04-25T08:20:04.972Z</time></trkpt><trkpt lat="43.56824692114791" lon="11.86459633891389"><ele>263.0</ele><time>2026-04-25T08:20:05.973Z</time></trkpt><trkpt lat="43.56833738344423" lon="11.864811824144155"><ele>263.0</ele><time>2026-04-25T08:20:06.973Z</time></trkpt><trkpt lat="43.56844202937922" lon="11.865019383141954"><ele>263.0</ele><time>2026-04-25T08:20:07.973Z</time></trkpt><trkpt lat="43.56852163365763" lon="11.865237634670528"><ele>263.0</ele><time>2026-04-25T08:20:08.973Z</time></trkpt><trkpt lat="43.56861268984417" lon="11.865457607906857"><ele>263.0</ele><time>2026-04-25T08:20:09.973Z</time></trkpt><trkpt lat="43.568705889882004" lon="11.865682451097726"><ele>263.33333333333337</ele><time>2026-04-25T08:20:10.973Z</time></trkpt><trkpt lat="43.568796566425895" lon="11.865907963475848"><ele>263.6666666666667</ele><time>2026-04-25T08:20:11.973Z</time></trkpt><trkpt lat="43.56888869008395" lon="11.866114929984779"><ele>264.0</ele><time>2026-04-25T08:20:12.973Z</time></trkpt><trkpt lat="43.56897300418696" lon="11.866312734514972"><ele>263.3333333333333</ele><time>2026-04-25T08:20:13.973Z</time></trkpt><trkpt lat="43.569052715549105" lon="11.866504789401969"><ele>262.66666666666663</ele><time>2026-04-25T08:20:14.973Z</time></trkpt><trkpt lat="43.56913136518468" lon="11.866685227884131"><ele>262.0</ele><time>2026-04-25T08:20:15.973Z</time></trkpt><trkpt lat="43.56920297284632" lon="11.866871232673526"><ele>261.3333333333333</ele><time>2026-04-25T08:20:16.973Z</time></trkpt><trkpt lat="43.569275142886625" lon="11.867057520236543"><ele>260.6666666666667</ele><time>2026-04-25T08:20:17.973Z</time></trkpt><trkpt lat="43.56934794912431" lon="11.867248009896146"><ele>260.0</ele><time>2026-04-25T08:20:18.973Z</time></trkpt><trkpt lat="43.56942195946114" lon="11.86743403517673"><ele>260.0</ele><time>2026-04-25T08:20:19.973Z</time></trkpt><trkpt lat="43.569497660201826" lon="11.867607859397776"><ele>260.0</ele><time>2026-04-25T08:20:20.973Z</time></trkpt><trkpt lat="43.56957056629189" lon="11.867774019019082"><ele>260.0</ele><time>2026-04-25T08:20:21.973Z</time></trkpt><trkpt lat="43.56963295510167" lon="11.867938786123124"><ele>260.0</ele><time>2026-04-25T08:20:22.973Z</time></trkpt><trkpt lat="43.56968989003097" lon="11.86809598325207"><ele>260.6</ele><time>2026-04-25T08:20:23.973Z</time></trkpt><trkpt lat="43.56973952243648" lon="11.868232857476697"><ele>261.2</ele><time>2026-04-25T08:20:24.973Z</time></trkpt><trkpt lat="43.569789131784674" lon="11.868358687539613"><ele>261.8</ele><time>2026-04-25T08:20:25.973Z</time></trkpt><trkpt lat="43.56983991184808" lon="11.868458977190762"><ele>262.4</ele><time>2026-04-25T08:20:26.973Z</time></trkpt><trkpt lat="43.569870294547975" lon="11.868552434082858"><ele>263.0</ele><time>2026-04-25T08:20:27.973Z</time></trkpt><trkpt lat="43.569880373769735" lon="11.86865254955212"><ele>263.33333333333337</ele><time>2026-04-25T08:20:28.973Z</time></trkpt><trkpt lat="43.56987027176284" lon="11.868744946005194"><ele>263.6666666666667</ele><time>2026-04-25T08:20:29.973Z</time></trkpt><trkpt lat="43.56984895986699" lon="11.868839932539212"><ele>264.0</ele><time>2026-04-25T08:20:30.973Z</time></trkpt><trkpt lat="43.56983102483246" lon="11.86894275818841"><ele>264.3333333333333</ele><time>2026-04-25T08:20:31.973Z</time></trkpt><trkpt lat="43.56983049016796" lon="11.869052609483946"><ele>264.66666666666663</ele><time>2026-04-25T08:20:32.973Z</time></trkpt><trkpt lat="43.56987242607559" lon="11.8691461102707"><ele>265.0</ele><time>2026-04-25T08:20:33.973Z</time></trkpt><trkpt lat="43.569930101083806" lon="11.869212850196693"><ele>265.0</ele><time>2026-04-25T08:20:34.973Z</time></trkpt><trkpt lat="43.570003981926625" lon="11.869237135042528"><ele>265.0</ele><time>2026-04-25T08:20:35.973Z</time></trkpt><trkpt lat="43.57007891608144" lon="11.869240373861075"><ele>265.0</ele><time>2026-04-25T08:20:36.973Z</time></trkpt><trkpt lat="43.57015851420466" lon="11.869235990785636"><ele>265.0</ele><time>2026-04-25T08:20:37.973Z</time></trkpt><trkpt lat="43.5702481442174" lon="11.869259047316048"><ele>265.0</ele><time>2026-04-25T08:20:38.973Z</time></trkpt><trkpt lat="43.57032886739193" lon="11.869295232021052"><ele>265.0</ele><time>2026-04-25T08:20:39.973Z</time></trkpt><trkpt lat="43.57040537478525" lon="11.869324019387678"><ele>265.4</ele><time>2026-04-25T08:20:40.973Z</time></trkpt><trkpt lat="43.57048555118557" lon="11.869362628052665"><ele>265.8</ele><time>2026-04-25T08:20:41.973Z</time></trkpt><trkpt lat="43.57057960128681" lon="11.869411265041132"><ele>266.2</ele><time>2026-04-25T08:20:42.972Z</time></trkpt><trkpt lat="43.570675357588435" lon="11.86946717375367"><ele>266.6</ele><time>2026-04-25T08:20:43.972Z</time></trkpt><trkpt lat="43.57077407518767" lon="11.869537045086851"><ele>267.0</ele><time>2026-04-25T08:20:44.972Z</time></trkpt><trkpt lat="43.57086636028503" lon="11.869640929252542"><ele>267.0</ele><time>2026-04-25T08:20:45.972Z</time></trkpt><trkpt lat="43.57098211945458" lon="11.869742861833094"><ele>267.0</ele><time>2026-04-25T08:20:46.972Z</time></trkpt><trkpt lat="43.57111763764368" lon="11.86986341238536"><ele>267.0</ele><time>2026-04-25T08:20:47.972Z</time></trkpt><trkpt lat="43.57126888618409" lon="11.86999811327887"><ele>267.3333333333333</ele><time>2026-04-25T08:20:48.972Z</time></trkpt><trkpt lat="43.571421604788895" lon="11.870134176487854"><ele>267.66666666666663</ele><time>2026-04-25T08:20:49.972Z</time></trkpt><trkpt lat="43.57156008680243" lon="11.870256327805858"><ele>268.0</ele><time>2026-04-25T08:20:50.972Z</time></trkpt><trkpt lat="43.57168151032445" lon="11.870363653065565"><ele>268.0</ele><time>2026-04-25T08:20:51.972Z</time></trkpt><trkpt lat="43.57178373796494" lon="11.87045401124498"><ele>268.0</ele><time>2026-04-25T08:20:52.972Z</time></trkpt><trkpt lat="43.571882802516825" lon="11.870497325196888"><ele>268.0</ele><time>2026-04-25T08:20:53.972Z</time></trkpt><trkpt lat="43.57197359063794" lon="11.870569241813884"><ele>268.0</ele><time>2026-04-25T08:20:54.972Z</time></trkpt><trkpt lat="43.57208168907581" lon="11.870661676117106"><ele>268.3333333333333</ele><time>2026-04-25T08:20:55.972Z</time></trkpt><trkpt lat="43.57221455636756" lon="11.870782418857258"><ele>268.6666666666667</ele><time>2026-04-25T08:20:56.972Z</time></trkpt><trkpt lat="43.57235779860198" lon="11.870924822513032"><ele>269.0</ele><time>2026-04-25T08:20:57.972Z</time></trkpt><trkpt lat="43.57251535641885" lon="11.871070954566905"><ele>269.0</ele><time>2026-04-25T08:20:58.972Z</time></trkpt><trkpt lat="43.57268323927823" lon="11.871214635815987"><ele>269.0</ele><time>2026-04-25T08:20:59.972Z</time></trkpt><trkpt lat="43.572843181117115" lon="11.871357790400708"><ele>269.0</ele><time>2026-04-25T08:21:00.972Z</time></trkpt><trkpt lat="43.57299823532528" lon="11.871497664273999"><ele>269.0</ele><time>2026-04-25T08:21:01.972Z</time></trkpt><trkpt lat="43.573161806517646" lon="11.871621433894484"><ele>269.0</ele><time>2026-04-25T08:21:02.972Z</time></trkpt><trkpt lat="43.573324381097684" lon="11.871766708948245"><ele>269.0</ele><time>2026-04-25T08:21:03.972Z</time></trkpt><trkpt lat="43.573488079804285" lon="11.871902871828055"><ele>270.0</ele><time>2026-04-25T08:21:04.972Z</time></trkpt><trkpt lat="43.57364037785607" lon="11.87205808686219"><ele>271.0</ele><time>2026-04-25T08:21:05.972Z</time></trkpt><trkpt lat="43.57381692867381" lon="11.872162292441049"><ele>272.0</ele><time>2026-04-25T08:21:06.972Z</time></trkpt><trkpt lat="43.573992489040535" lon="11.872244812330404"><ele>272.0</ele><time>2026-04-25T08:21:07.972Z</time></trkpt><trkpt lat="43.57416832681822" lon="11.872308937119907"><ele>272.0</ele><time>2026-04-25T08:21:08.972Z</time></trkpt><trkpt lat="43.574348095169924" lon="11.872339623223839"><ele>272.0</ele><time>2026-04-25T08:21:09.972Z</time></trkpt><trkpt lat="43.57451227845494" lon="11.872401141287867"><ele>272.0</ele><time>2026-04-25T08:21:10.972Z</time></trkpt><trkpt lat="43.574679704680435" lon="11.872423526231273"><ele>272.0</ele><time>2026-04-25T08:21:11.972Z</time></trkpt><trkpt lat="43.57485336742771" lon="11.872431197471021"><ele>272.0</ele><time>2026-04-25T08:21:12.972Z</time></trkpt><trkpt lat="43.5750245409153" lon="11.872419273576506"><ele>272.0</ele><time>2026-04-25T08:21:13.972Z</time></trkpt><trkpt lat="43.57519376582933" lon="11.872376291236282"><ele>272.0</ele><time>2026-04-25T08:21:14.972Z</time></trkpt><trkpt lat="43.575359670350245" lon="11.872325028745482"><ele>272.0</ele><time>2026-04-25T08:21:15.972Z</time></trkpt><trkpt lat="43.575530741378145" lon="11.872276226552964"><ele>272.0</ele><time>2026-04-25T08:21:16.972Z</time></trkpt><trkpt lat="43.57571000393294" lon="11.87223396682949"><ele>272.0</ele><time>2026-04-25T08:21:17.972Z</time></trkpt><trkpt lat="43.57588917785109" lon="11.87219415090703"><ele>272.0</ele><time>2026-04-25T08:21:18.972Z</time></trkpt><trkpt lat="43.57607283335332" lon="11.872152949380572"><ele>272.6666666666667</ele><time>2026-04-25T08:21:19.972Z</time></trkpt><trkpt lat="43.57626020630128" lon="11.87210631890838"><ele>273.3333333333333</ele><time>2026-04-25T08:21:20.972Z</time></trkpt><trkpt lat="43.57644521495339" lon="11.87205934123649"><ele>274.0</ele><time>2026-04-25T08:21:21.972Z</time></trkpt><trkpt lat="43.57663386941004" lon="11.872012060396962"><ele>274.0</ele><time>2026-04-25T08:21:22.972Z</time></trkpt><trkpt lat="43.57682388252031" lon="11.871963577165168"><ele>274.0</ele><time>2026-04-25T08:21:23.972Z</time></trkpt><trkpt lat="43.57699693843207" lon="11.871918964171178"><ele>274.0</ele><time>2026-04-25T08:21:24.972Z</time></trkpt><trkpt lat="43.577164771882266" lon="11.871877598125005"><ele>274.0</ele><time>2026-04-25T08:21:25.972Z</time></trkpt><trkpt lat="43.577332032067986" lon="11.871835110080703"><ele>274.0</ele><time>2026-04-25T08:21:26.972Z</time></trkpt><trkpt lat="43.5775029562765" lon="11.871798527141804"><ele>274.0</ele><time>2026-04-25T08:21:27.972Z</time></trkpt><trkpt lat="43.57767808211663" lon="11.871779802557635"><ele>273.3333333333333</ele><time>2026-04-25T08:21:28.972Z</time></trkpt><trkpt lat="43.57785086935081" lon="11.871738404954645"><ele>272.6666666666667</ele><time>2026-04-25T08:21:29.972Z</time></trkpt><trkpt lat="43.578028424956344" lon="11.871697066099085"><ele>272.0</ele><time>2026-04-25T08:21:30.972Z</time></trkpt><trkpt lat="43.57820074576152" lon="11.871639332815253"><ele>272.0</ele><time>2026-04-25T08:21:31.972Z</time></trkpt><trkpt lat="43.57837580846869" lon="11.871609630352227"><ele>272.0</ele><time>2026-04-25T08:21:32.972Z</time></trkpt><trkpt lat="43.57855001397894" lon="11.871589036202128"><ele>272.0</ele><time>2026-04-25T08:21:33.972Z</time></trkpt><trkpt lat="43.57872374815219" lon="11.871583436430784"><ele>271.6666666666667</ele><time>2026-04-25T08:21:34.972Z</time></trkpt><trkpt lat="43.57889708799173" lon="11.87159243182659"><ele>271.3333333333333</ele><time>2026-04-25T08:21:35.972Z</time></trkpt><trkpt lat="43.57906945535083" lon="11.871621023252203"><ele>271.0</ele><time>2026-04-25T08:21:36.972Z</time></trkpt><trkpt lat="43.57924132655438" lon="11.871659394156147"><ele>271.0</ele><time>2026-04-25T08:21:37.972Z</time></trkpt><trkpt lat="43.57941700972201" lon="11.87171341914007"><ele>271.0</ele><time>2026-04-25T08:21:38.972Z</time></trkpt><trkpt lat="43.579588730995724" lon="11.871779686116753"><ele>271.0</ele><time>2026-04-25T08:21:39.972Z</time></trkpt><trkpt lat="43.57975925179693" lon="11.871868861545067"><ele>271.0</ele><time>2026-04-25T08:21:40.972Z</time></trkpt><trkpt lat="43.579933093599664" lon="11.871933412060134"><ele>271.0</ele><time>2026-04-25T08:21:41.972Z</time></trkpt><trkpt lat="43.58010533800887" lon="11.871993294678278"><ele>271.0</ele><time>2026-04-25T08:21:42.971Z</time></trkpt><trkpt lat="43.580280242811156" lon="11.872061196255151"><ele>271.3333333333333</ele><time>2026-04-25T08:21:43.971Z</time></trkpt><trkpt lat="43.58045901476225" lon="11.872131262411779"><ele>271.6666666666667</ele><time>2026-04-25T08:21:44.971Z</time></trkpt><trkpt lat="43.58063505583576" lon="11.872204065916304"><ele>272.0</ele><time>2026-04-25T08:21:45.971Z</time></trkpt><trkpt lat="43.5808148298104" lon="11.872275275473804"><ele>272.0</ele><time>2026-04-25T08:21:46.971Z</time></trkpt><trkpt lat="43.580994493365594" lon="11.872344848386344"><ele>272.0</ele><time>2026-04-25T08:21:47.971Z</time></trkpt><trkpt lat="43.58117559328032" lon="11.872407526643125"><ele>272.0</ele><time>2026-04-25T08:21:48.971Z</time></trkpt><trkpt lat="43.5813563420299" lon="11.872471256554467"><ele>272.33333333333337</ele><time>2026-04-25T08:21:49.971Z</time></trkpt><trkpt lat="43.581533433903516" lon="11.872534363383645"><ele>272.6666666666667</ele><time>2026-04-25T08:21:50.971Z</time></trkpt><trkpt lat="43.58170525912696" lon="11.872601557873981"><ele>273.0</ele><time>2026-04-25T08:21:51.971Z</time></trkpt><trkpt lat="43.5818716775163" lon="11.872666986219558"><ele>273.3333333333333</ele><time>2026-04-25T08:21:52.971Z</time></trkpt><trkpt lat="43.58203016709703" lon="11.872725634534545"><ele>273.66666666666663</ele><time>2026-04-25T08:21:53.971Z</time></trkpt><trkpt lat="43.582185900179816" lon="11.872783608384017"><ele>274.0</ele><time>2026-04-25T08:21:54.971Z</time></trkpt><trkpt lat="43.5823395199381" lon="11.872837229453271"><ele>274.0</ele><time>2026-04-25T08:21:55.971Z</time></trkpt><trkpt lat="43.58249665158274" lon="11.872898569506928"><ele>274.0</ele><time>2026-04-25T08:21:56.971Z</time></trkpt><trkpt lat="43.58265813192959" lon="11.872957587378925"><ele>274.0</ele><time>2026-04-25T08:21:57.971Z</time></trkpt><trkpt lat="43.582827275612665" lon="11.87301837592819"><ele>274.0</ele><time>2026-04-25T08:21:58.971Z</time></trkpt><trkpt lat="43.583004333917536" lon="11.873081193404857"><ele>274.0</ele><time>2026-04-25T08:21:59.971Z</time></trkpt><trkpt lat="43.583183347845505" lon="11.873143199259314"><ele>274.0</ele><time>2026-04-25T08:22:00.97Z</time></trkpt><trkpt lat="43.583365636174726" lon="11.873212351004886"><ele>274.0</ele><time>2026-04-25T08:22:01.971Z</time></trkpt><trkpt lat="43.583551001962064" lon="11.873281327771341"><ele>274.0</ele><time>2026-04-25T08:22:02.971Z</time></trkpt><trkpt lat="43.583741418152144" lon="11.873353929744571"><ele>274.0</ele><time>2026-04-25T08:22:03.971Z</time></trkpt><trkpt lat="43.58393198166019" lon="11.873423593039504"><ele>273.3333333333333</ele><time>2026-04-25T08:22:04.97Z</time></trkpt><trkpt lat="43.584130633669545" lon="11.873502431511783"><ele>272.6666666666667</ele><time>2026-04-25T08:22:05.97Z</time></trkpt><trkpt lat="43.58432824646728" lon="11.873581435911243"><ele>272.0</ele><time>2026-04-25T08:22:06.97Z</time></trkpt><trkpt lat="43.58452360217872" lon="11.873659817877249"><ele>272.0</ele><time>2026-04-25T08:22:07.971Z</time></trkpt><trkpt lat="43.58471580249679" lon="11.873740671484134"><ele>272.0</ele><time>2026-04-25T08:22:08.971Z</time></trkpt><trkpt lat="43.584907492361765" lon="11.873827831182686"><ele>272.0</ele><time>2026-04-25T08:22:09.971Z</time></trkpt><trkpt lat="43.58509947231517" lon="11.873930070125004"><ele>272.0</ele><time>2026-04-25T08:22:10.97Z</time></trkpt><trkpt lat="43.58528878158074" lon="11.874037265859029"><ele>272.0</ele><time>2026-04-25T08:22:11.97Z</time></trkpt><trkpt lat="43.58547095117126" lon="11.874137223588884"><ele>272.0</ele><time>2026-04-25T08:22:12.971Z</time></trkpt><trkpt lat="43.585650229723676" lon="11.87424894696975"><ele>272.0</ele><time>2026-04-25T08:22:13.971Z</time></trkpt><trkpt lat="43.585839586678595" lon="11.874364253726265"><ele>272.0</ele><time>2026-04-25T08:22:14.971Z</time></trkpt><trkpt lat="43.58602603472647" lon="11.874474891999562"><ele>272.0</ele><time>2026-04-25T08:22:15.971Z</time></trkpt><trkpt lat="43.58621630784374" lon="11.874586831984296"><ele>272.33333333333337</ele><time>2026-04-25T08:22:16.971Z</time></trkpt><trkpt lat="43.586403190584896" lon="11.874695842890418"><ele>272.6666666666667</ele><time>2026-04-25T08:22:17.971Z</time></trkpt><trkpt lat="43.58658402762948" lon="11.874800382298861"><ele>273.0</ele><time>2026-04-25T08:22:18.971Z</time></trkpt><trkpt lat="43.58676982145673" lon="11.874913643177507"><ele>273.0</ele><time>2026-04-25T08:22:19.971Z</time></trkpt><trkpt lat="43.58694213423421" lon="11.875017490460989"><ele>273.0</ele><time>2026-04-25T08:22:20.97Z</time></trkpt><trkpt lat="43.58711662567929" lon="11.875110949099273"><ele>273.0</ele><time>2026-04-25T08:22:21.97Z</time></trkpt><trkpt lat="43.587290978305475" lon="11.8751984366373"><ele>275.0</ele><time>2026-04-25T08:22:22.97Z</time></trkpt><trkpt lat="43.5874584813193" lon="11.875281884421064"><ele>277.0</ele><time>2026-04-25T08:22:23.97Z</time></trkpt><trkpt lat="43.58762459892613" lon="11.875362794255095"><ele>279.0</ele><time>2026-04-25T08:22:24.97Z</time></trkpt><trkpt lat="43.587781335564664" lon="11.87544016210088"><ele>278.0</ele><time>2026-04-25T08:22:25.97Z</time></trkpt><trkpt lat="43.58793469516893" lon="11.875513160536684"><ele>277.0</ele><time>2026-04-25T08:22:26.97Z</time></trkpt><trkpt lat="43.58808649111729" lon="11.875600348433595"><ele>276.0</ele><time>2026-04-25T08:22:27.97Z</time></trkpt><trkpt lat="43.588231284093624" lon="11.875699350718632"><ele>276.0</ele><time>2026-04-25T08:22:28.97Z</time></trkpt><trkpt lat="43.58836440620161" lon="11.875807941031221"><ele>276.0</ele><time>2026-04-25T08:22:29.97Z</time></trkpt><trkpt lat="43.58849762073917" lon="11.875917235483454"><ele>276.0</ele><time>2026-04-25T08:22:30.97Z</time></trkpt><trkpt lat="43.58862910314677" lon="11.876032498412638"><ele>276.3333333333333</ele><time>2026-04-25T08:22:31.97Z</time></trkpt><trkpt lat="43.58874863006866" lon="11.876183333098266"><ele>276.66666666666663</ele><time>2026-04-25T08:22:32.97Z</time></trkpt><trkpt lat="43.588885498492495" lon="11.87630245593688"><ele>277.0</ele><time>2026-04-25T08:22:33.97Z</time></trkpt><trkpt lat="43.58900868276368" lon="11.876452282190483"><ele>277.0</ele><time>2026-04-25T08:22:34.97Z</time></trkpt><trkpt lat="43.58913403961546" lon="11.876594048164812"><ele>277.0</ele><time>2026-04-25T08:22:35.97Z</time></trkpt><trkpt lat="43.58923760740382" lon="11.876764396565195"><ele>277.0</ele><time>2026-04-25T08:22:36.97Z</time></trkpt><trkpt lat="43.589362929400046" lon="11.876877253268466"><ele>276.0</ele><time>2026-04-25T08:22:37.97Z</time></trkpt><trkpt lat="43.58948858361636" lon="11.876973882856184"><ele>275.0</ele><time>2026-04-25T08:22:38.97Z</time></trkpt><trkpt lat="43.58962664619668" lon="11.877053434891092"><ele>274.0</ele><time>2026-04-25T08:22:39.97Z</time></trkpt><trkpt lat="43.58976594437064" lon="11.877110323192474"><ele>273.0</ele><time>2026-04-25T08:22:40.97Z</time></trkpt><trkpt lat="43.58990340828733" lon="11.877154029635475"><ele>273.0</ele><time>2026-04-25T08:22:41.97Z</time></trkpt><trkpt lat="43.590034477066695" lon="11.87720034329836"><ele>273.0</ele><time>2026-04-25T08:22:42.97Z</time></trkpt><trkpt lat="43.59017334332992" lon="11.877256876298139"><ele>273.0</ele><time>2026-04-25T08:22:43.97Z</time></trkpt><trkpt lat="43.59031189231064" lon="11.877325741845072"><ele>273.0</ele><time>2026-04-25T08:22:44.97Z</time></trkpt><trkpt lat="43.59044905897888" lon="11.877389638549662"><ele>272.25</ele><time>2026-04-25T08:22:45.97Z</time></trkpt><trkpt lat="43.5905843140321" lon="11.87744582868909"><ele>271.5</ele><time>2026-04-25T08:22:46.97Z</time></trkpt><trkpt lat="43.59072613400355" lon="11.877514925908706"><ele>270.75</ele><time>2026-04-25T08:22:47.97Z</time></trkpt><trkpt lat="43.59087247118588" lon="11.877591188208969"><ele>270.0</ele><time>2026-04-25T08:22:48.97Z</time></trkpt><trkpt lat="43.59101433373392" lon="11.87767702173698"><ele>270.6666666666667</ele><time>2026-04-25T08:22:49.97Z</time></trkpt><trkpt lat="43.59115523020135" lon="11.877765523768906"><ele>271.33333333333337</ele><time>2026-04-25T08:22:50.97Z</time></trkpt><trkpt lat="43.5913024000229" lon="11.877852177121552"><ele>272.0</ele><time>2026-04-25T08:22:51.97Z</time></trkpt><trkpt lat="43.59144417232642" lon="11.877937082006417"><ele>272.0</ele><time>2026-04-25T08:22:52.97Z</time></trkpt><trkpt lat="43.59157417973299" lon="11.878017927234438"><ele>272.0</ele><time>2026-04-25T08:22:53.97Z</time></trkpt><trkpt lat="43.59170034458743" lon="11.87809319508889"><ele>272.0</ele><time>2026-04-25T08:22:54.97Z</time></trkpt><trkpt lat="43.59181447459778" lon="11.8781687624469"><ele>272.0</ele><time>2026-04-25T08:22:55.97Z</time></trkpt><trkpt lat="43.59192727251934" lon="11.878239359874842"><ele>272.0</ele><time>2026-04-25T08:22:56.97Z</time></trkpt><trkpt lat="43.59203200761018" lon="11.87830429011726"><ele>272.0</ele><time>2026-04-25T08:22:57.97Z</time></trkpt><trkpt lat="43.5921382457728" lon="11.87837126448392"><ele>272.0</ele><time>2026-04-25T08:22:58.97Z</time></trkpt><trkpt lat="43.5922535137582" lon="11.878432594662122"><ele>272.0</ele><time>2026-04-25T08:22:59.97Z</time></trkpt><trkpt lat="43.59237012562393" lon="11.87849344713941"><ele>274.25</ele><time>2026-04-25T08:23:00.97Z</time></trkpt><trkpt lat="43.59247213518359" lon="11.878570389554715"><ele>276.5</ele><time>2026-04-25T08:23:01.97Z</time></trkpt><trkpt lat="43.59258282888677" lon="11.878629301889731"><ele>278.75</ele><time>2026-04-25T08:23:02.97Z</time></trkpt><trkpt lat="43.59270289383272" lon="11.878686163973361"><ele>281.0</ele><time>2026-04-25T08:23:03.97Z</time></trkpt><trkpt lat="43.59283746406752" lon="11.878743530476513"><ele>279.6666666666667</ele><time>2026-04-25T08:23:04.97Z</time></trkpt><trkpt lat="43.592983217687824" lon="11.87879652744944"><ele>278.3333333333333</ele><time>2026-04-25T08:23:05.97Z</time></trkpt><trkpt lat="43.59314478870061" lon="11.878862340020362"><ele>277.0</ele><time>2026-04-25T08:23:06.97Z</time></trkpt><trkpt lat="43.59332420057288" lon="11.878951303426511"><ele>277.0</ele><time>2026-04-25T08:23:07.97Z</time></trkpt><trkpt lat="43.59348868698598" lon="11.879047626619535"><ele>277.0</ele><time>2026-04-25T08:23:08.97Z</time></trkpt><trkpt lat="43.59364667352194" lon="11.879128909106637"><ele>277.0</ele><time>2026-04-25T08:23:09.97Z</time></trkpt><trkpt lat="43.59378736021717" lon="11.879196663048308"><ele>277.0</ele><time>2026-04-25T08:23:10.97Z</time></trkpt><trkpt lat="43.59392757356439" lon="11.879252198434237"><ele>277.0</ele><time>2026-04-25T08:23:11.97Z</time></trkpt><trkpt lat="43.59407333416758" lon="11.879283427792368"><ele>277.0</ele><time>2026-04-25T08:23:12.97Z</time></trkpt><trkpt lat="43.59422568477167" lon="11.87928103421455"><ele>277.0</ele><time>2026-04-25T08:23:13.97Z</time></trkpt><trkpt lat="43.59438211117129" lon="11.879249373190044"><ele>279.0</ele><time>2026-04-25T08:23:14.97Z</time></trkpt><trkpt lat="43.59453655648898" lon="11.879204962832675"><ele>281.0</ele><time>2026-04-25T08:23:15.97Z</time></trkpt><trkpt lat="43.59468947327959" lon="11.879168269342639"><ele>283.0</ele><time>2026-04-25T08:23:16.97Z</time></trkpt><trkpt lat="43.59482580504427" lon="11.879140347594824"><ele>283.0</ele><time>2026-04-25T08:23:17.97Z</time></trkpt><trkpt lat="43.59496180745712" lon="11.8791124526879"><ele>283.0</ele><time>2026-04-25T08:23:18.97Z</time></trkpt><trkpt lat="43.59509677514915" lon="11.879086442877757"><ele>283.0</ele><time>2026-04-25T08:23:19.97Z</time></trkpt><trkpt lat="43.595231799333455" lon="11.8790507515113"><ele>283.0</ele><time>2026-04-25T08:23:20.969Z</time></trkpt><trkpt lat="43.595369046938" lon="11.879029695018236"><ele>285.25</ele><time>2026-04-25T08:23:21.969Z</time></trkpt><trkpt lat="43.595503911989695" lon="11.878986502597872"><ele>287.5</ele><time>2026-04-25T08:23:22.969Z</time></trkpt><trkpt lat="43.595635887867886" lon="11.878943528409048"><ele>289.75</ele><time>2026-04-25T08:23:23.969Z</time></trkpt><trkpt lat="43.59576820089461" lon="11.878874628905985"><ele>292.0</ele><time>2026-04-25T08:23:24.969Z</time></trkpt><trkpt lat="43.59591132934474" lon="11.878855443820225"><ele>292.0</ele><time>2026-04-25T08:23:25.969Z</time></trkpt><trkpt lat="43.596044869289216" lon="11.878799502113983"><ele>292.0</ele><time>2026-04-25T08:23:26.969Z</time></trkpt><trkpt lat="43.596176320304096" lon="11.878740324760024"><ele>292.0</ele><time>2026-04-25T08:23:27.969Z</time></trkpt><trkpt lat="43.59630299593487" lon="11.878668237815072"><ele>292.0</ele><time>2026-04-25T08:23:28.969Z</time></trkpt><trkpt lat="43.59642017698619" lon="11.878598759366406"><ele>290.75</ele><time>2026-04-25T08:23:29.969Z</time></trkpt><trkpt lat="43.5965272233991" lon="11.878529409823523"><ele>289.5</ele><time>2026-04-25T08:23:30.969Z</time></trkpt><trkpt lat="43.59662605268201" lon="11.878448771510561"><ele>288.25</ele><time>2026-04-25T08:23:31.969Z</time></trkpt><trkpt lat="43.596719166759954" lon="11.878365503392606"><ele>287.0</ele><time>2026-04-25T08:23:32.969Z</time></trkpt><trkpt lat="43.596815463718556" lon="11.878281216724169"><ele>287.0</ele><time>2026-04-25T08:23:33.969Z</time></trkpt><trkpt lat="43.59691759915654" lon="11.87819298404007"><ele>287.0</ele><time>2026-04-25T08:23:34.969Z</time></trkpt><trkpt lat="43.59701834102555" lon="11.87808766012028"><ele>287.0</ele><time>2026-04-25T08:23:35.969Z</time></trkpt><trkpt lat="43.597117261595265" lon="11.877968919348838"><ele>287.0</ele><time>2026-04-25T08:23:36.969Z</time></trkpt><trkpt lat="43.59720523607646" lon="11.877829802888838"><ele>288.0</ele><time>2026-04-25T08:23:37.969Z</time></trkpt><trkpt lat="43.59729104201774" lon="11.87768608262709"><ele>289.0</ele><time>2026-04-25T08:23:38.969Z</time></trkpt><trkpt lat="43.597375142935725" lon="11.877542450595783"><ele>290.0</ele><time>2026-04-25T08:23:39.969Z</time></trkpt><trkpt lat="43.597448927504004" lon="11.87741013363302"><ele>291.0</ele><time>2026-04-25T08:23:40.969Z</time></trkpt><trkpt lat="43.59752268661654" lon="11.877275408765163"><ele>291.0</ele><time>2026-04-25T08:23:41.969Z</time></trkpt><trkpt lat="43.59759971472232" lon="11.877133919590692"><ele>291.0</ele><time>2026-04-25T08:23:42.969Z</time></trkpt><trkpt lat="43.597683470389875" lon="11.87699042144404"><ele>291.0</ele><time>2026-04-25T08:23:43.969Z</time></trkpt><trkpt lat="43.59776786522092" lon="11.876846777969076"><ele>291.0</ele><time>2026-04-25T08:23:44.969Z</time></trkpt><trkpt lat="43.59785971500073" lon="11.876701362315279"><ele>294.5</ele><time>2026-04-25T08:23:45.969Z</time></trkpt><trkpt lat="43.59796065160731" lon="11.876568303412387"><ele>298.0</ele><time>2026-04-25T08:23:46.969Z</time></trkpt><trkpt lat="43.59806424948537" lon="11.876433990349168"><ele>301.5</ele><time>2026-04-25T08:23:47.969Z</time></trkpt><trkpt lat="43.59816361589554" lon="11.876291600679318"><ele>305.0</ele><time>2026-04-25T08:23:48.969Z</time></trkpt><trkpt lat="43.598251858693004" lon="11.876143200986828"><ele>305.0</ele><time>2026-04-25T08:23:49.969Z</time></trkpt><trkpt lat="43.598330119608974" lon="11.875987867762067"><ele>305.0</ele><time>2026-04-25T08:23:50.969Z</time></trkpt><trkpt lat="43.5984261544457" lon="11.875849614681522"><ele>305.0</ele><time>2026-04-25T08:23:51.969Z</time></trkpt><trkpt lat="43.59849950064217" lon="11.875690704663269"><ele>305.0</ele><time>2026-04-25T08:23:52.969Z</time></trkpt><trkpt lat="43.59856955138625" lon="11.875528263266089"><ele>305.25</ele><time>2026-04-25T08:23:53.969Z</time></trkpt><trkpt lat="43.598643073429756" lon="11.875367095910184"><ele>305.5</ele><time>2026-04-25T08:23:54.969Z</time></trkpt><trkpt lat="43.59870960451595" lon="11.875199922800089"><ele>305.75</ele><time>2026-04-25T08:23:55.969Z</time></trkpt><trkpt lat="43.59876545803895" lon="11.875027860350446"><ele>306.0</ele><time>2026-04-25T08:23:56.969Z</time></trkpt><trkpt lat="43.5988116019168" lon="11.87484702465856"><ele>306.0</ele><time>2026-04-25T08:23:57.969Z</time></trkpt><trkpt lat="43.59886113850921" lon="11.87466470815132"><ele>306.0</ele><time>2026-04-25T08:23:58.969Z</time></trkpt><trkpt lat="43.598915474615815" lon="11.874474471934406"><ele>306.0</ele><time>2026-04-25T08:23:59.969Z</time></trkpt><trkpt lat="43.59897226890117" lon="11.874287790725873"><ele>306.0</ele><time>2026-04-25T08:24:00.969Z</time></trkpt><trkpt lat="43.599030676565526" lon="11.874088210840684"><ele>302.3333333333333</ele><time>2026-04-25T08:24:01.969Z</time></trkpt><trkpt lat="43.59908623851548" lon="11.873890624608602"><ele>298.66666666666663</ele><time>2026-04-25T08:24:02.969Z</time></trkpt><trkpt lat="43.599136788978306" lon="11.873687041045798"><ele>295.0</ele><time>2026-04-25T08:24:03.969Z</time></trkpt><trkpt lat="43.599179295054974" lon="11.873481507641737"><ele>292.0</ele><time>2026-04-25T08:24:04.969Z</time></trkpt><trkpt lat="43.59921196414294" lon="11.873286492394966"><ele>289.0</ele><time>2026-04-25T08:24:05.969Z</time></trkpt><trkpt lat="43.59924745906154" lon="11.873094680140044"><ele>286.0</ele><time>2026-04-25T08:24:06.969Z</time></trkpt><trkpt lat="43.59928178805263" lon="11.872898247449628"><ele>283.0</ele><time>2026-04-25T08:24:07.969Z</time></trkpt><trkpt lat="43.59932141603999" lon="11.872699853348298"><ele>281.25</ele><time>2026-04-25T08:24:08.969Z</time></trkpt><trkpt lat="43.59935728319676" lon="11.87250216468642"><ele>279.5</ele><time>2026-04-25T08:24:09.969Z</time></trkpt><trkpt lat="43.59940424645474" lon="11.872310374262415"><ele>277.75</ele><time>2026-04-25T08:24:10.968Z</time></trkpt><trkpt lat="43.59944259262944" lon="11.87211222485624"><ele>276.0</ele><time>2026-04-25T08:24:11.968Z</time></trkpt><trkpt lat="43.59948678733869" lon="11.871916416106746"><ele>281.75</ele><time>2026-04-25T08:24:12.968Z</time></trkpt><trkpt lat="43.59951616933697" lon="11.871711274857038"><ele>287.5</ele><time>2026-04-25T08:24:13.968Z</time></trkpt><trkpt lat="43.599542630873856" lon="11.871518125732871"><ele>293.25</ele><time>2026-04-25T08:24:14.968Z</time></trkpt><trkpt lat="43.599564211236185" lon="11.871330361634229"><ele>299.0</ele><time>2026-04-25T08:24:15.968Z</time></trkpt><trkpt lat="43.59958544100042" lon="11.871145612701605"><ele>299.0</ele><time>2026-04-25T08:24:16.967Z</time></trkpt><trkpt lat="43.599602563317895" lon="11.870969309563126"><ele>299.0</ele><time>2026-04-25T08:24:17.967Z</time></trkpt><trkpt lat="43.59962615639586" lon="11.870780792896612"><ele>299.0</ele><time>2026-04-25T08:24:18.967Z</time></trkpt><trkpt lat="43.59964209150853" lon="11.87058727926775"><ele>299.0</ele><time>2026-04-25T08:24:19.967Z</time></trkpt><trkpt lat="43.599659308826105" lon="11.87040539264297"><ele>297.5</ele><time>2026-04-25T08:24:20.967Z</time></trkpt><trkpt lat="43.59966958148639" lon="11.870230379849644"><ele>296.0</ele><time>2026-04-25T08:24:21.967Z</time></trkpt><trkpt lat="43.59967978449119" lon="11.870068025319183"><ele>294.5</ele><time>2026-04-25T08:24:22.967Z</time></trkpt><trkpt lat="43.59968461305647" lon="11.869910694269938"><ele>293.0</ele><time>2026-04-25T08:24:23.967Z</time></trkpt><trkpt lat="43.599692559113564" lon="11.869758154318163"><ele>291.8</ele><time>2026-04-25T08:24:24.967Z</time></trkpt><trkpt lat="43.59970293728536" lon="11.869609020568943"><ele>290.6</ele><time>2026-04-25T08:24:25.967Z</time></trkpt><trkpt lat="43.599711464474936" lon="11.86945890738178"><ele>289.4</ele><time>2026-04-25T08:24:26.967Z</time></trkpt><trkpt lat="43.59972319021707" lon="11.869309764902983"><ele>288.2</ele><time>2026-04-25T08:24:27.967Z</time></trkpt><trkpt lat="43.59973360403664" lon="11.869164501102336"><ele>287.0</ele><time>2026-04-25T08:24:28.967Z</time></trkpt><trkpt lat="43.599743865278874" lon="11.869024064118499"><ele>287.0</ele><time>2026-04-25T08:24:29.967Z</time></trkpt><trkpt lat="43.599768875501645" lon="11.868882935352659"><ele>287.0</ele><time>2026-04-25T08:24:30.967Z</time></trkpt><trkpt lat="43.59980531380491" lon="11.868746390951342"><ele>287.0</ele><time>2026-04-25T08:24:31.967Z</time></trkpt><trkpt lat="43.59985789513275" lon="11.8686044868972"><ele>287.0</ele><time>2026-04-25T08:24:32.967Z</time></trkpt><trkpt lat="43.5999257168061" lon="11.868472845475607"><ele>287.0</ele><time>2026-04-25T08:24:33.967Z</time></trkpt><trkpt lat="43.600009305840025" lon="11.868350849414362"><ele>287.75</ele><time>2026-04-25T08:24:34.967Z</time></trkpt><trkpt lat="43.600094265564664" lon="11.86823307651191"><ele>288.5</ele><time>2026-04-25T08:24:35.967Z</time></trkpt><trkpt lat="43.600174040256235" lon="11.868104564048577"><ele>289.25</ele><time>2026-04-25T08:24:36.967Z</time></trkpt><trkpt lat="43.60025456751934" lon="11.867971002644618"><ele>290.0</ele><time>2026-04-25T08:24:37.967Z</time></trkpt><trkpt lat="43.600345820338426" lon="11.867839040108427"><ele>291.25</ele><time>2026-04-25T08:24:38.967Z</time></trkpt><trkpt lat="43.600443258934625" lon="11.867706055048124"><ele>292.5</ele><time>2026-04-25T08:24:39.967Z</time></trkpt><trkpt lat="43.60053708463371" lon="11.867569422443625"><ele>293.75</ele><time>2026-04-25T08:24:40.967Z</time></trkpt><trkpt lat="43.60062871817901" lon="11.867451044488607"><ele>295.0</ele><time>2026-04-25T08:24:41.967Z</time></trkpt><trkpt lat="43.6007196220548" lon="11.867355902155312"><ele>295.0</ele><time>2026-04-25T08:24:42.967Z</time></trkpt><trkpt lat="43.60081493687428" lon="11.867274056030405"><ele>295.0</ele><time>2026-04-25T08:24:43.967Z</time></trkpt><trkpt lat="43.600910667565195" lon="11.86720262627066"><ele>295.0</ele><time>2026-04-25T08:24:44.967Z</time></trkpt><trkpt lat="43.600999867400155" lon="11.867133617005202"><ele>295.0</ele><time>2026-04-25T08:24:45.967Z</time></trkpt><trkpt lat="43.60108580498058" lon="11.867063430810314"><ele>295.0</ele><time>2026-04-25T08:24:46.967Z</time></trkpt><trkpt lat="43.60117456124009" lon="11.867023476338733"><ele>295.0</ele><time>2026-04-25T08:24:47.967Z</time></trkpt><trkpt lat="43.60125583805453" lon="11.86695274033974"><ele>295.0</ele><time>2026-04-25T08:24:48.967Z</time></trkpt><trkpt lat="43.60133872609203" lon="11.86688684875643"><ele>295.0</ele><time>2026-04-25T08:24:49.967Z</time></trkpt><trkpt lat="43.601417928484544" lon="11.866824336430035"><ele>295.0</ele><time>2026-04-25T08:24:50.967Z</time></trkpt><trkpt lat="43.601496600725966" lon="11.86676570449581"><ele>295.0</ele><time>2026-04-25T08:24:51.967Z</time></trkpt><trkpt lat="43.60156682387857" lon="11.866711279190444"><ele>295.0</ele><time>2026-04-25T08:24:52.967Z</time></trkpt><trkpt lat="43.60165447614709" lon="11.866644213008879"><ele>295.0</ele><time>2026-04-25T08:24:53.967Z</time></trkpt><trkpt lat="43.60173894826711" lon="11.866573103248887"><ele>295.0</ele><time>2026-04-25T08:24:54.967Z</time></trkpt><trkpt lat="43.60182482049389" lon="11.866510285431715"><ele>295.0</ele><time>2026-04-25T08:24:55.967Z</time></trkpt><trkpt lat="43.60191492949045" lon="11.866478899946147"><ele>295.0</ele><time>2026-04-25T08:24:56.967Z</time></trkpt><trkpt lat="43.60200636338773" lon="11.866430484413979"><ele>296.25</ele><time>2026-04-25T08:24:57.967Z</time></trkpt><trkpt lat="43.60211161584271" lon="11.866380452978214"><ele>297.5</ele><time>2026-04-25T08:24:58.967Z</time></trkpt><trkpt lat="43.60223483560779" lon="11.866328069929024"><ele>298.75</ele><time>2026-04-25T08:24:59.967Z</time></trkpt><trkpt lat="43.60235663954075" lon="11.866245072497996"><ele>300.0</ele><time>2026-04-25T08:25:00.967Z</time></trkpt><trkpt lat="43.60248463274428" lon="11.86619250161394"><ele>300.0</ele><time>2026-04-25T08:25:01.967Z</time></trkpt><trkpt lat="43.6026309410972" lon="11.866186773598404"><ele>300.0</ele><time>2026-04-25T08:25:02.967Z</time></trkpt><trkpt lat="43.60276273127674" lon="11.866144196594762"><ele>300.0</ele><time>2026-04-25T08:25:03.967Z</time></trkpt><trkpt lat="43.60291699966468" lon="11.866101868421818"><ele>300.0</ele><time>2026-04-25T08:25:04.967Z</time></trkpt><trkpt lat="43.603080363075414" lon="11.866067938073902"><ele>302.3333333333333</ele><time>2026-04-25T08:25:05.967Z</time></trkpt><trkpt lat="43.60324548136785" lon="11.866039443053879"><ele>304.66666666666663</ele><time>2026-04-25T08:25:06.967Z</time></trkpt><trkpt lat="43.603416733752745" lon="11.866013062890552"><ele>307.0</ele><time>2026-04-25T08:25:07.967Z</time></trkpt><trkpt lat="43.603580323502584" lon="11.86598757442742"><ele>304.66666666666663</ele><time>2026-04-25T08:25:08.967Z</time></trkpt><trkpt lat="43.60375975558853" lon="11.865958205576772"><ele>302.3333333333333</ele><time>2026-04-25T08:25:09.967Z</time></trkpt><trkpt lat="43.60394185951426" lon="11.865924557810658"><ele>300.0</ele><time>2026-04-25T08:25:10.967Z</time></trkpt><trkpt lat="43.60412239128718" lon="11.865850545557315"><ele>297.3333333333333</ele><time>2026-04-25T08:25:11.967Z</time></trkpt><trkpt lat="43.60429712434337" lon="11.865782140756338"><ele>294.66666666666663</ele><time>2026-04-25T08:25:12.967Z</time></trkpt><trkpt lat="43.60446151967111" lon="11.865710340908894"><ele>292.0</ele><time>2026-04-25T08:25:13.967Z</time></trkpt><trkpt lat="43.604618295941826" lon="11.865643914588714"><ele>292.0</ele><time>2026-04-25T08:25:14.967Z</time></trkpt><trkpt lat="43.604773065806135" lon="11.865569482135642"><ele>292.0</ele><time>2026-04-25T08:25:15.966Z</time></trkpt><trkpt lat="43.60493547742508" lon="11.865501251450912"><ele>292.0</ele><time>2026-04-25T08:25:16.966Z</time></trkpt><trkpt lat="43.60510318958718" lon="11.86543106926807"><ele>292.0</ele><time>2026-04-25T08:25:17.966Z</time></trkpt><trkpt lat="43.60528828988272" lon="11.865368844369009"><ele>292.0</ele><time>2026-04-25T08:25:18.966Z</time></trkpt><trkpt lat="43.60547152541276" lon="11.865304473361586"><ele>292.0</ele><time>2026-04-25T08:25:19.966Z</time></trkpt><trkpt lat="43.605666446249735" lon="11.865242907754721"><ele>290.66666666666663</ele><time>2026-04-25T08:25:20.966Z</time></trkpt><trkpt lat="43.60587392380723" lon="11.865179613978398"><ele>289.3333333333333</ele><time>2026-04-25T08:25:21.966Z</time></trkpt><trkpt lat="43.606080839193616" lon="11.865115442557192"><ele>288.0</ele><time>2026-04-25T08:25:22.966Z</time></trkpt><trkpt lat="43.60628263440242" lon="11.865049435935909"><ele>288.0</ele><time>2026-04-25T08:25:23.966Z</time></trkpt><trkpt lat="43.60649541884864" lon="11.864986603888308"><ele>288.0</ele><time>2026-04-25T08:25:24.966Z</time></trkpt><trkpt lat="43.606704548574385" lon="11.864912723998412"><ele>288.0</ele><time>2026-04-25T08:25:25.966Z</time></trkpt><trkpt lat="43.60691002513938" lon="11.86484670052537"><ele>288.6666666666667</ele><time>2026-04-25T08:25:26.966Z</time></trkpt><trkpt lat="43.607119661193984" lon="11.864775601067683"><ele>289.33333333333337</ele><time>2026-04-25T08:25:27.966Z</time></trkpt><trkpt lat="43.60732951493189" lon="11.864711512418861"><ele>290.0</ele><time>2026-04-25T08:25:28.966Z</time></trkpt><trkpt lat="43.607537597677286" lon="11.864654131222107"><ele>290.0</ele><time>2026-04-25T08:25:29.966Z</time></trkpt><trkpt lat="43.60775008467412" lon="11.864618750704247"><ele>290.0</ele><time>2026-04-25T08:25:30.966Z</time></trkpt><trkpt lat="43.60797098881582" lon="11.864601596990317"><ele>290.0</ele><time>2026-04-25T08:25:31.966Z</time></trkpt><trkpt lat="43.608194494329226" lon="11.864593063881285"><ele>291.0</ele><time>2026-04-25T08:25:32.966Z</time></trkpt><trkpt lat="43.60843202444695" lon="11.864588990029995"><ele>292.0</ele><time>2026-04-25T08:25:33.966Z</time></trkpt><trkpt lat="43.608672257304356" lon="11.8646208254859"><ele>288.5</ele><time>2026-04-25T08:25:34.966Z</time></trkpt><trkpt lat="43.60892593190494" lon="11.864649708369775"><ele>285.0</ele><time>2026-04-25T08:25:35.966Z</time></trkpt><trkpt lat="43.609185327509145" lon="11.864692238537085"><ele>285.0</ele><time>2026-04-25T08:25:36.966Z</time></trkpt><trkpt lat="43.609423558461025" lon="11.864717218740223"><ele>285.0</ele><time>2026-04-25T08:25:37.966Z</time></trkpt><trkpt lat="43.60965905782753" lon="11.86474307722869"><ele>284.5</ele><time>2026-04-25T08:25:38.966Z</time></trkpt><trkpt lat="43.60988426159755" lon="11.864769049175928"><ele>284.0</ele><time>2026-04-25T08:25:39.966Z</time></trkpt><trkpt lat="43.61010685944939" lon="11.864798945713094"><ele>284.5</ele><time>2026-04-25T08:25:40.966Z</time></trkpt><trkpt lat="43.6103316962115" lon="11.864822283334485"><ele>285.0</ele><time>2026-04-25T08:25:41.966Z</time></trkpt><trkpt lat="43.61055525287578" lon="11.864849040898681"><ele>285.0</ele><time>2026-04-25T08:25:42.966Z</time></trkpt><trkpt lat="43.61078173324927" lon="11.864886790086851"><ele>285.0</ele><time>2026-04-25T08:25:43.966Z</time></trkpt><trkpt lat="43.611016705392515" lon="11.86492113068208"><ele>285.0</ele><time>2026-04-25T08:25:44.966Z</time></trkpt><trkpt lat="43.61125197706397" lon="11.864945342146804"><ele>285.0</ele><time>2026-04-25T08:25:45.966Z</time></trkpt><trkpt lat="43.611489711233695" lon="11.864975211209348"><ele>285.0</ele><time>2026-04-25T08:25:46.966Z</time></trkpt><trkpt lat="43.6117255871862" lon="11.865000386861855"><ele>285.0</ele><time>2026-04-25T08:25:47.966Z</time></trkpt><trkpt lat="43.61196568125196" lon="11.86502984176906"><ele>286.0</ele><time>2026-04-25T08:25:48.966Z</time></trkpt><trkpt lat="43.61219658713462" lon="11.865056275787515"><ele>287.0</ele><time>2026-04-25T08:25:49.966Z</time></trkpt><trkpt lat="43.61241180522128" lon="11.865078179199362"><ele>288.0</ele><time>2026-04-25T08:25:50.966Z</time></trkpt><trkpt lat="43.61261642166851" lon="11.865102117961273"><ele>290.0</ele><time>2026-04-25T08:25:51.966Z</time></trkpt><trkpt lat="43.612811824419616" lon="11.865129222280459"><ele>292.0</ele><time>2026-04-25T08:25:52.966Z</time></trkpt><trkpt lat="43.613002500489955" lon="11.865153286836902"><ele>294.0</ele><time>2026-04-25T08:25:53.966Z</time></trkpt><trkpt lat="43.61319279756966" lon="11.865167648406548"><ele>293.6666666666667</ele><time>2026-04-25T08:25:54.966Z</time></trkpt><trkpt lat="43.61338592359956" lon="11.865176651374945"><ele>293.33333333333337</ele><time>2026-04-25T08:25:55.966Z</time></trkpt><trkpt lat="43.613585201065916" lon="11.865168447581002"><ele>293.0</ele><time>2026-04-25T08:25:56.966Z</time></trkpt><trkpt lat="43.61378851116326" lon="11.865144611258254"><ele>292.0</ele><time>2026-04-25T08:25:57.966Z</time></trkpt><trkpt lat="43.613998367602555" lon="11.865099685173863"><ele>291.0</ele><time>2026-04-25T08:25:58.966Z</time></trkpt><trkpt lat="43.614214603848254" lon="11.865039485212638"><ele>290.0</ele><time>2026-04-25T08:25:59.966Z</time></trkpt><trkpt lat="43.61442950025857" lon="11.864944757873777"><ele>293.0</ele><time>2026-04-25T08:26:00.966Z</time></trkpt><trkpt lat="43.61464293637636" lon="11.864828960260468"><ele>296.0</ele><time>2026-04-25T08:26:01.966Z</time></trkpt><trkpt lat="43.61485095159134" lon="11.86469803371295"><ele>296.0</ele><time>2026-04-25T08:26:02.966Z</time></trkpt><trkpt lat="43.61505074151754" lon="11.864547363805384"><ele>296.0</ele><time>2026-04-25T08:26:03.966Z</time></trkpt><trkpt lat="43.61523904905868" lon="11.864380530248546"><ele>300.5</ele><time>2026-04-25T08:26:04.966Z</time></trkpt><trkpt lat="43.61542089759839" lon="11.864195262347659"><ele>305.0</ele><time>2026-04-25T08:26:05.966Z</time></trkpt><trkpt lat="43.615592482448534" lon="11.863988638074096"><ele>305.0</ele><time>2026-04-25T08:26:06.966Z</time></trkpt><trkpt lat="43.615754147317155" lon="11.863764578804517"><ele>305.0</ele><time>2026-04-25T08:26:07.966Z</time></trkpt><trkpt lat="43.61590222287957" lon="11.863526321021617"><ele>306.0</ele><time>2026-04-25T08:26:08.966Z</time></trkpt><trkpt lat="43.6160448491418" lon="11.863261313680374"><ele>307.0</ele><time>2026-04-25T08:26:09.966Z</time></trkpt><trkpt lat="43.61618151031706" lon="11.862982753034903"><ele>307.0</ele><time>2026-04-25T08:26:10.966Z</time></trkpt><trkpt lat="43.61631221668776" lon="11.86268688570262"><ele>307.0</ele><time>2026-04-25T08:26:11.966Z</time></trkpt><trkpt lat="43.616447148435384" lon="11.862388985414311"><ele>301.5</ele><time>2026-04-25T08:26:12.966Z</time></trkpt><trkpt lat="43.61657905501334" lon="11.86208777633677"><ele>296.0</ele><time>2026-04-25T08:26:13.966Z</time></trkpt><trkpt lat="43.61670751535541" lon="11.861781391472553"><ele>292.0</ele><time>2026-04-25T08:26:14.966Z</time></trkpt><trkpt lat="43.61683528137597" lon="11.86147950784363"><ele>288.0</ele><time>2026-04-25T08:26:15.965Z</time></trkpt><trkpt lat="43.616966226670705" lon="11.86118092580958"><ele>291.5</ele><time>2026-04-25T08:26:16.966Z</time></trkpt><trkpt lat="43.617098258145695" lon="11.86088879385869"><ele>295.0</ele><time>2026-04-25T08:26:17.966Z</time></trkpt><trkpt lat="43.617229325680405" lon="11.860606563172425"><ele>295.0</ele><time>2026-04-25T08:26:18.965Z</time></trkpt><trkpt lat="43.617358050314685" lon="11.860327703063808"><ele>295.0</ele><time>2026-04-25T08:26:19.966Z</time></trkpt><trkpt lat="43.6174903191477" lon="11.86004938199227"><ele>291.5</ele><time>2026-04-25T08:26:20.966Z</time></trkpt><trkpt lat="43.61762181132302" lon="11.859772562931143"><ele>288.0</ele><time>2026-04-25T08:26:21.965Z</time></trkpt><trkpt lat="43.61776730339657" lon="11.85949100524799"><ele>291.0</ele><time>2026-04-25T08:26:22.966Z</time></trkpt><trkpt lat="43.61790149912207" lon="11.8592174240922"><ele>294.0</ele><time>2026-04-25T08:26:23.966Z</time></trkpt><trkpt lat="43.61803490883551" lon="11.858941798199051"><ele>294.0</ele><time>2026-04-25T08:26:24.966Z</time></trkpt><trkpt lat="43.6181726243147" lon="11.858668712328003"><ele>294.0</ele><time>2026-04-25T08:26:25.966Z</time></trkpt><trkpt lat="43.61831263178652" lon="11.8583927119531"><ele>290.0</ele><time>2026-04-25T08:26:26.966Z</time></trkpt><trkpt lat="43.6184539673904" lon="11.858115002847054"><ele>286.0</ele><time>2026-04-25T08:26:27.966Z</time></trkpt><trkpt lat="43.61858946111269" lon="11.857835179615776"><ele>288.0</ele><time>2026-04-25T08:26:28.966Z</time></trkpt><trkpt lat="43.61873174009094" lon="11.85755688012966"><ele>290.0</ele><time>2026-04-25T08:26:29.966Z</time></trkpt><trkpt lat="43.61887340370299" lon="11.857275573645872"><ele>290.0</ele><time>2026-04-25T08:26:30.966Z</time></trkpt><trkpt lat="43.619014776767756" lon="11.856994643019465"><ele>290.0</ele><time>2026-04-25T08:26:31.966Z</time></trkpt><trkpt lat="43.61915655155813" lon="11.856714399013336"><ele>288.5</ele><time>2026-04-25T08:26:32.966Z</time></trkpt><trkpt lat="43.61929848217559" lon="11.85643311419751"><ele>287.0</ele><time>2026-04-25T08:26:33.966Z</time></trkpt><trkpt lat="43.61944110822086" lon="11.856150291337604"><ele>289.5</ele><time>2026-04-25T08:26:34.966Z</time></trkpt><trkpt lat="43.61958460468335" lon="11.855864258689746"><ele>292.0</ele><time>2026-04-25T08:26:35.966Z</time></trkpt><trkpt lat="43.61972541705107" lon="11.85558043842294"><ele>292.0</ele><time>2026-04-25T08:26:36.966Z</time></trkpt><trkpt lat="43.61987287419672" lon="11.85528995144577"><ele>292.0</ele><time>2026-04-25T08:26:37.966Z</time></trkpt><trkpt lat="43.620017056349674" lon="11.854999101052838"><ele>289.5</ele><time>2026-04-25T08:26:38.966Z</time></trkpt><trkpt lat="43.62016739036936" lon="11.85470736144599"><ele>287.0</ele><time>2026-04-25T08:26:39.966Z</time></trkpt><trkpt lat="43.6203128783899" lon="11.854412377201385"><ele>288.0</ele><time>2026-04-25T08:26:40.966Z</time></trkpt><trkpt lat="43.62045635545835" lon="11.854122380002076"><ele>289.0</ele><time>2026-04-25T08:26:41.966Z</time></trkpt><trkpt lat="43.6205951924546" lon="11.853845797300714"><ele>289.0</ele><time>2026-04-25T08:26:42.966Z</time></trkpt><trkpt lat="43.620729288409315" lon="11.853585696486796"><ele>289.0</ele><time>2026-04-25T08:26:43.966Z</time></trkpt><trkpt lat="43.620859442328545" lon="11.853335161414316"><ele>288.3333333333333</ele><time>2026-04-25T08:26:44.966Z</time></trkpt><trkpt lat="43.620996157254126" lon="11.853093330471632"><ele>287.6666666666667</ele><time>2026-04-25T08:26:45.966Z</time></trkpt><trkpt lat="43.621145951771524" lon="11.852865746923852"><ele>287.0</ele><time>2026-04-25T08:26:46.966Z</time></trkpt><trkpt lat="43.621312731940385" lon="11.85265201327366"><ele>288.5</ele><time>2026-04-25T08:26:47.966Z</time></trkpt><trkpt lat="43.621487715577466" lon="11.852447657205985"><ele>290.0</ele><time>2026-04-25T08:26:48.966Z</time></trkpt><trkpt lat="43.62166952519883" lon="11.852247485995548"><ele>290.0</ele><time>2026-04-25T08:26:49.966Z</time></trkpt><trkpt lat="43.621862164957356" lon="11.852067084583323"><ele>290.0</ele><time>2026-04-25T08:26:50.966Z</time></trkpt><trkpt lat="43.62206405694497" lon="11.851907436252988"><ele>291.5</ele><time>2026-04-25T08:26:51.966Z</time></trkpt><trkpt lat="43.62227386800214" lon="11.851769204895461"><ele>293.0</ele><time>2026-04-25T08:26:52.966Z</time></trkpt><trkpt lat="43.62249719428835" lon="11.851646726464566"><ele>293.0</ele><time>2026-04-25T08:26:53.966Z</time></trkpt><trkpt lat="43.622732451649775" lon="11.851537163780593"><ele>293.0</ele><time>2026-04-25T08:26:54.966Z</time></trkpt><trkpt lat="43.62297503470319" lon="11.851448136861617"><ele>295.0</ele><time>2026-04-25T08:26:55.966Z</time></trkpt><trkpt lat="43.62322270948992" lon="11.851386342538577"><ele>297.0</ele><time>2026-04-25T08:26:56.966Z</time></trkpt><trkpt lat="43.6234677655508" lon="11.851351323258637"><ele>298.5</ele><time>2026-04-25T08:26:57.966Z</time></trkpt><trkpt lat="43.623711251516106" lon="11.851329479382056"><ele>300.0</ele><time>2026-04-25T08:26:58.966Z</time></trkpt><trkpt lat="43.62395971778533" lon="11.851383981569029"><ele>300.0</ele><time>2026-04-25T08:26:59.966Z</time></trkpt><trkpt lat="43.62420328523304" lon="11.851405778840276"><ele>300.0</ele><time>2026-04-25T08:27:00.966Z</time></trkpt><trkpt lat="43.624445433144324" lon="11.851452608623854"><ele>298.5</ele><time>2026-04-25T08:27:01.966Z</time></trkpt><trkpt lat="43.624697625658" lon="11.851518108682805"><ele>297.0</ele><time>2026-04-25T08:27:02.966Z</time></trkpt><trkpt lat="43.62494468703436" lon="11.851614858904817"><ele>297.0</ele><time>2026-04-25T08:27:03.966Z</time></trkpt><trkpt lat="43.62519401157024" lon="11.851722620702269"><ele>297.0</ele><time>2026-04-25T08:27:04.966Z</time></trkpt><trkpt lat="43.6254379175907" lon="11.851837384031068"><ele>304.5</ele><time>2026-04-25T08:27:05.966Z</time></trkpt><trkpt lat="43.62568094482692" lon="11.85193997641982"><ele>312.0</ele><time>2026-04-25T08:27:06.965Z</time></trkpt><trkpt lat="43.625902930523296" lon="11.852046627488843"><ele>312.0</ele><time>2026-04-25T08:27:07.965Z</time></trkpt><trkpt lat="43.62611905456518" lon="11.852147344820102"><ele>312.0</ele><time>2026-04-25T08:27:08.965Z</time></trkpt><trkpt lat="43.626331317510264" lon="11.852255442443575"><ele>305.5</ele><time>2026-04-25T08:27:09.965Z</time></trkpt><trkpt lat="43.6265383339774" lon="11.852391547445873"><ele>299.0</ele><time>2026-04-25T08:27:10.965Z</time></trkpt><trkpt lat="43.62673774224276" lon="11.852544241324447"><ele>298.0</ele><time>2026-04-25T08:27:11.965Z</time></trkpt><trkpt lat="43.626931426437" lon="11.852708759610943"><ele>297.0</ele><time>2026-04-25T08:27:12.965Z</time></trkpt><trkpt lat="43.62711273453556" lon="11.852891174283341"><ele>297.0</ele><time>2026-04-25T08:27:13.965Z</time></trkpt><trkpt lat="43.62728505269458" lon="11.853093291001628"><ele>297.0</ele><time>2026-04-25T08:27:14.965Z</time></trkpt><trkpt lat="43.627450770031324" lon="11.853317753229803"><ele>303.0</ele><time>2026-04-25T08:27:15.965Z</time></trkpt><trkpt lat="43.62761730925155" lon="11.853541264298912"><ele>309.0</ele><time>2026-04-25T08:27:16.965Z</time></trkpt><trkpt lat="43.62778143912222" lon="11.853765790313677"><ele>302.0</ele><time>2026-04-25T08:27:17.965Z</time></trkpt><trkpt lat="43.6279396926625" lon="11.853996364417853"><ele>295.0</ele><time>2026-04-25T08:27:18.965Z</time></trkpt><trkpt lat="43.628100526589094" lon="11.854222988549305"><ele>297.66666666666663</ele><time>2026-04-25T08:27:19.965Z</time></trkpt><trkpt lat="43.62824959392787" lon="11.854436532884408"><ele>300.3333333333333</ele><time>2026-04-25T08:27:20.965Z</time></trkpt><trkpt lat="43.62838485308683" lon="11.854632302627184"><ele>303.0</ele><time>2026-04-25T08:27:21.965Z</time></trkpt><trkpt lat="43.62851952607845" lon="11.854805338487381"><ele>302.6666666666667</ele><time>2026-04-25T08:27:22.965Z</time></trkpt><trkpt lat="43.62865758289003" lon="11.854949455525473"><ele>302.33333333333337</ele><time>2026-04-25T08:27:23.965Z</time></trkpt><trkpt lat="43.62881156204816" lon="11.855061879004108"><ele>302.0</ele><time>2026-04-25T08:27:24.965Z</time></trkpt><trkpt lat="43.62898120417858" lon="11.855151417916446"><ele>303.0</ele><time>2026-04-25T08:27:25.965Z</time></trkpt><trkpt lat="43.6291776875482" lon="11.855216324351497"><ele>304.0</ele><time>2026-04-25T08:27:26.965Z</time></trkpt><trkpt lat="43.629379496391955" lon="11.85528097394365"><ele>305.0</ele><time>2026-04-25T08:27:27.965Z</time></trkpt><trkpt lat="43.629573848301305" lon="11.855339113079838"><ele>305.0</ele><time>2026-04-25T08:27:28.965Z</time></trkpt><trkpt lat="43.62976880022409" lon="11.855387173930941"><ele>305.0</ele><time>2026-04-25T08:27:29.965Z</time></trkpt><trkpt lat="43.62997121081494" lon="11.855425785153745"><ele>305.0</ele><time>2026-04-25T08:27:30.965Z</time></trkpt><trkpt lat="43.63018065188048" lon="11.855419008828576"><ele>308.0</ele><time>2026-04-25T08:27:31.965Z</time></trkpt><trkpt lat="43.63039680332217" lon="11.855382904185758"><ele>311.0</ele><time>2026-04-25T08:27:32.965Z</time></trkpt><trkpt lat="43.63061464466689" lon="11.855330970861063"><ele>314.0</ele><time>2026-04-25T08:27:33.965Z</time></trkpt><trkpt lat="43.63083818607507" lon="11.85527492663144"><ele>314.0</ele><time>2026-04-25T08:27:34.965Z</time></trkpt><trkpt lat="43.631065450097786" lon="11.855220805197257"><ele>314.0</ele><time>2026-04-25T08:27:35.965Z</time></trkpt><trkpt lat="43.6312928191493" lon="11.855155027660173"><ele>306.0</ele><time>2026-04-25T08:27:36.965Z</time></trkpt><trkpt lat="43.63151847563576" lon="11.85507440895268"><ele>298.0</ele><time>2026-04-25T08:27:37.965Z</time></trkpt><trkpt lat="43.631733971338704" lon="11.854978752811382"><ele>298.0</ele><time>2026-04-25T08:27:38.965Z</time></trkpt><trkpt lat="43.631935703129095" lon="11.854864335495286"><ele>298.0</ele><time>2026-04-25T08:27:39.965Z</time></trkpt><trkpt lat="43.63213121553108" lon="11.854730486354097"><ele>298.0</ele><time>2026-04-25T08:27:40.965Z</time></trkpt><trkpt lat="43.63232015581302" lon="11.85457839246445"><ele>299.0</ele><time>2026-04-25T08:27:41.965Z</time></trkpt><trkpt lat="43.63250358890944" lon="11.854403193860469"><ele>300.0</ele><time>2026-04-25T08:27:42.965Z</time></trkpt><trkpt lat="43.63267939568151" lon="11.854210834243652"><ele>301.0</ele><time>2026-04-25T08:27:43.965Z</time></trkpt><trkpt lat="43.63285208663564" lon="11.853995364310382"><ele>308.0</ele><time>2026-04-25T08:27:44.965Z</time></trkpt><trkpt lat="43.633015003773494" lon="11.853762082943673"><ele>315.0</ele><time>2026-04-25T08:27:45.965Z</time></trkpt><trkpt lat="43.63316509684693" lon="11.853511946121259"><ele>309.5</ele><time>2026-04-25T08:27:46.965Z</time></trkpt><trkpt lat="43.63329444913434" lon="11.853251527737642"><ele>304.0</ele><time>2026-04-25T08:27:47.965Z</time></trkpt><trkpt lat="43.633414799176045" lon="11.852981899271644"><ele>304.0</ele><time>2026-04-25T08:27:48.965Z</time></trkpt><trkpt lat="43.633519174190624" lon="11.852693284018054"><ele>304.0</ele><time>2026-04-25T08:27:49.965Z</time></trkpt><trkpt lat="43.633605869395375" lon="11.852388145093038"><ele>307.5</ele><time>2026-04-25T08:27:50.965Z</time></trkpt><trkpt lat="43.633676405698786" lon="11.852071664593621"><ele>311.0</ele><time>2026-04-25T08:27:51.965Z</time></trkpt><trkpt lat="43.63372757432431" lon="11.85175529967766"><ele>311.0</ele><time>2026-04-25T08:27:52.965Z</time></trkpt><trkpt lat="43.63376161716992" lon="11.851434842336122"><ele>311.0</ele><time>2026-04-25T08:27:53.965Z</time></trkpt><trkpt lat="43.63377817666198" lon="11.851109045794413"><ele>311.0</ele><time>2026-04-25T08:27:54.965Z</time></trkpt><trkpt lat="43.633775444393756" lon="11.850777964904946"><ele>311.0</ele><time>2026-04-25T08:27:55.965Z</time></trkpt><trkpt lat="43.63375386535944" lon="11.850441332142834"><ele>311.5</ele><time>2026-04-25T08:27:56.965Z</time></trkpt><trkpt lat="43.6337168560951" lon="11.850107583443593"><ele>312.0</ele><time>2026-04-25T08:27:57.965Z</time></trkpt><trkpt lat="43.63367472646063" lon="11.849771659796975"><ele>304.0</ele><time>2026-04-25T08:27:58.965Z</time></trkpt><trkpt lat="43.63362452781267" lon="11.84943179818801"><ele>296.0</ele><time>2026-04-25T08:27:59.965Z</time></trkpt><trkpt lat="43.6335694744749" lon="11.849089279313732"><ele>296.0</ele><time>2026-04-25T08:28:00.965Z</time></trkpt><trkpt lat="43.63351039890573" lon="11.84874431708979"><ele>296.0</ele><time>2026-04-25T08:28:01.965Z</time></trkpt><trkpt lat="43.63345112439102" lon="11.848402856514577"><ele>297.5</ele><time>2026-04-25T08:28:02.965Z</time></trkpt><trkpt lat="43.63338521229305" lon="11.848064977359954"><ele>299.0</ele><time>2026-04-25T08:28:03.965Z</time></trkpt><trkpt lat="43.63331929695963" lon="11.84772691389913"><ele>300.0</ele><time>2026-04-25T08:28:04.965Z</time></trkpt><trkpt lat="43.63329123067962" lon="11.847374503166252"><ele>301.0</ele><time>2026-04-25T08:28:05.965Z</time></trkpt><trkpt lat="43.63323483576587" lon="11.84704021061021"><ele>301.5</ele><time>2026-04-25T08:28:06.964Z</time></trkpt><trkpt lat="43.63318152741962" lon="11.846712351593904"><ele>302.0</ele><time>2026-04-25T08:28:07.964Z</time></trkpt><trkpt lat="43.633132970885214" lon="11.84642265380245"><ele>302.0</ele><time>2026-04-25T08:28:08.964Z</time></trkpt><trkpt lat="43.633107571217884" lon="11.846163146652874"><ele>302.0</ele><time>2026-04-25T08:28:09.964Z</time></trkpt><trkpt lat="43.63307247203948" lon="11.84591401632792"><ele>302.0</ele><time>2026-04-25T08:28:10.964Z</time></trkpt><trkpt lat="43.63303115755549" lon="11.845659328876643"><ele>302.0</ele><time>2026-04-25T08:28:11.964Z</time></trkpt><trkpt lat="43.63300177411105" lon="11.845406409106648"><ele>302.0</ele><time>2026-04-25T08:28:12.964Z</time></trkpt><trkpt lat="43.632981684927515" lon="11.845162162340285"><ele>302.0</ele><time>2026-04-25T08:28:13.964Z</time></trkpt><trkpt lat="43.632971056984545" lon="11.844919035680684"><ele>302.0</ele><time>2026-04-25T08:28:14.964Z</time></trkpt><trkpt lat="43.632985217574216" lon="11.844668523030863"><ele>302.0</ele><time>2026-04-25T08:28:15.964Z</time></trkpt><trkpt lat="43.633027696359626" lon="11.844416652393404"><ele>302.0</ele><time>2026-04-25T08:28:16.964Z</time></trkpt><trkpt lat="43.633099392663155" lon="11.844178269194591"><ele>300.6666666666667</ele><time>2026-04-25T08:28:17.964Z</time></trkpt><trkpt lat="43.63318058549575" lon="11.843947430446491"><ele>299.3333333333333</ele><time>2026-04-25T08:28:18.964Z</time></trkpt><trkpt lat="43.63326828168414" lon="11.8437109681171"><ele>298.0</ele><time>2026-04-25T08:28:19.964Z</time></trkpt><trkpt lat="43.63336145254837" lon="11.843466293703543"><ele>298.0</ele><time>2026-04-25T08:28:20.964Z</time></trkpt><trkpt lat="43.63345191668467" lon="11.843221391864395"><ele>298.0</ele><time>2026-04-25T08:28:21.963Z</time></trkpt><trkpt lat="43.63353774347199" lon="11.842969359275713"><ele>298.0</ele><time>2026-04-25T08:28:22.963Z</time></trkpt><trkpt lat="43.63362110647578" lon="11.842712469039032"><ele>304.66666666666663</ele><time>2026-04-25T08:28:23.963Z</time></trkpt><trkpt lat="43.633708385101926" lon="11.84245754137396"><ele>311.3333333333333</ele><time>2026-04-25T08:28:24.963Z</time></trkpt><trkpt lat="43.63380282882673" lon="11.842200469013255"><ele>318.0</ele><time>2026-04-25T08:28:25.964Z</time></trkpt><trkpt lat="43.63389739346" lon="11.841946921237783"><ele>314.6666666666667</ele><time>2026-04-25T08:28:26.964Z</time></trkpt><trkpt lat="43.63398749422749" lon="11.841705647777028"><ele>311.33333333333337</ele><time>2026-04-25T08:28:27.963Z</time></trkpt><trkpt lat="43.634088609970014" lon="11.841487991755578"><ele>308.0</ele><time>2026-04-25T08:28:28.964Z</time></trkpt><trkpt lat="43.63421625484617" lon="11.84129320853794"><ele>308.0</ele><time>2026-04-25T08:28:29.964Z</time></trkpt><trkpt lat="43.6343584133799" lon="11.84109341705154"><ele>308.0</ele><time>2026-04-25T08:28:30.964Z</time></trkpt><trkpt lat="43.6345030400129" lon="11.840892816487356"><ele>308.0</ele><time>2026-04-25T08:28:31.963Z</time></trkpt><trkpt lat="43.63465720992156" lon="11.840688194872032"><ele>310.0</ele><time>2026-04-25T08:28:32.963Z</time></trkpt><trkpt lat="43.63480893777611" lon="11.840481183286647"><ele>312.0</ele><time>2026-04-25T08:28:33.963Z</time></trkpt><trkpt lat="43.634958719042366" lon="11.840269740111356"><ele>314.0</ele><time>2026-04-25T08:28:34.963Z</time></trkpt><trkpt lat="43.63511679142104" lon="11.840074332535549"><ele>314.0</ele><time>2026-04-25T08:28:35.963Z</time></trkpt><trkpt lat="43.63529391076318" lon="11.839912877979133"><ele>314.0</ele><time>2026-04-25T08:28:36.963Z</time></trkpt><trkpt lat="43.635475414457396" lon="11.839762830917632"><ele>314.0</ele><time>2026-04-25T08:28:37.963Z</time></trkpt><trkpt lat="43.63565741487006" lon="11.839623490267257"><ele>314.0</ele><time>2026-04-25T08:28:38.963Z</time></trkpt><trkpt lat="43.63585041386153" lon="11.839509641904357"><ele>314.0</ele><time>2026-04-25T08:28:39.963Z</time></trkpt><trkpt lat="43.63604784523011" lon="11.839417154683723"><ele>314.0</ele><time>2026-04-25T08:28:40.963Z</time></trkpt><trkpt lat="43.63624927052006" lon="11.83934180523898"><ele>310.33333333333337</ele><time>2026-04-25T08:28:41.963Z</time></trkpt><trkpt lat="43.63645565818189" lon="11.839280285281294"><ele>306.6666666666667</ele><time>2026-04-25T08:28:42.963Z</time></trkpt><trkpt lat="43.63666219789821" lon="11.839210643185124"><ele>303.0</ele><time>2026-04-25T08:28:43.963Z</time></trkpt><trkpt lat="43.63686671100306" lon="11.839135277444708"><ele>304.0</ele><time>2026-04-25T08:28:44.963Z</time></trkpt><trkpt lat="43.637064256454686" lon="11.839044125382676"><ele>305.0</ele><time>2026-04-25T08:28:45.963Z</time></trkpt><trkpt lat="43.637251639872204" lon="11.838953345964637"><ele>306.0</ele><time>2026-04-25T08:28:46.963Z</time></trkpt><trkpt lat="43.63742717870876" lon="11.838857925320777"><ele>306.0</ele><time>2026-04-25T08:28:47.963Z</time></trkpt><trkpt lat="43.637604760861485" lon="11.838749677060282"><ele>306.0</ele><time>2026-04-25T08:28:48.963Z</time></trkpt><trkpt lat="43.6377871283221" lon="11.838652258670143"><ele>306.0</ele><time>2026-04-25T08:28:49.963Z</time></trkpt><trkpt lat="43.6379730467203" lon="11.838570213949623"><ele>306.3333333333333</ele><time>2026-04-25T08:28:50.963Z</time></trkpt><trkpt lat="43.638156838567006" lon="11.838482679696158"><ele>306.66666666666663</ele><time>2026-04-25T08:28:51.963Z</time></trkpt><trkpt lat="43.638340856692295" lon="11.838396770467211"><ele>307.0</ele><time>2026-04-25T08:28:52.963Z</time></trkpt><trkpt lat="43.63852870097204" lon="11.838312751279343"><ele>304.66666666666663</ele><time>2026-04-25T08:28:53.963Z</time></trkpt><trkpt lat="43.63871533646355" lon="11.838230459130104"><ele>302.3333333333333</ele><time>2026-04-25T08:28:54.963Z</time></trkpt><trkpt lat="43.638904070326895" lon="11.838149132244313"><ele>300.0</ele><time>2026-04-25T08:28:55.963Z</time></trkpt><trkpt lat="43.63909236826533" lon="11.838066181058114"><ele>300.0</ele><time>2026-04-25T08:28:56.963Z</time></trkpt><trkpt lat="43.63927489630794" lon="11.837980087031664"><ele>300.0</ele><time>2026-04-25T08:28:57.963Z</time></trkpt><trkpt lat="43.63945603635071" lon="11.837891701059833"><ele>300.0</ele><time>2026-04-25T08:28:58.963Z</time></trkpt><trkpt lat="43.63963825933265" lon="11.837805677342805"><ele>300.6666666666667</ele><time>2026-04-25T08:28:59.963Z</time></trkpt><trkpt lat="43.639821659843264" lon="11.837730828308962"><ele>301.33333333333337</ele><time>2026-04-25T08:29:00.963Z</time></trkpt><trkpt lat="43.64000065657195" lon="11.83764945863699"><ele>302.0</ele><time>2026-04-25T08:29:01.963Z</time></trkpt><trkpt lat="43.64018132265783" lon="11.837570496332132"><ele>302.0</ele><time>2026-04-25T08:29:02.963Z</time></trkpt><trkpt lat="43.64035971488871" lon="11.837490436440737"><ele>302.0</ele><time>2026-04-25T08:29:03.963Z</time></trkpt><trkpt lat="43.64053719015876" lon="11.837409973019227"><ele>302.0</ele><time>2026-04-25T08:29:04.963Z</time></trkpt><trkpt lat="43.64071355372355" lon="11.837331590845539"><ele>302.0</ele><time>2026-04-25T08:29:05.963Z</time></trkpt><trkpt lat="43.64088786332046" lon="11.837250723990268"><ele>302.0</ele><time>2026-04-25T08:29:06.963Z</time></trkpt><trkpt lat="43.64105982565632" lon="11.837165961868163"><ele>302.0</ele><time>2026-04-25T08:29:07.963Z</time></trkpt><trkpt lat="43.64122414634815" lon="11.837065315601214"><ele>302.0</ele><time>2026-04-25T08:29:08.963Z</time></trkpt><trkpt lat="43.641385502282986" lon="11.836955945751065"><ele>302.0</ele><time>2026-04-25T08:29:09.963Z</time></trkpt><trkpt lat="43.64154757211729" lon="11.83683735989886"><ele>302.0</ele><time>2026-04-25T08:29:10.963Z</time></trkpt><trkpt lat="43.641711908812965" lon="11.836713174502062"><ele>302.0</ele><time>2026-04-25T08:29:11.962Z</time></trkpt><trkpt lat="43.641880592887254" lon="11.83659442594508"><ele>302.0</ele><time>2026-04-25T08:29:12.962Z</time></trkpt><trkpt lat="43.64204481331085" lon="11.836477193163713"><ele>302.0</ele><time>2026-04-25T08:29:13.962Z</time></trkpt><trkpt lat="43.64220609209152" lon="11.836354983086679"><ele>303.0</ele><time>2026-04-25T08:29:14.962Z</time></trkpt><trkpt lat="43.64236730552749" lon="11.836238692072682"><ele>304.0</ele><time>2026-04-25T08:29:15.962Z</time></trkpt><trkpt lat="43.64252689653908" lon="11.836117282961693"><ele>305.0</ele><time>2026-04-25T08:29:16.962Z</time></trkpt><trkpt lat="43.6426870152287" lon="11.835997869145979"><ele>304.6666666666667</ele><time>2026-04-25T08:29:17.962Z</time></trkpt><trkpt lat="43.64285447406308" lon="11.835884656452524"><ele>304.3333333333333</ele><time>2026-04-25T08:29:18.962Z</time></trkpt><trkpt lat="43.643029001355366" lon="11.835785122482038"><ele>304.0</ele><time>2026-04-25T08:29:19.962Z</time></trkpt><trkpt lat="43.64320800937032" lon="11.835682152270932"><ele>304.0</ele><time>2026-04-25T08:29:20.962Z</time></trkpt><trkpt lat="43.643387057362006" lon="11.8355760431209"><ele>304.0</ele><time>2026-04-25T08:29:21.962Z</time></trkpt><trkpt lat="43.643559112548154" lon="11.835475203064608"><ele>304.0</ele><time>2026-04-25T08:29:22.962Z</time></trkpt><trkpt lat="43.64372900328726" lon="11.835378425622567"><ele>305.3333333333333</ele><time>2026-04-25T08:29:23.962Z</time></trkpt><trkpt lat="43.643896024240455" lon="11.835288695748515"><ele>306.6666666666667</ele><time>2026-04-25T08:29:24.962Z</time></trkpt><trkpt lat="43.64406982913279" lon="11.835223252068042"><ele>308.0</ele><time>2026-04-25T08:29:25.962Z</time></trkpt><trkpt lat="43.64425417391028" lon="11.835186057719016"><ele>308.0</ele><time>2026-04-25T08:29:26.962Z</time></trkpt><trkpt lat="43.64444959809833" lon="11.83516812101744"><ele>308.0</ele><time>2026-04-25T08:29:27.962Z</time></trkpt><trkpt lat="43.644646971298116" lon="11.835150557509776"><ele>308.0</ele><time>2026-04-25T08:29:28.962Z</time></trkpt><trkpt lat="43.64484777998442" lon="11.835133149852497"><ele>306.6666666666667</ele><time>2026-04-25T08:29:29.962Z</time></trkpt><trkpt lat="43.64504814217344" lon="11.83511675684265"><ele>305.3333333333333</ele><time>2026-04-25T08:29:30.962Z</time></trkpt><trkpt lat="43.64525387035224" lon="11.835103251312336"><ele>304.0</ele><time>2026-04-25T08:29:31.962Z</time></trkpt><trkpt lat="43.645468184079206" lon="11.835089003258297"><ele>304.0</ele><time>2026-04-25T08:29:32.962Z</time></trkpt><trkpt lat="43.64568400552804" lon="11.835070589827392"><ele>304.0</ele><time>2026-04-25T08:29:33.962Z</time></trkpt><trkpt lat="43.64590088304533" lon="11.835059027126679"><ele>304.0</ele><time>2026-04-25T08:29:34.962Z</time></trkpt><trkpt lat="43.646115309095585" lon="11.835040699763681"><ele>302.66666666666663</ele><time>2026-04-25T08:29:35.962Z</time></trkpt><trkpt lat="43.64633038097556" lon="11.835022545444108"><ele>301.3333333333333</ele><time>2026-04-25T08:29:36.962Z</time></trkpt><trkpt lat="43.64654561997376" lon="11.835006937338719"><ele>300.0</ele><time>2026-04-25T08:29:37.962Z</time></trkpt><trkpt lat="43.64676041734774" lon="11.834987047804274"><ele>300.6666666666667</ele><time>2026-04-25T08:29:38.962Z</time></trkpt><trkpt lat="43.64697453790483" lon="11.834968650895147"><ele>301.33333333333337</ele><time>2026-04-25T08:29:39.962Z</time></trkpt><trkpt lat="43.64718729823481" lon="11.83495369816919"><ele>302.0</ele><time>2026-04-25T08:29:40.962Z</time></trkpt><trkpt lat="43.64739694259155" lon="11.834933009256472"><ele>302.0</ele><time>2026-04-25T08:29:41.962Z</time></trkpt><trkpt lat="43.64759856235034" lon="11.834911076072354"><ele>302.0</ele><time>2026-04-25T08:29:42.962Z</time></trkpt><trkpt lat="43.647799596730444" lon="11.83489231516685"><ele>302.0</ele><time>2026-04-25T08:29:43.962Z</time></trkpt><trkpt lat="43.647994395566016" lon="11.834869237946686"><ele>302.6666666666667</ele><time>2026-04-25T08:29:44.962Z</time></trkpt><trkpt lat="43.64819184976956" lon="11.834842945839723"><ele>303.3333333333333</ele><time>2026-04-25T08:29:45.962Z</time></trkpt><trkpt lat="43.64838822009703" lon="11.834815236963479"><ele>304.0</ele><time>2026-04-25T08:29:46.962Z</time></trkpt><trkpt lat="43.64858195960131" lon="11.834787479881795"><ele>304.0</ele><time>2026-04-25T08:29:47.962Z</time></trkpt><trkpt lat="43.648770137239566" lon="11.83475910688573"><ele>304.0</ele><time>2026-04-25T08:29:48.962Z</time></trkpt><trkpt lat="43.64894962509896" lon="11.834735687581151"><ele>304.0</ele><time>2026-04-25T08:29:49.962Z</time></trkpt><trkpt lat="43.64913128267579" lon="11.834718398600947"><ele>304.0</ele><time>2026-04-25T08:29:50.962Z</time></trkpt><trkpt lat="43.64930601493375" lon="11.834699772522846"><ele>304.0</ele><time>2026-04-25T08:29:51.962Z</time></trkpt><trkpt lat="43.64947697887045" lon="11.834690815681524"><ele>304.0</ele><time>2026-04-25T08:29:52.962Z</time></trkpt><trkpt lat="43.64963771977258" lon="11.834680693425595"><ele>304.0</ele><time>2026-04-25T08:29:53.962Z</time></trkpt><trkpt lat="43.64979320773058" lon="11.834679131554932"><ele>304.0</ele><time>2026-04-25T08:29:54.962Z</time></trkpt><trkpt lat="43.64995413632734" lon="11.834697524056272"><ele>304.0</ele><time>2026-04-25T08:29:55.962Z</time></trkpt><trkpt lat="43.65011927314831" lon="11.834737640686276"><ele>304.0</ele><time>2026-04-25T08:29:56.962Z</time></trkpt><trkpt lat="43.65027557732844" lon="11.834794287037521"><ele>304.0</ele><time>2026-04-25T08:29:57.962Z</time></trkpt><trkpt lat="43.65042161189092" lon="11.834854948369424"><ele>304.0</ele><time>2026-04-25T08:29:58.962Z</time></trkpt><trkpt lat="43.65056724767421" lon="11.83491568322839"><ele>303.75</ele><time>2026-04-25T08:29:59.962Z</time></trkpt><trkpt lat="43.65069615171933" lon="11.834976838541117"><ele>303.5</ele><time>2026-04-25T08:30:00.962Z</time></trkpt><trkpt lat="43.65081671392904" lon="11.83502847556328"><ele>303.25</ele><time>2026-04-25T08:30:01.962Z</time></trkpt><trkpt lat="43.65091627424037" lon="11.835064519823646"><ele>303.0</ele><time>2026-04-25T08:30:02.962Z</time></trkpt><trkpt lat="43.651010301135436" lon="11.835102348782316"><ele>303.0</ele><time>2026-04-25T08:30:03.962Z</time></trkpt><trkpt lat="43.65109146039296" lon="11.835134461318484"><ele>303.0</ele><time>2026-04-25T08:30:04.962Z</time></trkpt><trkpt lat="43.65115732589558" lon="11.835163428371194"><ele>303.0</ele><time>2026-04-25T08:30:05.962Z</time></trkpt><trkpt lat="43.651225019380156" lon="11.83519256200322"><ele>303.0</ele><time>2026-04-25T08:30:06.962Z</time></trkpt><trkpt lat="43.651284486666896" lon="11.835221513856554"><ele>303.0</ele><time>2026-04-25T08:30:07.961Z</time></trkpt><trkpt lat="43.65138675294759" lon="11.835295038462995"><ele>303.0</ele><time>2026-04-25T08:30:09.961Z</time></trkpt><trkpt lat="43.65150431540373" lon="11.835326652782754"><ele>303.6</ele><time>2026-04-25T08:30:11.961Z</time></trkpt><trkpt lat="43.651604978211274" lon="11.83538470923086"><ele>304.20000000000005</ele><time>2026-04-25T08:30:13.961Z</time></trkpt><trkpt lat="43.65170409029462" lon="11.83543158381907"><ele>304.8</ele><time>2026-04-25T08:30:15.961Z</time></trkpt><trkpt lat="43.65182167039029" lon="11.83552494182154"><ele>305.40000000000003</ele><time>2026-04-25T08:30:17.961Z</time></trkpt><trkpt lat="43.65190585726979" lon="11.835550210241651"><ele>306.0</ele><time>2026-04-25T08:30:18.961Z</time></trkpt><trkpt lat="43.651993874801335" lon="11.835567165399187"><ele>306.40000000000003</ele><time>2026-04-25T08:30:19.961Z</time></trkpt><trkpt lat="43.65207216241787" lon="11.835596787368177"><ele>306.8</ele><time>2026-04-25T08:30:20.961Z</time></trkpt><trkpt lat="43.65214209916204" lon="11.835625021691966"><ele>307.20000000000005</ele><time>2026-04-25T08:30:21.961Z</time></trkpt><trkpt lat="43.652235266692536" lon="11.835671746633341"><ele>307.6</ele><time>2026-04-25T08:30:22.961Z</time></trkpt><trkpt lat="43.652324870670235" lon="11.83571633493036"><ele>308.0</ele><time>2026-04-25T08:30:23.961Z</time></trkpt><trkpt lat="43.65242534508451" lon="11.835773229434308"><ele>308.0</ele><time>2026-04-25T08:30:24.96Z</time></trkpt><trkpt lat="43.65254004525014" lon="11.83583667508296"><ele>308.0</ele><time>2026-04-25T08:30:25.96Z</time></trkpt><trkpt lat="43.652665364172655" lon="11.83593100985493"><ele>308.0</ele><time>2026-04-25T08:30:26.96Z</time></trkpt><trkpt lat="43.652809387946206" lon="11.836062609146259"><ele>308.0</ele><time>2026-04-25T08:30:27.96Z</time></trkpt><trkpt lat="43.65295801980925" lon="11.836175109485735"><ele>307.0</ele><time>2026-04-25T08:30:28.96Z</time></trkpt><trkpt lat="43.65308340471681" lon="11.836301948317734"><ele>306.0</ele><time>2026-04-25T08:30:29.96Z</time></trkpt><trkpt lat="43.653222689399975" lon="11.83643798577239"><ele>305.0</ele><time>2026-04-25T08:30:30.96Z</time></trkpt><trkpt lat="43.653361806617376" lon="11.836571130287611"><ele>305.0</ele><time>2026-04-25T08:30:31.96Z</time></trkpt><trkpt lat="43.653492249149785" lon="11.836691238216805"><ele>305.0</ele><time>2026-04-25T08:30:32.96Z</time></trkpt><trkpt lat="43.65360944132653" lon="11.836804105995103"><ele>305.0</ele><time>2026-04-25T08:30:33.96Z</time></trkpt><trkpt lat="43.653715098440586" lon="11.83690208481619"><ele>305.0</ele><time>2026-04-25T08:30:34.96Z</time></trkpt><trkpt lat="43.65380662841044" lon="11.83699365398432"><ele>305.0</ele><time>2026-04-25T08:30:35.96Z</time></trkpt><trkpt lat="43.65388789524429" lon="11.837074913525704"><ele>305.0</ele><time>2026-04-25T08:30:36.96Z</time></trkpt><trkpt lat="43.6539710742702" lon="11.837151424604707"><ele>305.0</ele><time>2026-04-25T08:30:37.96Z</time></trkpt><trkpt lat="43.6540434349675" lon="11.837224044806579"><ele>305.0</ele><time>2026-04-25T08:30:38.96Z</time></trkpt><trkpt lat="43.6541191848888" lon="11.837302272594869"><ele>305.0</ele><time>2026-04-25T08:30:39.96Z</time></trkpt><trkpt lat="43.654205117033776" lon="11.83738462231898"><ele>305.0</ele><time>2026-04-25T08:30:40.96Z</time></trkpt><trkpt lat="43.65430478648023" lon="11.83748368677983"><ele>305.0</ele><time>2026-04-25T08:30:41.96Z</time></trkpt><trkpt lat="43.654415079802305" lon="11.837594695298"><ele>305.0</ele><time>2026-04-25T08:30:42.96Z</time></trkpt><trkpt lat="43.65452507209605" lon="11.837733536800696"><ele>305.0</ele><time>2026-04-25T08:30:43.96Z</time></trkpt><trkpt lat="43.65466656616569" lon="11.837854789361957"><ele>305.0</ele><time>2026-04-25T08:30:44.96Z</time></trkpt><trkpt lat="43.654822746692396" lon="11.837973835075374"><ele>305.0</ele><time>2026-04-25T08:30:45.96Z</time></trkpt><trkpt lat="43.654983934789456" lon="11.838086656645183"><ele>305.0</ele><time>2026-04-25T08:30:46.96Z</time></trkpt><trkpt lat="43.655142861230104" lon="11.838196455742532"><ele>304.6666666666667</ele><time>2026-04-25T08:30:47.96Z</time></trkpt><trkpt lat="43.65529664044046" lon="11.838299788372336"><ele>304.3333333333333</ele><time>2026-04-25T08:30:48.96Z</time></trkpt><trkpt lat="43.65544603168444" lon="11.838399524475525"><ele>304.0</ele><time>2026-04-25T08:30:49.96Z</time></trkpt><trkpt lat="43.65559038464971" lon="11.83849589693371"><ele>306.3333333333333</ele><time>2026-04-25T08:30:50.96Z</time></trkpt><trkpt lat="43.655734954192454" lon="11.838592571904572"><ele>308.6666666666667</ele><time>2026-04-25T08:30:51.959Z</time></trkpt><trkpt lat="43.65587545656002" lon="11.83868495739268"><ele>311.0</ele><time>2026-04-25T08:30:52.959Z</time></trkpt><trkpt lat="43.65601779218405" lon="11.838778549957317"><ele>310.6666666666667</ele><time>2026-04-25T08:30:53.959Z</time></trkpt><trkpt lat="43.65616035339981" lon="11.838872289258477"><ele>310.3333333333333</ele><time>2026-04-25T08:30:54.959Z</time></trkpt><trkpt lat="43.656302229157916" lon="11.838961792579308"><ele>310.0</ele><time>2026-04-25T08:30:55.959Z</time></trkpt><trkpt lat="43.65644363808835" lon="11.83904395538917"><ele>310.0</ele><time>2026-04-25T08:30:56.959Z</time></trkpt><trkpt lat="43.65659618192055" lon="11.839115031314934"><ele>310.0</ele><time>2026-04-25T08:30:57.959Z</time></trkpt><trkpt lat="43.65674851191768" lon="11.83915759388742"><ele>310.0</ele><time>2026-04-25T08:30:58.959Z</time></trkpt><trkpt lat="43.65690940989696" lon="11.839168630985803"><ele>309.0</ele><time>2026-04-25T08:30:59.959Z</time></trkpt><trkpt lat="43.657066439464565" lon="11.839202260928369"><ele>308.0</ele><time>2026-04-25T08:31:00.959Z</time></trkpt><trkpt lat="43.65722288614787" lon="11.839228486075895"><ele>307.0</ele><time>2026-04-25T08:31:01.959Z</time></trkpt><trkpt lat="43.65737144591451" lon="11.83926020882197"><ele>307.0</ele><time>2026-04-25T08:31:02.959Z</time></trkpt><trkpt lat="43.65751218389803" lon="11.839290814279213"><ele>307.0</ele><time>2026-04-25T08:31:03.959Z</time></trkpt><trkpt lat="43.65763723351881" lon="11.839313879596416"><ele>307.0</ele><time>2026-04-25T08:31:04.959Z</time></trkpt><trkpt lat="43.65775586877609" lon="11.83936088555252"><ele>307.0</ele><time>2026-04-25T08:31:05.959Z</time></trkpt><trkpt lat="43.65787005814955" lon="11.8393840454047"><ele>310.25</ele><time>2026-04-25T08:31:06.959Z</time></trkpt><trkpt lat="43.65799135391766" lon="11.839405159549967"><ele>313.5</ele><time>2026-04-25T08:31:07.959Z</time></trkpt><trkpt lat="43.658100837195015" lon="11.839425315990526"><ele>316.75</ele><time>2026-04-25T08:31:08.959Z</time></trkpt><trkpt lat="43.658213847237676" lon="11.839441336593529"><ele>320.0</ele><time>2026-04-25T08:31:09.959Z</time></trkpt><trkpt lat="43.658346313942815" lon="11.839455842435617"><ele>320.0</ele><time>2026-04-25T08:31:10.959Z</time></trkpt><trkpt lat="43.658492686569815" lon="11.839460270794039"><ele>320.0</ele><time>2026-04-25T08:31:11.959Z</time></trkpt><trkpt lat="43.65865856585218" lon="11.839447738164752"><ele>320.0</ele><time>2026-04-25T08:31:12.959Z</time></trkpt><trkpt lat="43.6588380811519" lon="11.83942274498238"><ele>320.6666666666667</ele><time>2026-04-25T08:31:13.959Z</time></trkpt><trkpt lat="43.65903716505831" lon="11.839389916679075"><ele>321.3333333333333</ele><time>2026-04-25T08:31:14.959Z</time></trkpt><trkpt lat="43.65923721443273" lon="11.839357302493394"><ele>322.0</ele><time>2026-04-25T08:31:15.959Z</time></trkpt><trkpt lat="43.65942154350411" lon="11.839342739581353"><ele>321.66666666666663</ele><time>2026-04-25T08:31:16.959Z</time></trkpt><trkpt lat="43.65959374432513" lon="11.839342924252136"><ele>321.3333333333333</ele><time>2026-04-25T08:31:17.959Z</time></trkpt><trkpt lat="43.659768619993926" lon="11.839356540751298"><ele>321.0</ele><time>2026-04-25T08:31:18.959Z</time></trkpt><trkpt lat="43.65994141283939" lon="11.83938865097796"><ele>321.0</ele><time>2026-04-25T08:31:19.959Z</time></trkpt><trkpt lat="43.660112292635205" lon="11.83944157605055"><ele>321.0</ele><time>2026-04-25T08:31:20.959Z</time></trkpt><trkpt lat="43.660279335704665" lon="11.83950118372778"><ele>321.0</ele><time>2026-04-25T08:31:21.959Z</time></trkpt><trkpt lat="43.66044609847117" lon="11.83957457094565"><ele>318.3333333333333</ele><time>2026-04-25T08:31:22.959Z</time></trkpt><trkpt lat="43.66060304085949" lon="11.83966157498006"><ele>315.66666666666663</ele><time>2026-04-25T08:31:23.959Z</time></trkpt><trkpt lat="43.660746966946874" lon="11.839762959847453"><ele>313.0</ele><time>2026-04-25T08:31:24.959Z</time></trkpt><trkpt lat="43.660887286053566" lon="11.83986977195938"><ele>313.0</ele><time>2026-04-25T08:31:25.959Z</time></trkpt><trkpt lat="43.66102994875001" lon="11.83997328316016"><ele>313.0</ele><time>2026-04-25T08:31:26.959Z</time></trkpt><trkpt lat="43.66117192686338" lon="11.840078036633981"><ele>313.0</ele><time>2026-04-25T08:31:27.959Z</time></trkpt><trkpt lat="43.661317635951114" lon="11.84017506437576"><ele>319.0</ele><time>2026-04-25T08:31:28.959Z</time></trkpt><trkpt lat="43.66147042908646" lon="11.84026125335437"><ele>325.0</ele><time>2026-04-25T08:31:29.959Z</time></trkpt><trkpt lat="43.661617572625524" lon="11.840336795097445"><ele>331.0</ele><time>2026-04-25T08:31:30.959Z</time></trkpt><trkpt lat="43.66176601646519" lon="11.840400973276337"><ele>331.0</ele><time>2026-04-25T08:31:31.959Z</time></trkpt><trkpt lat="43.661908137893285" lon="11.840451908206894"><ele>331.0</ele><time>2026-04-25T08:31:32.959Z</time></trkpt><trkpt lat="43.66205797040446" lon="11.840495198712237"><ele>331.0</ele><time>2026-04-25T08:31:33.959Z</time></trkpt><trkpt lat="43.662205969893044" lon="11.840551818332413"><ele>332.0</ele><time>2026-04-25T08:31:34.959Z</time></trkpt><trkpt lat="43.66236195989238" lon="11.840573084035434"><ele>333.0</ele><time>2026-04-25T08:31:35.959Z</time></trkpt><trkpt lat="43.662517325870645" lon="11.840591493351788"><ele>334.0</ele><time>2026-04-25T08:31:36.959Z</time></trkpt><trkpt lat="43.6626722867263" lon="11.840608341253201"><ele>333.66666666666663</ele><time>2026-04-25T08:31:37.959Z</time></trkpt><trkpt lat="43.66282393641024" lon="11.840621122452976"><ele>333.3333333333333</ele><time>2026-04-25T08:31:38.959Z</time></trkpt><trkpt lat="43.66297349191278" lon="11.84063546423334"><ele>333.0</ele><time>2026-04-25T08:31:39.959Z</time></trkpt><trkpt lat="43.66312327648841" lon="11.84064832130794"><ele>333.0</ele><time>2026-04-25T08:31:40.959Z</time></trkpt><trkpt lat="43.663278496370076" lon="11.840655763779443"><ele>333.0</ele><time>2026-04-25T08:31:41.959Z</time></trkpt><trkpt lat="43.663426761593186" lon="11.840667765354576"><ele>333.0</ele><time>2026-04-25T08:31:42.959Z</time></trkpt><trkpt lat="43.66357569594032" lon="11.84067649440765"><ele>334.25</ele><time>2026-04-25T08:31:43.959Z</time></trkpt><trkpt lat="43.66372553249135" lon="11.840686924655566"><ele>335.5</ele><time>2026-04-25T08:31:44.959Z</time></trkpt><trkpt lat="43.66387161033216" lon="11.840699673688666"><ele>336.75</ele><time>2026-04-25T08:31:45.959Z</time></trkpt><trkpt lat="43.664017840301554" lon="11.840717825019075"><ele>338.0</ele><time>2026-04-25T08:31:46.959Z</time></trkpt><trkpt lat="43.66416882759625" lon="11.840726889673759"><ele>338.0</ele><time>2026-04-25T08:31:47.959Z</time></trkpt><trkpt lat="43.664311658808515" lon="11.840740998994656"><ele>338.0</ele><time>2026-04-25T08:31:48.959Z</time></trkpt><trkpt lat="43.6644543674336" lon="11.840754249857252"><ele>338.0</ele><time>2026-04-25T08:31:49.959Z</time></trkpt><trkpt lat="43.66458916036979" lon="11.840772081566497"><ele>338.0</ele><time>2026-04-25T08:31:50.958Z</time></trkpt><trkpt lat="43.66472241871031" lon="11.840767054435686"><ele>338.25</ele><time>2026-04-25T08:31:51.958Z</time></trkpt><trkpt lat="43.66486128054492" lon="11.840751838651732"><ele>338.5</ele><time>2026-04-25T08:31:52.958Z</time></trkpt><trkpt lat="43.664993813216704" lon="11.84071024417247"><ele>338.75</ele><time>2026-04-25T08:31:53.958Z</time></trkpt><trkpt lat="43.66511853364599" lon="11.840648217550484"><ele>339.0</ele><time>2026-04-25T08:31:54.958Z</time></trkpt><trkpt lat="43.6652291299255" lon="11.8405877607364"><ele>341.75</ele><time>2026-04-25T08:31:55.958Z</time></trkpt><trkpt lat="43.66533930847366" lon="11.840520451113909"><ele>344.5</ele><time>2026-04-25T08:31:56.958Z</time></trkpt><trkpt lat="43.6654552732121" lon="11.840465375984786"><ele>347.25</ele><time>2026-04-25T08:31:57.958Z</time></trkpt><trkpt lat="43.66557827007686" lon="11.8404404423131"><ele>350.0</ele><time>2026-04-25T08:31:58.958Z</time></trkpt><trkpt lat="43.66571499006352" lon="11.840448476886415"><ele>350.0</ele><time>2026-04-25T08:31:59.958Z</time></trkpt><trkpt lat="43.66585644929044" lon="11.840458613457997"><ele>350.0</ele><time>2026-04-25T08:32:00.958Z</time></trkpt><trkpt lat="43.66599962562735" lon="11.840470507170348"><ele>350.0</ele><time>2026-04-25T08:32:01.958Z</time></trkpt><trkpt lat="43.66614240132187" lon="11.84048376337694"><ele>350.0</ele><time>2026-04-25T08:32:02.958Z</time></trkpt><trkpt lat="43.666280036435786" lon="11.840489881327933"><ele>351.0</ele><time>2026-04-25T08:32:03.958Z</time></trkpt><trkpt lat="43.6664244036219" lon="11.840501383498932"><ele>352.0</ele><time>2026-04-25T08:32:04.958Z</time></trkpt><trkpt lat="43.6665664587995" lon="11.84051120106693"><ele>353.0</ele><time>2026-04-25T08:32:05.958Z</time></trkpt><trkpt lat="43.66670206970769" lon="11.840521371289954"><ele>354.0</ele><time>2026-04-25T08:32:06.958Z</time></trkpt><trkpt lat="43.666840162454626" lon="11.840508759780793"><ele>357.0</ele><time>2026-04-25T08:32:07.958Z</time></trkpt><trkpt lat="43.666976279446416" lon="11.840479704604194"><ele>360.0</ele><time>2026-04-25T08:32:08.958Z</time></trkpt><trkpt lat="43.66712581290402" lon="11.840439294274834"><ele>363.0</ele><time>2026-04-25T08:32:09.958Z</time></trkpt><trkpt lat="43.667271999133966" lon="11.840360238218084"><ele>366.0</ele><time>2026-04-25T08:32:10.958Z</time></trkpt><trkpt lat="43.667405777857184" lon="11.840268092104623"><ele>366.0</ele><time>2026-04-25T08:32:11.958Z</time></trkpt><trkpt lat="43.6675322530198" lon="11.84016880693849"><ele>366.0</ele><time>2026-04-25T08:32:12.958Z</time></trkpt><trkpt lat="43.667655389205784" lon="11.840065241952269"><ele>366.0</ele><time>2026-04-25T08:32:13.958Z</time></trkpt><trkpt lat="43.667776111046024" lon="11.839961387986408"><ele>366.0</ele><time>2026-04-25T08:32:14.958Z</time></trkpt><trkpt lat="43.667897933968774" lon="11.839857374007186"><ele>361.3333333333333</ele><time>2026-04-25T08:32:15.958Z</time></trkpt><trkpt lat="43.668030559512445" lon="11.839749183613302"><ele>356.66666666666663</ele><time>2026-04-25T08:32:16.958Z</time></trkpt><trkpt lat="43.66815977982128" lon="11.83964377110415"><ele>352.0</ele><time>2026-04-25T08:32:17.958Z</time></trkpt><trkpt lat="43.66829229569816" lon="11.839540717774033"><ele>352.0</ele><time>2026-04-25T08:32:18.958Z</time></trkpt><trkpt lat="43.66842589213307" lon="11.839448710946156"><ele>352.0</ele><time>2026-04-25T08:32:19.958Z</time></trkpt><trkpt lat="43.6685674720618" lon="11.839358599868541"><ele>352.0</ele><time>2026-04-25T08:32:20.958Z</time></trkpt><trkpt lat="43.668700601524094" lon="11.839279182672426"><ele>348.40000000000003</ele><time>2026-04-25T08:32:21.958Z</time></trkpt><trkpt lat="43.66880999035734" lon="11.839213927789963"><ele>344.8</ele><time>2026-04-25T08:32:22.958Z</time></trkpt><trkpt lat="43.668907869004464" lon="11.839157698908927"><ele>341.2</ele><time>2026-04-25T08:32:23.958Z</time></trkpt><trkpt lat="43.669003350332716" lon="11.839102815922185"><ele>337.6</ele><time>2026-04-25T08:32:24.958Z</time></trkpt><trkpt lat="43.66909824833439" lon="11.839048268244944"><ele>334.0</ele><time>2026-04-25T08:32:25.958Z</time></trkpt><trkpt lat="43.66920012348663" lon="11.8389897101204"><ele>334.0</ele><time>2026-04-25T08:32:26.958Z</time></trkpt><trkpt lat="43.669307628067244" lon="11.838927426717483"><ele>334.0</ele><time>2026-04-25T08:32:27.958Z</time></trkpt><trkpt lat="43.66941837904522" lon="11.838863070246802"><ele>334.0</ele><time>2026-04-25T08:32:28.958Z</time></trkpt><trkpt lat="43.66953153987029" lon="11.838797313347284"><ele>334.0</ele><time>2026-04-25T08:32:29.958Z</time></trkpt><trkpt lat="43.669649888923175" lon="11.83872854170906"><ele>337.0</ele><time>2026-04-25T08:32:30.958Z</time></trkpt><trkpt lat="43.66976743457998" lon="11.838641325842195"><ele>340.0</ele><time>2026-04-25T08:32:31.957Z</time></trkpt><trkpt lat="43.66989996084674" lon="11.838589240715672"><ele>343.0</ele><time>2026-04-25T08:32:32.957Z</time></trkpt><trkpt lat="43.67003165459817" lon="11.838520774268064"><ele>346.0</ele><time>2026-04-25T08:32:33.957Z</time></trkpt><trkpt lat="43.67016224216672" lon="11.83844943251349"><ele>344.25</ele><time>2026-04-25T08:32:34.957Z</time></trkpt><trkpt lat="43.67029484281423" lon="11.838374010572858"><ele>342.5</ele><time>2026-04-25T08:32:35.957Z</time></trkpt><trkpt lat="43.67042907581969" lon="11.838294936034385"><ele>340.75</ele><time>2026-04-25T08:32:36.957Z</time></trkpt><trkpt lat="43.67056543174348" lon="11.838211522070415"><ele>339.0</ele><time>2026-04-25T08:32:37.957Z</time></trkpt><trkpt lat="43.6707035609809" lon="11.838125106836014"><ele>339.0</ele><time>2026-04-25T08:32:38.957Z</time></trkpt><trkpt lat="43.67083650454154" lon="11.83804734303091"><ele>339.0</ele><time>2026-04-25T08:32:39.957Z</time></trkpt><trkpt lat="43.67096438046728" lon="11.837967311946784"><ele>339.0</ele><time>2026-04-25T08:32:40.958Z</time></trkpt><trkpt lat="43.67108589838617" lon="11.837888092219565"><ele>339.0</ele><time>2026-04-25T08:32:41.958Z</time></trkpt><trkpt lat="43.67120392648745" lon="11.83779799466499"><ele>336.5</ele><time>2026-04-25T08:32:42.958Z</time></trkpt><trkpt lat="43.67131964013446" lon="11.8376925242174"><ele>334.0</ele><time>2026-04-25T08:32:43.957Z</time></trkpt><trkpt lat="43.671414216215865" lon="11.837548861033106"><ele>331.5</ele><time>2026-04-25T08:32:44.957Z</time></trkpt><trkpt lat="43.671485787109916" lon="11.837392621538175"><ele>329.0</ele><time>2026-04-25T08:32:45.957Z</time></trkpt><trkpt lat="43.6715623566043" lon="11.837243974763929"><ele>329.0</ele><time>2026-04-25T08:32:46.957Z</time></trkpt><trkpt lat="43.671635993240386" lon="11.83709362385138"><ele>329.0</ele><time>2026-04-25T08:32:47.957Z</time></trkpt><trkpt lat="43.671715424561214" lon="11.83694480013506"><ele>329.0</ele><time>2026-04-25T08:32:48.957Z</time></trkpt><trkpt lat="43.67179516266202" lon="11.83679508059513"><ele>329.0</ele><time>2026-04-25T08:32:49.957Z</time></trkpt><trkpt lat="43.67188032347987" lon="11.83664596862564"><ele>329.75</ele><time>2026-04-25T08:32:50.957Z</time></trkpt><trkpt lat="43.67196421486238" lon="11.836487464176185"><ele>330.5</ele><time>2026-04-25T08:32:51.957Z</time></trkpt><trkpt lat="43.67204704014077" lon="11.836325297580196"><ele>331.25</ele><time>2026-04-25T08:32:52.957Z</time></trkpt><trkpt lat="43.672128234978636" lon="11.83616800556602"><ele>332.0</ele><time>2026-04-25T08:32:53.957Z</time></trkpt><trkpt lat="43.67220953381443" lon="11.836018468308417"><ele>330.0</ele><time>2026-04-25T08:32:54.957Z</time></trkpt><trkpt lat="43.67228789797271" lon="11.835869305019855"><ele>328.0</ele><time>2026-04-25T08:32:55.957Z</time></trkpt><trkpt lat="43.67236514353814" lon="11.835717459275623"><ele>326.0</ele><time>2026-04-25T08:32:56.957Z</time></trkpt><trkpt lat="43.672442757828314" lon="11.835573543647664"><ele>324.0</ele><time>2026-04-25T08:32:57.957Z</time></trkpt><trkpt lat="43.67252310771581" lon="11.835430520501227"><ele>324.0</ele><time>2026-04-25T08:32:58.957Z</time></trkpt><trkpt lat="43.67260198541178" lon="11.835298911996052"><ele>324.0</ele><time>2026-04-25T08:32:59.957Z</time></trkpt><trkpt lat="43.67268381581927" lon="11.835170713262624"><ele>324.0</ele><time>2026-04-25T08:33:00.957Z</time></trkpt><trkpt lat="43.672765949757476" lon="11.835047640745556"><ele>324.0</ele><time>2026-04-25T08:33:01.957Z</time></trkpt><trkpt lat="43.67286663089765" lon="11.83494642561316"><ele>325.25</ele><time>2026-04-25T08:33:02.957Z</time></trkpt><trkpt lat="43.6729530344408" lon="11.834836495011531"><ele>326.5</ele><time>2026-04-25T08:33:03.957Z</time></trkpt><trkpt lat="43.67304269994819" lon="11.834727880152894"><ele>327.75</ele><time>2026-04-25T08:33:04.957Z</time></trkpt><trkpt lat="43.67313877321452" lon="11.83462001055228"><ele>329.0</ele><time>2026-04-25T08:33:05.957Z</time></trkpt><trkpt lat="43.67323868938592" lon="11.834518870344903"><ele>329.0</ele><time>2026-04-25T08:33:06.957Z</time></trkpt><trkpt lat="43.67334207623553" lon="11.834411783671074"><ele>329.0</ele><time>2026-04-25T08:33:07.957Z</time></trkpt><trkpt lat="43.67344543821504" lon="11.834304211941081"><ele>329.0</ele><time>2026-04-25T08:33:08.957Z</time></trkpt><trkpt lat="43.67355870418687" lon="11.834209060208636"><ele>329.0</ele><time>2026-04-25T08:33:09.957Z</time></trkpt><trkpt lat="43.673670662322955" lon="11.834112240347707"><ele>328.75</ele><time>2026-04-25T08:33:10.957Z</time></trkpt><trkpt lat="43.67378431192969" lon="11.834021364810855"><ele>328.5</ele><time>2026-04-25T08:33:11.957Z</time></trkpt><trkpt lat="43.67390603608995" lon="11.833921730714565"><ele>328.25</ele><time>2026-04-25T08:33:12.957Z</time></trkpt><trkpt lat="43.674026057078216" lon="11.833817011778736"><ele>328.0</ele><time>2026-04-25T08:33:13.957Z</time></trkpt><trkpt lat="43.67414544832272" lon="11.833707972722767"><ele>328.0</ele><time>2026-04-25T08:33:14.957Z</time></trkpt><trkpt lat="43.67426953909711" lon="11.83359624553103"><ele>328.0</ele><time>2026-04-25T08:33:15.957Z</time></trkpt><trkpt lat="43.674396141097965" lon="11.83347628794452"><ele>328.0</ele><time>2026-04-25T08:33:16.957Z</time></trkpt><trkpt lat="43.67452586310785" lon="11.833351682803455"><ele>328.66666666666663</ele><time>2026-04-25T08:33:17.957Z</time></trkpt><trkpt lat="43.67465195605352" lon="11.83323352360835"><ele>329.3333333333333</ele><time>2026-04-25T08:33:18.957Z</time></trkpt><trkpt lat="43.6747795078766" lon="11.833108446715933"><ele>330.0</ele><time>2026-04-25T08:33:19.957Z</time></trkpt><trkpt lat="43.67490195292754" lon="11.832988943964388"><ele>330.0</ele><time>2026-04-25T08:33:20.957Z</time></trkpt><trkpt lat="43.67502118112046" lon="11.832880711600604"><ele>330.0</ele><time>2026-04-25T08:33:21.957Z</time></trkpt><trkpt lat="43.67514152134263" lon="11.832765502179328"><ele>330.0</ele><time>2026-04-25T08:33:22.957Z</time></trkpt><trkpt lat="43.675268381149486" lon="11.832650696986633"><ele>330.0</ele><time>2026-04-25T08:33:23.957Z</time></trkpt><trkpt lat="43.67539216116594" lon="11.832544223385353"><ele>330.25</ele><time>2026-04-25T08:33:24.957Z</time></trkpt><trkpt lat="43.675503982053286" lon="11.832433291005485"><ele>330.5</ele><time>2026-04-25T08:33:25.957Z</time></trkpt><trkpt lat="43.67561966731011" lon="11.832320782695092"><ele>330.75</ele><time>2026-04-25T08:33:26.957Z</time></trkpt><trkpt lat="43.67574381623051" lon="11.832202856442036"><ele>331.0</ele><time>2026-04-25T08:33:27.957Z</time></trkpt><trkpt lat="43.67586920989724" lon="11.83208519392246"><ele>331.0</ele><time>2026-04-25T08:33:28.957Z</time></trkpt><trkpt lat="43.67598999597505" lon="11.831975264968483"><ele>331.0</ele><time>2026-04-25T08:33:29.957Z</time></trkpt><trkpt lat="43.67610384294349" lon="11.831871446677363"><ele>331.0</ele><time>2026-04-25T08:33:30.957Z</time></trkpt><trkpt lat="43.67621189710594" lon="11.831766702632581"><ele>331.0</ele><time>2026-04-25T08:33:31.957Z</time></trkpt><trkpt lat="43.6763196897102" lon="11.831662568351035"><ele>331.25</ele><time>2026-04-25T08:33:32.956Z</time></trkpt><trkpt lat="43.67642936909511" lon="11.831554995853804"><ele>331.5</ele><time>2026-04-25T08:33:33.956Z</time></trkpt><trkpt lat="43.67653963615251" lon="11.831448282915332"><ele>331.75</ele><time>2026-04-25T08:33:34.956Z</time></trkpt><trkpt lat="43.67665173193447" lon="11.831341075611352"><ele>332.0</ele><time>2026-04-25T08:33:35.956Z</time></trkpt><trkpt lat="43.67676564119775" lon="11.831238548708086"><ele>332.0</ele><time>2026-04-25T08:33:36.956Z</time></trkpt><trkpt lat="43.67687841389089" lon="11.83113378163218"><ele>332.0</ele><time>2026-04-25T08:33:37.956Z</time></trkpt><trkpt lat="43.676989289503105" lon="11.831022289267983"><ele>332.0</ele><time>2026-04-25T08:33:38.956Z</time></trkpt><trkpt lat="43.67709903199539" lon="11.830922482924167"><ele>332.0</ele><time>2026-04-25T08:33:39.956Z</time></trkpt><trkpt lat="43.67720242581615" lon="11.830829288657679"><ele>333.25</ele><time>2026-04-25T08:33:40.956Z</time></trkpt><trkpt lat="43.67730086268372" lon="11.830736431293914"><ele>334.5</ele><time>2026-04-25T08:33:41.956Z</time></trkpt><trkpt lat="43.67739971114831" lon="11.830638721674777"><ele>335.75</ele><time>2026-04-25T08:33:42.956Z</time></trkpt><trkpt lat="43.67750265639845" lon="11.830540505729616"><ele>337.0</ele><time>2026-04-25T08:33:43.956Z</time></trkpt><trkpt lat="43.67761772312633" lon="11.830455019513197"><ele>337.0</ele><time>2026-04-25T08:33:44.956Z</time></trkpt><trkpt lat="43.677733507046014" lon="11.830387075706229"><ele>337.0</ele><time>2026-04-25T08:33:45.956Z</time></trkpt><trkpt lat="43.67785932032095" lon="11.830353048839568"><ele>337.0</ele><time>2026-04-25T08:33:46.956Z</time></trkpt><trkpt lat="43.67798646388736" lon="11.830337037622895"><ele>337.0</ele><time>2026-04-25T08:33:47.956Z</time></trkpt><trkpt lat="43.67810730348383" lon="11.830375976300145"><ele>336.75</ele><time>2026-04-25T08:33:48.956Z</time></trkpt><trkpt lat="43.67822907770013" lon="11.830431306770608"><ele>336.5</ele><time>2026-04-25T08:33:49.956Z</time></trkpt><trkpt lat="43.67836208771922" lon="11.830483783329768"><ele>336.25</ele><time>2026-04-25T08:33:50.956Z</time></trkpt><trkpt lat="43.67849001444673" lon="11.830550618433058"><ele>336.0</ele><time>2026-04-25T08:33:51.956Z</time></trkpt><trkpt lat="43.67860546549472" lon="11.83065225372069"><ele>333.75</ele><time>2026-04-25T08:33:52.956Z</time></trkpt><trkpt lat="43.67872493313559" lon="11.83071686566697"><ele>331.5</ele><time>2026-04-25T08:33:53.956Z</time></trkpt><trkpt lat="43.67883699548078" lon="11.830778445257948"><ele>329.25</ele><time>2026-04-25T08:33:54.956Z</time></trkpt><trkpt lat="43.678949101113574" lon="11.830831327113128"><ele>327.0</ele><time>2026-04-25T08:33:55.956Z</time></trkpt><trkpt lat="43.679060697930225" lon="11.830864749789182"><ele>327.0</ele><time>2026-04-25T08:33:56.956Z</time></trkpt><trkpt lat="43.67918562453077" lon="11.830893225841564"><ele>327.0</ele><time>2026-04-25T08:33:57.956Z</time></trkpt><trkpt lat="43.679320977732665" lon="11.830896271528179"><ele>327.0</ele><time>2026-04-25T08:33:58.956Z</time></trkpt><trkpt lat="43.67944580001257" lon="11.830865665183328"><ele>327.0</ele><time>2026-04-25T08:33:59.956Z</time></trkpt><trkpt lat="43.67957608433011" lon="11.830813645548623"><ele>325.25</ele><time>2026-04-25T08:34:00.956Z</time></trkpt><trkpt lat="43.67970686934127" lon="11.830749575983429"><ele>323.5</ele><time>2026-04-25T08:34:01.956Z</time></trkpt><trkpt lat="43.67983220974574" lon="11.830674773614637"><ele>321.75</ele><time>2026-04-25T08:34:02.956Z</time></trkpt><trkpt lat="43.67994922994394" lon="11.830599014277023"><ele>320.0</ele><time>2026-04-25T08:34:03.956Z</time></trkpt><trkpt lat="43.68007493655283" lon="11.83055362671512"><ele>320.0</ele><time>2026-04-25T08:34:04.956Z</time></trkpt><trkpt lat="43.68018439208012" lon="11.830486397264075"><ele>320.0</ele><time>2026-04-25T08:34:05.956Z</time></trkpt><trkpt lat="43.68027571948223" lon="11.83042882680867"><ele>320.0</ele><time>2026-04-25T08:34:06.956Z</time></trkpt><trkpt lat="43.68036954326849" lon="11.830373548946255"><ele>320.0</ele><time>2026-04-25T08:34:07.956Z</time></trkpt><trkpt lat="43.68045884661392" lon="11.830322519665286"><ele>320.0</ele><time>2026-04-25T08:34:08.956Z</time></trkpt><trkpt lat="43.68054643608807" lon="11.830272215972958"><ele>320.2</ele><time>2026-04-25T08:34:09.956Z</time></trkpt><trkpt lat="43.680634983265094" lon="11.830213890529597"><ele>320.4</ele><time>2026-04-25T08:34:10.956Z</time></trkpt><trkpt lat="43.68072706761671" lon="11.83015413241602"><ele>320.6</ele><time>2026-04-25T08:34:11.956Z</time></trkpt><trkpt lat="43.680818572607166" lon="11.830108133049551"><ele>320.8</ele><time>2026-04-25T08:34:12.956Z</time></trkpt><trkpt lat="43.680913504302325" lon="11.830052235377213"><ele>321.0</ele><time>2026-04-25T08:34:13.956Z</time></trkpt><trkpt lat="43.68100414447623" lon="11.829999463196994"><ele>321.0</ele><time>2026-04-25T08:34:14.956Z</time></trkpt><trkpt lat="43.68109025984891" lon="11.829953030452272"><ele>321.0</ele><time>2026-04-25T08:34:15.956Z</time></trkpt><trkpt lat="43.68118300734537" lon="11.829905485588936"><ele>321.0</ele><time>2026-04-25T08:34:16.956Z</time></trkpt><trkpt lat="43.681284660398205" lon="11.829853988610187"><ele>321.0</ele><time>2026-04-25T08:34:17.956Z</time></trkpt><trkpt lat="43.681391386512665" lon="11.829791433155302"><ele>321.0</ele><time>2026-04-25T08:34:18.956Z</time></trkpt><trkpt lat="43.68149883288999" lon="11.829723235209993"><ele>321.0</ele><time>2026-04-25T08:34:19.956Z</time></trkpt><trkpt lat="43.681605489489954" lon="11.829651248465497"><ele>321.0</ele><time>2026-04-25T08:34:20.956Z</time></trkpt><trkpt lat="43.681713943668974" lon="11.82958543742846"><ele>321.0</ele><time>2026-04-25T08:34:21.956Z</time></trkpt><trkpt lat="43.68182530528044" lon="11.829515639314188"><ele>321.0</ele><time>2026-04-25T08:34:22.956Z</time></trkpt><trkpt lat="43.6819303247547" lon="11.829440561127635"><ele>322.25</ele><time>2026-04-25T08:34:23.956Z</time></trkpt><trkpt lat="43.68203770503479" lon="11.829390223455421"><ele>323.5</ele><time>2026-04-25T08:34:24.956Z</time></trkpt><trkpt lat="43.68214570016514" lon="11.829322179309116"><ele>324.75</ele><time>2026-04-25T08:34:25.956Z</time></trkpt><trkpt lat="43.68225769645428" lon="11.829281460890902"><ele>326.0</ele><time>2026-04-25T08:34:26.956Z</time></trkpt><trkpt lat="43.68234947066837" lon="11.829185354070049"><ele>326.0</ele><time>2026-04-25T08:34:27.956Z</time></trkpt><trkpt lat="43.682427828392775" lon="11.829073383651009"><ele>326.0</ele><time>2026-04-25T08:34:28.956Z</time></trkpt><trkpt lat="43.68249566163598" lon="11.828960881758432"><ele>326.0</ele><time>2026-04-25T08:34:29.956Z</time></trkpt><trkpt lat="43.68255449930841" lon="11.828842356914073"><ele>326.0</ele><time>2026-04-25T08:34:30.956Z</time></trkpt><trkpt lat="43.68260872308881" lon="11.828724927276282"><ele>326.0</ele><time>2026-04-25T08:34:31.956Z</time></trkpt><trkpt lat="43.68266020927333" lon="11.828619641432848"><ele>326.0</ele><time>2026-04-25T08:34:32.955Z</time></trkpt><trkpt lat="43.68271738382867" lon="11.828517711624265"><ele>326.0</ele><time>2026-04-25T08:34:33.955Z</time></trkpt><trkpt lat="43.68277832951195" lon="11.828404601479143"><ele>326.0</ele><time>2026-04-25T08:34:34.955Z</time></trkpt><trkpt lat="43.68284846866624" lon="11.828289087060861"><ele>326.0</ele><time>2026-04-25T08:34:35.955Z</time></trkpt><trkpt lat="43.68293756539315" lon="11.828184432800198"><ele>326.0</ele><time>2026-04-25T08:34:36.955Z</time></trkpt><trkpt lat="43.68302717366009" lon="11.828047482178723"><ele>326.5</ele><time>2026-04-25T08:34:37.955Z</time></trkpt><trkpt lat="43.68312758961034" lon="11.827937711661004"><ele>327.0</ele><time>2026-04-25T08:34:38.955Z</time></trkpt><trkpt lat="43.68323368242533" lon="11.827820784341082"><ele>327.5</ele><time>2026-04-25T08:34:39.956Z</time></trkpt><trkpt lat="43.68334167951564" lon="11.827697349379289"><ele>328.0</ele><time>2026-04-25T08:34:40.955Z</time></trkpt><trkpt lat="43.68344779860587" lon="11.82757323105339"><ele>327.25</ele><time>2026-04-25T08:34:41.955Z</time></trkpt><trkpt lat="43.68356307439633" lon="11.827452970019612"><ele>326.5</ele><time>2026-04-25T08:34:42.955Z</time></trkpt><trkpt lat="43.68367925776921" lon="11.827341556627585"><ele>325.75</ele><time>2026-04-25T08:34:43.955Z</time></trkpt><trkpt lat="43.683798150612745" lon="11.827247396441928"><ele>325.0</ele><time>2026-04-25T08:34:44.955Z</time></trkpt><trkpt lat="43.68392323854819" lon="11.827159301184254"><ele>325.0</ele><time>2026-04-25T08:34:45.955Z</time></trkpt><trkpt lat="43.6840560009733" lon="11.827073337729185"><ele>325.0</ele><time>2026-04-25T08:34:46.955Z</time></trkpt><trkpt lat="43.684187812942085" lon="11.826991086611164"><ele>325.0</ele><time>2026-04-25T08:34:47.955Z</time></trkpt><trkpt lat="43.68432148115799" lon="11.826902706792946"><ele>325.0</ele><time>2026-04-25T08:34:48.955Z</time></trkpt><trkpt lat="43.68444617336209" lon="11.82680903193835"><ele>325.25</ele><time>2026-04-25T08:34:49.955Z</time></trkpt><trkpt lat="43.68457956179261" lon="11.82674512107741"><ele>325.5</ele><time>2026-04-25T08:34:50.955Z</time></trkpt><trkpt lat="43.68471768706841" lon="11.82665944579576"><ele>325.75</ele><time>2026-04-25T08:34:51.955Z</time></trkpt><trkpt lat="43.684856425429906" lon="11.826579782733148"><ele>326.0</ele><time>2026-04-25T08:34:52.955Z</time></trkpt><trkpt lat="43.68499306976207" lon="11.826509296685243"><ele>326.0</ele><time>2026-04-25T08:34:53.955Z</time></trkpt><trkpt lat="43.68514979905243" lon="11.826451993295494"><ele>326.0</ele><time>2026-04-25T08:34:54.955Z</time></trkpt><trkpt lat="43.68530616544944" lon="11.826421712186164"><ele>326.0</ele><time>2026-04-25T08:34:55.955Z</time></trkpt><trkpt lat="43.685454556438714" lon="11.826398458776758"><ele>328.25</ele><time>2026-04-25T08:34:56.955Z</time></trkpt><trkpt lat="43.68559683643981" lon="11.82637602301694"><ele>330.5</ele><time>2026-04-25T08:34:57.955Z</time></trkpt><trkpt lat="43.68575140995485" lon="11.826338781010797"><ele>332.75</ele><time>2026-04-25T08:34:58.955Z</time></trkpt><trkpt lat="43.68589197349831" lon="11.826290708510127"><ele>335.0</ele><time>2026-04-25T08:34:59.955Z</time></trkpt><trkpt lat="43.68602977777733" lon="11.826241173710699"><ele>335.0</ele><time>2026-04-25T08:35:00.955Z</time></trkpt><trkpt lat="43.68616730996704" lon="11.826193139540745"><ele>335.0</ele><time>2026-04-25T08:35:01.955Z</time></trkpt><trkpt lat="43.68630903278855" lon="11.826147781990198"><ele>335.0</ele><time>2026-04-25T08:35:02.955Z</time></trkpt><trkpt lat="43.6864449333893" lon="11.82608385636393"><ele>335.0</ele><time>2026-04-25T08:35:03.955Z</time></trkpt><trkpt lat="43.68658526212998" lon="11.826065457007134"><ele>335.0</ele><time>2026-04-25T08:35:04.954Z</time></trkpt><trkpt lat="43.68670921353397" lon="11.826018158523341"><ele>335.0</ele><time>2026-04-25T08:35:05.954Z</time></trkpt><trkpt lat="43.68682295160055" lon="11.825979608260374"><ele>335.0</ele><time>2026-04-25T08:35:06.954Z</time></trkpt><trkpt lat="43.686923479820535" lon="11.82594707973042"><ele>335.0</ele><time>2026-04-25T08:35:07.954Z</time></trkpt><trkpt lat="43.68702078042501" lon="11.82591939876275"><ele>335.0</ele><time>2026-04-25T08:35:08.954Z</time></trkpt><trkpt lat="43.68710898515997" lon="11.825893614142474"><ele>332.5</ele><time>2026-04-25T08:35:09.954Z</time></trkpt><trkpt lat="43.68719668941823" lon="11.825869353955454"><ele>330.0</ele><time>2026-04-25T08:35:10.954Z</time></trkpt><trkpt lat="43.68728209308248" lon="11.825846987362942"><ele>327.5</ele><time>2026-04-25T08:35:11.954Z</time></trkpt><trkpt lat="43.68737414128367" lon="11.825836646025838"><ele>325.0</ele><time>2026-04-25T08:35:12.954Z</time></trkpt><trkpt lat="43.68745512441931" lon="11.825829660041414"><ele>322.5</ele><time>2026-04-25T08:35:13.954Z</time></trkpt><trkpt lat="43.68752794842185" lon="11.825804005797083"><ele>320.0</ele><time>2026-04-25T08:35:14.954Z</time></trkpt><trkpt lat="43.687586892396766" lon="11.825756877988752"><ele>320.0</ele><time>2026-04-25T08:35:15.954Z</time></trkpt><trkpt lat="43.68763630960036" lon="11.82568137921603"><ele>320.0</ele><time>2026-04-25T08:35:16.954Z</time></trkpt><trkpt lat="43.68765783969201" lon="11.825587022466392"><ele>320.0</ele><time>2026-04-25T08:35:17.954Z</time></trkpt><trkpt lat="43.68767064120454" lon="11.825485236247241"><ele>320.0</ele><time>2026-04-25T08:35:18.954Z</time></trkpt><trkpt lat="43.68769431115555" lon="11.825364779955548"><ele>320.0</ele><time>2026-04-25T08:35:19.954Z</time></trkpt><trkpt lat="43.68774430229175" lon="11.82523862773172"><ele>320.0</ele><time>2026-04-25T08:35:20.954Z</time></trkpt><trkpt lat="43.687821317143765" lon="11.825110755535292"><ele>321.2</ele><time>2026-04-25T08:35:21.954Z</time></trkpt><trkpt lat="43.68790417187309" lon="11.824990754198422"><ele>322.4</ele><time>2026-04-25T08:35:22.954Z</time></trkpt><trkpt lat="43.68797664833676" lon="11.82487770893032"><ele>323.6</ele><time>2026-04-25T08:35:23.954Z</time></trkpt><trkpt lat="43.68803356665418" lon="11.82476975460688"><ele>324.8</ele><time>2026-04-25T08:35:24.954Z</time></trkpt><trkpt lat="43.68809754654359" lon="11.824651057061025"><ele>326.0</ele><time>2026-04-25T08:35:25.954Z</time></trkpt><trkpt lat="43.68818618710217" lon="11.824540150229506"><ele>326.0</ele><time>2026-04-25T08:35:26.954Z</time></trkpt><trkpt lat="43.68825470117641" lon="11.824400932008729"><ele>326.0</ele><time>2026-04-25T08:35:27.954Z</time></trkpt><trkpt lat="43.68833912854112" lon="11.824264790597805"><ele>326.0</ele><time>2026-04-25T08:35:28.954Z</time></trkpt><trkpt lat="43.688427686228096" lon="11.824127121195486"><ele>326.0</ele><time>2026-04-25T08:35:29.954Z</time></trkpt><trkpt lat="43.68851977216971" lon="11.823986121470105"><ele>330.6666666666667</ele><time>2026-04-25T08:35:30.954Z</time></trkpt><trkpt lat="43.68860381220071" lon="11.823829586644482"><ele>335.3333333333333</ele><time>2026-04-25T08:35:31.954Z</time></trkpt><trkpt lat="43.688699109983546" lon="11.823672233174145"><ele>340.0</ele><time>2026-04-25T08:35:32.954Z</time></trkpt><trkpt lat="43.688802997713715" lon="11.823496185439916"><ele>337.3333333333333</ele><time>2026-04-25T08:35:33.954Z</time></trkpt><trkpt lat="43.68891738851005" lon="11.823309480715642"><ele>334.6666666666667</ele><time>2026-04-25T08:35:34.954Z</time></trkpt><trkpt lat="43.68903551995986" lon="11.823152469560098"><ele>332.0</ele><time>2026-04-25T08:35:35.954Z</time></trkpt><trkpt lat="43.68912754839134" lon="11.822976651590979"><ele>332.0</ele><time>2026-04-25T08:35:36.954Z</time></trkpt><trkpt lat="43.689231554040916" lon="11.82283248406119"><ele>332.0</ele><time>2026-04-25T08:35:37.954Z</time></trkpt><trkpt lat="43.6893269331109" lon="11.822690918270322"><ele>332.0</ele><time>2026-04-25T08:35:38.954Z</time></trkpt><trkpt lat="43.689421865441" lon="11.822541133872782"><ele>332.0</ele><time>2026-04-25T08:35:39.954Z</time></trkpt><trkpt lat="43.68951897846315" lon="11.822391045917929"><ele>332.25</ele><time>2026-04-25T08:35:40.954Z</time></trkpt><trkpt lat="43.68961778971903" lon="11.822240609480644"><ele>332.5</ele><time>2026-04-25T08:35:41.954Z</time></trkpt><trkpt lat="43.689713902095" lon="11.822086903665577"><ele>332.75</ele><time>2026-04-25T08:35:42.954Z</time></trkpt><trkpt lat="43.6898069508075" lon="11.821936920189788"><ele>333.0</ele><time>2026-04-25T08:35:43.954Z</time></trkpt><trkpt lat="43.6898990293511" lon="11.821792136566273"><ele>333.0</ele><time>2026-04-25T08:35:44.954Z</time></trkpt><trkpt lat="43.689987860703816" lon="11.821644955799085"><ele>333.0</ele><time>2026-04-25T08:35:45.954Z</time></trkpt><trkpt lat="43.690080467260174" lon="11.82150509298868"><ele>333.0</ele><time>2026-04-25T08:35:46.954Z</time></trkpt><trkpt lat="43.69016869497665" lon="11.821371876113625"><ele>333.0</ele><time>2026-04-25T08:35:47.954Z</time></trkpt><trkpt lat="43.690247583038044" lon="11.821241907697482"><ele>338.0</ele><time>2026-04-25T08:35:48.954Z</time></trkpt><trkpt lat="43.69032907866346" lon="11.82111891992293"><ele>343.0</ele><time>2026-04-25T08:35:49.954Z</time></trkpt><trkpt lat="43.69040396366967" lon="11.820987413656992"><ele>348.0</ele><time>2026-04-25T08:35:50.954Z</time></trkpt><trkpt lat="43.69047585545324" lon="11.820866294921688"><ele>353.0</ele><time>2026-04-25T08:35:51.954Z</time></trkpt><trkpt lat="43.69053994969709" lon="11.820734995746685"><ele>353.0</ele><time>2026-04-25T08:35:52.954Z</time></trkpt><trkpt lat="43.69058929282419" lon="11.820605259985518"><ele>353.0</ele><time>2026-04-25T08:35:53.954Z</time></trkpt><trkpt lat="43.69062259399982" lon="11.820465203590958"><ele>353.0</ele><time>2026-04-25T08:35:54.954Z</time></trkpt><trkpt lat="43.69064323189306" lon="11.820332531202153"><ele>353.0</ele><time>2026-04-25T08:35:55.954Z</time></trkpt><trkpt lat="43.690668321663686" lon="11.820216201758702"><ele>353.0</ele><time>2026-04-25T08:35:56.954Z</time></trkpt><trkpt lat="43.69070151912605" lon="11.820103049737007"><ele>350.0</ele><time>2026-04-25T08:35:57.954Z</time></trkpt><trkpt lat="43.69074088836231" lon="11.81999015706169"><ele>347.0</ele><time>2026-04-25T08:35:58.954Z</time></trkpt><trkpt lat="43.69078938555771" lon="11.819870752357994"><ele>344.0</ele><time>2026-04-25T08:35:59.954Z</time></trkpt><trkpt lat="43.69084339618088" lon="11.819761761766895"><ele>341.0</ele><time>2026-04-25T08:36:00.954Z</time></trkpt><trkpt lat="43.690892171236484" lon="11.819644246460703"><ele>338.0</ele><time>2026-04-25T08:36:01.954Z</time></trkpt><trkpt lat="43.6909205249236" lon="11.81951617410325"><ele>338.0</ele><time>2026-04-25T08:36:02.954Z</time></trkpt><trkpt lat="43.69094200382554" lon="11.819403036781372"><ele>338.0</ele><time>2026-04-25T08:36:03.953Z</time></trkpt><trkpt lat="43.69093959375666" lon="11.819273955407636"><ele>338.0</ele><time>2026-04-25T08:36:04.953Z</time></trkpt><trkpt lat="43.69090581280856" lon="11.81913858211066"><ele>338.0</ele><time>2026-04-25T08:36:05.953Z</time></trkpt><trkpt lat="43.69085161855657" lon="11.819037055269584"><ele>338.0</ele><time>2026-04-25T08:36:06.953Z</time></trkpt><trkpt lat="43.69078223529793" lon="11.818959132308777"><ele>336.1666666666667</ele><time>2026-04-25T08:36:07.953Z</time></trkpt><trkpt lat="43.69070491832208" lon="11.81891923938895"><ele>334.33333333333337</ele><time>2026-04-25T08:36:08.953Z</time></trkpt><trkpt lat="43.690621554666144" lon="11.818927549090004"><ele>332.5</ele><time>2026-04-25T08:36:09.953Z</time></trkpt><trkpt lat="43.69053987409102" lon="11.818978164813135"><ele>330.6666666666667</ele><time>2026-04-25T08:36:10.953Z</time></trkpt><trkpt lat="43.690464061251" lon="11.81903993966924"><ele>328.8333333333333</ele><time>2026-04-25T08:36:11.953Z</time></trkpt><trkpt lat="43.69041871909807" lon="11.819117272393209"><ele>327.0</ele><time>2026-04-25T08:36:12.953Z</time></trkpt><trkpt lat="43.69032044655228" lon="11.819103070465196"><ele>325.0</ele><time>2026-04-25T08:36:13.953Z</time></trkpt><trkpt lat="43.69025667566646" lon="11.819072944599954"><ele>323.0</ele><time>2026-04-25T08:36:14.953Z</time></trkpt><trkpt lat="43.690149291988476" lon="11.81889945080893"><ele>321.0</ele><time>2026-04-25T08:36:16.953Z</time></trkpt><trkpt lat="43.690094120436974" lon="11.818749200561316"><ele>319.0</ele><time>2026-04-25T08:36:17.953Z</time></trkpt><trkpt lat="43.69003488369218" lon="11.81857739128837"><ele>318.66666666666663</ele><time>2026-04-25T08:36:18.953Z</time></trkpt><trkpt lat="43.68997468307771" lon="11.818377492734363"><ele>318.3333333333333</ele><time>2026-04-25T08:36:19.953Z</time></trkpt><trkpt lat="43.68992556806493" lon="11.818144067835311"><ele>318.0</ele><time>2026-04-25T08:36:20.953Z</time></trkpt><trkpt lat="43.68988389227656" lon="11.817913365222989"><ele>318.0</ele><time>2026-04-25T08:36:21.953Z</time></trkpt><trkpt lat="43.68983978729623" lon="11.817678201044005"><ele>318.0</ele><time>2026-04-25T08:36:22.953Z</time></trkpt><trkpt lat="43.68978911327069" lon="11.81743409685718"><ele>318.0</ele><time>2026-04-25T08:36:23.953Z</time></trkpt><trkpt lat="43.68973752937917" lon="11.817194665388758"><ele>318.3333333333333</ele><time>2026-04-25T08:36:24.953Z</time></trkpt><trkpt lat="43.68969654070138" lon="11.816961656194929"><ele>318.66666666666663</ele><time>2026-04-25T08:36:25.953Z</time></trkpt><trkpt lat="43.68965556353639" lon="11.81671869629476"><ele>319.0</ele><time>2026-04-25T08:36:26.953Z</time></trkpt><trkpt lat="43.68961091189586" lon="11.81649510887998"><ele>319.3333333333333</ele><time>2026-04-25T08:36:27.953Z</time></trkpt><trkpt lat="43.68956418932133" lon="11.816281768328109"><ele>319.6666666666667</ele><time>2026-04-25T08:36:28.953Z</time></trkpt><trkpt lat="43.68952369141086" lon="11.816079912776472"><ele>320.0</ele><time>2026-04-25T08:36:29.953Z</time></trkpt><trkpt lat="43.689482186476376" lon="11.81587944602788"><ele>319.5</ele><time>2026-04-25T08:36:30.953Z</time></trkpt><trkpt lat="43.68944230705065" lon="11.815692815586877"><ele>319.0</ele><time>2026-04-25T08:36:31.953Z</time></trkpt><trkpt lat="43.68941108649992" lon="11.815514719171384"><ele>318.5</ele><time>2026-04-25T08:36:32.953Z</time></trkpt><trkpt lat="43.68937839040556" lon="11.815347351829384"><ele>318.0</ele><time>2026-04-25T08:36:33.953Z</time></trkpt><trkpt lat="43.68935204648295" lon="11.815185412864556"><ele>318.75</ele><time>2026-04-25T08:36:34.953Z</time></trkpt><trkpt lat="43.68933282716944" lon="11.81501089798297"><ele>319.5</ele><time>2026-04-25T08:36:35.953Z</time></trkpt><trkpt lat="43.68932006064449" lon="11.814812307472648"><ele>320.25</ele><time>2026-04-25T08:36:36.953Z</time></trkpt><trkpt lat="43.68931183814939" lon="11.814614545884487"><ele>321.0</ele><time>2026-04-25T08:36:37.953Z</time></trkpt><trkpt lat="43.689308463330065" lon="11.814406361414939"><ele>320.6666666666667</ele><time>2026-04-25T08:36:38.953Z</time></trkpt><trkpt lat="43.689311298004164" lon="11.814185720038031"><ele>320.33333333333337</ele><time>2026-04-25T08:36:39.953Z</time></trkpt><trkpt lat="43.68932713982637" lon="11.813958143565419"><ele>320.0</ele><time>2026-04-25T08:36:40.953Z</time></trkpt><trkpt lat="43.68935141033609" lon="11.81373010314128"><ele>320.0</ele><time>2026-04-25T08:36:41.953Z</time></trkpt><trkpt lat="43.689380904935696" lon="11.813500015011938"><ele>320.0</ele><time>2026-04-25T08:36:42.953Z</time></trkpt><trkpt lat="43.689420620012754" lon="11.813279408067064"><ele>320.0</ele><time>2026-04-25T08:36:43.953Z</time></trkpt><trkpt lat="43.68946791323646" lon="11.813071385704395"><ele>320.0</ele><time>2026-04-25T08:36:44.953Z</time></trkpt><trkpt lat="43.68954038748456" lon="11.81288246180868"><ele>320.0</ele><time>2026-04-25T08:36:45.952Z</time></trkpt><trkpt lat="43.68960308311304" lon="11.812692930481544"><ele>320.0</ele><time>2026-04-25T08:36:46.953Z</time></trkpt><trkpt lat="43.68966942248451" lon="11.812515850722058"><ele>320.0</ele><time>2026-04-25T08:36:47.953Z</time></trkpt><trkpt lat="43.68974534634948" lon="11.812336673165921"><ele>320.0</ele><time>2026-04-25T08:36:48.952Z</time></trkpt><trkpt lat="43.689828367268355" lon="11.812160962405331"><ele>320.0</ele><time>2026-04-25T08:36:49.952Z</time></trkpt><trkpt lat="43.68991757263768" lon="11.8119886375777"><ele>320.0</ele><time>2026-04-25T08:36:50.952Z</time></trkpt><trkpt lat="43.6900159560927" lon="11.811824558511498"><ele>320.0</ele><time>2026-04-25T08:36:51.952Z</time></trkpt><trkpt lat="43.69011197446088" lon="11.811665425210206"><ele>320.0</ele><time>2026-04-25T08:36:52.953Z</time></trkpt><trkpt lat="43.690208676143286" lon="11.811508209145938"><ele>321.33333333333337</ele><time>2026-04-25T08:36:53.953Z</time></trkpt><trkpt lat="43.69030849117646" lon="11.811347361480601"><ele>322.6666666666667</ele><time>2026-04-25T08:36:54.953Z</time></trkpt><trkpt lat="43.69040987708317" lon="11.811184496486346"><ele>324.0</ele><time>2026-04-25T08:36:55.952Z</time></trkpt><trkpt lat="43.6905120678659" lon="11.811020338588994"><ele>323.0</ele><time>2026-04-25T08:36:56.952Z</time></trkpt><trkpt lat="43.69061314175821" lon="11.810852365145841"><ele>322.0</ele><time>2026-04-25T08:36:57.952Z</time></trkpt><trkpt lat="43.69071788576643" lon="11.810676584529588"><ele>321.0</ele><time>2026-04-25T08:36:58.952Z</time></trkpt><trkpt lat="43.69082340457064" lon="11.81047417068872"><ele>321.0</ele><time>2026-04-25T08:36:59.952Z</time></trkpt><trkpt lat="43.69090910272656" lon="11.810258522634172"><ele>321.0</ele><time>2026-04-25T08:37:00.952Z</time></trkpt><trkpt lat="43.69101392764336" lon="11.810063265261666"><ele>321.0</ele><time>2026-04-25T08:37:01.952Z</time></trkpt><trkpt lat="43.691091434367365" lon="11.809830850429595"><ele>321.3333333333333</ele><time>2026-04-25T08:37:02.952Z</time></trkpt><trkpt lat="43.691171883676844" lon="11.809602063437204"><ele>321.66666666666663</ele><time>2026-04-25T08:37:03.952Z</time></trkpt><trkpt lat="43.69124614163654" lon="11.809362207842952"><ele>322.0</ele><time>2026-04-25T08:37:04.952Z</time></trkpt><trkpt lat="43.691333007874796" lon="11.80910221860977"><ele>322.0</ele><time>2026-04-25T08:37:05.952Z</time></trkpt><trkpt lat="43.69139693531734" lon="11.80881103393757"><ele>322.0</ele><time>2026-04-25T08:37:06.952Z</time></trkpt><trkpt lat="43.691455774309055" lon="11.808514566451352"><ele>322.0</ele><time>2026-04-25T08:37:07.952Z</time></trkpt><trkpt lat="43.69150806136193" lon="11.808233039998665"><ele>322.0</ele><time>2026-04-25T08:37:08.952Z</time></trkpt><trkpt lat="43.691563945053545" lon="11.807932148339534"><ele>322.0</ele><time>2026-04-25T08:37:09.952Z</time></trkpt><trkpt lat="43.691624238346414" lon="11.807607514298997"><ele>321.5</ele><time>2026-04-25T08:37:10.952Z</time></trkpt><trkpt lat="43.69168424465167" lon="11.807288292972896"><ele>321.0</ele><time>2026-04-25T08:37:11.952Z</time></trkpt><trkpt lat="43.69174096187214" lon="11.806988543356482"><ele>321.0</ele><time>2026-04-25T08:37:12.952Z</time></trkpt><trkpt lat="43.69178978689906" lon="11.806721098831225"><ele>321.0</ele><time>2026-04-25T08:37:13.952Z</time></trkpt><trkpt lat="43.69183768203701" lon="11.806472015167644"><ele>321.0</ele><time>2026-04-25T08:37:14.952Z</time></trkpt><trkpt lat="43.691886616063826" lon="11.806233267340339"><ele>321.6666666666667</ele><time>2026-04-25T08:37:15.952Z</time></trkpt><trkpt lat="43.691939822217705" lon="11.806007958678414"><ele>322.33333333333337</ele><time>2026-04-25T08:37:16.952Z</time></trkpt><trkpt lat="43.69199750461377" lon="11.805791945536418"><ele>323.0</ele><time>2026-04-25T08:37:17.952Z</time></trkpt><trkpt lat="43.69205787786896" lon="11.805589450310919"><ele>323.0</ele><time>2026-04-25T08:37:18.952Z</time></trkpt><trkpt lat="43.692120779097614" lon="11.805400473363498"><ele>323.0</ele><time>2026-04-25T08:37:19.952Z</time></trkpt><trkpt lat="43.69219031069902" lon="11.80521217871288"><ele>323.0</ele><time>2026-04-25T08:37:20.952Z</time></trkpt><trkpt lat="43.69226708895383" lon="11.805021455967104"><ele>323.33333333333337</ele><time>2026-04-25T08:37:21.952Z</time></trkpt><trkpt lat="43.69234841071493" lon="11.804837348001248"><ele>323.6666666666667</ele><time>2026-04-25T08:37:22.952Z</time></trkpt><trkpt lat="43.69243578832322" lon="11.804655786133294"><ele>324.0</ele><time>2026-04-25T08:37:23.952Z</time></trkpt><trkpt lat="43.692527324208356" lon="11.804477950223172"><ele>324.0</ele><time>2026-04-25T08:37:24.952Z</time></trkpt><trkpt lat="43.692613030087706" lon="11.804288601763037"><ele>324.0</ele><time>2026-04-25T08:37:25.952Z</time></trkpt><trkpt lat="43.692720605757756" lon="11.80411086272212"><ele>324.0</ele><time>2026-04-25T08:37:26.952Z</time></trkpt><trkpt lat="43.69285975163632" lon="11.803938531670017"><ele>324.0</ele><time>2026-04-25T08:37:27.952Z</time></trkpt><trkpt lat="43.69300347860624" lon="11.80374560904654"><ele>324.0</ele><time>2026-04-25T08:37:28.952Z</time></trkpt><trkpt lat="43.69316314057888" lon="11.80354991721435"><ele>324.0</ele><time>2026-04-25T08:37:29.952Z</time></trkpt><trkpt lat="43.693340590133" lon="11.80335445168583"><ele>323.5</ele><time>2026-04-25T08:37:30.952Z</time></trkpt><trkpt lat="43.69353516873843" lon="11.803165960074862"><ele>323.0</ele><time>2026-04-25T08:37:31.951Z</time></trkpt><trkpt lat="43.6937347539555" lon="11.802973650384908"><ele>323.0</ele><time>2026-04-25T08:37:32.951Z</time></trkpt><trkpt lat="43.69393332039256" lon="11.802791177784338"><ele>323.0</ele><time>2026-04-25T08:37:33.951Z</time></trkpt><trkpt lat="43.6941335702512" lon="11.80260154219458"><ele>323.0</ele><time>2026-04-25T08:37:34.951Z</time></trkpt><trkpt lat="43.694323314190804" lon="11.802420641498655"><ele>323.0</ele><time>2026-04-25T08:37:35.951Z</time></trkpt><trkpt lat="43.69450151326053" lon="11.802246870167934"><ele>323.0</ele><time>2026-04-25T08:37:36.951Z</time></trkpt><trkpt lat="43.69467283418437" lon="11.80205866570137"><ele>323.33333333333337</ele><time>2026-04-25T08:37:37.951Z</time></trkpt><trkpt lat="43.69482653702135" lon="11.801843943764633"><ele>323.6666666666667</ele><time>2026-04-25T08:37:38.951Z</time></trkpt><trkpt lat="43.69498101121592" lon="11.801642776025082"><ele>324.0</ele><time>2026-04-25T08:37:39.951Z</time></trkpt><trkpt lat="43.69512646664533" lon="11.801444945248475"><ele>324.0</ele><time>2026-04-25T08:37:40.951Z</time></trkpt><trkpt lat="43.695260739036556" lon="11.801253570482537"><ele>324.0</ele><time>2026-04-25T08:37:41.951Z</time></trkpt><trkpt lat="43.69538371531496" lon="11.801073276633149"><ele>324.0</ele><time>2026-04-25T08:37:42.951Z</time></trkpt><trkpt lat="43.69549948926406" lon="11.800911997784075"><ele>324.0</ele><time>2026-04-25T08:37:43.951Z</time></trkpt><trkpt lat="43.69560321940582" lon="11.800769522735482"><ele>324.0</ele><time>2026-04-25T08:37:44.951Z</time></trkpt><trkpt lat="43.695698398042566" lon="11.80064761908957"><ele>324.0</ele><time>2026-04-25T08:37:45.951Z</time></trkpt><trkpt lat="43.69578553000906" lon="11.800548474217258"><ele>324.0</ele><time>2026-04-25T08:37:46.951Z</time></trkpt><trkpt lat="43.69587433269648" lon="11.800471093379624"><ele>324.0</ele><time>2026-04-25T08:37:47.951Z</time></trkpt><trkpt lat="43.69596502580879" lon="11.800421706670255"><ele>324.0</ele><time>2026-04-25T08:37:48.951Z</time></trkpt><trkpt lat="43.69606171607046" lon="11.80040320070271"><ele>324.0</ele><time>2026-04-25T08:37:49.951Z</time></trkpt><trkpt lat="43.696158186139236" lon="11.800422274054696"><ele>324.0</ele><time>2026-04-25T08:37:50.951Z</time></trkpt><trkpt lat="43.69626253822235" lon="11.800447009899445"><ele>324.0</ele><time>2026-04-25T08:37:51.951Z</time></trkpt><trkpt lat="43.696369140723306" lon="11.800469367193024"><ele>324.0</ele><time>2026-04-25T08:37:52.951Z</time></trkpt><trkpt lat="43.69647168069871" lon="11.800415282228833"><ele>324.0</ele><time>2026-04-25T08:37:53.951Z</time></trkpt><trkpt lat="43.69654048678023" lon="11.800314275717936"><ele>324.0</ele><time>2026-04-25T08:37:54.951Z</time></trkpt><trkpt lat="43.69658085194925" lon="11.80020793960028"><ele>324.0</ele><time>2026-04-25T08:37:55.951Z</time></trkpt><trkpt lat="43.696599589146864" lon="11.8000943190522"><ele>324.0</ele><time>2026-04-25T08:37:56.951Z</time></trkpt><trkpt lat="43.69661240933966" lon="11.799960230547548"><ele>323.75</ele><time>2026-04-25T08:37:57.951Z</time></trkpt><trkpt lat="43.69664494194686" lon="11.799821745946199"><ele>323.5</ele><time>2026-04-25T08:37:58.951Z</time></trkpt><trkpt lat="43.6967087633556" lon="11.799683350867618"><ele>323.25</ele><time>2026-04-25T08:37:59.951Z</time></trkpt><trkpt lat="43.696734610086466" lon="11.799525473282634"><ele>323.0</ele><time>2026-04-25T08:38:00.951Z</time></trkpt><trkpt lat="43.69690900243879" lon="11.79943237103274"><ele>323.33333333333337</ele><time>2026-04-25T08:38:01.951Z</time></trkpt><trkpt lat="43.69705599919352" lon="11.79933990717164"><ele>323.6666666666667</ele><time>2026-04-25T08:38:02.951Z</time></trkpt><trkpt lat="43.6972041232033" lon="11.799214591045605"><ele>324.0</ele><time>2026-04-25T08:38:03.951Z</time></trkpt><trkpt lat="43.69735483786647" lon="11.799104929710627"><ele>324.0</ele><time>2026-04-25T08:38:04.951Z</time></trkpt><trkpt lat="43.697499750737975" lon="11.798994786715593"><ele>324.0</ele><time>2026-04-25T08:38:05.951Z</time></trkpt><trkpt lat="43.69765618392291" lon="11.798873738186494"><ele>324.0</ele><time>2026-04-25T08:38:06.951Z</time></trkpt><trkpt lat="43.69782189840367" lon="11.798746957815032"><ele>324.0</ele><time>2026-04-25T08:38:07.951Z</time></trkpt><trkpt lat="43.69798123670159" lon="11.798629207901545"><ele>324.0</ele><time>2026-04-25T08:38:08.951Z</time></trkpt><trkpt lat="43.69813507828273" lon="11.798509775357648"><ele>324.0</ele><time>2026-04-25T08:38:09.951Z</time></trkpt><trkpt lat="43.698301295618066" lon="11.798382456560825"><ele>324.0</ele><time>2026-04-25T08:38:10.951Z</time></trkpt><trkpt lat="43.69846683753847" lon="11.79824489139441"><ele>324.0</ele><time>2026-04-25T08:38:11.951Z</time></trkpt><trkpt lat="43.698623676309" lon="11.798111423752902"><ele>324.0</ele><time>2026-04-25T08:38:12.951Z</time></trkpt><trkpt lat="43.69877295264078" lon="11.797973217062188"><ele>324.3333333333333</ele><time>2026-04-25T08:38:13.951Z</time></trkpt><trkpt lat="43.69892726215736" lon="11.79784134744823"><ele>324.66666666666663</ele><time>2026-04-25T08:38:14.951Z</time></trkpt><trkpt lat="43.69906093609341" lon="11.797654809422378"><ele>325.0</ele><time>2026-04-25T08:38:15.951Z</time></trkpt><trkpt lat="43.69920016588776" lon="11.79748511093751"><ele>325.0</ele><time>2026-04-25T08:38:16.951Z</time></trkpt><trkpt lat="43.699335252380585" lon="11.797305296026916"><ele>325.0</ele><time>2026-04-25T08:38:17.951Z</time></trkpt><trkpt lat="43.6994661666443" lon="11.797118807291461"><ele>325.0</ele><time>2026-04-25T08:38:18.951Z</time></trkpt><trkpt lat="43.69960080732424" lon="11.796931801326092"><ele>324.3333333333333</ele><time>2026-04-25T08:38:19.951Z</time></trkpt><trkpt lat="43.699730490394266" lon="11.796738424848607"><ele>323.6666666666667</ele><time>2026-04-25T08:38:20.951Z</time></trkpt><trkpt lat="43.69986370748839" lon="11.796544655191807"><ele>323.0</ele><time>2026-04-25T08:38:21.951Z</time></trkpt><trkpt lat="43.699994635751615" lon="11.796349591386814"><ele>323.0</ele><time>2026-04-25T08:38:22.951Z</time></trkpt><trkpt lat="43.70012971394687" lon="11.796150930287425"><ele>323.0</ele><time>2026-04-25T08:38:23.951Z</time></trkpt><trkpt lat="43.70027131792644" lon="11.795946258488987"><ele>323.0</ele><time>2026-04-25T08:38:24.951Z</time></trkpt><trkpt lat="43.70041403771395" lon="11.795747136832734"><ele>323.33333333333337</ele><time>2026-04-25T08:38:25.951Z</time></trkpt><trkpt lat="43.70055887909443" lon="11.795543915679652"><ele>323.6666666666667</ele><time>2026-04-25T08:38:26.951Z</time></trkpt><trkpt lat="43.70069735977746" lon="11.79533653537147"><ele>324.0</ele><time>2026-04-25T08:38:27.951Z</time></trkpt><trkpt lat="43.70083179111948" lon="11.795128251918138"><ele>324.0</ele><time>2026-04-25T08:38:28.951Z</time></trkpt><trkpt lat="43.70096926920403" lon="11.794920498490225"><ele>324.0</ele><time>2026-04-25T08:38:29.951Z</time></trkpt><trkpt lat="43.701109642659475" lon="11.794720465344303"><ele>324.0</ele><time>2026-04-25T08:38:30.951Z</time></trkpt><trkpt lat="43.70125402289971" lon="11.794530293011785"><ele>324.0</ele><time>2026-04-25T08:38:31.95Z</time></trkpt><trkpt lat="43.70140732586294" lon="11.794352568542207"><ele>324.0</ele><time>2026-04-25T08:38:32.95Z</time></trkpt><trkpt lat="43.70156576114222" lon="11.794192770881494"><ele>324.0</ele><time>2026-04-25T08:38:33.95Z</time></trkpt><trkpt lat="43.70173219194311" lon="11.794044755412243"><ele>324.0</ele><time>2026-04-25T08:38:34.95Z</time></trkpt><trkpt lat="43.70190744776175" lon="11.793910201637647"><ele>324.0</ele><time>2026-04-25T08:38:35.95Z</time></trkpt><trkpt lat="43.70208692848225" lon="11.793787541983333"><ele>324.0</ele><time>2026-04-25T08:38:36.95Z</time></trkpt><trkpt lat="43.70226625134162" lon="11.79366892607794"><ele>324.0</ele><time>2026-04-25T08:38:37.95Z</time></trkpt><trkpt lat="43.70246438796483" lon="11.793565830239302"><ele>324.0</ele><time>2026-04-25T08:38:38.95Z</time></trkpt><trkpt lat="43.702663745308996" lon="11.793478625007705"><ele>324.0</ele><time>2026-04-25T08:38:39.95Z</time></trkpt><trkpt lat="43.70286516142248" lon="11.79339916224922"><ele>324.6666666666667</ele><time>2026-04-25T08:38:40.95Z</time></trkpt><trkpt lat="43.70307006646102" lon="11.793326034971452"><ele>325.33333333333337</ele><time>2026-04-25T08:38:41.95Z</time></trkpt><trkpt lat="43.703277152104924" lon="11.79325896611292"><ele>326.0</ele><time>2026-04-25T08:38:42.95Z</time></trkpt><trkpt lat="43.703474541304324" lon="11.793179410277052"><ele>327.33333333333337</ele><time>2026-04-25T08:38:43.95Z</time></trkpt><trkpt lat="43.70367852246869" lon="11.793099899708103"><ele>328.6666666666667</ele><time>2026-04-25T08:38:44.95Z</time></trkpt><trkpt lat="43.70388014115042" lon="11.793020801847469"><ele>330.0</ele><time>2026-04-25T08:38:45.95Z</time></trkpt><trkpt lat="43.704082763869366" lon="11.792946225322762"><ele>330.0</ele><time>2026-04-25T08:38:46.95Z</time></trkpt><trkpt lat="43.70428320742996" lon="11.792875465769955"><ele>330.0</ele><time>2026-04-25T08:38:47.95Z</time></trkpt><trkpt lat="43.70448289564067" lon="11.792792657167176"><ele>330.0</ele><time>2026-04-25T08:38:48.95Z</time></trkpt><trkpt lat="43.70467783124956" lon="11.792687429737333"><ele>330.3333333333333</ele><time>2026-04-25T08:38:49.95Z</time></trkpt><trkpt lat="43.70486795825428" lon="11.792564988344068"><ele>330.66666666666663</ele><time>2026-04-25T08:38:50.95Z</time></trkpt><trkpt lat="43.705054235223365" lon="11.792423194694104"><ele>331.0</ele><time>2026-04-25T08:38:51.95Z</time></trkpt><trkpt lat="43.70523413228776" lon="11.7922708417946"><ele>330.66666666666663</ele><time>2026-04-25T08:38:52.95Z</time></trkpt><trkpt lat="43.705414896981615" lon="11.792115093360549"><ele>330.3333333333333</ele><time>2026-04-25T08:38:53.95Z</time></trkpt><trkpt lat="43.70559572418077" lon="11.791957026454208"><ele>330.0</ele><time>2026-04-25T08:38:54.95Z</time></trkpt><trkpt lat="43.70577518418828" lon="11.79179745933138"><ele>330.0</ele><time>2026-04-25T08:38:55.949Z</time></trkpt><trkpt lat="43.70595312135888" lon="11.791637398878596"><ele>330.0</ele><time>2026-04-25T08:38:56.949Z</time></trkpt><trkpt lat="43.70613154422656" lon="11.79147400675429"><ele>330.0</ele><time>2026-04-25T08:38:57.95Z</time></trkpt><trkpt lat="43.70630995146997" lon="11.791313463125231"><ele>329.6666666666667</ele><time>2026-04-25T08:38:58.95Z</time></trkpt><trkpt lat="43.706495164795726" lon="11.791153566590204"><ele>329.33333333333337</ele><time>2026-04-25T08:38:59.95Z</time></trkpt><trkpt lat="43.70668140834121" lon="11.79099709268384"><ele>329.0</ele><time>2026-04-25T08:39:00.95Z</time></trkpt><trkpt lat="43.70686301274563" lon="11.79082690901635"><ele>330.6666666666667</ele><time>2026-04-25T08:39:01.95Z</time></trkpt><trkpt lat="43.70704633367453" lon="11.790659843701931"><ele>332.3333333333333</ele><time>2026-04-25T08:39:02.95Z</time></trkpt><trkpt lat="43.70722969249212" lon="11.790496418286585"><ele>334.0</ele><time>2026-04-25T08:39:03.95Z</time></trkpt><trkpt lat="43.70741226067708" lon="11.79033023786637"><ele>334.0</ele><time>2026-04-25T08:39:04.95Z</time></trkpt><trkpt lat="43.70759178644648" lon="11.790160223189975"><ele>334.0</ele><time>2026-04-25T08:39:05.95Z</time></trkpt><trkpt lat="43.70778376157312" lon="11.790014035781061"><ele>334.0</ele><time>2026-04-25T08:39:06.95Z</time></trkpt><trkpt lat="43.707958953267685" lon="11.789839976262211"><ele>334.0</ele><time>2026-04-25T08:39:07.95Z</time></trkpt><trkpt lat="43.70814238021872" lon="11.789699370520259"><ele>334.0</ele><time>2026-04-25T08:39:08.95Z</time></trkpt><trkpt lat="43.70833562574688" lon="11.789573377834094"><ele>334.0</ele><time>2026-04-25T08:39:09.95Z</time></trkpt><trkpt lat="43.7085131121896" lon="11.78944851538032"><ele>334.3333333333333</ele><time>2026-04-25T08:39:10.95Z</time></trkpt><trkpt lat="43.70868409624709" lon="11.789299997236526"><ele>334.6666666666667</ele><time>2026-04-25T08:39:11.95Z</time></trkpt><trkpt lat="43.70885162576166" lon="11.78913678151058"><ele>335.0</ele><time>2026-04-25T08:39:12.95Z</time></trkpt><trkpt lat="43.709011695571135" lon="11.788958576795492"><ele>335.0</ele><time>2026-04-25T08:39:13.95Z</time></trkpt><trkpt lat="43.70916829368532" lon="11.788774357178974"><ele>335.0</ele><time>2026-04-25T08:39:14.95Z</time></trkpt><trkpt lat="43.70931860893603" lon="11.788574816682521"><ele>335.0</ele><time>2026-04-25T08:39:15.95Z</time></trkpt><trkpt lat="43.70945497971885" lon="11.788362194016855"><ele>335.6666666666667</ele><time>2026-04-25T08:39:16.95Z</time></trkpt><trkpt lat="43.70958407916777" lon="11.788142058366233"><ele>336.3333333333333</ele><time>2026-04-25T08:39:17.95Z</time></trkpt><trkpt lat="43.709712730935806" lon="11.787914412391412"><ele>337.0</ele><time>2026-04-25T08:39:18.95Z</time></trkpt><trkpt lat="43.70984172353469" lon="11.787688314041722"><ele>336.3333333333333</ele><time>2026-04-25T08:39:19.95Z</time></trkpt><trkpt lat="43.70996928625285" lon="11.78745724943523"><ele>335.6666666666667</ele><time>2026-04-25T08:39:20.95Z</time></trkpt><trkpt lat="43.71009943324942" lon="11.787229002985416"><ele>335.0</ele><time>2026-04-25T08:39:21.95Z</time></trkpt><trkpt lat="43.71023409583466" lon="11.786996498849632"><ele>336.0</ele><time>2026-04-25T08:39:22.95Z</time></trkpt><trkpt lat="43.7103652166858" lon="11.786763459749935"><ele>337.0</ele><time>2026-04-25T08:39:23.95Z</time></trkpt><trkpt lat="43.710496227344386" lon="11.78652888617641"><ele>338.0</ele><time>2026-04-25T08:39:24.95Z</time></trkpt><trkpt lat="43.71063262049045" lon="11.786294299960977"><ele>338.0</ele><time>2026-04-25T08:39:25.95Z</time></trkpt><trkpt lat="43.710778967549636" lon="11.786063728061668"><ele>338.0</ele><time>2026-04-25T08:39:26.95Z</time></trkpt><trkpt lat="43.71094535301759" lon="11.785852557224404"><ele>338.0</ele><time>2026-04-25T08:39:27.95Z</time></trkpt><trkpt lat="43.71112038384265" lon="11.785652164561364"><ele>337.6666666666667</ele><time>2026-04-25T08:39:28.95Z</time></trkpt><trkpt lat="43.71130160293344" lon="11.785466403300191"><ele>337.3333333333333</ele><time>2026-04-25T08:39:29.95Z</time></trkpt><trkpt lat="43.71149184397234" lon="11.785306974708945"><ele>337.0</ele><time>2026-04-25T08:39:30.95Z</time></trkpt><trkpt lat="43.71168991753375" lon="11.785171152227198"><ele>336.0</ele><time>2026-04-25T08:39:31.949Z</time></trkpt><trkpt lat="43.71189941109045" lon="11.785056646975145"><ele>335.0</ele><time>2026-04-25T08:39:32.949Z</time></trkpt><trkpt lat="43.7121113385629" lon="11.78494568550623"><ele>335.0</ele><time>2026-04-25T08:39:33.949Z</time></trkpt><trkpt lat="43.71232261001713" lon="11.784830668643357"><ele>335.0</ele><time>2026-04-25T08:39:34.949Z</time></trkpt><trkpt lat="43.712531718095235" lon="11.784712866692693"><ele>337.0</ele><time>2026-04-25T08:39:35.949Z</time></trkpt><trkpt lat="43.71273984980835" lon="11.784598544351244"><ele>339.0</ele><time>2026-04-25T08:39:36.949Z</time></trkpt><trkpt lat="43.712946831547335" lon="11.784476986162515"><ele>341.0</ele><time>2026-04-25T08:39:37.949Z</time></trkpt><trkpt lat="43.71314990290292" lon="11.784354780272418"><ele>338.6666666666667</ele><time>2026-04-25T08:39:38.949Z</time></trkpt><trkpt lat="43.71335612216614" lon="11.784242770478992"><ele>336.3333333333333</ele><time>2026-04-25T08:39:39.949Z</time></trkpt><trkpt lat="43.71356712673487" lon="11.78413455243295"><ele>334.0</ele><time>2026-04-25T08:39:40.949Z</time></trkpt><trkpt lat="43.71377565894016" lon="11.784021682652549"><ele>334.0</ele><time>2026-04-25T08:39:41.949Z</time></trkpt><trkpt lat="43.71398333307976" lon="11.783906749682941"><ele>334.0</ele><time>2026-04-25T08:39:42.949Z</time></trkpt><trkpt lat="43.714189754151846" lon="11.78379067323905"><ele>334.0</ele><time>2026-04-25T08:39:43.949Z</time></trkpt><trkpt lat="43.71439425761985" lon="11.783675364617972"><ele>334.3333333333333</ele><time>2026-04-25T08:39:44.949Z</time></trkpt><trkpt lat="43.71460116606616" lon="11.783560650668989"><ele>334.6666666666667</ele><time>2026-04-25T08:39:45.949Z</time></trkpt><trkpt lat="43.714807679038614" lon="11.783446062614594"><ele>335.0</ele><time>2026-04-25T08:39:46.949Z</time></trkpt><trkpt lat="43.715010711018536" lon="11.783324184603748"><ele>334.0</ele><time>2026-04-25T08:39:47.949Z</time></trkpt><trkpt lat="43.71521676717641" lon="11.783202280674944"><ele>333.0</ele><time>2026-04-25T08:39:48.949Z</time></trkpt><trkpt lat="43.71542265376204" lon="11.783074052519863"><ele>333.0</ele><time>2026-04-25T08:39:49.949Z</time></trkpt><trkpt lat="43.71562511424244" lon="11.782936890683734"><ele>333.0</ele><time>2026-04-25T08:39:50.949Z</time></trkpt><trkpt lat="43.71582526629477" lon="11.782793873961877"><ele>332.0</ele><time>2026-04-25T08:39:51.949Z</time></trkpt><trkpt lat="43.71602706823154" lon="11.782651479264759"><ele>331.0</ele><time>2026-04-25T08:39:52.949Z</time></trkpt><trkpt lat="43.7162279464268" lon="11.782503543081415"><ele>331.0</ele><time>2026-04-25T08:39:53.949Z</time></trkpt><trkpt lat="43.716424493818316" lon="11.782352643092969"><ele>331.0</ele><time>2026-04-25T08:39:54.949Z</time></trkpt><trkpt lat="43.71661871740212" lon="11.782196547433115"><ele>331.0</ele><time>2026-04-25T08:39:55.949Z</time></trkpt><trkpt lat="43.71681263318412" lon="11.78204083455274"><ele>331.3333333333333</ele><time>2026-04-25T08:39:56.949Z</time></trkpt><trkpt lat="43.71700372776981" lon="11.781884002068383"><ele>331.6666666666667</ele><time>2026-04-25T08:39:57.949Z</time></trkpt><trkpt lat="43.71720032296682" lon="11.781731554727582"><ele>332.0</ele><time>2026-04-25T08:39:58.949Z</time></trkpt><trkpt lat="43.71739718792604" lon="11.78157955612332"><ele>332.0</ele><time>2026-04-25T08:39:59.949Z</time></trkpt><trkpt lat="43.71758931925122" lon="11.781421617651903"><ele>332.0</ele><time>2026-04-25T08:40:00.949Z</time></trkpt><trkpt lat="43.717782987187796" lon="11.781265694183258"><ele>332.0</ele><time>2026-04-25T08:40:01.949Z</time></trkpt><trkpt lat="43.71797435619706" lon="11.781107769744635"><ele>331.6666666666667</ele><time>2026-04-25T08:40:02.949Z</time></trkpt><trkpt lat="43.71816469862992" lon="11.780951411119617"><ele>331.3333333333333</ele><time>2026-04-25T08:40:03.949Z</time></trkpt><trkpt lat="43.71835881520493" lon="11.780799859148715"><ele>331.0</ele><time>2026-04-25T08:40:04.949Z</time></trkpt><trkpt lat="43.718553807225966" lon="11.780649047990392"><ele>331.66666666666663</ele><time>2026-04-25T08:40:05.949Z</time></trkpt><trkpt lat="43.71874519421566" lon="11.78049761556368"><ele>332.3333333333333</ele><time>2026-04-25T08:40:06.949Z</time></trkpt><trkpt lat="43.718939962878714" lon="11.780349444066283"><ele>333.0</ele><time>2026-04-25T08:40:07.949Z</time></trkpt><trkpt lat="43.7191335599356" lon="11.78019788618486"><ele>333.0</ele><time>2026-04-25T08:40:08.949Z</time></trkpt><trkpt lat="43.71932380958335" lon="11.780048017309769"><ele>333.0</ele><time>2026-04-25T08:40:09.949Z</time></trkpt><trkpt lat="43.719511450243544" lon="11.779902398851815"><ele>333.0</ele><time>2026-04-25T08:40:10.949Z</time></trkpt><trkpt lat="43.71969994767223" lon="11.779758261435314"><ele>333.3333333333333</ele><time>2026-04-25T08:40:11.949Z</time></trkpt><trkpt lat="43.71988028557062" lon="11.779612437229806"><ele>333.66666666666663</ele><time>2026-04-25T08:40:12.949Z</time></trkpt><trkpt lat="43.72006330765194" lon="11.779474510916454"><ele>334.0</ele><time>2026-04-25T08:40:13.949Z</time></trkpt><trkpt lat="43.72022782434266" lon="11.77933616773652"><ele>334.0</ele><time>2026-04-25T08:40:14.949Z</time></trkpt><trkpt lat="43.7203925508389" lon="11.779201988271183"><ele>334.0</ele><time>2026-04-25T08:40:15.949Z</time></trkpt><trkpt lat="43.72055317279471" lon="11.779078606787143"><ele>334.0</ele><time>2026-04-25T08:40:16.949Z</time></trkpt><trkpt lat="43.72070546206662" lon="11.77895885247709"><ele>334.0</ele><time>2026-04-25T08:40:17.949Z</time></trkpt><trkpt lat="43.72084717128629" lon="11.778843648185742"><ele>334.0</ele><time>2026-04-25T08:40:18.949Z</time></trkpt><trkpt lat="43.72098426856475" lon="11.778722581251193"><ele>334.0</ele><time>2026-04-25T08:40:19.949Z</time></trkpt><trkpt lat="43.721120730729176" lon="11.778582767761472"><ele>334.0</ele><time>2026-04-25T08:40:20.949Z</time></trkpt><trkpt lat="43.721250401484234" lon="11.778429848154747"><ele>334.0</ele><time>2026-04-25T08:40:21.949Z</time></trkpt><trkpt lat="43.72136360198027" lon="11.778255529672608"><ele>334.0</ele><time>2026-04-25T08:40:22.949Z</time></trkpt><trkpt lat="43.72146400528219" lon="11.778063501236943"><ele>334.0</ele><time>2026-04-25T08:40:23.949Z</time></trkpt><trkpt lat="43.72155782842672" lon="11.777863995282345"><ele>334.0</ele><time>2026-04-25T08:40:24.949Z</time></trkpt><trkpt lat="43.72163645841491" lon="11.77764396941622"><ele>334.0</ele><time>2026-04-25T08:40:25.949Z</time></trkpt><trkpt lat="43.72170618773289" lon="11.777425319106246"><ele>334.0</ele><time>2026-04-25T08:40:26.949Z</time></trkpt><trkpt lat="43.72177757770527" lon="11.777198500432473"><ele>334.0</ele><time>2026-04-25T08:40:27.949Z</time></trkpt><trkpt lat="43.72186947336868" lon="11.777006619895422"><ele>334.0</ele><time>2026-04-25T08:40:28.949Z</time></trkpt><trkpt lat="43.72194890854523" lon="11.776819771616719"><ele>335.66666666666663</ele><time>2026-04-25T08:40:29.949Z</time></trkpt><trkpt lat="43.72202175460209" lon="11.776629188437672"><ele>337.3333333333333</ele><time>2026-04-25T08:40:30.949Z</time></trkpt><trkpt lat="43.72212661716518" lon="11.77646945227903"><ele>339.0</ele><time>2026-04-25T08:40:31.948Z</time></trkpt><trkpt lat="43.72222786948357" lon="11.776317388469902"><ele>339.0</ele><time>2026-04-25T08:40:32.948Z</time></trkpt><trkpt lat="43.72233131751119" lon="11.776178241924132"><ele>339.0</ele><time>2026-04-25T08:40:33.948Z</time></trkpt><trkpt lat="43.72243179271648" lon="11.776068210486464"><ele>339.0</ele><time>2026-04-25T08:40:34.948Z</time></trkpt><trkpt lat="43.722533496441" lon="11.775971253931553"><ele>339.0</ele><time>2026-04-25T08:40:35.948Z</time></trkpt><trkpt lat="43.72263330851376" lon="11.77588460651744"><ele>339.25</ele><time>2026-04-25T08:40:36.948Z</time></trkpt><trkpt lat="43.72273563980865" lon="11.775798587157897"><ele>339.5</ele><time>2026-04-25T08:40:37.948Z</time></trkpt><trkpt lat="43.72285908985999" lon="11.77574187962349"><ele>339.75</ele><time>2026-04-25T08:40:38.948Z</time></trkpt><trkpt lat="43.72299256392322" lon="11.775667849058582"><ele>340.0</ele><time>2026-04-25T08:40:39.948Z</time></trkpt><trkpt lat="43.72313639583988" lon="11.775583957552017"><ele>340.0</ele><time>2026-04-25T08:40:40.948Z</time></trkpt><trkpt lat="43.723289258589" lon="11.775539033484229"><ele>340.0</ele><time>2026-04-25T08:40:41.948Z</time></trkpt><trkpt lat="43.72342626419251" lon="11.775490199644516"><ele>340.0</ele><time>2026-04-25T08:40:42.948Z</time></trkpt><trkpt lat="43.723555204137035" lon="11.775443659858919"><ele>340.0</ele><time>2026-04-25T08:40:43.948Z</time></trkpt><trkpt lat="43.72367616272529" lon="11.775401753823816"><ele>340.5</ele><time>2026-04-25T08:40:44.948Z</time></trkpt><trkpt lat="43.72379259330956" lon="11.775362897859274"><ele>341.0</ele><time>2026-04-25T08:40:45.948Z</time></trkpt><trkpt lat="43.72390599252133" lon="11.775322574184093"><ele>341.5</ele><time>2026-04-25T08:40:46.948Z</time></trkpt><trkpt lat="43.724017991739174" lon="11.775281031272925"><ele>342.0</ele><time>2026-04-25T08:40:47.948Z</time></trkpt><trkpt lat="43.72413961404694" lon="11.775241803642874"><ele>342.0</ele><time>2026-04-25T08:40:48.948Z</time></trkpt><trkpt lat="43.724264978376965" lon="11.775198740431874"><ele>342.0</ele><time>2026-04-25T08:40:49.948Z</time></trkpt><trkpt lat="43.724392610414036" lon="11.77515262878055"><ele>342.0</ele><time>2026-04-25T08:40:50.948Z</time></trkpt><trkpt lat="43.72452221027003" lon="11.775105175935868"><ele>342.0</ele><time>2026-04-25T08:40:51.948Z</time></trkpt><trkpt lat="43.724653628290234" lon="11.775061083059724"><ele>342.0</ele><time>2026-04-25T08:40:52.948Z</time></trkpt><trkpt lat="43.72478625823412" lon="11.77501663622002"><ele>342.0</ele><time>2026-04-25T08:40:53.948Z</time></trkpt><trkpt lat="43.72491234587794" lon="11.774973832421233"><ele>342.0</ele><time>2026-04-25T08:40:54.948Z</time></trkpt><trkpt lat="43.72503377226045" lon="11.77493056807524"><ele>342.0</ele><time>2026-04-25T08:40:55.948Z</time></trkpt><trkpt lat="43.72514481408944" lon="11.774883699163556"><ele>342.0</ele><time>2026-04-25T08:40:56.948Z</time></trkpt><trkpt lat="43.72525063105731" lon="11.774842165562076"><ele>342.0</ele><time>2026-04-25T08:40:57.948Z</time></trkpt><trkpt lat="43.72534977692676" lon="11.77480357591221"><ele>342.0</ele><time>2026-04-25T08:40:58.948Z</time></trkpt><trkpt lat="43.72544070460484" lon="11.7747598693749"><ele>342.0</ele><time>2026-04-25T08:40:59.948Z</time></trkpt><trkpt lat="43.72553321539773" lon="11.774716647309413"><ele>342.0</ele><time>2026-04-25T08:41:00.947Z</time></trkpt><trkpt lat="43.725627604661376" lon="11.774693325952267"><ele>342.0</ele><time>2026-04-25T08:41:01.948Z</time></trkpt><trkpt lat="43.725723962120995" lon="11.774650919234025"><ele>342.0</ele><time>2026-04-25T08:41:02.948Z</time></trkpt><trkpt lat="43.725817976325544" lon="11.77459725672009"><ele>342.0</ele><time>2026-04-25T08:41:03.947Z</time></trkpt><trkpt lat="43.72592226977131" lon="11.774523606229517"><ele>342.0</ele><time>2026-04-25T08:41:04.947Z</time></trkpt><trkpt lat="43.72601691936227" lon="11.774426291917065"><ele>342.0</ele><time>2026-04-25T08:41:05.947Z</time></trkpt><trkpt lat="43.72610969979644" lon="11.774307574510825"><ele>343.75</ele><time>2026-04-25T08:41:06.948Z</time></trkpt><trkpt lat="43.72619638990648" lon="11.774164251330548"><ele>345.5</ele><time>2026-04-25T08:41:07.947Z</time></trkpt><trkpt lat="43.72628396665497" lon="11.774004817658051"><ele>347.25</ele><time>2026-04-25T08:41:08.947Z</time></trkpt><trkpt lat="43.72637580375302" lon="11.773838940808401"><ele>349.0</ele><time>2026-04-25T08:41:09.947Z</time></trkpt><trkpt lat="43.72646381234892" lon="11.773675909524695"><ele>346.75</ele><time>2026-04-25T08:41:10.947Z</time></trkpt><trkpt lat="43.72653160178505" lon="11.773511207871277"><ele>344.5</ele><time>2026-04-25T08:41:11.947Z</time></trkpt><trkpt lat="43.726607932646324" lon="11.773363086476838"><ele>342.25</ele><time>2026-04-25T08:41:12.947Z</time></trkpt><trkpt lat="43.72667295607162" lon="11.773212181680409"><ele>340.0</ele><time>2026-04-25T08:41:13.947Z</time></trkpt><trkpt lat="43.72672202002276" lon="11.773069634987886"><ele>340.0</ele><time>2026-04-25T08:41:14.947Z</time></trkpt><trkpt lat="43.72676423592676" lon="11.772945575385464"><ele>340.0</ele><time>2026-04-25T08:41:15.947Z</time></trkpt><trkpt lat="43.72680897961859" lon="11.772864892924135"><ele>340.0</ele><time>2026-04-25T08:41:16.947Z</time></trkpt><trkpt lat="43.72687084112536" lon="11.772787510322855"><ele>340.0</ele><time>2026-04-25T08:41:17.947Z</time></trkpt><trkpt lat="43.72692895967257" lon="11.772728123640317"><ele>340.0</ele><time>2026-04-25T08:41:18.947Z</time></trkpt><trkpt lat="43.72698362312805" lon="11.772645215084049"><ele>340.0</ele><time>2026-04-25T08:41:19.947Z</time></trkpt><trkpt lat="43.727006872145004" lon="11.77254644563683"><ele>340.6</ele><time>2026-04-25T08:41:20.947Z</time></trkpt><trkpt lat="43.727007628983266" lon="11.772433479482267"><ele>341.2</ele><time>2026-04-25T08:41:21.947Z</time></trkpt><trkpt lat="43.7269938736187" lon="11.77231627823402"><ele>341.79999999999995</ele><time>2026-04-25T08:41:22.947Z</time></trkpt><trkpt lat="43.726995869050285" lon="11.772182718458726"><ele>342.4</ele><time>2026-04-25T08:41:23.947Z</time></trkpt><trkpt lat="43.727023056625114" lon="11.772037029009581"><ele>343.0</ele><time>2026-04-25T08:41:24.947Z</time></trkpt><trkpt lat="43.72706489142138" lon="11.771869582361482"><ele>343.75</ele><time>2026-04-25T08:41:25.947Z</time></trkpt><trkpt lat="43.7271149966665" lon="11.771703692593963"><ele>344.5</ele><time>2026-04-25T08:41:26.947Z</time></trkpt><trkpt lat="43.72715826657537" lon="11.771540307688275"><ele>345.25</ele><time>2026-04-25T08:41:27.947Z</time></trkpt><trkpt lat="43.72719854011661" lon="11.771385332992663"><ele>346.0</ele><time>2026-04-25T08:41:28.947Z</time></trkpt><trkpt lat="43.727242016960915" lon="11.77123466097425"><ele>346.0</ele><time>2026-04-25T08:41:29.947Z</time></trkpt><trkpt lat="43.727293856139624" lon="11.771077445059994"><ele>346.0</ele><time>2026-04-25T08:41:30.947Z</time></trkpt><trkpt lat="43.727340612994446" lon="11.770913269948798"><ele>346.0</ele><time>2026-04-25T08:41:31.947Z</time></trkpt><trkpt lat="43.727389665275915" lon="11.770745124716708"><ele>346.0</ele><time>2026-04-25T08:41:32.947Z</time></trkpt><trkpt lat="43.72746262906154" lon="11.770586674858468"><ele>345.5</ele><time>2026-04-25T08:41:33.947Z</time></trkpt><trkpt lat="43.72753793027763" lon="11.770446258301847"><ele>345.0</ele><time>2026-04-25T08:41:34.947Z</time></trkpt><trkpt lat="43.727613300804876" lon="11.77031237969353"><ele>344.5</ele><time>2026-04-25T08:41:35.947Z</time></trkpt><trkpt lat="43.72769101652987" lon="11.770195841360886"><ele>344.0</ele><time>2026-04-25T08:41:36.947Z</time></trkpt><trkpt lat="43.72776578378398" lon="11.770069690299747"><ele>346.25</ele><time>2026-04-25T08:41:37.947Z</time></trkpt><trkpt lat="43.72783813945352" lon="11.76994613038487"><ele>348.5</ele><time>2026-04-25T08:41:38.947Z</time></trkpt><trkpt lat="43.72790641878388" lon="11.769824633491988"><ele>350.75</ele><time>2026-04-25T08:41:39.947Z</time></trkpt><trkpt lat="43.727980280588426" lon="11.769704585273502"><ele>353.0</ele><time>2026-04-25T08:41:40.947Z</time></trkpt><trkpt lat="43.72805526255713" lon="11.769585576736738"><ele>353.0</ele><time>2026-04-25T08:41:41.947Z</time></trkpt><trkpt lat="43.72812882121986" lon="11.769467384882168"><ele>353.0</ele><time>2026-04-25T08:41:42.947Z</time></trkpt><trkpt lat="43.7281942530275" lon="11.769343169048286"><ele>353.0</ele><time>2026-04-25T08:41:43.947Z</time></trkpt><trkpt lat="43.72826602422294" lon="11.769223262061443"><ele>353.0</ele><time>2026-04-25T08:41:44.947Z</time></trkpt><trkpt lat="43.72834858310469" lon="11.769116210299323"><ele>353.0</ele><time>2026-04-25T08:41:45.947Z</time></trkpt><trkpt lat="43.72841693697382" lon="11.769002136961303"><ele>353.25</ele><time>2026-04-25T08:41:46.947Z</time></trkpt><trkpt lat="43.728486827117855" lon="11.76888362620748"><ele>353.5</ele><time>2026-04-25T08:41:47.947Z</time></trkpt><trkpt lat="43.728568115089814" lon="11.768777659487295"><ele>353.75</ele><time>2026-04-25T08:41:48.947Z</time></trkpt><trkpt lat="43.728669567619185" lon="11.768697353013245"><ele>354.0</ele><time>2026-04-25T08:41:49.947Z</time></trkpt><trkpt lat="43.72877342592364" lon="11.768625927211897"><ele>354.0</ele><time>2026-04-25T08:41:50.947Z</time></trkpt><trkpt lat="43.728880177714665" lon="11.768555650204915"><ele>354.0</ele><time>2026-04-25T08:41:51.947Z</time></trkpt><trkpt lat="43.72897794877295" lon="11.768474718126003"><ele>354.0</ele><time>2026-04-25T08:41:52.947Z</time></trkpt><trkpt lat="43.729083068100856" lon="11.768422431758532"><ele>354.0</ele><time>2026-04-25T08:41:53.947Z</time></trkpt><trkpt lat="43.729168478694014" lon="11.768354588715997"><ele>354.0</ele><time>2026-04-25T08:41:54.947Z</time></trkpt><trkpt lat="43.72925242036426" lon="11.768281580943851"><ele>352.2</ele><time>2026-04-25T08:41:55.947Z</time></trkpt><trkpt lat="43.729341018618655" lon="11.768216414467966"><ele>350.4</ele><time>2026-04-25T08:41:56.946Z</time></trkpt><trkpt lat="43.72943482525104" lon="11.768142914627935"><ele>348.6</ele><time>2026-04-25T08:41:57.946Z</time></trkpt><trkpt lat="43.72953595605799" lon="11.768081559996725"><ele>346.8</ele><time>2026-04-25T08:41:58.946Z</time></trkpt><trkpt lat="43.72963251399735" lon="11.768020717041871"><ele>345.0</ele><time>2026-04-25T08:41:59.946Z</time></trkpt><trkpt lat="43.729718700511256" lon="11.767949472746462"><ele>345.0</ele><time>2026-04-25T08:42:00.946Z</time></trkpt><trkpt lat="43.72981091391907" lon="11.767887378507845"><ele>345.0</ele><time>2026-04-25T08:42:01.946Z</time></trkpt><trkpt lat="43.72990741003155" lon="11.7678256387367"><ele>345.0</ele><time>2026-04-25T08:42:02.946Z</time></trkpt><trkpt lat="43.730000339243254" lon="11.76776502417798"><ele>345.0</ele><time>2026-04-25T08:42:03.946Z</time></trkpt><trkpt lat="43.73008894913735" lon="11.767716213929207"><ele>345.0</ele><time>2026-04-25T08:42:04.946Z</time></trkpt><trkpt lat="43.73018287263947" lon="11.767661331229544"><ele>345.0</ele><time>2026-04-25T08:42:05.946Z</time></trkpt><trkpt lat="43.730277840121325" lon="11.767592785608064"><ele>345.0</ele><time>2026-04-25T08:42:06.946Z</time></trkpt><trkpt lat="43.73037149630092" lon="11.767524433569822"><ele>345.0</ele><time>2026-04-25T08:42:07.946Z</time></trkpt><trkpt lat="43.7304752181821" lon="11.767446516886853"><ele>345.0</ele><time>2026-04-25T08:42:08.946Z</time></trkpt><trkpt lat="43.730579985984406" lon="11.767370774123934"><ele>345.0</ele><time>2026-04-25T08:42:09.946Z</time></trkpt><trkpt lat="43.730686884007206" lon="11.767286443721053"><ele>345.0</ele><time>2026-04-25T08:42:10.946Z</time></trkpt><trkpt lat="43.73080046846541" lon="11.76719944820307"><ele>345.0</ele><time>2026-04-25T08:42:11.946Z</time></trkpt><trkpt lat="43.73091457230774" lon="11.767109586829484"><ele>345.0</ele><time>2026-04-25T08:42:12.946Z</time></trkpt><trkpt lat="43.73103319065821" lon="11.767025520241262"><ele>345.0</ele><time>2026-04-25T08:42:13.946Z</time></trkpt><trkpt lat="43.731155137941386" lon="11.766941808328053"><ele>345.25</ele><time>2026-04-25T08:42:14.946Z</time></trkpt><trkpt lat="43.73127725468804" lon="11.766858687887325"><ele>345.5</ele><time>2026-04-25T08:42:15.946Z</time></trkpt><trkpt lat="43.73139616400909" lon="11.766769966871168"><ele>345.75</ele><time>2026-04-25T08:42:16.946Z</time></trkpt><trkpt lat="43.731517957163916" lon="11.766688150838002"><ele>346.0</ele><time>2026-04-25T08:42:17.946Z</time></trkpt><trkpt lat="43.73162953338007" lon="11.766599069368931"><ele>346.0</ele><time>2026-04-25T08:42:18.946Z</time></trkpt><trkpt lat="43.731722234863405" lon="11.766503502489524"><ele>346.0</ele><time>2026-04-25T08:42:19.946Z</time></trkpt><trkpt lat="43.73181061262576" lon="11.766410773006045"><ele>346.0</ele><time>2026-04-25T08:42:20.946Z</time></trkpt><trkpt lat="43.731903413532386" lon="11.766324323384946"><ele>346.0</ele><time>2026-04-25T08:42:21.946Z</time></trkpt><trkpt lat="43.73197331380525" lon="11.766194187218117"><ele>345.75</ele><time>2026-04-25T08:42:22.946Z</time></trkpt><trkpt lat="43.73200501227835" lon="11.766041538169862"><ele>345.5</ele><time>2026-04-25T08:42:23.946Z</time></trkpt><trkpt lat="43.73203564735066" lon="11.765875415391742"><ele>345.25</ele><time>2026-04-25T08:42:24.946Z</time></trkpt><trkpt lat="43.73207130862536" lon="11.76570933781467"><ele>345.0</ele><time>2026-04-25T08:42:25.946Z</time></trkpt><trkpt lat="43.73211920628366" lon="11.765541815918215"><ele>345.0</ele><time>2026-04-25T08:42:26.946Z</time></trkpt><trkpt lat="43.732160030385046" lon="11.765379779354774"><ele>345.0</ele><time>2026-04-25T08:42:27.946Z</time></trkpt><trkpt lat="43.732198572316776" lon="11.7652174448687"><ele>345.0</ele><time>2026-04-25T08:42:28.946Z</time></trkpt><trkpt lat="43.732238216302754" lon="11.765045785530278"><ele>345.0</ele><time>2026-04-25T08:42:29.946Z</time></trkpt><trkpt lat="43.73228455688693" lon="11.764877965095536"><ele>345.0</ele><time>2026-04-25T08:42:30.946Z</time></trkpt><trkpt lat="43.7323192311471" lon="11.764720116968466"><ele>345.0</ele><time>2026-04-25T08:42:31.946Z</time></trkpt><trkpt lat="43.73235832487798" lon="11.764553004769663"><ele>345.0</ele><time>2026-04-25T08:42:32.946Z</time></trkpt><trkpt lat="43.73239818736905" lon="11.764389735670408"><ele>345.0</ele><time>2026-04-25T08:42:33.946Z</time></trkpt><trkpt lat="43.73243887188623" lon="11.764216207799233"><ele>345.0</ele><time>2026-04-25T08:42:34.946Z</time></trkpt><trkpt lat="43.73247874728817" lon="11.764044326789959"><ele>345.0</ele><time>2026-04-25T08:42:35.946Z</time></trkpt><trkpt lat="43.7325261682958" lon="11.763861960005878"><ele>345.0</ele><time>2026-04-25T08:42:36.946Z</time></trkpt><trkpt lat="43.73257307055254" lon="11.763680558757676"><ele>345.0</ele><time>2026-04-25T08:42:37.946Z</time></trkpt><trkpt lat="43.732621500641486" lon="11.76350007595936"><ele>344.75</ele><time>2026-04-25T08:42:38.946Z</time></trkpt><trkpt lat="43.73266714133306" lon="11.763312059627719"><ele>344.5</ele><time>2026-04-25T08:42:39.946Z</time></trkpt><trkpt lat="43.73271582009334" lon="11.763128521923067"><ele>344.25</ele><time>2026-04-25T08:42:40.946Z</time></trkpt><trkpt lat="43.73276127539149" lon="11.762940413561426"><ele>344.0</ele><time>2026-04-25T08:42:41.946Z</time></trkpt><trkpt lat="43.732808854898124" lon="11.762752864330217"><ele>345.25</ele><time>2026-04-25T08:42:42.946Z</time></trkpt><trkpt lat="43.73286258435093" lon="11.76256555647838"><ele>346.5</ele><time>2026-04-25T08:42:43.946Z</time></trkpt><trkpt lat="43.73291083250798" lon="11.76238414520849"><ele>347.75</ele><time>2026-04-25T08:42:44.946Z</time></trkpt><trkpt lat="43.73296040528788" lon="11.762200024447337"><ele>349.0</ele><time>2026-04-25T08:42:45.946Z</time></trkpt><trkpt lat="43.73301114795563" lon="11.762023711222211"><ele>348.75</ele><time>2026-04-25T08:42:46.946Z</time></trkpt><trkpt lat="43.733059217913016" lon="11.76184554489955"><ele>348.5</ele><time>2026-04-25T08:42:47.946Z</time></trkpt><trkpt lat="43.73310781618729" lon="11.761660032648088"><ele>348.25</ele><time>2026-04-25T08:42:48.946Z</time></trkpt><trkpt lat="43.733166722059416" lon="11.761463612552166"><ele>348.0</ele><time>2026-04-25T08:42:49.946Z</time></trkpt><trkpt lat="43.73325045634378" lon="11.761270956803774"><ele>348.0</ele><time>2026-04-25T08:42:50.946Z</time></trkpt><trkpt lat="43.73334321246696" lon="11.76107941602582"><ele>348.0</ele><time>2026-04-25T08:42:51.945Z</time></trkpt><trkpt lat="43.73344352825137" lon="11.760899846277523"><ele>348.0</ele><time>2026-04-25T08:42:52.945Z</time></trkpt><trkpt lat="43.733548262836976" lon="11.760725294624885"><ele>348.6666666666667</ele><time>2026-04-25T08:42:53.945Z</time></trkpt><trkpt lat="43.733656324072385" lon="11.760555428511726"><ele>349.33333333333337</ele><time>2026-04-25T08:42:54.945Z</time></trkpt><trkpt lat="43.73375878558871" lon="11.760379702603332"><ele>350.0</ele><time>2026-04-25T08:42:55.945Z</time></trkpt><trkpt lat="43.733852191638796" lon="11.760193839037301"><ele>350.0</ele><time>2026-04-25T08:42:56.945Z</time></trkpt><trkpt lat="43.733932669855825" lon="11.76000364492923"><ele>350.0</ele><time>2026-04-25T08:42:57.945Z</time></trkpt><trkpt lat="43.733997208838545" lon="11.75980032610679"><ele>350.0</ele><time>2026-04-25T08:42:58.945Z</time></trkpt><trkpt lat="43.73405319166292" lon="11.759589208879902"><ele>350.0</ele><time>2026-04-25T08:42:59.945Z</time></trkpt><trkpt lat="43.73412510006664" lon="11.759383733444855"><ele>350.0</ele><time>2026-04-25T08:43:00.945Z</time></trkpt><trkpt lat="43.73418273879502" lon="11.759179428311569"><ele>350.0</ele><time>2026-04-25T08:43:01.944Z</time></trkpt><trkpt lat="43.73424052144662" lon="11.75897709793862"><ele>350.0</ele><time>2026-04-25T08:43:02.944Z</time></trkpt><trkpt lat="43.73429892308874" lon="11.758785371965706"><ele>350.0</ele><time>2026-04-25T08:43:03.944Z</time></trkpt><trkpt lat="43.73435732524897" lon="11.758605192515416"><ele>350.0</ele><time>2026-04-25T08:43:04.944Z</time></trkpt><trkpt lat="43.734420169414285" lon="11.758429699978011"><ele>350.0</ele><time>2026-04-25T08:43:05.944Z</time></trkpt><trkpt lat="43.734493647034796" lon="11.75825481325933"><ele>351.25</ele><time>2026-04-25T08:43:06.945Z</time></trkpt><trkpt lat="43.73457638656784" lon="11.758080464209142"><ele>352.5</ele><time>2026-04-25T08:43:07.945Z</time></trkpt><trkpt lat="43.734668824452754" lon="11.75791518888804"><ele>353.75</ele><time>2026-04-25T08:43:08.945Z</time></trkpt><trkpt lat="43.73477084933593" lon="11.757773271133718"><ele>355.0</ele><time>2026-04-25T08:43:09.944Z</time></trkpt><trkpt lat="43.734870987080285" lon="11.757635569579765"><ele>355.75</ele><time>2026-04-25T08:43:10.945Z</time></trkpt><trkpt lat="43.73496797762667" lon="11.757491637799262"><ele>356.5</ele><time>2026-04-25T08:43:11.945Z</time></trkpt><trkpt lat="43.735044589566186" lon="11.757327636425783"><ele>357.25</ele><time>2026-04-25T08:43:12.945Z</time></trkpt><trkpt lat="43.73510920558786" lon="11.757154430113946"><ele>358.0</ele><time>2026-04-25T08:43:13.944Z</time></trkpt><trkpt lat="43.73517488940046" lon="11.756975711356654"><ele>357.75</ele><time>2026-04-25T08:43:14.944Z</time></trkpt><trkpt lat="43.73524519534412" lon="11.756801947022044"><ele>357.5</ele><time>2026-04-25T08:43:15.944Z</time></trkpt><trkpt lat="43.73533190846339" lon="11.756641002879322"><ele>357.25</ele><time>2026-04-25T08:43:16.944Z</time></trkpt><trkpt lat="43.73542821548" lon="11.75648739614455"><ele>357.0</ele><time>2026-04-25T08:43:17.944Z</time></trkpt><trkpt lat="43.73552549435346" lon="11.756340999835412"><ele>357.0</ele><time>2026-04-25T08:43:18.944Z</time></trkpt><trkpt lat="43.73561867736268" lon="11.756208132978765"><ele>357.0</ele><time>2026-04-25T08:43:19.944Z</time></trkpt><trkpt lat="43.73570986032966" lon="11.756077058747083"><ele>357.0</ele><time>2026-04-25T08:43:20.944Z</time></trkpt><trkpt lat="43.73580187715259" lon="11.755941824939777"><ele>357.0</ele><time>2026-04-25T08:43:21.944Z</time></trkpt><trkpt lat="43.73588963873084" lon="11.755797438967033"><ele>357.0</ele><time>2026-04-25T08:43:22.944Z</time></trkpt><trkpt lat="43.73596913140038" lon="11.755641245347803"><ele>357.0</ele><time>2026-04-25T08:43:23.944Z</time></trkpt><trkpt lat="43.73604412704937" lon="11.755470740672456"><ele>357.0</ele><time>2026-04-25T08:43:24.944Z</time></trkpt><trkpt lat="43.736126400347175" lon="11.755299331539032"><ele>357.0</ele><time>2026-04-25T08:43:25.944Z</time></trkpt><trkpt lat="43.73620742467299" lon="11.755129475110559"><ele>357.0</ele><time>2026-04-25T08:43:26.944Z</time></trkpt><trkpt lat="43.73629526076731" lon="11.75496513610371"><ele>357.0</ele><time>2026-04-25T08:43:27.944Z</time></trkpt><trkpt lat="43.73639168720456" lon="11.754819156240886"><ele>357.0</ele><time>2026-04-25T08:43:28.944Z</time></trkpt><trkpt lat="43.73649944494528" lon="11.75468213982186"><ele>357.0</ele><time>2026-04-25T08:43:29.944Z</time></trkpt><trkpt lat="43.736607050896964" lon="11.754540103190198"><ele>357.0</ele><time>2026-04-25T08:43:30.944Z</time></trkpt><trkpt lat="43.73671274333935" lon="11.754410728423382"><ele>357.0</ele><time>2026-04-25T08:43:31.944Z</time></trkpt><trkpt lat="43.73682207710404" lon="11.754276482418552"><ele>357.0</ele><time>2026-04-25T08:43:32.944Z</time></trkpt><trkpt lat="43.736931643084844" lon="11.754145360386424"><ele>357.0</ele><time>2026-04-25T08:43:33.944Z</time></trkpt><trkpt lat="43.73703366351028" lon="11.75402120045235"><ele>357.5</ele><time>2026-04-25T08:43:34.944Z</time></trkpt><trkpt lat="43.7371291117494" lon="11.753895409715792"><ele>358.0</ele><time>2026-04-25T08:43:35.944Z</time></trkpt><trkpt lat="43.737220584469355" lon="11.753771705615726"><ele>358.5</ele><time>2026-04-25T08:43:36.944Z</time></trkpt><trkpt lat="43.737302508686874" lon="11.753649041517738"><ele>359.0</ele><time>2026-04-25T08:43:37.944Z</time></trkpt><trkpt lat="43.737379436638285" lon="11.753521120995433"><ele>358.79999999999995</ele><time>2026-04-25T08:43:38.944Z</time></trkpt><trkpt lat="43.73745205100688" lon="11.7534130999379"><ele>358.59999999999997</ele><time>2026-04-25T08:43:39.944Z</time></trkpt><trkpt lat="43.73752617672168" lon="11.753314133756813"><ele>358.4</ele><time>2026-04-25T08:43:40.944Z</time></trkpt><trkpt lat="43.73760012666745" lon="11.75322570145969"><ele>358.2</ele><time>2026-04-25T08:43:41.944Z</time></trkpt><trkpt lat="43.73767493596778" lon="11.753154343342626"><ele>358.0</ele><time>2026-04-25T08:43:42.944Z</time></trkpt><trkpt lat="43.737755363242805" lon="11.75310097927655"><ele>358.0</ele><time>2026-04-25T08:43:43.944Z</time></trkpt><trkpt lat="43.73784488115415" lon="11.753079189478768"><ele>358.0</ele><time>2026-04-25T08:43:44.944Z</time></trkpt><trkpt lat="43.73793171450277" lon="11.75310442208455"><ele>358.0</ele><time>2026-04-25T08:43:45.944Z</time></trkpt><trkpt lat="43.73801029640386" lon="11.753116206381199"><ele>358.0</ele><time>2026-04-25T08:43:46.944Z</time></trkpt><trkpt lat="43.73809256536295" lon="11.753079703012045"><ele>358.0</ele><time>2026-04-25T08:43:47.944Z</time></trkpt><trkpt lat="43.73816004448988" lon="11.75301225906031"><ele>358.0</ele><time>2026-04-25T08:43:48.944Z</time></trkpt><trkpt lat="43.73820270147736" lon="11.752920144364667"><ele>358.0</ele><time>2026-04-25T08:43:49.944Z</time></trkpt><trkpt lat="43.738224018710525" lon="11.75279483314485"><ele>358.0</ele><time>2026-04-25T08:43:50.943Z</time></trkpt><trkpt lat="43.73822506829817" lon="11.752663210737337"><ele>358.0</ele><time>2026-04-25T08:43:51.943Z</time></trkpt><trkpt lat="43.73821002881994" lon="11.752532204618985"><ele>358.0</ele><time>2026-04-25T08:43:52.943Z</time></trkpt><trkpt lat="43.73821599735677" lon="11.752406579458594"><ele>358.0</ele><time>2026-04-25T08:43:53.943Z</time></trkpt><trkpt lat="43.73826303175691" lon="11.752267393899206"><ele>358.0</ele><time>2026-04-25T08:43:54.943Z</time></trkpt><trkpt lat="43.73834244631237" lon="11.752116072471201"><ele>358.0</ele><time>2026-04-25T08:43:55.943Z</time></trkpt><trkpt lat="43.73843833674206" lon="11.7519704527961"><ele>358.0</ele><time>2026-04-25T08:43:56.943Z</time></trkpt><trkpt lat="43.73854661363319" lon="11.751824238861479"><ele>358.0</ele><time>2026-04-25T08:43:57.943Z</time></trkpt><trkpt lat="43.73866327729547" lon="11.751676251584113"><ele>358.3333333333333</ele><time>2026-04-25T08:43:58.943Z</time></trkpt><trkpt lat="43.73876934723367" lon="11.751529514086641"><ele>358.6666666666667</ele><time>2026-04-25T08:43:59.943Z</time></trkpt><trkpt lat="43.73887382837142" lon="11.75136290009596"><ele>359.0</ele><time>2026-04-25T08:44:00.943Z</time></trkpt><trkpt lat="43.73898347936276" lon="11.751184298168646"><ele>359.0</ele><time>2026-04-25T08:44:01.943Z</time></trkpt><trkpt lat="43.73909888727497" lon="11.75099176536647"><ele>359.0</ele><time>2026-04-25T08:44:02.943Z</time></trkpt><trkpt lat="43.73922176110393" lon="11.750789832965403"><ele>359.0</ele><time>2026-04-25T08:44:03.943Z</time></trkpt><trkpt lat="43.739338055452286" lon="11.750598808451201"><ele>359.0</ele><time>2026-04-25T08:44:04.943Z</time></trkpt><trkpt lat="43.73945069127385" lon="11.750408335451747"><ele>359.0</ele><time>2026-04-25T08:44:05.943Z</time></trkpt><trkpt lat="43.73956395148268" lon="11.750215645945541"><ele>359.0</ele><time>2026-04-25T08:44:06.943Z</time></trkpt><trkpt lat="43.739681173382316" lon="11.750023670440832"><ele>359.0</ele><time>2026-04-25T08:44:07.943Z</time></trkpt><trkpt lat="43.73981039317537" lon="11.74984171896776"><ele>359.0</ele><time>2026-04-25T08:44:08.943Z</time></trkpt><trkpt lat="43.73994857163226" lon="11.7496775278102"><ele>359.0</ele><time>2026-04-25T08:44:09.943Z</time></trkpt><trkpt lat="43.7400979345719" lon="11.749527994834926"><ele>360.0</ele><time>2026-04-25T08:44:10.943Z</time></trkpt><trkpt lat="43.7402542077307" lon="11.74938395626428"><ele>361.0</ele><time>2026-04-25T08:44:11.943Z</time></trkpt><trkpt lat="43.74040744885487" lon="11.749240622796176"><ele>362.0</ele><time>2026-04-25T08:44:12.943Z</time></trkpt><trkpt lat="43.74056185475686" lon="11.749095165046631"><ele>362.33333333333337</ele><time>2026-04-25T08:44:13.943Z</time></trkpt><trkpt lat="43.74071607515944" lon="11.748945935703635"><ele>362.6666666666667</ele><time>2026-04-25T08:44:14.943Z</time></trkpt><trkpt lat="43.7408728489135" lon="11.74879099724493"><ele>363.0</ele><time>2026-04-25T08:44:15.943Z</time></trkpt><trkpt lat="43.74102839146191" lon="11.74864362691914"><ele>361.6666666666667</ele><time>2026-04-25T08:44:16.943Z</time></trkpt><trkpt lat="43.741176351243226" lon="11.74849812408854"><ele>360.33333333333337</ele><time>2026-04-25T08:44:17.943Z</time></trkpt><trkpt lat="43.74131876595123" lon="11.7483569763954"><ele>359.0</ele><time>2026-04-25T08:44:18.943Z</time></trkpt><trkpt lat="43.74145609566096" lon="11.748212301234636"><ele>359.0</ele><time>2026-04-25T08:44:19.943Z</time></trkpt><trkpt lat="43.741586164873" lon="11.74806378714913"><ele>359.0</ele><time>2026-04-25T08:44:20.943Z</time></trkpt><trkpt lat="43.741722149088915" lon="11.74790135772147"><ele>359.0</ele><time>2026-04-25T08:44:21.943Z</time></trkpt><trkpt lat="43.74186055509308" lon="11.747741240272337"><ele>359.6666666666667</ele><time>2026-04-25T08:44:22.943Z</time></trkpt><trkpt lat="43.742005284323646" lon="11.747570379943078"><ele>360.3333333333333</ele><time>2026-04-25T08:44:23.943Z</time></trkpt><trkpt lat="43.74215120829915" lon="11.747396120909894"><ele>361.0</ele><time>2026-04-25T08:44:24.943Z</time></trkpt><trkpt lat="43.742297090406254" lon="11.74721721392015"><ele>361.0</ele><time>2026-04-25T08:44:25.943Z</time></trkpt><trkpt lat="43.7424446570535" lon="11.747032320756935"><ele>361.0</ele><time>2026-04-25T08:44:26.943Z</time></trkpt><trkpt lat="43.74259009813216" lon="11.746860558924295"><ele>361.0</ele><time>2026-04-25T08:44:27.943Z</time></trkpt><trkpt lat="43.742749857888846" lon="11.746706436274499"><ele>362.0</ele><time>2026-04-25T08:44:28.943Z</time></trkpt><trkpt lat="43.742921910042995" lon="11.746568341286155"><ele>363.0</ele><time>2026-04-25T08:44:29.943Z</time></trkpt><trkpt lat="43.74309203647953" lon="11.746448697269003"><ele>364.0</ele><time>2026-04-25T08:44:30.943Z</time></trkpt><trkpt lat="43.743253152067126" lon="11.746336182727699"><ele>364.0</ele><time>2026-04-25T08:44:31.943Z</time></trkpt><trkpt lat="43.74340199976075" lon="11.746224303245889"><ele>364.0</ele><time>2026-04-25T08:44:32.943Z</time></trkpt><trkpt lat="43.74354500406562" lon="11.746119261833465"><ele>364.0</ele><time>2026-04-25T08:44:33.943Z</time></trkpt><trkpt lat="43.74367735127386" lon="11.746028268191054"><ele>364.0</ele><time>2026-04-25T08:44:34.943Z</time></trkpt><trkpt lat="43.743794385662575" lon="11.74594181416111"><ele>364.0</ele><time>2026-04-25T08:44:35.943Z</time></trkpt><trkpt lat="43.74390563830417" lon="11.745883217873413"><ele>364.0</ele><time>2026-04-25T08:44:36.943Z</time></trkpt><trkpt lat="43.74400732370734" lon="11.745812200992981"><ele>364.0</ele><time>2026-04-25T08:44:37.943Z</time></trkpt><trkpt lat="43.74411852830931" lon="11.745735633461456"><ele>364.0</ele><time>2026-04-25T08:44:38.943Z</time></trkpt><trkpt lat="43.74425118166416" lon="11.745644754639176"><ele>364.0</ele><time>2026-04-25T08:44:39.943Z</time></trkpt><trkpt lat="43.744392771469336" lon="11.745552264665923"><ele>364.0</ele><time>2026-04-25T08:44:40.943Z</time></trkpt><trkpt lat="43.74454266052761" lon="11.74544990288617"><ele>364.3333333333333</ele><time>2026-04-25T08:44:41.943Z</time></trkpt><trkpt lat="43.744698505042045" lon="11.745322906428001"><ele>364.6666666666667</ele><time>2026-04-25T08:44:42.943Z</time></trkpt><trkpt lat="43.74487052580846" lon="11.745202897435956"><ele>365.0</ele><time>2026-04-25T08:44:43.943Z</time></trkpt><trkpt lat="43.745064068161255" lon="11.74506144622802"><ele>365.6666666666667</ele><time>2026-04-25T08:44:44.943Z</time></trkpt><trkpt lat="43.74525430077011" lon="11.744918121767366"><ele>366.3333333333333</ele><time>2026-04-25T08:44:45.943Z</time></trkpt><trkpt lat="43.74543970885071" lon="11.744785449703278"><ele>367.0</ele><time>2026-04-25T08:44:46.943Z</time></trkpt><trkpt lat="43.74561655116499" lon="11.744643802098395"><ele>367.0</ele><time>2026-04-25T08:44:47.943Z</time></trkpt><trkpt lat="43.74579240335053" lon="11.744495607055288"><ele>367.0</ele><time>2026-04-25T08:44:48.943Z</time></trkpt><trkpt lat="43.745967883588136" lon="11.74434402255948"><ele>367.0</ele><time>2026-04-25T08:44:49.943Z</time></trkpt><trkpt lat="43.7461459429692" lon="11.744193669827022"><ele>367.66666666666663</ele><time>2026-04-25T08:44:50.942Z</time></trkpt><trkpt lat="43.74633042548515" lon="11.744056132787007"><ele>368.3333333333333</ele><time>2026-04-25T08:44:51.942Z</time></trkpt><trkpt lat="43.746520587402465" lon="11.743928545880193"><ele>369.0</ele><time>2026-04-25T08:44:52.942Z</time></trkpt><trkpt lat="43.74671304249983" lon="11.743804081254703"><ele>368.6666666666667</ele><time>2026-04-25T08:44:53.942Z</time></trkpt><trkpt lat="43.746910707390185" lon="11.743689290039264"><ele>368.33333333333337</ele><time>2026-04-25T08:44:54.942Z</time></trkpt><trkpt lat="43.747109168358946" lon="11.743571158472774"><ele>368.0</ele><time>2026-04-25T08:44:55.942Z</time></trkpt><trkpt lat="43.747301067473394" lon="11.743444526467284"><ele>367.6666666666667</ele><time>2026-04-25T08:44:56.942Z</time></trkpt><trkpt lat="43.74748091577529" lon="11.743317999266171"><ele>367.3333333333333</ele><time>2026-04-25T08:44:57.942Z</time></trkpt><trkpt lat="43.747667946435776" lon="11.743197913357832"><ele>367.0</ele><time>2026-04-25T08:44:58.942Z</time></trkpt><trkpt lat="43.74785302283425" lon="11.74307710114101"><ele>367.0</ele><time>2026-04-25T08:44:59.942Z</time></trkpt><trkpt lat="43.74803867281679" lon="11.742959229247562"><ele>367.0</ele><time>2026-04-25T08:45:00.942Z</time></trkpt><trkpt lat="43.748225333455856" lon="11.742843256194258"><ele>367.0</ele><time>2026-04-25T08:45:01.942Z</time></trkpt><trkpt lat="43.74841046305561" lon="11.742725256556904"><ele>367.3333333333333</ele><time>2026-04-25T08:45:02.942Z</time></trkpt><trkpt lat="43.74859454435788" lon="11.742606971182987"><ele>367.6666666666667</ele><time>2026-04-25T08:45:03.942Z</time></trkpt><trkpt lat="43.74877705105945" lon="11.742489458637994"><ele>368.0</ele><time>2026-04-25T08:45:04.942Z</time></trkpt><trkpt lat="43.748955753942006" lon="11.742375854029174"><ele>368.0</ele><time>2026-04-25T08:45:05.942Z</time></trkpt><trkpt lat="43.749132997608406" lon="11.742265424733505"><ele>368.0</ele><time>2026-04-25T08:45:06.942Z</time></trkpt><trkpt lat="43.749308250348115" lon="11.742156544539842"><ele>368.0</ele><time>2026-04-25T08:45:07.943Z</time></trkpt><trkpt lat="43.7494823213427" lon="11.742051466201954"><ele>368.6666666666667</ele><time>2026-04-25T08:45:08.943Z</time></trkpt><trkpt lat="43.74965688264469" lon="11.741953445651115"><ele>369.3333333333333</ele><time>2026-04-25T08:45:09.942Z</time></trkpt><trkpt lat="43.74983458561755" lon="11.741872133265844"><ele>370.0</ele><time>2026-04-25T08:45:10.942Z</time></trkpt><trkpt lat="43.75001667940901" lon="11.741799225582009"><ele>370.0</ele><time>2026-04-25T08:45:11.942Z</time></trkpt><trkpt lat="43.7502010563236" lon="11.741732573999307"><ele>370.0</ele><time>2026-04-25T08:45:12.942Z</time></trkpt><trkpt lat="43.7503870898511" lon="11.741664929127538"><ele>370.0</ele><time>2026-04-25T08:45:13.941Z</time></trkpt><trkpt lat="43.75056847980155" lon="11.741578593089791"><ele>371.0</ele><time>2026-04-25T08:45:14.941Z</time></trkpt><trkpt lat="43.75074165194541" lon="11.741468016905655"><ele>372.0</ele><time>2026-04-25T08:45:15.942Z</time></trkpt><trkpt lat="43.75090591943624" lon="11.74133721665354"><ele>373.0</ele><time>2026-04-25T08:45:16.942Z</time></trkpt><trkpt lat="43.751072442654795" lon="11.741201738350671"><ele>373.0</ele><time>2026-04-25T08:45:17.942Z</time></trkpt><trkpt lat="43.75123111357742" lon="11.741052155035987"><ele>373.0</ele><time>2026-04-25T08:45:18.942Z</time></trkpt><trkpt lat="43.75139631224307" lon="11.740898958863655"><ele>373.0</ele><time>2026-04-25T08:45:19.942Z</time></trkpt><trkpt lat="43.751562305836806" lon="11.740740673884487"><ele>373.0</ele><time>2026-04-25T08:45:20.942Z</time></trkpt><trkpt lat="43.75173143041834" lon="11.740583288679266"><ele>373.0</ele><time>2026-04-25T08:45:21.942Z</time></trkpt><trkpt lat="43.751901853957236" lon="11.74042676055656"><ele>373.0</ele><time>2026-04-25T08:45:22.941Z</time></trkpt><trkpt lat="43.752071885105735" lon="11.740270351893551"><ele>373.0</ele><time>2026-04-25T08:45:23.941Z</time></trkpt><trkpt lat="43.752243192547304" lon="11.740116532331822"><ele>373.0</ele><time>2026-04-25T08:45:24.941Z</time></trkpt><trkpt lat="43.75241347976334" lon="11.739960080365965"><ele>373.0</ele><time>2026-04-25T08:45:25.941Z</time></trkpt><trkpt lat="43.75258238253617" lon="11.739803281519615"><ele>373.0</ele><time>2026-04-25T08:45:26.941Z</time></trkpt><trkpt lat="43.752749903100565" lon="11.739649539532225"><ele>373.0</ele><time>2026-04-25T08:45:27.941Z</time></trkpt><trkpt lat="43.75291769738063" lon="11.739496181739193"><ele>373.0</ele><time>2026-04-25T08:45:28.941Z</time></trkpt><trkpt lat="43.75308516252537" lon="11.739342707626657"><ele>373.0</ele><time>2026-04-25T08:45:29.941Z</time></trkpt><trkpt lat="43.753251302222104" lon="11.739190256979935"><ele>373.0</ele><time>2026-04-25T08:45:30.941Z</time></trkpt><trkpt lat="43.75341705438357" lon="11.739040106854834"><ele>373.0</ele><time>2026-04-25T08:45:31.941Z</time></trkpt><trkpt lat="43.75358317148655" lon="11.738890110378975"><ele>373.66666666666663</ele><time>2026-04-25T08:45:32.941Z</time></trkpt><trkpt lat="43.753746988667345" lon="11.738737411278455"><ele>374.3333333333333</ele><time>2026-04-25T08:45:33.941Z</time></trkpt><trkpt lat="43.75391270070792" lon="11.738583872944632"><ele>375.0</ele><time>2026-04-25T08:45:34.941Z</time></trkpt><trkpt lat="43.75407828666033" lon="11.738432828173496"><ele>375.0</ele><time>2026-04-25T08:45:35.941Z</time></trkpt><trkpt lat="43.754245724920274" lon="11.73828250036517"><ele>375.0</ele><time>2026-04-25T08:45:36.941Z</time></trkpt><trkpt lat="43.75441021851162" lon="11.73813048122824"><ele>375.0</ele><time>2026-04-25T08:45:37.941Z</time></trkpt><trkpt lat="43.75457303765376" lon="11.737978013575844"><ele>375.0</ele><time>2026-04-25T08:45:38.941Z</time></trkpt><trkpt lat="43.75473679614383" lon="11.737827370151733"><ele>375.0</ele><time>2026-04-25T08:45:39.941Z</time></trkpt><trkpt lat="43.7549058324803" lon="11.7376897377754"><ele>375.0</ele><time>2026-04-25T08:45:40.941Z</time></trkpt><trkpt lat="43.755059835712544" lon="11.737546503000875"><ele>375.0</ele><time>2026-04-25T08:45:41.941Z</time></trkpt><trkpt lat="43.75520258412842" lon="11.73740264397179"><ele>375.0</ele><time>2026-04-25T08:45:42.941Z</time></trkpt><trkpt lat="43.755344562689984" lon="11.737282231411802"><ele>375.0</ele><time>2026-04-25T08:45:43.941Z</time></trkpt><trkpt lat="43.75546957163723" lon="11.737141317276055"><ele>375.5</ele><time>2026-04-25T08:45:44.941Z</time></trkpt><trkpt lat="43.75558551740093" lon="11.737005785583555"><ele>376.0</ele><time>2026-04-25T08:45:45.941Z</time></trkpt><trkpt lat="43.755696437086826" lon="11.73687629925753"><ele>376.5</ele><time>2026-04-25T08:45:46.941Z</time></trkpt><trkpt lat="43.75580637020258" lon="11.73675838997188"><ele>377.0</ele><time>2026-04-25T08:45:47.941Z</time></trkpt><trkpt lat="43.755913653687465" lon="11.73665508057685"><ele>377.0</ele><time>2026-04-25T08:45:48.941Z</time></trkpt><trkpt lat="43.75601855556274" lon="11.736568099268082"><ele>377.0</ele><time>2026-04-25T08:45:49.941Z</time></trkpt><trkpt lat="43.75612736688366" lon="11.73650721403149"><ele>377.0</ele><time>2026-04-25T08:45:50.941Z</time></trkpt><trkpt lat="43.756242351646506" lon="11.736468851627931"><ele>377.0</ele><time>2026-04-25T08:45:51.941Z</time></trkpt><trkpt lat="43.756352558057664" lon="11.736457061214443"><ele>377.6</ele><time>2026-04-25T08:45:52.941Z</time></trkpt><trkpt lat="43.75645603527762" lon="11.736461361369576"><ele>378.20000000000005</ele><time>2026-04-25T08:45:53.941Z</time></trkpt><trkpt lat="43.756555910936974" lon="11.736470047997274"><ele>378.8</ele><time>2026-04-25T08:45:54.941Z</time></trkpt><trkpt lat="43.75666131041101" lon="11.73648447026024"><ele>379.4</ele><time>2026-04-25T08:45:55.941Z</time></trkpt><trkpt lat="43.756770895332785" lon="11.736493123711583"><ele>380.0</ele><time>2026-04-25T08:45:56.941Z</time></trkpt><trkpt lat="43.75688608797831" lon="11.736491144327719"><ele>380.75</ele><time>2026-04-25T08:45:57.941Z</time></trkpt><trkpt lat="43.75700704947016" lon="11.736460334232275"><ele>381.5</ele><time>2026-04-25T08:45:58.941Z</time></trkpt><trkpt lat="43.757133518558014" lon="11.736393314768446"><ele>382.25</ele><time>2026-04-25T08:45:59.941Z</time></trkpt><trkpt lat="43.757263843426166" lon="11.7363125672954"><ele>383.0</ele><time>2026-04-25T08:46:00.941Z</time></trkpt><trkpt lat="43.75739543354337" lon="11.736225825264489"><ele>383.0</ele><time>2026-04-25T08:46:01.941Z</time></trkpt><trkpt lat="43.75753891271596" lon="11.736138967876512"><ele>383.0</ele><time>2026-04-25T08:46:02.941Z</time></trkpt><trkpt lat="43.757690777884875" lon="11.736045017980462"><ele>383.0</ele><time>2026-04-25T08:46:03.941Z</time></trkpt><trkpt lat="43.75784785855835" lon="11.735954583968812"><ele>382.6666666666667</ele><time>2026-04-25T08:46:04.941Z</time></trkpt><trkpt lat="43.75800867524319" lon="11.735862887402144"><ele>382.3333333333333</ele><time>2026-04-25T08:46:05.941Z</time></trkpt><trkpt lat="43.758170255123254" lon="11.735765115968192"><ele>382.0</ele><time>2026-04-25T08:46:06.941Z</time></trkpt><trkpt lat="43.7583374685913" lon="11.735660052128777"><ele>382.0</ele><time>2026-04-25T08:46:07.941Z</time></trkpt><trkpt lat="43.758505597559186" lon="11.735565955830124"><ele>382.0</ele><time>2026-04-25T08:46:08.941Z</time></trkpt><trkpt lat="43.758672062364816" lon="11.735472010816295"><ele>382.0</ele><time>2026-04-25T08:46:09.941Z</time></trkpt><trkpt lat="43.75883036829614" lon="11.735375776385192"><ele>383.3333333333333</ele><time>2026-04-25T08:46:10.941Z</time></trkpt><trkpt lat="43.758976753951835" lon="11.735286068392163"><ele>384.66666666666663</ele><time>2026-04-25T08:46:11.941Z</time></trkpt><trkpt lat="43.75912873745483" lon="11.735204106119122"><ele>386.0</ele><time>2026-04-25T08:46:12.941Z</time></trkpt><trkpt lat="43.75927391363292" lon="11.735118378788723"><ele>387.3333333333333</ele><time>2026-04-25T08:46:13.941Z</time></trkpt><trkpt lat="43.759420682391436" lon="11.735038148172494"><ele>388.66666666666663</ele><time>2026-04-25T08:46:14.941Z</time></trkpt><trkpt lat="43.759563222776855" lon="11.734955002546668"><ele>390.0</ele><time>2026-04-25T08:46:15.941Z</time></trkpt><trkpt lat="43.75970660986156" lon="11.734869378757685"><ele>390.0</ele><time>2026-04-25T08:46:16.941Z</time></trkpt><trkpt lat="43.75984786936585" lon="11.734782814756652"><ele>390.0</ele><time>2026-04-25T08:46:17.941Z</time></trkpt><trkpt lat="43.75999121017523" lon="11.734691081127393"><ele>390.0</ele><time>2026-04-25T08:46:18.941Z</time></trkpt><trkpt lat="43.76013283940327" lon="11.73460369489288"><ele>390.66666666666663</ele><time>2026-04-25T08:46:19.941Z</time></trkpt><trkpt lat="43.76027447742646" lon="11.734515440129803"><ele>391.3333333333333</ele><time>2026-04-25T08:46:20.941Z</time></trkpt><trkpt lat="43.76040601789184" lon="11.734412742452928"><ele>392.0</ele><time>2026-04-25T08:46:21.941Z</time></trkpt><trkpt lat="43.76053576013625" lon="11.734294098957513"><ele>392.0</ele><time>2026-04-25T08:46:22.94Z</time></trkpt><trkpt lat="43.760657098113626" lon="11.734157430757215"><ele>392.0</ele><time>2026-04-25T08:46:23.94Z</time></trkpt><trkpt lat="43.760773650557454" lon="11.73401454323916"><ele>392.0</ele><time>2026-04-25T08:46:24.94Z</time></trkpt><trkpt lat="43.760890547046436" lon="11.73385423333323"><ele>392.0</ele><time>2026-04-25T08:46:25.94Z</time></trkpt><trkpt lat="43.76101289719635" lon="11.733702237630983"><ele>392.0</ele><time>2026-04-25T08:46:26.94Z</time></trkpt><trkpt lat="43.76114304132157" lon="11.733566295938894"><ele>392.0</ele><time>2026-04-25T08:46:27.94Z</time></trkpt><trkpt lat="43.76128830023695" lon="11.733450593056602"><ele>392.3333333333333</ele><time>2026-04-25T08:46:28.94Z</time></trkpt><trkpt lat="43.761442063810215" lon="11.73336197803461"><ele>392.66666666666663</ele><time>2026-04-25T08:46:29.94Z</time></trkpt><trkpt lat="43.76160517252145" lon="11.733299434281802"><ele>393.0</ele><time>2026-04-25T08:46:30.94Z</time></trkpt><trkpt lat="43.761774471212654" lon="11.733247510760727"><ele>393.66666666666663</ele><time>2026-04-25T08:46:31.94Z</time></trkpt><trkpt lat="43.76194708736267" lon="11.733197809571122"><ele>394.3333333333333</ele><time>2026-04-25T08:46:32.94Z</time></trkpt><trkpt lat="43.762121803591356" lon="11.73314099519545"><ele>395.0</ele><time>2026-04-25T08:46:33.94Z</time></trkpt><trkpt lat="43.76230235779296" lon="11.733077025387734"><ele>395.0</ele><time>2026-04-25T08:46:34.94Z</time></trkpt><trkpt lat="43.76247419708792" lon="11.73300507388971"><ele>395.0</ele><time>2026-04-25T08:46:35.94Z</time></trkpt><trkpt lat="43.762657493464445" lon="11.73293230111818"><ele>395.0</ele><time>2026-04-25T08:46:36.94Z</time></trkpt><trkpt lat="43.76283440408989" lon="11.732861460527696"><ele>395.66666666666663</ele><time>2026-04-25T08:46:37.94Z</time></trkpt><trkpt lat="43.76300296233331" lon="11.73280008662646"><ele>396.33333333333337</ele><time>2026-04-25T08:46:38.94Z</time></trkpt><trkpt lat="43.76316785917467" lon="11.732738100424648"><ele>397.0</ele><time>2026-04-25T08:46:39.94Z</time></trkpt><trkpt lat="43.763336873446455" lon="11.732675769220652"><ele>397.33333333333337</ele><time>2026-04-25T08:46:40.94Z</time></trkpt><trkpt lat="43.76350441910027" lon="11.732616212428344"><ele>397.66666666666663</ele><time>2026-04-25T08:46:41.94Z</time></trkpt><trkpt lat="43.76367589706323" lon="11.732561911531866"><ele>398.0</ele><time>2026-04-25T08:46:42.94Z</time></trkpt><trkpt lat="43.76384620640242" lon="11.732507540909172"><ele>398.0</ele><time>2026-04-25T08:46:43.94Z</time></trkpt><trkpt lat="43.76401519353449" lon="11.73244867765415"><ele>398.0</ele><time>2026-04-25T08:46:44.94Z</time></trkpt><trkpt lat="43.76417962872595" lon="11.73238542361121"><ele>398.0</ele><time>2026-04-25T08:46:45.94Z</time></trkpt><trkpt lat="43.764345651273025" lon="11.732324641648955"><ele>398.66666666666663</ele><time>2026-04-25T08:46:46.94Z</time></trkpt><trkpt lat="43.76451042429481" lon="11.732259647827531"><ele>399.33333333333337</ele><time>2026-04-25T08:46:47.94Z</time></trkpt><trkpt lat="43.76467461974227" lon="11.732186693777331"><ele>400.0</ele><time>2026-04-25T08:46:48.94Z</time></trkpt><trkpt lat="43.7648262079745" lon="11.732102742902223"><ele>400.0</ele><time>2026-04-25T08:46:49.94Z</time></trkpt><trkpt lat="43.764967769014255" lon="11.732000012406877"><ele>400.0</ele><time>2026-04-25T08:46:50.94Z</time></trkpt><trkpt lat="43.76510981499877" lon="11.731872109845467"><ele>400.0</ele><time>2026-04-25T08:46:51.94Z</time></trkpt><trkpt lat="43.76525498301187" lon="11.731739181505521"><ele>401.0</ele><time>2026-04-25T08:46:52.94Z</time></trkpt><trkpt lat="43.76540326964228" lon="11.731605343211754"><ele>402.0</ele><time>2026-04-25T08:46:53.94Z</time></trkpt><trkpt lat="43.76555393671428" lon="11.73147567500748"><ele>403.0</ele><time>2026-04-25T08:46:54.94Z</time></trkpt><trkpt lat="43.765705520932414" lon="11.73135461445742"><ele>403.0</ele><time>2026-04-25T08:46:55.94Z</time></trkpt><trkpt lat="43.765862947715334" lon="11.731242702034715"><ele>403.0</ele><time>2026-04-25T08:46:56.94Z</time></trkpt><trkpt lat="43.76603035651636" lon="11.731140332240098"><ele>403.0</ele><time>2026-04-25T08:46:57.94Z</time></trkpt><trkpt lat="43.76620677668517" lon="11.73104558886009"><ele>402.33333333333337</ele><time>2026-04-25T08:46:58.94Z</time></trkpt><trkpt lat="43.766383598447554" lon="11.730941240423679"><ele>401.66666666666663</ele><time>2026-04-25T08:46:59.94Z</time></trkpt><trkpt lat="43.76656004336685" lon="11.730833383065955"><ele>401.0</ele><time>2026-04-25T08:47:00.94Z</time></trkpt><trkpt lat="43.76674239340198" lon="11.73073572780958"><ele>402.66666666666663</ele><time>2026-04-25T08:47:01.94Z</time></trkpt><trkpt lat="43.76692673753609" lon="11.730653647942145"><ele>404.33333333333337</ele><time>2026-04-25T08:47:02.94Z</time></trkpt><trkpt lat="43.767114114299865" lon="11.730588322872114"><ele>406.0</ele><time>2026-04-25T08:47:03.94Z</time></trkpt><trkpt lat="43.76730327948486" lon="11.730531976880448"><ele>406.0</ele><time>2026-04-25T08:47:04.94Z</time></trkpt><trkpt lat="43.76748392220456" lon="11.73049623692044"><ele>406.0</ele><time>2026-04-25T08:47:05.94Z</time></trkpt><trkpt lat="43.7676660684248" lon="11.730472335624482"><ele>406.0</ele><time>2026-04-25T08:47:06.94Z</time></trkpt><trkpt lat="43.76784540337183" lon="11.730458295223197"><ele>406.33333333333337</ele><time>2026-04-25T08:47:07.94Z</time></trkpt><trkpt lat="43.76803129799016" lon="11.730457722849657"><ele>406.66666666666663</ele><time>2026-04-25T08:47:08.94Z</time></trkpt><trkpt lat="43.768216244547986" lon="11.730460130756843"><ele>407.0</ele><time>2026-04-25T08:47:09.94Z</time></trkpt><trkpt lat="43.768402675269556" lon="11.730445503827324"><ele>406.66666666666663</ele><time>2026-04-25T08:47:10.94Z</time></trkpt><trkpt lat="43.76858819971191" lon="11.730401083677938"><ele>406.33333333333337</ele><time>2026-04-25T08:47:11.94Z</time></trkpt><trkpt lat="43.76876947516485" lon="11.730335080758175"><ele>406.0</ele><time>2026-04-25T08:47:12.939Z</time></trkpt><trkpt lat="43.768947640481095" lon="11.730252314602016"><ele>404.33333333333337</ele><time>2026-04-25T08:47:13.94Z</time></trkpt><trkpt lat="43.76912841485014" lon="11.730160802244322"><ele>402.66666666666663</ele><time>2026-04-25T08:47:14.94Z</time></trkpt><trkpt lat="43.76930422238493" lon="11.730066670548402"><ele>401.0</ele><time>2026-04-25T08:47:15.939Z</time></trkpt><trkpt lat="43.76949099630272" lon="11.730005878780355"><ele>401.0</ele><time>2026-04-25T08:47:16.939Z</time></trkpt><trkpt lat="43.76965990369677" lon="11.729912748581976"><ele>401.0</ele><time>2026-04-25T08:47:17.939Z</time></trkpt><trkpt lat="43.76981954131394" lon="11.729829181794571"><ele>401.0</ele><time>2026-04-25T08:47:18.939Z</time></trkpt><trkpt lat="43.769974944642215" lon="11.729754617522474"><ele>401.0</ele><time>2026-04-25T08:47:19.939Z</time></trkpt><trkpt lat="43.77012705287439" lon="11.729687003083269"><ele>401.0</ele><time>2026-04-25T08:47:20.939Z</time></trkpt><trkpt lat="43.77027428908645" lon="11.729622190574913"><ele>401.0</ele><time>2026-04-25T08:47:21.94Z</time></trkpt><trkpt lat="43.7704218598311" lon="11.729571597847695"><ele>401.5</ele><time>2026-04-25T08:47:22.939Z</time></trkpt><trkpt lat="43.77056505497692" lon="11.729524054278311"><ele>402.0</ele><time>2026-04-25T08:47:23.939Z</time></trkpt><trkpt lat="43.770699415887464" lon="11.729484578026232"><ele>402.5</ele><time>2026-04-25T08:47:24.939Z</time></trkpt><trkpt lat="43.77083028097551" lon="11.729439891125223"><ele>403.0</ele><time>2026-04-25T08:47:25.939Z</time></trkpt><trkpt lat="43.77094437767132" lon="11.729389589632794"><ele>403.5</ele><time>2026-04-25T08:47:26.939Z</time></trkpt><trkpt lat="43.77105253111263" lon="11.729319971451565"><ele>404.0</ele><time>2026-04-25T08:47:27.939Z</time></trkpt><trkpt lat="43.771146451284025" lon="11.729229986745771"><ele>404.5</ele><time>2026-04-25T08:47:28.939Z</time></trkpt><trkpt lat="43.77123323839193" lon="11.729121871307598"><ele>405.0</ele><time>2026-04-25T08:47:29.939Z</time></trkpt><trkpt lat="43.771305211319884" lon="11.728984866085328"><ele>405.0</ele><time>2026-04-25T08:47:30.939Z</time></trkpt><trkpt lat="43.7713857165231" lon="11.728862943327307"><ele>405.0</ele><time>2026-04-25T08:47:31.939Z</time></trkpt><trkpt lat="43.77148426129616" lon="11.728777772036821"><ele>405.0</ele><time>2026-04-25T08:47:32.939Z</time></trkpt><trkpt lat="43.77161277681153" lon="11.728702566061735"><ele>405.0</ele><time>2026-04-25T08:47:33.939Z</time></trkpt><trkpt lat="43.77176704586786" lon="11.728623351610738"><ele>403.0</ele><time>2026-04-25T08:47:34.939Z</time></trkpt><trkpt lat="43.77192566442254" lon="11.728533453816928"><ele>401.0</ele><time>2026-04-25T08:47:35.939Z</time></trkpt><trkpt lat="43.772083785382534" lon="11.72844671742168"><ele>399.0</ele><time>2026-04-25T08:47:36.939Z</time></trkpt><trkpt lat="43.77224540862464" lon="11.728358105216197"><ele>399.0</ele><time>2026-04-25T08:47:37.939Z</time></trkpt><trkpt lat="43.77240590268885" lon="11.728274652440597"><ele>399.0</ele><time>2026-04-25T08:47:38.939Z</time></trkpt><trkpt lat="43.77256488742392" lon="11.72818088932649"><ele>399.0</ele><time>2026-04-25T08:47:39.939Z</time></trkpt><trkpt lat="43.77274020626832" lon="11.728094884124646"><ele>401.33333333333337</ele><time>2026-04-25T08:47:40.939Z</time></trkpt><trkpt lat="43.77290592867324" lon="11.727996588678602"><ele>403.6666666666667</ele><time>2026-04-25T08:47:41.939Z</time></trkpt><trkpt lat="43.7730677131641" lon="11.727894863139761"><ele>406.0</ele><time>2026-04-25T08:47:42.939Z</time></trkpt><trkpt lat="43.77323317581523" lon="11.727797463681817"><ele>404.6666666666667</ele><time>2026-04-25T08:47:43.939Z</time></trkpt><trkpt lat="43.773389178546026" lon="11.727674290814912"><ele>403.33333333333337</ele><time>2026-04-25T08:47:44.939Z</time></trkpt><trkpt lat="43.77354633889845" lon="11.727558245708442"><ele>402.0</ele><time>2026-04-25T08:47:45.939Z</time></trkpt><trkpt lat="43.77370733592137" lon="11.727443271131465"><ele>402.0</ele><time>2026-04-25T08:47:46.939Z</time></trkpt><trkpt lat="43.77387267190811" lon="11.727319974818482"><ele>402.0</ele><time>2026-04-25T08:47:47.939Z</time></trkpt><trkpt lat="43.774043429461265" lon="11.727209767127036"><ele>402.0</ele><time>2026-04-25T08:47:48.939Z</time></trkpt><trkpt lat="43.774213702842935" lon="11.72708044768403"><ele>402.0</ele><time>2026-04-25T08:47:49.939Z</time></trkpt><trkpt lat="43.774388643049406" lon="11.726958053188804"><ele>402.0</ele><time>2026-04-25T08:47:50.939Z</time></trkpt><trkpt lat="43.774563801654494" lon="11.726832621237643"><ele>402.0</ele><time>2026-04-25T08:47:51.939Z</time></trkpt><trkpt lat="43.77474053982042" lon="11.726710180922689"><ele>402.0</ele><time>2026-04-25T08:47:52.939Z</time></trkpt><trkpt lat="43.77491246497499" lon="11.726584484194941"><ele>402.0</ele><time>2026-04-25T08:47:53.939Z</time></trkpt><trkpt lat="43.775082779389756" lon="11.726458411629189"><ele>402.0</ele><time>2026-04-25T08:47:54.939Z</time></trkpt><trkpt lat="43.77525077833682" lon="11.726336560439773"><ele>400.66666666666663</ele><time>2026-04-25T08:47:55.939Z</time></trkpt><trkpt lat="43.77541116674734" lon="11.726211429071048"><ele>399.3333333333333</ele><time>2026-04-25T08:47:56.939Z</time></trkpt><trkpt lat="43.77557142307938" lon="11.726096457536213"><ele>398.0</ele><time>2026-04-25T08:47:57.939Z</time></trkpt><trkpt lat="43.775732106563616" lon="11.725980020393996"><ele>398.0</ele><time>2026-04-25T08:47:58.939Z</time></trkpt><trkpt lat="43.77588874337437" lon="11.725859617019655"><ele>398.0</ele><time>2026-04-25T08:47:59.939Z</time></trkpt><trkpt lat="43.77604437513728" lon="11.72574807590066"><ele>398.0</ele><time>2026-04-25T08:48:00.939Z</time></trkpt><trkpt lat="43.77619934129496" lon="11.725647773470762"><ele>401.0</ele><time>2026-04-25T08:48:01.939Z</time></trkpt><trkpt lat="43.776350028499834" lon="11.72553729471474"><ele>404.0</ele><time>2026-04-25T08:48:02.939Z</time></trkpt><trkpt lat="43.77649979596756" lon="11.725427627769493"><ele>407.0</ele><time>2026-04-25T08:48:03.939Z</time></trkpt><trkpt lat="43.77665165790673" lon="11.725320992844154"><ele>405.0</ele><time>2026-04-25T08:48:04.939Z</time></trkpt><trkpt lat="43.77681355306321" lon="11.725227900589744"><ele>403.0</ele><time>2026-04-25T08:48:05.938Z</time></trkpt><trkpt lat="43.77698300559467" lon="11.725147796968276"><ele>401.0</ele><time>2026-04-25T08:48:06.938Z</time></trkpt><trkpt lat="43.777158760462825" lon="11.725085358861174"><ele>401.0</ele><time>2026-04-25T08:48:07.938Z</time></trkpt><trkpt lat="43.77733460600718" lon="11.72503059135382"><ele>401.0</ele><time>2026-04-25T08:48:08.938Z</time></trkpt><trkpt lat="43.77750761097099" lon="11.724994073329448"><ele>401.0</ele><time>2026-04-25T08:48:09.938Z</time></trkpt><trkpt lat="43.77767227346183" lon="11.724971856825698"><ele>401.66666666666663</ele><time>2026-04-25T08:48:10.938Z</time></trkpt><trkpt lat="43.7778318609515" lon="11.724954485139339"><ele>402.33333333333337</ele><time>2026-04-25T08:48:11.938Z</time></trkpt><trkpt lat="43.77799244715854" lon="11.724933454402896"><ele>403.0</ele><time>2026-04-25T08:48:12.938Z</time></trkpt><trkpt lat="43.778156195148064" lon="11.724923477462758"><ele>403.0</ele><time>2026-04-25T08:48:13.938Z</time></trkpt><trkpt lat="43.77830673390208" lon="11.724954314637836"><ele>403.0</ele><time>2026-04-25T08:48:14.938Z</time></trkpt><trkpt lat="43.778452191044586" lon="11.724970482913589"><ele>403.0</ele><time>2026-04-25T08:48:15.938Z</time></trkpt><trkpt lat="43.77858417119099" lon="11.724981644643178"><ele>403.0</ele><time>2026-04-25T08:48:16.938Z</time></trkpt><trkpt lat="43.77870240778056" lon="11.724972733518817"><ele>403.4</ele><time>2026-04-25T08:48:17.938Z</time></trkpt><trkpt lat="43.77880987894437" lon="11.725000103034795"><ele>403.79999999999995</ele><time>2026-04-25T08:48:18.938Z</time></trkpt><trkpt lat="43.778912103041925" lon="11.725038934046596"><ele>404.2</ele><time>2026-04-25T08:48:19.938Z</time></trkpt><trkpt lat="43.77901431021767" lon="11.725044784429631"><ele>404.6</ele><time>2026-04-25T08:48:20.938Z</time></trkpt><trkpt lat="43.77912601852697" lon="11.725028101920564"><ele>405.0</ele><time>2026-04-25T08:48:21.938Z</time></trkpt><trkpt lat="43.77924437564675" lon="11.725006039651218"><ele>405.25</ele><time>2026-04-25T08:48:22.938Z</time></trkpt><trkpt lat="43.77936282482483" lon="11.72501582765007"><ele>405.5</ele><time>2026-04-25T08:48:23.938Z</time></trkpt><trkpt lat="43.77948038667892" lon="11.725032451331488"><ele>405.75</ele><time>2026-04-25T08:48:24.938Z</time></trkpt><trkpt lat="43.77961119914083" lon="11.725039668943618"><ele>406.0</ele><time>2026-04-25T08:48:25.938Z</time></trkpt><trkpt lat="43.77976041164757" lon="11.72504385762384"><ele>406.0</ele><time>2026-04-25T08:48:26.938Z</time></trkpt><trkpt lat="43.77991194069708" lon="11.72500379272928"><ele>406.0</ele><time>2026-04-25T08:48:27.938Z</time></trkpt><trkpt lat="43.78004368461971" lon="11.724900136044795"><ele>406.0</ele><time>2026-04-25T08:48:28.938Z</time></trkpt><trkpt lat="43.78018245799475" lon="11.724794712908837"><ele>406.33333333333337</ele><time>2026-04-25T08:48:29.938Z</time></trkpt><trkpt lat="43.78033547409356" lon="11.724716795421067"><ele>406.66666666666663</ele><time>2026-04-25T08:48:30.938Z</time></trkpt><trkpt lat="43.78047375567402" lon="11.7246170827408"><ele>407.0</ele><time>2026-04-25T08:48:31.938Z</time></trkpt><trkpt lat="43.780606604530256" lon="11.724516937860413"><ele>407.0</ele><time>2026-04-25T08:48:32.938Z</time></trkpt><trkpt lat="43.78073979155953" lon="11.724411412225026"><ele>407.0</ele><time>2026-04-25T08:48:33.938Z</time></trkpt><trkpt lat="43.780870691736034" lon="11.724319331049644"><ele>407.0</ele><time>2026-04-25T08:48:34.938Z</time></trkpt><trkpt lat="43.7809942683056" lon="11.72422501888352"><ele>407.0</ele><time>2026-04-25T08:48:35.938Z</time></trkpt><trkpt lat="43.78112265516456" lon="11.724133727524082"><ele>407.25</ele><time>2026-04-25T08:48:36.938Z</time></trkpt><trkpt lat="43.78124899136802" lon="11.724039129679943"><ele>407.5</ele><time>2026-04-25T08:48:37.938Z</time></trkpt><trkpt lat="43.78137020553156" lon="11.723934665147656"><ele>407.75</ele><time>2026-04-25T08:48:38.938Z</time></trkpt><trkpt lat="43.78148658983286" lon="11.723828248632996"><ele>408.0</ele><time>2026-04-25T08:48:39.938Z</time></trkpt><trkpt lat="43.781603248724025" lon="11.723721446251622"><ele>408.0</ele><time>2026-04-25T08:48:40.938Z</time></trkpt><trkpt lat="43.781721875550595" lon="11.723614526476252"><ele>408.0</ele><time>2026-04-25T08:48:41.938Z</time></trkpt><trkpt lat="43.78184099891069" lon="11.72350118129506"><ele>408.0</ele><time>2026-04-25T08:48:42.938Z</time></trkpt><trkpt lat="43.78196116151543" lon="11.723389082446193"><ele>408.0</ele><time>2026-04-25T08:48:43.938Z</time></trkpt><trkpt lat="43.782079942726874" lon="11.723269157638171"><ele>408.5</ele><time>2026-04-25T08:48:44.938Z</time></trkpt><trkpt lat="43.78219573886683" lon="11.723161469658336"><ele>409.0</ele><time>2026-04-25T08:48:45.938Z</time></trkpt><trkpt lat="43.78230183159707" lon="11.723054046839382"><ele>409.5</ele><time>2026-04-25T08:48:46.938Z</time></trkpt><trkpt lat="43.78240275596029" lon="11.722952607073404"><ele>410.0</ele><time>2026-04-25T08:48:47.938Z</time></trkpt><trkpt lat="43.782509261839685" lon="11.722872430700173"><ele>410.0</ele><time>2026-04-25T08:48:48.938Z</time></trkpt><trkpt lat="43.78261821462418" lon="11.722802480139938"><ele>410.0</ele><time>2026-04-25T08:48:49.938Z</time></trkpt><trkpt lat="43.78274916124745" lon="11.722772280302248"><ele>410.0</ele><time>2026-04-25T08:48:50.938Z</time></trkpt><trkpt lat="43.78288482088756" lon="11.722723881172056"><ele>410.0</ele><time>2026-04-25T08:48:51.938Z</time></trkpt><trkpt lat="43.78303436128627" lon="11.72269150914632"><ele>410.25</ele><time>2026-04-25T08:48:52.938Z</time></trkpt><trkpt lat="43.78317528245478" lon="11.722650178312398"><ele>410.5</ele><time>2026-04-25T08:48:53.938Z</time></trkpt><trkpt lat="43.78330792223743" lon="11.722610642811322"><ele>410.75</ele><time>2026-04-25T08:48:54.938Z</time></trkpt><trkpt lat="43.783438838459595" lon="11.722572072487516"><ele>411.0</ele><time>2026-04-25T08:48:55.938Z</time></trkpt><trkpt lat="43.78356763902239" lon="11.722534518135605"><ele>411.0</ele><time>2026-04-25T08:48:56.938Z</time></trkpt><trkpt lat="43.78369823143881" lon="11.72249828927072"><ele>411.0</ele><time>2026-04-25T08:48:57.938Z</time></trkpt><trkpt lat="43.783828289688635" lon="11.722453981306634"><ele>411.0</ele><time>2026-04-25T08:48:58.938Z</time></trkpt><trkpt lat="43.78396792436443" lon="11.722424127414005"><ele>411.0</ele><time>2026-04-25T08:48:59.938Z</time></trkpt><trkpt lat="43.78409073717721" lon="11.72238945718935"><ele>411.0</ele><time>2026-04-25T08:49:00.938Z</time></trkpt><trkpt lat="43.78421276645589" lon="11.722363557683881"><ele>411.0</ele><time>2026-04-25T08:49:01.938Z</time></trkpt><trkpt lat="43.78432035571294" lon="11.722343816524852"><ele>411.0</ele><time>2026-04-25T08:49:02.938Z</time></trkpt><trkpt lat="43.78440921550066" lon="11.722328169063285"><ele>411.0</ele><time>2026-04-25T08:49:03.938Z</time></trkpt><trkpt lat="43.78449916413709" lon="11.72231638068988"><ele>411.0</ele><time>2026-04-25T08:49:04.938Z</time></trkpt><trkpt lat="43.7846047283519" lon="11.722323209077539"><ele>411.75</ele><time>2026-04-25T08:49:05.937Z</time></trkpt><trkpt lat="43.784711070904144" lon="11.72234251960033"><ele>412.5</ele><time>2026-04-25T08:49:06.937Z</time></trkpt><trkpt lat="43.784830351335984" lon="11.722377608796933"><ele>413.25</ele><time>2026-04-25T08:49:07.937Z</time></trkpt><trkpt lat="43.7849622893447" lon="11.722422444078253"><ele>414.0</ele><time>2026-04-25T08:49:08.937Z</time></trkpt><trkpt lat="43.78510229495962" lon="11.722462519476995"><ele>414.33333333333337</ele><time>2026-04-25T08:49:09.937Z</time></trkpt><trkpt lat="43.785253355162354" lon="11.722488932504813"><ele>414.6666666666667</ele><time>2026-04-25T08:49:10.937Z</time></trkpt><trkpt lat="43.78541670674517" lon="11.722503214526228"><ele>415.0</ele><time>2026-04-25T08:49:11.937Z</time></trkpt><trkpt lat="43.78558263973924" lon="11.722500231225622"><ele>415.0</ele><time>2026-04-25T08:49:12.937Z</time></trkpt><trkpt lat="43.78575929308183" lon="11.722509383602537"><ele>415.0</ele><time>2026-04-25T08:49:13.937Z</time></trkpt><trkpt lat="43.78591337918325" lon="11.722476405562254"><ele>415.0</ele><time>2026-04-25T08:49:14.937Z</time></trkpt><trkpt lat="43.7860573161051" lon="11.722437914366042"><ele>416.25</ele><time>2026-04-25T08:49:15.937Z</time></trkpt><trkpt lat="43.78619980763738" lon="11.722405988879181"><ele>417.5</ele><time>2026-04-25T08:49:16.937Z</time></trkpt><trkpt lat="43.78634060037321" lon="11.722379309880266"><ele>418.75</ele><time>2026-04-25T08:49:17.937Z</time></trkpt><trkpt lat="43.78646956976999" lon="11.722358311802472"><ele>420.0</ele><time>2026-04-25T08:49:18.936Z</time></trkpt><trkpt lat="43.78659277062194" lon="11.722337725925149"><ele>420.0</ele><time>2026-04-25T08:49:19.937Z</time></trkpt><trkpt lat="43.786718802293635" lon="11.722316306369025"><ele>420.0</ele><time>2026-04-25T08:49:20.937Z</time></trkpt><trkpt lat="43.78684077960628" lon="11.722292392983585"><ele>420.0</ele><time>2026-04-25T08:49:21.937Z</time></trkpt><trkpt lat="43.786955493610655" lon="11.722267258447312"><ele>420.0</ele><time>2026-04-25T08:49:22.937Z</time></trkpt><trkpt lat="43.78706180723735" lon="11.722245514599607"><ele>420.6</ele><time>2026-04-25T08:49:23.937Z</time></trkpt><trkpt lat="43.78716033156249" lon="11.722224031582376"><ele>421.2</ele><time>2026-04-25T08:49:24.936Z</time></trkpt><trkpt lat="43.78726544552295" lon="11.722208367821759"><ele>421.79999999999995</ele><time>2026-04-25T08:49:25.937Z</time></trkpt><trkpt lat="43.78735826784654" lon="11.722187033627268"><ele>422.4</ele><time>2026-04-25T08:49:26.937Z</time></trkpt><trkpt lat="43.787450024074445" lon="11.722184442674896"><ele>423.0</ele><time>2026-04-25T08:49:27.937Z</time></trkpt><trkpt lat="43.78754104183123" lon="11.722172632036914"><ele>423.0</ele><time>2026-04-25T08:49:28.936Z</time></trkpt><trkpt lat="43.7876310373316" lon="11.722162058302574"><ele>423.0</ele><time>2026-04-25T08:49:29.936Z</time></trkpt><trkpt lat="43.787717417165666" lon="11.722142777156405"><ele>423.0</ele><time>2026-04-25T08:49:30.937Z</time></trkpt><trkpt lat="43.78780888167602" lon="11.722124010958423"><ele>423.0</ele><time>2026-04-25T08:49:31.936Z</time></trkpt><trkpt lat="43.787905314195214" lon="11.722103264267304"><ele>423.0</ele><time>2026-04-25T08:49:32.936Z</time></trkpt><trkpt lat="43.78799060691926" lon="11.722081981836817"><ele>423.4</ele><time>2026-04-25T08:49:33.936Z</time></trkpt><trkpt lat="43.78807228873454" lon="11.722059179121652"><ele>423.79999999999995</ele><time>2026-04-25T08:49:34.936Z</time></trkpt><trkpt lat="43.78816352791456" lon="11.722033502099604"><ele>424.2</ele><time>2026-04-25T08:49:35.936Z</time></trkpt><trkpt lat="43.7882679534348" lon="11.721997957651695"><ele>424.6</ele><time>2026-04-25T08:49:36.936Z</time></trkpt><trkpt lat="43.78838569614325" lon="11.721956938922592"><ele>425.0</ele><time>2026-04-25T08:49:37.936Z</time></trkpt><trkpt lat="43.78850293037817" lon="11.721916022866067"><ele>425.6</ele><time>2026-04-25T08:49:38.936Z</time></trkpt><trkpt lat="43.78862945515494" lon="11.721908657241167"><ele>426.2</ele><time>2026-04-25T08:49:39.936Z</time></trkpt><trkpt lat="43.78874994907247" lon="11.721898032201333"><ele>426.79999999999995</ele><time>2026-04-25T08:49:40.936Z</time></trkpt><trkpt lat="43.78884651152145" lon="11.721887535981802"><ele>427.4</ele><time>2026-04-25T08:49:41.936Z</time></trkpt><trkpt lat="43.788930319399405" lon="11.72188003527953"><ele>428.0</ele><time>2026-04-25T08:49:42.936Z</time></trkpt><trkpt lat="43.789003794400074" lon="11.721869250951853"><ele>427.99999999999994</ele><time>2026-04-25T08:49:43.936Z</time></trkpt><trkpt lat="43.78907914884705" lon="11.721856392019198"><ele>428.0</ele><time>2026-04-25T08:49:44.936Z</time></trkpt><trkpt lat="43.78915531177861" lon="11.72184463325701"><ele>428.0</ele><time>2026-04-25T08:49:45.936Z</time></trkpt><trkpt lat="43.789237828172986" lon="11.721832955533669"><ele>428.0</ele><time>2026-04-25T08:49:46.936Z</time></trkpt><trkpt lat="43.78932521947677" lon="11.721830956308755"><ele>427.99999999999994</ele><time>2026-04-25T08:49:47.936Z</time></trkpt><trkpt lat="43.7894190248465" lon="11.721822107258939"><ele>428.0</ele><time>2026-04-25T08:49:48.936Z</time></trkpt><trkpt lat="43.78952446593886" lon="11.721813612129285"><ele>428.4</ele><time>2026-04-25T08:49:49.936Z</time></trkpt><trkpt lat="43.7896340872329" lon="11.721807087001997"><ele>428.79999999999995</ele><time>2026-04-25T08:49:50.936Z</time></trkpt><trkpt lat="43.789741141205056" lon="11.721796587471692"><ele>429.2</ele><time>2026-04-25T08:49:51.936Z</time></trkpt><trkpt lat="43.789848847336195" lon="11.721773218853997"><ele>429.6</ele><time>2026-04-25T08:49:52.936Z</time></trkpt><trkpt lat="43.789956101721714" lon="11.721758455444512"><ele>430.0</ele><time>2026-04-25T08:49:53.936Z</time></trkpt><trkpt lat="43.79005782137324" lon="11.721709357866986"><ele>430.0</ele><time>2026-04-25T08:49:54.936Z</time></trkpt><trkpt lat="43.79017389647277" lon="11.721667602834698"><ele>430.0</ele><time>2026-04-25T08:49:55.936Z</time></trkpt><trkpt lat="43.7902695018969" lon="11.721561734285704"><ele>430.0</ele><time>2026-04-25T08:49:56.936Z</time></trkpt><trkpt lat="43.79036666118078" lon="11.721460294586034"><ele>430.0</ele><time>2026-04-25T08:49:57.936Z</time></trkpt><trkpt lat="43.7904370795011" lon="11.721322335940675"><ele>429.75</ele><time>2026-04-25T08:49:58.936Z</time></trkpt><trkpt lat="43.79048838174219" lon="11.721163431144413"><ele>429.5</ele><time>2026-04-25T08:49:59.936Z</time></trkpt><trkpt lat="43.7905429758186" lon="11.721005875791656"><ele>429.25</ele><time>2026-04-25T08:50:00.936Z</time></trkpt><trkpt lat="43.79059843672204" lon="11.720846762989089"><ele>429.0</ele><time>2026-04-25T08:50:01.936Z</time></trkpt><trkpt lat="43.79065235753634" lon="11.720690751329581"><ele>429.0</ele><time>2026-04-25T08:50:02.936Z</time></trkpt><trkpt lat="43.790712664509506" lon="11.720536855401793"><ele>429.0</ele><time>2026-04-25T08:50:03.936Z</time></trkpt><trkpt lat="43.7907683695061" lon="11.720378155890993"><ele>429.0</ele><time>2026-04-25T08:50:04.936Z</time></trkpt><trkpt lat="43.790826586550565" lon="11.720216602955407"><ele>429.0</ele><time>2026-04-25T08:50:05.936Z</time></trkpt><trkpt lat="43.790879317462014" lon="11.720058628871627"><ele>428.5</ele><time>2026-04-25T08:50:06.936Z</time></trkpt><trkpt lat="43.79093246336595" lon="11.719906371829083"><ele>428.0</ele><time>2026-04-25T08:50:07.936Z</time></trkpt><trkpt lat="43.790985657450946" lon="11.719762514997946"><ele>427.5</ele><time>2026-04-25T08:50:08.936Z</time></trkpt><trkpt lat="43.79104841208098" lon="11.719625516697944"><ele>427.0</ele><time>2026-04-25T08:50:09.936Z</time></trkpt><trkpt lat="43.791109087025845" lon="11.719494275220738"><ele>427.0</ele><time>2026-04-25T08:50:10.936Z</time></trkpt><trkpt lat="43.79118120179743" lon="11.719352910331569"><ele>427.0</ele><time>2026-04-25T08:50:11.936Z</time></trkpt><trkpt lat="43.79127298409422" lon="11.719222974270636"><ele>427.0</ele><time>2026-04-25T08:50:12.936Z</time></trkpt><trkpt lat="43.79137516253504" lon="11.719101392434547"><ele>427.0</ele><time>2026-04-25T08:50:13.936Z</time></trkpt><trkpt lat="43.79148924554307" lon="11.718982452857782"><ele>427.0</ele><time>2026-04-25T08:50:14.936Z</time></trkpt><trkpt lat="43.79160297317482" lon="11.718863955391095"><ele>427.0</ele><time>2026-04-25T08:50:15.935Z</time></trkpt><trkpt lat="43.79170847749192" lon="11.718743480562221"><ele>427.0</ele><time>2026-04-25T08:50:16.935Z</time></trkpt><trkpt lat="43.79181203333012" lon="11.718631232822291"><ele>427.0</ele><time>2026-04-25T08:50:17.935Z</time></trkpt><trkpt lat="43.791916632388265" lon="11.718522066317135"><ele>427.0</ele><time>2026-04-25T08:50:18.935Z</time></trkpt><trkpt lat="43.792022483961595" lon="11.718399097284067"><ele>427.0</ele><time>2026-04-25T08:50:19.935Z</time></trkpt><trkpt lat="43.79213871746777" lon="11.718270136250288"><ele>427.0</ele><time>2026-04-25T08:50:20.935Z</time></trkpt><trkpt lat="43.79224982657491" lon="11.718139214684108"><ele>427.0</ele><time>2026-04-25T08:50:21.935Z</time></trkpt><trkpt lat="43.79236428355023" lon="11.718003816165094"><ele>427.0</ele><time>2026-04-25T08:50:22.935Z</time></trkpt><trkpt lat="43.792481463891335" lon="11.717877488130215"><ele>427.0</ele><time>2026-04-25T08:50:23.935Z</time></trkpt><trkpt lat="43.792586470722156" lon="11.71775122786966"><ele>427.0</ele><time>2026-04-25T08:50:24.935Z</time></trkpt><trkpt lat="43.79270076714266" lon="11.717645733614273"><ele>427.0</ele><time>2026-04-25T08:50:25.935Z</time></trkpt><trkpt lat="43.79280421583936" lon="11.717525382256596"><ele>428.75</ele><time>2026-04-25T08:50:26.935Z</time></trkpt><trkpt lat="43.792912711629945" lon="11.717398730324392"><ele>430.5</ele><time>2026-04-25T08:50:27.935Z</time></trkpt><trkpt lat="43.79302563158939" lon="11.717268225692786"><ele>432.25</ele><time>2026-04-25T08:50:28.935Z</time></trkpt><trkpt lat="43.79314189260607" lon="11.717134273762534"><ele>434.0</ele><time>2026-04-25T08:50:29.935Z</time></trkpt><trkpt lat="43.79326265315916" lon="11.717001451726158"><ele>433.66666666666663</ele><time>2026-04-25T08:50:30.935Z</time></trkpt><trkpt lat="43.793375807972126" lon="11.716864374388669"><ele>433.33333333333337</ele><time>2026-04-25T08:50:31.935Z</time></trkpt><trkpt lat="43.7934909521043" lon="11.716725416579784"><ele>433.0</ele><time>2026-04-25T08:50:32.935Z</time></trkpt><trkpt lat="43.79360332519128" lon="11.71659424572907"><ele>433.0</ele><time>2026-04-25T08:50:33.935Z</time></trkpt><trkpt lat="43.79371180846237" lon="11.716467870703665"><ele>433.0</ele><time>2026-04-25T08:50:34.935Z</time></trkpt><trkpt lat="43.79381174780603" lon="11.71634371786951"><ele>433.0</ele><time>2026-04-25T08:50:35.935Z</time></trkpt><trkpt lat="43.79391072643552" lon="11.716224583433203"><ele>433.0</ele><time>2026-04-25T08:50:36.935Z</time></trkpt><trkpt lat="43.79399949665725" lon="11.716110481598442"><ele>432.75</ele><time>2026-04-25T08:50:37.935Z</time></trkpt><trkpt lat="43.794081419323" lon="11.715996279500123"><ele>432.5</ele><time>2026-04-25T08:50:38.935Z</time></trkpt><trkpt lat="43.794163023523765" lon="11.715867564232328"><ele>432.25</ele><time>2026-04-25T08:50:39.935Z</time></trkpt><trkpt lat="43.79424294867189" lon="11.715738556786649"><ele>432.0</ele><time>2026-04-25T08:50:40.935Z</time></trkpt><trkpt lat="43.794321573393006" lon="11.715605812767391"><ele>433.0</ele><time>2026-04-25T08:50:41.935Z</time></trkpt><trkpt lat="43.79440118437879" lon="11.715478884551601"><ele>434.00000000000006</ele><time>2026-04-25T08:50:42.935Z</time></trkpt><trkpt lat="43.794477240365424" lon="11.715368151027796"><ele>435.00000000000006</ele><time>2026-04-25T08:50:43.935Z</time></trkpt><trkpt lat="43.794543798235054" lon="11.715257412067148"><ele>436.0</ele><time>2026-04-25T08:50:44.935Z</time></trkpt><trkpt lat="43.794606677160814" lon="11.715146274058316"><ele>437.0</ele><time>2026-04-25T08:50:45.935Z</time></trkpt><trkpt lat="43.794667705148974" lon="11.715029445616516"><ele>437.0</ele><time>2026-04-25T08:50:46.935Z</time></trkpt><trkpt lat="43.794725288083505" lon="11.714918424677375"><ele>437.00000000000006</ele><time>2026-04-25T08:50:47.935Z</time></trkpt><trkpt lat="43.794787303472006" lon="11.714813032070174"><ele>437.00000000000006</ele><time>2026-04-25T08:50:48.935Z</time></trkpt><trkpt lat="43.79485518078828" lon="11.714714764615318"><ele>437.0</ele><time>2026-04-25T08:50:49.935Z</time></trkpt><trkpt lat="43.79493293903515" lon="11.714620306118382"><ele>437.0</ele><time>2026-04-25T08:50:50.935Z</time></trkpt><trkpt lat="43.79500696897652" lon="11.714525622419577"><ele>437.0</ele><time>2026-04-25T08:50:51.935Z</time></trkpt><trkpt lat="43.795063982124766" lon="11.714407699749293"><ele>437.0</ele><time>2026-04-25T08:50:52.935Z</time></trkpt><trkpt lat="43.795110183358155" lon="11.714260970259353"><ele>437.0</ele><time>2026-04-25T08:50:53.935Z</time></trkpt><trkpt lat="43.79517157073944" lon="11.714124843523917"><ele>437.0</ele><time>2026-04-25T08:50:54.935Z</time></trkpt><trkpt lat="43.7952467327567" lon="11.714001674061821"><ele>437.25</ele><time>2026-04-25T08:50:55.935Z</time></trkpt><trkpt lat="43.79534082476426" lon="11.713866169288309"><ele>437.5</ele><time>2026-04-25T08:50:56.935Z</time></trkpt><trkpt lat="43.7954425151081" lon="11.71373021504394"><ele>437.75</ele><time>2026-04-25T08:50:57.935Z</time></trkpt><trkpt lat="43.79556148016658" lon="11.713569186918535"><ele>438.0</ele><time>2026-04-25T08:50:58.935Z</time></trkpt><trkpt lat="43.79567187800007" lon="11.71341888013321"><ele>438.0</ele><time>2026-04-25T08:50:59.935Z</time></trkpt><trkpt lat="43.79577175153157" lon="11.713277678627248"><ele>438.0</ele><time>2026-04-25T08:51:00.935Z</time></trkpt><trkpt lat="43.79585764607074" lon="11.713144358481523"><ele>438.0</ele><time>2026-04-25T08:51:01.935Z</time></trkpt><trkpt lat="43.79594145103346" lon="11.7130231534974"><ele>438.0</ele><time>2026-04-25T08:51:02.935Z</time></trkpt><trkpt lat="43.79602746336364" lon="11.712895678804351"><ele>439.75</ele><time>2026-04-25T08:51:03.935Z</time></trkpt><trkpt lat="43.79611245761878" lon="11.712755540733903"><ele>441.5</ele><time>2026-04-25T08:51:04.935Z</time></trkpt><trkpt lat="43.7961866798001" lon="11.712617278879161"><ele>443.25</ele><time>2026-04-25T08:51:05.935Z</time></trkpt><trkpt lat="43.7962601856088" lon="11.71248906773406"><ele>445.0</ele><time>2026-04-25T08:51:06.935Z</time></trkpt><trkpt lat="43.796334628949275" lon="11.712401955194709"><ele>445.00000000000006</ele><time>2026-04-25T08:51:07.935Z</time></trkpt><trkpt lat="43.79638440454317" lon="11.712328759864697"><ele>445.0</ele><time>2026-04-25T08:51:08.935Z</time></trkpt><trkpt lat="43.796427624179884" lon="11.712240610275147"><ele>445.0</ele><time>2026-04-25T08:51:09.935Z</time></trkpt><trkpt lat="43.796478150054156" lon="11.712164098591725"><ele>445.0</ele><time>2026-04-25T08:51:10.935Z</time></trkpt><trkpt lat="43.79654057867393" lon="11.712084976700837"><ele>445.00000000000006</ele><time>2026-04-25T08:51:11.935Z</time></trkpt><trkpt lat="43.79660097019815" lon="11.712004422649922"><ele>445.0</ele><time>2026-04-25T08:51:12.935Z</time></trkpt><trkpt lat="43.7966656592648" lon="11.711921015162432"><ele>445.0</ele><time>2026-04-25T08:51:13.935Z</time></trkpt><trkpt lat="43.79671778401354" lon="11.711823695582664"><ele>445.0</ele><time>2026-04-25T08:51:14.935Z</time></trkpt><trkpt lat="43.79677294656182" lon="11.711747466905116"><ele>445.0</ele><time>2026-04-25T08:51:15.934Z</time></trkpt><trkpt lat="43.7968289295726" lon="11.71166851249093"><ele>445.0</ele><time>2026-04-25T08:51:16.934Z</time></trkpt><trkpt lat="43.796903655598406" lon="11.71157183612981"><ele>445.0</ele><time>2026-04-25T08:51:17.934Z</time></trkpt><trkpt lat="43.7969877128381" lon="11.71143910865842"><ele>445.6666666666667</ele><time>2026-04-25T08:51:18.934Z</time></trkpt><trkpt lat="43.79709814743825" lon="11.711287101617065"><ele>446.33333333333337</ele><time>2026-04-25T08:51:19.934Z</time></trkpt><trkpt lat="43.79721901736244" lon="11.711121390963886"><ele>447.0</ele><time>2026-04-25T08:51:20.934Z</time></trkpt><trkpt lat="43.79734452484537" lon="11.710958466946161"><ele>447.0</ele><time>2026-04-25T08:51:21.934Z</time></trkpt><trkpt lat="43.797460584010494" lon="11.710820645558867"><ele>447.0</ele><time>2026-04-25T08:51:22.934Z</time></trkpt><trkpt lat="43.79755659480759" lon="11.710671295062026"><ele>447.0</ele><time>2026-04-25T08:51:23.934Z</time></trkpt><trkpt lat="43.79765266647966" lon="11.710539808391452"><ele>447.0</ele><time>2026-04-25T08:51:24.934Z</time></trkpt><trkpt lat="43.79775216805519" lon="11.71039821879089"><ele>448.0</ele><time>2026-04-25T08:51:25.934Z</time></trkpt><trkpt lat="43.79785361314074" lon="11.710252428846088"><ele>449.0</ele><time>2026-04-25T08:51:26.934Z</time></trkpt><trkpt lat="43.79795640910739" lon="11.710111302996664"><ele>450.0</ele><time>2026-04-25T08:51:27.934Z</time></trkpt><trkpt lat="43.79805574723418" lon="11.709964020745945"><ele>451.0</ele><time>2026-04-25T08:51:28.934Z</time></trkpt><trkpt lat="43.79814886349613" lon="11.709831891785656"><ele>451.0</ele><time>2026-04-25T08:51:29.934Z</time></trkpt><trkpt lat="43.79823335916961" lon="11.709708071934724"><ele>451.0</ele><time>2026-04-25T08:51:30.934Z</time></trkpt><trkpt lat="43.79831372570733" lon="11.709600392360386"><ele>451.0</ele><time>2026-04-25T08:51:31.934Z</time></trkpt><trkpt lat="43.79837827316257" lon="11.709514407603711"><ele>451.0</ele><time>2026-04-25T08:51:32.934Z</time></trkpt><trkpt lat="43.79843755038041" lon="11.709431358357318"><ele>451.0</ele><time>2026-04-25T08:51:33.934Z</time></trkpt><trkpt lat="43.79847990601318" lon="11.709343488427233"><ele>451.20000000000005</ele><time>2026-04-25T08:51:34.934Z</time></trkpt><trkpt lat="43.79853545614026" lon="11.709296681656335"><ele>451.40000000000003</ele><time>2026-04-25T08:51:35.934Z</time></trkpt><trkpt lat="43.79863619963779" lon="11.70929840528945"><ele>451.6</ele><time>2026-04-25T08:51:37.934Z</time></trkpt><trkpt lat="43.79870696158358" lon="11.70938411604912"><ele>451.8</ele><time>2026-04-25T08:51:38.934Z</time></trkpt><trkpt lat="43.798802376508654" lon="11.70943997472325"><ele>452.0</ele><time>2026-04-25T08:51:39.934Z</time></trkpt><trkpt lat="43.798930439946716" lon="11.709503876333006"><ele>452.5</ele><time>2026-04-25T08:51:40.934Z</time></trkpt><trkpt lat="43.79906190049378" lon="11.709525148781397"><ele>453.0</ele><time>2026-04-25T08:51:41.934Z</time></trkpt><trkpt lat="43.799177711270644" lon="11.709565581248022"><ele>453.5</ele><time>2026-04-25T08:51:42.934Z</time></trkpt><trkpt lat="43.79929527957519" lon="11.709595503841928"><ele>454.0</ele><time>2026-04-25T08:51:43.934Z</time></trkpt><trkpt lat="43.79942217182096" lon="11.70961714271463"><ele>454.75</ele><time>2026-04-25T08:51:44.934Z</time></trkpt><trkpt lat="43.79954605994695" lon="11.709622508453737"><ele>455.5</ele><time>2026-04-25T08:51:45.934Z</time></trkpt><trkpt lat="43.79969202961686" lon="11.709657275126371"><ele>456.25</ele><time>2026-04-25T08:51:46.934Z</time></trkpt><trkpt lat="43.79983016412945" lon="11.709675502793731"><ele>457.0</ele><time>2026-04-25T08:51:47.934Z</time></trkpt><trkpt lat="43.79996898152792" lon="11.709710845088619"><ele>457.0</ele><time>2026-04-25T08:51:48.934Z</time></trkpt><trkpt lat="43.80011127614211" lon="11.709735684960226"><ele>457.0</ele><time>2026-04-25T08:51:49.934Z</time></trkpt><trkpt lat="43.80025268867138" lon="11.709762779872577"><ele>457.0</ele><time>2026-04-25T08:51:50.934Z</time></trkpt><trkpt lat="43.800385101344354" lon="11.709788837203813"><ele>457.0</ele><time>2026-04-25T08:51:51.934Z</time></trkpt><trkpt lat="43.80050582931465" lon="11.709803006351038"><ele>458.0</ele><time>2026-04-25T08:51:52.934Z</time></trkpt><trkpt lat="43.80062126299522" lon="11.709818839268934"><ele>459.0</ele><time>2026-04-25T08:51:53.934Z</time></trkpt><trkpt lat="43.80075251166402" lon="11.709843183315993"><ele>460.0</ele><time>2026-04-25T08:51:54.934Z</time></trkpt><trkpt lat="43.80088492693815" lon="11.70986650122921"><ele>461.0</ele><time>2026-04-25T08:51:55.934Z</time></trkpt><trkpt lat="43.801034366561396" lon="11.709898574594598"><ele>462.75</ele><time>2026-04-25T08:51:56.934Z</time></trkpt><trkpt lat="43.801180394025124" lon="11.709927741417896"><ele>464.5</ele><time>2026-04-25T08:51:57.934Z</time></trkpt><trkpt lat="43.80133105988388" lon="11.70995428710161"><ele>466.25</ele><time>2026-04-25T08:51:58.934Z</time></trkpt><trkpt lat="43.80146911606656" lon="11.709982831897914"><ele>468.0</ele><time>2026-04-25T08:51:59.934Z</time></trkpt><trkpt lat="43.80160214627628" lon="11.71001314569679"><ele>468.0</ele><time>2026-04-25T08:52:00.934Z</time></trkpt><trkpt lat="43.80175080413169" lon="11.710040738520684"><ele>468.0</ele><time>2026-04-25T08:52:01.934Z</time></trkpt><trkpt lat="43.80189090159481" lon="11.710083048706245"><ele>468.0</ele><time>2026-04-25T08:52:02.934Z</time></trkpt><trkpt lat="43.80203356125335" lon="11.710110556106018"><ele>468.0</ele><time>2026-04-25T08:52:03.934Z</time></trkpt><trkpt lat="43.80217395975926" lon="11.71013600549869"><ele>466.5</ele><time>2026-04-25T08:52:04.934Z</time></trkpt><trkpt lat="43.80231543130069" lon="11.710159854604441"><ele>465.0</ele><time>2026-04-25T08:52:05.934Z</time></trkpt><trkpt lat="43.802455331977775" lon="11.710168076797137"><ele>463.5</ele><time>2026-04-25T08:52:06.934Z</time></trkpt><trkpt lat="43.802608193287455" lon="11.710145238774654"><ele>462.0</ele><time>2026-04-25T08:52:07.934Z</time></trkpt><trkpt lat="43.80275871405446" lon="11.710059960334117"><ele>462.0</ele><time>2026-04-25T08:52:08.934Z</time></trkpt><trkpt lat="43.802902704243834" lon="11.70996988657537"><ele>462.0</ele><time>2026-04-25T08:52:09.934Z</time></trkpt><trkpt lat="43.803044974390765" lon="11.709895986697658"><ele>462.0</ele><time>2026-04-25T08:52:10.934Z</time></trkpt><trkpt lat="43.8031829826553" lon="11.709825984774666"><ele>462.0</ele><time>2026-04-25T08:52:11.934Z</time></trkpt><trkpt lat="43.80333075527125" lon="11.70980044343952"><ele>462.0</ele><time>2026-04-25T08:52:12.934Z</time></trkpt><trkpt lat="43.80346244652071" lon="11.70973439917526"><ele>462.0</ele><time>2026-04-25T08:52:13.934Z</time></trkpt><trkpt lat="43.80358520517671" lon="11.709672851982335"><ele>462.0</ele><time>2026-04-25T08:52:14.934Z</time></trkpt><trkpt lat="43.803705812944955" lon="11.709612382571223"><ele>462.75</ele><time>2026-04-25T08:52:15.934Z</time></trkpt><trkpt lat="43.80382189520186" lon="11.709548665014065"><ele>463.5</ele><time>2026-04-25T08:52:16.934Z</time></trkpt><trkpt lat="43.803929890683136" lon="11.70947558044614"><ele>464.25</ele><time>2026-04-25T08:52:17.934Z</time></trkpt><trkpt lat="43.80401834438402" lon="11.709390781140586"><ele>465.0</ele><time>2026-04-25T08:52:18.934Z</time></trkpt><trkpt lat="43.804073160623616" lon="11.709250263293235"><ele>465.6</ele><time>2026-04-25T08:52:19.934Z</time></trkpt><trkpt lat="43.8041017569377" lon="11.709106369725047"><ele>466.2</ele><time>2026-04-25T08:52:20.934Z</time></trkpt><trkpt lat="43.8041096854357" lon="11.708953149646405"><ele>466.79999999999995</ele><time>2026-04-25T08:52:21.933Z</time></trkpt><trkpt lat="43.80413374231694" lon="11.70881277673288"><ele>467.4</ele><time>2026-04-25T08:52:22.933Z</time></trkpt><trkpt lat="43.80417222227088" lon="11.708689567440164"><ele>468.0</ele><time>2026-04-25T08:52:23.933Z</time></trkpt><trkpt lat="43.804121870876486" lon="11.708530828086644"><ele>468.0</ele><time>2026-04-25T08:52:24.933Z</time></trkpt><trkpt lat="43.80407615570357" lon="11.708381350302856"><ele>468.0</ele><time>2026-04-25T08:52:25.933Z</time></trkpt><trkpt lat="43.8040223135875" lon="11.708229629508521"><ele>468.0</ele><time>2026-04-25T08:52:26.933Z</time></trkpt><trkpt lat="43.80394576461552" lon="11.708092036489102"><ele>468.0</ele><time>2026-04-25T08:52:27.933Z</time></trkpt><trkpt lat="43.80385218503918" lon="11.707979491786043"><ele>468.0</ele><time>2026-04-25T08:52:28.933Z</time></trkpt><trkpt lat="43.803734816025674" lon="11.70790784234818"><ele>468.0</ele><time>2026-04-25T08:52:29.933Z</time></trkpt><trkpt lat="43.803604473817565" lon="11.707865654517938"><ele>468.0</ele><time>2026-04-25T08:52:30.933Z</time></trkpt><trkpt lat="43.803455761476705" lon="11.707846540573097"><ele>468.0</ele><time>2026-04-25T08:52:31.933Z</time></trkpt><trkpt lat="43.80331311631347" lon="11.7078275512316"><ele>469.0</ele><time>2026-04-25T08:52:32.933Z</time></trkpt><trkpt lat="43.803180811384046" lon="11.70780767022937"><ele>470.0</ele><time>2026-04-25T08:52:33.933Z</time></trkpt><trkpt lat="43.80306839107209" lon="11.70779008164544"><ele>471.0</ele><time>2026-04-25T08:52:34.933Z</time></trkpt><trkpt lat="43.802966164504106" lon="11.707759964235873"><ele>472.0</ele><time>2026-04-25T08:52:35.933Z</time></trkpt><trkpt lat="43.802872629852445" lon="11.707707638472618"><ele>472.0</ele><time>2026-04-25T08:52:36.933Z</time></trkpt><trkpt lat="43.80278777139361" lon="11.707622053877358"><ele>472.0</ele><time>2026-04-25T08:52:37.933Z</time></trkpt><trkpt lat="43.802713494048874" lon="11.707497417269277"><ele>472.0</ele><time>2026-04-25T08:52:38.933Z</time></trkpt><trkpt lat="43.802646690475584" lon="11.707342944648857"><ele>472.0</ele><time>2026-04-25T08:52:39.933Z</time></trkpt><trkpt lat="43.802575329912116" lon="11.70717656348017"><ele>472.0</ele><time>2026-04-25T08:52:40.933Z</time></trkpt><trkpt lat="43.80250240990927" lon="11.707006429865393"><ele>472.0</ele><time>2026-04-25T08:52:41.933Z</time></trkpt><trkpt lat="43.80243154397826" lon="11.70684787990318"><ele>472.0</ele><time>2026-04-25T08:52:42.933Z</time></trkpt><trkpt lat="43.80235788160804" lon="11.706702785307009"><ele>472.0</ele><time>2026-04-25T08:52:43.933Z</time></trkpt><trkpt lat="43.80227380257912" lon="11.706585995479118"><ele>472.0</ele><time>2026-04-25T08:52:44.933Z</time></trkpt><trkpt lat="43.80217817355459" lon="11.706504555911375"><ele>472.00000000000006</ele><time>2026-04-25T08:52:45.933Z</time></trkpt><trkpt lat="43.8020978402558" lon="11.706433479679003"><ele>472.00000000000006</ele><time>2026-04-25T08:52:46.933Z</time></trkpt><trkpt lat="43.802036298666394" lon="11.706348368387232"><ele>472.0</ele><time>2026-04-25T08:52:47.933Z</time></trkpt><trkpt lat="43.80201341252111" lon="11.706248628509817"><ele>472.0</ele><time>2026-04-25T08:52:48.933Z</time></trkpt><trkpt lat="43.80202389154127" lon="11.706136573960348"><ele>472.6</ele><time>2026-04-25T08:52:49.933Z</time></trkpt><trkpt lat="43.80206393038144" lon="11.706026228150767"><ele>473.20000000000005</ele><time>2026-04-25T08:52:50.933Z</time></trkpt><trkpt lat="43.80213436113351" lon="11.705927493509805"><ele>473.8</ele><time>2026-04-25T08:52:51.933Z</time></trkpt><trkpt lat="43.802220506740234" lon="11.705810055259198"><ele>474.4</ele><time>2026-04-25T08:52:52.933Z</time></trkpt><trkpt lat="43.80231132315261" lon="11.705677226115567"><ele>475.0</ele><time>2026-04-25T08:52:53.933Z</time></trkpt><trkpt lat="43.80241393278311" lon="11.7055329650329"><ele>475.0</ele><time>2026-04-25T08:52:54.933Z</time></trkpt><trkpt lat="43.802514631138294" lon="11.70539898708943"><ele>475.0</ele><time>2026-04-25T08:52:55.933Z</time></trkpt><trkpt lat="43.8026260812602" lon="11.70526358293645"><ele>475.0</ele><time>2026-04-25T08:52:56.933Z</time></trkpt><trkpt lat="43.80274351767244" lon="11.70513549897125"><ele>475.0</ele><time>2026-04-25T08:52:57.933Z</time></trkpt><trkpt lat="43.80286665502096" lon="11.7050032338149"><ele>475.6666666666667</ele><time>2026-04-25T08:52:58.933Z</time></trkpt><trkpt lat="43.80299229311714" lon="11.70486625342405"><ele>476.33333333333337</ele><time>2026-04-25T08:52:59.933Z</time></trkpt><trkpt lat="43.80311836245372" lon="11.7047244847435"><ele>477.0</ele><time>2026-04-25T08:53:00.933Z</time></trkpt><trkpt lat="43.80324447232766" lon="11.704584842148316"><ele>477.0</ele><time>2026-04-25T08:53:01.933Z</time></trkpt><trkpt lat="43.80335724240661" lon="11.704458164535316"><ele>477.0</ele><time>2026-04-25T08:53:02.933Z</time></trkpt><trkpt lat="43.803467726648385" lon="11.704340627882992"><ele>477.0</ele><time>2026-04-25T08:53:03.933Z</time></trkpt><trkpt lat="43.80357940969178" lon="11.70421514737304"><ele>477.0</ele><time>2026-04-25T08:53:04.933Z</time></trkpt><trkpt lat="43.8036784459661" lon="11.704089866960512"><ele>477.5</ele><time>2026-04-25T08:53:05.933Z</time></trkpt><trkpt lat="43.80376646473464" lon="11.703949873360132"><ele>478.0</ele><time>2026-04-25T08:53:06.933Z</time></trkpt><trkpt lat="43.803872502132535" lon="11.703818878888622"><ele>478.5</ele><time>2026-04-25T08:53:07.933Z</time></trkpt><trkpt lat="43.803959370064874" lon="11.703651275093568"><ele>479.0</ele><time>2026-04-25T08:53:08.933Z</time></trkpt><trkpt lat="43.804037066014324" lon="11.703465678323992"><ele>479.0</ele><time>2026-04-25T08:53:09.933Z</time></trkpt><trkpt lat="43.804135787587136" lon="11.703297195829858"><ele>479.0</ele><time>2026-04-25T08:53:10.933Z</time></trkpt><trkpt lat="43.804247215984475" lon="11.703130158988138"><ele>479.0</ele><time>2026-04-25T08:53:11.933Z</time></trkpt><trkpt lat="43.80436790733751" lon="11.702962169153027"><ele>480.0</ele><time>2026-04-25T08:53:12.933Z</time></trkpt><trkpt lat="43.80449922227182" lon="11.702799883113652"><ele>481.0</ele><time>2026-04-25T08:53:13.933Z</time></trkpt><trkpt lat="43.80462571703766" lon="11.702639566542997"><ele>482.0</ele><time>2026-04-25T08:53:14.933Z</time></trkpt><trkpt lat="43.80474014053202" lon="11.702477427680636"><ele>482.0</ele><time>2026-04-25T08:53:15.933Z</time></trkpt><trkpt lat="43.80484489848826" lon="11.70231196384757"><ele>482.0</ele><time>2026-04-25T08:53:16.933Z</time></trkpt><trkpt lat="43.804946028584965" lon="11.702142634415504"><ele>482.0</ele><time>2026-04-25T08:53:17.933Z</time></trkpt><trkpt lat="43.8050500929946" lon="11.701990522892643"><ele>484.0</ele><time>2026-04-25T08:53:18.933Z</time></trkpt><trkpt lat="43.80516199712476" lon="11.701866316223061"><ele>486.0</ele><time>2026-04-25T08:53:19.933Z</time></trkpt><trkpt lat="43.80527924603777" lon="11.701757132810178"><ele>488.0</ele><time>2026-04-25T08:53:20.933Z</time></trkpt><trkpt lat="43.80539947163916" lon="11.701654531887277"><ele>490.0</ele><time>2026-04-25T08:53:21.932Z</time></trkpt><trkpt lat="43.805508047748255" lon="11.701534538341166"><ele>490.0</ele><time>2026-04-25T08:53:22.932Z</time></trkpt><trkpt lat="43.80560543497367" lon="11.701385132840821"><ele>490.0</ele><time>2026-04-25T08:53:23.932Z</time></trkpt><trkpt lat="43.805685845627835" lon="11.70121043191587"><ele>490.0</ele><time>2026-04-25T08:53:24.932Z</time></trkpt><trkpt lat="43.80575286553997" lon="11.701025287900984"><ele>490.0</ele><time>2026-04-25T08:53:25.932Z</time></trkpt><trkpt lat="43.805820981034614" lon="11.700817735962037"><ele>492.6666666666667</ele><time>2026-04-25T08:53:26.932Z</time></trkpt><trkpt lat="43.80588941950529" lon="11.700621431700641"><ele>495.33333333333337</ele><time>2026-04-25T08:53:27.932Z</time></trkpt><trkpt lat="43.805965021161256" lon="11.700422556883412"><ele>498.0</ele><time>2026-04-25T08:53:28.932Z</time></trkpt><trkpt lat="43.80603129756782" lon="11.700227768499364"><ele>498.0</ele><time>2026-04-25T08:53:29.932Z</time></trkpt><trkpt lat="43.80608469158489" lon="11.700030955990403"><ele>498.0</ele><time>2026-04-25T08:53:30.931Z</time></trkpt><trkpt lat="43.8061103549733" lon="11.699819673810094"><ele>498.0</ele><time>2026-04-25T08:53:31.932Z</time></trkpt><trkpt lat="43.80612615356477" lon="11.699601817107846"><ele>498.33333333333337</ele><time>2026-04-25T08:53:32.932Z</time></trkpt><trkpt lat="43.80613936326717" lon="11.69938100066996"><ele>498.6666666666667</ele><time>2026-04-25T08:53:33.931Z</time></trkpt><trkpt lat="43.806145984745555" lon="11.699161390878139"><ele>499.0</ele><time>2026-04-25T08:53:34.931Z</time></trkpt><trkpt lat="43.80615782685859" lon="11.698940016401112"><ele>499.0</ele><time>2026-04-25T08:53:35.931Z</time></trkpt><trkpt lat="43.80617843293195" lon="11.698722668893788"><ele>499.0</ele><time>2026-04-25T08:53:36.931Z</time></trkpt><trkpt lat="43.80620326919157" lon="11.698526230845633"><ele>499.0</ele><time>2026-04-25T08:53:37.932Z</time></trkpt><trkpt lat="43.80621476640414" lon="11.69834532871359"><ele>499.0</ele><time>2026-04-25T08:53:38.932Z</time></trkpt><trkpt lat="43.80620687274207" lon="11.698164458561003"><ele>499.75</ele><time>2026-04-25T08:53:39.931Z</time></trkpt><trkpt lat="43.80616665435309" lon="11.697975139998485"><ele>500.5</ele><time>2026-04-25T08:53:40.931Z</time></trkpt><trkpt lat="43.80613837883121" lon="11.697776610978178"><ele>501.25</ele><time>2026-04-25T08:53:41.931Z</time></trkpt><trkpt lat="43.80608226092171" lon="11.697595519261148"><ele>502.0</ele><time>2026-04-25T08:53:42.931Z</time></trkpt><trkpt lat="43.80605574404942" lon="11.697415169201069"><ele>502.75</ele><time>2026-04-25T08:53:43.931Z</time></trkpt><trkpt lat="43.80604018019772" lon="11.697221341491058"><ele>503.5</ele><time>2026-04-25T08:53:44.931Z</time></trkpt><trkpt lat="43.80604693254554" lon="11.69703115348207"><ele>504.25</ele><time>2026-04-25T08:53:45.931Z</time></trkpt><trkpt lat="43.806067112725934" lon="11.69687252905072"><ele>505.0</ele><time>2026-04-25T08:53:46.931Z</time></trkpt><trkpt lat="43.80611664099562" lon="11.696732363554288"><ele>505.0</ele><time>2026-04-25T08:53:47.93Z</time></trkpt><trkpt lat="43.806179150812646" lon="11.696594335132882"><ele>505.0</ele><time>2026-04-25T08:53:48.93Z</time></trkpt><trkpt lat="43.80626117085173" lon="11.696450334202224"><ele>505.0</ele><time>2026-04-25T08:53:49.93Z</time></trkpt><trkpt lat="43.80633994165008" lon="11.696275528769917"><ele>505.0</ele><time>2026-04-25T08:53:50.93Z</time></trkpt><trkpt lat="43.806436906777144" lon="11.696108206514108"><ele>501.33333333333337</ele><time>2026-04-25T08:53:51.93Z</time></trkpt><trkpt lat="43.80653688171282" lon="11.695926307431224"><ele>497.66666666666663</ele><time>2026-04-25T08:53:52.93Z</time></trkpt><trkpt lat="43.80663917686871" lon="11.695740092963641"><ele>494.0</ele><time>2026-04-25T08:53:53.93Z</time></trkpt><trkpt lat="43.806749981537024" lon="11.695571517407336"><ele>498.0</ele><time>2026-04-25T08:53:54.93Z</time></trkpt><trkpt lat="43.806846481846016" lon="11.695392861195081"><ele>502.0</ele><time>2026-04-25T08:53:55.93Z</time></trkpt><trkpt lat="43.80693979734163" lon="11.69521057061883"><ele>506.0</ele><time>2026-04-25T08:53:56.93Z</time></trkpt><trkpt lat="43.807032147234864" lon="11.695031679585123"><ele>506.0</ele><time>2026-04-25T08:53:57.93Z</time></trkpt><trkpt lat="43.80712622975485" lon="11.694856801969946"><ele>506.0</ele><time>2026-04-25T08:53:58.93Z</time></trkpt><trkpt lat="43.80721851593078" lon="11.694692719639827"><ele>506.0</ele><time>2026-04-25T08:53:59.93Z</time></trkpt><trkpt lat="43.807305172059145" lon="11.694541954364986"><ele>506.0</ele><time>2026-04-25T08:54:00.93Z</time></trkpt><trkpt lat="43.80738930709585" lon="11.69439946373834"><ele>503.75</ele><time>2026-04-25T08:54:01.93Z</time></trkpt><trkpt lat="43.807460392022435" lon="11.694250271346819"><ele>501.5</ele><time>2026-04-25T08:54:02.93Z</time></trkpt><trkpt lat="43.80748997874162" lon="11.69408786024747"><ele>499.25</ele><time>2026-04-25T08:54:03.93Z</time></trkpt><trkpt lat="43.807484754775736" lon="11.693899283500537"><ele>497.0</ele><time>2026-04-25T08:54:04.93Z</time></trkpt><trkpt lat="43.8074533456555" lon="11.69370298696745"><ele>496.5</ele><time>2026-04-25T08:54:05.93Z</time></trkpt><trkpt lat="43.807414263083096" lon="11.693494917032892"><ele>496.0</ele><time>2026-04-25T08:54:06.93Z</time></trkpt><trkpt lat="43.80737563110676" lon="11.693299818236358"><ele>495.5</ele><time>2026-04-25T08:54:07.93Z</time></trkpt><trkpt lat="43.80735078751735" lon="11.693113485492853"><ele>495.0</ele><time>2026-04-25T08:54:08.93Z</time></trkpt><trkpt lat="43.80733657379107" lon="11.692937495677363"><ele>495.0</ele><time>2026-04-25T08:54:09.93Z</time></trkpt><trkpt lat="43.8073355415608" lon="11.692774264639349"><ele>495.0</ele><time>2026-04-25T08:54:10.93Z</time></trkpt><trkpt lat="43.80735448835894" lon="11.692618094957323"><ele>495.0</ele><time>2026-04-25T08:54:11.93Z</time></trkpt><trkpt lat="43.80742275069063" lon="11.692498700134154"><ele>495.0</ele><time>2026-04-25T08:54:12.93Z</time></trkpt><trkpt lat="43.80749747435849" lon="11.692415679307217"><ele>495.0</ele><time>2026-04-25T08:54:13.93Z</time></trkpt><trkpt lat="43.80758205498572" lon="11.692338374504413"><ele>496.75</ele><time>2026-04-25T08:54:14.93Z</time></trkpt><trkpt lat="43.80769271840831" lon="11.692352852581312"><ele>498.5</ele><time>2026-04-25T08:54:15.93Z</time></trkpt><trkpt lat="43.80781173216497" lon="11.692336688187599"><ele>500.25</ele><time>2026-04-25T08:54:16.93Z</time></trkpt><trkpt lat="43.8079506743244" lon="11.692323458127603"><ele>502.0</ele><time>2026-04-25T08:54:17.93Z</time></trkpt><trkpt lat="43.80808510540234" lon="11.692305194266945"><ele>502.0</ele><time>2026-04-25T08:54:18.93Z</time></trkpt><trkpt lat="43.80822636415864" lon="11.692256223738088"><ele>502.0</ele><time>2026-04-25T08:54:19.93Z</time></trkpt><trkpt lat="43.80835248869261" lon="11.692152000282002"><ele>502.0</ele><time>2026-04-25T08:54:20.93Z</time></trkpt><trkpt lat="43.80847592757355" lon="11.69201919366608"><ele>502.0</ele><time>2026-04-25T08:54:21.93Z</time></trkpt><trkpt lat="43.8085907315731" lon="11.691869011415905"><ele>503.75</ele><time>2026-04-25T08:54:22.93Z</time></trkpt><trkpt lat="43.80869714543381" lon="11.691742278451708"><ele>505.5</ele><time>2026-04-25T08:54:23.93Z</time></trkpt><trkpt lat="43.80880337472398" lon="11.691654060205838"><ele>507.25</ele><time>2026-04-25T08:54:24.93Z</time></trkpt><trkpt lat="43.808922144637464" lon="11.691556921741066"><ele>509.0</ele><time>2026-04-25T08:54:25.93Z</time></trkpt><trkpt lat="43.80904875700713" lon="11.691479581348236"><ele>509.0</ele><time>2026-04-25T08:54:26.93Z</time></trkpt><trkpt lat="43.80919267675272" lon="11.69140404846529"><ele>509.0</ele><time>2026-04-25T08:54:27.93Z</time></trkpt><trkpt lat="43.80934107402837" lon="11.691339947715862"><ele>509.0</ele><time>2026-04-25T08:54:28.93Z</time></trkpt><trkpt lat="43.80949728971587" lon="11.69126766049589"><ele>507.3333333333333</ele><time>2026-04-25T08:54:29.93Z</time></trkpt><trkpt lat="43.809652255226716" lon="11.691189455064777"><ele>505.66666666666663</ele><time>2026-04-25T08:54:30.93Z</time></trkpt><trkpt lat="43.809800086603566" lon="11.691111245980638"><ele>504.0</ele><time>2026-04-25T08:54:31.93Z</time></trkpt><trkpt lat="43.80993399508791" lon="11.691040324773022"><ele>504.0</ele><time>2026-04-25T08:54:32.93Z</time></trkpt><trkpt lat="43.810057077130566" lon="11.690953057296902"><ele>504.0</ele><time>2026-04-25T08:54:33.93Z</time></trkpt><trkpt lat="43.810168578231334" lon="11.690898419766748"><ele>504.0</ele><time>2026-04-25T08:54:34.93Z</time></trkpt><trkpt lat="43.81026945947276" lon="11.690855414253233"><ele>504.0</ele><time>2026-04-25T08:54:35.93Z</time></trkpt><trkpt lat="43.810357547320955" lon="11.690804931624127"><ele>507.0</ele><time>2026-04-25T08:54:36.93Z</time></trkpt><trkpt lat="43.81043110577723" lon="11.690732509828743"><ele>510.0</ele><time>2026-04-25T08:54:37.93Z</time></trkpt><trkpt lat="43.81046453083399" lon="11.690623526368437"><ele>513.0</ele><time>2026-04-25T08:54:38.93Z</time></trkpt><trkpt lat="43.810477909313065" lon="11.690501597694382"><ele>516.0</ele><time>2026-04-25T08:54:39.93Z</time></trkpt><trkpt lat="43.81047445904021" lon="11.690366595093703"><ele>519.0</ele><time>2026-04-25T08:54:40.93Z</time></trkpt><trkpt lat="43.81039415296719" lon="11.690258375626499"><ele>521.2</ele><time>2026-04-25T08:54:41.93Z</time></trkpt><trkpt lat="43.81030578782224" lon="11.690234433159622"><ele>523.4</ele><time>2026-04-25T08:54:42.93Z</time></trkpt><trkpt lat="43.81019950387871" lon="11.69022408053912"><ele>525.6</ele><time>2026-04-25T08:54:43.93Z</time></trkpt><trkpt lat="43.81009192759274" lon="11.690202917240347"><ele>527.8</ele><time>2026-04-25T08:54:44.93Z</time></trkpt><trkpt lat="43.80998041712158" lon="11.690223783864369"><ele>530.0</ele><time>2026-04-25T08:54:45.93Z</time></trkpt><trkpt lat="43.809882152161165" lon="11.690189032723039"><ele>525.4</ele><time>2026-04-25T08:54:46.93Z</time></trkpt><trkpt lat="43.80980560354691" lon="11.690114644242495"><ele>520.8</ele><time>2026-04-25T08:54:47.929Z</time></trkpt><trkpt lat="43.80975888022498" lon="11.690001694993201"><ele>516.2</ele><time>2026-04-25T08:54:48.929Z</time></trkpt><trkpt lat="43.809742939770814" lon="11.68987340380967"><ele>511.6</ele><time>2026-04-25T08:54:49.929Z</time></trkpt><trkpt lat="43.80976647933722" lon="11.689736966668695"><ele>507.0</ele><time>2026-04-25T08:54:50.929Z</time></trkpt><trkpt lat="43.8098200635663" lon="11.689591408324024"><ele>507.0</ele><time>2026-04-25T08:54:51.929Z</time></trkpt><trkpt lat="43.80987862381707" lon="11.689427991822882"><ele>507.0</ele><time>2026-04-25T08:54:52.929Z</time></trkpt><trkpt lat="43.809951560564535" lon="11.689261748262648"><ele>507.0</ele><time>2026-04-25T08:54:53.929Z</time></trkpt><trkpt lat="43.81003281196632" lon="11.689085589033402"><ele>507.0</ele><time>2026-04-25T08:54:54.929Z</time></trkpt><trkpt lat="43.81013221558956" lon="11.688923840951428"><ele>510.0</ele><time>2026-04-25T08:54:55.929Z</time></trkpt><trkpt lat="43.81025344988414" lon="11.688791343029088"><ele>513.0</ele><time>2026-04-25T08:54:56.929Z</time></trkpt><trkpt lat="43.810376121637624" lon="11.688694804441406"><ele>516.0</ele><time>2026-04-25T08:54:57.929Z</time></trkpt><trkpt lat="43.81050015665443" lon="11.688587088598275"><ele>519.0</ele><time>2026-04-25T08:54:58.929Z</time></trkpt><trkpt lat="43.81060691617901" lon="11.688438116871692"><ele>519.0</ele><time>2026-04-25T08:54:59.929Z</time></trkpt><trkpt lat="43.810684827736445" lon="11.688277143222848"><ele>519.0</ele><time>2026-04-25T08:55:00.929Z</time></trkpt><trkpt lat="43.81075488806237" lon="11.688093132728762"><ele>519.0</ele><time>2026-04-25T08:55:01.929Z</time></trkpt><trkpt lat="43.810823498016575" lon="11.68790724054699"><ele>519.0</ele><time>2026-04-25T08:55:02.929Z</time></trkpt><trkpt lat="43.81088566299777" lon="11.687726141134616"><ele>515.75</ele><time>2026-04-25T08:55:03.929Z</time></trkpt><trkpt lat="43.810931632728355" lon="11.687536074910723"><ele>512.5</ele><time>2026-04-25T08:55:04.929Z</time></trkpt><trkpt lat="43.81095690949253" lon="11.687336103311335"><ele>509.25</ele><time>2026-04-25T08:55:05.929Z</time></trkpt><trkpt lat="43.810965450390874" lon="11.687130656974782"><ele>506.0</ele><time>2026-04-25T08:55:06.929Z</time></trkpt><trkpt lat="43.81095110858062" lon="11.686918995663612"><ele>505.66666666666663</ele><time>2026-04-25T08:55:07.929Z</time></trkpt><trkpt lat="43.81096080700475" lon="11.686688316375811"><ele>505.33333333333337</ele><time>2026-04-25T08:55:08.929Z</time></trkpt><trkpt lat="43.81094053644457" lon="11.686464384647556"><ele>505.0</ele><time>2026-04-25T08:55:09.929Z</time></trkpt><trkpt lat="43.81095321557976" lon="11.686256401229036"><ele>505.0</ele><time>2026-04-25T08:55:10.929Z</time></trkpt><trkpt lat="43.81095234869697" lon="11.686070662502498"><ele>505.0</ele><time>2026-04-25T08:55:11.929Z</time></trkpt><trkpt lat="43.81095775257165" lon="11.685885506517677"><ele>505.0</ele><time>2026-04-25T08:55:12.929Z</time></trkpt><trkpt lat="43.810986727810835" lon="11.685700043120958"><ele>505.0</ele><time>2026-04-25T08:55:13.929Z</time></trkpt><trkpt lat="43.811051501539744" lon="11.685498787926655"><ele>510.5</ele><time>2026-04-25T08:55:14.929Z</time></trkpt><trkpt lat="43.81111710434542" lon="11.685308739389756"><ele>516.0</ele><time>2026-04-25T08:55:15.929Z</time></trkpt><trkpt lat="43.811189144784436" lon="11.68513112802591"><ele>521.5</ele><time>2026-04-25T08:55:16.929Z</time></trkpt><trkpt lat="43.811241768975506" lon="11.684951304845224"><ele>527.0</ele><time>2026-04-25T08:55:17.929Z</time></trkpt><trkpt lat="43.81129510791399" lon="11.684796106693348"><ele>527.0</ele><time>2026-04-25T08:55:18.929Z</time></trkpt><trkpt lat="43.8113494188008" lon="11.684661468631155"><ele>527.0</ele><time>2026-04-25T08:55:19.929Z</time></trkpt><trkpt lat="43.81140404318844" lon="11.684546805741798"><ele>527.0</ele><time>2026-04-25T08:55:20.929Z</time></trkpt><trkpt lat="43.81147326916188" lon="11.68445984275767"><ele>527.0</ele><time>2026-04-25T08:55:21.929Z</time></trkpt><trkpt lat="43.81156467789484" lon="11.684397107902011"><ele>527.0</ele><time>2026-04-25T08:55:22.929Z</time></trkpt><trkpt lat="43.81167620894265" lon="11.68438791903682"><ele>527.0</ele><time>2026-04-25T08:55:23.929Z</time></trkpt><trkpt lat="43.81178979194662" lon="11.684443892600417"><ele>527.0</ele><time>2026-04-25T08:55:24.929Z</time></trkpt><trkpt lat="43.81190977675224" lon="11.684485671680875"><ele>527.0</ele><time>2026-04-25T08:55:25.929Z</time></trkpt><trkpt lat="43.81205600774682" lon="11.68451778336369"><ele>527.0</ele><time>2026-04-25T08:55:26.929Z</time></trkpt><trkpt lat="43.812186769910056" lon="11.684579313514114"><ele>527.6</ele><time>2026-04-25T08:55:27.929Z</time></trkpt><trkpt lat="43.8123067661349" lon="11.684627819026975"><ele>528.2</ele><time>2026-04-25T08:55:28.929Z</time></trkpt><trkpt lat="43.81241100296585" lon="11.684665721679188"><ele>528.8</ele><time>2026-04-25T08:55:29.929Z</time></trkpt><trkpt lat="43.81250865496942" lon="11.684698342357008"><ele>529.4</ele><time>2026-04-25T08:55:30.929Z</time></trkpt><trkpt lat="43.81259751404901" lon="11.684693930432005"><ele>530.0</ele><time>2026-04-25T08:55:31.929Z</time></trkpt><trkpt lat="43.8126729843327" lon="11.684656575368948"><ele>530.0</ele><time>2026-04-25T08:55:32.929Z</time></trkpt><trkpt lat="43.8127366437463" lon="11.684588226996093"><ele>530.0</ele><time>2026-04-25T08:55:33.929Z</time></trkpt><trkpt lat="43.81276402073052" lon="11.684464611410272"><ele>530.0</ele><time>2026-04-25T08:55:34.929Z</time></trkpt><trkpt lat="43.81273080103573" lon="11.684322118745065"><ele>530.0</ele><time>2026-04-25T08:55:35.929Z</time></trkpt><trkpt lat="43.81269758531335" lon="11.684174596690147"><ele>530.0</ele><time>2026-04-25T08:55:36.929Z</time></trkpt><trkpt lat="43.81267486424611" lon="11.684028416119006"><ele>526.0</ele><time>2026-04-25T08:55:37.929Z</time></trkpt><trkpt lat="43.81259503516269" lon="11.683914191657863"><ele>522.0</ele><time>2026-04-25T08:55:38.929Z</time></trkpt><trkpt lat="43.81250597306014" lon="11.68383463940347"><ele>518.0</ele><time>2026-04-25T08:55:39.929Z</time></trkpt><trkpt lat="43.81240040134286" lon="11.683764165667185"><ele>514.0</ele><time>2026-04-25T08:55:40.929Z</time></trkpt><trkpt lat="43.8122926609387" lon="11.683698868168705"><ele>517.4</ele><time>2026-04-25T08:55:41.929Z</time></trkpt><trkpt lat="43.81220721356439" lon="11.683582050596044"><ele>520.8</ele><time>2026-04-25T08:55:42.929Z</time></trkpt><trkpt lat="43.812156205407746" lon="11.683443338208681"><ele>524.2</ele><time>2026-04-25T08:55:43.929Z</time></trkpt><trkpt lat="43.81213475640842" lon="11.68330305712905"><ele>527.6</ele><time>2026-04-25T08:55:44.929Z</time></trkpt><trkpt lat="43.81213713704494" lon="11.68316267710477"><ele>531.0</ele><time>2026-04-25T08:55:45.929Z</time></trkpt><trkpt lat="43.812158147860735" lon="11.683005972538885"><ele>531.0</ele><time>2026-04-25T08:55:46.929Z</time></trkpt><trkpt lat="43.81219252621401" lon="11.682864086539546"><ele>531.0</ele><time>2026-04-25T08:55:47.929Z</time></trkpt><trkpt lat="43.812220170022165" lon="11.682717221689748"><ele>531.0</ele><time>2026-04-25T08:55:48.929Z</time></trkpt><trkpt lat="43.81226204722749" lon="11.682568983200845"><ele>531.0</ele><time>2026-04-25T08:55:49.929Z</time></trkpt><trkpt lat="43.81230892610922" lon="11.6824164155741"><ele>531.75</ele><time>2026-04-25T08:55:50.929Z</time></trkpt><trkpt lat="43.812384632975686" lon="11.682260424063912"><ele>532.5</ele><time>2026-04-25T08:55:51.929Z</time></trkpt><trkpt lat="43.81247453167502" lon="11.682119633249604"><ele>533.25</ele><time>2026-04-25T08:55:52.929Z</time></trkpt><trkpt lat="43.812544581615" lon="11.681965328921718"><ele>534.0</ele><time>2026-04-25T08:55:53.929Z</time></trkpt><trkpt lat="43.8125945982808" lon="11.681786248972731"><ele>532.25</ele><time>2026-04-25T08:55:54.929Z</time></trkpt><trkpt lat="43.81264611074393" lon="11.681595023544368"><ele>530.5</ele><time>2026-04-25T08:55:55.929Z</time></trkpt><trkpt lat="43.812696704275794" lon="11.681400123914978"><ele>528.75</ele><time>2026-04-25T08:55:56.929Z</time></trkpt><trkpt lat="43.81274974397673" lon="11.68121467522658"><ele>527.0</ele><time>2026-04-25T08:55:57.929Z</time></trkpt><trkpt lat="43.81280238519236" lon="11.681040953441835"><ele>534.75</ele><time>2026-04-25T08:55:58.929Z</time></trkpt><trkpt lat="43.81285755883793" lon="11.680871471837833"><ele>542.5</ele><time>2026-04-25T08:55:59.929Z</time></trkpt><trkpt lat="43.81292293617394" lon="11.680701233682933"><ele>550.25</ele><time>2026-04-25T08:56:00.929Z</time></trkpt><trkpt lat="43.813010681075866" lon="11.680539962584469"><ele>558.0</ele><time>2026-04-25T08:56:01.929Z</time></trkpt><trkpt lat="43.81310448871487" lon="11.680372724050539"><ele>552.3333333333334</ele><time>2026-04-25T08:56:02.929Z</time></trkpt><trkpt lat="43.81320803874241" lon="11.68020044471177"><ele>546.6666666666667</ele><time>2026-04-25T08:56:03.929Z</time></trkpt><trkpt lat="43.81331096224319" lon="11.680031246348772"><ele>541.0</ele><time>2026-04-25T08:56:04.929Z</time></trkpt><trkpt lat="43.813414723203365" lon="11.679848468051336"><ele>545.6666666666667</ele><time>2026-04-25T08:56:05.929Z</time></trkpt><trkpt lat="43.813514348295605" lon="11.679666231559287"><ele>550.3333333333334</ele><time>2026-04-25T08:56:06.929Z</time></trkpt><trkpt lat="43.81361378157448" lon="11.679478351377833"><ele>555.0</ele><time>2026-04-25T08:56:07.929Z</time></trkpt><trkpt lat="43.813719233840224" lon="11.6792948067769"><ele>555.0</ele><time>2026-04-25T08:56:08.929Z</time></trkpt><trkpt lat="43.81383411177491" lon="11.679120753730066"><ele>555.0</ele><time>2026-04-25T08:56:09.929Z</time></trkpt><trkpt lat="43.813935938849426" lon="11.67894575565917"><ele>555.0</ele><time>2026-04-25T08:56:10.929Z</time></trkpt><trkpt lat="43.81402523081478" lon="11.6787906115045"><ele>555.0</ele><time>2026-04-25T08:56:11.929Z</time></trkpt><trkpt lat="43.814108977134495" lon="11.678656299119208"><ele>555.0</ele><time>2026-04-25T08:56:12.929Z</time></trkpt><trkpt lat="43.81419552074299" lon="11.678529869838664"><ele>555.0</ele><time>2026-04-25T08:56:13.929Z</time></trkpt><trkpt lat="43.81428590950298" lon="11.678415130185043"><ele>555.0</ele><time>2026-04-25T08:56:14.929Z</time></trkpt><trkpt lat="43.81439298785031" lon="11.678324994251549"><ele>559.0</ele><time>2026-04-25T08:56:15.929Z</time></trkpt><trkpt lat="43.814517028152636" lon="11.678262635944051"><ele>563.0</ele><time>2026-04-25T08:56:16.929Z</time></trkpt><trkpt lat="43.81463739349653" lon="11.678204454356042"><ele>567.0</ele><time>2026-04-25T08:56:17.929Z</time></trkpt><trkpt lat="43.81473939569492" lon="11.678145606465558"><ele>571.0</ele><time>2026-04-25T08:56:18.929Z</time></trkpt><trkpt lat="43.814817050171236" lon="11.678096045400139"><ele>571.0</ele><time>2026-04-25T08:56:19.929Z</time></trkpt><trkpt lat="43.81485646378435" lon="11.677971613649332"><ele>571.0</ele><time>2026-04-25T08:56:20.929Z</time></trkpt><trkpt lat="43.81486270530941" lon="11.677832164998803"><ele>571.0</ele><time>2026-04-25T08:56:21.929Z</time></trkpt><trkpt lat="43.81485305230716" lon="11.677655900489174"><ele>571.0</ele><time>2026-04-25T08:56:22.929Z</time></trkpt><trkpt lat="43.81487074874185" lon="11.677479033397589"><ele>568.5</ele><time>2026-04-25T08:56:23.929Z</time></trkpt><trkpt lat="43.814915825503974" lon="11.677303825711375"><ele>566.0</ele><time>2026-04-25T08:56:24.929Z</time></trkpt><trkpt lat="43.81499108538432" lon="11.677140607671902"><ele>563.5</ele><time>2026-04-25T08:56:25.929Z</time></trkpt><trkpt lat="43.81507543356037" lon="11.676973769157048"><ele>561.0</ele><time>2026-04-25T08:56:26.929Z</time></trkpt><trkpt lat="43.815156109865754" lon="11.67683639455783"><ele>566.0</ele><time>2026-04-25T08:56:27.928Z</time></trkpt><trkpt lat="43.815229750917425" lon="11.67671166999406"><ele>571.0</ele><time>2026-04-25T08:56:28.928Z</time></trkpt><trkpt lat="43.815329423296276" lon="11.676623256260573"><ele>576.0</ele><time>2026-04-25T08:56:29.928Z</time></trkpt><trkpt lat="43.81545933034608" lon="11.676611688439072"><ele>581.0</ele><time>2026-04-25T08:56:30.928Z</time></trkpt><trkpt lat="43.815590657892294" lon="11.676549724014018"><ele>581.0</ele><time>2026-04-25T08:56:31.928Z</time></trkpt><trkpt lat="43.81573294779281" lon="11.67647471059934"><ele>581.0</ele><time>2026-04-25T08:56:32.928Z</time></trkpt><trkpt lat="43.815859841709496" lon="11.676374560777452"><ele>581.0</ele><time>2026-04-25T08:56:33.928Z</time></trkpt><trkpt lat="43.815990910046565" lon="11.67625332325263"><ele>582.75</ele><time>2026-04-25T08:56:34.928Z</time></trkpt><trkpt lat="43.8161227105765" lon="11.67614748502701"><ele>584.5</ele><time>2026-04-25T08:56:35.928Z</time></trkpt><trkpt lat="43.81623926618213" lon="11.67605716635752"><ele>586.25</ele><time>2026-04-25T08:56:36.928Z</time></trkpt><trkpt lat="43.81633866157015" lon="11.675934980465485"><ele>588.0</ele><time>2026-04-25T08:56:37.928Z</time></trkpt><trkpt lat="43.81643241469899" lon="11.675805330169037"><ele>588.0</ele><time>2026-04-25T08:56:38.928Z</time></trkpt><trkpt lat="43.81650441507537" lon="11.67564679122514"><ele>588.0</ele><time>2026-04-25T08:56:39.928Z</time></trkpt><trkpt lat="43.81654124618908" lon="11.675466836432754"><ele>588.0</ele><time>2026-04-25T08:56:40.928Z</time></trkpt><trkpt lat="43.81656986254856" lon="11.675296118231898"><ele>588.0</ele><time>2026-04-25T08:56:41.928Z</time></trkpt><trkpt lat="43.81659541111554" lon="11.67513630129642"><ele>585.25</ele><time>2026-04-25T08:56:42.928Z</time></trkpt><trkpt lat="43.8166455746882" lon="11.674985402493666"><ele>582.5</ele><time>2026-04-25T08:56:43.928Z</time></trkpt><trkpt lat="43.81672129468002" lon="11.674859039705307"><ele>579.75</ele><time>2026-04-25T08:56:44.928Z</time></trkpt><trkpt lat="43.81683396924325" lon="11.674770432788478"><ele>577.0</ele><time>2026-04-25T08:56:45.928Z</time></trkpt><trkpt lat="43.81694414200577" lon="11.674668896021982"><ele>581.0</ele><time>2026-04-25T08:56:46.928Z</time></trkpt><trkpt lat="43.81705420861012" lon="11.674551873442473"><ele>585.0</ele><time>2026-04-25T08:56:47.928Z</time></trkpt><trkpt lat="43.81714028976773" lon="11.674399744208266"><ele>589.0</ele><time>2026-04-25T08:56:48.928Z</time></trkpt><trkpt lat="43.81720653557441" lon="11.674222897989258"><ele>593.0</ele><time>2026-04-25T08:56:49.928Z</time></trkpt><trkpt lat="43.81726571509601" lon="11.67404470117948"><ele>593.0</ele><time>2026-04-25T08:56:50.928Z</time></trkpt><trkpt lat="43.81731124960262" lon="11.673877926428615"><ele>593.0</ele><time>2026-04-25T08:56:51.928Z</time></trkpt><trkpt lat="43.8173693250518" lon="11.67372966748966"><ele>593.0</ele><time>2026-04-25T08:56:52.928Z</time></trkpt><trkpt lat="43.81743075297353" lon="11.673607469499007"><ele>593.0</ele><time>2026-04-25T08:56:53.928Z</time></trkpt><trkpt lat="43.81748144427409" lon="11.67347691193154"><ele>591.0</ele><time>2026-04-25T08:56:54.928Z</time></trkpt><trkpt lat="43.81751457377568" lon="11.673349629138627"><ele>589.0</ele><time>2026-04-25T08:56:55.928Z</time></trkpt><trkpt lat="43.81752043635382" lon="11.673186608228344"><ele>587.0</ele><time>2026-04-25T08:56:56.928Z</time></trkpt><trkpt lat="43.817482685545684" lon="11.673024931059391"><ele>585.0</ele><time>2026-04-25T08:56:57.928Z</time></trkpt><trkpt lat="43.81743652860973" lon="11.672878434111817"><ele>586.0</ele><time>2026-04-25T08:56:58.928Z</time></trkpt><trkpt lat="43.81738660144973" lon="11.672722434744898"><ele>587.0</ele><time>2026-04-25T08:56:59.928Z</time></trkpt><trkpt lat="43.817336279571414" lon="11.672563349648364"><ele>588.0</ele><time>2026-04-25T08:57:00.928Z</time></trkpt><trkpt lat="43.81729032101473" lon="11.672418056271429"><ele>589.0</ele><time>2026-04-25T08:57:01.928Z</time></trkpt><trkpt lat="43.81724649132506" lon="11.672275822367848"><ele>589.0</ele><time>2026-04-25T08:57:02.928Z</time></trkpt><trkpt lat="43.817207623643235" lon="11.672140072722666"><ele>589.0</ele><time>2026-04-25T08:57:03.928Z</time></trkpt><trkpt lat="43.817171127120304" lon="11.671993554711747"><ele>589.0</ele><time>2026-04-25T08:57:04.928Z</time></trkpt><trkpt lat="43.81719223107404" lon="11.671828436083553"><ele>589.0</ele><time>2026-04-25T08:57:05.928Z</time></trkpt><trkpt lat="43.817253883786336" lon="11.671671683111734"><ele>589.3333333333334</ele><time>2026-04-25T08:57:06.928Z</time></trkpt><trkpt lat="43.81732635838035" lon="11.67149771379741"><ele>589.6666666666666</ele><time>2026-04-25T08:57:07.928Z</time></trkpt><trkpt lat="43.817396484923115" lon="11.671310012006858"><ele>590.0</ele><time>2026-04-25T08:57:08.928Z</time></trkpt><trkpt lat="43.817462382643974" lon="11.671115581245912"><ele>586.3333333333333</ele><time>2026-04-25T08:57:09.928Z</time></trkpt><trkpt lat="43.81750739741353" lon="11.670906454006174"><ele>582.6666666666666</ele><time>2026-04-25T08:57:10.928Z</time></trkpt><trkpt lat="43.817534683993216" lon="11.67069019243836"><ele>579.0</ele><time>2026-04-25T08:57:11.928Z</time></trkpt><trkpt lat="43.81755493438803" lon="11.670461520306654"><ele>577.3333333333334</ele><time>2026-04-25T08:57:12.928Z</time></trkpt><trkpt lat="43.817599466955706" lon="11.670245722541692"><ele>575.6666666666667</ele><time>2026-04-25T08:57:13.928Z</time></trkpt><trkpt lat="43.81763354619398" lon="11.670013179483439"><ele>574.0</ele><time>2026-04-25T08:57:14.928Z</time></trkpt><trkpt lat="43.81766480478757" lon="11.669797601456231"><ele>577.5</ele><time>2026-04-25T08:57:15.928Z</time></trkpt><trkpt lat="43.8176808240326" lon="11.669598778448014"><ele>581.0</ele><time>2026-04-25T08:57:16.928Z</time></trkpt><trkpt lat="43.817708544867536" lon="11.669414249188023"><ele>584.5</ele><time>2026-04-25T08:57:17.928Z</time></trkpt><trkpt lat="43.81775375502679" lon="11.669239035448909"><ele>588.0</ele><time>2026-04-25T08:57:18.928Z</time></trkpt><trkpt lat="43.81779577566515" lon="11.669094071599124"><ele>588.0</ele><time>2026-04-25T08:57:19.928Z</time></trkpt><trkpt lat="43.817852623705306" lon="11.668955941836877"><ele>588.0</ele><time>2026-04-25T08:57:20.928Z</time></trkpt><trkpt lat="43.81794604968281" lon="11.668876620073217"><ele>588.0</ele><time>2026-04-25T08:57:21.928Z</time></trkpt><trkpt lat="43.818062524161846" lon="11.668844657541097"><ele>588.0</ele><time>2026-04-25T08:57:22.928Z</time></trkpt><trkpt lat="43.81818638734304" lon="11.668850316526301"><ele>588.0</ele><time>2026-04-25T08:57:23.928Z</time></trkpt><trkpt lat="43.81832089686076" lon="11.668874468731167"><ele>588.0</ele><time>2026-04-25T08:57:24.928Z</time></trkpt><trkpt lat="43.81845686243431" lon="11.668878176754617"><ele>588.0</ele><time>2026-04-25T08:57:25.928Z</time></trkpt><trkpt lat="43.81859275553908" lon="11.668885663592246"><ele>588.0</ele><time>2026-04-25T08:57:26.928Z</time></trkpt><trkpt lat="43.81871667043433" lon="11.668873736756696"><ele>586.0</ele><time>2026-04-25T08:57:27.927Z</time></trkpt><trkpt lat="43.8188351695424" lon="11.668848818895322"><ele>584.0</ele><time>2026-04-25T08:57:28.927Z</time></trkpt><trkpt lat="43.81894296669775" lon="11.668769489839804"><ele>582.0</ele><time>2026-04-25T08:57:29.927Z</time></trkpt><trkpt lat="43.81903986615646" lon="11.66866789025284"><ele>580.0</ele><time>2026-04-25T08:57:30.927Z</time></trkpt><trkpt lat="43.81913205212008" lon="11.668551211246573"><ele>580.0</ele><time>2026-04-25T08:57:31.927Z</time></trkpt><trkpt lat="43.819224795774964" lon="11.66843066724539"><ele>580.0</ele><time>2026-04-25T08:57:32.927Z</time></trkpt><trkpt lat="43.819312295734896" lon="11.668309487560546"><ele>580.0</ele><time>2026-04-25T08:57:33.927Z</time></trkpt><trkpt lat="43.81938907715426" lon="11.668181562747089"><ele>580.0</ele><time>2026-04-25T08:57:34.927Z</time></trkpt><trkpt lat="43.81943636014604" lon="11.66802172637848"><ele>584.5</ele><time>2026-04-25T08:57:35.927Z</time></trkpt><trkpt lat="43.81946062615008" lon="11.667849219557192"><ele>589.0</ele><time>2026-04-25T08:57:36.927Z</time></trkpt><trkpt lat="43.8194494263951" lon="11.667668977224357"><ele>593.5</ele><time>2026-04-25T08:57:37.927Z</time></trkpt><trkpt lat="43.81943213746814" lon="11.667477110236435"><ele>598.0</ele><time>2026-04-25T08:57:38.927Z</time></trkpt><trkpt lat="43.81941261557938" lon="11.667295587989024"><ele>599.75</ele><time>2026-04-25T08:57:39.927Z</time></trkpt><trkpt lat="43.819395371132366" lon="11.667110038087172"><ele>601.5</ele><time>2026-04-25T08:57:40.927Z</time></trkpt><trkpt lat="43.81937625466433" lon="11.666944018963479"><ele>603.25</ele><time>2026-04-25T08:57:41.927Z</time></trkpt><trkpt lat="43.819358669054644" lon="11.666786560221068"><ele>605.0</ele><time>2026-04-25T08:57:42.926Z</time></trkpt><trkpt lat="43.81934488675485" lon="11.666631521047295"><ele>605.0</ele><time>2026-04-25T08:57:43.926Z</time></trkpt><trkpt lat="43.81934109615885" lon="11.66648263716019"><ele>605.0</ele><time>2026-04-25T08:57:44.926Z</time></trkpt><trkpt lat="43.81934277414931" lon="11.666333532101785"><ele>605.0</ele><time>2026-04-25T08:57:45.926Z</time></trkpt><trkpt lat="43.8193695399904" lon="11.666184741741098"><ele>605.0</ele><time>2026-04-25T08:57:46.926Z</time></trkpt><trkpt lat="43.81942905653877" lon="11.666030296601946"><ele>603.5</ele><time>2026-04-25T08:57:47.926Z</time></trkpt><trkpt lat="43.81951964721235" lon="11.665875053265003"><ele>602.0</ele><time>2026-04-25T08:57:48.926Z</time></trkpt><trkpt lat="43.819617619852984" lon="11.665723819968962"><ele>600.5</ele><time>2026-04-25T08:57:49.926Z</time></trkpt><trkpt lat="43.81971396952271" lon="11.665560357178155"><ele>599.0</ele><time>2026-04-25T08:57:50.926Z</time></trkpt><trkpt lat="43.81978696329214" lon="11.665380203024633"><ele>595.5</ele><time>2026-04-25T08:57:51.926Z</time></trkpt><trkpt lat="43.819848526763245" lon="11.665207916793875"><ele>592.0</ele><time>2026-04-25T08:57:52.925Z</time></trkpt><trkpt lat="43.819899595692156" lon="11.665048765284377"><ele>588.5</ele><time>2026-04-25T08:57:53.925Z</time></trkpt><trkpt lat="43.81994662233809" lon="11.664902625363071"><ele>585.0</ele><time>2026-04-25T08:57:54.926Z</time></trkpt><trkpt lat="43.819999091764686" lon="11.6647715231167"><ele>585.0</ele><time>2026-04-25T08:57:55.926Z</time></trkpt><trkpt lat="43.82006341282828" lon="11.664658511065896"><ele>585.0</ele><time>2026-04-25T08:57:56.926Z</time></trkpt><trkpt lat="43.820155378981724" lon="11.664574317078904"><ele>585.0</ele><time>2026-04-25T08:57:57.926Z</time></trkpt><trkpt lat="43.82027179600537" lon="11.664525615122836"><ele>585.0</ele><time>2026-04-25T08:57:58.926Z</time></trkpt><trkpt lat="43.82038360902624" lon="11.664519756245225"><ele>585.0</ele><time>2026-04-25T08:57:59.926Z</time></trkpt><trkpt lat="43.82049089134181" lon="11.664554657455287"><ele>589.0</ele><time>2026-04-25T08:58:00.926Z</time></trkpt><trkpt lat="43.82059711028976" lon="11.66463639038076"><ele>593.0</ele><time>2026-04-25T08:58:01.926Z</time></trkpt><trkpt lat="43.82069754004781" lon="11.664736549964077"><ele>597.0</ele><time>2026-04-25T08:58:02.926Z</time></trkpt><trkpt lat="43.82079159535328" lon="11.664849570359953"><ele>601.0</ele><time>2026-04-25T08:58:03.926Z</time></trkpt><trkpt lat="43.82088283697871" lon="11.664934570577403"><ele>604.0</ele><time>2026-04-25T08:58:04.926Z</time></trkpt><trkpt lat="43.82098451809796" lon="11.6649804665013"><ele>607.0</ele><time>2026-04-25T08:58:05.926Z</time></trkpt><trkpt lat="43.82109878289796" lon="11.664988824795236"><ele>610.0</ele><time>2026-04-25T08:58:06.926Z</time></trkpt><trkpt lat="43.82122346024602" lon="11.664983021982419"><ele>613.0</ele><time>2026-04-25T08:58:07.926Z</time></trkpt><trkpt lat="43.82133383990975" lon="11.664875291209832"><ele>613.0</ele><time>2026-04-25T08:58:08.926Z</time></trkpt><trkpt lat="43.821426826180996" lon="11.664783649607319"><ele>613.0</ele><time>2026-04-25T08:58:09.926Z</time></trkpt><trkpt lat="43.82149297809299" lon="11.664628300283749"><ele>613.0</ele><time>2026-04-25T08:58:10.926Z</time></trkpt><trkpt lat="43.82155752815205" lon="11.664446925904691"><ele>613.0</ele><time>2026-04-25T08:58:11.926Z</time></trkpt><trkpt lat="43.821620635749305" lon="11.664266338644369"><ele>614.75</ele><time>2026-04-25T08:58:12.926Z</time></trkpt><trkpt lat="43.82167928801534" lon="11.664103176273386"><ele>616.5</ele><time>2026-04-25T08:58:13.926Z</time></trkpt><trkpt lat="43.82173790107868" lon="11.66395112405952"><ele>618.25</ele><time>2026-04-25T08:58:14.926Z</time></trkpt><trkpt lat="43.82179063622965" lon="11.663815619992052"><ele>620.0</ele><time>2026-04-25T08:58:15.926Z</time></trkpt><trkpt lat="43.82188692352745" lon="11.663730392456856"><ele>620.0</ele><time>2026-04-25T08:58:16.926Z</time></trkpt><trkpt lat="43.821983935527896" lon="11.663644154057291"><ele>620.0</ele><time>2026-04-25T08:58:17.926Z</time></trkpt><trkpt lat="43.822092391335765" lon="11.6635602516484"><ele>620.0</ele><time>2026-04-25T08:58:18.926Z</time></trkpt><trkpt lat="43.82220124089147" lon="11.663483650776568"><ele>620.0</ele><time>2026-04-25T08:58:19.926Z</time></trkpt><trkpt lat="43.82230835319317" lon="11.663421033919885"><ele>615.25</ele><time>2026-04-25T08:58:20.926Z</time></trkpt><trkpt lat="43.82242765629715" lon="11.663361135414585"><ele>610.5</ele><time>2026-04-25T08:58:21.926Z</time></trkpt><trkpt lat="43.82255281326399" lon="11.663331965005767"><ele>605.75</ele><time>2026-04-25T08:58:22.926Z</time></trkpt><trkpt lat="43.822681688316344" lon="11.663293371940078"><ele>601.0</ele><time>2026-04-25T08:58:23.926Z</time></trkpt><trkpt lat="43.822825520625635" lon="11.663275931652672"><ele>601.0</ele><time>2026-04-25T08:58:24.925Z</time></trkpt><trkpt lat="43.82296988170601" lon="11.663258062772622"><ele>601.0</ele><time>2026-04-25T08:58:25.925Z</time></trkpt><trkpt lat="43.82310790857666" lon="11.66323243063468"><ele>601.0</ele><time>2026-04-25T08:58:26.925Z</time></trkpt><trkpt lat="43.82324741248955" lon="11.663222419741688"><ele>601.0</ele><time>2026-04-25T08:58:27.925Z</time></trkpt><trkpt lat="43.82338416422418" lon="11.663197063160938"><ele>602.5</ele><time>2026-04-25T08:58:28.925Z</time></trkpt><trkpt lat="43.8235107345478" lon="11.66319807173438"><ele>604.0</ele><time>2026-04-25T08:58:29.925Z</time></trkpt><trkpt lat="43.823654950602254" lon="11.663178438442307"><ele>605.5</ele><time>2026-04-25T08:58:30.925Z</time></trkpt><trkpt lat="43.823796163854766" lon="11.663153556526893"><ele>607.0</ele><time>2026-04-25T08:58:31.925Z</time></trkpt><trkpt lat="43.82392954529947" lon="11.663130517265664"><ele>607.0</ele><time>2026-04-25T08:58:32.925Z</time></trkpt><trkpt lat="43.824056451764584" lon="11.663110660540733"><ele>607.0</ele><time>2026-04-25T08:58:33.925Z</time></trkpt><trkpt lat="43.82417068026183" lon="11.663024168590876"><ele>607.0</ele><time>2026-04-25T08:58:34.925Z</time></trkpt><trkpt lat="43.82427356090838" lon="11.66290991368124"><ele>607.0</ele><time>2026-04-25T08:58:35.925Z</time></trkpt><trkpt lat="43.82434077949632" lon="11.662756904612007"><ele>606.75</ele><time>2026-04-25T08:58:36.925Z</time></trkpt><trkpt lat="43.82438526276131" lon="11.662575611964192"><ele>606.5</ele><time>2026-04-25T08:58:37.925Z</time></trkpt><trkpt lat="43.824435119974865" lon="11.662391150520905"><ele>606.25</ele><time>2026-04-25T08:58:38.925Z</time></trkpt><trkpt lat="43.82447346423253" lon="11.662214267576498"><ele>606.0</ele><time>2026-04-25T08:58:39.925Z</time></trkpt><trkpt lat="43.82451260209349" lon="11.66205354370664"><ele>603.5</ele><time>2026-04-25T08:58:40.925Z</time></trkpt><trkpt lat="43.82455701563214" lon="11.661903738277037"><ele>601.0</ele><time>2026-04-25T08:58:41.925Z</time></trkpt><trkpt lat="43.82463695173123" lon="11.661789207378384"><ele>598.5</ele><time>2026-04-25T08:58:42.925Z</time></trkpt><trkpt lat="43.824722482413534" lon="11.661693217216865"><ele>596.0</ele><time>2026-04-25T08:58:43.925Z</time></trkpt><trkpt lat="43.82480999272402" lon="11.661589642761886"><ele>596.0</ele><time>2026-04-25T08:58:44.925Z</time></trkpt><trkpt lat="43.82491149570947" lon="11.661500173330413"><ele>596.0</ele><time>2026-04-25T08:58:45.925Z</time></trkpt><trkpt lat="43.825017218836514" lon="11.661395779383604"><ele>596.0</ele><time>2026-04-25T08:58:46.925Z</time></trkpt><trkpt lat="43.82513059214998" lon="11.661287447774095"><ele>596.0</ele><time>2026-04-25T08:58:47.925Z</time></trkpt><trkpt lat="43.82524596930259" lon="11.661169582201712"><ele>598.0</ele><time>2026-04-25T08:58:48.925Z</time></trkpt><trkpt lat="43.82536009578303" lon="11.661039510996822"><ele>600.0</ele><time>2026-04-25T08:58:49.925Z</time></trkpt><trkpt lat="43.825475634248136" lon="11.660911816416755"><ele>602.0</ele><time>2026-04-25T08:58:50.925Z</time></trkpt><trkpt lat="43.82558712751094" lon="11.660786568248554"><ele>604.0</ele><time>2026-04-25T08:58:51.925Z</time></trkpt><trkpt lat="43.825687479497724" lon="11.660655967400567"><ele>604.0</ele><time>2026-04-25T08:58:52.925Z</time></trkpt><trkpt lat="43.82577481642736" lon="11.66051004181655"><ele>604.0</ele><time>2026-04-25T08:58:53.925Z</time></trkpt><trkpt lat="43.82584081404925" lon="11.660342331908971"><ele>604.0</ele><time>2026-04-25T08:58:54.925Z</time></trkpt><trkpt lat="43.82589878625825" lon="11.660163616068855"><ele>604.0</ele><time>2026-04-25T08:58:55.925Z</time></trkpt><trkpt lat="43.825937187130336" lon="11.659977315699932"><ele>604.5</ele><time>2026-04-25T08:58:56.925Z</time></trkpt><trkpt lat="43.825974788700755" lon="11.659779264893182"><ele>605.0</ele><time>2026-04-25T08:58:57.925Z</time></trkpt><trkpt lat="43.82600566733873" lon="11.659591724402851"><ele>605.5</ele><time>2026-04-25T08:58:58.925Z</time></trkpt><trkpt lat="43.82603859801716" lon="11.659418482999033"><ele>606.0</ele><time>2026-04-25T08:58:59.925Z</time></trkpt><trkpt lat="43.82607276853954" lon="11.659256672681483"><ele>606.0</ele><time>2026-04-25T08:59:00.925Z</time></trkpt><trkpt lat="43.82612666114033" lon="11.659108671833227"><ele>606.0</ele><time>2026-04-25T08:59:01.925Z</time></trkpt><trkpt lat="43.82620381226476" lon="11.658982529800454"><ele>606.0</ele><time>2026-04-25T08:59:02.925Z</time></trkpt><trkpt lat="43.82629992329111" lon="11.658865330344366"><ele>606.0</ele><time>2026-04-25T08:59:03.925Z</time></trkpt><trkpt lat="43.82641098489351" lon="11.658778658721417"><ele>606.0</ele><time>2026-04-25T08:59:04.925Z</time></trkpt><trkpt lat="43.82652983881426" lon="11.65873079552466"><ele>606.0</ele><time>2026-04-25T08:59:05.925Z</time></trkpt><trkpt lat="43.826650474917464" lon="11.658727121682507"><ele>606.0</ele><time>2026-04-25T08:59:06.925Z</time></trkpt><trkpt lat="43.82677240004334" lon="11.658761409688234"><ele>606.0</ele><time>2026-04-25T08:59:07.925Z</time></trkpt><trkpt lat="43.82689555993328" lon="11.658824755673852"><ele>605.75</ele><time>2026-04-25T08:59:08.925Z</time></trkpt><trkpt lat="43.827029571846936" lon="11.65889404161447"><ele>605.5</ele><time>2026-04-25T08:59:09.925Z</time></trkpt><trkpt lat="43.827166172887566" lon="11.658961291598196"><ele>605.25</ele><time>2026-04-25T08:59:10.925Z</time></trkpt><trkpt lat="43.82729719788664" lon="11.659022254999462"><ele>605.0</ele><time>2026-04-25T08:59:11.925Z</time></trkpt><trkpt lat="43.82743766520109" lon="11.659066222805333"><ele>605.0</ele><time>2026-04-25T08:59:12.925Z</time></trkpt><trkpt lat="43.827577188488" lon="11.659080446695864"><ele>605.0</ele><time>2026-04-25T08:59:13.925Z</time></trkpt><trkpt lat="43.82772212898022" lon="11.65907815969575"><ele>605.0</ele><time>2026-04-25T08:59:14.925Z</time></trkpt><trkpt lat="43.82788239239604" lon="11.659077817592081"><ele>605.0</ele><time>2026-04-25T08:59:15.925Z</time></trkpt><trkpt lat="43.828044938581755" lon="11.659084645867159"><ele>604.0</ele><time>2026-04-25T08:59:16.925Z</time></trkpt><trkpt lat="43.82820773559079" lon="11.659078044817525"><ele>603.0</ele><time>2026-04-25T08:59:17.925Z</time></trkpt><trkpt lat="43.82835941578977" lon="11.659076050895539"><ele>602.0</ele><time>2026-04-25T08:59:18.925Z</time></trkpt><trkpt lat="43.82850509653241" lon="11.659075227091046"><ele>600.0</ele><time>2026-04-25T08:59:19.925Z</time></trkpt><trkpt lat="43.82864146628139" lon="11.659079638619934"><ele>598.0</ele><time>2026-04-25T08:59:20.925Z</time></trkpt><trkpt lat="43.82875882239641" lon="11.659092702508692"><ele>596.0</ele><time>2026-04-25T08:59:21.925Z</time></trkpt><trkpt lat="43.82887457737263" lon="11.659130910673674"><ele>594.0</ele><time>2026-04-25T08:59:22.925Z</time></trkpt><trkpt lat="43.828979086728246" lon="11.659202506300485"><ele>594.0</ele><time>2026-04-25T08:59:23.925Z</time></trkpt><trkpt lat="43.829066747088724" lon="11.659313013807036"><ele>594.0</ele><time>2026-04-25T08:59:24.924Z</time></trkpt><trkpt lat="43.829150370058635" lon="11.659423306496278"><ele>594.0</ele><time>2026-04-25T08:59:25.924Z</time></trkpt><trkpt lat="43.829248684208444" lon="11.659508236230387"><ele>594.0</ele><time>2026-04-25T08:59:26.924Z</time></trkpt><trkpt lat="43.82934262218508" lon="11.659565962851312"><ele>594.0</ele><time>2026-04-25T08:59:27.924Z</time></trkpt><trkpt lat="43.82944286279453" lon="11.659617968628137"><ele>594.0</ele><time>2026-04-25T08:59:28.924Z</time></trkpt><trkpt lat="43.82959390899063" lon="11.65960932017111"><ele>594.0</ele><time>2026-04-25T08:59:29.924Z</time></trkpt><trkpt lat="43.829726626040554" lon="11.659547408517613"><ele>594.0</ele><time>2026-04-25T08:59:30.924Z</time></trkpt><trkpt lat="43.82984875462953" lon="11.659447423581772"><ele>594.0</ele><time>2026-04-25T08:59:31.924Z</time></trkpt><trkpt lat="43.82996078504469" lon="11.659330583477933"><ele>594.0</ele><time>2026-04-25T08:59:32.924Z</time></trkpt><trkpt lat="43.83005730704396" lon="11.65922500458924"><ele>594.0</ele><time>2026-04-25T08:59:33.924Z</time></trkpt><trkpt lat="43.83012255064995" lon="11.659086121401282"><ele>594.0</ele><time>2026-04-25T08:59:34.924Z</time></trkpt><trkpt lat="43.830220414603865" lon="11.659018571176649"><ele>596.6</ele><time>2026-04-25T08:59:35.924Z</time></trkpt><trkpt lat="43.83031248893914" lon="11.658989092313067"><ele>599.2</ele><time>2026-04-25T08:59:36.924Z</time></trkpt><trkpt lat="43.83039496880431" lon="11.658997276337798"><ele>601.8000000000001</ele><time>2026-04-25T08:59:37.924Z</time></trkpt><trkpt lat="43.83049106736049" lon="11.659047236874425"><ele>604.4</ele><time>2026-04-25T08:59:38.924Z</time></trkpt><trkpt lat="43.830589553769464" lon="11.659093902732678"><ele>607.0</ele><time>2026-04-25T08:59:39.924Z</time></trkpt><trkpt lat="43.83070890874743" lon="11.659121568840268"><ele>607.0</ele><time>2026-04-25T08:59:40.924Z</time></trkpt><trkpt lat="43.83083611859911" lon="11.659101243917126"><ele>607.0</ele><time>2026-04-25T08:59:41.924Z</time></trkpt><trkpt lat="43.830942936141746" lon="11.659080606578542"><ele>607.0</ele><time>2026-04-25T08:59:42.924Z</time></trkpt><trkpt lat="43.831051501388565" lon="11.659058780665667"><ele>607.0</ele><time>2026-04-25T08:59:43.924Z</time></trkpt><trkpt lat="43.831155539892535" lon="11.659044608311719"><ele>605.8000000000001</ele><time>2026-04-25T08:59:44.924Z</time></trkpt><trkpt lat="43.83125893770422" lon="11.659046373447595"><ele>604.6</ele><time>2026-04-25T08:59:45.924Z</time></trkpt><trkpt lat="43.831365063059046" lon="11.659074516091904"><ele>603.4000000000001</ele><time>2026-04-25T08:59:46.924Z</time></trkpt><trkpt lat="43.8314577698195" lon="11.659128921169652"><ele>602.2</ele><time>2026-04-25T08:59:47.924Z</time></trkpt><trkpt lat="43.83155198044504" lon="11.659214373629933"><ele>601.0</ele><time>2026-04-25T08:59:48.923Z</time></trkpt><trkpt lat="43.831632199360826" lon="11.65929582091481"><ele>601.0</ele><time>2026-04-25T08:59:49.923Z</time></trkpt><trkpt lat="43.83170849974468" lon="11.65938115758922"><ele>601.0</ele><time>2026-04-25T08:59:50.923Z</time></trkpt><trkpt lat="43.83177451994528" lon="11.659455426596484"><ele>601.0</ele><time>2026-04-25T08:59:51.923Z</time></trkpt><trkpt lat="43.83183871886751" lon="11.659523280079897"><ele>601.0</ele><time>2026-04-25T08:59:52.923Z</time></trkpt><trkpt lat="43.83190993322332" lon="11.659584256715258"><ele>601.0</ele><time>2026-04-25T08:59:53.923Z</time></trkpt><trkpt lat="43.83200229977895" lon="11.659657874345132"><ele>602.5</ele><time>2026-04-25T08:59:54.923Z</time></trkpt><trkpt lat="43.83210586431666" lon="11.659723216030654"><ele>604.0</ele><time>2026-04-25T08:59:55.923Z</time></trkpt><trkpt lat="43.83221415593636" lon="11.659757220647363"><ele>605.5</ele><time>2026-04-25T08:59:56.923Z</time></trkpt><trkpt lat="43.83233345297513" lon="11.659757701877016"><ele>607.0</ele><time>2026-04-25T08:59:57.923Z</time></trkpt><trkpt lat="43.83246830254039" lon="11.659726705605532"><ele>607.0</ele><time>2026-04-25T08:59:58.923Z</time></trkpt><trkpt lat="43.83260364703005" lon="11.659685158875224"><ele>607.0</ele><time>2026-04-25T08:59:59.923Z</time></trkpt><trkpt lat="43.832749811238045" lon="11.659613520518498"><ele>607.0</ele><time>2026-04-25T09:00:00.923Z</time></trkpt><trkpt lat="43.83290597339965" lon="11.659573464227972"><ele>606.5</ele><time>2026-04-25T09:00:01.922Z</time></trkpt><trkpt lat="43.833053283419986" lon="11.659530061570894"><ele>606.0</ele><time>2026-04-25T09:00:02.922Z</time></trkpt><trkpt lat="43.833198542177655" lon="11.65947624790349"><ele>605.5</ele><time>2026-04-25T09:00:03.922Z</time></trkpt><trkpt lat="43.833340711191354" lon="11.659438574316184"><ele>605.0</ele><time>2026-04-25T09:00:04.922Z</time></trkpt><trkpt lat="43.83348312562839" lon="11.659391699080132"><ele>605.0</ele><time>2026-04-25T09:00:05.922Z</time></trkpt><trkpt lat="43.8336329397321" lon="11.659358377822802"><ele>605.0</ele><time>2026-04-25T09:00:06.922Z</time></trkpt><trkpt lat="43.83378966760018" lon="11.659287894572858"><ele>605.0</ele><time>2026-04-25T09:00:07.922Z</time></trkpt><trkpt lat="43.83394093051051" lon="11.659243663935875"><ele>605.0</ele><time>2026-04-25T09:00:08.922Z</time></trkpt><trkpt lat="43.834084572309685" lon="11.659202887009386"><ele>605.0</ele><time>2026-04-25T09:00:09.922Z</time></trkpt><trkpt lat="43.83421329892787" lon="11.659172761464914"><ele>605.0</ele><time>2026-04-25T09:00:10.922Z</time></trkpt><trkpt lat="43.834330893952" lon="11.659172796698355"><ele>605.0</ele><time>2026-04-25T09:00:11.922Z</time></trkpt><trkpt lat="43.834458059458484" lon="11.659203830583936"><ele>606.75</ele><time>2026-04-25T09:00:12.922Z</time></trkpt><trkpt lat="43.834595893901465" lon="11.659239894506754"><ele>608.5</ele><time>2026-04-25T09:00:13.922Z</time></trkpt><trkpt lat="43.83473810750697" lon="11.659269997702527"><ele>610.25</ele><time>2026-04-25T09:00:14.922Z</time></trkpt><trkpt lat="43.83486264290364" lon="11.659270468695434"><ele>612.0</ele><time>2026-04-25T09:00:15.922Z</time></trkpt><trkpt lat="43.83498456428858" lon="11.659267220778462"><ele>612.0</ele><time>2026-04-25T09:00:16.922Z</time></trkpt><trkpt lat="43.83510260728137" lon="11.659206049768434"><ele>612.0</ele><time>2026-04-25T09:00:17.922Z</time></trkpt><trkpt lat="43.83519826980653" lon="11.659084635269855"><ele>612.0</ele><time>2026-04-25T09:00:18.922Z</time></trkpt><trkpt lat="43.83529448358564" lon="11.658975991762187"><ele>612.0</ele><time>2026-04-25T09:00:19.922Z</time></trkpt><trkpt lat="43.83537170929551" lon="11.658862011118277"><ele>612.5</ele><time>2026-04-25T09:00:20.922Z</time></trkpt><trkpt lat="43.83544175432094" lon="11.658749556707884"><ele>613.0</ele><time>2026-04-25T09:00:21.922Z</time></trkpt><trkpt lat="43.835520376652575" lon="11.6586520577172"><ele>613.5</ele><time>2026-04-25T09:00:22.922Z</time></trkpt><trkpt lat="43.83562498962769" lon="11.658563550621498"><ele>614.0</ele><time>2026-04-25T09:00:23.922Z</time></trkpt><trkpt lat="43.835748649195565" lon="11.658487377390836"><ele>614.0</ele><time>2026-04-25T09:00:24.922Z</time></trkpt><trkpt lat="43.83588950480158" lon="11.65844018835409"><ele>614.0</ele><time>2026-04-25T09:00:25.922Z</time></trkpt><trkpt lat="43.836038735909014" lon="11.658396758488376"><ele>614.0</ele><time>2026-04-25T09:00:26.922Z</time></trkpt><trkpt lat="43.83619929749733" lon="11.658350369004987"><ele>617.0</ele><time>2026-04-25T09:00:27.922Z</time></trkpt><trkpt lat="43.8363608558196" lon="11.65829501953889"><ele>620.0</ele><time>2026-04-25T09:00:28.922Z</time></trkpt><trkpt lat="43.836521113866425" lon="11.65824575027899"><ele>623.0</ele><time>2026-04-25T09:00:29.922Z</time></trkpt><trkpt lat="43.836670416585136" lon="11.658201451123983"><ele>627.75</ele><time>2026-04-25T09:00:30.922Z</time></trkpt><trkpt lat="43.83680283019719" lon="11.65815086593874"><ele>632.5</ele><time>2026-04-25T09:00:31.922Z</time></trkpt><trkpt lat="43.83691982345055" lon="11.658089213352232"><ele>637.25</ele><time>2026-04-25T09:00:32.922Z</time></trkpt><trkpt lat="43.837022881268155" lon="11.658000720788655"><ele>642.0</ele><time>2026-04-25T09:00:33.922Z</time></trkpt><trkpt lat="43.83712120145945" lon="11.657879482461624"><ele>638.3333333333334</ele><time>2026-04-25T09:00:34.922Z</time></trkpt><trkpt lat="43.83719963191107" lon="11.657704175514777"><ele>634.6666666666667</ele><time>2026-04-25T09:00:35.922Z</time></trkpt><trkpt lat="43.8372671654977" lon="11.657519623165173"><ele>631.0</ele><time>2026-04-25T09:00:36.922Z</time></trkpt><trkpt lat="43.837344319231654" lon="11.657336272562132"><ele>631.0</ele><time>2026-04-25T09:00:37.922Z</time></trkpt><trkpt lat="43.83743888718601" lon="11.657161666464724"><ele>631.0</ele><time>2026-04-25T09:00:38.922Z</time></trkpt><trkpt lat="43.837521310225" lon="11.65697281865201"><ele>631.0</ele><time>2026-04-25T09:00:39.922Z</time></trkpt><trkpt lat="43.83760031798316" lon="11.656791796245436"><ele>634.5</ele><time>2026-04-25T09:00:40.922Z</time></trkpt><trkpt lat="43.837674232486464" lon="11.656622443385583"><ele>638.0</ele><time>2026-04-25T09:00:41.922Z</time></trkpt><trkpt lat="43.83774564157941" lon="11.656459253985346"><ele>641.5</ele><time>2026-04-25T09:00:42.922Z</time></trkpt><trkpt lat="43.83781415819636" lon="11.656303732709524"><ele>645.0</ele><time>2026-04-25T09:00:43.922Z</time></trkpt><trkpt lat="43.83786726654859" lon="11.656150650172913"><ele>640.0</ele><time>2026-04-25T09:00:44.922Z</time></trkpt><trkpt lat="43.83793470125453" lon="11.65602821187551"><ele>635.0</ele><time>2026-04-25T09:00:45.922Z</time></trkpt><trkpt lat="43.838018924699576" lon="11.65593103430984"><ele>630.0</ele><time>2026-04-25T09:00:46.922Z</time></trkpt><trkpt lat="43.83812722420435" lon="11.65585358363253"><ele>625.0</ele><time>2026-04-25T09:00:47.922Z</time></trkpt><trkpt lat="43.83826202458809" lon="11.655852153710141"><ele>625.0</ele><time>2026-04-25T09:00:48.922Z</time></trkpt><trkpt lat="43.8384066166883" lon="11.655843857109259"><ele>625.0</ele><time>2026-04-25T09:00:49.922Z</time></trkpt><trkpt lat="43.83855900449702" lon="11.655840211331867"><ele>625.0</ele><time>2026-04-25T09:00:50.922Z</time></trkpt><trkpt lat="43.83871552561886" lon="11.655836466671419"><ele>629.0</ele><time>2026-04-25T09:00:51.922Z</time></trkpt><trkpt lat="43.83887651525554" lon="11.65583261510391"><ele>633.0</ele><time>2026-04-25T09:00:52.922Z</time></trkpt><trkpt lat="43.83903689822077" lon="11.655828490302042"><ele>637.0</ele><time>2026-04-25T09:00:53.922Z</time></trkpt><trkpt lat="43.839198622837074" lon="11.655824252406626"><ele>639.75</ele><time>2026-04-25T09:00:54.922Z</time></trkpt><trkpt lat="43.8393529824578" lon="11.655798257759702"><ele>642.5</ele><time>2026-04-25T09:00:55.921Z</time></trkpt><trkpt lat="43.839495860923016" lon="11.655798432510045"><ele>645.25</ele><time>2026-04-25T09:00:56.921Z</time></trkpt><trkpt lat="43.83962576366536" lon="11.65579248342226"><ele>648.0</ele><time>2026-04-25T09:00:57.921Z</time></trkpt><trkpt lat="43.83975913185179" lon="11.655760801092233"><ele>648.0</ele><time>2026-04-25T09:00:58.921Z</time></trkpt><trkpt lat="43.83989610713548" lon="11.655717372041432"><ele>648.0</ele><time>2026-04-25T09:00:59.921Z</time></trkpt><trkpt lat="43.840006223283396" lon="11.65558764123536"><ele>648.0</ele><time>2026-04-25T09:01:00.921Z</time></trkpt><trkpt lat="43.84010038300535" lon="11.6554483316675"><ele>648.0</ele><time>2026-04-25T09:01:01.921Z</time></trkpt><trkpt lat="43.84018551931828" lon="11.65529338429396"><ele>653.0</ele><time>2026-04-25T09:01:02.921Z</time></trkpt><trkpt lat="43.84027246654355" lon="11.65512581530232"><ele>658.0</ele><time>2026-04-25T09:01:03.921Z</time></trkpt><trkpt lat="43.84036080164636" lon="11.654955845696115"><ele>663.0</ele><time>2026-04-25T09:01:04.921Z</time></trkpt><trkpt lat="43.84044940653747" lon="11.65478747931037"><ele>663.0</ele><time>2026-04-25T09:01:05.921Z</time></trkpt><trkpt lat="43.84054661787961" lon="11.654623569813227"><ele>663.0</ele><time>2026-04-25T09:01:06.921Z</time></trkpt><trkpt lat="43.84065254277614" lon="11.654471119038062"><ele>663.0</ele><time>2026-04-25T09:01:07.921Z</time></trkpt><trkpt lat="43.84076183044506" lon="11.654319139468369"><ele>663.0</ele><time>2026-04-25T09:01:08.921Z</time></trkpt><trkpt lat="43.84087813244184" lon="11.65417117089301"><ele>663.0</ele><time>2026-04-25T09:01:09.921Z</time></trkpt><trkpt lat="43.840989585861166" lon="11.654029780198321"><ele>663.0</ele><time>2026-04-25T09:01:10.921Z</time></trkpt><trkpt lat="43.841087907140896" lon="11.653891077236427"><ele>663.0</ele><time>2026-04-25T09:01:11.921Z</time></trkpt><trkpt lat="43.84118114504764" lon="11.65376519293539"><ele>663.0</ele><time>2026-04-25T09:01:12.921Z</time></trkpt><trkpt lat="43.841286990083496" lon="11.653665296296841"><ele>663.0</ele><time>2026-04-25T09:01:13.921Z</time></trkpt><trkpt lat="43.84140377285191" lon="11.65358273298811"><ele>663.0</ele><time>2026-04-25T09:01:14.921Z</time></trkpt><trkpt lat="43.8415267296505" lon="11.653534663305983"><ele>663.0</ele><time>2026-04-25T09:01:15.921Z</time></trkpt><trkpt lat="43.841641908782286" lon="11.653507524494307"><ele>663.0</ele><time>2026-04-25T09:01:16.921Z</time></trkpt><trkpt lat="43.841736355251236" lon="11.65346181142786"><ele>663.0</ele><time>2026-04-25T09:01:17.921Z</time></trkpt><trkpt lat="43.841805679606615" lon="11.653393981989364"><ele>663.0</ele><time>2026-04-25T09:01:18.921Z</time></trkpt><trkpt lat="43.84185600508607" lon="11.653288382347174"><ele>663.0</ele><time>2026-04-25T09:01:19.921Z</time></trkpt><trkpt lat="43.841876226057266" lon="11.653174478965273"><ele>663.0</ele><time>2026-04-25T09:01:20.921Z</time></trkpt><trkpt lat="43.841916809554036" lon="11.653081033967979"><ele>663.0</ele><time>2026-04-25T09:01:21.921Z</time></trkpt><trkpt lat="43.8418183556763" lon="11.652900960805052"><ele>660.25</ele><time>2026-04-25T09:01:22.921Z</time></trkpt><trkpt lat="43.841748038327054" lon="11.65276233649433"><ele>657.5</ele><time>2026-04-25T09:01:23.921Z</time></trkpt><trkpt lat="43.84168891120696" lon="11.652602730442839"><ele>654.75</ele><time>2026-04-25T09:01:24.921Z</time></trkpt><trkpt lat="43.8416617524691" lon="11.652426130085685"><ele>652.0</ele><time>2026-04-25T09:01:25.921Z</time></trkpt><trkpt lat="43.84165484937594" lon="11.65223701810411"><ele>652.0</ele><time>2026-04-25T09:01:26.921Z</time></trkpt><trkpt lat="43.841666780639706" lon="11.652034807625379"><ele>652.0</ele><time>2026-04-25T09:01:27.921Z</time></trkpt><trkpt lat="43.84167665235289" lon="11.651823527221925"><ele>652.0</ele><time>2026-04-25T09:01:28.921Z</time></trkpt><trkpt lat="43.84168525998966" lon="11.651576603347012"><ele>655.0</ele><time>2026-04-25T09:01:29.921Z</time></trkpt><trkpt lat="43.84169728217867" lon="11.651307459935621"><ele>658.0</ele><time>2026-04-25T09:01:30.921Z</time></trkpt><trkpt lat="43.84171601707926" lon="11.651036078609515"><ele>661.0</ele><time>2026-04-25T09:01:31.921Z</time></trkpt><trkpt lat="43.841736303973875" lon="11.650757895247493"><ele>661.6666666666667</ele><time>2026-04-25T09:01:32.921Z</time></trkpt><trkpt lat="43.84176404284427" lon="11.650463938609724"><ele>662.3333333333334</ele><time>2026-04-25T09:01:33.921Z</time></trkpt><trkpt lat="43.84179732562774" lon="11.650155590680429"><ele>663.0</ele><time>2026-04-25T09:01:34.921Z</time></trkpt><trkpt lat="43.84181856741763" lon="11.64987042976041"><ele>674.3333333333334</ele><time>2026-04-25T09:01:35.921Z</time></trkpt><trkpt lat="43.84184455193118" lon="11.649611143484407"><ele>685.6666666666667</ele><time>2026-04-25T09:01:36.921Z</time></trkpt><trkpt lat="43.8418702326011" lon="11.649378801605636"><ele>697.0</ele><time>2026-04-25T09:01:37.921Z</time></trkpt><trkpt lat="43.84189516595972" lon="11.649154644047703"><ele>697.0</ele><time>2026-04-25T09:01:38.921Z</time></trkpt><trkpt lat="43.84189809057439" lon="11.648934700376897"><ele>697.0</ele><time>2026-04-25T09:01:39.921Z</time></trkpt><trkpt lat="43.84187373202703" lon="11.648706767589246"><ele>697.0</ele><time>2026-04-25T09:01:40.921Z</time></trkpt><trkpt lat="43.84181779149295" lon="11.648482642751887"><ele>690.0</ele><time>2026-04-25T09:01:41.921Z</time></trkpt><trkpt lat="43.84175745897603" lon="11.648262108001811"><ele>683.0</ele><time>2026-04-25T09:01:42.921Z</time></trkpt><trkpt lat="43.841685547857" lon="11.648045129149747"><ele>676.0</ele><time>2026-04-25T09:01:43.921Z</time></trkpt><trkpt lat="43.84160096260578" lon="11.64784453155259"><ele>680.6666666666667</ele><time>2026-04-25T09:01:44.921Z</time></trkpt><trkpt lat="43.841519332294624" lon="11.647648937681621"><ele>685.3333333333334</ele><time>2026-04-25T09:01:45.921Z</time></trkpt><trkpt lat="43.841452413005925" lon="11.647455397772427"><ele>690.0</ele><time>2026-04-25T09:01:46.921Z</time></trkpt><trkpt lat="43.84141005884142" lon="11.64724718554882"><ele>690.0</ele><time>2026-04-25T09:01:47.921Z</time></trkpt><trkpt lat="43.84138599555917" lon="11.647022058791478"><ele>690.0</ele><time>2026-04-25T09:01:48.921Z</time></trkpt><trkpt lat="43.841388561497375" lon="11.646803665880144"><ele>690.0</ele><time>2026-04-25T09:01:49.921Z</time></trkpt><trkpt lat="43.84137865158035" lon="11.646601620603048"><ele>692.5</ele><time>2026-04-25T09:01:50.921Z</time></trkpt><trkpt lat="43.841337289079895" lon="11.64642536047989"><ele>695.0</ele><time>2026-04-25T09:01:51.921Z</time></trkpt><trkpt lat="43.841262904886314" lon="11.646260531021774"><ele>697.5</ele><time>2026-04-25T09:01:52.921Z</time></trkpt><trkpt lat="43.84116027058617" lon="11.646111235349082"><ele>700.0</ele><time>2026-04-25T09:01:53.921Z</time></trkpt><trkpt lat="43.841057795090705" lon="11.645981144059636"><ele>702.75</ele><time>2026-04-25T09:01:54.921Z</time></trkpt><trkpt lat="43.84096796466806" lon="11.645848132303305"><ele>705.5</ele><time>2026-04-25T09:01:55.921Z</time></trkpt><trkpt lat="43.84090250480639" lon="11.64571084489838"><ele>708.25</ele><time>2026-04-25T09:01:56.92Z</time></trkpt><trkpt lat="43.84085357862288" lon="11.645553636755842"><ele>711.0</ele><time>2026-04-25T09:01:57.92Z</time></trkpt><trkpt lat="43.84082409254919" lon="11.64537565924933"><ele>706.5</ele><time>2026-04-25T09:01:58.92Z</time></trkpt><trkpt lat="43.84081106033841" lon="11.645182171828756"><ele>702.0</ele><time>2026-04-25T09:01:59.92Z</time></trkpt><trkpt lat="43.84079351373222" lon="11.644976816517099"><ele>697.5</ele><time>2026-04-25T09:02:00.92Z</time></trkpt><trkpt lat="43.8407633096514" lon="11.644762769682417"><ele>693.0</ele><time>2026-04-25T09:02:01.92Z</time></trkpt><trkpt lat="43.8407303459333" lon="11.644547712176692"><ele>695.0</ele><time>2026-04-25T09:02:02.921Z</time></trkpt><trkpt lat="43.84069778800028" lon="11.644335679190748"><ele>697.0</ele><time>2026-04-25T09:02:03.92Z</time></trkpt><trkpt lat="43.840665054661194" lon="11.644136615785142"><ele>699.0</ele><time>2026-04-25T09:02:04.92Z</time></trkpt><trkpt lat="43.84064109541152" lon="11.643947857526243"><ele>701.0</ele><time>2026-04-25T09:02:05.92Z</time></trkpt><trkpt lat="43.84063221907379" lon="11.643772016813843"><ele>701.25</ele><time>2026-04-25T09:02:06.92Z</time></trkpt><trkpt lat="43.84064992926502" lon="11.643599944928113"><ele>701.5</ele><time>2026-04-25T09:02:07.92Z</time></trkpt><trkpt lat="43.84069637480754" lon="11.64342310032495"><ele>701.75</ele><time>2026-04-25T09:02:08.92Z</time></trkpt><trkpt lat="43.84077654842498" lon="11.643251164083996"><ele>702.0</ele><time>2026-04-25T09:02:09.92Z</time></trkpt><trkpt lat="43.840859882152984" lon="11.643099197022368"><ele>702.0</ele><time>2026-04-25T09:02:10.92Z</time></trkpt><trkpt lat="43.840930302473765" lon="11.6429607852078"><ele>702.0</ele><time>2026-04-25T09:02:11.92Z</time></trkpt><trkpt lat="43.84098973734719" lon="11.642838270116417"><ele>702.0</ele><time>2026-04-25T09:02:12.92Z</time></trkpt><trkpt lat="43.841051136615924" lon="11.642720746992001"><ele>702.0</ele><time>2026-04-25T09:02:13.92Z</time></trkpt><trkpt lat="43.84111756775008" lon="11.64262205132053"><ele>702.0</ele><time>2026-04-25T09:02:14.92Z</time></trkpt><trkpt lat="43.84119462044624" lon="11.642551361184578"><ele>705.6666666666666</ele><time>2026-04-25T09:02:15.92Z</time></trkpt><trkpt lat="43.841286614490805" lon="11.642526308935661"><ele>709.3333333333334</ele><time>2026-04-25T09:02:16.92Z</time></trkpt><trkpt lat="43.84137038770231" lon="11.642553767432728"><ele>713.0</ele><time>2026-04-25T09:02:17.92Z</time></trkpt><trkpt lat="43.84144585788604" lon="11.642619864800123"><ele>716.6666666666667</ele><time>2026-04-25T09:02:18.92Z</time></trkpt><trkpt lat="43.84148839068236" lon="11.642719362695974"><ele>720.3333333333334</ele><time>2026-04-25T09:02:19.92Z</time></trkpt><trkpt lat="43.8414910069486" lon="11.642846263243806"><ele>724.0</ele><time>2026-04-25T09:02:20.92Z</time></trkpt><trkpt lat="43.841458911720515" lon="11.642983122969763"><ele>724.0</ele><time>2026-04-25T09:02:21.92Z</time></trkpt><trkpt lat="43.841402104192206" lon="11.643099553378896"><ele>724.0</ele><time>2026-04-25T09:02:22.92Z</time></trkpt><trkpt lat="43.841332260971825" lon="11.643220918804351"><ele>724.0</ele><time>2026-04-25T09:02:23.92Z</time></trkpt><trkpt lat="43.841265871906785" lon="11.64336191691031"><ele>724.0</ele><time>2026-04-25T09:02:24.92Z</time></trkpt><trkpt lat="43.841236690503194" lon="11.643539398496005"><ele>723.5</ele><time>2026-04-25T09:02:25.92Z</time></trkpt><trkpt lat="43.8412526155543" lon="11.643721666669517"><ele>723.0</ele><time>2026-04-25T09:02:26.92Z</time></trkpt><trkpt lat="43.841306099142386" lon="11.643902033366043"><ele>722.5</ele><time>2026-04-25T09:02:27.92Z</time></trkpt><trkpt lat="43.84138132983076" lon="11.644065664020836"><ele>722.0</ele><time>2026-04-25T09:02:28.92Z</time></trkpt><trkpt lat="43.84147235113652" lon="11.644232593321297"><ele>722.0</ele><time>2026-04-25T09:02:29.92Z</time></trkpt><trkpt lat="43.84155005921023" lon="11.644411819763963"><ele>722.0</ele><time>2026-04-25T09:02:30.92Z</time></trkpt><trkpt lat="43.84161470427001" lon="11.644584340009901"><ele>722.0</ele><time>2026-04-25T09:02:31.92Z</time></trkpt><trkpt lat="43.841658739473736" lon="11.64476313646103"><ele>722.0</ele><time>2026-04-25T09:02:32.92Z</time></trkpt><trkpt lat="43.84169280075712" lon="11.64494512456677"><ele>721.25</ele><time>2026-04-25T09:02:33.92Z</time></trkpt><trkpt lat="43.8417201512716" lon="11.645119040876741"><ele>720.5</ele><time>2026-04-25T09:02:34.92Z</time></trkpt><trkpt lat="43.84175764067307" lon="11.645283753295143"><ele>719.75</ele><time>2026-04-25T09:02:35.92Z</time></trkpt><trkpt lat="43.84180320640737" lon="11.645421032520765"><ele>719.0</ele><time>2026-04-25T09:02:36.92Z</time></trkpt><trkpt lat="43.84185578317377" lon="11.64552469067426"><ele>724.8000000000001</ele><time>2026-04-25T09:02:37.92Z</time></trkpt><trkpt lat="43.841934840060475" lon="11.645581684032408"><ele>730.6</ele><time>2026-04-25T09:02:38.919Z</time></trkpt><trkpt lat="43.84203082758137" lon="11.645573561250819"><ele>736.4</ele><time>2026-04-25T09:02:39.919Z</time></trkpt><trkpt lat="43.8421151164379" lon="11.645492410039552"><ele>742.2</ele><time>2026-04-25T09:02:40.919Z</time></trkpt><trkpt lat="43.84216284270316" lon="11.64538385753813"><ele>748.0</ele><time>2026-04-25T09:02:41.919Z</time></trkpt><trkpt lat="43.8421757526282" lon="11.645245288779996"><ele>748.0</ele><time>2026-04-25T09:02:42.919Z</time></trkpt><trkpt lat="43.84216598823473" lon="11.645084119960062"><ele>748.0</ele><time>2026-04-25T09:02:43.919Z</time></trkpt><trkpt lat="43.84214780255528" lon="11.644910010425628"><ele>748.0</ele><time>2026-04-25T09:02:44.919Z</time></trkpt><trkpt lat="43.84211948981805" lon="11.644719732266795"><ele>748.0</ele><time>2026-04-25T09:02:45.919Z</time></trkpt><trkpt lat="43.84209563344856" lon="11.644525883503004"><ele>749.0</ele><time>2026-04-25T09:02:46.919Z</time></trkpt><trkpt lat="43.84207623337066" lon="11.64432496073502"><ele>750.0</ele><time>2026-04-25T09:02:47.919Z</time></trkpt><trkpt lat="43.84207850343102" lon="11.644129144126705"><ele>751.0</ele><time>2026-04-25T09:02:48.919Z</time></trkpt><trkpt lat="43.84209363003826" lon="11.643940863480529"><ele>752.0</ele><time>2026-04-25T09:02:49.919Z</time></trkpt><trkpt lat="43.8421267529181" lon="11.643744574799575"><ele>752.6666666666666</ele><time>2026-04-25T09:02:50.919Z</time></trkpt><trkpt lat="43.84216207524119" lon="11.643537703513777"><ele>753.3333333333334</ele><time>2026-04-25T09:02:51.919Z</time></trkpt><trkpt lat="43.84219424741421" lon="11.64332965673365"><ele>754.0</ele><time>2026-04-25T09:02:52.919Z</time></trkpt><trkpt lat="43.84222785813115" lon="11.643131043837325"><ele>754.0</ele><time>2026-04-25T09:02:53.919Z</time></trkpt><trkpt lat="43.842254056616554" lon="11.642937819415344"><ele>754.0</ele><time>2026-04-25T09:02:54.919Z</time></trkpt><trkpt lat="43.84227782048826" lon="11.642753339330023"><ele>754.0</ele><time>2026-04-25T09:02:55.919Z</time></trkpt><trkpt lat="43.84229570787175" lon="11.642566420418518"><ele>754.0</ele><time>2026-04-25T09:02:56.919Z</time></trkpt><trkpt lat="43.842287463605025" lon="11.642384050864466"><ele>755.25</ele><time>2026-04-25T09:02:57.919Z</time></trkpt><trkpt lat="43.84224631683979" lon="11.642230758978585"><ele>756.5</ele><time>2026-04-25T09:02:58.919Z</time></trkpt><trkpt lat="43.84215822499888" lon="11.642091712185026"><ele>757.75</ele><time>2026-04-25T09:02:59.919Z</time></trkpt><trkpt lat="43.842049953820165" lon="11.641962889784287"><ele>759.0</ele><time>2026-04-25T09:03:00.919Z</time></trkpt><trkpt lat="43.841920415073254" lon="11.64185689312033"><ele>755.75</ele><time>2026-04-25T09:03:01.919Z</time></trkpt><trkpt lat="43.841792454042405" lon="11.641763533887547"><ele>752.5</ele><time>2026-04-25T09:03:02.919Z</time></trkpt><trkpt lat="43.84167244848802" lon="11.641663124226168"><ele>749.25</ele><time>2026-04-25T09:03:03.919Z</time></trkpt><trkpt lat="43.841576742815626" lon="11.64156143174723"><ele>746.0</ele><time>2026-04-25T09:03:04.919Z</time></trkpt><trkpt lat="43.8415051566757" lon="11.64144957668195"><ele>746.0</ele><time>2026-04-25T09:03:05.919Z</time></trkpt><trkpt lat="43.84146412134636" lon="11.64132482464646"><ele>746.0</ele><time>2026-04-25T09:03:06.919Z</time></trkpt><trkpt lat="43.8414639955401" lon="11.641179187984767"><ele>746.0</ele><time>2026-04-25T09:03:07.919Z</time></trkpt><trkpt lat="43.84148226142641" lon="11.64101917699656"><ele>746.0</ele><time>2026-04-25T09:03:08.919Z</time></trkpt><trkpt lat="43.84150887016967" lon="11.64084819290339"><ele>746.0</ele><time>2026-04-25T09:03:09.919Z</time></trkpt><trkpt lat="43.84153745365207" lon="11.640678272889858"><ele>748.75</ele><time>2026-04-25T09:03:10.919Z</time></trkpt><trkpt lat="43.84156734067021" lon="11.640519754966736"><ele>751.5</ele><time>2026-04-25T09:03:11.919Z</time></trkpt><trkpt lat="43.841618466956746" lon="11.64037300014141"><ele>754.25</ele><time>2026-04-25T09:03:12.919Z</time></trkpt><trkpt lat="43.8416850875517" lon="11.64022858707474"><ele>757.0</ele><time>2026-04-25T09:03:13.919Z</time></trkpt><trkpt lat="43.84177762178799" lon="11.640094894320681"><ele>766.0</ele><time>2026-04-25T09:03:14.919Z</time></trkpt><trkpt lat="43.841888055090934" lon="11.63996131141076"><ele>775.0</ele><time>2026-04-25T09:03:15.919Z</time></trkpt><trkpt lat="43.84200321647155" lon="11.639813610553102"><ele>784.0</ele><time>2026-04-25T09:03:16.919Z</time></trkpt><trkpt lat="43.84212692141508" lon="11.639653413705492"><ele>784.0</ele><time>2026-04-25T09:03:17.919Z</time></trkpt><trkpt lat="43.84225618079025" lon="11.639485849848299"><ele>784.0</ele><time>2026-04-25T09:03:18.919Z</time></trkpt><trkpt lat="43.84238909480528" lon="11.639317947542226"><ele>784.0</ele><time>2026-04-25T09:03:19.919Z</time></trkpt><trkpt lat="43.84252470460423" lon="11.639153776212984"><ele>787.3333333333333</ele><time>2026-04-25T09:03:20.919Z</time></trkpt><trkpt lat="43.842665978661366" lon="11.638994479294507"><ele>790.6666666666667</ele><time>2026-04-25T09:03:21.919Z</time></trkpt><trkpt lat="43.84281413236056" lon="11.638839668528886"><ele>794.0</ele><time>2026-04-25T09:03:22.919Z</time></trkpt><trkpt lat="43.842960777135445" lon="11.638684906017128"><ele>789.3333333333334</ele><time>2026-04-25T09:03:23.919Z</time></trkpt><trkpt lat="43.84310453448635" lon="11.638544083623362"><ele>784.6666666666667</ele><time>2026-04-25T09:03:24.919Z</time></trkpt><trkpt lat="43.84324335081167" lon="11.638413848902271"><ele>780.0</ele><time>2026-04-25T09:03:25.919Z</time></trkpt><trkpt lat="43.84337389012284" lon="11.638293500222254"><ele>783.0</ele><time>2026-04-25T09:03:26.919Z</time></trkpt><trkpt lat="43.843497887679185" lon="11.638176652189244"><ele>786.0</ele><time>2026-04-25T09:03:27.919Z</time></trkpt><trkpt lat="43.84361459098866" lon="11.638047877342828"><ele>789.0</ele><time>2026-04-25T09:03:28.919Z</time></trkpt><trkpt lat="43.84370317915105" lon="11.637915763225523"><ele>792.0</ele><time>2026-04-25T09:03:29.919Z</time></trkpt><trkpt lat="43.843764499431806" lon="11.63778457637018"><ele>792.0</ele><time>2026-04-25T09:03:30.919Z</time></trkpt><trkpt lat="43.84381917553001" lon="11.637663906120908"><ele>792.0</ele><time>2026-04-25T09:03:31.919Z</time></trkpt><trkpt lat="43.843878643783164" lon="11.637569786240725"><ele>792.0</ele><time>2026-04-25T09:03:32.919Z</time></trkpt><trkpt lat="43.84394591467595" lon="11.637505643034363"><ele>792.0</ele><time>2026-04-25T09:03:33.919Z</time></trkpt><trkpt lat="43.84401499704822" lon="11.637489303933505"><ele>792.0</ele><time>2026-04-25T09:03:34.919Z</time></trkpt><trkpt lat="43.844079952183165" lon="11.637518367512948"><ele>792.0</ele><time>2026-04-25T09:03:35.919Z</time></trkpt><trkpt lat="43.844138124642356" lon="11.637590034420406"><ele>792.0</ele><time>2026-04-25T09:03:36.919Z</time></trkpt><trkpt lat="43.8441672684487" lon="11.637689343004118"><ele>792.0</ele><time>2026-04-25T09:03:37.919Z</time></trkpt><trkpt lat="43.84415930522425" lon="11.63780088226542"><ele>792.0</ele><time>2026-04-25T09:03:38.918Z</time></trkpt><trkpt lat="43.84412592434567" lon="11.637921749506702"><ele>792.0</ele><time>2026-04-25T09:03:39.918Z</time></trkpt><trkpt lat="43.84405879219693" lon="11.638041551362837"><ele>792.0</ele><time>2026-04-25T09:03:40.918Z</time></trkpt><trkpt lat="43.84398421117978" lon="11.638157312017608"><ele>794.75</ele><time>2026-04-25T09:03:41.918Z</time></trkpt><trkpt lat="43.84389334135618" lon="11.63829014362194"><ele>797.5</ele><time>2026-04-25T09:03:42.918Z</time></trkpt><trkpt lat="43.84380098307359" lon="11.63843716755594"><ele>800.25</ele><time>2026-04-25T09:03:43.918Z</time></trkpt><trkpt lat="43.84371044630955" lon="11.638602769086006"><ele>803.0</ele><time>2026-04-25T09:03:44.918Z</time></trkpt><trkpt lat="43.843628182443446" lon="11.638782544308654"><ele>804.25</ele><time>2026-04-25T09:03:45.918Z</time></trkpt><trkpt lat="43.84356849098218" lon="11.638971539849408"><ele>805.5</ele><time>2026-04-25T09:03:46.918Z</time></trkpt><trkpt lat="43.84351450012228" lon="11.63914971095038"><ele>806.75</ele><time>2026-04-25T09:03:47.918Z</time></trkpt><trkpt lat="43.84345534081549" lon="11.63932927188701"><ele>808.0</ele><time>2026-04-25T09:03:48.918Z</time></trkpt><trkpt lat="43.843385413624596" lon="11.639520395631841"><ele>808.0</ele><time>2026-04-25T09:03:49.918Z</time></trkpt><trkpt lat="43.843317377618746" lon="11.639711784715164"><ele>808.0</ele><time>2026-04-25T09:03:50.918Z</time></trkpt><trkpt lat="43.84326115696182" lon="11.639897753923954"><ele>808.0</ele><time>2026-04-25T09:03:51.918Z</time></trkpt><trkpt lat="43.84321619833102" lon="11.640100349374578"><ele>810.75</ele><time>2026-04-25T09:03:52.918Z</time></trkpt><trkpt lat="43.84318106909633" lon="11.640305413634874"><ele>813.5</ele><time>2026-04-25T09:03:53.918Z</time></trkpt><trkpt lat="43.84316500651418" lon="11.640498699388957"><ele>816.25</ele><time>2026-04-25T09:03:54.918Z</time></trkpt><trkpt lat="43.84315572092592" lon="11.640668669451182"><ele>819.0</ele><time>2026-04-25T09:03:55.918Z</time></trkpt><trkpt lat="43.84315060327272" lon="11.640827006400224"><ele>819.0</ele><time>2026-04-25T09:03:56.918Z</time></trkpt><trkpt lat="43.8431388725585" lon="11.640986565558588"><ele>819.0</ele><time>2026-04-25T09:03:57.918Z</time></trkpt><trkpt lat="43.84315420900082" lon="11.64115335338263"><ele>819.0</ele><time>2026-04-25T09:03:58.918Z</time></trkpt><trkpt lat="43.84320418907433" lon="11.641306721532343"><ele>819.0</ele><time>2026-04-25T09:03:59.918Z</time></trkpt><trkpt lat="43.84326734093983" lon="11.64145214730999"><ele>817.75</ele><time>2026-04-25T09:04:00.918Z</time></trkpt><trkpt lat="43.84333926688319" lon="11.64159556347061"><ele>816.5</ele><time>2026-04-25T09:04:01.918Z</time></trkpt><trkpt lat="43.84341482913823" lon="11.641741975846555"><ele>815.25</ele><time>2026-04-25T09:04:02.918Z</time></trkpt><trkpt lat="43.843488990356015" lon="11.641895192345217"><ele>814.0</ele><time>2026-04-25T09:04:03.919Z</time></trkpt><trkpt lat="43.84354804705527" lon="11.642052824854078"><ele>823.75</ele><time>2026-04-25T09:04:04.919Z</time></trkpt><trkpt lat="43.84357511430524" lon="11.64223517257836"><ele>833.5</ele><time>2026-04-25T09:04:05.918Z</time></trkpt><trkpt lat="43.84358114862227" lon="11.642437913754453"><ele>843.25</ele><time>2026-04-25T09:04:06.918Z</time></trkpt><trkpt lat="43.84356463333678" lon="11.642655661542381"><ele>853.0</ele><time>2026-04-25T09:04:07.918Z</time></trkpt><trkpt lat="43.84355137018723" lon="11.642875156378562"><ele>853.5</ele><time>2026-04-25T09:04:08.918Z</time></trkpt><trkpt lat="43.84354466614491" lon="11.643079629767454"><ele>854.0</ele><time>2026-04-25T09:04:09.918Z</time></trkpt><trkpt lat="43.843547096883725" lon="11.643266598994"><ele>854.5</ele><time>2026-04-25T09:04:10.918Z</time></trkpt><trkpt lat="43.84357924993847" lon="11.64343863661395"><ele>855.0</ele><time>2026-04-25T09:04:11.918Z</time></trkpt><trkpt lat="43.84363328803663" lon="11.643592063609928"><ele>849.75</ele><time>2026-04-25T09:04:12.918Z</time></trkpt><trkpt lat="43.8437131507841" lon="11.64371766063803"><ele>844.5</ele><time>2026-04-25T09:04:13.918Z</time></trkpt><trkpt lat="43.84382154455144" lon="11.643814260292615"><ele>839.25</ele><time>2026-04-25T09:04:14.918Z</time></trkpt><trkpt lat="43.84394081186897" lon="11.643881754946296"><ele>834.0</ele><time>2026-04-25T09:04:15.918Z</time></trkpt><trkpt lat="43.84407103760548" lon="11.643963922816532"><ele>834.0</ele><time>2026-04-25T09:04:16.918Z</time></trkpt><trkpt lat="43.844194455873065" lon="11.644075966849103"><ele>834.0</ele><time>2026-04-25T09:04:17.918Z</time></trkpt><trkpt lat="43.844307128231144" lon="11.644156902486307"><ele>834.0</ele><time>2026-04-25T09:04:18.918Z</time></trkpt><trkpt lat="43.84440331910369" lon="11.644247514303334"><ele>834.0</ele><time>2026-04-25T09:04:19.918Z</time></trkpt><trkpt lat="43.84447846929646" lon="11.644358711017679"><ele>840.5</ele><time>2026-04-25T09:04:20.918Z</time></trkpt><trkpt lat="43.84451593886446" lon="11.644511623928066"><ele>847.0</ele><time>2026-04-25T09:04:21.918Z</time></trkpt><trkpt lat="43.844508954927804" lon="11.644665108783535"><ele>853.5</ele><time>2026-04-25T09:04:22.918Z</time></trkpt><trkpt lat="43.844476993969856" lon="11.644823298664305"><ele>860.0</ele><time>2026-04-25T09:04:23.918Z</time></trkpt><trkpt lat="43.84444845647228" lon="11.644991748092991"><ele>860.0</ele><time>2026-04-25T09:04:24.918Z</time></trkpt><trkpt lat="43.8444218768523" lon="11.645150736206505"><ele>860.0</ele><time>2026-04-25T09:04:25.918Z</time></trkpt><trkpt lat="43.8443963790126" lon="11.64529494025001"><ele>860.0</ele><time>2026-04-25T09:04:26.918Z</time></trkpt><trkpt lat="43.8444408716919" lon="11.645467546661319"><ele>860.0</ele><time>2026-04-25T09:04:27.918Z</time></trkpt><trkpt lat="43.84450275520556" lon="11.645579929244455"><ele>855.0</ele><time>2026-04-25T09:04:28.918Z</time></trkpt><trkpt lat="43.84458349469905" lon="11.64565585465982"><ele>850.0</ele><time>2026-04-25T09:04:29.918Z</time></trkpt><trkpt lat="43.84469108910504" lon="11.64566215947202"><ele>845.0</ele><time>2026-04-25T09:04:30.918Z</time></trkpt><trkpt lat="43.84480423228049" lon="11.6456906088241"><ele>840.0</ele><time>2026-04-25T09:04:31.918Z</time></trkpt><trkpt lat="43.844923222603676" lon="11.645685958660751"><ele>835.0</ele><time>2026-04-25T09:04:32.918Z</time></trkpt><trkpt lat="43.84504165692781" lon="11.645681848923132"><ele>839.0</ele><time>2026-04-25T09:04:33.918Z</time></trkpt><trkpt lat="43.845187663029236" lon="11.645677938152218"><ele>843.0</ele><time>2026-04-25T09:04:34.918Z</time></trkpt><trkpt lat="43.84533943286542" lon="11.645669092545788"><ele>847.0</ele><time>2026-04-25T09:04:35.918Z</time></trkpt><trkpt lat="43.84546787666269" lon="11.6456649755541"><ele>851.0</ele><time>2026-04-25T09:04:36.918Z</time></trkpt><trkpt lat="43.84558985562897" lon="11.645659637481657"><ele>851.0</ele><time>2026-04-25T09:04:37.918Z</time></trkpt><trkpt lat="43.84571256214809" lon="11.64565319144977"><ele>851.0</ele><time>2026-04-25T09:04:38.918Z</time></trkpt><trkpt lat="43.845832148594326" lon="11.645648672837059"><ele>851.0</ele><time>2026-04-25T09:04:39.918Z</time></trkpt><trkpt lat="43.84593691198716" lon="11.645711590867835"><ele>851.0</ele><time>2026-04-25T09:04:40.918Z</time></trkpt><trkpt lat="43.846038187774006" lon="11.64579575234207"><ele>854.8</ele><time>2026-04-25T09:04:41.918Z</time></trkpt><trkpt lat="43.84614697450862" lon="11.645868287636986"><ele>858.5999999999999</ele><time>2026-04-25T09:04:42.918Z</time></trkpt><trkpt lat="43.84624340384491" lon="11.645956044775517"><ele>862.4</ele><time>2026-04-25T09:04:43.918Z</time></trkpt><trkpt lat="43.84632974828796" lon="11.646008567338496"><ele>866.2</ele><time>2026-04-25T09:04:44.918Z</time></trkpt><trkpt lat="43.84641441774083" lon="11.646023192815946"><ele>870.0</ele><time>2026-04-25T09:04:45.918Z</time></trkpt><trkpt lat="43.84650247833702" lon="11.645990033998155"><ele>870.0</ele><time>2026-04-25T09:04:46.918Z</time></trkpt><trkpt lat="43.84658287612158" lon="11.645899159414542"><ele>870.0</ele><time>2026-04-25T09:04:47.918Z</time></trkpt><trkpt lat="43.84662826902989" lon="11.645784262829432"><ele>870.0</ele><time>2026-04-25T09:04:48.918Z</time></trkpt><trkpt lat="43.84663259299611" lon="11.645618375057653"><ele>870.0</ele><time>2026-04-25T09:04:49.918Z</time></trkpt><trkpt lat="43.846597528671396" lon="11.645477786289517"><ele>870.0</ele><time>2026-04-25T09:04:50.918Z</time></trkpt><trkpt lat="43.84652898248552" lon="11.645366084851906"><ele>870.0</ele><time>2026-04-25T09:04:51.918Z</time></trkpt><trkpt lat="43.84643880805113" lon="11.645295955292035"><ele>870.0</ele><time>2026-04-25T09:04:52.918Z</time></trkpt><trkpt lat="43.846322215887895" lon="11.645270179874823"><ele>870.0</ele><time>2026-04-25T09:04:53.918Z</time></trkpt><trkpt lat="43.84619173826342" lon="11.645271437815543"><ele>870.0</ele><time>2026-04-25T09:04:54.918Z</time></trkpt><trkpt lat="43.84605035215232" lon="11.645243822249824"><ele>872.0</ele><time>2026-04-25T09:04:55.918Z</time></trkpt><trkpt lat="43.845887767994135" lon="11.645257865054889"><ele>874.0</ele><time>2026-04-25T09:04:56.918Z</time></trkpt><trkpt lat="43.84572611818519" lon="11.645207697003347"><ele>876.0</ele><time>2026-04-25T09:04:57.917Z</time></trkpt><trkpt lat="43.845569713763986" lon="11.645197929980785"><ele>876.0</ele><time>2026-04-25T09:04:58.917Z</time></trkpt><trkpt lat="43.845417689202975" lon="11.645197223187793"><ele>876.0</ele><time>2026-04-25T09:04:59.917Z</time></trkpt><trkpt lat="43.84529203291012" lon="11.64517916783045"><ele>876.0</ele><time>2026-04-25T09:05:00.917Z</time></trkpt><trkpt lat="43.845193513460764" lon="11.645139246489546"><ele>876.0</ele><time>2026-04-25T09:05:01.917Z</time></trkpt><trkpt lat="43.845121022913034" lon="11.645059966817609"><ele>875.5999999999999</ele><time>2026-04-25T09:05:02.917Z</time></trkpt><trkpt lat="43.84509672016237" lon="11.644936976984592"><ele>875.1999999999999</ele><time>2026-04-25T09:05:03.917Z</time></trkpt><trkpt lat="43.84508836071244" lon="11.644815627811838"><ele>874.8000000000001</ele><time>2026-04-25T09:05:04.917Z</time></trkpt><trkpt lat="43.84508446404683" lon="11.644666110351864"><ele>874.4000000000001</ele><time>2026-04-25T09:05:05.917Z</time></trkpt><trkpt lat="43.84509845788165" lon="11.644506452108494"><ele>874.0</ele><time>2026-04-25T09:05:06.917Z</time></trkpt><trkpt lat="43.8451091130757" lon="11.644322603035164"><ele>874.0</ele><time>2026-04-25T09:05:07.917Z</time></trkpt><trkpt lat="43.84510681690192" lon="11.644146303444693"><ele>874.0</ele><time>2026-04-25T09:05:08.917Z</time></trkpt><trkpt lat="43.84506823046507" lon="11.64399092169808"><ele>874.0</ele><time>2026-04-25T09:05:09.917Z</time></trkpt><trkpt lat="43.84500253793908" lon="11.643827071672705"><ele>874.0</ele><time>2026-04-25T09:05:10.917Z</time></trkpt><trkpt lat="43.84491158126546" lon="11.64365294244666"><ele>878.75</ele><time>2026-04-25T09:05:11.917Z</time></trkpt><trkpt lat="43.84478894410789" lon="11.643491937533982"><ele>883.5</ele><time>2026-04-25T09:05:12.917Z</time></trkpt><trkpt lat="43.84468712177437" lon="11.643343136851442"><ele>888.25</ele><time>2026-04-25T09:05:13.917Z</time></trkpt><trkpt lat="43.84461253354726" lon="11.643210297648114"><ele>893.0</ele><time>2026-04-25T09:05:14.917Z</time></trkpt><trkpt lat="43.844566835792804" lon="11.643085893862905"><ele>893.0</ele><time>2026-04-25T09:05:15.917Z</time></trkpt><trkpt lat="43.844575436758824" lon="11.642974091513764"><ele>893.0</ele><time>2026-04-25T09:05:16.917Z</time></trkpt><trkpt lat="43.84461625438238" lon="11.642855887912138"><ele>893.0</ele><time>2026-04-25T09:05:17.917Z</time></trkpt><trkpt lat="43.844713381791884" lon="11.642765107487737"><ele>893.0</ele><time>2026-04-25T09:05:18.917Z</time></trkpt><trkpt lat="43.84481154549061" lon="11.642682193713819"><ele>893.0</ele><time>2026-04-25T09:05:19.917Z</time></trkpt><trkpt lat="43.844918662418536" lon="11.642572030239005"><ele>893.25</ele><time>2026-04-25T09:05:20.917Z</time></trkpt><trkpt lat="43.84500701988111" lon="11.642452634868462"><ele>893.5</ele><time>2026-04-25T09:05:21.917Z</time></trkpt><trkpt lat="43.84504512896863" lon="11.642298836988006"><ele>893.75</ele><time>2026-04-25T09:05:22.917Z</time></trkpt><trkpt lat="43.84502112797068" lon="11.642097264962254"><ele>894.0</ele><time>2026-04-25T09:05:23.917Z</time></trkpt><trkpt lat="43.844973010732495" lon="11.641886689004851"><ele>895.3333333333333</ele><time>2026-04-25T09:05:24.917Z</time></trkpt><trkpt lat="43.84491737964819" lon="11.641668151941166"><ele>896.6666666666666</ele><time>2026-04-25T09:05:25.917Z</time></trkpt><trkpt lat="43.84488585843755" lon="11.64144439398339"><ele>898.0</ele><time>2026-04-25T09:05:26.917Z</time></trkpt><trkpt lat="43.84485099592407" lon="11.6412444778864"><ele>897.75</ele><time>2026-04-25T09:05:27.917Z</time></trkpt><trkpt lat="43.844854038282534" lon="11.641082463537321"><ele>897.5</ele><time>2026-04-25T09:05:28.917Z</time></trkpt><trkpt lat="43.84489811534978" lon="11.640935710698338"><ele>897.25</ele><time>2026-04-25T09:05:29.917Z</time></trkpt><trkpt lat="43.84496185702888" lon="11.640775982517253"><ele>897.0</ele><time>2026-04-25T09:05:30.917Z</time></trkpt><trkpt lat="43.845024539067715" lon="11.640598524171622"><ele>897.0</ele><time>2026-04-25T09:05:31.917Z</time></trkpt><trkpt lat="43.84509760312971" lon="11.640450356590158"><ele>897.0</ele><time>2026-04-25T09:05:32.917Z</time></trkpt><trkpt lat="43.8451703120776" lon="11.640340267421742"><ele>897.0</ele><time>2026-04-25T09:05:33.917Z</time></trkpt><trkpt lat="43.84527816065046" lon="11.640305144794306"><ele>897.0</ele><time>2026-04-25T09:05:34.917Z</time></trkpt><trkpt lat="43.84538672243981" lon="11.640320625581312"><ele>903.0</ele><time>2026-04-25T09:05:35.917Z</time></trkpt><trkpt lat="43.84551851240195" lon="11.640337923388985"><ele>909.0</ele><time>2026-04-25T09:05:36.917Z</time></trkpt><trkpt lat="43.84565474963767" lon="11.640338673710374"><ele>915.0</ele><time>2026-04-25T09:05:37.917Z</time></trkpt><trkpt lat="43.84577820628181" lon="11.640347685399044"><ele>921.0</ele><time>2026-04-25T09:05:38.917Z</time></trkpt><trkpt lat="43.845902877471" lon="11.640310724308371"><ele>923.0</ele><time>2026-04-25T09:05:39.917Z</time></trkpt><trkpt lat="43.84602902241975" lon="11.640215200141634"><ele>925.0</ele><time>2026-04-25T09:05:40.917Z</time></trkpt><trkpt lat="43.84615540981045" lon="11.640086311151913"><ele>927.0</ele><time>2026-04-25T09:05:41.917Z</time></trkpt><trkpt lat="43.846299856950814" lon="11.639927134175103"><ele>927.0</ele><time>2026-04-25T09:05:42.917Z</time></trkpt><trkpt lat="43.846466139658816" lon="11.639789328849359"><ele>927.0</ele><time>2026-04-25T09:05:43.917Z</time></trkpt><trkpt lat="43.846635596967545" lon="11.639608405165221"><ele>927.0</ele><time>2026-04-25T09:05:44.917Z</time></trkpt><trkpt lat="43.84681912723069" lon="11.639439245465288"><ele>929.3333333333333</ele><time>2026-04-25T09:05:45.917Z</time></trkpt><trkpt lat="43.847012257409816" lon="11.639290329360454"><ele>931.6666666666666</ele><time>2026-04-25T09:05:46.917Z</time></trkpt><trkpt lat="43.84720008832335" lon="11.63911967588316"><ele>934.0</ele><time>2026-04-25T09:05:47.917Z</time></trkpt><trkpt lat="43.847394810921315" lon="11.638942760772856"><ele>934.0</ele><time>2026-04-25T09:05:48.917Z</time></trkpt><trkpt lat="43.84758187862301" lon="11.638773876423798"><ele>934.0</ele><time>2026-04-25T09:05:49.917Z</time></trkpt><trkpt lat="43.84774748253509" lon="11.638624718656674"><ele>934.0</ele><time>2026-04-25T09:05:50.917Z</time></trkpt><trkpt lat="43.84789880411435" lon="11.638488424751232"><ele>934.75</ele><time>2026-04-25T09:05:51.917Z</time></trkpt><trkpt lat="43.84802286791112" lon="11.638349501644269"><ele>935.5</ele><time>2026-04-25T09:05:52.917Z</time></trkpt><trkpt lat="43.848150773761006" lon="11.638238795598914"><ele>936.25</ele><time>2026-04-25T09:05:53.917Z</time></trkpt><trkpt lat="43.84827051791832" lon="11.638153495502165"><ele>937.0</ele><time>2026-04-25T09:05:54.917Z</time></trkpt><trkpt lat="43.84836880605916" lon="11.638038759469124"><ele>940.5</ele><time>2026-04-25T09:05:55.917Z</time></trkpt><trkpt lat="43.84847440514056" lon="11.637953660586081"><ele>944.0</ele><time>2026-04-25T09:05:56.916Z</time></trkpt><trkpt lat="43.84857819308565" lon="11.637870969933484"><ele>947.5</ele><time>2026-04-25T09:05:57.916Z</time></trkpt><trkpt lat="43.848689410271746" lon="11.637822679908515"><ele>951.0</ele><time>2026-04-25T09:05:58.916Z</time></trkpt><trkpt lat="43.84880349495227" lon="11.637852758567924"><ele>951.0</ele><time>2026-04-25T09:05:59.916Z</time></trkpt><trkpt lat="43.84890397502714" lon="11.637919807927755"><ele>950.9999999999999</ele><time>2026-04-25T09:06:00.916Z</time></trkpt><trkpt lat="43.84899430927921" lon="11.638004811066354"><ele>950.9999999999999</ele><time>2026-04-25T09:06:01.916Z</time></trkpt><trkpt lat="43.84908370325709" lon="11.638067866562768"><ele>951.0</ele><time>2026-04-25T09:06:02.916Z</time></trkpt><trkpt lat="43.84917253796709" lon="11.638115285330715"><ele>951.0</ele><time>2026-04-25T09:06:03.916Z</time></trkpt><trkpt lat="43.84927290716308" lon="11.638120731777951"><ele>954.75</ele><time>2026-04-25T09:06:04.916Z</time></trkpt><trkpt lat="43.849371981031766" lon="11.638056275974478"><ele>958.5</ele><time>2026-04-25T09:06:05.915Z</time></trkpt><trkpt lat="43.84945953655603" lon="11.637936240437307"><ele>962.25</ele><time>2026-04-25T09:06:06.915Z</time></trkpt><trkpt lat="43.849538962986465" lon="11.637790662541097"><ele>966.0</ele><time>2026-04-25T09:06:07.915Z</time></trkpt><trkpt lat="43.84963292561718" lon="11.637620586741882"><ele>966.0</ele><time>2026-04-25T09:06:08.915Z</time></trkpt><trkpt lat="43.84972631131934" lon="11.637441937401848"><ele>966.0</ele><time>2026-04-25T09:06:09.915Z</time></trkpt><trkpt lat="43.84982703420782" lon="11.63724872820958"><ele>966.0</ele><time>2026-04-25T09:06:10.915Z</time></trkpt><trkpt lat="43.84993063480512" lon="11.637049998430568"><ele>963.25</ele><time>2026-04-25T09:06:11.915Z</time></trkpt><trkpt lat="43.85002408774744" lon="11.636869795267838"><ele>960.5</ele><time>2026-04-25T09:06:12.915Z</time></trkpt><trkpt lat="43.850109107179804" lon="11.636705711549613"><ele>957.75</ele><time>2026-04-25T09:06:13.915Z</time></trkpt><trkpt lat="43.850189076795644" lon="11.636551182004881"><ele>955.0</ele><time>2026-04-25T09:06:14.915Z</time></trkpt><trkpt lat="43.850251339946304" lon="11.63639419064475"><ele>956.5</ele><time>2026-04-25T09:06:15.915Z</time></trkpt><trkpt lat="43.85033724214453" lon="11.636266877486868"><ele>958.0</ele><time>2026-04-25T09:06:16.915Z</time></trkpt><trkpt lat="43.85040307783273" lon="11.63612164928494"><ele>959.5</ele><time>2026-04-25T09:06:17.915Z</time></trkpt><trkpt lat="43.850471726889154" lon="11.635973708070656"><ele>961.0</ele><time>2026-04-25T09:06:18.915Z</time></trkpt><trkpt lat="43.85056752978432" lon="11.635856463231363"><ele>961.0</ele><time>2026-04-25T09:06:19.915Z</time></trkpt><trkpt lat="43.850669046839364" lon="11.635759477211915"><ele>961.0</ele><time>2026-04-25T09:06:20.915Z</time></trkpt><trkpt lat="43.850787149375584" lon="11.635719851615855"><ele>961.0</ele><time>2026-04-25T09:06:21.915Z</time></trkpt><trkpt lat="43.85091090450251" lon="11.635695764866348"><ele>961.0</ele><time>2026-04-25T09:06:22.915Z</time></trkpt><trkpt lat="43.85104212684912" lon="11.63566452082139"><ele>965.5</ele><time>2026-04-25T09:06:23.915Z</time></trkpt><trkpt lat="43.851179960891564" lon="11.635633440232075"><ele>970.0</ele><time>2026-04-25T09:06:24.915Z</time></trkpt><trkpt lat="43.851305794099424" lon="11.635569449237284"><ele>974.5</ele><time>2026-04-25T09:06:25.915Z</time></trkpt><trkpt lat="43.851432405490016" lon="11.635470117127475"><ele>979.0</ele><time>2026-04-25T09:06:26.915Z</time></trkpt><trkpt lat="43.85154856605379" lon="11.635346729254053"><ele>974.5</ele><time>2026-04-25T09:06:27.915Z</time></trkpt><trkpt lat="43.85164550155678" lon="11.635191283500433"><ele>970.0</ele><time>2026-04-25T09:06:28.915Z</time></trkpt><trkpt lat="43.85174136410667" lon="11.635053123153963"><ele>965.5</ele><time>2026-04-25T09:06:29.915Z</time></trkpt><trkpt lat="43.85184722204241" lon="11.63493705133593"><ele>961.0</ele><time>2026-04-25T09:06:30.915Z</time></trkpt><trkpt lat="43.85194647845351" lon="11.634843675271746"><ele>961.0</ele><time>2026-04-25T09:06:31.915Z</time></trkpt><trkpt lat="43.85206054505623" lon="11.63478347244905"><ele>961.0</ele><time>2026-04-25T09:06:32.915Z</time></trkpt><trkpt lat="43.8521821324406" lon="11.634756519099076"><ele>961.0</ele><time>2026-04-25T09:06:33.915Z</time></trkpt><trkpt lat="43.85231826250323" lon="11.634742104855704"><ele>961.0</ele><time>2026-04-25T09:06:34.915Z</time></trkpt><trkpt lat="43.85245724928626" lon="11.634733867555113"><ele>961.0</ele><time>2026-04-25T09:06:35.915Z</time></trkpt><trkpt lat="43.85258507266652" lon="11.6347174211748"><ele>961.0</ele><time>2026-04-25T09:06:36.915Z</time></trkpt><trkpt lat="43.85270403692702" lon="11.634715545659164"><ele>961.0</ele><time>2026-04-25T09:06:37.915Z</time></trkpt><trkpt lat="43.85281579065396" lon="11.634733447686433"><ele>961.0</ele><time>2026-04-25T09:06:38.915Z</time></trkpt><trkpt lat="43.85292936921812" lon="11.634778518630219"><ele>957.25</ele><time>2026-04-25T09:06:39.915Z</time></trkpt><trkpt lat="43.85302495481239" lon="11.63486077205335"><ele>953.5</ele><time>2026-04-25T09:06:40.915Z</time></trkpt><trkpt lat="43.853094709810286" lon="11.634995349597084"><ele>949.75</ele><time>2026-04-25T09:06:41.915Z</time></trkpt><trkpt lat="43.853179217651046" lon="11.635111974326227"><ele>946.0</ele><time>2026-04-25T09:06:42.915Z</time></trkpt><trkpt lat="43.85324894727374" lon="11.63523122727176"><ele>947.8</ele><time>2026-04-25T09:06:43.915Z</time></trkpt><trkpt lat="43.85332337235309" lon="11.635329840089371"><ele>949.5999999999999</ele><time>2026-04-25T09:06:44.915Z</time></trkpt><trkpt lat="43.85341838875754" lon="11.635386706696933"><ele>951.4</ele><time>2026-04-25T09:06:45.915Z</time></trkpt><trkpt lat="43.853526151429996" lon="11.635414793657391"><ele>953.2</ele><time>2026-04-25T09:06:46.915Z</time></trkpt><trkpt lat="43.85362033444727" lon="11.635385108388135"><ele>955.0</ele><time>2026-04-25T09:06:47.915Z</time></trkpt><trkpt lat="43.853714123737255" lon="11.635279401370424"><ele>955.0</ele><time>2026-04-25T09:06:48.915Z</time></trkpt><trkpt lat="43.85381432555911" lon="11.635153659605535"><ele>955.0</ele><time>2026-04-25T09:06:49.915Z</time></trkpt><trkpt lat="43.8539030695863" lon="11.635007481172345"><ele>955.0</ele><time>2026-04-25T09:06:50.915Z</time></trkpt><trkpt lat="43.85399119604279" lon="11.6348374535987"><ele>955.0</ele><time>2026-04-25T09:06:51.915Z</time></trkpt><trkpt lat="43.85408491367637" lon="11.634676221172164"><ele>955.0</ele><time>2026-04-25T09:06:52.915Z</time></trkpt><trkpt lat="43.854179357074074" lon="11.634511744934578"><ele>955.0</ele><time>2026-04-25T09:06:53.915Z</time></trkpt><trkpt lat="43.85429010154661" lon="11.634364911769403"><ele>955.0</ele><time>2026-04-25T09:06:54.915Z</time></trkpt><trkpt lat="43.85439129612398" lon="11.634194596963374"><ele>957.3333333333333</ele><time>2026-04-25T09:06:55.915Z</time></trkpt><trkpt lat="43.85449151734782" lon="11.634029936723104"><ele>959.6666666666667</ele><time>2026-04-25T09:06:56.915Z</time></trkpt><trkpt lat="43.854591686912094" lon="11.63387625510383"><ele>962.0</ele><time>2026-04-25T09:06:57.915Z</time></trkpt><trkpt lat="43.85468490464237" lon="11.63372205244144"><ele>954.25</ele><time>2026-04-25T09:06:58.915Z</time></trkpt><trkpt lat="43.85477471942518" lon="11.633573890165103"><ele>946.5</ele><time>2026-04-25T09:06:59.915Z</time></trkpt><trkpt lat="43.85485667912573" lon="11.63344050515992"><ele>938.75</ele><time>2026-04-25T09:07:00.915Z</time></trkpt><trkpt lat="43.85493819649295" lon="11.633301489275969"><ele>931.0</ele><time>2026-04-25T09:07:01.915Z</time></trkpt><trkpt lat="43.85501926521491" lon="11.633162771054247"><ele>931.0</ele><time>2026-04-25T09:07:02.914Z</time></trkpt><trkpt lat="43.8550991297129" lon="11.633041856847056"><ele>931.0</ele><time>2026-04-25T09:07:03.914Z</time></trkpt><trkpt lat="43.855179158794165" lon="11.632937681998287"><ele>931.0</ele><time>2026-04-25T09:07:04.914Z</time></trkpt><trkpt lat="43.85527710041574" lon="11.632870002176661"><ele>931.0</ele><time>2026-04-25T09:07:05.914Z</time></trkpt><trkpt lat="43.855390074572114" lon="11.632820052596474"><ele>934.0</ele><time>2026-04-25T09:07:06.914Z</time></trkpt><trkpt lat="43.85551498505824" lon="11.632819593069856"><ele>937.0</ele><time>2026-04-25T09:07:07.914Z</time></trkpt><trkpt lat="43.855638187131575" lon="11.63284413872286"><ele>940.0</ele><time>2026-04-25T09:07:08.914Z</time></trkpt><trkpt lat="43.85576192942647" lon="11.632857500331784"><ele>943.0</ele><time>2026-04-25T09:07:09.914Z</time></trkpt><trkpt lat="43.85588582884142" lon="11.632877735291705"><ele>944.75</ele><time>2026-04-25T09:07:10.914Z</time></trkpt><trkpt lat="43.85600105997818" lon="11.632886902865785"><ele>946.5</ele><time>2026-04-25T09:07:11.914Z</time></trkpt><trkpt lat="43.85611034587185" lon="11.63286873109829"><ele>948.25</ele><time>2026-04-25T09:07:12.914Z</time></trkpt><trkpt lat="43.85621588886472" lon="11.63281190719782"><ele>950.0</ele><time>2026-04-25T09:07:13.914Z</time></trkpt><trkpt lat="43.856312311840874" lon="11.632706141382618"><ele>944.75</ele><time>2026-04-25T09:07:14.914Z</time></trkpt><trkpt lat="43.856393257541406" lon="11.632559145179984"><ele>939.5</ele><time>2026-04-25T09:07:15.914Z</time></trkpt><trkpt lat="43.85646525718897" lon="11.632393361895959"><ele>934.25</ele><time>2026-04-25T09:07:16.914Z</time></trkpt><trkpt lat="43.85653174543053" lon="11.632204960953874"><ele>929.0</ele><time>2026-04-25T09:07:17.914Z</time></trkpt><trkpt lat="43.85660061180993" lon="11.632014775913454"><ele>932.3333333333334</ele><time>2026-04-25T09:07:18.914Z</time></trkpt><trkpt lat="43.856666815336766" lon="11.631836966317579"><ele>935.6666666666667</ele><time>2026-04-25T09:07:19.914Z</time></trkpt><trkpt lat="43.85673641053159" lon="11.631642283229107"><ele>939.0</ele><time>2026-04-25T09:07:20.914Z</time></trkpt><trkpt lat="43.8568061574355" lon="11.63143881609205"><ele>939.0</ele><time>2026-04-25T09:07:21.914Z</time></trkpt><trkpt lat="43.85687364188635" lon="11.631243668790232"><ele>939.0</ele><time>2026-04-25T09:07:22.914Z</time></trkpt><trkpt lat="43.85693899756463" lon="11.631050791921055"><ele>939.0</ele><time>2026-04-25T09:07:23.914Z</time></trkpt><trkpt lat="43.857004177385384" lon="11.630862956678538"><ele>936.0</ele><time>2026-04-25T09:07:24.914Z</time></trkpt><trkpt lat="43.85705722502443" lon="11.630667233278968"><ele>933.0</ele><time>2026-04-25T09:07:25.914Z</time></trkpt><trkpt lat="43.857094950653625" lon="11.630471487695251"><ele>930.0</ele><time>2026-04-25T09:07:26.914Z</time></trkpt><trkpt lat="43.857115673232045" lon="11.63026420743224"><ele>927.0</ele><time>2026-04-25T09:07:27.914Z</time></trkpt><trkpt lat="43.85712095015585" lon="11.630055566392114"><ele>925.5</ele><time>2026-04-25T09:07:28.914Z</time></trkpt><trkpt lat="43.8571241688724" lon="11.629854863631069"><ele>924.0</ele><time>2026-04-25T09:07:29.914Z</time></trkpt><trkpt lat="43.857122565702035" lon="11.629656663780095"><ele>922.5</ele><time>2026-04-25T09:07:30.914Z</time></trkpt><trkpt lat="43.85712120392142" lon="11.629467765108357"><ele>921.0</ele><time>2026-04-25T09:07:31.914Z</time></trkpt><trkpt lat="43.857109629786756" lon="11.6292919615153"><ele>921.0</ele><time>2026-04-25T09:07:32.914Z</time></trkpt><trkpt lat="43.857070674941504" lon="11.629127488077376"><ele>921.0</ele><time>2026-04-25T09:07:33.914Z</time></trkpt><trkpt lat="43.857005269671106" lon="11.628981087669386"><ele>921.0</ele><time>2026-04-25T09:07:34.914Z</time></trkpt><trkpt lat="43.856919045040144" lon="11.628851193564977"><ele>921.0</ele><time>2026-04-25T09:07:35.914Z</time></trkpt><trkpt lat="43.85683709406542" lon="11.628726431525834"><ele>912.75</ele><time>2026-04-25T09:07:36.914Z</time></trkpt><trkpt lat="43.85677221383811" lon="11.628586283680999"><ele>904.5</ele><time>2026-04-25T09:07:37.914Z</time></trkpt><trkpt lat="43.85673766239494" lon="11.628439789319303"><ele>896.25</ele><time>2026-04-25T09:07:38.914Z</time></trkpt><trkpt lat="43.85673304169308" lon="11.628277493143132"><ele>888.0</ele><time>2026-04-25T09:07:39.914Z</time></trkpt><trkpt lat="43.85675672321039" lon="11.628103974716126"><ele>888.0</ele><time>2026-04-25T09:07:40.914Z</time></trkpt><trkpt lat="43.85678232363017" lon="11.627924441767384"><ele>888.0</ele><time>2026-04-25T09:07:41.914Z</time></trkpt><trkpt lat="43.85680578349739" lon="11.627747429522758"><ele>888.0</ele><time>2026-04-25T09:07:42.914Z</time></trkpt><trkpt lat="43.85682612286612" lon="11.627570786279305"><ele>888.0</ele><time>2026-04-25T09:07:43.914Z</time></trkpt><trkpt lat="43.85683990921642" lon="11.62739682986206"><ele>891.75</ele><time>2026-04-25T09:07:44.914Z</time></trkpt><trkpt lat="43.8568566460614" lon="11.627222078126378"><ele>895.5</ele><time>2026-04-25T09:07:45.914Z</time></trkpt><trkpt lat="43.85688212756652" lon="11.627044013996713"><ele>899.25</ele><time>2026-04-25T09:07:46.914Z</time></trkpt><trkpt lat="43.85692364735777" lon="11.626859126738085"><ele>903.0</ele><time>2026-04-25T09:07:47.914Z</time></trkpt><trkpt lat="43.85697793325105" lon="11.626678293014026"><ele>903.0</ele><time>2026-04-25T09:07:48.914Z</time></trkpt><trkpt lat="43.85703409296925" lon="11.62649941222762"><ele>903.0</ele><time>2026-04-25T09:07:49.914Z</time></trkpt><trkpt lat="43.85709627740319" lon="11.626318728070437"><ele>903.0</ele><time>2026-04-25T09:07:50.914Z</time></trkpt><trkpt lat="43.857154220168894" lon="11.626128493956008"><ele>903.0</ele><time>2026-04-25T09:07:51.914Z</time></trkpt><trkpt lat="43.85721407074875" lon="11.62593940385878"><ele>899.0</ele><time>2026-04-25T09:07:52.914Z</time></trkpt><trkpt lat="43.85727629461034" lon="11.625750707766766"><ele>895.0</ele><time>2026-04-25T09:07:53.914Z</time></trkpt><trkpt lat="43.85733740746234" lon="11.625560381951708"><ele>891.0</ele><time>2026-04-25T09:07:54.914Z</time></trkpt><trkpt lat="43.85738797201536" lon="11.625377567793675"><ele>887.0</ele><time>2026-04-25T09:07:55.914Z</time></trkpt><trkpt lat="43.85744111288597" lon="11.625204541248817"><ele>883.75</ele><time>2026-04-25T09:07:56.914Z</time></trkpt><trkpt lat="43.85747793486772" lon="11.625024550803753"><ele>880.5</ele><time>2026-04-25T09:07:57.914Z</time></trkpt><trkpt lat="43.85748606059786" lon="11.624855785360813"><ele>877.25</ele><time>2026-04-25T09:07:58.914Z</time></trkpt><trkpt lat="43.85748043119559" lon="11.62467549444541"><ele>874.0</ele><time>2026-04-25T09:07:59.914Z</time></trkpt><trkpt lat="43.85747238881273" lon="11.624508004111386"><ele>872.0</ele><time>2026-04-25T09:08:00.914Z</time></trkpt><trkpt lat="43.85745884286356" lon="11.624342638947113"><ele>870.0000000000001</ele><time>2026-04-25T09:08:01.914Z</time></trkpt><trkpt lat="43.85745401844838" lon="11.624195112563843"><ele>868.0000000000001</ele><time>2026-04-25T09:08:02.914Z</time></trkpt><trkpt lat="43.857465965572224" lon="11.62406681218209"><ele>866.0</ele><time>2026-04-25T09:08:03.913Z</time></trkpt><trkpt lat="43.857513845522966" lon="11.623960597713126"><ele>864.0</ele><time>2026-04-25T09:08:04.913Z</time></trkpt><trkpt lat="43.85758983867074" lon="11.623866244577261"><ele>864.6</ele><time>2026-04-25T09:08:05.913Z</time></trkpt><trkpt lat="43.85767180237033" lon="11.62382423960251"><ele>865.2</ele><time>2026-04-25T09:08:06.913Z</time></trkpt><trkpt lat="43.85776051159259" lon="11.623833555107844"><ele>865.8000000000001</ele><time>2026-04-25T09:08:07.913Z</time></trkpt><trkpt lat="43.85783548762404" lon="11.623887255014271"><ele>866.4000000000001</ele><time>2026-04-25T09:08:08.913Z</time></trkpt><trkpt lat="43.8579061436909" lon="11.623983742769328"><ele>867.0</ele><time>2026-04-25T09:08:09.913Z</time></trkpt><trkpt lat="43.85797100542626" lon="11.624076727720189"><ele>867.0</ele><time>2026-04-25T09:08:10.913Z</time></trkpt><trkpt lat="43.85803902749752" lon="11.624153983421216"><ele>867.0</ele><time>2026-04-25T09:08:11.912Z</time></trkpt><trkpt lat="43.85812275362156" lon="11.624201598545156"><ele>867.0</ele><time>2026-04-25T09:08:12.912Z</time></trkpt><trkpt lat="43.858206375835024" lon="11.624206954540778"><ele>867.0</ele><time>2026-04-25T09:08:13.912Z</time></trkpt><trkpt lat="43.858302568026495" lon="11.624167127979652"><ele>867.0</ele><time>2026-04-25T09:08:14.913Z</time></trkpt><trkpt lat="43.858413531575735" lon="11.624078110157258"><ele>866.25</ele><time>2026-04-25T09:08:15.912Z</time></trkpt><trkpt lat="43.85853428922047" lon="11.623973698331348"><ele>865.5</ele><time>2026-04-25T09:08:16.912Z</time></trkpt><trkpt lat="43.858658277497966" lon="11.623904776479044"><ele>864.75</ele><time>2026-04-25T09:08:17.912Z</time></trkpt><trkpt lat="43.858774328665014" lon="11.6238372879717"><ele>864.0</ele><time>2026-04-25T09:08:18.912Z</time></trkpt><trkpt lat="43.858891619614845" lon="11.623772661603853"><ele>864.0</ele><time>2026-04-25T09:08:19.912Z</time></trkpt><trkpt lat="43.85898888843383" lon="11.623720106468207"><ele>864.0000000000001</ele><time>2026-04-25T09:08:20.912Z</time></trkpt><trkpt lat="43.85907327963876" lon="11.623669007332756"><ele>864.0000000000001</ele><time>2026-04-25T09:08:21.912Z</time></trkpt><trkpt lat="43.85915827732906" lon="11.623672885162526"><ele>864.0</ele><time>2026-04-25T09:08:22.912Z</time></trkpt><trkpt lat="43.859239965556505" lon="11.623727807110091"><ele>864.0</ele><time>2026-04-25T09:08:23.912Z</time></trkpt><trkpt lat="43.859311104899994" lon="11.62381681915803"><ele>859.25</ele><time>2026-04-25T09:08:24.912Z</time></trkpt><trkpt lat="43.859373094738686" lon="11.623948270836305"><ele>854.5</ele><time>2026-04-25T09:08:25.912Z</time></trkpt><trkpt lat="43.8594236892539" lon="11.624079833756188"><ele>849.75</ele><time>2026-04-25T09:08:26.912Z</time></trkpt><trkpt lat="43.85949837923793" lon="11.624218737365705"><ele>845.0</ele><time>2026-04-25T09:08:27.912Z</time></trkpt><trkpt lat="43.859547797842666" lon="11.624367205245061"><ele>849.0</ele><time>2026-04-25T09:08:28.912Z</time></trkpt><trkpt lat="43.85962354031616" lon="11.624487488381526"><ele>853.0</ele><time>2026-04-25T09:08:29.912Z</time></trkpt><trkpt lat="43.859706739660695" lon="11.624587100897857"><ele>857.0</ele><time>2026-04-25T09:08:30.912Z</time></trkpt><trkpt lat="43.85980874555752" lon="11.624655913230274"><ele>861.0</ele><time>2026-04-25T09:08:31.912Z</time></trkpt><trkpt lat="43.859914758508815" lon="11.624704156094243"><ele>861.0</ele><time>2026-04-25T09:08:32.912Z</time></trkpt><trkpt lat="43.86003257054656" lon="11.62471417780345"><ele>861.0</ele><time>2026-04-25T09:08:33.912Z</time></trkpt><trkpt lat="43.860135586496106" lon="11.624682498003072"><ele>861.0</ele><time>2026-04-25T09:08:34.912Z</time></trkpt><trkpt lat="43.86023398720717" lon="11.624599133729893"><ele>861.0</ele><time>2026-04-25T09:08:35.912Z</time></trkpt><trkpt lat="43.86034155801028" lon="11.624519935264951"><ele>855.4</ele><time>2026-04-25T09:08:36.912Z</time></trkpt><trkpt lat="43.860453036884124" lon="11.624460672588773"><ele>849.8</ele><time>2026-04-25T09:08:37.912Z</time></trkpt><trkpt lat="43.86056508271511" lon="11.624423963944428"><ele>844.1999999999999</ele><time>2026-04-25T09:08:38.912Z</time></trkpt><trkpt lat="43.86067527485105" lon="11.624403599541326"><ele>838.5999999999999</ele><time>2026-04-25T09:08:39.912Z</time></trkpt><trkpt lat="43.860759965500904" lon="11.624383352280418"><ele>833.0</ele><time>2026-04-25T09:08:40.912Z</time></trkpt><trkpt lat="43.86085053267908" lon="11.624415896358851"><ele>835.8333333333334</ele><time>2026-04-25T09:08:41.912Z</time></trkpt><trkpt lat="43.86091730311794" lon="11.624488449596587"><ele>838.6666666666667</ele><time>2026-04-25T09:08:42.912Z</time></trkpt><trkpt lat="43.860970518792755" lon="11.624585879338854"><ele>841.5</ele><time>2026-04-25T09:08:43.912Z</time></trkpt><trkpt lat="43.86100175229765" lon="11.624692976501423"><ele>844.3333333333333</ele><time>2026-04-25T09:08:44.912Z</time></trkpt><trkpt lat="43.86102134475851" lon="11.624804061207904"><ele>847.1666666666666</ele><time>2026-04-25T09:08:45.912Z</time></trkpt><trkpt lat="43.86103256024048" lon="11.62492624982494"><ele>850.0</ele><time>2026-04-25T09:08:46.912Z</time></trkpt><trkpt lat="43.86104836310367" lon="11.625054069795462"><ele>846.4</ele><time>2026-04-25T09:08:47.912Z</time></trkpt><trkpt lat="43.86107272562306" lon="11.625185553124515"><ele>842.8</ele><time>2026-04-25T09:08:48.912Z</time></trkpt><trkpt lat="43.86112027765486" lon="11.625324048789352"><ele>839.2</ele><time>2026-04-25T09:08:49.912Z</time></trkpt><trkpt lat="43.861180998155255" lon="11.625451528351674"><ele>835.6</ele><time>2026-04-25T09:08:50.912Z</time></trkpt><trkpt lat="43.8612683316416" lon="11.625571562983621"><ele>832.0</ele><time>2026-04-25T09:08:51.912Z</time></trkpt><trkpt lat="43.86137569907835" lon="11.625665475739046"><ele>832.0</ele><time>2026-04-25T09:08:52.912Z</time></trkpt><trkpt lat="43.861485735484706" lon="11.625714132781743"><ele>832.0</ele><time>2026-04-25T09:08:53.912Z</time></trkpt><trkpt lat="43.8615889734504" lon="11.625804108426362"><ele>832.0</ele><time>2026-04-25T09:08:54.912Z</time></trkpt><trkpt lat="43.86168966551453" lon="11.6258701367455"><ele>832.0</ele><time>2026-04-25T09:08:55.912Z</time></trkpt><trkpt lat="43.861795816056144" lon="11.625938278926432"><ele>830.6</ele><time>2026-04-25T09:08:56.912Z</time></trkpt><trkpt lat="43.86190533278994" lon="11.626009764870568"><ele>829.2</ele><time>2026-04-25T09:08:57.912Z</time></trkpt><trkpt lat="43.86200735475763" lon="11.626081415382275"><ele>827.8</ele><time>2026-04-25T09:08:58.912Z</time></trkpt><trkpt lat="43.86209338590741" lon="11.626156946624901"><ele>826.4</ele><time>2026-04-25T09:08:59.912Z</time></trkpt><trkpt lat="43.862150529795926" lon="11.626287082467089"><ele>825.0</ele><time>2026-04-25T09:09:00.912Z</time></trkpt><trkpt lat="43.862197206125835" lon="11.626410618212192"><ele>825.0</ele><time>2026-04-25T09:09:01.912Z</time></trkpt><trkpt lat="43.862243654737576" lon="11.626539788992256"><ele>825.0</ele><time>2026-04-25T09:09:02.912Z</time></trkpt><trkpt lat="43.86230683358368" lon="11.626621191461103"><ele>825.0</ele><time>2026-04-25T09:09:03.912Z</time></trkpt><trkpt lat="43.86240184449345" lon="11.62669938428323"><ele>825.0</ele><time>2026-04-25T09:09:04.911Z</time></trkpt><trkpt lat="43.86250830771341" lon="11.626731744793174"><ele>825.0</ele><time>2026-04-25T09:09:05.911Z</time></trkpt><trkpt lat="43.86260497379768" lon="11.626708277336084"><ele>829.0</ele><time>2026-04-25T09:09:06.911Z</time></trkpt><trkpt lat="43.86269093411068" lon="11.626619676345133"><ele>833.0</ele><time>2026-04-25T09:09:07.911Z</time></trkpt><trkpt lat="43.86277534284018" lon="11.626498156049065"><ele>837.0</ele><time>2026-04-25T09:09:08.911Z</time></trkpt><trkpt lat="43.86285171685741" lon="11.62635174990116"><ele>841.0</ele><time>2026-04-25T09:09:09.911Z</time></trkpt><trkpt lat="43.86290760023518" lon="11.626170681651022"><ele>838.6666666666666</ele><time>2026-04-25T09:09:10.911Z</time></trkpt><trkpt lat="43.862930513325324" lon="11.625967912705567"><ele>836.3333333333333</ele><time>2026-04-25T09:09:11.911Z</time></trkpt><trkpt lat="43.86298600136551" lon="11.625767195356108"><ele>834.0</ele><time>2026-04-25T09:09:12.911Z</time></trkpt><trkpt lat="43.86302235795427" lon="11.625564915005832"><ele>834.0</ele><time>2026-04-25T09:09:13.911Z</time></trkpt><trkpt lat="43.86305770712431" lon="11.625366505638734"><ele>834.0</ele><time>2026-04-25T09:09:14.911Z</time></trkpt><trkpt lat="43.863090602520394" lon="11.62518576298218"><ele>834.0</ele><time>2026-04-25T09:09:15.911Z</time></trkpt><trkpt lat="43.86312380050983" lon="11.625010680016826"><ele>834.0</ele><time>2026-04-25T09:09:16.911Z</time></trkpt><trkpt lat="43.863147324034244" lon="11.624823550645608"><ele>831.0</ele><time>2026-04-25T09:09:17.911Z</time></trkpt><trkpt lat="43.863226865451686" lon="11.624665683124487"><ele>828.0</ele><time>2026-04-25T09:09:18.911Z</time></trkpt><trkpt lat="43.863311885179044" lon="11.62449792357652"><ele>825.0</ele><time>2026-04-25T09:09:19.911Z</time></trkpt><trkpt lat="43.86340398408725" lon="11.624319399460632"><ele>822.0</ele><time>2026-04-25T09:09:20.911Z</time></trkpt><trkpt lat="43.86348855297969" lon="11.624136920527889"><ele>822.0</ele><time>2026-04-25T09:09:21.911Z</time></trkpt><trkpt lat="43.86358082482488" lon="11.623949803408651"><ele>822.0</ele><time>2026-04-25T09:09:22.911Z</time></trkpt><trkpt lat="43.863674655983836" lon="11.623761201633084"><ele>822.0</ele><time>2026-04-25T09:09:23.911Z</time></trkpt><trkpt lat="43.86376576193432" lon="11.623580864700708"><ele>815.6666666666667</ele><time>2026-04-25T09:09:24.911Z</time></trkpt><trkpt lat="43.86384903348788" lon="11.623399818898921"><ele>809.3333333333334</ele><time>2026-04-25T09:09:25.911Z</time></trkpt><trkpt lat="43.86394078470703" lon="11.62323374272013"><ele>803.0</ele><time>2026-04-25T09:09:26.911Z</time></trkpt><trkpt lat="43.864045190738615" lon="11.623075216376906"><ele>803.0</ele><time>2026-04-25T09:09:27.911Z</time></trkpt><trkpt lat="43.864161558722756" lon="11.622939263070357"><ele>803.0</ele><time>2026-04-25T09:09:28.911Z</time></trkpt><trkpt lat="43.86429349332804" lon="11.6227985515768"><ele>803.0</ele><time>2026-04-25T09:09:29.911Z</time></trkpt><trkpt lat="43.8644344641557" lon="11.622655392098368"><ele>801.6666666666667</ele><time>2026-04-25T09:09:30.911Z</time></trkpt><trkpt lat="43.86456849456175" lon="11.622498466337948"><ele>800.3333333333333</ele><time>2026-04-25T09:09:31.911Z</time></trkpt><trkpt lat="43.86469371430016" lon="11.622333395250827"><ele>799.0</ele><time>2026-04-25T09:09:32.911Z</time></trkpt><trkpt lat="43.8648131444028" lon="11.622163400963629"><ele>799.0</ele><time>2026-04-25T09:09:33.911Z</time></trkpt><trkpt lat="43.86493106357044" lon="11.621998488071286"><ele>799.0</ele><time>2026-04-25T09:09:34.911Z</time></trkpt><trkpt lat="43.865044565148374" lon="11.621838897866763"><ele>799.0</ele><time>2026-04-25T09:09:35.911Z</time></trkpt><trkpt lat="43.865148941790416" lon="11.621677688871602"><ele>798.6666666666666</ele><time>2026-04-25T09:09:36.911Z</time></trkpt><trkpt lat="43.86523959441514" lon="11.62149773313681"><ele>798.3333333333333</ele><time>2026-04-25T09:09:37.911Z</time></trkpt><trkpt lat="43.86531385259799" lon="11.621307043721808"><ele>798.0</ele><time>2026-04-25T09:09:38.911Z</time></trkpt><trkpt lat="43.86537725767677" lon="11.6211086300014"><ele>794.3333333333333</ele><time>2026-04-25T09:09:39.911Z</time></trkpt><trkpt lat="43.865448777402285" lon="11.620911544951024"><ele>790.6666666666666</ele><time>2026-04-25T09:09:40.911Z</time></trkpt><trkpt lat="43.86553756113298" lon="11.620722517111476"><ele>787.0</ele><time>2026-04-25T09:09:41.911Z</time></trkpt><trkpt lat="43.86563637345006" lon="11.62053605375374"><ele>787.0</ele><time>2026-04-25T09:09:42.911Z</time></trkpt><trkpt lat="43.86573884111225" lon="11.620340968439626"><ele>787.0</ele><time>2026-04-25T09:09:43.911Z</time></trkpt><trkpt lat="43.865837941674855" lon="11.620152020067946"><ele>787.0</ele><time>2026-04-25T09:09:44.911Z</time></trkpt><trkpt lat="43.865932186771424" lon="11.619953002568465"><ele>785.6666666666666</ele><time>2026-04-25T09:09:45.911Z</time></trkpt><trkpt lat="43.86601225552396" lon="11.619745983830605"><ele>784.3333333333333</ele><time>2026-04-25T09:09:46.911Z</time></trkpt><trkpt lat="43.86608108603285" lon="11.619536468547219"><ele>783.0</ele><time>2026-04-25T09:09:47.911Z</time></trkpt><trkpt lat="43.86613941393936" lon="11.619318890030236"><ele>779.3333333333333</ele><time>2026-04-25T09:09:48.911Z</time></trkpt><trkpt lat="43.866207050883766" lon="11.61911668168407"><ele>775.6666666666666</ele><time>2026-04-25T09:09:49.911Z</time></trkpt><trkpt lat="43.8662806530921" lon="11.618931500489756"><ele>772.0</ele><time>2026-04-25T09:09:50.911Z</time></trkpt><trkpt lat="43.8663699728369" lon="11.618745638462196"><ele>769.0</ele><time>2026-04-25T09:09:51.911Z</time></trkpt><trkpt lat="43.86648141076131" lon="11.618570149783094"><ele>766.0</ele><time>2026-04-25T09:09:52.911Z</time></trkpt><trkpt lat="43.866601076654085" lon="11.618395457091001"><ele>763.0</ele><time>2026-04-25T09:09:53.911Z</time></trkpt><trkpt lat="43.866718187275566" lon="11.61821701630763"><ele>760.0</ele><time>2026-04-25T09:09:54.911Z</time></trkpt><trkpt lat="43.86682682968617" lon="11.618026115301717"><ele>757.0</ele><time>2026-04-25T09:09:55.911Z</time></trkpt><trkpt lat="43.866928678648705" lon="11.617813660833923"><ele>754.0</ele><time>2026-04-25T09:09:56.911Z</time></trkpt><trkpt lat="43.86702921735189" lon="11.617606360807502"><ele>753.6666666666667</ele><time>2026-04-25T09:09:57.911Z</time></trkpt><trkpt lat="43.867121777791034" lon="11.617402144220971"><ele>753.3333333333334</ele><time>2026-04-25T09:09:58.911Z</time></trkpt><trkpt lat="43.86721046671996" lon="11.617202634878637"><ele>753.0</ele><time>2026-04-25T09:09:59.911Z</time></trkpt><trkpt lat="43.86729033525724" lon="11.617008018321567"><ele>753.6666666666666</ele><time>2026-04-25T09:10:00.911Z</time></trkpt><trkpt lat="43.86736155275101" lon="11.616815115118952"><ele>754.3333333333333</ele><time>2026-04-25T09:10:01.911Z</time></trkpt><trkpt lat="43.867413928330855" lon="11.616621320889175"><ele>755.0</ele><time>2026-04-25T09:10:02.911Z</time></trkpt><trkpt lat="43.867443915339564" lon="11.616424668335148"><ele>755.0</ele><time>2026-04-25T09:10:03.91Z</time></trkpt><trkpt lat="43.867436519544775" lon="11.616219176147823"><ele>755.0</ele><time>2026-04-25T09:10:04.91Z</time></trkpt><trkpt lat="43.86742246398498" lon="11.616021902970926"><ele>755.0</ele><time>2026-04-25T09:10:05.91Z</time></trkpt><trkpt lat="43.86739782748207" lon="11.61583042054996"><ele>755.0</ele><time>2026-04-25T09:10:06.91Z</time></trkpt><trkpt lat="43.86738243989206" lon="11.615639524537787"><ele>755.0</ele><time>2026-04-25T09:10:07.91Z</time></trkpt><trkpt lat="43.86736086288928" lon="11.615450384207731"><ele>755.0</ele><time>2026-04-25T09:10:08.91Z</time></trkpt><trkpt lat="43.86734434745398" lon="11.615252282685946"><ele>755.0</ele><time>2026-04-25T09:10:09.91Z</time></trkpt><trkpt lat="43.86730905541354" lon="11.615039790936782"><ele>755.0</ele><time>2026-04-25T09:10:10.91Z</time></trkpt><trkpt lat="43.867255899666354" lon="11.614823289749332"><ele>753.6666666666666</ele><time>2026-04-25T09:10:11.91Z</time></trkpt><trkpt lat="43.867188521759026" lon="11.614617208178716"><ele>752.3333333333334</ele><time>2026-04-25T09:10:12.91Z</time></trkpt><trkpt lat="43.86712756803916" lon="11.6144308085931"><ele>751.0</ele><time>2026-04-25T09:10:13.91Z</time></trkpt><trkpt lat="43.867053534202654" lon="11.614266106517523"><ele>750.25</ele><time>2026-04-25T09:10:14.91Z</time></trkpt><trkpt lat="43.86697205664753" lon="11.614118389967137"><ele>749.5</ele><time>2026-04-25T09:10:15.91Z</time></trkpt><trkpt lat="43.86687683586393" lon="11.613992029626584"><ele>748.75</ele><time>2026-04-25T09:10:16.91Z</time></trkpt><trkpt lat="43.866757312252226" lon="11.613912085781568"><ele>748.0</ele><time>2026-04-25T09:10:17.91Z</time></trkpt><trkpt lat="43.866641151119715" lon="11.613832541493789"><ele>748.0</ele><time>2026-04-25T09:10:18.909Z</time></trkpt><trkpt lat="43.86650334128421" lon="11.613804759005232"><ele>748.0</ele><time>2026-04-25T09:10:19.909Z</time></trkpt><trkpt lat="43.86637009271785" lon="11.613822722182427"><ele>748.0</ele><time>2026-04-25T09:10:20.909Z</time></trkpt><trkpt lat="43.866234891844044" lon="11.613881281793766"><ele>748.0</ele><time>2026-04-25T09:10:21.91Z</time></trkpt><trkpt lat="43.86612468812366" lon="11.613971250378203"><ele>748.0</ele><time>2026-04-25T09:10:22.91Z</time></trkpt><trkpt lat="43.866029116603116" lon="11.614106603231903"><ele>748.0</ele><time>2026-04-25T09:10:23.91Z</time></trkpt><trkpt lat="43.8659606746268" lon="11.614260872695416"><ele>748.0</ele><time>2026-04-25T09:10:24.909Z</time></trkpt><trkpt lat="43.86590167298245" lon="11.614426752659735"><ele>748.0</ele><time>2026-04-25T09:10:25.909Z</time></trkpt><trkpt lat="43.8658432894125" lon="11.61459699111361"><ele>745.75</ele><time>2026-04-25T09:10:26.909Z</time></trkpt><trkpt lat="43.86578664302543" lon="11.6147626931932"><ele>743.5</ele><time>2026-04-25T09:10:27.91Z</time></trkpt><trkpt lat="43.86573256940723" lon="11.614916182661037"><ele>741.25</ele><time>2026-04-25T09:10:28.91Z</time></trkpt><trkpt lat="43.865678018234526" lon="11.615080704872469"><ele>739.0</ele><time>2026-04-25T09:10:29.909Z</time></trkpt><trkpt lat="43.86564133425137" lon="11.61525311175053"><ele>739.25</ele><time>2026-04-25T09:10:30.909Z</time></trkpt><trkpt lat="43.86562781070006" lon="11.615437658052892"><ele>739.5</ele><time>2026-04-25T09:10:31.909Z</time></trkpt><trkpt lat="43.865634896894484" lon="11.61562174270428"><ele>739.75</ele><time>2026-04-25T09:10:32.909Z</time></trkpt><trkpt lat="43.86564864837892" lon="11.615804807861798"><ele>740.0</ele><time>2026-04-25T09:10:33.909Z</time></trkpt><trkpt lat="43.86566250116529" lon="11.61598922154787"><ele>739.5</ele><time>2026-04-25T09:10:34.909Z</time></trkpt><trkpt lat="43.86567583840075" lon="11.61616677187636"><ele>739.0</ele><time>2026-04-25T09:10:35.909Z</time></trkpt><trkpt lat="43.86568695699105" lon="11.616346694947325"><ele>738.5</ele><time>2026-04-25T09:10:36.909Z</time></trkpt><trkpt lat="43.86567156308025" lon="11.616502410841552"><ele>738.0</ele><time>2026-04-25T09:10:37.909Z</time></trkpt><trkpt lat="43.865642440565665" lon="11.616668880065589"><ele>738.0</ele><time>2026-04-25T09:10:38.909Z</time></trkpt><trkpt lat="43.865611125353155" lon="11.616830669666792"><ele>738.0</ele><time>2026-04-25T09:10:39.909Z</time></trkpt><trkpt lat="43.86558034621431" lon="11.616989689559533"><ele>738.0</ele><time>2026-04-25T09:10:40.909Z</time></trkpt><trkpt lat="43.86555283468177" lon="11.61711908384933"><ele>738.0</ele><time>2026-04-25T09:10:41.909Z</time></trkpt><trkpt lat="43.865520948245" lon="11.617231370866628"><ele>738.0</ele><time>2026-04-25T09:10:42.909Z</time></trkpt><trkpt lat="43.86546920211412" lon="11.617303266599974"><ele>739.25</ele><time>2026-04-25T09:10:43.909Z</time></trkpt><trkpt lat="43.865393870726905" lon="11.617383952956002"><ele>740.5</ele><time>2026-04-25T09:10:44.909Z</time></trkpt><trkpt lat="43.86528998414972" lon="11.617452319718566"><ele>741.75</ele><time>2026-04-25T09:10:45.909Z</time></trkpt><trkpt lat="43.865179510395386" lon="11.617522679370692"><ele>743.0</ele><time>2026-04-25T09:10:46.909Z</time></trkpt><trkpt lat="43.865061387354785" lon="11.617598733113626"><ele>740.25</ele><time>2026-04-25T09:10:47.909Z</time></trkpt><trkpt lat="43.86495496920128" lon="11.617667250608871"><ele>737.5</ele><time>2026-04-25T09:10:48.909Z</time></trkpt><trkpt lat="43.86484879889019" lon="11.617735583666954"><ele>734.75</ele><time>2026-04-25T09:10:49.909Z</time></trkpt><trkpt lat="43.86474342712836" lon="11.617809235260056"><ele>732.0</ele><time>2026-04-25T09:10:50.909Z</time></trkpt><trkpt lat="43.864650620362404" lon="11.61791418087209"><ele>732.0</ele><time>2026-04-25T09:10:51.909Z</time></trkpt><trkpt lat="43.86459167788593" lon="11.618071963346802"><ele>732.0</ele><time>2026-04-25T09:10:52.909Z</time></trkpt><trkpt lat="43.86456999484591" lon="11.618223083105656"><ele>732.0</ele><time>2026-04-25T09:10:53.909Z</time></trkpt><trkpt lat="43.86464598924442" lon="11.61838041828226"><ele>732.0</ele><time>2026-04-25T09:10:54.909Z</time></trkpt><trkpt lat="43.864669202147155" lon="11.618518330088982"><ele>732.6</ele><time>2026-04-25T09:10:55.909Z</time></trkpt><trkpt lat="43.86468805672331" lon="11.618653609843026"><ele>733.2</ele><time>2026-04-25T09:10:56.909Z</time></trkpt><trkpt lat="43.86468825773233" lon="11.618780243510692"><ele>733.8</ele><time>2026-04-25T09:10:57.909Z</time></trkpt><trkpt lat="43.86466085237109" lon="11.618886512065085"><ele>734.4</ele><time>2026-04-25T09:10:58.909Z</time></trkpt><trkpt lat="43.86458135648925" lon="11.619020247673536"><ele>735.0</ele><time>2026-04-25T09:10:59.909Z</time></trkpt><trkpt lat="43.864498144959185" lon="11.619164622464629"><ele>735.0</ele><time>2026-04-25T09:11:00.909Z</time></trkpt><trkpt lat="43.864414135246264" lon="11.619296533327931"><ele>735.0</ele><time>2026-04-25T09:11:01.909Z</time></trkpt><trkpt lat="43.86431058943357" lon="11.619436308961562"><ele>735.0</ele><time>2026-04-25T09:11:02.909Z</time></trkpt><trkpt lat="43.86421072624245" lon="11.619571573145636"><ele>735.0</ele><time>2026-04-25T09:11:03.909Z</time></trkpt><trkpt lat="43.86412438447699" lon="11.61970971231535"><ele>731.0</ele><time>2026-04-25T09:11:04.909Z</time></trkpt><trkpt lat="43.86404246698519" lon="11.619845952862157"><ele>727.0</ele><time>2026-04-25T09:11:05.909Z</time></trkpt><trkpt lat="43.86396004419316" lon="11.619967106692048"><ele>723.0</ele><time>2026-04-25T09:11:06.909Z</time></trkpt><trkpt lat="43.86386257282335" lon="11.62008757163692"><ele>719.0</ele><time>2026-04-25T09:11:07.909Z</time></trkpt><trkpt lat="43.86377612978849" lon="11.620217654600179"><ele>717.5</ele><time>2026-04-25T09:11:08.909Z</time></trkpt><trkpt lat="43.86366842005346" lon="11.620331539125782"><ele>716.0</ele><time>2026-04-25T09:11:09.909Z</time></trkpt><trkpt lat="43.86358276580483" lon="11.620463617709715"><ele>714.5</ele><time>2026-04-25T09:11:10.909Z</time></trkpt><trkpt lat="43.86350073407793" lon="11.620583347419918"><ele>713.0</ele><time>2026-04-25T09:11:11.909Z</time></trkpt><trkpt lat="43.86341826299599" lon="11.620693324915562"><ele>713.0</ele><time>2026-04-25T09:11:12.909Z</time></trkpt><trkpt lat="43.86333370574873" lon="11.620776072396659"><ele>713.0</ele><time>2026-04-25T09:11:13.908Z</time></trkpt><trkpt lat="43.86325748829317" lon="11.62083356655568"><ele>713.0</ele><time>2026-04-25T09:11:14.908Z</time></trkpt><trkpt lat="43.863172155378805" lon="11.62082552346175"><ele>713.0</ele><time>2026-04-25T09:11:15.908Z</time></trkpt><trkpt lat="43.863111600978556" lon="11.620748120952312"><ele>713.0</ele><time>2026-04-25T09:11:16.908Z</time></trkpt><trkpt lat="43.863074083077116" lon="11.620641436690295"><ele>713.0</ele><time>2026-04-25T09:11:17.908Z</time></trkpt><trkpt lat="43.86304509161289" lon="11.620534052583682"><ele>713.0</ele><time>2026-04-25T09:11:18.908Z</time></trkpt><trkpt lat="43.86309763787663" lon="11.62041493679717"><ele>713.0</ele><time>2026-04-25T09:11:19.908Z</time></trkpt><trkpt lat="43.86315987101731" lon="11.620297871262123"><ele>713.0</ele><time>2026-04-25T09:11:20.908Z</time></trkpt><trkpt lat="43.86323622580802" lon="11.620174885959534"><ele>713.0</ele><time>2026-04-25T09:11:21.908Z</time></trkpt><trkpt lat="43.86332246752056" lon="11.620056699291316"><ele>713.0</ele><time>2026-04-25T09:11:22.908Z</time></trkpt><trkpt lat="43.86340430585267" lon="11.619930612426371"><ele>714.5</ele><time>2026-04-25T09:11:23.908Z</time></trkpt><trkpt lat="43.863490237898645" lon="11.619794697732313"><ele>716.0</ele><time>2026-04-25T09:11:24.908Z</time></trkpt><trkpt lat="43.863578674273285" lon="11.61966062970196"><ele>717.5</ele><time>2026-04-25T09:11:25.908Z</time></trkpt><trkpt lat="43.86365906734789" lon="11.61953075954381"><ele>719.0</ele><time>2026-04-25T09:11:26.908Z</time></trkpt><trkpt lat="43.86372330915293" lon="11.619394468030773"><ele>715.5</ele><time>2026-04-25T09:11:27.908Z</time></trkpt><trkpt lat="43.8637569307228" lon="11.619218404677518"><ele>712.0</ele><time>2026-04-25T09:11:28.908Z</time></trkpt><trkpt lat="43.8637852772161" lon="11.619034339565122"><ele>708.5</ele><time>2026-04-25T09:11:29.908Z</time></trkpt><trkpt lat="43.863809843462136" lon="11.61880614569483"><ele>705.0</ele><time>2026-04-25T09:11:30.908Z</time></trkpt><trkpt lat="43.86383141241715" lon="11.61860778862167"><ele>704.0</ele><time>2026-04-25T09:11:31.908Z</time></trkpt><trkpt lat="43.863855878344644" lon="11.618426315534284"><ele>703.0</ele><time>2026-04-25T09:11:32.908Z</time></trkpt><trkpt lat="43.86388197535655" lon="11.618231066850154"><ele>702.0</ele><time>2026-04-25T09:11:33.908Z</time></trkpt><trkpt lat="43.86388554539136" lon="11.618055887408676"><ele>701.0</ele><time>2026-04-25T09:11:34.908Z</time></trkpt><trkpt lat="43.863888904628574" lon="11.617885053837698"><ele>700.25</ele><time>2026-04-25T09:11:35.908Z</time></trkpt><trkpt lat="43.86387759733519" lon="11.617727276679547"><ele>699.5</ele><time>2026-04-25T09:11:36.908Z</time></trkpt><trkpt lat="43.863837775264095" lon="11.617589386090083"><ele>698.75</ele><time>2026-04-25T09:11:37.908Z</time></trkpt><trkpt lat="43.863760561378704" lon="11.617478046622956"><ele>698.0</ele><time>2026-04-25T09:11:38.908Z</time></trkpt><trkpt lat="43.86368925132772" lon="11.617349585311384"><ele>698.0</ele><time>2026-04-25T09:11:39.908Z</time></trkpt><trkpt lat="43.86360416307409" lon="11.61724443188122"><ele>698.0</ele><time>2026-04-25T09:11:40.908Z</time></trkpt><trkpt lat="43.86355084028905" lon="11.617110904628689"><ele>698.0</ele><time>2026-04-25T09:11:41.908Z</time></trkpt><trkpt lat="43.86352722106523" lon="11.616975010589519"><ele>698.0</ele><time>2026-04-25T09:11:42.908Z</time></trkpt><trkpt lat="43.86353518160847" lon="11.616846427461875"><ele>698.0</ele><time>2026-04-25T09:11:43.908Z</time></trkpt><trkpt lat="43.863575402063226" lon="11.616718810751573"><ele>695.5</ele><time>2026-04-25T09:11:44.908Z</time></trkpt><trkpt lat="43.863632720826104" lon="11.616585616470116"><ele>693.0</ele><time>2026-04-25T09:11:45.908Z</time></trkpt><trkpt lat="43.863706218433435" lon="11.616434726573287"><ele>690.5</ele><time>2026-04-25T09:11:46.908Z</time></trkpt><trkpt lat="43.86376594726702" lon="11.61626651958131"><ele>688.0</ele><time>2026-04-25T09:11:47.908Z</time></trkpt><trkpt lat="43.863816648720956" lon="11.616099411573432"><ele>685.5</ele><time>2026-04-25T09:11:48.908Z</time></trkpt><trkpt lat="43.86385966500886" lon="11.615931842536542"><ele>683.0</ele><time>2026-04-25T09:11:49.908Z</time></trkpt><trkpt lat="43.86389649332775" lon="11.615757110145726"><ele>680.5</ele><time>2026-04-25T09:11:50.908Z</time></trkpt><trkpt lat="43.86391430851186" lon="11.615586191906536"><ele>678.0</ele><time>2026-04-25T09:11:51.908Z</time></trkpt><trkpt lat="43.86392312438726" lon="11.615417642469453"><ele>679.0</ele><time>2026-04-25T09:11:52.908Z</time></trkpt><trkpt lat="43.86392095095282" lon="11.615245850452373"><ele>680.0</ele><time>2026-04-25T09:11:53.908Z</time></trkpt><trkpt lat="43.86392186080087" lon="11.61507934854042"><ele>681.0</ele><time>2026-04-25T09:11:54.908Z</time></trkpt><trkpt lat="43.86392393019299" lon="11.614913431098538"><ele>682.0</ele><time>2026-04-25T09:11:55.908Z</time></trkpt><trkpt lat="43.86390811439412" lon="11.614752734361918"><ele>682.0</ele><time>2026-04-25T09:11:56.908Z</time></trkpt><trkpt lat="43.86388341238323" lon="11.614593753318067"><ele>682.0</ele><time>2026-04-25T09:11:57.908Z</time></trkpt><trkpt lat="43.86383660247991" lon="11.61443662969294"><ele>682.0</ele><time>2026-04-25T09:11:58.908Z</time></trkpt><trkpt lat="43.863766536690626" lon="11.61427997756035"><ele>682.0</ele><time>2026-04-25T09:11:59.908Z</time></trkpt><trkpt lat="43.86369248529469" lon="11.614130938772282"><ele>682.25</ele><time>2026-04-25T09:12:00.908Z</time></trkpt><trkpt lat="43.863626546821465" lon="11.613976974707326"><ele>682.5</ele><time>2026-04-25T09:12:01.908Z</time></trkpt><trkpt lat="43.86356120687782" lon="11.613834503127801"><ele>682.75</ele><time>2026-04-25T09:12:02.908Z</time></trkpt><trkpt lat="43.86350642024548" lon="11.613684201944006"><ele>683.0</ele><time>2026-04-25T09:12:03.908Z</time></trkpt><trkpt lat="43.86346905906112" lon="11.613531831053503"><ele>675.75</ele><time>2026-04-25T09:12:04.908Z</time></trkpt><trkpt lat="43.86343490240182" lon="11.613371650966418"><ele>668.5</ele><time>2026-04-25T09:12:05.908Z</time></trkpt><trkpt lat="43.863426193809474" lon="11.613200197673619"><ele>661.25</ele><time>2026-04-25T09:12:06.908Z</time></trkpt><trkpt lat="43.863421891188594" lon="11.613016632981376"><ele>654.0</ele><time>2026-04-25T09:12:07.908Z</time></trkpt><trkpt lat="43.86342307898707" lon="11.612830403448731"><ele>653.0</ele><time>2026-04-25T09:12:08.908Z</time></trkpt><trkpt lat="43.86342596283998" lon="11.612643016808756"><ele>652.0</ele><time>2026-04-25T09:12:09.908Z</time></trkpt><trkpt lat="43.86342659770326" lon="11.612469265300279"><ele>651.0</ele><time>2026-04-25T09:12:10.908Z</time></trkpt><trkpt lat="43.863426716759264" lon="11.612295625310143"><ele>650.0</ele><time>2026-04-25T09:12:11.908Z</time></trkpt><trkpt lat="43.86343110860402" lon="11.612121609771437"><ele>654.25</ele><time>2026-04-25T09:12:12.908Z</time></trkpt><trkpt lat="43.86345009492816" lon="11.611942348638197"><ele>658.5</ele><time>2026-04-25T09:12:13.907Z</time></trkpt><trkpt lat="43.8634753140987" lon="11.61176830578875"><ele>662.75</ele><time>2026-04-25T09:12:14.907Z</time></trkpt><trkpt lat="43.86351257323621" lon="11.611592748981177"><ele>667.0</ele><time>2026-04-25T09:12:15.907Z</time></trkpt><trkpt lat="43.863567455596524" lon="11.611407847396991"><ele>667.0</ele><time>2026-04-25T09:12:16.907Z</time></trkpt><trkpt lat="43.86362241583648" lon="11.611240979363368"><ele>667.0</ele><time>2026-04-25T09:12:17.907Z</time></trkpt><trkpt lat="43.86367247877775" lon="11.611070073758862"><ele>667.0</ele><time>2026-04-25T09:12:18.907Z</time></trkpt><trkpt lat="43.86371894977048" lon="11.610890239844005"><ele>667.0</ele><time>2026-04-25T09:12:19.907Z</time></trkpt><trkpt lat="43.863770349342516" lon="11.610723373852707"><ele>664.5</ele><time>2026-04-25T09:12:20.907Z</time></trkpt><trkpt lat="43.86380657900246" lon="11.610540777049188"><ele>662.0</ele><time>2026-04-25T09:12:21.907Z</time></trkpt><trkpt lat="43.86385835600464" lon="11.61036622508193"><ele>659.5</ele><time>2026-04-25T09:12:22.907Z</time></trkpt><trkpt lat="43.863885936633146" lon="11.610182571487604"><ele>657.0</ele><time>2026-04-25T09:12:23.907Z</time></trkpt><trkpt lat="43.863916119566106" lon="11.609995631664425"><ele>654.0</ele><time>2026-04-25T09:12:24.908Z</time></trkpt><trkpt lat="43.863946510808745" lon="11.609808900435583"><ele>651.0</ele><time>2026-04-25T09:12:25.908Z</time></trkpt><trkpt lat="43.86397699700663" lon="11.609630290497474"><ele>648.0</ele><time>2026-04-25T09:12:26.908Z</time></trkpt><trkpt lat="43.864003727453316" lon="11.609447916459644"><ele>645.0</ele><time>2026-04-25T09:12:27.908Z</time></trkpt><trkpt lat="43.86403495428584" lon="11.609261933355244"><ele>642.5</ele><time>2026-04-25T09:12:28.908Z</time></trkpt><trkpt lat="43.864071054871985" lon="11.60908098821974"><ele>640.0</ele><time>2026-04-25T09:12:29.907Z</time></trkpt><trkpt lat="43.864120844854554" lon="11.608910817900444"><ele>637.5</ele><time>2026-04-25T09:12:30.907Z</time></trkpt><trkpt lat="43.86418496506001" lon="11.608746089867106"><ele>635.0</ele><time>2026-04-25T09:12:31.907Z</time></trkpt><trkpt lat="43.86425555941818" lon="11.60860059996565"><ele>635.75</ele><time>2026-04-25T09:12:32.907Z</time></trkpt><trkpt lat="43.86432264239834" lon="11.60844458252758"><ele>636.5</ele><time>2026-04-25T09:12:33.907Z</time></trkpt><trkpt lat="43.86439436110238" lon="11.60830077281655"><ele>637.25</ele><time>2026-04-25T09:12:34.907Z</time></trkpt><trkpt lat="43.8644539928426" lon="11.608139519587386"><ele>638.0</ele><time>2026-04-25T09:12:35.907Z</time></trkpt><trkpt lat="43.86452095322423" lon="11.607989550159914"><ele>638.0</ele><time>2026-04-25T09:12:36.908Z</time></trkpt><trkpt lat="43.86459519120516" lon="11.607830472581705"><ele>638.0</ele><time>2026-04-25T09:12:37.908Z</time></trkpt><trkpt lat="43.8646655222422" lon="11.607679766651168"><ele>638.0</ele><time>2026-04-25T09:12:38.908Z</time></trkpt><trkpt lat="43.8647368156259" lon="11.607526998452897"><ele>638.0</ele><time>2026-04-25T09:12:39.908Z</time></trkpt><trkpt lat="43.86481424936357" lon="11.607382653772637"><ele>635.0</ele><time>2026-04-25T09:12:40.908Z</time></trkpt><trkpt lat="43.86488407731963" lon="11.607237990235117"><ele>632.0</ele><time>2026-04-25T09:12:41.908Z</time></trkpt><trkpt lat="43.86496117940947" lon="11.607110511196288"><ele>629.0</ele><time>2026-04-25T09:12:42.907Z</time></trkpt><trkpt lat="43.8650553540953" lon="11.607012540568677"><ele>626.0</ele><time>2026-04-25T09:12:43.907Z</time></trkpt><trkpt lat="43.86516331552509" lon="11.606946267066967"><ele>620.6</ele><time>2026-04-25T09:12:44.907Z</time></trkpt><trkpt lat="43.86527192119413" lon="11.606880258897682"><ele>615.2</ele><time>2026-04-25T09:12:45.907Z</time></trkpt><trkpt lat="43.86537282864035" lon="11.606822127362102"><ele>609.8</ele><time>2026-04-25T09:12:46.907Z</time></trkpt><trkpt lat="43.86546334391444" lon="11.606752810578087"><ele>604.4</ele><time>2026-04-25T09:12:47.907Z</time></trkpt><trkpt lat="43.86553237402099" lon="11.606667744036303"><ele>599.0</ele><time>2026-04-25T09:12:48.907Z</time></trkpt><trkpt lat="43.86556900509934" lon="11.606556637690328"><ele>599.0</ele><time>2026-04-25T09:12:49.907Z</time></trkpt><trkpt lat="43.86556968597268" lon="11.606440518937502"><ele>599.0</ele><time>2026-04-25T09:12:50.907Z</time></trkpt><trkpt lat="43.86554407447957" lon="11.606326297028938"><ele>599.0</ele><time>2026-04-25T09:12:51.907Z</time></trkpt><trkpt lat="43.86549136513179" lon="11.606241496653631"><ele>599.0</ele><time>2026-04-25T09:12:52.907Z</time></trkpt><trkpt lat="43.8654371595343" lon="11.606156853797879"><ele>599.0</ele><time>2026-04-25T09:12:53.907Z</time></trkpt><trkpt lat="43.86535487506421" lon="11.60610266577839"><ele>599.0</ele><time>2026-04-25T09:12:54.907Z</time></trkpt><trkpt lat="43.86525227240912" lon="11.606119734480583"><ele>599.0</ele><time>2026-04-25T09:12:55.907Z</time></trkpt><trkpt lat="43.86516522035322" lon="11.606192992964736"><ele>599.0</ele><time>2026-04-25T09:12:56.907Z</time></trkpt><trkpt lat="43.86510018287549" lon="11.606299353174084"><ele>599.0</ele><time>2026-04-25T09:12:57.907Z</time></trkpt><trkpt lat="43.86500778081236" lon="11.606401571436251"><ele>599.0</ele><time>2026-04-25T09:12:58.907Z</time></trkpt><trkpt lat="43.86491512964267" lon="11.606490870827328"><ele>599.0</ele><time>2026-04-25T09:12:59.907Z</time></trkpt><trkpt lat="43.86482821588835" lon="11.606558828567028"><ele>601.2</ele><time>2026-04-25T09:13:00.907Z</time></trkpt><trkpt lat="43.86474300070629" lon="11.60663179530064"><ele>603.4</ele><time>2026-04-25T09:13:01.907Z</time></trkpt><trkpt lat="43.864661442846426" lon="11.606706297914432"><ele>605.6</ele><time>2026-04-25T09:13:02.907Z</time></trkpt><trkpt lat="43.86458897238076" lon="11.606781264388934"><ele>607.8</ele><time>2026-04-25T09:13:03.907Z</time></trkpt><trkpt lat="43.86452133140601" lon="11.606846412669972"><ele>610.0</ele><time>2026-04-25T09:13:04.907Z</time></trkpt><trkpt lat="43.86445214490809" lon="11.606922886633011"><ele>608.6</ele><time>2026-04-25T09:13:05.907Z</time></trkpt><trkpt lat="43.864392318174275" lon="11.607003950084211"><ele>607.2</ele><time>2026-04-25T09:13:06.907Z</time></trkpt><trkpt lat="43.86433932385043" lon="11.607109211726147"><ele>605.8</ele><time>2026-04-25T09:13:07.907Z</time></trkpt><trkpt lat="43.86429587367918" lon="11.607224232016891"><ele>604.4</ele><time>2026-04-25T09:13:08.907Z</time></trkpt><trkpt lat="43.86424056116503" lon="11.607326376654436"><ele>603.0</ele><time>2026-04-25T09:13:09.907Z</time></trkpt><trkpt lat="43.86420040282613" lon="11.607444165218142"><ele>603.0</ele><time>2026-04-25T09:13:10.907Z</time></trkpt><trkpt lat="43.86414678051773" lon="11.607557300827542"><ele>603.0</ele><time>2026-04-25T09:13:11.907Z</time></trkpt><trkpt lat="43.86405661899963" lon="11.607638761358208"><ele>603.0</ele><time>2026-04-25T09:13:12.907Z</time></trkpt><trkpt lat="43.86399655835554" lon="11.607744741242449"><ele>603.0</ele><time>2026-04-25T09:13:13.907Z</time></trkpt><trkpt lat="43.863926751832025" lon="11.607855961670488"><ele>603.0</ele><time>2026-04-25T09:13:14.907Z</time></trkpt><trkpt lat="43.86385727287311" lon="11.607961557874852"><ele>607.0</ele><time>2026-04-25T09:13:15.907Z</time></trkpt><trkpt lat="43.86378350779602" lon="11.608072797345958"><ele>611.0</ele><time>2026-04-25T09:13:16.907Z</time></trkpt><trkpt lat="43.86372067415686" lon="11.60819760164882"><ele>615.0</ele><time>2026-04-25T09:13:17.907Z</time></trkpt><trkpt lat="43.86364262350565" lon="11.608304214217073"><ele>619.0</ele><time>2026-04-25T09:13:18.907Z</time></trkpt><trkpt lat="43.86355043433457" lon="11.608420689785854"><ele>619.0</ele><time>2026-04-25T09:13:19.907Z</time></trkpt><trkpt lat="43.863480374182814" lon="11.608544578367857"><ele>619.0</ele><time>2026-04-25T09:13:20.907Z</time></trkpt><trkpt lat="43.863391639080255" lon="11.608664821148908"><ele>619.0</ele><time>2026-04-25T09:13:21.907Z</time></trkpt><trkpt lat="43.86330504689838" lon="11.608778972314314"><ele>619.0</ele><time>2026-04-25T09:13:22.907Z</time></trkpt><trkpt lat="43.863209199508475" lon="11.608872450056797"><ele>615.75</ele><time>2026-04-25T09:13:23.907Z</time></trkpt><trkpt lat="43.86310432757792" lon="11.60896324010884"><ele>612.5</ele><time>2026-04-25T09:13:24.907Z</time></trkpt><trkpt lat="43.8629904954109" lon="11.609047829393981"><ele>609.25</ele><time>2026-04-25T09:13:25.907Z</time></trkpt><trkpt lat="43.86288421385805" lon="11.60913176900916"><ele>606.0</ele><time>2026-04-25T09:13:26.907Z</time></trkpt><trkpt lat="43.8627778088505" lon="11.609220289318765"><ele>606.0</ele><time>2026-04-25T09:13:27.907Z</time></trkpt><trkpt lat="43.862682304628756" lon="11.609306831283085"><ele>606.0</ele><time>2026-04-25T09:13:28.907Z</time></trkpt><trkpt lat="43.86258884181285" lon="11.6093857249867"><ele>606.0</ele><time>2026-04-25T09:13:29.907Z</time></trkpt><trkpt lat="43.862494852019104" lon="11.609456410613172"><ele>606.0</ele><time>2026-04-25T09:13:30.907Z</time></trkpt><trkpt lat="43.86241009760803" lon="11.609559309389164"><ele>606.0</ele><time>2026-04-25T09:13:31.907Z</time></trkpt><trkpt lat="43.86231866792807" lon="11.609638457359402"><ele>603.25</ele><time>2026-04-25T09:13:32.907Z</time></trkpt><trkpt lat="43.862233395904845" lon="11.609727529251277"><ele>600.5</ele><time>2026-04-25T09:13:33.907Z</time></trkpt><trkpt lat="43.8621649565466" lon="11.609844941355501"><ele>597.75</ele><time>2026-04-25T09:13:34.907Z</time></trkpt><trkpt lat="43.862066851929356" lon="11.609940218200194"><ele>595.0</ele><time>2026-04-25T09:13:35.907Z</time></trkpt><trkpt lat="43.861968847664926" lon="11.610039170481876"><ele>595.0</ele><time>2026-04-25T09:13:36.907Z</time></trkpt><trkpt lat="43.86186719006361" lon="11.610143318678587"><ele>595.0</ele><time>2026-04-25T09:13:37.907Z</time></trkpt><trkpt lat="43.8617700899988" lon="11.61023986080158"><ele>595.0</ele><time>2026-04-25T09:13:38.907Z</time></trkpt><trkpt lat="43.86166107560357" lon="11.610315360090171"><ele>595.0</ele><time>2026-04-25T09:13:39.907Z</time></trkpt><trkpt lat="43.86157051547686" lon="11.610413043884492"><ele>590.75</ele><time>2026-04-25T09:13:40.907Z</time></trkpt><trkpt lat="43.861490500448475" lon="11.6105121949356"><ele>586.5</ele><time>2026-04-25T09:13:41.907Z</time></trkpt><trkpt lat="43.86141829082367" lon="11.610636532529501"><ele>582.25</ele><time>2026-04-25T09:13:42.906Z</time></trkpt><trkpt lat="43.86135686522606" lon="11.610784284635985"><ele>578.0</ele><time>2026-04-25T09:13:43.906Z</time></trkpt><trkpt lat="43.86130396875881" lon="11.61094663975427"><ele>578.0</ele><time>2026-04-25T09:13:44.906Z</time></trkpt><trkpt lat="43.86127086605579" lon="11.61111064773957"><ele>578.0</ele><time>2026-04-25T09:13:45.906Z</time></trkpt><trkpt lat="43.86125868692215" lon="11.611279489786268"><ele>578.0</ele><time>2026-04-25T09:13:46.906Z</time></trkpt><trkpt lat="43.861259960794044" lon="11.611437919996792"><ele>578.0</ele><time>2026-04-25T09:13:47.906Z</time></trkpt><trkpt lat="43.86128620315072" lon="11.611592313091892"><ele>579.75</ele><time>2026-04-25T09:13:48.906Z</time></trkpt><trkpt lat="43.86128900260111" lon="11.611748445587363"><ele>581.5</ele><time>2026-04-25T09:13:49.906Z</time></trkpt><trkpt lat="43.86130433812077" lon="11.611917282572602"><ele>583.25</ele><time>2026-04-25T09:13:50.906Z</time></trkpt><trkpt lat="43.86132071425773" lon="11.612099473567786"><ele>585.0</ele><time>2026-04-25T09:13:51.906Z</time></trkpt><trkpt lat="43.86134428596534" lon="11.612298503469773"><ele>585.0</ele><time>2026-04-25T09:13:52.906Z</time></trkpt><trkpt lat="43.86136020901331" lon="11.612510866324705"><ele>585.0</ele><time>2026-04-25T09:13:53.906Z</time></trkpt><trkpt lat="43.86136334817591" lon="11.612731045369657"><ele>585.0</ele><time>2026-04-25T09:13:54.906Z</time></trkpt><trkpt lat="43.861365627745194" lon="11.61293718925682"><ele>585.25</ele><time>2026-04-25T09:13:55.906Z</time></trkpt><trkpt lat="43.86136147511796" lon="11.613139134372574"><ele>585.5</ele><time>2026-04-25T09:13:56.906Z</time></trkpt><trkpt lat="43.86135653646245" lon="11.613343422868311"><ele>585.75</ele><time>2026-04-25T09:13:57.906Z</time></trkpt><trkpt lat="43.86133808754237" lon="11.613533554881075"><ele>586.0</ele><time>2026-04-25T09:13:58.906Z</time></trkpt><trkpt lat="43.8613106195404" lon="11.613708790999405"><ele>586.0</ele><time>2026-04-25T09:13:59.906Z</time></trkpt><trkpt lat="43.8613014160253" lon="11.613881573813956"><ele>586.0</ele><time>2026-04-25T09:14:00.906Z</time></trkpt><trkpt lat="43.86127935800426" lon="11.614034691426937"><ele>586.0</ele><time>2026-04-25T09:14:01.906Z</time></trkpt><trkpt lat="43.861275461509756" lon="11.614184095224944"><ele>586.0</ele><time>2026-04-25T09:14:02.906Z</time></trkpt><trkpt lat="43.86125866302642" lon="11.614337859051625"><ele>587.25</ele><time>2026-04-25T09:14:03.906Z</time></trkpt><trkpt lat="43.86124935291049" lon="11.61450598605766"><ele>588.5</ele><time>2026-04-25T09:14:04.906Z</time></trkpt><trkpt lat="43.86124002999236" lon="11.614680508367218"><ele>589.75</ele><time>2026-04-25T09:14:05.906Z</time></trkpt><trkpt lat="43.861215326265395" lon="11.614853810521904"><ele>591.0</ele><time>2026-04-25T09:14:06.906Z</time></trkpt><trkpt lat="43.861200131285045" lon="11.615018348666176"><ele>591.0</ele><time>2026-04-25T09:14:07.906Z</time></trkpt><trkpt lat="43.86118749758369" lon="11.615172609631848"><ele>591.0</ele><time>2026-04-25T09:14:08.906Z</time></trkpt><trkpt lat="43.86116704980102" lon="11.615316853459218"><ele>591.0</ele><time>2026-04-25T09:14:09.906Z</time></trkpt><trkpt lat="43.861154968283714" lon="11.615440931762121"><ele>591.0</ele><time>2026-04-25T09:14:10.906Z</time></trkpt><trkpt lat="43.86114192053695" lon="11.615558080707773"><ele>591.0</ele><time>2026-04-25T09:14:11.906Z</time></trkpt><trkpt lat="43.86109045025886" lon="11.615646917631965"><ele>589.3333333333334</ele><time>2026-04-25T09:14:12.906Z</time></trkpt><trkpt lat="43.86102674241782" lon="11.615712218645095"><ele>587.6666666666666</ele><time>2026-04-25T09:14:13.906Z</time></trkpt><trkpt lat="43.860952772598566" lon="11.615713738389147"><ele>586.0</ele><time>2026-04-25T09:14:14.906Z</time></trkpt><trkpt lat="43.860869807422496" lon="11.6156560132797"><ele>584.3333333333333</ele><time>2026-04-25T09:14:15.906Z</time></trkpt><trkpt lat="43.86079905705635" lon="11.615575021169724"><ele>582.6666666666666</ele><time>2026-04-25T09:14:16.906Z</time></trkpt><trkpt lat="43.86074138048652" lon="11.615450072143108"><ele>581.0</ele><time>2026-04-25T09:14:17.906Z</time></trkpt><trkpt lat="43.86068958468202" lon="11.615309275078895"><ele>577.25</ele><time>2026-04-25T09:14:18.906Z</time></trkpt><trkpt lat="43.86063543936382" lon="11.61514983059247"><ele>573.5</ele><time>2026-04-25T09:14:19.906Z</time></trkpt><trkpt lat="43.860581126831384" lon="11.614982970363132"><ele>569.75</ele><time>2026-04-25T09:14:20.906Z</time></trkpt><trkpt lat="43.86052435399609" lon="11.614814640925616"><ele>566.0</ele><time>2026-04-25T09:14:21.906Z</time></trkpt><trkpt lat="43.86047477661631" lon="11.614650470634045"><ele>566.0</ele><time>2026-04-25T09:14:22.906Z</time></trkpt><trkpt lat="43.86042247841089" lon="11.614495920131976"><ele>566.0</ele><time>2026-04-25T09:14:23.906Z</time></trkpt><trkpt lat="43.860374488617914" lon="11.61435018382759"><ele>566.0</ele><time>2026-04-25T09:14:24.906Z</time></trkpt><trkpt lat="43.86032870371611" lon="11.614203197771305"><ele>566.0</ele><time>2026-04-25T09:14:25.906Z</time></trkpt><trkpt lat="43.86027483422184" lon="11.614059310602162"><ele>565.25</ele><time>2026-04-25T09:14:26.906Z</time></trkpt><trkpt lat="43.86019895051469" lon="11.61394310126073"><ele>564.5</ele><time>2026-04-25T09:14:27.906Z</time></trkpt><trkpt lat="43.860095104815" lon="11.613859965203977"><ele>563.75</ele><time>2026-04-25T09:14:28.906Z</time></trkpt><trkpt lat="43.85997117001127" lon="11.613813952449396"><ele>563.0</ele><time>2026-04-25T09:14:29.906Z</time></trkpt><trkpt lat="43.85986181760498" lon="11.613739867804865"><ele>557.0</ele><time>2026-04-25T09:14:30.905Z</time></trkpt><trkpt lat="43.85975517242983" lon="11.6136411412275"><ele>551.0</ele><time>2026-04-25T09:14:31.905Z</time></trkpt><trkpt lat="43.859691150563904" lon="11.613510657142697"><ele>545.0</ele><time>2026-04-25T09:14:32.905Z</time></trkpt><trkpt lat="43.85963751311247" lon="11.613355651935606"><ele>539.0</ele><time>2026-04-25T09:14:33.905Z</time></trkpt><trkpt lat="43.85961406452176" lon="11.61318015007563"><ele>539.0</ele><time>2026-04-25T09:14:34.905Z</time></trkpt><trkpt lat="43.85956387013174" lon="11.612994938332966"><ele>539.0</ele><time>2026-04-25T09:14:35.905Z</time></trkpt><trkpt lat="43.859514817310675" lon="11.61280951553016"><ele>539.0</ele><time>2026-04-25T09:14:36.904Z</time></trkpt><trkpt lat="43.859448363298426" lon="11.612631123223759"><ele>539.0</ele><time>2026-04-25T09:14:37.904Z</time></trkpt><trkpt lat="43.8593727870448" lon="11.612454915118793"><ele>538.0</ele><time>2026-04-25T09:14:38.904Z</time></trkpt><trkpt lat="43.859301718673194" lon="11.61230218017804"><ele>537.0</ele><time>2026-04-25T09:14:39.905Z</time></trkpt><trkpt lat="43.859233115662114" lon="11.61214353156832"><ele>536.0</ele><time>2026-04-25T09:14:40.905Z</time></trkpt><trkpt lat="43.8591611489636" lon="11.61199088323202"><ele>535.0</ele><time>2026-04-25T09:14:41.905Z</time></trkpt><trkpt lat="43.8591087786384" lon="11.611822761707337"><ele>535.0</ele><time>2026-04-25T09:14:42.905Z</time></trkpt><trkpt lat="43.859045965106255" lon="11.611680930762411"><ele>535.0</ele><time>2026-04-25T09:14:43.905Z</time></trkpt><trkpt lat="43.85899370189794" lon="11.61154820974998"><ele>535.0</ele><time>2026-04-25T09:14:44.905Z</time></trkpt><trkpt lat="43.85894701303836" lon="11.611409208171215"><ele>535.0</ele><time>2026-04-25T09:14:45.905Z</time></trkpt><trkpt lat="43.858899774684566" lon="11.611284603796598"><ele>535.0</ele><time>2026-04-25T09:14:46.905Z</time></trkpt><trkpt lat="43.85886327342936" lon="11.611171034415259"><ele>533.4</ele><time>2026-04-25T09:14:47.905Z</time></trkpt><trkpt lat="43.85879066988798" lon="11.611086924623619"><ele>531.8</ele><time>2026-04-25T09:14:48.905Z</time></trkpt><trkpt lat="43.85870518148757" lon="11.611039047643015"><ele>530.2</ele><time>2026-04-25T09:14:49.905Z</time></trkpt><trkpt lat="43.858618477476085" lon="11.611005329922671"><ele>528.6</ele><time>2026-04-25T09:14:50.905Z</time></trkpt><trkpt lat="43.858516795605475" lon="11.611062962451598"><ele>527.0</ele><time>2026-04-25T09:14:51.905Z</time></trkpt><trkpt lat="43.85843800306898" lon="11.6111267459223"><ele>529.1666666666666</ele><time>2026-04-25T09:14:52.905Z</time></trkpt><trkpt lat="43.85836523581043" lon="11.611214327045275"><ele>531.3333333333333</ele><time>2026-04-25T09:14:53.905Z</time></trkpt><trkpt lat="43.858301489824136" lon="11.611302129945354"><ele>533.5</ele><time>2026-04-25T09:14:54.905Z</time></trkpt><trkpt lat="43.85824465661891" lon="11.611387366368495"><ele>535.6666666666666</ele><time>2026-04-25T09:14:55.905Z</time></trkpt><trkpt lat="43.85820626684529" lon="11.611477118531985"><ele>537.8333333333334</ele><time>2026-04-25T09:14:56.905Z</time></trkpt><trkpt lat="43.85816476869833" lon="11.611567660315254"><ele>540.0</ele><time>2026-04-25T09:14:57.905Z</time></trkpt><trkpt lat="43.85813961223173" lon="11.611657780346595"><ele>540.0</ele><time>2026-04-25T09:14:58.905Z</time></trkpt><trkpt lat="43.85813399633555" lon="11.61175879115423"><ele>540.0</ele><time>2026-04-25T09:14:59.904Z</time></trkpt><trkpt lat="43.858135913354516" lon="11.611871468678167"><ele>540.0</ele><time>2026-04-25T09:15:00.904Z</time></trkpt><trkpt lat="43.85817231137241" lon="11.611977501841967"><ele>540.0</ele><time>2026-04-25T09:15:01.904Z</time></trkpt><trkpt lat="43.858195516459695" lon="11.612080865181682"><ele>540.0</ele><time>2026-04-25T09:15:02.904Z</time></trkpt><trkpt lat="43.85820269307133" lon="11.61220119600632"><ele>540.0</ele><time>2026-04-25T09:15:03.904Z</time></trkpt><trkpt lat="43.85817045718413" lon="11.612308664298425"><ele>541.5</ele><time>2026-04-25T09:15:04.904Z</time></trkpt><trkpt lat="43.85811853076317" lon="11.612388662180594"><ele>543.0</ele><time>2026-04-25T09:15:05.904Z</time></trkpt><trkpt lat="43.85803947768278" lon="11.612434939982094"><ele>544.5</ele><time>2026-04-25T09:15:06.904Z</time></trkpt><trkpt lat="43.85797031566708" lon="11.612436633576543"><ele>546.0</ele><time>2026-04-25T09:15:07.904Z</time></trkpt><trkpt lat="43.857902300210384" lon="11.612406884289634"><ele>547.5</ele><time>2026-04-25T09:15:08.904Z</time></trkpt><trkpt lat="43.85782511011559" lon="11.612365503014656"><ele>549.0</ele><time>2026-04-25T09:15:09.904Z</time></trkpt><trkpt lat="43.85774341852528" lon="11.612283843002587"><ele>549.0</ele><time>2026-04-25T09:15:10.904Z</time></trkpt><trkpt lat="43.857674735964906" lon="11.61218197925846"><ele>549.0</ele><time>2026-04-25T09:15:11.904Z</time></trkpt><trkpt lat="43.85761186898038" lon="11.612097518473508"><ele>549.0</ele><time>2026-04-25T09:15:12.904Z</time></trkpt><trkpt lat="43.85756142582261" lon="11.611999440447114"><ele>549.0</ele><time>2026-04-25T09:15:13.904Z</time></trkpt><trkpt lat="43.857502847906815" lon="11.61190250577267"><ele>549.0</ele><time>2026-04-25T09:15:14.904Z</time></trkpt><trkpt lat="43.85743963738593" lon="11.611804232803118"><ele>546.6</ele><time>2026-04-25T09:15:15.904Z</time></trkpt><trkpt lat="43.85738357949661" lon="11.611708284874256"><ele>544.2</ele><time>2026-04-25T09:15:16.904Z</time></trkpt><trkpt lat="43.857324837942926" lon="11.611620625669724"><ele>541.8000000000001</ele><time>2026-04-25T09:15:17.904Z</time></trkpt><trkpt lat="43.85726911162557" lon="11.611505707830695"><ele>539.4</ele><time>2026-04-25T09:15:18.904Z</time></trkpt><trkpt lat="43.85721453465124" lon="11.611391240220723"><ele>537.0</ele><time>2026-04-25T09:15:19.904Z</time></trkpt><trkpt lat="43.85716610975351" lon="11.6112632277005"><ele>535.0</ele><time>2026-04-25T09:15:20.904Z</time></trkpt><trkpt lat="43.85713096384094" lon="11.61112017865638"><ele>533.0</ele><time>2026-04-25T09:15:21.904Z</time></trkpt><trkpt lat="43.857097876322236" lon="11.611015110659928"><ele>531.0</ele><time>2026-04-25T09:15:22.904Z</time></trkpt><trkpt lat="43.85705322145148" lon="11.610935384973452"><ele>529.0</ele><time>2026-04-25T09:15:23.904Z</time></trkpt><trkpt lat="43.856991621831696" lon="11.610876381476414"><ele>527.0</ele><time>2026-04-25T09:15:24.904Z</time></trkpt><trkpt lat="43.85692862381284" lon="11.610859973388022"><ele>525.0</ele><time>2026-04-25T09:15:25.904Z</time></trkpt><trkpt lat="43.856852320535275" lon="11.610832396825446"><ele>525.0</ele><time>2026-04-25T09:15:26.904Z</time></trkpt><trkpt lat="43.856792827168924" lon="11.610954607412571"><ele>525.0</ele><time>2026-04-25T09:15:27.904Z</time></trkpt><trkpt lat="43.856726740907206" lon="11.611020253306341"><ele>525.0</ele><time>2026-04-25T09:15:28.904Z</time></trkpt><trkpt lat="43.85665307889994" lon="11.61110037258346"><ele>525.0</ele><time>2026-04-25T09:15:29.904Z</time></trkpt><trkpt lat="43.856559469007415" lon="11.611204418249454"><ele>525.0</ele><time>2026-04-25T09:15:30.904Z</time></trkpt><trkpt lat="43.85644833047631" lon="11.611283604992279"><ele>531.0</ele><time>2026-04-25T09:15:31.904Z</time></trkpt><trkpt lat="43.8563365029876" lon="11.611365829993566"><ele>537.0</ele><time>2026-04-25T09:15:32.904Z</time></trkpt><trkpt lat="43.856228817220256" lon="11.61144088461811"><ele>543.0</ele><time>2026-04-25T09:15:33.904Z</time></trkpt><trkpt lat="43.85612956245016" lon="11.611485943893646"><ele>549.0</ele><time>2026-04-25T09:15:34.904Z</time></trkpt><trkpt lat="43.85602009752203" lon="11.61154205022588"><ele>547.0</ele><time>2026-04-25T09:15:35.904Z</time></trkpt><trkpt lat="43.855915516506904" lon="11.61159051053773"><ele>545.0</ele><time>2026-04-25T09:15:36.904Z</time></trkpt><trkpt lat="43.85580067692653" lon="11.611638009152019"><ele>543.0</ele><time>2026-04-25T09:15:37.904Z</time></trkpt><trkpt lat="43.85569494415054" lon="11.611672466088319"><ele>541.0</ele><time>2026-04-25T09:15:38.904Z</time></trkpt><trkpt lat="43.855592432478424" lon="11.611719852756515"><ele>539.0</ele><time>2026-04-25T09:15:39.904Z</time></trkpt><trkpt lat="43.85548339618402" lon="11.611774264705463"><ele>539.0</ele><time>2026-04-25T09:15:40.904Z</time></trkpt><trkpt lat="43.85536317142102" lon="11.611811178076138"><ele>539.0</ele><time>2026-04-25T09:15:41.904Z</time></trkpt><trkpt lat="43.85524000427328" lon="11.611885858865794"><ele>539.0</ele><time>2026-04-25T09:15:42.904Z</time></trkpt><trkpt lat="43.85512523045872" lon="11.611995799394641"><ele>539.0</ele><time>2026-04-25T09:15:43.904Z</time></trkpt><trkpt lat="43.8550213628259" lon="11.612111280351172"><ele>539.25</ele><time>2026-04-25T09:15:44.904Z</time></trkpt><trkpt lat="43.85492804038287" lon="11.612236131119921"><ele>539.5</ele><time>2026-04-25T09:15:45.904Z</time></trkpt><trkpt lat="43.85481504291424" lon="11.612323003829232"><ele>539.75</ele><time>2026-04-25T09:15:46.904Z</time></trkpt><trkpt lat="43.85469819335542" lon="11.612394985556069"><ele>540.0</ele><time>2026-04-25T09:15:47.904Z</time></trkpt><trkpt lat="43.85457464707658" lon="11.61246680748936"><ele>540.0</ele><time>2026-04-25T09:15:48.904Z</time></trkpt><trkpt lat="43.854465709468826" lon="11.612522393923687"><ele>540.0</ele><time>2026-04-25T09:15:49.904Z</time></trkpt><trkpt lat="43.854362957454605" lon="11.61259557676193"><ele>540.0</ele><time>2026-04-25T09:15:50.904Z</time></trkpt><trkpt lat="43.8542665867043" lon="11.61267877183097"><ele>540.0</ele><time>2026-04-25T09:15:51.904Z</time></trkpt><trkpt lat="43.85418037138955" lon="11.612763063892189"><ele>541.4</ele><time>2026-04-25T09:15:52.904Z</time></trkpt><trkpt lat="43.8541074162612" lon="11.61283464634267"><ele>542.8</ele><time>2026-04-25T09:15:53.904Z</time></trkpt><trkpt lat="43.85404014033959" lon="11.612887251449264"><ele>544.2</ele><time>2026-04-25T09:15:54.904Z</time></trkpt><trkpt lat="43.85394090422391" lon="11.61288962196147"><ele>545.6</ele><time>2026-04-25T09:15:55.904Z</time></trkpt><trkpt lat="43.8538436903528" lon="11.612855807644966"><ele>547.0</ele><time>2026-04-25T09:15:56.904Z</time></trkpt><trkpt lat="43.853737025270284" lon="11.61281231535152"><ele>544.6</ele><time>2026-04-25T09:15:57.904Z</time></trkpt><trkpt lat="43.8536360780981" lon="11.6127727273199"><ele>542.2</ele><time>2026-04-25T09:15:58.904Z</time></trkpt><trkpt lat="43.85355039033274" lon="11.612719258900313"><ele>539.8</ele><time>2026-04-25T09:15:59.903Z</time></trkpt><trkpt lat="43.85348270964601" lon="11.61263211665909"><ele>537.4</ele><time>2026-04-25T09:16:00.903Z</time></trkpt><trkpt lat="43.85343723738574" lon="11.612530541568754"><ele>535.0</ele><time>2026-04-25T09:16:01.903Z</time></trkpt><trkpt lat="43.8534069841092" lon="11.612412041843394"><ele>535.0</ele><time>2026-04-25T09:16:02.903Z</time></trkpt><trkpt lat="43.853400071564494" lon="11.612277763305713"><ele>535.0</ele><time>2026-04-25T09:16:03.903Z</time></trkpt><trkpt lat="43.853408572292665" lon="11.612111625196247"><ele>535.0</ele><time>2026-04-25T09:16:04.903Z</time></trkpt><trkpt lat="43.85343675008059" lon="11.61196435154631"><ele>535.0</ele><time>2026-04-25T09:16:05.903Z</time></trkpt><trkpt lat="43.853496146475294" lon="11.61180394510787"><ele>530.2</ele><time>2026-04-25T09:16:06.903Z</time></trkpt><trkpt lat="43.8535717280667" lon="11.611648185029114"><ele>525.4</ele><time>2026-04-25T09:16:07.903Z</time></trkpt><trkpt lat="43.85361411594044" lon="11.611519042212755"><ele>520.6</ele><time>2026-04-25T09:16:08.903Z</time></trkpt><trkpt lat="43.85361113622677" lon="11.61137977085061"><ele>515.8</ele><time>2026-04-25T09:16:09.903Z</time></trkpt><trkpt lat="43.85357464456447" lon="11.611251548945505"><ele>511.0</ele><time>2026-04-25T09:16:10.903Z</time></trkpt><trkpt lat="43.85351391105527" lon="11.611120281132015"><ele>515.6</ele><time>2026-04-25T09:16:11.903Z</time></trkpt><trkpt lat="43.853403336644874" lon="11.611023486456721"><ele>520.2</ele><time>2026-04-25T09:16:12.903Z</time></trkpt><trkpt lat="43.85331104791137" lon="11.610937527723861"><ele>524.8</ele><time>2026-04-25T09:16:13.903Z</time></trkpt><trkpt lat="43.853239363369354" lon="11.61086186091383"><ele>529.4</ele><time>2026-04-25T09:16:14.903Z</time></trkpt><trkpt lat="43.853183019151125" lon="11.6107929518262"><ele>534.0</ele><time>2026-04-25T09:16:15.903Z</time></trkpt><trkpt lat="43.85315174906885" lon="11.6106237423883"><ele>534.0</ele><time>2026-04-25T09:16:17.903Z</time></trkpt><trkpt lat="43.85316187311723" lon="11.61052428731816"><ele>534.0</ele><time>2026-04-25T09:16:18.903Z</time></trkpt><trkpt lat="43.85322274131314" lon="11.610437802548615"><ele>534.0</ele><time>2026-04-25T09:16:19.903Z</time></trkpt><trkpt lat="43.853302390917115" lon="11.610375859784684"><ele>534.0</ele><time>2026-04-25T09:16:20.903Z</time></trkpt><trkpt lat="43.853395425628754" lon="11.610341250837514"><ele>534.0</ele><time>2026-04-25T09:16:21.903Z</time></trkpt><trkpt lat="43.853501119971774" lon="11.61028955057385"><ele>528.5</ele><time>2026-04-25T09:16:22.903Z</time></trkpt><trkpt lat="43.85362329076641" lon="11.610217160892866"><ele>523.0</ele><time>2026-04-25T09:16:23.903Z</time></trkpt><trkpt lat="43.853729404715374" lon="11.610123551491311"><ele>517.5</ele><time>2026-04-25T09:16:24.903Z</time></trkpt><trkpt lat="43.853807652643454" lon="11.610002155188772"><ele>512.0</ele><time>2026-04-25T09:16:25.903Z</time></trkpt><trkpt lat="43.853863625466175" lon="11.609856007124915"><ele>512.0</ele><time>2026-04-25T09:16:26.903Z</time></trkpt><trkpt lat="43.85390554677945" lon="11.609708413321115"><ele>512.0</ele><time>2026-04-25T09:16:27.903Z</time></trkpt><trkpt lat="43.85394837390957" lon="11.609566211474133"><ele>512.0</ele><time>2026-04-25T09:16:28.903Z</time></trkpt><trkpt lat="43.8540028752028" lon="11.609426775844499"><ele>512.0</ele><time>2026-04-25T09:16:29.903Z</time></trkpt><trkpt lat="43.85409394211896" lon="11.609350997983693"><ele>512.0</ele><time>2026-04-25T09:16:30.903Z</time></trkpt><trkpt lat="43.8541598517633" lon="11.609233410322956"><ele>515.4</ele><time>2026-04-25T09:16:31.903Z</time></trkpt><trkpt lat="43.85423587064885" lon="11.609143384496702"><ele>518.8000000000001</ele><time>2026-04-25T09:16:32.903Z</time></trkpt><trkpt lat="43.85428319373008" lon="11.609030905105199"><ele>522.2</ele><time>2026-04-25T09:16:33.903Z</time></trkpt><trkpt lat="43.854293372461534" lon="11.608880422185297"><ele>525.6</ele><time>2026-04-25T09:16:34.903Z</time></trkpt><trkpt lat="43.85430952047192" lon="11.608728320092744"><ele>529.0</ele><time>2026-04-25T09:16:35.903Z</time></trkpt><trkpt lat="43.85428563116021" lon="11.608561649526264"><ele>531.6</ele><time>2026-04-25T09:16:36.903Z</time></trkpt><trkpt lat="43.85425938768873" lon="11.608420272931129"><ele>534.2</ele><time>2026-04-25T09:16:37.903Z</time></trkpt><trkpt lat="43.85423629477916" lon="11.6082776222149"><ele>536.8000000000001</ele><time>2026-04-25T09:16:38.903Z</time></trkpt><trkpt lat="43.85422514287709" lon="11.608143064646745"><ele>539.4</ele><time>2026-04-25T09:16:39.903Z</time></trkpt><trkpt lat="43.854248696206575" lon="11.608009260542145"><ele>542.0</ele><time>2026-04-25T09:16:40.903Z</time></trkpt><trkpt lat="43.85429569978926" lon="11.607880172722508"><ele>541.6</ele><time>2026-04-25T09:16:41.903Z</time></trkpt><trkpt lat="43.85431681259151" lon="11.607770254111495"><ele>541.2</ele><time>2026-04-25T09:16:42.902Z</time></trkpt><trkpt lat="43.85430187469605" lon="11.607634854526504"><ele>540.8</ele><time>2026-04-25T09:16:43.902Z</time></trkpt><trkpt lat="43.854285806157904" lon="11.607499113123762"><ele>540.4</ele><time>2026-04-25T09:16:44.903Z</time></trkpt><trkpt lat="43.85426017355722" lon="11.607374960336472"><ele>540.0</ele><time>2026-04-25T09:16:45.903Z</time></trkpt><trkpt lat="43.85422731362584" lon="11.60727396954182"><ele>540.0</ele><time>2026-04-25T09:16:46.903Z</time></trkpt><trkpt lat="43.85418286759588" lon="11.607186200974837"><ele>540.0</ele><time>2026-04-25T09:16:47.902Z</time></trkpt><trkpt lat="43.854156539155504" lon="11.60709840811293"><ele>540.0</ele><time>2026-04-25T09:16:48.902Z</time></trkpt><trkpt lat="43.8541242569332" lon="11.607014157027457"><ele>540.0</ele><time>2026-04-25T09:16:49.902Z</time></trkpt><trkpt lat="43.854135758802535" lon="11.606919229870972"><ele>540.0</ele><time>2026-04-25T09:16:50.902Z</time></trkpt><trkpt lat="43.854192926539234" lon="11.606840019184219"><ele>540.0</ele><time>2026-04-25T09:16:51.902Z</time></trkpt><trkpt lat="43.85425520089886" lon="11.606776614291384"><ele>540.0</ele><time>2026-04-25T09:16:52.902Z</time></trkpt><trkpt lat="43.85433773995622" lon="11.606744715593619"><ele>537.0</ele><time>2026-04-25T09:16:53.902Z</time></trkpt><trkpt lat="43.85444042120161" lon="11.60673201974466"><ele>534.0</ele><time>2026-04-25T09:16:54.902Z</time></trkpt><trkpt lat="43.85455435120179" lon="11.606728231032601"><ele>531.0</ele><time>2026-04-25T09:16:55.902Z</time></trkpt><trkpt lat="43.85465711332977" lon="11.606733427235405"><ele>528.0</ele><time>2026-04-25T09:16:56.902Z</time></trkpt><trkpt lat="43.85474611419626" lon="11.606714808765062"><ele>525.0</ele><time>2026-04-25T09:16:57.902Z</time></trkpt><trkpt lat="43.854827916788246" lon="11.606681598168487"><ele>525.0</ele><time>2026-04-25T09:16:58.902Z</time></trkpt><trkpt lat="43.854906161164635" lon="11.606622339971802"><ele>525.0</ele><time>2026-04-25T09:16:59.902Z</time></trkpt><trkpt lat="43.8549859246718" lon="11.606562134535979"><ele>525.0</ele><time>2026-04-25T09:17:00.902Z</time></trkpt><trkpt lat="43.85507813850009" lon="11.606551139615766"><ele>525.0</ele><time>2026-04-25T09:17:01.902Z</time></trkpt><trkpt lat="43.85516474180479" lon="11.606555862809874"><ele>525.0</ele><time>2026-04-25T09:17:02.902Z</time></trkpt><trkpt lat="43.85525079017743" lon="11.606545298202304"><ele>525.0</ele><time>2026-04-25T09:17:03.902Z</time></trkpt><trkpt lat="43.85532339631539" lon="11.606520841845025"><ele>523.0</ele><time>2026-04-25T09:17:04.902Z</time></trkpt><trkpt lat="43.85538988056258" lon="11.606445791062177"><ele>521.0</ele><time>2026-04-25T09:17:05.902Z</time></trkpt><trkpt lat="43.85546373608853" lon="11.606345825133292"><ele>519.0</ele><time>2026-04-25T09:17:06.902Z</time></trkpt><trkpt lat="43.855525624537584" lon="11.60623162745494"><ele>517.0</ele><time>2026-04-25T09:17:07.902Z</time></trkpt><trkpt lat="43.85558162750519" lon="11.606104858376488"><ele>515.0</ele><time>2026-04-25T09:17:08.902Z</time></trkpt><trkpt lat="43.855625451164755" lon="11.605952407927298"><ele>515.0</ele><time>2026-04-25T09:17:09.902Z</time></trkpt><trkpt lat="43.85566591181262" lon="11.605804600673709"><ele>515.0</ele><time>2026-04-25T09:17:10.902Z</time></trkpt><trkpt lat="43.855719348418354" lon="11.605658455276565"><ele>515.0</ele><time>2026-04-25T09:17:11.902Z</time></trkpt><trkpt lat="43.85576089071653" lon="11.605518504112482"><ele>515.0</ele><time>2026-04-25T09:17:12.902Z</time></trkpt><trkpt lat="43.85579953279557" lon="11.605385817464146"><ele>515.0</ele><time>2026-04-25T09:17:13.902Z</time></trkpt><trkpt lat="43.8558290313738" lon="11.605228372059225"><ele>517.4</ele><time>2026-04-25T09:17:14.902Z</time></trkpt><trkpt lat="43.85587956662646" lon="11.605100587411972"><ele>519.8</ele><time>2026-04-25T09:17:15.902Z</time></trkpt><trkpt lat="43.855912487945545" lon="11.60497914790233"><ele>522.2</ele><time>2026-04-25T09:17:16.902Z</time></trkpt><trkpt lat="43.85592305450006" lon="11.604820247623248"><ele>524.6</ele><time>2026-04-25T09:17:17.902Z</time></trkpt><trkpt lat="43.855925092203165" lon="11.60470282983225"><ele>527.0</ele><time>2026-04-25T09:17:18.902Z</time></trkpt><trkpt lat="43.85593828288421" lon="11.604585979321953"><ele>523.5</ele><time>2026-04-25T09:17:19.902Z</time></trkpt><trkpt lat="43.855977237067094" lon="11.604487457715924"><ele>520.0</ele><time>2026-04-25T09:17:20.902Z</time></trkpt><trkpt lat="43.85600658500602" lon="11.60437883778081"><ele>516.5</ele><time>2026-04-25T09:17:21.902Z</time></trkpt><trkpt lat="43.856272149249854" lon="11.604356138691639"><ele>513.0</ele><time>2026-04-25T09:17:23.902Z</time></trkpt><trkpt lat="43.856374427314" lon="11.604314813814431"><ele>513.0</ele><time>2026-04-25T09:17:24.902Z</time></trkpt><trkpt lat="43.85648005825481" lon="11.60426608283856"><ele>513.0</ele><time>2026-04-25T09:17:25.902Z</time></trkpt><trkpt lat="43.85657095683662" lon="11.604203139163745"><ele>513.0</ele><time>2026-04-25T09:17:26.902Z</time></trkpt><trkpt lat="43.85664505542486" lon="11.604120716958953"><ele>513.0</ele><time>2026-04-25T09:17:27.902Z</time></trkpt><trkpt lat="43.85671158226014" lon="11.60401364758806"><ele>513.0</ele><time>2026-04-25T09:17:28.902Z</time></trkpt><trkpt lat="43.856751778812026" lon="11.603889234634897"><ele>513.0</ele><time>2026-04-25T09:17:29.902Z</time></trkpt><trkpt lat="43.85677635146517" lon="11.603746138122032"><ele>513.0</ele><time>2026-04-25T09:17:30.902Z</time></trkpt><trkpt lat="43.85677834983943" lon="11.603605445523556"><ele>513.0</ele><time>2026-04-25T09:17:31.902Z</time></trkpt><trkpt lat="43.8567765553566" lon="11.603487768109192"><ele>513.0</ele><time>2026-04-25T09:17:32.902Z</time></trkpt><trkpt lat="43.85678731513922" lon="11.603373601316221"><ele>513.0</ele><time>2026-04-25T09:17:33.902Z</time></trkpt><trkpt lat="43.856802045812785" lon="11.603269905557868"><ele>511.79999999999995</ele><time>2026-04-25T09:17:34.902Z</time></trkpt><trkpt lat="43.856826685596516" lon="11.603176703655292"><ele>510.59999999999997</ele><time>2026-04-25T09:17:35.902Z</time></trkpt><trkpt lat="43.85688402267953" lon="11.603074200643235"><ele>509.40000000000003</ele><time>2026-04-25T09:17:36.901Z</time></trkpt><trkpt lat="43.856956166570704" lon="11.602969571872302"><ele>508.20000000000005</ele><time>2026-04-25T09:17:37.901Z</time></trkpt><trkpt lat="43.85704993196349" lon="11.602874146967844"><ele>507.0</ele><time>2026-04-25T09:17:38.901Z</time></trkpt><trkpt lat="43.857150205192134" lon="11.60277379143576"><ele>510.75</ele><time>2026-04-25T09:17:39.901Z</time></trkpt><trkpt lat="43.85726488071873" lon="11.602667074676866"><ele>514.5</ele><time>2026-04-25T09:17:40.901Z</time></trkpt><trkpt lat="43.85737146596834" lon="11.602551723720929"><ele>518.25</ele><time>2026-04-25T09:17:41.901Z</time></trkpt><trkpt lat="43.857462326841805" lon="11.602437442576797"><ele>522.0</ele><time>2026-04-25T09:17:42.901Z</time></trkpt><trkpt lat="43.85754037628271" lon="11.602336291965742"><ele>522.0</ele><time>2026-04-25T09:17:43.901Z</time></trkpt><trkpt lat="43.85761217629468" lon="11.602243626670736"><ele>522.0</ele><time>2026-04-25T09:17:44.901Z</time></trkpt><trkpt lat="43.85770794413179" lon="11.602168847526356"><ele>522.0</ele><time>2026-04-25T09:17:45.901Z</time></trkpt><trkpt lat="43.85781260471356" lon="11.602097305541692"><ele>522.0</ele><time>2026-04-25T09:17:46.901Z</time></trkpt><trkpt lat="43.857924676731855" lon="11.602042428242308"><ele>522.0</ele><time>2026-04-25T09:17:47.901Z</time></trkpt><trkpt lat="43.858030394059874" lon="11.601989740219093"><ele>521.8000000000001</ele><time>2026-04-25T09:17:48.901Z</time></trkpt><trkpt lat="43.858122300824135" lon="11.601940091781008"><ele>521.6</ele><time>2026-04-25T09:17:49.901Z</time></trkpt><trkpt lat="43.85819822407179" lon="11.601876614328509"><ele>521.4000000000001</ele><time>2026-04-25T09:17:50.901Z</time></trkpt><trkpt lat="43.85825850874863" lon="11.601780009684175"><ele>521.2</ele><time>2026-04-25T09:17:51.901Z</time></trkpt><trkpt lat="43.85829478714044" lon="11.601654795545265"><ele>521.0</ele><time>2026-04-25T09:17:52.901Z</time></trkpt><trkpt lat="43.858326870146065" lon="11.601520886040783"><ele>521.0</ele><time>2026-04-25T09:17:53.901Z</time></trkpt><trkpt lat="43.85834363718848" lon="11.601352636920161"><ele>521.0</ele><time>2026-04-25T09:17:54.901Z</time></trkpt><trkpt lat="43.858387647398814" lon="11.601201949164786"><ele>521.0</ele><time>2026-04-25T09:17:55.901Z</time></trkpt><trkpt lat="43.85844732216879" lon="11.601059928769505"><ele>521.0</ele><time>2026-04-25T09:17:56.901Z</time></trkpt><trkpt lat="43.85850735396446" lon="11.600930937098434"><ele>516.4</ele><time>2026-04-25T09:17:57.901Z</time></trkpt><trkpt lat="43.858568037421804" lon="11.600803205006846"><ele>511.8</ele><time>2026-04-25T09:17:58.901Z</time></trkpt><trkpt lat="43.858619578500786" lon="11.600679558917165"><ele>507.19999999999993</ele><time>2026-04-25T09:17:59.901Z</time></trkpt><trkpt lat="43.85867257570184" lon="11.60055674322658"><ele>502.59999999999997</ele><time>2026-04-25T09:18:00.901Z</time></trkpt><trkpt lat="43.85873528143769" lon="11.600453316253207"><ele>498.0</ele><time>2026-04-25T09:18:01.901Z</time></trkpt><trkpt lat="43.858814399451674" lon="11.600345628016916"><ele>501.0</ele><time>2026-04-25T09:18:02.901Z</time></trkpt><trkpt lat="43.85888288198001" lon="11.60021890082269"><ele>504.0</ele><time>2026-04-25T09:18:03.901Z</time></trkpt><trkpt lat="43.858929769858996" lon="11.60008948690974"><ele>507.0</ele><time>2026-04-25T09:18:04.901Z</time></trkpt><trkpt lat="43.85894645620508" lon="11.599940977023717"><ele>510.0</ele><time>2026-04-25T09:18:05.901Z</time></trkpt><trkpt lat="43.85892712802257" lon="11.599768019862045"><ele>510.0</ele><time>2026-04-25T09:18:06.901Z</time></trkpt><trkpt lat="43.85890128733259" lon="11.599612134769066"><ele>510.0</ele><time>2026-04-25T09:18:07.901Z</time></trkpt><trkpt lat="43.858883258049694" lon="11.599454227487126"><ele>510.0</ele><time>2026-04-25T09:18:08.901Z</time></trkpt><trkpt lat="43.85887222797802" lon="11.599292298795577"><ele>510.0</ele><time>2026-04-25T09:18:09.901Z</time></trkpt><trkpt lat="43.85887308906149" lon="11.59913415478591"><ele>510.4</ele><time>2026-04-25T09:18:10.901Z</time></trkpt><trkpt lat="43.858894469217965" lon="11.598990822244284"><ele>510.8</ele><time>2026-04-25T09:18:11.901Z</time></trkpt><trkpt lat="43.85891472584243" lon="11.598857383909733"><ele>511.20000000000005</ele><time>2026-04-25T09:18:12.901Z</time></trkpt><trkpt lat="43.85893625208957" lon="11.598737565267417"><ele>511.6</ele><time>2026-04-25T09:18:13.901Z</time></trkpt><trkpt lat="43.8589761981678" lon="11.598642905616316"><ele>512.0</ele><time>2026-04-25T09:18:14.901Z</time></trkpt><trkpt lat="43.85904387103075" lon="11.598547433530957"><ele>514.25</ele><time>2026-04-25T09:18:15.901Z</time></trkpt><trkpt lat="43.85912948245917" lon="11.598466748575234"><ele>516.5</ele><time>2026-04-25T09:18:16.901Z</time></trkpt><trkpt lat="43.85920659018611" lon="11.598360709990104"><ele>518.75</ele><time>2026-04-25T09:18:17.901Z</time></trkpt><trkpt lat="43.85927494901603" lon="11.598223721822109"><ele>521.0</ele><time>2026-04-25T09:18:18.901Z</time></trkpt><trkpt lat="43.8593260002839" lon="11.598069447807223"><ele>516.75</ele><time>2026-04-25T09:18:19.901Z</time></trkpt><trkpt lat="43.859361272375374" lon="11.59790265029507"><ele>512.5</ele><time>2026-04-25T09:18:20.901Z</time></trkpt><trkpt lat="43.859401109667246" lon="11.59775534109038"><ele>508.25</ele><time>2026-04-25T09:18:21.901Z</time></trkpt><trkpt lat="43.85946368858327" lon="11.5976094574558"><ele>504.0</ele><time>2026-04-25T09:18:22.901Z</time></trkpt><trkpt lat="43.85956410041178" lon="11.59748579700745"><ele>504.0</ele><time>2026-04-25T09:18:23.901Z</time></trkpt><trkpt lat="43.85966133183031" lon="11.597389069824585"><ele>504.0</ele><time>2026-04-25T09:18:24.901Z</time></trkpt><trkpt lat="43.859747600849076" lon="11.597290948561206"><ele>504.0</ele><time>2026-04-25T09:18:25.901Z</time></trkpt><trkpt lat="43.859823338263176" lon="11.597179961168855"><ele>504.0</ele><time>2026-04-25T09:18:26.901Z</time></trkpt><trkpt lat="43.859901169006534" lon="11.597060078178833"><ele>506.5</ele><time>2026-04-25T09:18:27.901Z</time></trkpt><trkpt lat="43.85996842306887" lon="11.596948559600468"><ele>509.0</ele><time>2026-04-25T09:18:28.901Z</time></trkpt><trkpt lat="43.8600187672458" lon="11.596810825307884"><ele>511.5</ele><time>2026-04-25T09:18:29.901Z</time></trkpt><trkpt lat="43.860045339347785" lon="11.596645760437045"><ele>514.0</ele><time>2026-04-25T09:18:30.901Z</time></trkpt><trkpt lat="43.86005514011377" lon="11.596489191613019"><ele>514.0</ele><time>2026-04-25T09:18:31.901Z</time></trkpt><trkpt lat="43.860066433631545" lon="11.596342792308619"><ele>514.0</ele><time>2026-04-25T09:18:32.901Z</time></trkpt><trkpt lat="43.860071231912784" lon="11.596176722465664"><ele>514.0</ele><time>2026-04-25T09:18:33.901Z</time></trkpt><trkpt lat="43.86006865872654" lon="11.596003279141444"><ele>514.0</ele><time>2026-04-25T09:18:34.901Z</time></trkpt><trkpt lat="43.86007894061628" lon="11.595840325413224"><ele>514.0</ele><time>2026-04-25T09:18:35.901Z</time></trkpt><trkpt lat="43.860085706465846" lon="11.595645980767046"><ele>514.0</ele><time>2026-04-25T09:18:36.9Z</time></trkpt><trkpt lat="43.86009488421243" lon="11.595477535401127"><ele>514.0</ele><time>2026-04-25T09:18:37.9Z</time></trkpt><trkpt lat="43.860098287611706" lon="11.595312965597575"><ele>514.0</ele><time>2026-04-25T09:18:38.9Z</time></trkpt><trkpt lat="43.86009747003811" lon="11.595150181000857"><ele>514.0</ele><time>2026-04-25T09:18:39.9Z</time></trkpt><trkpt lat="43.860093533894215" lon="11.594987293269568"><ele>514.0</ele><time>2026-04-25T09:18:40.9Z</time></trkpt><trkpt lat="43.86007415580469" lon="11.594826626433836"><ele>514.0</ele><time>2026-04-25T09:18:41.901Z</time></trkpt><trkpt lat="43.86003968014944" lon="11.594676817506585"><ele>514.0</ele><time>2026-04-25T09:18:42.901Z</time></trkpt><trkpt lat="43.85999471560783" lon="11.594547677461978"><ele>513.3333333333334</ele><time>2026-04-25T09:18:43.901Z</time></trkpt><trkpt lat="43.859948958126665" lon="11.594426721465481"><ele>512.6666666666667</ele><time>2026-04-25T09:18:44.901Z</time></trkpt><trkpt lat="43.85990915902882" lon="11.594328562113745"><ele>512.0</ele><time>2026-04-25T09:18:45.901Z</time></trkpt><trkpt lat="43.85989376199178" lon="11.594222863119361"><ele>511.33333333333337</ele><time>2026-04-25T09:18:46.901Z</time></trkpt><trkpt lat="43.85990938552473" lon="11.594108415311466"><ele>510.6666666666667</ele><time>2026-04-25T09:18:47.901Z</time></trkpt><trkpt lat="43.859958824444966" lon="11.593995150556152"><ele>510.0</ele><time>2026-04-25T09:18:48.901Z</time></trkpt><trkpt lat="43.86002848505018" lon="11.593888446798408"><ele>502.75</ele><time>2026-04-25T09:18:49.901Z</time></trkpt><trkpt lat="43.86012090211658" lon="11.593790525629712"><ele>495.5</ele><time>2026-04-25T09:18:50.901Z</time></trkpt><trkpt lat="43.86021156344283" lon="11.593702510131756"><ele>488.25</ele><time>2026-04-25T09:18:51.901Z</time></trkpt><trkpt lat="43.860308263055074" lon="11.593619851205908"><ele>481.0</ele><time>2026-04-25T09:18:52.901Z</time></trkpt><trkpt lat="43.86040403958441" lon="11.593534062020117"><ele>481.0</ele><time>2026-04-25T09:18:53.901Z</time></trkpt><trkpt lat="43.86048458918936" lon="11.593436369409702"><ele>481.0</ele><time>2026-04-25T09:18:54.901Z</time></trkpt><trkpt lat="43.86055332462696" lon="11.593323003649372"><ele>481.0</ele><time>2026-04-25T09:18:55.901Z</time></trkpt><trkpt lat="43.86061369349709" lon="11.593166302231161"><ele>481.0</ele><time>2026-04-25T09:18:56.901Z</time></trkpt><trkpt lat="43.86064257010625" lon="11.59298196655899"><ele>482.5</ele><time>2026-04-25T09:18:57.901Z</time></trkpt><trkpt lat="43.860660603449965" lon="11.592778378168324"><ele>484.0</ele><time>2026-04-25T09:18:58.901Z</time></trkpt><trkpt lat="43.86066798212661" lon="11.592577737756788"><ele>485.5</ele><time>2026-04-25T09:18:59.901Z</time></trkpt><trkpt lat="43.86068440580829" lon="11.592412901260186"><ele>487.0</ele><time>2026-04-25T09:19:00.901Z</time></trkpt><trkpt lat="43.86070485035084" lon="11.592239923156532"><ele>487.0</ele><time>2026-04-25T09:19:01.901Z</time></trkpt><trkpt lat="43.86072015685945" lon="11.592066391996552"><ele>487.0</ele><time>2026-04-25T09:19:02.901Z</time></trkpt><trkpt lat="43.86073015774661" lon="11.591902260399424"><ele>487.0</ele><time>2026-04-25T09:19:03.901Z</time></trkpt><trkpt lat="43.860763930856855" lon="11.591720348332414"><ele>487.0</ele><time>2026-04-25T09:19:04.901Z</time></trkpt><trkpt lat="43.86076321344307" lon="11.59155817179021"><ele>486.5</ele><time>2026-04-25T09:19:05.901Z</time></trkpt><trkpt lat="43.86074956239215" lon="11.59139945009836"><ele>486.0</ele><time>2026-04-25T09:19:06.901Z</time></trkpt><trkpt lat="43.86071764121712" lon="11.591247495739003"><ele>485.5</ele><time>2026-04-25T09:19:07.901Z</time></trkpt><trkpt lat="43.86067936791206" lon="11.591086900604214"><ele>485.0</ele><time>2026-04-25T09:19:08.901Z</time></trkpt><trkpt lat="43.860650741859835" lon="11.590917377549601"><ele>483.75</ele><time>2026-04-25T09:19:09.9Z</time></trkpt><trkpt lat="43.860612293888174" lon="11.590760405550581"><ele>482.5</ele><time>2026-04-25T09:19:10.9Z</time></trkpt><trkpt lat="43.860579324685474" lon="11.590596798970825"><ele>481.25</ele><time>2026-04-25T09:19:11.9Z</time></trkpt><trkpt lat="43.860547532141275" lon="11.59043541169315"><ele>480.0</ele><time>2026-04-25T09:19:12.9Z</time></trkpt><trkpt lat="43.86053285520302" lon="11.590276987770551"><ele>479.0</ele><time>2026-04-25T09:19:13.9Z</time></trkpt><trkpt lat="43.86054100121983" lon="11.590117652547564"><ele>478.0</ele><time>2026-04-25T09:19:14.9Z</time></trkpt><trkpt lat="43.86056387666358" lon="11.589962299237568"><ele>477.0</ele><time>2026-04-25T09:19:15.9Z</time></trkpt><trkpt lat="43.86058361340471" lon="11.589809978808132"><ele>476.0</ele><time>2026-04-25T09:19:16.9Z</time></trkpt><trkpt lat="43.860611396670286" lon="11.589666255223676"><ele>475.0</ele><time>2026-04-25T09:19:17.9Z</time></trkpt><trkpt lat="43.86064007433064" lon="11.589546686060709"><ele>477.1666666666667</ele><time>2026-04-25T09:19:18.9Z</time></trkpt><trkpt lat="43.860675150419254" lon="11.589445826253458"><ele>479.33333333333337</ele><time>2026-04-25T09:19:19.9Z</time></trkpt><trkpt lat="43.86073361890827" lon="11.589363994194406"><ele>481.5</ele><time>2026-04-25T09:19:20.9Z</time></trkpt><trkpt lat="43.86080787950913" lon="11.589324085366684"><ele>483.66666666666663</ele><time>2026-04-25T09:19:21.9Z</time></trkpt><trkpt lat="43.860889902132534" lon="11.589311247462629"><ele>485.8333333333333</ele><time>2026-04-25T09:19:22.9Z</time></trkpt><trkpt lat="43.860978491589165" lon="11.589311505474676"><ele>488.0</ele><time>2026-04-25T09:19:23.9Z</time></trkpt><trkpt lat="43.86106494019579" lon="11.589291603686819"><ele>480.4</ele><time>2026-04-25T09:19:24.9Z</time></trkpt><trkpt lat="43.861160345164905" lon="11.589256401355762"><ele>472.79999999999995</ele><time>2026-04-25T09:19:25.9Z</time></trkpt><trkpt lat="43.86123908642" lon="11.589203205617583"><ele>465.2</ele><time>2026-04-25T09:19:26.9Z</time></trkpt><trkpt lat="43.86130838368643" lon="11.589120508063566"><ele>457.6</ele><time>2026-04-25T09:19:27.9Z</time></trkpt><trkpt lat="43.86135958113589" lon="11.589005463077942"><ele>450.0</ele><time>2026-04-25T09:19:28.9Z</time></trkpt><trkpt lat="43.86139381850099" lon="11.588848378890807"><ele>451.5</ele><time>2026-04-25T09:19:29.9Z</time></trkpt><trkpt lat="43.86140425294847" lon="11.588674049333267"><ele>453.0</ele><time>2026-04-25T09:19:30.9Z</time></trkpt><trkpt lat="43.861409894221474" lon="11.588504722562098"><ele>454.5</ele><time>2026-04-25T09:19:31.9Z</time></trkpt><trkpt lat="43.861409477298274" lon="11.588327786322772"><ele>456.0</ele><time>2026-04-25T09:19:32.9Z</time></trkpt><trkpt lat="43.86141791353741" lon="11.588151132976522"><ele>456.0</ele><time>2026-04-25T09:19:33.9Z</time></trkpt><trkpt lat="43.86140936852508" lon="11.587976868414717"><ele>456.0</ele><time>2026-04-25T09:19:34.9Z</time></trkpt><trkpt lat="43.86141147778964" lon="11.587796328736578"><ele>456.0</ele><time>2026-04-25T09:19:35.9Z</time></trkpt><trkpt lat="43.86140089767745" lon="11.587625291430344"><ele>456.0</ele><time>2026-04-25T09:19:36.9Z</time></trkpt><trkpt lat="43.86140710239266" lon="11.587455058135577"><ele>456.0</ele><time>2026-04-25T09:19:37.9Z</time></trkpt><trkpt lat="43.86142946706628" lon="11.587289499300985"><ele>456.0</ele><time>2026-04-25T09:19:38.9Z</time></trkpt><trkpt lat="43.86147026021234" lon="11.587140516087722"><ele>456.0</ele><time>2026-04-25T09:19:39.9Z</time></trkpt><trkpt lat="43.861509750936115" lon="11.586995324704176"><ele>456.0</ele><time>2026-04-25T09:19:40.9Z</time></trkpt><trkpt lat="43.86155098471722" lon="11.586841075013805"><ele>456.25</ele><time>2026-04-25T09:19:41.9Z</time></trkpt><trkpt lat="43.861582436323474" lon="11.586697532458205"><ele>456.5</ele><time>2026-04-25T09:19:42.9Z</time></trkpt><trkpt lat="43.86160829656041" lon="11.586544474943144"><ele>456.75</ele><time>2026-04-25T09:19:43.9Z</time></trkpt><trkpt lat="43.861657661326284" lon="11.586397381394056"><ele>457.0</ele><time>2026-04-25T09:19:44.9Z</time></trkpt><trkpt lat="43.861692041633944" lon="11.586237091244412"><ele>456.5</ele><time>2026-04-25T09:19:45.9Z</time></trkpt><trkpt lat="43.86171682913204" lon="11.586080235160406"><ele>456.0</ele><time>2026-04-25T09:19:46.9Z</time></trkpt><trkpt lat="43.86174325965836" lon="11.58592443356013"><ele>455.5</ele><time>2026-04-25T09:19:47.9Z</time></trkpt><trkpt lat="43.86178710488709" lon="11.58577486576968"><ele>455.0</ele><time>2026-04-25T09:19:48.9Z</time></trkpt><trkpt lat="43.8617987308022" lon="11.58563389803283"><ele>455.0</ele><time>2026-04-25T09:19:49.9Z</time></trkpt><trkpt lat="43.86179691085193" lon="11.585498867849712"><ele>455.0</ele><time>2026-04-25T09:19:50.9Z</time></trkpt><trkpt lat="43.861778744701404" lon="11.585359176735352"><ele>455.0</ele><time>2026-04-25T09:19:51.9Z</time></trkpt><trkpt lat="43.86174034809658" lon="11.585239823252447"><ele>455.0</ele><time>2026-04-25T09:19:52.9Z</time></trkpt><trkpt lat="43.861695165692694" lon="11.585150871311347"><ele>455.0</ele><time>2026-04-25T09:19:53.9Z</time></trkpt><trkpt lat="43.86162226777536" lon="11.585082007992135"><ele>453.8</ele><time>2026-04-25T09:19:54.9Z</time></trkpt><trkpt lat="43.86153674711112" lon="11.585029978043096"><ele>452.6</ele><time>2026-04-25T09:19:55.9Z</time></trkpt><trkpt lat="43.86145550987363" lon="11.585003273820822"><ele>451.4</ele><time>2026-04-25T09:19:56.9Z</time></trkpt><trkpt lat="43.8613592339514" lon="11.585008841590211"><ele>450.2</ele><time>2026-04-25T09:19:57.9Z</time></trkpt><trkpt lat="43.86126972344853" lon="11.585064668136242"><ele>449.0</ele><time>2026-04-25T09:19:58.9Z</time></trkpt><trkpt lat="43.8611752835406" lon="11.585133582511215"><ele>449.0</ele><time>2026-04-25T09:19:59.9Z</time></trkpt><trkpt lat="43.86108288142608" lon="11.585227095497599"><ele>449.0</ele><time>2026-04-25T09:20:00.9Z</time></trkpt><trkpt lat="43.86099834944615" lon="11.58533287353697"><ele>449.0</ele><time>2026-04-25T09:20:01.9Z</time></trkpt><trkpt lat="43.86090937857204" lon="11.585434995791847"><ele>449.0</ele><time>2026-04-25T09:20:02.9Z</time></trkpt><trkpt lat="43.86082263614167" lon="11.585532088952995"><ele>449.79999999999995</ele><time>2026-04-25T09:20:03.9Z</time></trkpt><trkpt lat="43.860742431532294" lon="11.58561727956696"><ele>450.59999999999997</ele><time>2026-04-25T09:20:04.9Z</time></trkpt><trkpt lat="43.86065424664136" lon="11.585706347250303"><ele>451.4</ele><time>2026-04-25T09:20:05.9Z</time></trkpt><trkpt lat="43.860567526339786" lon="11.58576446075554"><ele>452.2</ele><time>2026-04-25T09:20:06.9Z</time></trkpt><trkpt lat="43.86044650918875" lon="11.585816683818518"><ele>453.0</ele><time>2026-04-25T09:20:07.9Z</time></trkpt><trkpt lat="43.860319063121246" lon="11.58581715666812"><ele>453.0</ele><time>2026-04-25T09:20:08.9Z</time></trkpt><trkpt lat="43.86020882962841" lon="11.585844586936789"><ele>452.99999999999994</ele><time>2026-04-25T09:20:09.899Z</time></trkpt><trkpt lat="43.86010422215282" lon="11.585867141565009"><ele>452.99999999999994</ele><time>2026-04-25T09:20:10.9Z</time></trkpt><trkpt lat="43.85999415478506" lon="11.585891082435387"><ele>453.0</ele><time>2026-04-25T09:20:11.901Z</time></trkpt><trkpt lat="43.859884435516236" lon="11.585913033104593"><ele>453.0</ele><time>2026-04-25T09:20:12.902Z</time></trkpt><trkpt lat="43.85978070429485" lon="11.585942939469069"><ele>449.75</ele><time>2026-04-25T09:20:13.904Z</time></trkpt><trkpt lat="43.85967128651846" lon="11.585951576017985"><ele>446.5</ele><time>2026-04-25T09:20:14.905Z</time></trkpt><trkpt lat="43.85955932892043" lon="11.585949976188772"><ele>443.25</ele><time>2026-04-25T09:20:15.906Z</time></trkpt><trkpt lat="43.859431179748064" lon="11.58595641085151"><ele>440.0</ele><time>2026-04-25T09:20:16.907Z</time></trkpt><trkpt lat="43.85929981158503" lon="11.585962795387847"><ele>440.0</ele><time>2026-04-25T09:20:17.908Z</time></trkpt><trkpt lat="43.85915438951258" lon="11.585964237416906"><ele>440.0</ele><time>2026-04-25T09:20:18.909Z</time></trkpt><trkpt lat="43.859022338777" lon="11.58595707247794"><ele>440.0</ele><time>2026-04-25T09:20:19.91Z</time></trkpt><trkpt lat="43.85889958517676" lon="11.585914104658093"><ele>440.0</ele><time>2026-04-25T09:20:20.911Z</time></trkpt><trkpt lat="43.858787894075775" lon="11.585806001993117"><ele>440.0</ele><time>2026-04-25T09:20:21.912Z</time></trkpt><trkpt lat="43.85867259556172" lon="11.585717254435178"><ele>440.0</ele><time>2026-04-25T09:20:22.912Z</time></trkpt><trkpt lat="43.858572893165935" lon="11.585613212035708"><ele>440.0</ele><time>2026-04-25T09:20:23.913Z</time></trkpt><trkpt lat="43.85847159237324" lon="11.58551415912504"><ele>440.0</ele><time>2026-04-25T09:20:24.914Z</time></trkpt><trkpt lat="43.85838389574548" lon="11.585402495100263"><ele>436.75</ele><time>2026-04-25T09:20:25.914Z</time></trkpt><trkpt lat="43.85828811010847" lon="11.585307159166303"><ele>433.5</ele><time>2026-04-25T09:20:26.915Z</time></trkpt><trkpt lat="43.85818515791725" lon="11.58522439647461"><ele>430.25</ele><time>2026-04-25T09:20:27.915Z</time></trkpt><trkpt lat="43.85807177566264" lon="11.585165089925088"><ele>427.0</ele><time>2026-04-25T09:20:28.916Z</time></trkpt><trkpt lat="43.85795141670894" lon="11.585153217934623"><ele>427.0</ele><time>2026-04-25T09:20:29.916Z</time></trkpt><trkpt lat="43.85781939961242" lon="11.585157237682331"><ele>427.0</ele><time>2026-04-25T09:20:30.917Z</time></trkpt><trkpt lat="43.85769688531047" lon="11.585173733369842"><ele>427.0</ele><time>2026-04-25T09:20:31.917Z</time></trkpt><trkpt lat="43.85758072133683" lon="11.5851933731271"><ele>427.0</ele><time>2026-04-25T09:20:32.918Z</time></trkpt><trkpt lat="43.857469014104225" lon="11.585255728957337"><ele>425.5</ele><time>2026-04-25T09:20:33.918Z</time></trkpt><trkpt lat="43.857363192684964" lon="11.58533337655483"><ele>424.0</ele><time>2026-04-25T09:20:34.918Z</time></trkpt><trkpt lat="43.85725783738054" lon="11.585441314030371"><ele>422.5</ele><time>2026-04-25T09:20:35.919Z</time></trkpt><trkpt lat="43.85715341082315" lon="11.585557791959104"><ele>421.0</ele><time>2026-04-25T09:20:36.919Z</time></trkpt><trkpt lat="43.85705454938507" lon="11.585668655973247"><ele>421.0</ele><time>2026-04-25T09:20:37.919Z</time></trkpt><trkpt lat="43.85696047346605" lon="11.585774453264529"><ele>421.0</ele><time>2026-04-25T09:20:38.919Z</time></trkpt><trkpt lat="43.85687056326454" lon="11.585880308084446"><ele>421.0</ele><time>2026-04-25T09:20:39.92Z</time></trkpt><trkpt lat="43.856777024520085" lon="11.58598261688962"><ele>421.0</ele><time>2026-04-25T09:20:40.92Z</time></trkpt><trkpt lat="43.85668167195579" lon="11.586086159481075"><ele>424.4</ele><time>2026-04-25T09:20:41.92Z</time></trkpt><trkpt lat="43.85658380902717" lon="11.586188255685173"><ele>427.8</ele><time>2026-04-25T09:20:42.92Z</time></trkpt><trkpt lat="43.85648554080446" lon="11.586270118794797"><ele>431.19999999999993</ele><time>2026-04-25T09:20:43.92Z</time></trkpt><trkpt lat="43.85640073131919" lon="11.586363672523028"><ele>434.59999999999997</ele><time>2026-04-25T09:20:44.921Z</time></trkpt><trkpt lat="43.85632907706474" lon="11.586427772448644"><ele>438.0</ele><time>2026-04-25T09:20:45.921Z</time></trkpt><trkpt lat="43.856252710398614" lon="11.586469558759463"><ele>438.0</ele><time>2026-04-25T09:20:46.921Z</time></trkpt><trkpt lat="43.856170650273604" lon="11.586489473069495"><ele>437.99999999999994</ele><time>2026-04-25T09:20:47.921Z</time></trkpt><trkpt lat="43.85608507093784" lon="11.586464381909842"><ele>437.99999999999994</ele><time>2026-04-25T09:20:48.921Z</time></trkpt><trkpt lat="43.85600485296379" lon="11.586405581431633"><ele>438.0</ele><time>2026-04-25T09:20:49.921Z</time></trkpt><trkpt lat="43.85592985945173" lon="11.58632430661445"><ele>438.0</ele><time>2026-04-25T09:20:50.922Z</time></trkpt><trkpt lat="43.855874015145396" lon="11.58621532781939"><ele>434.59999999999997</ele><time>2026-04-25T09:20:51.921Z</time></trkpt><trkpt lat="43.855844989260774" lon="11.586084357338395"><ele>431.19999999999993</ele><time>2026-04-25T09:20:52.921Z</time></trkpt><trkpt lat="43.85585224973116" lon="11.585944106740495"><ele>427.8</ele><time>2026-04-25T09:20:53.922Z</time></trkpt><trkpt lat="43.8558848719787" lon="11.585804692424356"><ele>424.4</ele><time>2026-04-25T09:20:54.921Z</time></trkpt><trkpt lat="43.855959401312944" lon="11.585703431560662"><ele>421.0</ele><time>2026-04-25T09:20:55.921Z</time></trkpt><trkpt lat="43.856054076035875" lon="11.585618803531883"><ele>421.0</ele><time>2026-04-25T09:20:56.922Z</time></trkpt><trkpt lat="43.856150124231064" lon="11.585492917895541"><ele>421.0</ele><time>2026-04-25T09:20:57.922Z</time></trkpt><trkpt lat="43.856274157135985" lon="11.585412770719696"><ele>421.0</ele><time>2026-04-25T09:20:58.922Z</time></trkpt><trkpt lat="43.856396273715106" lon="11.585321301439889"><ele>421.0</ele><time>2026-04-25T09:20:59.921Z</time></trkpt><trkpt lat="43.85650869627833" lon="11.58522096887138"><ele>421.0</ele><time>2026-04-25T09:21:00.921Z</time></trkpt><trkpt lat="43.85662811535043" lon="11.585126055061822"><ele>421.0</ele><time>2026-04-25T09:21:01.921Z</time></trkpt><trkpt lat="43.856756200430254" lon="11.585020847763225"><ele>421.0</ele><time>2026-04-25T09:21:02.921Z</time></trkpt><trkpt lat="43.85687517921938" lon="11.584914158710797"><ele>421.0</ele><time>2026-04-25T09:21:03.921Z</time></trkpt><trkpt lat="43.85699058889342" lon="11.58481190934157"><ele>421.0</ele><time>2026-04-25T09:21:04.921Z</time></trkpt><trkpt lat="43.85710637326315" lon="11.584713189033595"><ele>421.0</ele><time>2026-04-25T09:21:05.921Z</time></trkpt><trkpt lat="43.85721951439366" lon="11.584616891722428"><ele>421.0</ele><time>2026-04-25T09:21:06.922Z</time></trkpt><trkpt lat="43.85733258643129" lon="11.584509332882597"><ele>421.0</ele><time>2026-04-25T09:21:07.922Z</time></trkpt><trkpt lat="43.85744926124743" lon="11.584403401969226"><ele>417.25</ele><time>2026-04-25T09:21:08.922Z</time></trkpt><trkpt lat="43.85756787216442" lon="11.584296918953283"><ele>413.5</ele><time>2026-04-25T09:21:09.922Z</time></trkpt><trkpt lat="43.85768725720375" lon="11.584192849469758"><ele>409.75</ele><time>2026-04-25T09:21:10.922Z</time></trkpt><trkpt lat="43.857800605056966" lon="11.584090863153401"><ele>406.0</ele><time>2026-04-25T09:21:11.922Z</time></trkpt><trkpt lat="43.857907896223146" lon="11.583975244477966"><ele>406.0</ele><time>2026-04-25T09:21:12.922Z</time></trkpt><trkpt lat="43.85800606243828" lon="11.58387848253352"><ele>406.0</ele><time>2026-04-25T09:21:13.922Z</time></trkpt><trkpt lat="43.85810747920991" lon="11.583797875337902"><ele>406.0</ele><time>2026-04-25T09:21:14.922Z</time></trkpt><trkpt lat="43.858213007550816" lon="11.583733963058748"><ele>406.0</ele><time>2026-04-25T09:21:15.922Z</time></trkpt><trkpt lat="43.85832330957132" lon="11.583684442073274"><ele>402.25</ele><time>2026-04-25T09:21:16.922Z</time></trkpt><trkpt lat="43.85844134996624" lon="11.583643603520978"><ele>398.5</ele><time>2026-04-25T09:21:17.922Z</time></trkpt><trkpt lat="43.8585629848252" lon="11.583597054734236"><ele>394.75</ele><time>2026-04-25T09:21:18.922Z</time></trkpt><trkpt lat="43.85868952296039" lon="11.583559252186275"><ele>391.0</ele><time>2026-04-25T09:21:19.922Z</time></trkpt><trkpt lat="43.85879492601022" lon="11.583494941039174"><ele>391.0</ele><time>2026-04-25T09:21:20.922Z</time></trkpt><trkpt lat="43.85890423478762" lon="11.583435247475856"><ele>391.0</ele><time>2026-04-25T09:21:21.922Z</time></trkpt><trkpt lat="43.859017883178026" lon="11.583369928499453"><ele>391.0</ele><time>2026-04-25T09:21:22.922Z</time></trkpt><trkpt lat="43.85913284440803" lon="11.583301689953675"><ele>391.0</ele><time>2026-04-25T09:21:23.922Z</time></trkpt><trkpt lat="43.8592520477517" lon="11.583226849284701"><ele>392.5</ele><time>2026-04-25T09:21:24.922Z</time></trkpt><trkpt lat="43.8593792435667" lon="11.583151283077427"><ele>394.0</ele><time>2026-04-25T09:21:25.922Z</time></trkpt><trkpt lat="43.85949653610002" lon="11.583074656669956"><ele>395.5</ele><time>2026-04-25T09:21:26.922Z</time></trkpt><trkpt lat="43.859616646013116" lon="11.582991035240596"><ele>397.0</ele><time>2026-04-25T09:21:27.922Z</time></trkpt><trkpt lat="43.85972897617234" lon="11.582891954847494"><ele>394.75</ele><time>2026-04-25T09:21:28.922Z</time></trkpt><trkpt lat="43.85983336187841" lon="11.582765767690425"><ele>392.5</ele><time>2026-04-25T09:21:29.922Z</time></trkpt><trkpt lat="43.85993119457726" lon="11.582634983325791"><ele>390.25</ele><time>2026-04-25T09:21:30.922Z</time></trkpt><trkpt lat="43.86004039479354" lon="11.58252900961795"><ele>388.0</ele><time>2026-04-25T09:21:31.922Z</time></trkpt><trkpt lat="43.860156918129455" lon="11.582449631274528"><ele>388.0</ele><time>2026-04-25T09:21:32.922Z</time></trkpt><trkpt lat="43.860276762300714" lon="11.582417900853988"><ele>388.0</ele><time>2026-04-25T09:21:33.922Z</time></trkpt><trkpt lat="43.86039874695292" lon="11.582406459743968"><ele>388.0</ele><time>2026-04-25T09:21:34.922Z</time></trkpt><trkpt lat="43.860511448521386" lon="11.582404270893495"><ele>388.0</ele><time>2026-04-25T09:21:35.922Z</time></trkpt><trkpt lat="43.86061129763738" lon="11.582398104437557"><ele>388.0</ele><time>2026-04-25T09:21:36.922Z</time></trkpt><trkpt lat="43.86070002401624" lon="11.582384392412001"><ele>388.0</ele><time>2026-04-25T09:21:37.922Z</time></trkpt><trkpt lat="43.860778432240444" lon="11.582340380082556"><ele>388.0</ele><time>2026-04-25T09:21:38.922Z</time></trkpt><trkpt lat="43.86084457993253" lon="11.582282384667582"><ele>388.0</ele><time>2026-04-25T09:21:39.922Z</time></trkpt><trkpt lat="43.86088711573812" lon="11.582171898127624"><ele>388.0</ele><time>2026-04-25T09:21:40.922Z</time></trkpt><trkpt lat="43.86088681756253" lon="11.582006387644475"><ele>384.4</ele><time>2026-04-25T09:21:41.922Z</time></trkpt><trkpt lat="43.86084697828889" lon="11.581890343402376"><ele>380.79999999999995</ele><time>2026-04-25T09:21:42.922Z</time></trkpt><trkpt lat="43.86078587036577" lon="11.581814067878739"><ele>377.2</ele><time>2026-04-25T09:21:43.922Z</time></trkpt><trkpt lat="43.86070730133621" lon="11.58176416321199"><ele>373.6</ele><time>2026-04-25T09:21:44.922Z</time></trkpt><trkpt lat="43.86061098400667" lon="11.581787203973292"><ele>370.0</ele><time>2026-04-25T09:21:45.922Z</time></trkpt><trkpt lat="43.86050991677895" lon="11.58179822954942"><ele>370.0</ele><time>2026-04-25T09:21:46.922Z</time></trkpt><trkpt lat="43.86038532177346" lon="11.581821993022071"><ele>370.0</ele><time>2026-04-25T09:21:47.922Z</time></trkpt><trkpt lat="43.8602455387763" lon="11.581840826780628"><ele>370.0</ele><time>2026-04-25T09:21:48.922Z</time></trkpt><trkpt lat="43.86009465234533" lon="11.581852101587405"><ele>370.0</ele><time>2026-04-25T09:21:49.922Z</time></trkpt><trkpt lat="43.85993918892633" lon="11.581852145386948"><ele>368.5</ele><time>2026-04-25T09:21:50.922Z</time></trkpt><trkpt lat="43.85979605545225" lon="11.581851325540441"><ele>367.0</ele><time>2026-04-25T09:21:51.922Z</time></trkpt><trkpt lat="43.85966503312462" lon="11.581814635555917"><ele>365.5</ele><time>2026-04-25T09:21:52.922Z</time></trkpt><trkpt lat="43.85951957282357" lon="11.581819044869572"><ele>364.0</ele><time>2026-04-25T09:21:53.922Z</time></trkpt><trkpt lat="43.85939218552506" lon="11.581787679460732"><ele>363.5</ele><time>2026-04-25T09:21:54.922Z</time></trkpt><trkpt lat="43.85926150873003" lon="11.58180894735486"><ele>363.0</ele><time>2026-04-25T09:21:55.922Z</time></trkpt><trkpt lat="43.85913351644604" lon="11.581809761528103"><ele>362.5</ele><time>2026-04-25T09:21:56.922Z</time></trkpt><trkpt lat="43.85901447079493" lon="11.581808120043277"><ele>362.0</ele><time>2026-04-25T09:21:57.922Z</time></trkpt><trkpt lat="43.85889734926344" lon="11.58181771603785"><ele>362.0</ele><time>2026-04-25T09:21:58.922Z</time></trkpt><trkpt lat="43.85877808755792" lon="11.581804338683645"><ele>362.0</ele><time>2026-04-25T09:21:59.922Z</time></trkpt><trkpt lat="43.85866315507996" lon="11.581806631216066"><ele>362.0</ele><time>2026-04-25T09:22:00.922Z</time></trkpt><trkpt lat="43.85854419658584" lon="11.581820318470195"><ele>362.0</ele><time>2026-04-25T09:22:01.922Z</time></trkpt><trkpt lat="43.85843366824919" lon="11.58185660702406"><ele>361.0</ele><time>2026-04-25T09:22:02.922Z</time></trkpt><trkpt lat="43.85832314188476" lon="11.581899563209987"><ele>360.0</ele><time>2026-04-25T09:22:03.922Z</time></trkpt><trkpt lat="43.85819635999342" lon="11.581939464015774"><ele>359.0</ele><time>2026-04-25T09:22:04.922Z</time></trkpt><trkpt lat="43.85809981452531" lon="11.581990491847394"><ele>358.0</ele><time>2026-04-25T09:22:05.922Z</time></trkpt><trkpt lat="43.85799471425198" lon="11.582062583086286"><ele>358.0</ele><time>2026-04-25T09:22:06.922Z</time></trkpt><trkpt lat="43.85788202999555" lon="11.582127441910384"><ele>358.0</ele><time>2026-04-25T09:22:07.922Z</time></trkpt><trkpt lat="43.857777983638975" lon="11.582191558672054"><ele>358.0</ele><time>2026-04-25T09:22:08.922Z</time></trkpt><trkpt lat="43.85769103349605" lon="11.582298119421665"><ele>358.0</ele><time>2026-04-25T09:22:09.922Z</time></trkpt><trkpt lat="43.85761085497121" lon="11.582402368873197"><ele>358.0</ele><time>2026-04-25T09:22:10.922Z</time></trkpt><trkpt lat="43.85751368022464" lon="11.582490490589763"><ele>358.0</ele><time>2026-04-25T09:22:11.921Z</time></trkpt><trkpt lat="43.857409077884896" lon="11.58254639073451"><ele>358.0</ele><time>2026-04-25T09:22:12.921Z</time></trkpt><trkpt lat="43.85730143249026" lon="11.58255682912175"><ele>358.0</ele><time>2026-04-25T09:22:13.921Z</time></trkpt><trkpt lat="43.857186717584824" lon="11.582563422140865"><ele>358.0</ele><time>2026-04-25T09:22:14.921Z</time></trkpt><trkpt lat="43.85706847899841" lon="11.582573982876136"><ele>358.0</ele><time>2026-04-25T09:22:15.921Z</time></trkpt><trkpt lat="43.85695379226413" lon="11.582605763109914"><ele>358.0</ele><time>2026-04-25T09:22:16.921Z</time></trkpt><trkpt lat="43.85682400241352" lon="11.582657471372247"><ele>358.0</ele><time>2026-04-25T09:22:17.921Z</time></trkpt><trkpt lat="43.85668299554167" lon="11.58276095628397"><ele>359.75</ele><time>2026-04-25T09:22:18.921Z</time></trkpt><trkpt lat="43.85658020671831" lon="11.582875735113516"><ele>361.5</ele><time>2026-04-25T09:22:19.921Z</time></trkpt><trkpt lat="43.856492821296" lon="11.583001871606996"><ele>363.25</ele><time>2026-04-25T09:22:20.921Z</time></trkpt><trkpt lat="43.85638742350441" lon="11.583097441353795"><ele>365.0</ele><time>2026-04-25T09:22:21.921Z</time></trkpt><trkpt lat="43.856322727714044" lon="11.583157754573362"><ele>365.0</ele><time>2026-04-25T09:22:22.921Z</time></trkpt><trkpt lat="43.85622715556954" lon="11.583146767259917"><ele>365.0</ele><time>2026-04-25T09:22:24.921Z</time></trkpt><trkpt lat="43.85615790899882" lon="11.583122133767038"><ele>365.0</ele><time>2026-04-25T09:22:25.921Z</time></trkpt><trkpt lat="43.856101077402066" lon="11.583032521431946"><ele>365.0</ele><time>2026-04-25T09:22:26.921Z</time></trkpt><trkpt lat="43.856085292498236" lon="11.582945711324413"><ele>365.0</ele><time>2026-04-25T09:22:27.921Z</time></trkpt><trkpt lat="43.85608084693071" lon="11.582835131150617"><ele>365.0</ele><time>2026-04-25T09:22:28.921Z</time></trkpt><trkpt lat="43.85609002520808" lon="11.582689642026322"><ele>361.0</ele><time>2026-04-25T09:22:29.921Z</time></trkpt><trkpt lat="43.856114423712526" lon="11.582527392675486"><ele>357.0</ele><time>2026-04-25T09:22:30.921Z</time></trkpt><trkpt lat="43.85614426695189" lon="11.58235914247662"><ele>353.0</ele><time>2026-04-25T09:22:31.921Z</time></trkpt><trkpt lat="43.85616835107337" lon="11.582191468741287"><ele>349.0</ele><time>2026-04-25T09:22:32.921Z</time></trkpt><trkpt lat="43.85618516369958" lon="11.582029656580126"><ele>347.0</ele><time>2026-04-25T09:22:33.921Z</time></trkpt><trkpt lat="43.85618059100427" lon="11.58187626240868"><ele>345.0</ele><time>2026-04-25T09:22:34.921Z</time></trkpt><trkpt lat="43.856191799089345" lon="11.58172264158018"><ele>343.0</ele><time>2026-04-25T09:22:35.921Z</time></trkpt><trkpt lat="43.85622934514498" lon="11.581621155237174"><ele>341.0</ele><time>2026-04-25T09:22:36.921Z</time></trkpt><trkpt lat="43.85627209552859" lon="11.581527399382756"><ele>339.0</ele><time>2026-04-25T09:22:37.921Z</time></trkpt><trkpt lat="43.856348074913406" lon="11.581481596139175"><ele>339.0</ele><time>2026-04-25T09:22:38.921Z</time></trkpt><trkpt lat="43.8564428649162" lon="11.581435249010296"><ele>339.0</ele><time>2026-04-25T09:22:39.921Z</time></trkpt><trkpt lat="43.85654389186603" lon="11.581375899468727"><ele>339.0</ele><time>2026-04-25T09:22:40.921Z</time></trkpt><trkpt lat="43.85664422479048" lon="11.581264661713682"><ele>339.0</ele><time>2026-04-25T09:22:41.921Z</time></trkpt><trkpt lat="43.85674813031106" lon="11.581146744136836"><ele>337.5</ele><time>2026-04-25T09:22:42.921Z</time></trkpt><trkpt lat="43.85683443303002" lon="11.581028208776068"><ele>336.0</ele><time>2026-04-25T09:22:43.921Z</time></trkpt><trkpt lat="43.85693999916133" lon="11.580927674899241"><ele>334.5</ele><time>2026-04-25T09:22:44.921Z</time></trkpt><trkpt lat="43.857036082882615" lon="11.580827135540241"><ele>333.0</ele><time>2026-04-25T09:22:45.921Z</time></trkpt><trkpt lat="43.85713675656612" lon="11.58072365311705"><ele>333.0</ele><time>2026-04-25T09:22:46.921Z</time></trkpt><trkpt lat="43.85723156847463" lon="11.580610520292145"><ele>333.0</ele><time>2026-04-25T09:22:47.921Z</time></trkpt><trkpt lat="43.857351102591565" lon="11.580493113873134"><ele>333.0</ele><time>2026-04-25T09:22:48.921Z</time></trkpt><trkpt lat="43.85744503466755" lon="11.580366939412695"><ele>333.0</ele><time>2026-04-25T09:22:49.921Z</time></trkpt><trkpt lat="43.85754223488627" lon="11.580258747624661"><ele>331.75</ele><time>2026-04-25T09:22:50.921Z</time></trkpt><trkpt lat="43.85764007964854" lon="11.580142741448443"><ele>330.5</ele><time>2026-04-25T09:22:51.921Z</time></trkpt><trkpt lat="43.857742970972545" lon="11.580016538382367"><ele>329.25</ele><time>2026-04-25T09:22:52.921Z</time></trkpt><trkpt lat="43.857840387065146" lon="11.579888437213972"><ele>328.0</ele><time>2026-04-25T09:22:53.921Z</time></trkpt><trkpt lat="43.857936020475606" lon="11.579772321281967"><ele>328.0</ele><time>2026-04-25T09:22:54.921Z</time></trkpt><trkpt lat="43.85802899945691" lon="11.579646640711143"><ele>328.0</ele><time>2026-04-25T09:22:55.921Z</time></trkpt><trkpt lat="43.85812907951056" lon="11.579515639796117"><ele>328.0</ele><time>2026-04-25T09:22:56.921Z</time></trkpt><trkpt lat="43.858221775782496" lon="11.579411583205697"><ele>328.0</ele><time>2026-04-25T09:22:57.921Z</time></trkpt><trkpt lat="43.85832155928067" lon="11.579292107983926"><ele>323.75</ele><time>2026-04-25T09:22:58.921Z</time></trkpt><trkpt lat="43.858424312928015" lon="11.579181126936046"><ele>319.5</ele><time>2026-04-25T09:22:59.921Z</time></trkpt><trkpt lat="43.85853200691906" lon="11.579085118388262"><ele>315.25</ele><time>2026-04-25T09:23:00.921Z</time></trkpt><trkpt lat="43.858647881038685" lon="11.579021949596026"><ele>311.0</ele><time>2026-04-25T09:23:01.921Z</time></trkpt><trkpt lat="43.858764296354195" lon="11.57893439695346"><ele>311.0</ele><time>2026-04-25T09:23:02.921Z</time></trkpt><trkpt lat="43.858881574839685" lon="11.578878931896051"><ele>311.0</ele><time>2026-04-25T09:23:03.922Z</time></trkpt><trkpt lat="43.85900656266127" lon="11.578845891934584"><ele>311.0</ele><time>2026-04-25T09:23:04.922Z</time></trkpt><trkpt lat="43.85912982106826" lon="11.578838832238976"><ele>311.0</ele><time>2026-04-25T09:23:05.922Z</time></trkpt><trkpt lat="43.85925254209665" lon="11.578867689253073"><ele>310.25</ele><time>2026-04-25T09:23:06.921Z</time></trkpt><trkpt lat="43.8593710489366" lon="11.578922234105693"><ele>309.5</ele><time>2026-04-25T09:23:07.921Z</time></trkpt><trkpt lat="43.85947778749675" lon="11.578981559218116"><ele>308.75</ele><time>2026-04-25T09:23:08.921Z</time></trkpt><trkpt lat="43.85957679933061" lon="11.579033871360132"><ele>308.0</ele><time>2026-04-25T09:23:09.921Z</time></trkpt><trkpt lat="43.85969466954367" lon="11.579085533872709"><ele>308.0</ele><time>2026-04-25T09:23:10.921Z</time></trkpt><trkpt lat="43.85979524151322" lon="11.579090130170107"><ele>308.0</ele><time>2026-04-25T09:23:11.921Z</time></trkpt><trkpt lat="43.85991398102291" lon="11.57905313476839"><ele>308.0</ele><time>2026-04-25T09:23:12.921Z</time></trkpt><trkpt lat="43.86002978550553" lon="11.578950576574606"><ele>308.0</ele><time>2026-04-25T09:23:13.921Z</time></trkpt><trkpt lat="43.86013523714742" lon="11.578824876079208"><ele>309.75</ele><time>2026-04-25T09:23:14.921Z</time></trkpt><trkpt lat="43.860238078238844" lon="11.578687569698078"><ele>311.5</ele><time>2026-04-25T09:23:15.921Z</time></trkpt><trkpt lat="43.860345329328794" lon="11.578567336820528"><ele>313.25</ele><time>2026-04-25T09:23:16.921Z</time></trkpt><trkpt lat="43.860441042471834" lon="11.578437534251384"><ele>315.0</ele><time>2026-04-25T09:23:17.921Z</time></trkpt><trkpt lat="43.86053145359528" lon="11.578281381200542"><ele>311.25</ele><time>2026-04-25T09:23:18.921Z</time></trkpt><trkpt lat="43.86060669087542" lon="11.578116634956112"><ele>307.5</ele><time>2026-04-25T09:23:19.921Z</time></trkpt><trkpt lat="43.86067780547221" lon="11.577967752955955"><ele>303.75</ele><time>2026-04-25T09:23:20.921Z</time></trkpt><trkpt lat="43.86074613137013" lon="11.5778314296211"><ele>300.0</ele><time>2026-04-25T09:23:21.921Z</time></trkpt><trkpt lat="43.86080733378342" lon="11.57770402707869"><ele>297.4</ele><time>2026-04-25T09:23:22.921Z</time></trkpt><trkpt lat="43.86087782273449" lon="11.577595904216693"><ele>294.8</ele><time>2026-04-25T09:23:23.921Z</time></trkpt><trkpt lat="43.86096219128704" lon="11.577488065467206"><ele>292.2</ele><time>2026-04-25T09:23:24.921Z</time></trkpt><trkpt lat="43.86106166895345" lon="11.57743710725147"><ele>289.6</ele><time>2026-04-25T09:23:25.921Z</time></trkpt><trkpt lat="43.8611729884725" lon="11.577429643433248"><ele>287.0</ele><time>2026-04-25T09:23:26.921Z</time></trkpt><trkpt lat="43.861275150278324" lon="11.577452166646713"><ele>287.0</ele><time>2026-04-25T09:23:27.921Z</time></trkpt><trkpt lat="43.86135374607479" lon="11.577520171841735"><ele>287.0</ele><time>2026-04-25T09:23:28.921Z</time></trkpt><trkpt lat="43.861436912837064" lon="11.577588592994811"><ele>287.0</ele><time>2026-04-25T09:23:29.921Z</time></trkpt><trkpt lat="43.8615258368145" lon="11.577680386922626"><ele>287.0</ele><time>2026-04-25T09:23:30.921Z</time></trkpt><trkpt lat="43.8616299862404" lon="11.577743988812811"><ele>287.0</ele><time>2026-04-25T09:23:31.921Z</time></trkpt><trkpt lat="43.86173826957483" lon="11.577779504039123"><ele>284.25</ele><time>2026-04-25T09:23:32.921Z</time></trkpt><trkpt lat="43.861877977832954" lon="11.577730438207114"><ele>281.5</ele><time>2026-04-25T09:23:33.921Z</time></trkpt><trkpt lat="43.862003716778524" lon="11.57769161259457"><ele>278.75</ele><time>2026-04-25T09:23:34.921Z</time></trkpt><trkpt lat="43.8621173074548" lon="11.577673001972595"><ele>276.0</ele><time>2026-04-25T09:23:35.921Z</time></trkpt><trkpt lat="43.86223459989927" lon="11.577676746179792"><ele>276.0</ele><time>2026-04-25T09:23:36.921Z</time></trkpt><trkpt lat="43.86235366844328" lon="11.57772422904923"><ele>276.0</ele><time>2026-04-25T09:23:37.921Z</time></trkpt><trkpt lat="43.862467243348085" lon="11.577746735358607"><ele>276.0</ele><time>2026-04-25T09:23:38.921Z</time></trkpt><trkpt lat="43.86257470838061" lon="11.577796247252612"><ele>276.0</ele><time>2026-04-25T09:23:39.921Z</time></trkpt><trkpt lat="43.862680080062916" lon="11.577845240799078"><ele>275.0</ele><time>2026-04-25T09:23:40.921Z</time></trkpt><trkpt lat="43.86277877304949" lon="11.577892132143315"><ele>274.0</ele><time>2026-04-25T09:23:41.921Z</time></trkpt><trkpt lat="43.86286937188725" lon="11.577931273630812"><ele>273.0</ele><time>2026-04-25T09:23:42.921Z</time></trkpt><trkpt lat="43.8629607407901" lon="11.577990934750819"><ele>272.0</ele><time>2026-04-25T09:23:43.921Z</time></trkpt><trkpt lat="43.863004151590445" lon="11.578113448053504"><ele>271.0</ele><time>2026-04-25T09:23:44.921Z</time></trkpt><trkpt lat="43.86306057827889" lon="11.578217063810495"><ele>271.0</ele><time>2026-04-25T09:23:45.921Z</time></trkpt><trkpt lat="43.86308211948348" lon="11.57836550263363"><ele>271.0</ele><time>2026-04-25T09:23:46.921Z</time></trkpt><trkpt lat="43.863122585307565" lon="11.57851410017099"><ele>271.0</ele><time>2026-04-25T09:23:47.921Z</time></trkpt><trkpt lat="43.86319910458998" lon="11.57865556636906"><ele>271.0</ele><time>2026-04-25T09:23:48.921Z</time></trkpt><trkpt lat="43.86328062927972" lon="11.578791997522458"><ele>269.25</ele><time>2026-04-25T09:23:49.921Z</time></trkpt><trkpt lat="43.86336333671798" lon="11.578923409718547"><ele>267.5</ele><time>2026-04-25T09:23:50.921Z</time></trkpt><trkpt lat="43.863441463293455" lon="11.579036508586583"><ele>265.75</ele><time>2026-04-25T09:23:51.921Z</time></trkpt><trkpt lat="43.86351930246244" lon="11.579159206136913"><ele>264.0</ele><time>2026-04-25T09:23:52.921Z</time></trkpt><trkpt lat="43.86360241235185" lon="11.579287399217737"><ele>264.0</ele><time>2026-04-25T09:23:53.921Z</time></trkpt><trkpt lat="43.863671571735495" lon="11.57941704070705"><ele>264.0</ele><time>2026-04-25T09:23:54.921Z</time></trkpt><trkpt lat="43.863740679141095" lon="11.579548690531237"><ele>264.0</ele><time>2026-04-25T09:23:55.921Z</time></trkpt><trkpt lat="43.86380035695638" lon="11.579684713632924"><ele>264.0</ele><time>2026-04-25T09:23:56.921Z</time></trkpt><trkpt lat="43.86386640434603" lon="11.579817828253535"><ele>265.59999999999997</ele><time>2026-04-25T09:23:57.921Z</time></trkpt><trkpt lat="43.863921994467134" lon="11.57994464472303"><ele>267.2</ele><time>2026-04-25T09:23:58.921Z</time></trkpt><trkpt lat="43.863956611695066" lon="11.580068463059865"><ele>268.79999999999995</ele><time>2026-04-25T09:23:59.921Z</time></trkpt><trkpt lat="43.86401548259998" lon="11.580188800248319"><ele>270.4</ele><time>2026-04-25T09:24:00.921Z</time></trkpt><trkpt lat="43.86407517564406" lon="11.580289288740024"><ele>272.0</ele><time>2026-04-25T09:24:01.921Z</time></trkpt><trkpt lat="43.864131132321155" lon="11.580371599021028"><ele>271.83333333333337</ele><time>2026-04-25T09:24:02.921Z</time></trkpt><trkpt lat="43.864212731854536" lon="11.580422827805556"><ele>271.6666666666667</ele><time>2026-04-25T09:24:03.921Z</time></trkpt><trkpt lat="43.86429809093367" lon="11.580439629349799"><ele>271.5</ele><time>2026-04-25T09:24:04.921Z</time></trkpt><trkpt lat="43.86437335146959" lon="11.580393400198828"><ele>271.3333333333333</ele><time>2026-04-25T09:24:05.921Z</time></trkpt><trkpt lat="43.864440376382106" lon="11.58032736313464"><ele>271.16666666666663</ele><time>2026-04-25T09:24:06.921Z</time></trkpt><trkpt lat="43.864501519746845" lon="11.58024408167676"><ele>271.0</ele><time>2026-04-25T09:24:07.921Z</time></trkpt><trkpt lat="43.864565321173764" lon="11.580166338618184"><ele>271.0</ele><time>2026-04-25T09:24:08.921Z</time></trkpt><trkpt lat="43.8646205586134" lon="11.580095758976242"><ele>271.0</ele><time>2026-04-25T09:24:09.921Z</time></trkpt><trkpt lat="43.864663127006914" lon="11.580011643242397"><ele>271.0</ele><time>2026-04-25T09:24:10.921Z</time></trkpt><trkpt lat="43.86469000335905" lon="11.579909602967444"><ele>271.0</ele><time>2026-04-25T09:24:11.921Z</time></trkpt><trkpt lat="43.86468565201935" lon="11.579773056360123"><ele>271.0</ele><time>2026-04-25T09:24:12.921Z</time></trkpt><trkpt lat="43.864669339008586" lon="11.579627699157726"><ele>271.0</ele><time>2026-04-25T09:24:13.921Z</time></trkpt><trkpt lat="43.864638161856796" lon="11.579476572575066"><ele>277.25</ele><time>2026-04-25T09:24:14.921Z</time></trkpt><trkpt lat="43.864594615806574" lon="11.579316015312907"><ele>283.5</ele><time>2026-04-25T09:24:15.921Z</time></trkpt><trkpt lat="43.864556833380085" lon="11.579149334116721"><ele>289.75</ele><time>2026-04-25T09:24:16.921Z</time></trkpt><trkpt lat="43.864526476118236" lon="11.57899249198126"><ele>296.0</ele><time>2026-04-25T09:24:17.921Z</time></trkpt><trkpt lat="43.86449351388881" lon="11.578848697746272"><ele>296.0</ele><time>2026-04-25T09:24:18.92Z</time></trkpt><trkpt lat="43.86441615127362" lon="11.578713816761683"><ele>296.0</ele><time>2026-04-25T09:24:19.92Z</time></trkpt><trkpt lat="43.86430722026829" lon="11.578601660369552"><ele>296.0</ele><time>2026-04-25T09:24:20.92Z</time></trkpt><trkpt lat="43.864199432747704" lon="11.578508397312993"><ele>296.0</ele><time>2026-04-25T09:24:21.92Z</time></trkpt><trkpt lat="43.86410467024062" lon="11.578416990843229"><ele>291.2</ele><time>2026-04-25T09:24:22.92Z</time></trkpt><trkpt lat="43.864015345642116" lon="11.578336327265138"><ele>286.40000000000003</ele><time>2026-04-25T09:24:23.92Z</time></trkpt><trkpt lat="43.86394532291811" lon="11.578252866589985"><ele>281.6</ele><time>2026-04-25T09:24:24.92Z</time></trkpt><trkpt lat="43.86387336001489" lon="11.578159849182448"><ele>276.8</ele><time>2026-04-25T09:24:25.92Z</time></trkpt><trkpt lat="43.86382254219154" lon="11.578060685529561"><ele>272.0</ele><time>2026-04-25T09:24:26.92Z</time></trkpt><trkpt lat="43.8637931029755" lon="11.577948508862493"><ele>275.2</ele><time>2026-04-25T09:24:27.92Z</time></trkpt><trkpt lat="43.86377510631622" lon="11.577824717419217"><ele>278.4</ele><time>2026-04-25T09:24:28.92Z</time></trkpt><trkpt lat="43.863757572065026" lon="11.577677484658475"><ele>281.6</ele><time>2026-04-25T09:24:29.92Z</time></trkpt><trkpt lat="43.86373133337836" lon="11.577540136375719"><ele>284.8</ele><time>2026-04-25T09:24:30.92Z</time></trkpt><trkpt lat="43.863701347828126" lon="11.577414083281358"><ele>288.0</ele><time>2026-04-25T09:24:31.92Z</time></trkpt><trkpt lat="43.863643355618734" lon="11.577292226438749"><ele>288.0</ele><time>2026-04-25T09:24:32.92Z</time></trkpt><trkpt lat="43.86357931712192" lon="11.577164703121989"><ele>288.0</ele><time>2026-04-25T09:24:33.92Z</time></trkpt><trkpt lat="43.863517551707254" lon="11.57703812485004"><ele>288.0</ele><time>2026-04-25T09:24:34.92Z</time></trkpt><trkpt lat="43.8634445268357" lon="11.576914212179485"><ele>288.0</ele><time>2026-04-25T09:24:35.92Z</time></trkpt><trkpt lat="43.86335511307378" lon="11.576789840661727"><ele>281.75</ele><time>2026-04-25T09:24:36.92Z</time></trkpt><trkpt lat="43.86323505288614" lon="11.576681297456547"><ele>275.5</ele><time>2026-04-25T09:24:37.92Z</time></trkpt><trkpt lat="43.86313920131224" lon="11.576583659038626"><ele>269.25</ele><time>2026-04-25T09:24:38.92Z</time></trkpt><trkpt lat="43.86304571009163" lon="11.57648366659808"><ele>263.0</ele><time>2026-04-25T09:24:39.92Z</time></trkpt><trkpt lat="43.86295674671093" lon="11.576376595692768"><ele>263.0</ele><time>2026-04-25T09:24:40.92Z</time></trkpt><trkpt lat="43.862891497966345" lon="11.576286748702499"><ele>263.0</ele><time>2026-04-25T09:24:41.92Z</time></trkpt><trkpt lat="43.86282546039288" lon="11.576148244241228"><ele>263.0</ele><time>2026-04-25T09:24:42.92Z</time></trkpt><trkpt lat="43.86279933133951" lon="11.576011501215843"><ele>263.0</ele><time>2026-04-25T09:24:43.92Z</time></trkpt><trkpt lat="43.86276648218593" lon="11.575862029853155"><ele>263.0</ele><time>2026-04-25T09:24:44.92Z</time></trkpt><trkpt lat="43.86273132163153" lon="11.57570221726018"><ele>267.33333333333337</ele><time>2026-04-25T09:24:45.92Z</time></trkpt><trkpt lat="43.862697925625945" lon="11.575490349424673"><ele>271.6666666666667</ele><time>2026-04-25T09:24:46.92Z</time></trkpt><trkpt lat="43.86265721937983" lon="11.57527242581846"><ele>276.0</ele><time>2026-04-25T09:24:47.92Z</time></trkpt><trkpt lat="43.862631067383354" lon="11.57500875610783"><ele>280.6666666666667</ele><time>2026-04-25T09:24:48.92Z</time></trkpt><trkpt lat="43.86261597379742" lon="11.57475132764967"><ele>285.33333333333337</ele><time>2026-04-25T09:24:49.92Z</time></trkpt><trkpt lat="43.86261163072599" lon="11.574525993061302"><ele>290.0</ele><time>2026-04-25T09:24:50.92Z</time></trkpt><trkpt lat="43.86258922459406" lon="11.574335171984517"><ele>281.25</ele><time>2026-04-25T09:24:51.92Z</time></trkpt><trkpt lat="43.86256482181856" lon="11.57417124448772"><ele>272.5</ele><time>2026-04-25T09:24:52.92Z</time></trkpt><trkpt lat="43.86253492683461" lon="11.57400851614346"><ele>263.75</ele><time>2026-04-25T09:24:53.92Z</time></trkpt><trkpt lat="43.86247758100912" lon="11.573870610319604"><ele>255.0</ele><time>2026-04-25T09:24:54.92Z</time></trkpt><trkpt lat="43.86239328973963" lon="11.57376009508142"><ele>255.25</ele><time>2026-04-25T09:24:55.92Z</time></trkpt><trkpt lat="43.86231302986943" lon="11.57364179395545"><ele>255.5</ele><time>2026-04-25T09:24:56.92Z</time></trkpt><trkpt lat="43.86225412018945" lon="11.573493813817622"><ele>255.75</ele><time>2026-04-25T09:24:57.92Z</time></trkpt><trkpt lat="43.86221965289466" lon="11.573329482821714"><ele>256.0</ele><time>2026-04-25T09:24:58.92Z</time></trkpt><trkpt lat="43.8622091702662" lon="11.573147307716672"><ele>256.0</ele><time>2026-04-25T09:24:59.919Z</time></trkpt><trkpt lat="43.86221165763" lon="11.572955358102883"><ele>256.0</ele><time>2026-04-25T09:25:00.919Z</time></trkpt><trkpt lat="43.86220539087212" lon="11.572767570097708"><ele>256.0</ele><time>2026-04-25T09:25:01.919Z</time></trkpt><trkpt lat="43.86219738411737" lon="11.572583607188415"><ele>256.0</ele><time>2026-04-25T09:25:02.919Z</time></trkpt><trkpt lat="43.86219411537372" lon="11.572401406456468"><ele>255.75</ele><time>2026-04-25T09:25:03.919Z</time></trkpt><trkpt lat="43.8622047890939" lon="11.5722235819732"><ele>255.5</ele><time>2026-04-25T09:25:04.919Z</time></trkpt><trkpt lat="43.862221110204196" lon="11.572038619650662"><ele>255.25</ele><time>2026-04-25T09:25:05.919Z</time></trkpt><trkpt lat="43.86225807604048" lon="11.571856527149441"><ele>255.0</ele><time>2026-04-25T09:25:06.919Z</time></trkpt><trkpt lat="43.862288090769965" lon="11.571688387904347"><ele>255.0</ele><time>2026-04-25T09:25:07.919Z</time></trkpt><trkpt lat="43.86230470248151" lon="11.571531008996308"><ele>255.0</ele><time>2026-04-25T09:25:08.919Z</time></trkpt><trkpt lat="43.86231054438346" lon="11.57137387604914"><ele>255.0</ele><time>2026-04-25T09:25:09.919Z</time></trkpt><trkpt lat="43.86228810009603" lon="11.571215173022702"><ele>255.0</ele><time>2026-04-25T09:25:10.919Z</time></trkpt><trkpt lat="43.86224246119345" lon="11.571072490973028"><ele>255.8</ele><time>2026-04-25T09:25:11.919Z</time></trkpt><trkpt lat="43.86218666692885" lon="11.570934403800864"><ele>256.6</ele><time>2026-04-25T09:25:12.919Z</time></trkpt><trkpt lat="43.86213666687091" lon="11.570808510500799"><ele>257.4</ele><time>2026-04-25T09:25:13.919Z</time></trkpt><trkpt lat="43.86208043511027" lon="11.570672719177024"><ele>258.2</ele><time>2026-04-25T09:25:14.919Z</time></trkpt><trkpt lat="43.86202927343288" lon="11.57054954639055"><ele>259.0</ele><time>2026-04-25T09:25:15.919Z</time></trkpt><trkpt lat="43.86198496995491" lon="11.570411362140158"><ele>260.2</ele><time>2026-04-25T09:25:16.919Z</time></trkpt><trkpt lat="43.86194589703582" lon="11.570268501899761"><ele>261.4</ele><time>2026-04-25T09:25:17.919Z</time></trkpt><trkpt lat="43.86189940921618" lon="11.570125904586344"><ele>262.6</ele><time>2026-04-25T09:25:18.919Z</time></trkpt><trkpt lat="43.861859073347894" lon="11.569982678174933"><ele>263.8</ele><time>2026-04-25T09:25:19.919Z</time></trkpt><trkpt lat="43.86181995515973" lon="11.569838713643499"><ele>265.0</ele><time>2026-04-25T09:25:20.919Z</time></trkpt><trkpt lat="43.86177966694963" lon="11.569674676187784"><ele>258.0</ele><time>2026-04-25T09:25:21.919Z</time></trkpt><trkpt lat="43.86172427808619" lon="11.569509890673007"><ele>251.0</ele><time>2026-04-25T09:25:22.919Z</time></trkpt><trkpt lat="43.861670971266264" lon="11.56936186413311"><ele>244.0</ele><time>2026-04-25T09:25:23.919Z</time></trkpt><trkpt lat="43.86160930388018" lon="11.569239229450185"><ele>237.0</ele><time>2026-04-25T09:25:24.919Z</time></trkpt><trkpt lat="43.86155347754669" lon="11.569095917305201"><ele>237.0</ele><time>2026-04-25T09:25:25.919Z</time></trkpt><trkpt lat="43.861504171764125" lon="11.568954699304328"><ele>237.0</ele><time>2026-04-25T09:25:26.919Z</time></trkpt><trkpt lat="43.861465680744054" lon="11.56879191277084"><ele>237.0</ele><time>2026-04-25T09:25:27.919Z</time></trkpt><trkpt lat="43.861455078787635" lon="11.568632428711528"><ele>237.0</ele><time>2026-04-25T09:25:28.919Z</time></trkpt><trkpt lat="43.86145549389662" lon="11.568474561919862"><ele>238.16666666666666</ele><time>2026-04-25T09:25:29.919Z</time></trkpt><trkpt lat="43.861455929731356" lon="11.568323673659432"><ele>239.33333333333331</ele><time>2026-04-25T09:25:30.919Z</time></trkpt><trkpt lat="43.86144992892369" lon="11.56819213925844"><ele>240.5</ele><time>2026-04-25T09:25:31.919Z</time></trkpt><trkpt lat="43.86143703414685" lon="11.568079572182764"><ele>241.66666666666666</ele><time>2026-04-25T09:25:32.919Z</time></trkpt><trkpt lat="43.86141379997789" lon="11.567984871330237"><ele>242.83333333333331</ele><time>2026-04-25T09:25:33.919Z</time></trkpt><trkpt lat="43.86138707959752" lon="11.567895920611981"><ele>244.0</ele><time>2026-04-25T09:25:34.919Z</time></trkpt><trkpt lat="43.86135238617602" lon="11.56780368702693"><ele>244.33333333333331</ele><time>2026-04-25T09:25:35.919Z</time></trkpt><trkpt lat="43.86132165259042" lon="11.567699818946258"><ele>244.66666666666666</ele><time>2026-04-25T09:25:36.919Z</time></trkpt><trkpt lat="43.86127367685892" lon="11.567614435012183"><ele>245.0</ele><time>2026-04-25T09:25:37.919Z</time></trkpt><trkpt lat="43.861224183144174" lon="11.567529070805165"><ele>245.33333333333331</ele><time>2026-04-25T09:25:38.919Z</time></trkpt><trkpt lat="43.861183825369835" lon="11.567432823482983"><ele>245.66666666666666</ele><time>2026-04-25T09:25:39.919Z</time></trkpt><trkpt lat="43.86113018646996" lon="11.567373072432044"><ele>246.0</ele><time>2026-04-25T09:25:40.919Z</time></trkpt><trkpt lat="43.86108642906798" lon="11.567290205848003"><ele>246.0</ele><time>2026-04-25T09:25:41.919Z</time></trkpt><trkpt lat="43.86104202449389" lon="11.567192484345474"><ele>246.0</ele><time>2026-04-25T09:25:42.919Z</time></trkpt><trkpt lat="43.86100549344548" lon="11.567098195059794"><ele>246.0</ele><time>2026-04-25T09:25:43.919Z</time></trkpt><trkpt lat="43.860980487868204" lon="11.56701123096772"><ele>246.0</ele><time>2026-04-25T09:25:44.919Z</time></trkpt><trkpt lat="43.860968198412344" lon="11.566913828257416"><ele>246.0</ele><time>2026-04-25T09:25:45.919Z</time></trkpt><trkpt lat="43.860983599082545" lon="11.566778461896154"><ele>246.0</ele><time>2026-04-25T09:25:46.919Z</time></trkpt><trkpt lat="43.861053663966885" lon="11.566639460431801"><ele>243.75</ele><time>2026-04-25T09:25:47.919Z</time></trkpt><trkpt lat="43.861103674474066" lon="11.566496750727298"><ele>241.5</ele><time>2026-04-25T09:25:48.919Z</time></trkpt><trkpt lat="43.86116071971134" lon="11.566346785174755"><ele>239.25</ele><time>2026-04-25T09:25:49.919Z</time></trkpt><trkpt lat="43.861224532558396" lon="11.566196482818858"><ele>237.0</ele><time>2026-04-25T09:25:50.919Z</time></trkpt><trkpt lat="43.861293667046375" lon="11.566045267089141"><ele>232.25</ele><time>2026-04-25T09:25:51.919Z</time></trkpt><trkpt lat="43.861384870527964" lon="11.56590244077776"><ele>227.5</ele><time>2026-04-25T09:25:52.919Z</time></trkpt><trkpt lat="43.861487945433836" lon="11.565769028623832"><ele>222.75</ele><time>2026-04-25T09:25:53.919Z</time></trkpt><trkpt lat="43.86159413759776" lon="11.565645114626331"><ele>218.0</ele><time>2026-04-25T09:25:54.919Z</time></trkpt><trkpt lat="43.86170884441518" lon="11.56554570183338"><ele>216.75</ele><time>2026-04-25T09:25:55.919Z</time></trkpt><trkpt lat="43.86181690826475" lon="11.565456593930824"><ele>215.5</ele><time>2026-04-25T09:25:56.919Z</time></trkpt><trkpt lat="43.86191630285051" lon="11.565369933851091"><ele>214.25</ele><time>2026-04-25T09:25:57.919Z</time></trkpt><trkpt lat="43.8620099958092" lon="11.5652907993683"><ele>213.0</ele><time>2026-04-25T09:25:58.919Z</time></trkpt><trkpt lat="43.86209231825074" lon="11.56519804968748"><ele>213.0</ele><time>2026-04-25T09:25:59.919Z</time></trkpt><trkpt lat="43.8621838934995" lon="11.565120331995843"><ele>213.0</ele><time>2026-04-25T09:26:00.919Z</time></trkpt><trkpt lat="43.86227596094892" lon="11.565036234402871"><ele>213.0</ele><time>2026-04-25T09:26:01.919Z</time></trkpt><trkpt lat="43.86236417686939" lon="11.564963010770336"><ele>213.0</ele><time>2026-04-25T09:26:02.919Z</time></trkpt><trkpt lat="43.86244982711315" lon="11.56487695323979"><ele>213.0</ele><time>2026-04-25T09:26:03.919Z</time></trkpt><trkpt lat="43.862529556384324" lon="11.56479694324103"><ele>213.0</ele><time>2026-04-25T09:26:04.919Z</time></trkpt><trkpt lat="43.86260137379643" lon="11.564730862424378"><ele>213.0</ele><time>2026-04-25T09:26:05.919Z</time></trkpt><trkpt lat="43.86266403480384" lon="11.564679340556573"><ele>213.0</ele><time>2026-04-25T09:26:06.919Z</time></trkpt><trkpt lat="43.86273207322691" lon="11.564614986119862"><ele>213.0</ele><time>2026-04-25T09:26:07.919Z</time></trkpt><trkpt lat="43.86279748649405" lon="11.564542103165632"><ele>213.0</ele><time>2026-04-25T09:26:08.919Z</time></trkpt><trkpt lat="43.862858256642724" lon="11.564472810212742"><ele>213.0</ele><time>2026-04-25T09:26:09.919Z</time></trkpt><trkpt lat="43.862921396925934" lon="11.564413211606988"><ele>212.60000000000002</ele><time>2026-04-25T09:26:10.919Z</time></trkpt><trkpt lat="43.86297869678393" lon="11.564345815368789"><ele>212.20000000000002</ele><time>2026-04-25T09:26:11.919Z</time></trkpt><trkpt lat="43.86308219513011" lon="11.564239729618523"><ele>211.8</ele><time>2026-04-25T09:26:13.919Z</time></trkpt><trkpt lat="43.86312964778659" lon="11.564177879966351"><ele>211.4</ele><time>2026-04-25T09:26:14.918Z</time></trkpt><trkpt lat="43.863220493128644" lon="11.564070389586243"><ele>211.0</ele><time>2026-04-25T09:26:16.918Z</time></trkpt><trkpt lat="43.86327442841226" lon="11.564018106996608"><ele>211.0</ele><time>2026-04-25T09:26:17.918Z</time></trkpt><trkpt lat="43.86332872823766" lon="11.563937466157354"><ele>211.0</ele><time>2026-04-25T09:26:18.918Z</time></trkpt><trkpt lat="43.8633850157309" lon="11.563872522765832"><ele>211.0</ele><time>2026-04-25T09:26:19.918Z</time></trkpt><trkpt lat="43.86344184136643" lon="11.563806413879744"><ele>211.0</ele><time>2026-04-25T09:26:20.918Z</time></trkpt><trkpt lat="43.863490207348015" lon="11.563740628029663"><ele>211.0</ele><time>2026-04-25T09:26:21.918Z</time></trkpt><trkpt lat="43.86353856120547" lon="11.563678785720644"><ele>211.0</ele><time>2026-04-25T09:26:22.918Z</time></trkpt><trkpt lat="43.86358904993872" lon="11.563600804806288"><ele>211.0</ele><time>2026-04-25T09:26:23.918Z</time></trkpt><trkpt lat="43.86364224260624" lon="11.563521682698639"><ele>211.4</ele><time>2026-04-25T09:26:24.918Z</time></trkpt><trkpt lat="43.863692001548166" lon="11.563423313749189"><ele>211.8</ele><time>2026-04-25T09:26:25.918Z</time></trkpt><trkpt lat="43.86375442052193" lon="11.563335211569477"><ele>212.20000000000002</ele><time>2026-04-25T09:26:26.918Z</time></trkpt><trkpt lat="43.863829429675214" lon="11.563230277583594"><ele>212.60000000000002</ele><time>2026-04-25T09:26:27.918Z</time></trkpt><trkpt lat="43.86391034391694" lon="11.563104721002759"><ele>213.0</ele><time>2026-04-25T09:26:28.918Z</time></trkpt><trkpt lat="43.86399759169147" lon="11.562974873601567"><ele>213.8</ele><time>2026-04-25T09:26:29.918Z</time></trkpt><trkpt lat="43.86407370502386" lon="11.562843271878936"><ele>214.60000000000002</ele><time>2026-04-25T09:26:30.918Z</time></trkpt><trkpt lat="43.86413979220792" lon="11.562723862373488"><ele>215.39999999999998</ele><time>2026-04-25T09:26:31.918Z</time></trkpt><trkpt lat="43.86418919562564" lon="11.562602970254558"><ele>216.2</ele><time>2026-04-25T09:26:32.918Z</time></trkpt><trkpt lat="43.8642497264835" lon="11.562492518006732"><ele>217.0</ele><time>2026-04-25T09:26:33.918Z</time></trkpt><trkpt lat="43.864298487544204" lon="11.562378178938811"><ele>217.0</ele><time>2026-04-25T09:26:34.918Z</time></trkpt><trkpt lat="43.86435293515047" lon="11.562257454919001"><ele>217.0</ele><time>2026-04-25T09:26:35.918Z</time></trkpt><trkpt lat="43.864416803511624" lon="11.56216210559285"><ele>217.0</ele><time>2026-04-25T09:26:36.918Z</time></trkpt><trkpt lat="43.864467780899766" lon="11.56205152668009"><ele>217.0</ele><time>2026-04-25T09:26:37.918Z</time></trkpt><trkpt lat="43.86453043124092" lon="11.561932197981873"><ele>217.0</ele><time>2026-04-25T09:26:38.918Z</time></trkpt><trkpt lat="43.8645862775213" lon="11.561826584747081"><ele>215.0</ele><time>2026-04-25T09:26:39.918Z</time></trkpt><trkpt lat="43.864641322052" lon="11.561696925758566"><ele>213.0</ele><time>2026-04-25T09:26:40.918Z</time></trkpt><trkpt lat="43.86470983221812" lon="11.56157845306262"><ele>211.0</ele><time>2026-04-25T09:26:41.918Z</time></trkpt><trkpt lat="43.864767944573096" lon="11.561452707447291"><ele>209.0</ele><time>2026-04-25T09:26:42.918Z</time></trkpt><trkpt lat="43.864831282048165" lon="11.561328225606976"><ele>207.0</ele><time>2026-04-25T09:26:43.918Z</time></trkpt><trkpt lat="43.86489180535615" lon="11.561189271493623"><ele>205.39999999999998</ele><time>2026-04-25T09:26:44.918Z</time></trkpt><trkpt lat="43.86495188609694" lon="11.561061999258245"><ele>203.79999999999998</ele><time>2026-04-25T09:26:45.918Z</time></trkpt><trkpt lat="43.865012353269094" lon="11.560937653591123"><ele>202.2</ele><time>2026-04-25T09:26:46.918Z</time></trkpt><trkpt lat="43.86507491717462" lon="11.560813046549207"><ele>200.6</ele><time>2026-04-25T09:26:47.918Z</time></trkpt><trkpt lat="43.86513585632463" lon="11.560691567531126"><ele>199.0</ele><time>2026-04-25T09:26:48.918Z</time></trkpt><trkpt lat="43.86519140262008" lon="11.560571464651801"><ele>201.2</ele><time>2026-04-25T09:26:49.918Z</time></trkpt><trkpt lat="43.86526088139865" lon="11.560445019783254"><ele>203.39999999999998</ele><time>2026-04-25T09:26:50.918Z</time></trkpt><trkpt lat="43.8653213711283" lon="11.560317720919535"><ele>205.6</ele><time>2026-04-25T09:26:51.918Z</time></trkpt><trkpt lat="43.865377384364706" lon="11.560187503700318"><ele>207.8</ele><time>2026-04-25T09:26:52.918Z</time></trkpt><trkpt lat="43.86542976010498" lon="11.560061156733335"><ele>210.0</ele><time>2026-04-25T09:26:53.918Z</time></trkpt><trkpt lat="43.86547686737923" lon="11.559924056507812"><ele>210.0</ele><time>2026-04-25T09:26:54.918Z</time></trkpt><trkpt lat="43.865520832311645" lon="11.559785882343075"><ele>210.0</ele><time>2026-04-25T09:26:55.918Z</time></trkpt><trkpt lat="43.86556281141876" lon="11.559636979305091"><ele>210.0</ele><time>2026-04-25T09:26:56.918Z</time></trkpt><trkpt lat="43.86558950030229" lon="11.559485202916322"><ele>210.0</ele><time>2026-04-25T09:26:57.918Z</time></trkpt><trkpt lat="43.86561776735198" lon="11.559336517964073"><ele>210.0</ele><time>2026-04-25T09:26:58.918Z</time></trkpt><trkpt lat="43.865641233151074" lon="11.559198666955686"><ele>209.25</ele><time>2026-04-25T09:26:59.918Z</time></trkpt><trkpt lat="43.865664648019646" lon="11.55905036894374"><ele>208.5</ele><time>2026-04-25T09:27:00.918Z</time></trkpt><trkpt lat="43.8656859502512" lon="11.558893429387043"><ele>207.75</ele><time>2026-04-25T09:27:01.918Z</time></trkpt><trkpt lat="43.865709552846766" lon="11.558723498571176"><ele>207.0</ele><time>2026-04-25T09:27:02.918Z</time></trkpt><trkpt lat="43.86572860098593" lon="11.55854854079479"><ele>207.0</ele><time>2026-04-25T09:27:03.918Z</time></trkpt><trkpt lat="43.86574960985151" lon="11.55835973419692"><ele>207.0</ele><time>2026-04-25T09:27:04.916Z</time></trkpt><trkpt lat="43.865788253335346" lon="11.558169633475522"><ele>207.0</ele><time>2026-04-25T09:27:05.916Z</time></trkpt><trkpt lat="43.86578963347449" lon="11.55797505784719"><ele>207.0</ele><time>2026-04-25T09:27:06.916Z</time></trkpt><trkpt lat="43.865821652784284" lon="11.557787942904652"><ele>205.75</ele><time>2026-04-25T09:27:07.916Z</time></trkpt><trkpt lat="43.8658340857144" lon="11.557599055242143"><ele>204.5</ele><time>2026-04-25T09:27:08.915Z</time></trkpt><trkpt lat="43.865845852299145" lon="11.557392638831992"><ele>203.25</ele><time>2026-04-25T09:27:09.915Z</time></trkpt><trkpt lat="43.8658592597062" lon="11.557179173532552"><ele>202.0</ele><time>2026-04-25T09:27:10.916Z</time></trkpt><trkpt lat="43.86587263010683" lon="11.556957384730929"><ele>199.75</ele><time>2026-04-25T09:27:11.916Z</time></trkpt><trkpt lat="43.865885543380614" lon="11.556743217391485"><ele>197.5</ele><time>2026-04-25T09:27:12.916Z</time></trkpt><trkpt lat="43.86587578570787" lon="11.556544747768571"><ele>195.25</ele><time>2026-04-25T09:27:13.915Z</time></trkpt><trkpt lat="43.865899691712336" lon="11.556358396605926"><ele>193.0</ele><time>2026-04-25T09:27:14.916Z</time></trkpt><trkpt lat="43.86591131538945" lon="11.556166767762923"><ele>192.5</ele><time>2026-04-25T09:27:15.916Z</time></trkpt><trkpt lat="43.86592404976434" lon="11.555986959131243"><ele>192.0</ele><time>2026-04-25T09:27:16.916Z</time></trkpt><trkpt lat="43.86592880624005" lon="11.555810068653427"><ele>191.5</ele><time>2026-04-25T09:27:17.916Z</time></trkpt><trkpt lat="43.8659393879092" lon="11.555636159293535"><ele>191.0</ele><time>2026-04-25T09:27:18.916Z</time></trkpt><trkpt lat="43.86593574819055" lon="11.55546425918211"><ele>192.0</ele><time>2026-04-25T09:27:19.916Z</time></trkpt><trkpt lat="43.8658964707117" lon="11.555285664944448"><ele>193.0</ele><time>2026-04-25T09:27:20.916Z</time></trkpt><trkpt lat="43.86582771088165" lon="11.555122045226188"><ele>194.0</ele><time>2026-04-25T09:27:21.916Z</time></trkpt><trkpt lat="43.86573141581907" lon="11.554965641102124"><ele>195.0</ele><time>2026-04-25T09:27:22.916Z</time></trkpt><trkpt lat="43.865638153245314" lon="11.554829515354573"><ele>195.0</ele><time>2026-04-25T09:27:23.916Z</time></trkpt><trkpt lat="43.86554010442383" lon="11.554701676174288"><ele>195.0</ele><time>2026-04-25T09:27:24.916Z</time></trkpt><trkpt lat="43.86547523134359" lon="11.55456218453478"><ele>195.0</ele><time>2026-04-25T09:27:25.916Z</time></trkpt><trkpt lat="43.86543376293558" lon="11.554410441408296"><ele>195.0</ele><time>2026-04-25T09:27:26.916Z</time></trkpt><trkpt lat="43.86542145048258" lon="11.554249188023714"><ele>193.75</ele><time>2026-04-25T09:27:27.916Z</time></trkpt><trkpt lat="43.86543714493435" lon="11.554093156044939"><ele>192.5</ele><time>2026-04-25T09:27:28.916Z</time></trkpt><trkpt lat="43.865478508607055" lon="11.553927856081037"><ele>191.25</ele><time>2026-04-25T09:27:29.916Z</time></trkpt><trkpt lat="43.86553027828315" lon="11.553754891471646"><ele>190.0</ele><time>2026-04-25T09:27:30.916Z</time></trkpt><trkpt lat="43.86559837492508" lon="11.553564927134776"><ele>188.33333333333334</ele><time>2026-04-25T09:27:31.916Z</time></trkpt><trkpt lat="43.86566654142233" lon="11.55336511326842"><ele>186.66666666666666</ele><time>2026-04-25T09:27:32.916Z</time></trkpt><trkpt lat="43.86573280783967" lon="11.55315264770269"><ele>185.0</ele><time>2026-04-25T09:27:33.916Z</time></trkpt><trkpt lat="43.86579491821194" lon="11.552945885803648"><ele>184.66666666666666</ele><time>2026-04-25T09:27:34.916Z</time></trkpt><trkpt lat="43.865845093012865" lon="11.552728725983075"><ele>184.33333333333334</ele><time>2026-04-25T09:27:35.916Z</time></trkpt><trkpt lat="43.865886832242474" lon="11.552497284915185"><ele>184.0</ele><time>2026-04-25T09:27:36.916Z</time></trkpt><trkpt lat="43.86591963555115" lon="11.552271073814104"><ele>195.66666666666669</ele><time>2026-04-25T09:27:37.916Z</time></trkpt><trkpt lat="43.865946939916185" lon="11.55204874722405"><ele>207.33333333333334</ele><time>2026-04-25T09:27:38.916Z</time></trkpt><trkpt lat="43.86596249716913" lon="11.551835597745551"><ele>219.0</ele><time>2026-04-25T09:27:39.916Z</time></trkpt><trkpt lat="43.86597886147011" lon="11.551630768133222"><ele>219.0</ele><time>2026-04-25T09:27:40.916Z</time></trkpt><trkpt lat="43.866000444085536" lon="11.551439516500903"><ele>219.0</ele><time>2026-04-25T09:27:41.916Z</time></trkpt><trkpt lat="43.86602206845014" lon="11.55124318249767"><ele>219.0</ele><time>2026-04-25T09:27:42.916Z</time></trkpt><trkpt lat="43.8660283026544" lon="11.551043937029052"><ele>219.0</ele><time>2026-04-25T09:27:43.916Z</time></trkpt><trkpt lat="43.866031525815416" lon="11.550851257743716"><ele>217.25</ele><time>2026-04-25T09:27:44.916Z</time></trkpt><trkpt lat="43.866029321226904" lon="11.550655406839185"><ele>215.5</ele><time>2026-04-25T09:27:45.916Z</time></trkpt><trkpt lat="43.865980033642494" lon="11.55047803023446"><ele>213.75</ele><time>2026-04-25T09:27:46.916Z</time></trkpt><trkpt lat="43.865913635273756" lon="11.550279101429899"><ele>212.0</ele><time>2026-04-25T09:27:47.916Z</time></trkpt><trkpt lat="43.86582816316398" lon="11.550089557114216"><ele>202.0</ele><time>2026-04-25T09:27:48.916Z</time></trkpt><trkpt lat="43.86572964615933" lon="11.549914425378281"><ele>192.0</ele><time>2026-04-25T09:27:49.916Z</time></trkpt><trkpt lat="43.86563840283864" lon="11.549745565977645"><ele>182.0</ele><time>2026-04-25T09:27:50.916Z</time></trkpt><trkpt lat="43.86555419244141" lon="11.549577940204522"><ele>185.5</ele><time>2026-04-25T09:27:51.916Z</time></trkpt><trkpt lat="43.8654666420654" lon="11.549414120374497"><ele>189.0</ele><time>2026-04-25T09:27:52.916Z</time></trkpt><trkpt lat="43.86538442561634" lon="11.54924963133189"><ele>192.5</ele><time>2026-04-25T09:27:53.916Z</time></trkpt><trkpt lat="43.86530653361384" lon="11.549087042082244"><ele>196.0</ele><time>2026-04-25T09:27:54.916Z</time></trkpt><trkpt lat="43.86522835449167" lon="11.548911295631395"><ele>196.0</ele><time>2026-04-25T09:27:55.916Z</time></trkpt><trkpt lat="43.8651792502128" lon="11.548730695677833"><ele>196.0</ele><time>2026-04-25T09:27:56.916Z</time></trkpt><trkpt lat="43.86512640517826" lon="11.548553040755532"><ele>196.0</ele><time>2026-04-25T09:27:57.916Z</time></trkpt><trkpt lat="43.86507752848892" lon="11.5483646641697"><ele>196.0</ele><time>2026-04-25T09:27:58.916Z</time></trkpt><trkpt lat="43.86504332005964" lon="11.548150745076317"><ele>189.33333333333331</ele><time>2026-04-25T09:27:59.916Z</time></trkpt><trkpt lat="43.865016250128555" lon="11.54791786263783"><ele>182.66666666666666</ele><time>2026-04-25T09:28:00.916Z</time></trkpt><trkpt lat="43.86499200166941" lon="11.547680326553229"><ele>176.0</ele><time>2026-04-25T09:28:01.916Z</time></trkpt><trkpt lat="43.86496518320456" lon="11.547432786528088"><ele>176.0</ele><time>2026-04-25T09:28:02.916Z</time></trkpt><trkpt lat="43.864935014276035" lon="11.547184298566608"><ele>176.0</ele><time>2026-04-25T09:28:03.916Z</time></trkpt><trkpt lat="43.8649062777475" lon="11.546936404429584"><ele>176.0</ele><time>2026-04-25T09:28:04.916Z</time></trkpt><trkpt lat="43.86488199629739" lon="11.546699856474177"><ele>176.0</ele><time>2026-04-25T09:28:05.916Z</time></trkpt><trkpt lat="43.86486219391744" lon="11.546470117051939"><ele>176.0</ele><time>2026-04-25T09:28:06.916Z</time></trkpt><trkpt lat="43.86484794421135" lon="11.546246816442869"><ele>176.0</ele><time>2026-04-25T09:28:07.916Z</time></trkpt><trkpt lat="43.8648312544321" lon="11.546005898144267"><ele>176.33333333333331</ele><time>2026-04-25T09:28:08.916Z</time></trkpt><trkpt lat="43.86481052138727" lon="11.54575791596784"><ele>176.66666666666666</ele><time>2026-04-25T09:28:09.916Z</time></trkpt><trkpt lat="43.86479119841555" lon="11.54551139983414"><ele>177.0</ele><time>2026-04-25T09:28:10.916Z</time></trkpt><trkpt lat="43.864770721323865" lon="11.545261102454182"><ele>177.66666666666666</ele><time>2026-04-25T09:28:11.916Z</time></trkpt><trkpt lat="43.86473813048646" lon="11.545018934083632"><ele>178.33333333333331</ele><time>2026-04-25T09:28:12.916Z</time></trkpt><trkpt lat="43.86471299243044" lon="11.544787755524059"><ele>179.0</ele><time>2026-04-25T09:28:13.916Z</time></trkpt><trkpt lat="43.864680398575835" lon="11.544570755942189"><ele>180.0</ele><time>2026-04-25T09:28:14.916Z</time></trkpt><trkpt lat="43.864652564853344" lon="11.544353941188822"><ele>181.0</ele><time>2026-04-25T09:28:15.916Z</time></trkpt><trkpt lat="43.86462120011711" lon="11.544146849682102"><ele>182.0</ele><time>2026-04-25T09:28:16.916Z</time></trkpt><trkpt lat="43.86459453661551" lon="11.543944768055308"><ele>182.0</ele><time>2026-04-25T09:28:17.916Z</time></trkpt><trkpt lat="43.864564754420876" lon="11.543757285239442"><ele>182.0</ele><time>2026-04-25T09:28:18.916Z</time></trkpt><trkpt lat="43.86453787141869" lon="11.543571967624475"><ele>182.0</ele><time>2026-04-25T09:28:19.916Z</time></trkpt><trkpt lat="43.864505987569615" lon="11.54339679792873"><ele>182.0</ele><time>2026-04-25T09:28:20.916Z</time></trkpt><trkpt lat="43.86447742363287" lon="11.543214823383769"><ele>183.25</ele><time>2026-04-25T09:28:21.916Z</time></trkpt><trkpt lat="43.86445083981528" lon="11.543053118387565"><ele>184.5</ele><time>2026-04-25T09:28:22.916Z</time></trkpt><trkpt lat="43.864401417181725" lon="11.542896409972565"><ele>185.75</ele><time>2026-04-25T09:28:23.916Z</time></trkpt><trkpt lat="43.864331360351635" lon="11.542756611372166"><ele>187.0</ele><time>2026-04-25T09:28:24.916Z</time></trkpt><trkpt lat="43.8642330591409" lon="11.542618417356849"><ele>182.0</ele><time>2026-04-25T09:28:25.916Z</time></trkpt><trkpt lat="43.86412551393888" lon="11.542519333651658"><ele>177.0</ele><time>2026-04-25T09:28:26.916Z</time></trkpt><trkpt lat="43.864039675389726" lon="11.542427557665972"><ele>172.0</ele><time>2026-04-25T09:28:27.916Z</time></trkpt><trkpt lat="43.8639596418226" lon="11.542313295686586"><ele>167.0</ele><time>2026-04-25T09:28:28.916Z</time></trkpt><trkpt lat="43.86390811667195" lon="11.542172118572639"><ele>168.5</ele><time>2026-04-25T09:28:29.916Z</time></trkpt><trkpt lat="43.86386810915283" lon="11.542014209888421"><ele>170.0</ele><time>2026-04-25T09:28:30.916Z</time></trkpt><trkpt lat="43.863850850406145" lon="11.541846421526877"><ele>171.5</ele><time>2026-04-25T09:28:31.916Z</time></trkpt><trkpt lat="43.86385167178019" lon="11.541659156898353"><ele>173.0</ele><time>2026-04-25T09:28:32.916Z</time></trkpt><trkpt lat="43.86385007712546" lon="11.541458078492324"><ele>173.0</ele><time>2026-04-25T09:28:33.916Z</time></trkpt><trkpt lat="43.86385325965824" lon="11.54125149968748"><ele>173.0</ele><time>2026-04-25T09:28:34.916Z</time></trkpt><trkpt lat="43.86385753644059" lon="11.541050253022837"><ele>173.0</ele><time>2026-04-25T09:28:35.916Z</time></trkpt><trkpt lat="43.86385978555512" lon="11.540839389976792"><ele>173.0</ele><time>2026-04-25T09:28:36.916Z</time></trkpt><trkpt lat="43.86385774103434" lon="11.540637824825186"><ele>172.5</ele><time>2026-04-25T09:28:37.916Z</time></trkpt><trkpt lat="43.86385248537471" lon="11.540448348269386"><ele>172.0</ele><time>2026-04-25T09:28:38.915Z</time></trkpt><trkpt lat="43.86384317547389" lon="11.540264479393432"><ele>171.5</ele><time>2026-04-25T09:28:39.915Z</time></trkpt><trkpt lat="43.86382115730283" lon="11.540082604890578"><ele>171.0</ele><time>2026-04-25T09:28:40.915Z</time></trkpt><trkpt lat="43.863778027798034" lon="11.539915599714803"><ele>170.75</ele><time>2026-04-25T09:28:41.915Z</time></trkpt><trkpt lat="43.86373225905298" lon="11.539738071059684"><ele>170.5</ele><time>2026-04-25T09:28:42.915Z</time></trkpt><trkpt lat="43.86367598603675" lon="11.539564023640231"><ele>170.25</ele><time>2026-04-25T09:28:43.915Z</time></trkpt><trkpt lat="43.86362041579723" lon="11.539401805825545"><ele>170.0</ele><time>2026-04-25T09:28:44.915Z</time></trkpt><trkpt lat="43.86356602293425" lon="11.539240478982897"><ele>170.0</ele><time>2026-04-25T09:28:45.915Z</time></trkpt><trkpt lat="43.863517421526865" lon="11.539082228108006"><ele>170.0</ele><time>2026-04-25T09:28:46.915Z</time></trkpt><trkpt lat="43.86348980048963" lon="11.538938846336436"><ele>170.0</ele><time>2026-04-25T09:28:47.915Z</time></trkpt><trkpt lat="43.86348557194753" lon="11.538798787561277"><ele>170.0</ele><time>2026-04-25T09:28:48.915Z</time></trkpt><trkpt lat="43.863485282041246" lon="11.53864195116748"><ele>170.0</ele><time>2026-04-25T09:28:49.915Z</time></trkpt><trkpt lat="43.863510494225956" lon="11.538470308651043"><ele>169.5</ele><time>2026-04-25T09:28:50.915Z</time></trkpt><trkpt lat="43.86353657495117" lon="11.538298848222299"><ele>169.0</ele><time>2026-04-25T09:28:51.915Z</time></trkpt><trkpt lat="43.86356390481312" lon="11.53813087323719"><ele>168.5</ele><time>2026-04-25T09:28:52.915Z</time></trkpt><trkpt lat="43.863582966154304" lon="11.53795713718256"><ele>168.0</ele><time>2026-04-25T09:28:53.915Z</time></trkpt><trkpt lat="43.86361020575667" lon="11.537780555874718"><ele>167.5</ele><time>2026-04-25T09:28:54.915Z</time></trkpt><trkpt lat="43.86362969132478" lon="11.537603773189542"><ele>167.0</ele><time>2026-04-25T09:28:55.915Z</time></trkpt><trkpt lat="43.8636331093267" lon="11.537415112933703"><ele>166.5</ele><time>2026-04-25T09:28:56.915Z</time></trkpt><trkpt lat="43.863627753361754" lon="11.537234212723005"><ele>166.0</ele><time>2026-04-25T09:28:57.915Z</time></trkpt><trkpt lat="43.86359627468513" lon="11.537051327409854"><ele>166.0</ele><time>2026-04-25T09:28:58.915Z</time></trkpt><trkpt lat="43.86355795601524" lon="11.536866424582824"><ele>166.0</ele><time>2026-04-25T09:28:59.915Z</time></trkpt><trkpt lat="43.86352186234869" lon="11.53669190877988"><ele>166.0</ele><time>2026-04-25T09:29:00.915Z</time></trkpt><trkpt lat="43.863489818824824" lon="11.536523806677199"><ele>166.0</ele><time>2026-04-25T09:29:01.915Z</time></trkpt><trkpt lat="43.86346180765748" lon="11.536355209087729"><ele>161.75</ele><time>2026-04-25T09:29:02.915Z</time></trkpt><trkpt lat="43.86343994066211" lon="11.53619289699526"><ele>157.5</ele><time>2026-04-25T09:29:03.915Z</time></trkpt><trkpt lat="43.863417119569306" lon="11.536011573893557"><ele>153.25</ele><time>2026-04-25T09:29:04.915Z</time></trkpt><trkpt lat="43.86340310612553" lon="11.535822656067634"><ele>149.0</ele><time>2026-04-25T09:29:05.915Z</time></trkpt><trkpt lat="43.86340431322889" lon="11.535617815911582"><ele>149.0</ele><time>2026-04-25T09:29:06.915Z</time></trkpt><trkpt lat="43.86342250083624" lon="11.535403208599096"><ele>149.0</ele><time>2026-04-25T09:29:07.915Z</time></trkpt><trkpt lat="43.86343728895953" lon="11.535199649599123"><ele>149.0</ele><time>2026-04-25T09:29:08.915Z</time></trkpt><trkpt lat="43.863451172631876" lon="11.535005278165848"><ele>149.0</ele><time>2026-04-25T09:29:09.915Z</time></trkpt><trkpt lat="43.86348312389966" lon="11.534823638926076"><ele>152.5</ele><time>2026-04-25T09:29:10.913Z</time></trkpt><trkpt lat="43.86349770386571" lon="11.534644431505177"><ele>156.0</ele><time>2026-04-25T09:29:11.913Z</time></trkpt><trkpt lat="43.86350374984462" lon="11.534469755199117"><ele>159.5</ele><time>2026-04-25T09:29:12.913Z</time></trkpt><trkpt lat="43.863497242981786" lon="11.534301332780444"><ele>163.0</ele><time>2026-04-25T09:29:13.914Z</time></trkpt><trkpt lat="43.86346635357991" lon="11.534131841595583"><ele>159.6</ele><time>2026-04-25T09:29:14.914Z</time></trkpt><trkpt lat="43.86344415452923" lon="11.533972547315699"><ele>156.20000000000002</ele><time>2026-04-25T09:29:15.914Z</time></trkpt><trkpt lat="43.86342207412429" lon="11.533825102397257"><ele>152.8</ele><time>2026-04-25T09:29:16.914Z</time></trkpt><trkpt lat="43.86340691987371" lon="11.533687666158512"><ele>149.4</ele><time>2026-04-25T09:29:17.913Z</time></trkpt><trkpt lat="43.8633883927085" lon="11.533544814595299"><ele>146.0</ele><time>2026-04-25T09:29:18.913Z</time></trkpt><trkpt lat="43.86336349155758" lon="11.533404056993962"><ele>145.66666666666666</ele><time>2026-04-25T09:29:19.913Z</time></trkpt><trkpt lat="43.86334497077918" lon="11.53327664014652"><ele>145.33333333333331</ele><time>2026-04-25T09:29:20.913Z</time></trkpt><trkpt lat="43.86332687019612" lon="11.533161798989331"><ele>145.0</ele><time>2026-04-25T09:29:21.913Z</time></trkpt><trkpt lat="43.86332680403278" lon="11.533044275828937"><ele>144.66666666666666</ele><time>2026-04-25T09:29:22.913Z</time></trkpt><trkpt lat="43.8633132499118" lon="11.532940776870985"><ele>144.33333333333334</ele><time>2026-04-25T09:29:23.913Z</time></trkpt><trkpt lat="43.86329892430818" lon="11.532831386988448"><ele>144.0</ele><time>2026-04-25T09:29:24.913Z</time></trkpt><trkpt lat="43.863264844126064" lon="11.532681707205066"><ele>144.0</ele><time>2026-04-25T09:29:26.913Z</time></trkpt><trkpt lat="43.8632432690419" lon="11.53253911476306"><ele>144.0</ele><time>2026-04-25T09:29:28.913Z</time></trkpt><trkpt lat="43.863231113613544" lon="11.53245197786781"><ele>144.0</ele><time>2026-04-25T09:29:29.913Z</time></trkpt><trkpt lat="43.86321328274906" lon="11.53234102045568"><ele>144.0</ele><time>2026-04-25T09:29:30.913Z</time></trkpt><trkpt lat="43.86319642430756" lon="11.532210335962242"><ele>144.0</ele><time>2026-04-25T09:29:31.913Z</time></trkpt><trkpt lat="43.86319574306838" lon="11.532099995403748"><ele>144.0</ele><time>2026-04-25T09:29:32.913Z</time></trkpt><trkpt lat="43.863185697262814" lon="11.531998748068435"><ele>143.83333333333334</ele><time>2026-04-25T09:29:33.913Z</time></trkpt><trkpt lat="43.86316817690399" lon="11.531849494471842"><ele>143.66666666666666</ele><time>2026-04-25T09:29:35.913Z</time></trkpt><trkpt lat="43.863156437773426" lon="11.531755500460198"><ele>143.5</ele><time>2026-04-25T09:29:37.913Z</time></trkpt><trkpt lat="43.86314033470349" lon="11.531614200077453"><ele>143.33333333333331</ele><time>2026-04-25T09:29:39.913Z</time></trkpt><trkpt lat="43.863120812222256" lon="11.531492210736122"><ele>143.16666666666666</ele><time>2026-04-25T09:29:41.913Z</time></trkpt><trkpt lat="43.863089231870404" lon="11.531398547538025"><ele>143.0</ele><time>2026-04-25T09:29:49.913Z</time></trkpt><trkpt lat="43.86309138801109" lon="11.531283908997787"><ele>142.4</ele><time>2026-04-25T09:30:13.913Z</time></trkpt><trkpt lat="43.863115941242384" lon="11.531155036115129"><ele>141.8</ele><time>2026-04-25T09:30:32.913Z</time></trkpt><trkpt lat="43.86317635888954" lon="11.531108410502538"><ele>141.2</ele><time>2026-04-25T09:30:33.913Z</time></trkpt><trkpt lat="43.86327455770326" lon="11.531091513058987"><ele>140.6</ele><time>2026-04-25T09:30:34.913Z</time></trkpt><trkpt lat="43.86338027907024" lon="11.531088132840399"><ele>140.0</ele><time>2026-04-25T09:30:35.913Z</time></trkpt><trkpt lat="43.86348573597429" lon="11.531068375298242"><ele>140.0</ele><time>2026-04-25T09:30:36.913Z</time></trkpt><trkpt lat="43.86359255967448" lon="11.531029813314834"><ele>140.0</ele><time>2026-04-25T09:30:37.913Z</time></trkpt><trkpt lat="43.863708944937684" lon="11.530978698662768"><ele>140.0</ele><time>2026-04-25T09:30:38.913Z</time></trkpt><trkpt lat="43.86382505536321" lon="11.530921013160448"><ele>140.0</ele><time>2026-04-25T09:30:39.913Z</time></trkpt><trkpt lat="43.86394249817284" lon="11.530889378783481"><ele>140.0</ele><time>2026-04-25T09:30:40.912Z</time></trkpt><trkpt lat="43.864061806617904" lon="11.530848156636486"><ele>140.0</ele><time>2026-04-25T09:30:41.912Z</time></trkpt><trkpt lat="43.86419271831443" lon="11.530835336000317"><ele>140.0</ele><time>2026-04-25T09:30:42.912Z</time></trkpt><trkpt lat="43.86434697985726" lon="11.530847792760548"><ele>140.0</ele><time>2026-04-25T09:30:43.912Z</time></trkpt><trkpt lat="43.86450897150077" lon="11.530852687542822"><ele>140.25</ele><time>2026-04-25T09:30:44.912Z</time></trkpt><trkpt lat="43.86465121979357" lon="11.530856735750492"><ele>140.5</ele><time>2026-04-25T09:30:45.912Z</time></trkpt><trkpt lat="43.86479782244228" lon="11.530845429621928"><ele>140.75</ele><time>2026-04-25T09:30:46.912Z</time></trkpt><trkpt lat="43.86492965978802" lon="11.53081998817264"><ele>141.0</ele><time>2026-04-25T09:30:47.912Z</time></trkpt><trkpt lat="43.86505123114662" lon="11.53074739927257"><ele>141.0</ele><time>2026-04-25T09:30:48.912Z</time></trkpt><trkpt lat="43.86518752920835" lon="11.53068947186093"><ele>141.0</ele><time>2026-04-25T09:30:49.912Z</time></trkpt><trkpt lat="43.8653185771629" lon="11.530583885582109"><ele>141.0</ele><time>2026-04-25T09:30:50.912Z</time></trkpt><trkpt lat="43.865470062228475" lon="11.530501942395118"><ele>141.0</ele><time>2026-04-25T09:30:51.912Z</time></trkpt><trkpt lat="43.86562638169584" lon="11.530423032480332"><ele>141.0</ele><time>2026-04-25T09:30:52.912Z</time></trkpt><trkpt lat="43.86578925010603" lon="11.530346192528802"><ele>141.0</ele><time>2026-04-25T09:30:53.912Z</time></trkpt><trkpt lat="43.86594728546038" lon="11.530272371880596"><ele>141.33333333333334</ele><time>2026-04-25T09:30:54.912Z</time></trkpt><trkpt lat="43.86609512501115" lon="11.530200529179206"><ele>141.66666666666669</ele><time>2026-04-25T09:30:55.912Z</time></trkpt><trkpt lat="43.866244804301175" lon="11.53014117322733"><ele>142.0</ele><time>2026-04-25T09:30:56.912Z</time></trkpt><trkpt lat="43.86638677657485" lon="11.530078990477605"><ele>142.0</ele><time>2026-04-25T09:30:57.912Z</time></trkpt><trkpt lat="43.8665329272202" lon="11.53002918106245"><ele>142.0</ele><time>2026-04-25T09:30:58.912Z</time></trkpt><trkpt lat="43.86668086543172" lon="11.529998511432277"><ele>142.0</ele><time>2026-04-25T09:30:59.912Z</time></trkpt><trkpt lat="43.86682593494916" lon="11.529981395372175"><ele>142.0</ele><time>2026-04-25T09:31:00.912Z</time></trkpt><trkpt lat="43.866977910271544" lon="11.529966071885289"><ele>142.0</ele><time>2026-04-25T09:31:01.912Z</time></trkpt><trkpt lat="43.86713555657454" lon="11.529984415420817"><ele>142.0</ele><time>2026-04-25T09:31:02.912Z</time></trkpt><trkpt lat="43.86730678540429" lon="11.529975839684562"><ele>142.0</ele><time>2026-04-25T09:31:03.912Z</time></trkpt><trkpt lat="43.86747165920392" lon="11.529999695447223"><ele>143.0</ele><time>2026-04-25T09:31:04.912Z</time></trkpt><trkpt lat="43.86763152087576" lon="11.530005171014219"><ele>144.0</ele><time>2026-04-25T09:31:05.912Z</time></trkpt><trkpt lat="43.86777039436515" lon="11.53000728210217"><ele>145.0</ele><time>2026-04-25T09:31:06.912Z</time></trkpt><trkpt lat="43.86789549625995" lon="11.53004097875087"><ele>146.0</ele><time>2026-04-25T09:31:07.912Z</time></trkpt><trkpt lat="43.86801627062033" lon="11.530036129385824"><ele>146.0</ele><time>2026-04-25T09:31:08.912Z</time></trkpt><trkpt lat="43.86812820568274" lon="11.530046078973967"><ele>146.0</ele><time>2026-04-25T09:31:09.912Z</time></trkpt><trkpt lat="43.86824432937357" lon="11.530044766366993"><ele>146.0</ele><time>2026-04-25T09:31:10.912Z</time></trkpt><trkpt lat="43.868362036988145" lon="11.530021663129272"><ele>146.0</ele><time>2026-04-25T09:31:11.912Z</time></trkpt><trkpt lat="43.86847678830035" lon="11.529988081249721"><ele>147.2</ele><time>2026-04-25T09:31:12.912Z</time></trkpt><trkpt lat="43.86858718799007" lon="11.529946243705705"><ele>148.39999999999998</ele><time>2026-04-25T09:31:13.912Z</time></trkpt><trkpt lat="43.868696073499734" lon="11.529919875579468"><ele>149.6</ele><time>2026-04-25T09:31:14.912Z</time></trkpt><trkpt lat="43.868801098397604" lon="11.529888569995352"><ele>150.79999999999998</ele><time>2026-04-25T09:31:15.912Z</time></trkpt><trkpt lat="43.868896730797694" lon="11.529853318585088"><ele>152.0</ele><time>2026-04-25T09:31:16.911Z</time></trkpt><trkpt lat="43.86899270170493" lon="11.529815659123232"><ele>152.0</ele><time>2026-04-25T09:31:17.91Z</time></trkpt><trkpt lat="43.86908872808687" lon="11.529783206049885"><ele>152.0</ele><time>2026-04-25T09:31:18.91Z</time></trkpt><trkpt lat="43.86918595839663" lon="11.529748086052422"><ele>152.0</ele><time>2026-04-25T09:31:19.911Z</time></trkpt><trkpt lat="43.86927940612071" lon="11.529734083454365"><ele>152.0</ele><time>2026-04-25T09:31:20.911Z</time></trkpt><trkpt lat="43.86937237021593" lon="11.52973350226845"><ele>152.0</ele><time>2026-04-25T09:31:21.911Z</time></trkpt><trkpt lat="43.869469996398934" lon="11.529761467935328"><ele>151.2</ele><time>2026-04-25T09:31:22.911Z</time></trkpt><trkpt lat="43.86957072566247" lon="11.529833432065336"><ele>150.39999999999998</ele><time>2026-04-25T09:31:23.91Z</time></trkpt><trkpt lat="43.86966745851169" lon="11.529922569922983"><ele>149.60000000000002</ele><time>2026-04-25T09:31:24.91Z</time></trkpt><trkpt lat="43.86976076266559" lon="11.530006772391639"><ele>148.8</ele><time>2026-04-25T09:31:25.911Z</time></trkpt><trkpt lat="43.86984912698121" lon="11.530083055957927"><ele>148.0</ele><time>2026-04-25T09:31:26.91Z</time></trkpt><trkpt lat="43.86994070096777" lon="11.53014709747673"><ele>148.0</ele><time>2026-04-25T09:31:27.91Z</time></trkpt><trkpt lat="43.870028640147645" lon="11.530201602793266"><ele>148.0</ele><time>2026-04-25T09:31:28.91Z</time></trkpt><trkpt lat="43.87014003426946" lon="11.53023376263465"><ele>148.0</ele><time>2026-04-25T09:31:29.911Z</time></trkpt><trkpt lat="43.87025547421142" lon="11.530230401544577"><ele>148.0</ele><time>2026-04-25T09:31:30.911Z</time></trkpt><trkpt lat="43.8703826097613" lon="11.530228175204533"><ele>147.33333333333334</ele><time>2026-04-25T09:31:31.911Z</time></trkpt><trkpt lat="43.87053943054866" lon="11.530178012062331"><ele>146.66666666666666</ele><time>2026-04-25T09:31:32.911Z</time></trkpt><trkpt lat="43.87071139614994" lon="11.53013160243258"><ele>146.0</ele><time>2026-04-25T09:31:33.911Z</time></trkpt><trkpt lat="43.87089410483171" lon="11.530048872579052"><ele>147.33333333333331</ele><time>2026-04-25T09:31:34.911Z</time></trkpt><trkpt lat="43.87105636085362" lon="11.529996398128977"><ele>148.66666666666666</ele><time>2026-04-25T09:31:35.911Z</time></trkpt><trkpt lat="43.87120449536478" lon="11.529937065776075"><ele>150.0</ele><time>2026-04-25T09:31:36.911Z</time></trkpt><trkpt lat="43.871363613264954" lon="11.529878650335966"><ele>150.0</ele><time>2026-04-25T09:31:37.911Z</time></trkpt><trkpt lat="43.87150798119802" lon="11.529820496845904"><ele>150.0</ele><time>2026-04-25T09:31:38.911Z</time></trkpt><trkpt lat="43.87165032145664" lon="11.529760461113707"><ele>150.0</ele><time>2026-04-25T09:31:39.911Z</time></trkpt><trkpt lat="43.87179314394978" lon="11.529703168953665"><ele>150.0</ele><time>2026-04-25T09:31:40.911Z</time></trkpt><trkpt lat="43.87195735819886" lon="11.52965421299704"><ele>151.33333333333334</ele><time>2026-04-25T09:31:41.911Z</time></trkpt><trkpt lat="43.87213019991345" lon="11.529570619223056"><ele>152.66666666666669</ele><time>2026-04-25T09:31:42.911Z</time></trkpt><trkpt lat="43.8723245005447" lon="11.529510409287642"><ele>154.0</ele><time>2026-04-25T09:31:43.911Z</time></trkpt><trkpt lat="43.8725242435276" lon="11.52944828747507"><ele>151.66666666666669</ele><time>2026-04-25T09:31:44.911Z</time></trkpt><trkpt lat="43.872705702625176" lon="11.529389046048914"><ele>149.33333333333334</ele><time>2026-04-25T09:31:45.911Z</time></trkpt><trkpt lat="43.87287877591126" lon="11.529324068898022"><ele>147.0</ele><time>2026-04-25T09:31:46.911Z</time></trkpt><trkpt lat="43.87303593463655" lon="11.529261859120274"><ele>147.0</ele><time>2026-04-25T09:31:47.911Z</time></trkpt><trkpt lat="43.87317936434077" lon="11.529214523645994"><ele>147.0</ele><time>2026-04-25T09:31:48.911Z</time></trkpt><trkpt lat="43.87330583254907" lon="11.52917626016049"><ele>147.0</ele><time>2026-04-25T09:31:49.911Z</time></trkpt><trkpt lat="43.87343563868743" lon="11.529171809776257"><ele>147.0</ele><time>2026-04-25T09:31:50.911Z</time></trkpt><trkpt lat="43.873558441703835" lon="11.529208752862736"><ele>146.0</ele><time>2026-04-25T09:31:51.911Z</time></trkpt><trkpt lat="43.8736872353344" lon="11.529273095247333"><ele>145.0</ele><time>2026-04-25T09:31:52.911Z</time></trkpt><trkpt lat="43.87382180498872" lon="11.529376581218838"><ele>144.0</ele><time>2026-04-25T09:31:53.911Z</time></trkpt><trkpt lat="43.87396670320394" lon="11.529483909958824"><ele>146.66666666666666</ele><time>2026-04-25T09:31:54.911Z</time></trkpt><trkpt lat="43.874120358297" lon="11.529587465152241"><ele>149.33333333333331</ele><time>2026-04-25T09:31:55.911Z</time></trkpt><trkpt lat="43.87428225597836" lon="11.529690979115678"><ele>152.0</ele><time>2026-04-25T09:31:56.911Z</time></trkpt><trkpt lat="43.874431906399664" lon="11.529779750990373"><ele>152.0</ele><time>2026-04-25T09:31:57.911Z</time></trkpt><trkpt lat="43.8745863002957" lon="11.529864599776216"><ele>152.0</ele><time>2026-04-25T09:31:58.911Z</time></trkpt><trkpt lat="43.87473429521684" lon="11.529928651050092"><ele>152.0</ele><time>2026-04-25T09:31:59.911Z</time></trkpt><trkpt lat="43.874899064982166" lon="11.52997014848265"><ele>152.0</ele><time>2026-04-25T09:32:00.91Z</time></trkpt><trkpt lat="43.87506402509742" lon="11.530009698726634"><ele>152.0</ele><time>2026-04-25T09:32:01.91Z</time></trkpt><trkpt lat="43.875225231196616" lon="11.530012339374608"><ele>152.0</ele><time>2026-04-25T09:32:02.91Z</time></trkpt><trkpt lat="43.87539217577818" lon="11.529998131837408"><ele>152.0</ele><time>2026-04-25T09:32:03.91Z</time></trkpt><trkpt lat="43.87555882135911" lon="11.52996229970428"><ele>152.0</ele><time>2026-04-25T09:32:04.91Z</time></trkpt><trkpt lat="43.87572388165515" lon="11.529910898823463"><ele>152.0</ele><time>2026-04-25T09:32:05.91Z</time></trkpt><trkpt lat="43.87589429808481" lon="11.529865160731951"><ele>154.0</ele><time>2026-04-25T09:32:06.91Z</time></trkpt><trkpt lat="43.876065237096725" lon="11.529797069971847"><ele>156.0</ele><time>2026-04-25T09:32:07.91Z</time></trkpt><trkpt lat="43.87623428464479" lon="11.529741378494661"><ele>158.0</ele><time>2026-04-25T09:32:08.91Z</time></trkpt><trkpt lat="43.876403663816546" lon="11.529684771159436"><ele>158.0</ele><time>2026-04-25T09:32:09.91Z</time></trkpt><trkpt lat="43.87657627833513" lon="11.529627482529248"><ele>158.0</ele><time>2026-04-25T09:32:10.91Z</time></trkpt><trkpt lat="43.87675908624202" lon="11.52957629831077"><ele>158.0</ele><time>2026-04-25T09:32:11.91Z</time></trkpt><trkpt lat="43.876943650173494" lon="11.529546618051281"><ele>155.33333333333331</ele><time>2026-04-25T09:32:12.91Z</time></trkpt><trkpt lat="43.87712724656359" lon="11.529527938308451"><ele>152.66666666666666</ele><time>2026-04-25T09:32:13.91Z</time></trkpt><trkpt lat="43.87730651728014" lon="11.529503596081442"><ele>150.0</ele><time>2026-04-25T09:32:14.91Z</time></trkpt><trkpt lat="43.877486051428505" lon="11.529473591298705"><ele>151.0</ele><time>2026-04-25T09:32:15.91Z</time></trkpt><trkpt lat="43.87765731683666" lon="11.52944607076365"><ele>152.0</ele><time>2026-04-25T09:32:16.91Z</time></trkpt><trkpt lat="43.877815474638496" lon="11.529416849438961"><ele>153.0</ele><time>2026-04-25T09:32:17.91Z</time></trkpt><trkpt lat="43.877962910737295" lon="11.529395760368963"><ele>153.0</ele><time>2026-04-25T09:32:18.91Z</time></trkpt><trkpt lat="43.87810355096807" lon="11.529395912967685"><ele>153.0</ele><time>2026-04-25T09:32:19.91Z</time></trkpt><trkpt lat="43.87824104393044" lon="11.529419388940191"><ele>153.0</ele><time>2026-04-25T09:32:20.91Z</time></trkpt><trkpt lat="43.87838064623759" lon="11.529471439610843"><ele>153.0</ele><time>2026-04-25T09:32:21.91Z</time></trkpt><trkpt lat="43.87851302726065" lon="11.529527926721475"><ele>153.25</ele><time>2026-04-25T09:32:22.91Z</time></trkpt><trkpt lat="43.87864280075931" lon="11.529561875410238"><ele>153.5</ele><time>2026-04-25T09:32:23.91Z</time></trkpt><trkpt lat="43.87877819426503" lon="11.529562179004936"><ele>153.75</ele><time>2026-04-25T09:32:24.91Z</time></trkpt><trkpt lat="43.87891591770301" lon="11.529528985950668"><ele>154.0</ele><time>2026-04-25T09:32:25.91Z</time></trkpt><trkpt lat="43.87905036887529" lon="11.529459582174422"><ele>154.0</ele><time>2026-04-25T09:32:26.91Z</time></trkpt><trkpt lat="43.87916930938664" lon="11.529387537072068"><ele>154.0</ele><time>2026-04-25T09:32:27.91Z</time></trkpt><trkpt lat="43.8792748310344" lon="11.52932379064768"><ele>154.0</ele><time>2026-04-25T09:32:28.91Z</time></trkpt><trkpt lat="43.8793744847919" lon="11.529277675266552"><ele>154.0</ele><time>2026-04-25T09:32:29.91Z</time></trkpt><trkpt lat="43.8794565613192" lon="11.529249181132005"><ele>154.0</ele><time>2026-04-25T09:32:30.91Z</time></trkpt><trkpt lat="43.879557291328275" lon="11.529229592302297"><ele>154.25</ele><time>2026-04-25T09:32:31.91Z</time></trkpt><trkpt lat="43.87969105681017" lon="11.529259838702497"><ele>154.5</ele><time>2026-04-25T09:32:32.91Z</time></trkpt><trkpt lat="43.87980277631295" lon="11.529320278422265"><ele>154.75</ele><time>2026-04-25T09:32:33.91Z</time></trkpt><trkpt lat="43.87990949174665" lon="11.529403269639062"><ele>155.0</ele><time>2026-04-25T09:32:34.91Z</time></trkpt><trkpt lat="43.88002315079376" lon="11.529462965647978"><ele>155.2</ele><time>2026-04-25T09:32:35.91Z</time></trkpt><trkpt lat="43.88011030088277" lon="11.529521538137777"><ele>155.4</ele><time>2026-04-25T09:32:36.91Z</time></trkpt><trkpt lat="43.88019536585601" lon="11.529573949567112"><ele>155.6</ele><time>2026-04-25T09:32:37.91Z</time></trkpt><trkpt lat="43.88029606459142" lon="11.52961446752399"><ele>155.8</ele><time>2026-04-25T09:32:38.91Z</time></trkpt><trkpt lat="43.88040076269769" lon="11.529625455054726"><ele>156.0</ele><time>2026-04-25T09:32:39.91Z</time></trkpt><trkpt lat="43.88048959666662" lon="11.529628333096833"><ele>158.66666666666666</ele><time>2026-04-25T09:32:40.91Z</time></trkpt><trkpt lat="43.88057211648186" lon="11.529625840988537"><ele>161.33333333333334</ele><time>2026-04-25T09:32:41.91Z</time></trkpt><trkpt lat="43.88064744312314" lon="11.529621341954723"><ele>164.0</ele><time>2026-04-25T09:32:42.91Z</time></trkpt><trkpt lat="43.8807198581733" lon="11.529618737658968"><ele>166.66666666666669</ele><time>2026-04-25T09:32:43.91Z</time></trkpt><trkpt lat="43.88080088326125" lon="11.529613598784438"><ele>169.33333333333334</ele><time>2026-04-25T09:32:44.91Z</time></trkpt><trkpt lat="43.88089677856718" lon="11.529602002075555"><ele>172.0</ele><time>2026-04-25T09:32:45.91Z</time></trkpt><trkpt lat="43.881001189179784" lon="11.529589883725514"><ele>174.2</ele><time>2026-04-25T09:32:46.91Z</time></trkpt><trkpt lat="43.88110646737445" lon="11.529563006005425"><ele>176.39999999999998</ele><time>2026-04-25T09:32:47.91Z</time></trkpt><trkpt lat="43.881205290004644" lon="11.529518147627025"><ele>178.60000000000002</ele><time>2026-04-25T09:32:48.91Z</time></trkpt><trkpt lat="43.88129669145195" lon="11.529465336599765"><ele>180.8</ele><time>2026-04-25T09:32:49.91Z</time></trkpt><trkpt lat="43.8813924753444" lon="11.529420747850496"><ele>183.0</ele><time>2026-04-25T09:32:50.91Z</time></trkpt><trkpt lat="43.881493975101066" lon="11.529379860051197"><ele>179.2</ele><time>2026-04-25T09:32:51.91Z</time></trkpt><trkpt lat="43.88159253027089" lon="11.52934923056973"><ele>175.4</ele><time>2026-04-25T09:32:52.91Z</time></trkpt><trkpt lat="43.881688915623506" lon="11.529303865011073"><ele>171.6</ele><time>2026-04-25T09:32:53.91Z</time></trkpt><trkpt lat="43.8817728284267" lon="11.529256575443872"><ele>167.79999999999998</ele><time>2026-04-25T09:32:54.91Z</time></trkpt><trkpt lat="43.88186239039031" lon="11.529201375847402"><ele>164.0</ele><time>2026-04-25T09:32:55.91Z</time></trkpt><trkpt lat="43.88196489679007" lon="11.529150202096492"><ele>164.0</ele><time>2026-04-25T09:32:56.91Z</time></trkpt><trkpt lat="43.882071090405084" lon="11.529087984073676"><ele>164.0</ele><time>2026-04-25T09:32:57.91Z</time></trkpt><trkpt lat="43.882185250254416" lon="11.529023668386245"><ele>164.0</ele><time>2026-04-25T09:32:58.91Z</time></trkpt><trkpt lat="43.88229422488227" lon="11.528971048582823"><ele>164.0</ele><time>2026-04-25T09:32:59.91Z</time></trkpt><trkpt lat="43.88240332691717" lon="11.528922741103402"><ele>164.0</ele><time>2026-04-25T09:33:00.91Z</time></trkpt><trkpt lat="43.882518834394304" lon="11.528853563922894"><ele>164.0</ele><time>2026-04-25T09:33:01.91Z</time></trkpt><trkpt lat="43.88264168303823" lon="11.528779753830023"><ele>164.0</ele><time>2026-04-25T09:33:02.91Z</time></trkpt><trkpt lat="43.882758838323575" lon="11.528700758056415"><ele>164.0</ele><time>2026-04-25T09:33:03.91Z</time></trkpt><trkpt lat="43.88287113607469" lon="11.5286266987843"><ele>163.0</ele><time>2026-04-25T09:33:04.91Z</time></trkpt><trkpt lat="43.88297434548568" lon="11.528555814521555"><ele>162.0</ele><time>2026-04-25T09:33:05.91Z</time></trkpt><trkpt lat="43.88306760323282" lon="11.528481832856322"><ele>161.0</ele><time>2026-04-25T09:33:06.91Z</time></trkpt><trkpt lat="43.88315606572746" lon="11.528405562917698"><ele>160.0</ele><time>2026-04-25T09:33:07.91Z</time></trkpt><trkpt lat="43.88323636761026" lon="11.528319046507518"><ele>159.0</ele><time>2026-04-25T09:33:08.91Z</time></trkpt><trkpt lat="43.883313120524015" lon="11.52821118230976"><ele>159.0</ele><time>2026-04-25T09:33:09.91Z</time></trkpt><trkpt lat="43.88338702227806" lon="11.528096284620812"><ele>159.0</ele><time>2026-04-25T09:33:10.91Z</time></trkpt><trkpt lat="43.88345373258068" lon="11.527971811699418"><ele>159.0</ele><time>2026-04-25T09:33:11.91Z</time></trkpt><trkpt lat="43.88353052109433" lon="11.527839661829873"><ele>159.0</ele><time>2026-04-25T09:33:12.91Z</time></trkpt><trkpt lat="43.88360783821578" lon="11.527729568552948"><ele>159.75</ele><time>2026-04-25T09:33:13.91Z</time></trkpt><trkpt lat="43.88368275069855" lon="11.527606422016719"><ele>160.5</ele><time>2026-04-25T09:33:14.91Z</time></trkpt><trkpt lat="43.88376235038602" lon="11.527476795220332"><ele>161.25</ele><time>2026-04-25T09:33:15.91Z</time></trkpt><trkpt lat="43.88384470117192" lon="11.527337638608747"><ele>162.0</ele><time>2026-04-25T09:33:16.91Z</time></trkpt><trkpt lat="43.88393992559278" lon="11.527202917650705"><ele>162.0</ele><time>2026-04-25T09:33:17.91Z</time></trkpt><trkpt lat="43.884043291030515" lon="11.527066727214056"><ele>162.0</ele><time>2026-04-25T09:33:18.91Z</time></trkpt><trkpt lat="43.884151795420365" lon="11.526955145907083"><ele>162.0</ele><time>2026-04-25T09:33:19.91Z</time></trkpt><trkpt lat="43.88426622825151" lon="11.526837673161156"><ele>162.0</ele><time>2026-04-25T09:33:20.91Z</time></trkpt><trkpt lat="43.88438341475789" lon="11.526728964692543"><ele>161.75</ele><time>2026-04-25T09:33:21.91Z</time></trkpt><trkpt lat="43.88450776836625" lon="11.526639620806598"><ele>161.5</ele><time>2026-04-25T09:33:22.908Z</time></trkpt><trkpt lat="43.88464336695155" lon="11.526554219920424"><ele>161.25</ele><time>2026-04-25T09:33:23.908Z</time></trkpt><trkpt lat="43.884781899501185" lon="11.526482332172524"><ele>161.0</ele><time>2026-04-25T09:33:24.908Z</time></trkpt><trkpt lat="43.88492253154929" lon="11.526414450976265"><ele>161.0</ele><time>2026-04-25T09:33:25.907Z</time></trkpt><trkpt lat="43.88505738012946" lon="11.526352767094593"><ele>161.0</ele><time>2026-04-25T09:33:26.908Z</time></trkpt><trkpt lat="43.885192884587774" lon="11.526299286813842"><ele>161.0</ele><time>2026-04-25T09:33:27.908Z</time></trkpt><trkpt lat="43.88532648267657" lon="11.526240130757431"><ele>161.0</ele><time>2026-04-25T09:33:28.907Z</time></trkpt><trkpt lat="43.885460124766084" lon="11.52619549863134"><ele>160.5</ele><time>2026-04-25T09:33:29.907Z</time></trkpt><trkpt lat="43.88558769453894" lon="11.526146823829416"><ele>160.0</ele><time>2026-04-25T09:33:30.907Z</time></trkpt><trkpt lat="43.88571698654867" lon="11.526098125029588"><ele>159.5</ele><time>2026-04-25T09:33:31.908Z</time></trkpt><trkpt lat="43.885849106296554" lon="11.526042050721266"><ele>159.0</ele><time>2026-04-25T09:33:32.908Z</time></trkpt><trkpt lat="43.88598308033135" lon="11.525987210325306"><ele>159.0</ele><time>2026-04-25T09:33:33.908Z</time></trkpt><trkpt lat="43.886111915429446" lon="11.5259413690928"><ele>159.0</ele><time>2026-04-25T09:33:34.908Z</time></trkpt><trkpt lat="43.88623722567882" lon="11.525896989302852"><ele>159.0</ele><time>2026-04-25T09:33:35.907Z</time></trkpt><trkpt lat="43.886364545253876" lon="11.525851962420811"><ele>159.0</ele><time>2026-04-25T09:33:36.907Z</time></trkpt><trkpt lat="43.886499151741006" lon="11.525809065433075"><ele>159.0</ele><time>2026-04-25T09:33:37.907Z</time></trkpt><trkpt lat="43.8866328552454" lon="11.52576071505466"><ele>159.0</ele><time>2026-04-25T09:33:38.907Z</time></trkpt><trkpt lat="43.8867617039253" lon="11.525719886346057"><ele>159.0</ele><time>2026-04-25T09:33:39.907Z</time></trkpt><trkpt lat="43.886894970249145" lon="11.525683272266946"><ele>159.0</ele><time>2026-04-25T09:33:40.907Z</time></trkpt><trkpt lat="43.887025799908606" lon="11.525645326717253"><ele>158.75</ele><time>2026-04-25T09:33:41.907Z</time></trkpt><trkpt lat="43.88715755280897" lon="11.52562496951881"><ele>158.5</ele><time>2026-04-25T09:33:42.907Z</time></trkpt><trkpt lat="43.887279469852324" lon="11.525616719118455"><ele>158.25</ele><time>2026-04-25T09:33:43.907Z</time></trkpt><trkpt lat="43.887399588399155" lon="11.525596800795565"><ele>158.0</ele><time>2026-04-25T09:33:44.907Z</time></trkpt><trkpt lat="43.887512786293456" lon="11.525562933922208"><ele>157.8</ele><time>2026-04-25T09:33:45.907Z</time></trkpt><trkpt lat="43.88761536286001" lon="11.52553239120289"><ele>157.60000000000002</ele><time>2026-04-25T09:33:46.907Z</time></trkpt><trkpt lat="43.88770985651189" lon="11.525505048680971"><ele>157.39999999999998</ele><time>2026-04-25T09:33:47.907Z</time></trkpt><trkpt lat="43.88779946621548" lon="11.525483246411557"><ele>157.2</ele><time>2026-04-25T09:33:48.907Z</time></trkpt><trkpt lat="43.88788796878869" lon="11.525463528208718"><ele>157.0</ele><time>2026-04-25T09:33:49.907Z</time></trkpt><trkpt lat="43.88798117546914" lon="11.525442398529382"><ele>157.0</ele><time>2026-04-25T09:33:50.907Z</time></trkpt><trkpt lat="43.88806761377781" lon="11.525414635019441"><ele>157.0</ele><time>2026-04-25T09:33:51.907Z</time></trkpt><trkpt lat="43.88814666766793" lon="11.525385562101892"><ele>157.0</ele><time>2026-04-25T09:33:52.907Z</time></trkpt><trkpt lat="43.88822661221225" lon="11.525364007964878"><ele>157.0</ele><time>2026-04-25T09:33:53.907Z</time></trkpt><trkpt lat="43.888303646613" lon="11.525332931329455"><ele>157.0</ele><time>2026-04-25T09:33:54.907Z</time></trkpt><trkpt lat="43.88837527433429" lon="11.52528563394757"><ele>157.0</ele><time>2026-04-25T09:33:55.907Z</time></trkpt><trkpt lat="43.88845649995523" lon="11.52524742951373"><ele>156.0</ele><time>2026-04-25T09:33:56.907Z</time></trkpt><trkpt lat="43.88853590653502" lon="11.52520367411183"><ele>155.0</ele><time>2026-04-25T09:33:57.907Z</time></trkpt><trkpt lat="43.88862194730908" lon="11.525156364527401"><ele>154.0</ele><time>2026-04-25T09:33:58.907Z</time></trkpt><trkpt lat="43.88871789138393" lon="11.52510717175534"><ele>153.0</ele><time>2026-04-25T09:33:59.907Z</time></trkpt><trkpt lat="43.88881678552359" lon="11.525056317914606"><ele>152.0</ele><time>2026-04-25T09:34:00.907Z</time></trkpt><trkpt lat="43.88891786207195" lon="11.5249923720002"><ele>152.0</ele><time>2026-04-25T09:34:01.907Z</time></trkpt><trkpt lat="43.889022780016546" lon="11.524931135548377"><ele>152.0</ele><time>2026-04-25T09:34:02.907Z</time></trkpt><trkpt lat="43.88912759817957" lon="11.524852533872025"><ele>152.0</ele><time>2026-04-25T09:34:03.907Z</time></trkpt><trkpt lat="43.88921475284359" lon="11.524771296300285"><ele>152.0</ele><time>2026-04-25T09:34:04.907Z</time></trkpt><trkpt lat="43.889296269632695" lon="11.524689532324423"><ele>152.0</ele><time>2026-04-25T09:34:05.907Z</time></trkpt><trkpt lat="43.8893646227862" lon="11.524618200962363"><ele>152.33333333333331</ele><time>2026-04-25T09:34:06.907Z</time></trkpt><trkpt lat="43.8894315530417" lon="11.524554021378476"><ele>152.66666666666666</ele><time>2026-04-25T09:34:07.907Z</time></trkpt><trkpt lat="43.8895053016671" lon="11.52448865724375"><ele>153.0</ele><time>2026-04-25T09:34:08.907Z</time></trkpt><trkpt lat="43.88957504151594" lon="11.524434035626157"><ele>153.33333333333334</ele><time>2026-04-25T09:34:09.907Z</time></trkpt><trkpt lat="43.88964623238991" lon="11.524379209240395"><ele>153.66666666666669</ele><time>2026-04-25T09:34:10.907Z</time></trkpt><trkpt lat="43.88973034612107" lon="11.524352134343978"><ele>154.0</ele><time>2026-04-25T09:34:11.907Z</time></trkpt><trkpt lat="43.889809499721174" lon="11.524350613721705"><ele>154.0</ele><time>2026-04-25T09:34:12.907Z</time></trkpt><trkpt lat="43.88988292607941" lon="11.524357563484575"><ele>154.0</ele><time>2026-04-25T09:34:13.907Z</time></trkpt><trkpt lat="43.88994932755555" lon="11.52435971558361"><ele>154.0</ele><time>2026-04-25T09:34:14.907Z</time></trkpt><trkpt lat="43.89004045800857" lon="11.524383449360613"><ele>154.0</ele><time>2026-04-25T09:34:16.907Z</time></trkpt><trkpt lat="43.89010047720839" lon="11.524413658915162"><ele>154.0</ele><time>2026-04-25T09:34:19.907Z</time></trkpt><trkpt lat="43.89017505445031" lon="11.52443803795959"><ele>154.0</ele><time>2026-04-25T09:34:22.907Z</time></trkpt><trkpt lat="43.89025521097666" lon="11.524465442858403"><ele>154.66666666666669</ele><time>2026-04-25T09:34:25.907Z</time></trkpt><trkpt lat="43.89035835477911" lon="11.52450137926751"><ele>155.33333333333334</ele><time>2026-04-25T09:34:27.907Z</time></trkpt><trkpt lat="43.89044899548587" lon="11.524533998014574"><ele>156.0</ele><time>2026-04-25T09:34:28.907Z</time></trkpt><trkpt lat="43.890535423497994" lon="11.524565100749937"><ele>156.66666666666666</ele><time>2026-04-25T09:34:29.907Z</time></trkpt><trkpt lat="43.89060821797841" lon="11.524591297230444"><ele>157.33333333333331</ele><time>2026-04-25T09:34:30.906Z</time></trkpt><trkpt lat="43.890675123441305" lon="11.524595651642915"><ele>158.0</ele><time>2026-04-25T09:34:31.906Z</time></trkpt><trkpt lat="43.890765157495494" lon="11.524648428004605"><ele>158.0</ele><time>2026-04-25T09:34:33.906Z</time></trkpt><trkpt lat="43.89086231256982" lon="11.524683769719758"><ele>158.0</ele><time>2026-04-25T09:34:35.906Z</time></trkpt><trkpt lat="43.89096408403538" lon="11.524709489843946"><ele>158.0</ele><time>2026-04-25T09:34:37.906Z</time></trkpt><trkpt lat="43.89104514137062" lon="11.524706133943576"><ele>158.0</ele><time>2026-04-25T09:34:39.906Z</time></trkpt><trkpt lat="43.89114941390966" lon="11.52478631527069"><ele>158.0</ele><time>2026-04-25T09:34:42.906Z</time></trkpt><trkpt lat="43.89117444089057" lon="11.52488372363804"><ele>159.16666666666666</ele><time>2026-04-25T09:34:43.906Z</time></trkpt><trkpt lat="43.891215705603926" lon="11.524969988152925"><ele>160.33333333333331</ele><time>2026-04-25T09:34:44.906Z</time></trkpt><trkpt lat="43.89122396034309" lon="11.525064294152964"><ele>161.5</ele><time>2026-04-25T09:34:45.906Z</time></trkpt><trkpt lat="43.891247718250874" lon="11.525146342799617"><ele>162.66666666666666</ele><time>2026-04-25T09:34:46.906Z</time></trkpt><trkpt lat="43.89129286880552" lon="11.525230810198106"><ele>163.83333333333334</ele><time>2026-04-25T09:34:47.906Z</time></trkpt><trkpt lat="43.89134908723005" lon="11.525399980841934"><ele>165.0</ele><time>2026-04-25T09:34:49.906Z</time></trkpt><trkpt lat="43.89137144513075" lon="11.525504477290287"><ele>165.0</ele><time>2026-04-25T09:34:50.906Z</time></trkpt><trkpt lat="43.89140133507343" lon="11.5256115541801"><ele>165.0</ele><time>2026-04-25T09:34:51.906Z</time></trkpt><trkpt lat="43.89142978688693" lon="11.525712162996333"><ele>165.0</ele><time>2026-04-25T09:34:52.906Z</time></trkpt><trkpt lat="43.89146150766715" lon="11.525799546184206"><ele>165.0</ele><time>2026-04-25T09:34:53.906Z</time></trkpt><trkpt lat="43.89149318845904" lon="11.525900173633529"><ele>165.0</ele><time>2026-04-25T09:34:54.906Z</time></trkpt><trkpt lat="43.89152070114255" lon="11.525996559270798"><ele>165.0</ele><time>2026-04-25T09:34:55.906Z</time></trkpt><trkpt lat="43.89155895332472" lon="11.526071705103263"><ele>165.0</ele><time>2026-04-25T09:34:56.906Z</time></trkpt><trkpt lat="43.89161129719621" lon="11.526144720837507"><ele>165.0</ele><time>2026-04-25T09:34:57.906Z</time></trkpt><trkpt lat="43.89166704015872" lon="11.526215962053373"><ele>165.0</ele><time>2026-04-25T09:34:58.906Z</time></trkpt><trkpt lat="43.89171371253008" lon="11.526305785336627"><ele>165.0</ele><time>2026-04-25T09:35:00.906Z</time></trkpt><trkpt lat="43.89180770483652" lon="11.526280970762146"><ele>165.0</ele><time>2026-04-25T09:35:03.906Z</time></trkpt><trkpt lat="43.891875008529134" lon="11.526200830584386"><ele>165.0</ele><time>2026-04-25T09:35:05.906Z</time></trkpt><trkpt lat="43.89192085871253" lon="11.526135157247609"><ele>167.8</ele><time>2026-04-25T09:35:18.906Z</time></trkpt><trkpt lat="43.89193080399234" lon="11.52594052637307"><ele>170.6</ele><time>2026-04-25T09:35:20.906Z</time></trkpt><trkpt lat="43.89192015876403" lon="11.525828915782673"><ele>173.39999999999998</ele><time>2026-04-25T09:35:21.906Z</time></trkpt><trkpt lat="43.89191393532341" lon="11.52572521355336"><ele>176.2</ele><time>2026-04-25T09:35:22.906Z</time></trkpt><trkpt lat="43.891892629544316" lon="11.525595552262324"><ele>179.0</ele><time>2026-04-25T09:35:23.906Z</time></trkpt><trkpt lat="43.891885806347645" lon="11.52546826910524"><ele>179.33333333333331</ele><time>2026-04-25T09:35:24.906Z</time></trkpt><trkpt lat="43.89187865405217" lon="11.525352078681596"><ele>179.66666666666666</ele><time>2026-04-25T09:35:25.906Z</time></trkpt><trkpt lat="43.89186916272086" lon="11.5252205072523"><ele>180.0</ele><time>2026-04-25T09:35:26.906Z</time></trkpt><trkpt lat="43.891853065401634" lon="11.525085661766095"><ele>180.33333333333334</ele><time>2026-04-25T09:35:27.906Z</time></trkpt><trkpt lat="43.89184545601386" lon="11.524958619226657"><ele>180.66666666666669</ele><time>2026-04-25T09:35:28.905Z</time></trkpt><trkpt lat="43.89183894796685" lon="11.524851970871373"><ele>181.0</ele><time>2026-04-25T09:35:29.905Z</time></trkpt><trkpt lat="43.891836159694755" lon="11.524743849388276"><ele>181.0</ele><time>2026-04-25T09:35:30.905Z</time></trkpt><trkpt lat="43.8918368395572" lon="11.52463567364837"><ele>181.0</ele><time>2026-04-25T09:35:31.905Z</time></trkpt><trkpt lat="43.891811177117646" lon="11.52450667348179"><ele>181.0</ele><time>2026-04-25T09:35:33.905Z</time></trkpt><trkpt lat="43.891803021273375" lon="11.524389714800067"><ele>181.0</ele><time>2026-04-25T09:35:35.905Z</time></trkpt><trkpt lat="43.89179938876899" lon="11.524284481397423"><ele>181.0</ele><time>2026-04-25T09:35:37.904Z</time></trkpt><trkpt lat="43.89179025639516" lon="11.52416592759107"><ele>181.0</ele><time>2026-04-25T09:35:39.904Z</time></trkpt><trkpt lat="43.89177150273975" lon="11.524025671579047"><ele>179.83333333333334</ele><time>2026-04-25T09:35:42.904Z</time></trkpt><trkpt lat="43.89177253046557" lon="11.523935849335215"><ele>178.66666666666669</ele><time>2026-04-25T09:35:43.904Z</time></trkpt><trkpt lat="43.891760496491045" lon="11.523806619231431"><ele>177.5</ele><time>2026-04-25T09:35:45.904Z</time></trkpt><trkpt lat="43.891729980924424" lon="11.523706794392528"><ele>176.33333333333334</ele><time>2026-04-25T09:35:49.904Z</time></trkpt><trkpt lat="43.89171378594309" lon="11.523606175988858"><ele>175.16666666666666</ele><time>2026-04-25T09:35:51.904Z</time></trkpt><trkpt lat="43.89168625378657" lon="11.523471232816439"><ele>174.0</ele><time>2026-04-25T09:35:53.904Z</time></trkpt><trkpt lat="43.891650578873325" lon="11.523385092321842"><ele>172.16666666666666</ele><time>2026-04-25T09:35:55.904Z</time></trkpt><trkpt lat="43.89160203090926" lon="11.52330793184909"><ele>170.33333333333334</ele><time>2026-04-25T09:35:57.904Z</time></trkpt><trkpt lat="43.89152167865251" lon="11.523250480273852"><ele>168.5</ele><time>2026-04-25T09:36:00.904Z</time></trkpt><trkpt lat="43.891443159639245" lon="11.523217223082327"><ele>166.66666666666669</ele><time>2026-04-25T09:36:03.904Z</time></trkpt><trkpt lat="43.89135711019429" lon="11.523198260332741"><ele>164.83333333333334</ele><time>2026-04-25T09:36:06.904Z</time></trkpt><trkpt lat="43.89129120103721" lon="11.523198796959912"><ele>163.0</ele><time>2026-04-25T09:36:08.904Z</time></trkpt><trkpt lat="43.89122899094056" lon="11.52317836866298"><ele>163.0</ele><time>2026-04-25T09:36:10.904Z</time></trkpt><trkpt lat="43.89116224926942" lon="11.523187767220527"><ele>163.0</ele><time>2026-04-25T09:36:12.904Z</time></trkpt><trkpt lat="43.891092256872334" lon="11.523199681074493"><ele>163.0</ele><time>2026-04-25T09:36:14.904Z</time></trkpt><trkpt lat="43.89102489891387" lon="11.523167759866926"><ele>163.0</ele><time>2026-04-25T09:36:16.904Z</time></trkpt><trkpt lat="43.89099870916659" lon="11.52305377104012"><ele>163.0</ele><time>2026-04-25T09:36:18.904Z</time></trkpt><trkpt lat="43.891010043885025" lon="11.522878436118287"><ele>163.0</ele><time>2026-04-25T09:36:20.904Z</time></trkpt><trkpt lat="43.891029400271734" lon="11.522766549517986"><ele>162.83333333333334</ele><time>2026-04-25T09:36:21.904Z</time></trkpt><trkpt lat="43.89105286502454" lon="11.522649127709464"><ele>162.66666666666669</ele><time>2026-04-25T09:36:22.904Z</time></trkpt><trkpt lat="43.89109203238889" lon="11.522525095037851"><ele>162.5</ele><time>2026-04-25T09:36:23.904Z</time></trkpt><trkpt lat="43.891128581352554" lon="11.522400350932568"><ele>162.33333333333334</ele><time>2026-04-25T09:36:24.904Z</time></trkpt><trkpt lat="43.891163546349276" lon="11.522291372037284"><ele>162.16666666666666</ele><time>2026-04-25T09:36:25.904Z</time></trkpt><trkpt lat="43.89120299796213" lon="11.522206857796837"><ele>162.0</ele><time>2026-04-25T09:36:26.904Z</time></trkpt><trkpt lat="43.89124058342621" lon="11.52211111080309"><ele>161.8</ele><time>2026-04-25T09:36:27.904Z</time></trkpt><trkpt lat="43.89129149995962" lon="11.5220193270258"><ele>161.6</ele><time>2026-04-25T09:36:28.904Z</time></trkpt><trkpt lat="43.89134322376408" lon="11.521928058022352"><ele>161.4</ele><time>2026-04-25T09:36:29.904Z</time></trkpt><trkpt lat="43.89140814690026" lon="11.52184039607349"><ele>161.20000000000002</ele><time>2026-04-25T09:36:30.904Z</time></trkpt><trkpt lat="43.89148991388111" lon="11.52174297894168"><ele>161.0</ele><time>2026-04-25T09:36:31.904Z</time></trkpt><trkpt lat="43.89157732506821" lon="11.521647908122302"><ele>161.0</ele><time>2026-04-25T09:36:32.904Z</time></trkpt><trkpt lat="43.89165935679701" lon="11.521571252545927"><ele>161.0</ele><time>2026-04-25T09:36:33.904Z</time></trkpt><trkpt lat="43.89173913017639" lon="11.521502920727945"><ele>161.0</ele><time>2026-04-25T09:36:34.904Z</time></trkpt><trkpt lat="43.89181850769832" lon="11.521420089835404"><ele>161.0</ele><time>2026-04-25T09:36:35.904Z</time></trkpt><trkpt lat="43.89191643812039" lon="11.521334521870157"><ele>161.0</ele><time>2026-04-25T09:36:36.904Z</time></trkpt><trkpt lat="43.89201064453469" lon="11.521238876907486"><ele>161.0</ele><time>2026-04-25T09:36:37.904Z</time></trkpt><trkpt lat="43.892109349506896" lon="11.521145769700698"><ele>161.0</ele><time>2026-04-25T09:36:38.904Z</time></trkpt><trkpt lat="43.89221737433883" lon="11.521049933930014"><ele>161.0</ele><time>2026-04-25T09:36:39.904Z</time></trkpt><trkpt lat="43.89232745150664" lon="11.520946807994267"><ele>161.0</ele><time>2026-04-25T09:36:40.904Z</time></trkpt><trkpt lat="43.89243113077534" lon="11.520853595714618"><ele>161.0</ele><time>2026-04-25T09:36:41.904Z</time></trkpt><trkpt lat="43.89252184967404" lon="11.520755570885274"><ele>161.0</ele><time>2026-04-25T09:36:42.904Z</time></trkpt><trkpt lat="43.89260529547082" lon="11.520668290226123"><ele>161.0</ele><time>2026-04-25T09:36:43.904Z</time></trkpt><trkpt lat="43.89269859098214" lon="11.520590903383582"><ele>161.0</ele><time>2026-04-25T09:36:44.903Z</time></trkpt><trkpt lat="43.89278755830102" lon="11.520492251897892"><ele>161.0</ele><time>2026-04-25T09:36:45.903Z</time></trkpt><trkpt lat="43.89288109854517" lon="11.520428180707444"><ele>161.20000000000002</ele><time>2026-04-25T09:36:46.903Z</time></trkpt><trkpt lat="43.892976472192025" lon="11.520443535619153"><ele>161.4</ele><time>2026-04-25T09:36:47.903Z</time></trkpt><trkpt lat="43.89304033162831" lon="11.520401573509824"><ele>161.6</ele><time>2026-04-25T09:36:48.903Z</time></trkpt><trkpt lat="43.893122009625486" lon="11.520354723082924"><ele>161.8</ele><time>2026-04-25T09:36:49.903Z</time></trkpt><trkpt lat="43.893210823286026" lon="11.520302457819373"><ele>162.0</ele><time>2026-04-25T09:36:50.903Z</time></trkpt><trkpt lat="43.893303042054676" lon="11.520248840260436"><ele>161.66666666666666</ele><time>2026-04-25T09:36:51.903Z</time></trkpt><trkpt lat="43.893393815025725" lon="11.520196063211703"><ele>161.33333333333334</ele><time>2026-04-25T09:36:52.903Z</time></trkpt><trkpt lat="43.89347597119099" lon="11.520148296158617"><ele>161.0</ele><time>2026-04-25T09:36:53.903Z</time></trkpt><trkpt lat="43.89354595875547" lon="11.520107604255207"><ele>160.66666666666669</ele><time>2026-04-25T09:36:54.903Z</time></trkpt><trkpt lat="43.89361049425221" lon="11.520070082211364"><ele>160.33333333333334</ele><time>2026-04-25T09:36:55.903Z</time></trkpt><trkpt lat="43.89366308120665" lon="11.52000286586799"><ele>160.0</ele><time>2026-04-25T09:36:56.903Z</time></trkpt><trkpt lat="43.89372524426114" lon="11.519967061720314"><ele>160.0</ele><time>2026-04-25T09:36:57.903Z</time></trkpt><trkpt lat="43.8937890893115" lon="11.519933132893184"><ele>160.0</ele><time>2026-04-25T09:36:58.903Z</time></trkpt><trkpt lat="43.89385614195539" lon="11.519889479140275"><ele>160.0</ele><time>2026-04-25T09:36:59.903Z</time></trkpt><trkpt lat="43.89392513976872" lon="11.519855815267938"><ele>160.0</ele><time>2026-04-25T09:37:00.903Z</time></trkpt><trkpt lat="43.89400089792654" lon="11.519813430087755"><ele>160.0</ele><time>2026-04-25T09:37:01.903Z</time></trkpt><trkpt lat="43.8940835558207" lon="11.519771519201283"><ele>160.0</ele><time>2026-04-25T09:37:02.903Z</time></trkpt><trkpt lat="43.894175574272126" lon="11.519706723848612"><ele>160.5</ele><time>2026-04-25T09:37:03.903Z</time></trkpt><trkpt lat="43.894268741446545" lon="11.519643160457695"><ele>161.0</ele><time>2026-04-25T09:37:04.903Z</time></trkpt><trkpt lat="43.89437868768486" lon="11.519581688207605"><ele>161.5</ele><time>2026-04-25T09:37:05.903Z</time></trkpt><trkpt lat="43.89452130747198" lon="11.519496672932062"><ele>162.0</ele><time>2026-04-25T09:37:06.903Z</time></trkpt><trkpt lat="43.89464911775882" lon="11.519418882057176"><ele>161.75</ele><time>2026-04-25T09:37:07.903Z</time></trkpt><trkpt lat="43.89476979211248" lon="11.51932916601057"><ele>161.5</ele><time>2026-04-25T09:37:08.903Z</time></trkpt><trkpt lat="43.89489376200614" lon="11.519246206876723"><ele>161.25</ele><time>2026-04-25T09:37:09.903Z</time></trkpt><trkpt lat="43.895023541301065" lon="11.519165856434984"><ele>161.0</ele><time>2026-04-25T09:37:10.903Z</time></trkpt><trkpt lat="43.89514766149392" lon="11.5190813738009"><ele>161.0</ele><time>2026-04-25T09:37:11.903Z</time></trkpt><trkpt lat="43.895278779960286" lon="11.51899068879164"><ele>161.0</ele><time>2026-04-25T09:37:12.903Z</time></trkpt><trkpt lat="43.8954021063537" lon="11.518885530622827"><ele>161.0</ele><time>2026-04-25T09:37:13.903Z</time></trkpt><trkpt lat="43.89553877951137" lon="11.518783458544428"><ele>161.0</ele><time>2026-04-25T09:37:14.903Z</time></trkpt><trkpt lat="43.89567478406385" lon="11.518665876571868"><ele>161.0</ele><time>2026-04-25T09:37:15.903Z</time></trkpt><trkpt lat="43.895809806110535" lon="11.518554201953371"><ele>161.0</ele><time>2026-04-25T09:37:16.903Z</time></trkpt><trkpt lat="43.89594564265357" lon="11.518437526618689"><ele>161.0</ele><time>2026-04-25T09:37:17.903Z</time></trkpt><trkpt lat="43.896078118249754" lon="11.518324377081502"><ele>161.0</ele><time>2026-04-25T09:37:18.903Z</time></trkpt><trkpt lat="43.896205289249025" lon="11.51822092888564"><ele>161.0</ele><time>2026-04-25T09:37:19.903Z</time></trkpt><trkpt lat="43.896318663105056" lon="11.518120340812759"><ele>161.0</ele><time>2026-04-25T09:37:20.903Z</time></trkpt><trkpt lat="43.896427499079415" lon="11.51802239674362"><ele>161.0</ele><time>2026-04-25T09:37:21.903Z</time></trkpt><trkpt lat="43.89653804661877" lon="11.517928111779552"><ele>161.0</ele><time>2026-04-25T09:37:22.903Z</time></trkpt><trkpt lat="43.89664891145673" lon="11.517838142737112"><ele>161.0</ele><time>2026-04-25T09:37:23.903Z</time></trkpt><trkpt lat="43.896763609410606" lon="11.517744071394588"><ele>161.0</ele><time>2026-04-25T09:37:24.903Z</time></trkpt><trkpt lat="43.89687742454731" lon="11.51764569567829"><ele>161.0</ele><time>2026-04-25T09:37:25.903Z</time></trkpt><trkpt lat="43.896997214157466" lon="11.517548069463162"><ele>161.0</ele><time>2026-04-25T09:37:26.903Z</time></trkpt><trkpt lat="43.8971216205672" lon="11.517441577365311"><ele>161.0</ele><time>2026-04-25T09:37:27.903Z</time></trkpt><trkpt lat="43.89725071781136" lon="11.517328612222009"><ele>161.0</ele><time>2026-04-25T09:37:28.903Z</time></trkpt><trkpt lat="43.8973834003111" lon="11.517218603219726"><ele>161.0</ele><time>2026-04-25T09:37:29.903Z</time></trkpt><trkpt lat="43.8975128934355" lon="11.517112697002487"><ele>161.0</ele><time>2026-04-25T09:37:30.903Z</time></trkpt><trkpt lat="43.897648189492415" lon="11.517011975190767"><ele>161.0</ele><time>2026-04-25T09:37:31.903Z</time></trkpt><trkpt lat="43.8977814899279" lon="11.516907111028218"><ele>160.66666666666666</ele><time>2026-04-25T09:37:32.903Z</time></trkpt><trkpt lat="43.89792530892753" lon="11.516813353163272"><ele>160.33333333333334</ele><time>2026-04-25T09:37:33.903Z</time></trkpt><trkpt lat="43.89807983167926" lon="11.516730252968499"><ele>160.0</ele><time>2026-04-25T09:37:34.9Z</time></trkpt><trkpt lat="43.898239889543355" lon="11.516640178526044"><ele>160.0</ele><time>2026-04-25T09:37:35.9Z</time></trkpt><trkpt lat="43.898401048955144" lon="11.51654997661819"><ele>160.0</ele><time>2026-04-25T09:37:36.9Z</time></trkpt><trkpt lat="43.89856137871207" lon="11.51645073812944"><ele>160.0</ele><time>2026-04-25T09:37:37.901Z</time></trkpt><trkpt lat="43.89871936517002" lon="11.516336852083967"><ele>159.66666666666669</ele><time>2026-04-25T09:37:38.901Z</time></trkpt><trkpt lat="43.898869392759465" lon="11.516209207743454"><ele>159.33333333333334</ele><time>2026-04-25T09:37:39.901Z</time></trkpt><trkpt lat="43.8990099059623" lon="11.516074684372215"><ele>159.0</ele><time>2026-04-25T09:37:40.9Z</time></trkpt><trkpt lat="43.899140342548" lon="11.515916924315173"><ele>160.33333333333334</ele><time>2026-04-25T09:37:41.9Z</time></trkpt><trkpt lat="43.89925398557222" lon="11.5157312957254"><ele>161.66666666666669</ele><time>2026-04-25T09:37:42.9Z</time></trkpt><trkpt lat="43.899352491290585" lon="11.515528888440421"><ele>163.0</ele><time>2026-04-25T09:37:43.901Z</time></trkpt><trkpt lat="43.89944920444178" lon="11.515322894000914"><ele>163.0</ele><time>2026-04-25T09:37:44.9Z</time></trkpt><trkpt lat="43.89954795902936" lon="11.515117888634437"><ele>163.0</ele><time>2026-04-25T09:37:45.9Z</time></trkpt><trkpt lat="43.89964179419778" lon="11.514905687108543"><ele>163.0</ele><time>2026-04-25T09:37:46.9Z</time></trkpt><trkpt lat="43.899735343591885" lon="11.514686790901903"><ele>162.66666666666669</ele><time>2026-04-25T09:37:47.9Z</time></trkpt><trkpt lat="43.899825449325824" lon="11.514465238619007"><ele>162.33333333333334</ele><time>2026-04-25T09:37:48.9Z</time></trkpt><trkpt lat="43.899914194656034" lon="11.514243015918044"><ele>162.0</ele><time>2026-04-25T09:37:49.9Z</time></trkpt><trkpt lat="43.89999669748327" lon="11.514022959633358"><ele>162.0</ele><time>2026-04-25T09:37:50.9Z</time></trkpt><trkpt lat="43.90006804624881" lon="11.51380678904702"><ele>162.0</ele><time>2026-04-25T09:37:51.9Z</time></trkpt><trkpt lat="43.90012825980485" lon="11.513589032327628"><ele>162.0</ele><time>2026-04-25T09:37:52.9Z</time></trkpt><trkpt lat="43.90018652798556" lon="11.513364487835"><ele>163.0</ele><time>2026-04-25T09:37:53.9Z</time></trkpt><trkpt lat="43.90024923762858" lon="11.51313685657945"><ele>164.0</ele><time>2026-04-25T09:37:54.9Z</time></trkpt><trkpt lat="43.90031342619952" lon="11.512909240253114"><ele>165.0</ele><time>2026-04-25T09:37:55.9Z</time></trkpt><trkpt lat="43.90037735305148" lon="11.51268556745331"><ele>165.0</ele><time>2026-04-25T09:37:56.9Z</time></trkpt><trkpt lat="43.90044501589387" lon="11.512458039036856"><ele>165.0</ele><time>2026-04-25T09:37:57.9Z</time></trkpt><trkpt lat="43.900517820670174" lon="11.51223197048931"><ele>165.0</ele><time>2026-04-25T09:37:58.9Z</time></trkpt><trkpt lat="43.90059613579373" lon="11.512000579086186"><ele>165.66666666666666</ele><time>2026-04-25T09:37:59.9Z</time></trkpt><trkpt lat="43.900685613545384" lon="11.51176904556966"><ele>166.33333333333331</ele><time>2026-04-25T09:38:00.9Z</time></trkpt><trkpt lat="43.90077265082363" lon="11.511540943805112"><ele>167.0</ele><time>2026-04-25T09:38:01.9Z</time></trkpt><trkpt lat="43.9008639813772" lon="11.511310459530533"><ele>170.0</ele><time>2026-04-25T09:38:02.9Z</time></trkpt><trkpt lat="43.90095773025499" lon="11.51108443760091"><ele>173.0</ele><time>2026-04-25T09:38:03.9Z</time></trkpt><trkpt lat="43.90105923164365" lon="11.510869085515662"><ele>176.0</ele><time>2026-04-25T09:38:04.9Z</time></trkpt><trkpt lat="43.901165287568745" lon="11.510654391385097"><ele>176.0</ele><time>2026-04-25T09:38:05.9Z</time></trkpt><trkpt lat="43.901276055660404" lon="11.510442113908864"><ele>176.0</ele><time>2026-04-25T09:38:06.9Z</time></trkpt><trkpt lat="43.90139291567855" lon="11.51022595111879"><ele>176.0</ele><time>2026-04-25T09:38:07.9Z</time></trkpt><trkpt lat="43.901510123040275" lon="11.510012993460979"><ele>174.66666666666666</ele><time>2026-04-25T09:38:08.9Z</time></trkpt><trkpt lat="43.90162988113011" lon="11.509798867912664"><ele>173.33333333333334</ele><time>2026-04-25T09:38:09.9Z</time></trkpt><trkpt lat="43.9017495172369" lon="11.509577286006282"><ele>172.0</ele><time>2026-04-25T09:38:10.9Z</time></trkpt><trkpt lat="43.901871047159496" lon="11.509358657555653"><ele>172.0</ele><time>2026-04-25T09:38:11.9Z</time></trkpt><trkpt lat="43.901993410022655" lon="11.509140202490604"><ele>172.0</ele><time>2026-04-25T09:38:12.9Z</time></trkpt><trkpt lat="43.90211343925519" lon="11.508921011200306"><ele>172.0</ele><time>2026-04-25T09:38:13.9Z</time></trkpt><trkpt lat="43.90223031555297" lon="11.508701173295114"><ele>172.0</ele><time>2026-04-25T09:38:14.9Z</time></trkpt><trkpt lat="43.90234857737268" lon="11.508485634667311"><ele>172.0</ele><time>2026-04-25T09:38:15.9Z</time></trkpt><trkpt lat="43.902456131829766" lon="11.50826904807635"><ele>172.0</ele><time>2026-04-25T09:38:16.9Z</time></trkpt><trkpt lat="43.902561792064866" lon="11.508068521061492"><ele>173.66666666666669</ele><time>2026-04-25T09:38:17.9Z</time></trkpt><trkpt lat="43.90266339014877" lon="11.507886173670574"><ele>175.33333333333334</ele><time>2026-04-25T09:38:18.9Z</time></trkpt><trkpt lat="43.90276099157238" lon="11.507707390272945"><ele>177.0</ele><time>2026-04-25T09:38:19.9Z</time></trkpt><trkpt lat="43.90285291433976" lon="11.507530648925012"><ele>177.0</ele><time>2026-04-25T09:38:20.9Z</time></trkpt><trkpt lat="43.9029425802013" lon="11.507367582647872"><ele>177.0</ele><time>2026-04-25T09:38:21.9Z</time></trkpt><trkpt lat="43.90302991352378" lon="11.50720850371216"><ele>177.0</ele><time>2026-04-25T09:38:22.9Z</time></trkpt><trkpt lat="43.90311124264595" lon="11.507056230699282"><ele>177.0</ele><time>2026-04-25T09:38:23.9Z</time></trkpt><trkpt lat="43.90319428454319" lon="11.506920261745172"><ele>175.0</ele><time>2026-04-25T09:38:24.9Z</time></trkpt><trkpt lat="43.9032845655978" lon="11.506788207849883"><ele>173.0</ele><time>2026-04-25T09:38:25.9Z</time></trkpt><trkpt lat="43.90338914818182" lon="11.506681049644584"><ele>171.0</ele><time>2026-04-25T09:38:26.9Z</time></trkpt><trkpt lat="43.903504871538345" lon="11.506604919160896"><ele>169.0</ele><time>2026-04-25T09:38:27.902Z</time></trkpt><trkpt lat="43.90363411395551" lon="11.506535499354463"><ele>169.0</ele><time>2026-04-25T09:38:28.904Z</time></trkpt><trkpt lat="43.90378561668695" lon="11.506496069117313"><ele>169.0</ele><time>2026-04-25T09:38:29.905Z</time></trkpt><trkpt lat="43.903948987070734" lon="11.50646216398972"><ele>169.0</ele><time>2026-04-25T09:38:30.907Z</time></trkpt><trkpt lat="43.90412303641004" lon="11.506432001021864"><ele>171.33333333333334</ele><time>2026-04-25T09:38:31.908Z</time></trkpt><trkpt lat="43.90430476410132" lon="11.506399424042598"><ele>173.66666666666666</ele><time>2026-04-25T09:38:32.909Z</time></trkpt><trkpt lat="43.90449575380338" lon="11.506364483075407"><ele>176.0</ele><time>2026-04-25T09:38:33.911Z</time></trkpt><trkpt lat="43.90470059349838" lon="11.506325916439952"><ele>176.0</ele><time>2026-04-25T09:38:34.912Z</time></trkpt><trkpt lat="43.90490984847098" lon="11.506286513308329"><ele>176.0</ele><time>2026-04-25T09:38:35.913Z</time></trkpt><trkpt lat="43.90511561458528" lon="11.506253776259612"><ele>176.0</ele><time>2026-04-25T09:38:36.914Z</time></trkpt><trkpt lat="43.90531708862945" lon="11.506218032324291"><ele>172.33333333333331</ele><time>2026-04-25T09:38:37.915Z</time></trkpt><trkpt lat="43.905508127172666" lon="11.506184371617087"><ele>168.66666666666666</ele><time>2026-04-25T09:38:38.916Z</time></trkpt><trkpt lat="43.905691495125595" lon="11.506152222930845"><ele>165.0</ele><time>2026-04-25T09:38:39.916Z</time></trkpt><trkpt lat="43.90586330175323" lon="11.506123777062184"><ele>164.66666666666666</ele><time>2026-04-25T09:38:40.917Z</time></trkpt><trkpt lat="43.90602976898089" lon="11.506101033997"><ele>164.33333333333331</ele><time>2026-04-25T09:38:41.918Z</time></trkpt><trkpt lat="43.90618806597464" lon="11.50607566955448"><ele>164.0</ele><time>2026-04-25T09:38:42.919Z</time></trkpt><trkpt lat="43.90633818292826" lon="11.506052225830416"><ele>164.0</ele><time>2026-04-25T09:38:43.919Z</time></trkpt><trkpt lat="43.906485069529715" lon="11.50603514039044"><ele>164.0</ele><time>2026-04-25T09:38:44.92Z</time></trkpt><trkpt lat="43.90663385065232" lon="11.50603775653621"><ele>164.0</ele><time>2026-04-25T09:38:45.92Z</time></trkpt><trkpt lat="43.90679376612213" lon="11.506075214425428"><ele>163.66666666666666</ele><time>2026-04-25T09:38:46.921Z</time></trkpt><trkpt lat="43.90695676238196" lon="11.506136048725242"><ele>163.33333333333334</ele><time>2026-04-25T09:38:47.921Z</time></trkpt><trkpt lat="43.90712251393029" lon="11.506204018248102"><ele>163.0</ele><time>2026-04-25T09:38:48.922Z</time></trkpt><trkpt lat="43.907292310706666" lon="11.506274251936377"><ele>167.66666666666669</ele><time>2026-04-25T09:38:49.922Z</time></trkpt><trkpt lat="43.90745571956685" lon="11.506346915320975"><ele>172.33333333333334</ele><time>2026-04-25T09:38:50.923Z</time></trkpt><trkpt lat="43.90760938159206" lon="11.506408859568548"><ele>177.0</ele><time>2026-04-25T09:38:51.923Z</time></trkpt><trkpt lat="43.907753256329734" lon="11.506450595253074"><ele>177.0</ele><time>2026-04-25T09:38:52.923Z</time></trkpt><trkpt lat="43.90789857504129" lon="11.50647606521792"><ele>177.0</ele><time>2026-04-25T09:38:53.924Z</time></trkpt><trkpt lat="43.908047938900516" lon="11.506471688583888"><ele>177.0</ele><time>2026-04-25T09:38:54.924Z</time></trkpt><trkpt lat="43.90820067466129" lon="11.506436201810438"><ele>177.0</ele><time>2026-04-25T09:38:55.924Z</time></trkpt><trkpt lat="43.90834846878302" lon="11.506371985409453"><ele>177.0</ele><time>2026-04-25T09:38:56.925Z</time></trkpt><trkpt lat="43.90848495401387" lon="11.506304483387966"><ele>177.0</ele><time>2026-04-25T09:38:57.925Z</time></trkpt><trkpt lat="43.908615523467205" lon="11.506247143174496"><ele>177.0</ele><time>2026-04-25T09:38:58.925Z</time></trkpt><trkpt lat="43.90874285231232" lon="11.506219633420997"><ele>177.0</ele><time>2026-04-25T09:38:59.925Z</time></trkpt><trkpt lat="43.908867913921185" lon="11.506225572398868"><ele>177.0</ele><time>2026-04-25T09:39:00.925Z</time></trkpt><trkpt lat="43.908982282127816" lon="11.506262752701355"><ele>177.0</ele><time>2026-04-25T09:39:01.926Z</time></trkpt><trkpt lat="43.90909612317855" lon="11.506331417682462"><ele>177.0</ele><time>2026-04-25T09:39:02.926Z</time></trkpt><trkpt lat="43.909208728184566" lon="11.506429766425972"><ele>174.0</ele><time>2026-04-25T09:39:03.926Z</time></trkpt><trkpt lat="43.90931580422806" lon="11.506547288868875"><ele>171.0</ele><time>2026-04-25T09:39:04.926Z</time></trkpt><trkpt lat="43.90942813799041" lon="11.506661851011357"><ele>168.0</ele><time>2026-04-25T09:39:05.926Z</time></trkpt><trkpt lat="43.9095632794094" lon="11.506785204689434"><ele>165.0</ele><time>2026-04-25T09:39:06.926Z</time></trkpt><trkpt lat="43.90971490908657" lon="11.506881087961654"><ele>165.0</ele><time>2026-04-25T09:39:07.927Z</time></trkpt><trkpt lat="43.909875612428614" lon="11.506976291386605"><ele>165.0</ele><time>2026-04-25T09:39:08.927Z</time></trkpt><trkpt lat="43.910030985050064" lon="11.507053908368778"><ele>165.0</ele><time>2026-04-25T09:39:09.927Z</time></trkpt><trkpt lat="43.910191121239826" lon="11.507122938269688"><ele>169.66666666666666</ele><time>2026-04-25T09:39:10.927Z</time></trkpt><trkpt lat="43.910341461726894" lon="11.507184474377366"><ele>174.33333333333331</ele><time>2026-04-25T09:39:11.927Z</time></trkpt><trkpt lat="43.91049140397661" lon="11.507234614599312"><ele>179.0</ele><time>2026-04-25T09:39:12.927Z</time></trkpt><trkpt lat="43.910628286452656" lon="11.507274583408108"><ele>179.0</ele><time>2026-04-25T09:39:13.927Z</time></trkpt><trkpt lat="43.910749442188724" lon="11.507306327604551"><ele>179.0</ele><time>2026-04-25T09:39:14.927Z</time></trkpt><trkpt lat="43.91087121252684" lon="11.50733308416259"><ele>179.0</ele><time>2026-04-25T09:39:15.927Z</time></trkpt><trkpt lat="43.91098669096604" lon="11.507271007569909"><ele>179.0</ele><time>2026-04-25T09:39:16.927Z</time></trkpt><trkpt lat="43.91111701480709" lon="11.507181105921328"><ele>172.33333333333331</ele><time>2026-04-25T09:39:17.928Z</time></trkpt><trkpt lat="43.911252889427544" lon="11.507065407413892"><ele>165.66666666666666</ele><time>2026-04-25T09:39:18.928Z</time></trkpt><trkpt lat="43.911397922783266" lon="11.50693627277145"><ele>159.0</ele><time>2026-04-25T09:39:19.928Z</time></trkpt><trkpt lat="43.91155365157919" lon="11.506797461713397"><ele>159.0</ele><time>2026-04-25T09:39:20.928Z</time></trkpt><trkpt lat="43.911711757115754" lon="11.506654128413652"><ele>159.0</ele><time>2026-04-25T09:39:21.928Z</time></trkpt><trkpt lat="43.91186872739656" lon="11.506512258973334"><ele>159.0</ele><time>2026-04-25T09:39:22.928Z</time></trkpt><trkpt lat="43.91202816969295" lon="11.50637845361968"><ele>159.0</ele><time>2026-04-25T09:39:23.928Z</time></trkpt><trkpt lat="43.91219224306482" lon="11.506245501245296"><ele>159.0</ele><time>2026-04-25T09:39:24.928Z</time></trkpt><trkpt lat="43.91236037547343" lon="11.506115679356888"><ele>159.0</ele><time>2026-04-25T09:39:25.928Z</time></trkpt><trkpt lat="43.91253501481353" lon="11.505988813756886"><ele>161.33333333333334</ele><time>2026-04-25T09:39:26.928Z</time></trkpt><trkpt lat="43.912711288185456" lon="11.505867327404893"><ele>163.66666666666669</ele><time>2026-04-25T09:39:27.928Z</time></trkpt><trkpt lat="43.912885542467606" lon="11.505757239483643"><ele>166.0</ele><time>2026-04-25T09:39:28.928Z</time></trkpt><trkpt lat="43.91306346749579" lon="11.505657648238316"><ele>166.0</ele><time>2026-04-25T09:39:29.928Z</time></trkpt><trkpt lat="43.91324537672789" lon="11.505577080181524"><ele>166.0</ele><time>2026-04-25T09:39:30.928Z</time></trkpt><trkpt lat="43.91343413964684" lon="11.505516237553499"><ele>166.0</ele><time>2026-04-25T09:39:31.928Z</time></trkpt><trkpt lat="43.91362457588447" lon="11.505474817807732"><ele>165.33333333333334</ele><time>2026-04-25T09:39:32.928Z</time></trkpt><trkpt lat="43.913815317296915" lon="11.505434886465022"><ele>164.66666666666666</ele><time>2026-04-25T09:39:33.928Z</time></trkpt><trkpt lat="43.914006479485685" lon="11.505393019548196"><ele>164.0</ele><time>2026-04-25T09:39:34.928Z</time></trkpt><trkpt lat="43.91419723953774" lon="11.505348017115807"><ele>164.66666666666666</ele><time>2026-04-25T09:39:35.928Z</time></trkpt><trkpt lat="43.914388706739274" lon="11.50530168330293"><ele>165.33333333333334</ele><time>2026-04-25T09:39:36.928Z</time></trkpt><trkpt lat="43.91458324978226" lon="11.505244209217837"><ele>166.0</ele><time>2026-04-25T09:39:37.928Z</time></trkpt><trkpt lat="43.91477100961429" lon="11.505165311602727"><ele>166.0</ele><time>2026-04-25T09:39:38.928Z</time></trkpt><trkpt lat="43.91496162483677" lon="11.50509028317844"><ele>166.0</ele><time>2026-04-25T09:39:39.928Z</time></trkpt><trkpt lat="43.91515293653204" lon="11.505020764407108"><ele>166.0</ele><time>2026-04-25T09:39:40.925Z</time></trkpt><trkpt lat="43.91534632029095" lon="11.50495435107909"><ele>169.66666666666669</ele><time>2026-04-25T09:39:41.926Z</time></trkpt><trkpt lat="43.9155435388555" lon="11.504886695412202"><ele>173.33333333333334</ele><time>2026-04-25T09:39:42.926Z</time></trkpt><trkpt lat="43.915746067295835" lon="11.504816849837486"><ele>177.0</ele><time>2026-04-25T09:39:43.926Z</time></trkpt><trkpt lat="43.91594376820257" lon="11.504748366138159"><ele>178.33333333333334</ele><time>2026-04-25T09:39:44.925Z</time></trkpt><trkpt lat="43.91613247355144" lon="11.504684092939861"><ele>179.66666666666669</ele><time>2026-04-25T09:39:45.925Z</time></trkpt><trkpt lat="43.91632164134595" lon="11.504612275835722"><ele>181.0</ele><time>2026-04-25T09:39:46.926Z</time></trkpt><trkpt lat="43.91650934387772" lon="11.504540385664777"><ele>176.66666666666669</ele><time>2026-04-25T09:39:47.926Z</time></trkpt><trkpt lat="43.91670000845106" lon="11.504473707916425"><ele>172.33333333333334</ele><time>2026-04-25T09:39:48.926Z</time></trkpt><trkpt lat="43.916891332210746" lon="11.504418109966192"><ele>168.0</ele><time>2026-04-25T09:39:49.926Z</time></trkpt><trkpt lat="43.91709340580321" lon="11.504374654849519"><ele>168.0</ele><time>2026-04-25T09:39:50.926Z</time></trkpt><trkpt lat="43.91730791930007" lon="11.50434017598619"><ele>168.0</ele><time>2026-04-25T09:39:51.926Z</time></trkpt><trkpt lat="43.917525511112046" lon="11.504305331035317"><ele>168.0</ele><time>2026-04-25T09:39:52.925Z</time></trkpt><trkpt lat="43.9177452561874" lon="11.504268616664614"><ele>168.0</ele><time>2026-04-25T09:39:53.926Z</time></trkpt><trkpt lat="43.91795130993141" lon="11.504227720716095"><ele>168.0</ele><time>2026-04-25T09:39:54.926Z</time></trkpt><trkpt lat="43.91816195946352" lon="11.504197159670563"><ele>168.0</ele><time>2026-04-25T09:39:55.926Z</time></trkpt><trkpt lat="43.91834470874681" lon="11.504171154101849"><ele>173.33333333333334</ele><time>2026-04-25T09:39:56.926Z</time></trkpt><trkpt lat="43.918530326472194" lon="11.504121288751401"><ele>178.66666666666669</ele><time>2026-04-25T09:39:57.926Z</time></trkpt><trkpt lat="43.91869003155504" lon="11.504055285075474"><ele>184.0</ele><time>2026-04-25T09:39:58.926Z</time></trkpt><trkpt lat="43.91885512261579" lon="11.5039730964589"><ele>184.0</ele><time>2026-04-25T09:39:59.926Z</time></trkpt><trkpt lat="43.91901798756143" lon="11.503866051857319"><ele>184.0</ele><time>2026-04-25T09:40:00.926Z</time></trkpt><trkpt lat="43.91917679397552" lon="11.50373693380674"><ele>184.0</ele><time>2026-04-25T09:40:01.926Z</time></trkpt><trkpt lat="43.919340441723065" lon="11.503634689094032"><ele>181.66666666666669</ele><time>2026-04-25T09:40:02.926Z</time></trkpt><trkpt lat="43.919495701039516" lon="11.503508312303635"><ele>179.33333333333334</ele><time>2026-04-25T09:40:03.926Z</time></trkpt><trkpt lat="43.91966279187792" lon="11.503418982064925"><ele>177.0</ele><time>2026-04-25T09:40:04.926Z</time></trkpt><trkpt lat="43.91984075993141" lon="11.50333512587179"><ele>177.0</ele><time>2026-04-25T09:40:05.926Z</time></trkpt><trkpt lat="43.919998749072604" lon="11.50320960720226"><ele>177.0</ele><time>2026-04-25T09:40:06.926Z</time></trkpt><trkpt lat="43.92016609685236" lon="11.503090793340947"><ele>177.0</ele><time>2026-04-25T09:40:07.926Z</time></trkpt><trkpt lat="43.92033910061087" lon="11.502989225403036"><ele>174.66666666666666</ele><time>2026-04-25T09:40:08.926Z</time></trkpt><trkpt lat="43.92050871815686" lon="11.502857493325893"><ele>172.33333333333331</ele><time>2026-04-25T09:40:09.926Z</time></trkpt><trkpt lat="43.920683593422915" lon="11.502733470577198"><ele>170.0</ele><time>2026-04-25T09:40:10.926Z</time></trkpt><trkpt lat="43.9208575843832" lon="11.502609426298587"><ele>171.33333333333331</ele><time>2026-04-25T09:40:11.926Z</time></trkpt><trkpt lat="43.921029665308325" lon="11.502485697783216"><ele>172.66666666666666</ele><time>2026-04-25T09:40:12.926Z</time></trkpt><trkpt lat="43.9212001861058" lon="11.502366298802102"><ele>174.0</ele><time>2026-04-25T09:40:13.926Z</time></trkpt><trkpt lat="43.9213724656193" lon="11.502246209968215"><ele>174.0</ele><time>2026-04-25T09:40:14.926Z</time></trkpt><trkpt lat="43.92154134393536" lon="11.502126476526847"><ele>174.0</ele><time>2026-04-25T09:40:15.926Z</time></trkpt><trkpt lat="43.921704056656914" lon="11.502005383168049"><ele>174.0</ele><time>2026-04-25T09:40:16.926Z</time></trkpt><trkpt lat="43.921862597501615" lon="11.501886170830257"><ele>174.0</ele><time>2026-04-25T09:40:17.926Z</time></trkpt><trkpt lat="43.922018872534274" lon="11.501771426037383"><ele>174.0</ele><time>2026-04-25T09:40:18.926Z</time></trkpt><trkpt lat="43.922176473433346" lon="11.501660237750361"><ele>174.0</ele><time>2026-04-25T09:40:19.926Z</time></trkpt><trkpt lat="43.92233144132836" lon="11.50156624487155"><ele>174.0</ele><time>2026-04-25T09:40:20.926Z</time></trkpt><trkpt lat="43.92247875068564" lon="11.501467629434533"><ele>174.0</ele><time>2026-04-25T09:40:21.926Z</time></trkpt><trkpt lat="43.92263052946155" lon="11.50138758171159"><ele>174.0</ele><time>2026-04-25T09:40:22.926Z</time></trkpt><trkpt lat="43.92279191653138" lon="11.501326716989151"><ele>174.0</ele><time>2026-04-25T09:40:23.926Z</time></trkpt><trkpt lat="43.92296489030645" lon="11.501287876694185"><ele>174.0</ele><time>2026-04-25T09:40:24.926Z</time></trkpt><trkpt lat="43.92313452488724" lon="11.501261542816895"><ele>174.0</ele><time>2026-04-25T09:40:25.926Z</time></trkpt><trkpt lat="43.92330337578055" lon="11.501242756428741"><ele>174.66666666666666</ele><time>2026-04-25T09:40:26.926Z</time></trkpt><trkpt lat="43.923472600440476" lon="11.501210811973566"><ele>175.33333333333331</ele><time>2026-04-25T09:40:27.926Z</time></trkpt><trkpt lat="43.92364497614961" lon="11.501167114932208"><ele>176.0</ele><time>2026-04-25T09:40:28.926Z</time></trkpt><trkpt lat="43.92381716841215" lon="11.50110247138122"><ele>176.0</ele><time>2026-04-25T09:40:29.926Z</time></trkpt><trkpt lat="43.92398287844308" lon="11.50101603059262"><ele>176.0</ele><time>2026-04-25T09:40:30.926Z</time></trkpt><trkpt lat="43.924130382508174" lon="11.500916216692035"><ele>176.0</ele><time>2026-04-25T09:40:31.926Z</time></trkpt><trkpt lat="43.92428186949032" lon="11.500836765337874"><ele>177.66666666666666</ele><time>2026-04-25T09:40:32.926Z</time></trkpt><trkpt lat="43.92443994117775" lon="11.500776153306601"><ele>179.33333333333334</ele><time>2026-04-25T09:40:33.926Z</time></trkpt><trkpt lat="43.92460405721346" lon="11.500731402431802"><ele>181.0</ele><time>2026-04-25T09:40:34.926Z</time></trkpt><trkpt lat="43.924773511716594" lon="11.500709835535227"><ele>181.0</ele><time>2026-04-25T09:40:35.926Z</time></trkpt><trkpt lat="43.92495324949851" lon="11.50069685086473"><ele>181.0</ele><time>2026-04-25T09:40:36.926Z</time></trkpt><trkpt lat="43.92513139018717" lon="11.500699930107118"><ele>181.0</ele><time>2026-04-25T09:40:37.926Z</time></trkpt><trkpt lat="43.92530707334814" lon="11.500719459811725"><ele>182.66666666666669</ele><time>2026-04-25T09:40:38.926Z</time></trkpt><trkpt lat="43.92548220527824" lon="11.500747149794472"><ele>184.33333333333334</ele><time>2026-04-25T09:40:39.926Z</time></trkpt><trkpt lat="43.92565136795155" lon="11.50077250259652"><ele>186.0</ele><time>2026-04-25T09:40:40.926Z</time></trkpt><trkpt lat="43.92581191494022" lon="11.500792633371223"><ele>187.33333333333334</ele><time>2026-04-25T09:40:41.926Z</time></trkpt><trkpt lat="43.925966288814614" lon="11.500804494954282"><ele>188.66666666666669</ele><time>2026-04-25T09:40:42.926Z</time></trkpt><trkpt lat="43.926117249625676" lon="11.500786233837893"><ele>190.0</ele><time>2026-04-25T09:40:43.926Z</time></trkpt><trkpt lat="43.926269907330095" lon="11.50074701271058"><ele>190.0</ele><time>2026-04-25T09:40:44.926Z</time></trkpt><trkpt lat="43.92642118271997" lon="11.500687760256184"><ele>190.0</ele><time>2026-04-25T09:40:45.926Z</time></trkpt><trkpt lat="43.9265564604001" lon="11.500561544109232"><ele>190.0</ele><time>2026-04-25T09:40:46.926Z</time></trkpt><trkpt lat="43.926687867971545" lon="11.500422059742965"><ele>193.66666666666669</ele><time>2026-04-25T09:40:47.926Z</time></trkpt><trkpt lat="43.92680593307716" lon="11.50025649596124"><ele>197.33333333333334</ele><time>2026-04-25T09:40:48.926Z</time></trkpt><trkpt lat="43.9269148717546" lon="11.500072458977485"><ele>201.0</ele><time>2026-04-25T09:40:49.926Z</time></trkpt><trkpt lat="43.92701342923038" lon="11.499904905774805"><ele>201.0</ele><time>2026-04-25T09:40:50.926Z</time></trkpt><trkpt lat="43.927109599514594" lon="11.499751125802964"><ele>201.0</ele><time>2026-04-25T09:40:51.926Z</time></trkpt><trkpt lat="43.92720889923517" lon="11.499619614012742"><ele>201.0</ele><time>2026-04-25T09:40:52.926Z</time></trkpt><trkpt lat="43.92731586441769" lon="11.49952015589288"><ele>201.0</ele><time>2026-04-25T09:40:53.926Z</time></trkpt><trkpt lat="43.92743155806956" lon="11.49944244637224"><ele>200.0</ele><time>2026-04-25T09:40:54.926Z</time></trkpt><trkpt lat="43.92755827383861" lon="11.499401484696639"><ele>199.0</ele><time>2026-04-25T09:40:55.926Z</time></trkpt><trkpt lat="43.92768892305784" lon="11.49933288795258"><ele>198.0</ele><time>2026-04-25T09:40:56.926Z</time></trkpt><trkpt lat="43.92782511232389" lon="11.499261904297166"><ele>197.0</ele><time>2026-04-25T09:40:57.926Z</time></trkpt><trkpt lat="43.9279618259548" lon="11.499197982488381"><ele>197.0</ele><time>2026-04-25T09:40:58.926Z</time></trkpt><trkpt lat="43.928088054732406" lon="11.49914330392361"><ele>197.0</ele><time>2026-04-25T09:40:59.926Z</time></trkpt><trkpt lat="43.92818656103174" lon="11.499126021712982"><ele>197.0</ele><time>2026-04-25T09:41:00.926Z</time></trkpt><trkpt lat="43.92827940500202" lon="11.499126202016745"><ele>197.0</ele><time>2026-04-25T09:41:01.926Z</time></trkpt><trkpt lat="43.92836906221305" lon="11.49915794522671"><ele>197.0</ele><time>2026-04-25T09:41:02.926Z</time></trkpt><trkpt lat="43.92844993329936" lon="11.499245892084895"><ele>198.83333333333334</ele><time>2026-04-25T09:41:03.926Z</time></trkpt><trkpt lat="43.92851942592792" lon="11.499361219036286"><ele>200.66666666666669</ele><time>2026-04-25T09:41:04.926Z</time></trkpt><trkpt lat="43.928589235882065" lon="11.499430635883959"><ele>202.5</ele><time>2026-04-25T09:41:05.926Z</time></trkpt><trkpt lat="43.92867133943461" lon="11.499453274428078"><ele>204.33333333333331</ele><time>2026-04-25T09:41:06.926Z</time></trkpt><trkpt lat="43.928752137503714" lon="11.49943019309347"><ele>206.16666666666666</ele><time>2026-04-25T09:41:07.926Z</time></trkpt><trkpt lat="43.92881726499964" lon="11.499361085455316"><ele>208.0</ele><time>2026-04-25T09:41:08.926Z</time></trkpt><trkpt lat="43.928879611840095" lon="11.499255509859523"><ele>208.0</ele><time>2026-04-25T09:41:09.926Z</time></trkpt><trkpt lat="43.92896001468954" lon="11.499135456912773"><ele>208.0</ele><time>2026-04-25T09:41:10.926Z</time></trkpt><trkpt lat="43.929014633508075" lon="11.498978734236335"><ele>208.0</ele><time>2026-04-25T09:41:11.926Z</time></trkpt><trkpt lat="43.92911180091796" lon="11.498844525502035"><ele>208.0</ele><time>2026-04-25T09:41:12.926Z</time></trkpt><trkpt lat="43.92920313357576" lon="11.498709015535317"><ele>209.33333333333331</ele><time>2026-04-25T09:41:13.926Z</time></trkpt><trkpt lat="43.92930446589462" lon="11.49856486382651"><ele>210.66666666666669</ele><time>2026-04-25T09:41:14.926Z</time></trkpt><trkpt lat="43.92940439866847" lon="11.498396321465467"><ele>212.0</ele><time>2026-04-25T09:41:15.926Z</time></trkpt><trkpt lat="43.92948572831554" lon="11.498215380327807"><ele>212.0</ele><time>2026-04-25T09:41:16.926Z</time></trkpt><trkpt lat="43.9295969321569" lon="11.498070060434838"><ele>212.0</ele><time>2026-04-25T09:41:17.926Z</time></trkpt><trkpt lat="43.929712911095706" lon="11.497950155733847"><ele>212.0</ele><time>2026-04-25T09:41:18.926Z</time></trkpt><trkpt lat="43.92982366008934" lon="11.497822121082555"><ele>212.0</ele><time>2026-04-25T09:41:19.926Z</time></trkpt><trkpt lat="43.929931448164865" lon="11.49769070125192"><ele>211.5</ele><time>2026-04-25T09:41:20.926Z</time></trkpt><trkpt lat="43.9300541348657" lon="11.497587640546968"><ele>211.0</ele><time>2026-04-25T09:41:21.926Z</time></trkpt><trkpt lat="43.93017443263954" lon="11.49748061695552"><ele>210.5</ele><time>2026-04-25T09:41:22.926Z</time></trkpt><trkpt lat="43.93029499809803" lon="11.497392107059062"><ele>210.0</ele><time>2026-04-25T09:41:23.926Z</time></trkpt><trkpt lat="43.93041043240795" lon="11.497306999161886"><ele>210.0</ele><time>2026-04-25T09:41:24.926Z</time></trkpt><trkpt lat="43.9305370417613" lon="11.49725253042798"><ele>210.0</ele><time>2026-04-25T09:41:25.926Z</time></trkpt><trkpt lat="43.930635677081376" lon="11.49717927244755"><ele>210.0</ele><time>2026-04-25T09:41:26.926Z</time></trkpt><trkpt lat="43.93070750362532" lon="11.497087531593476"><ele>210.0</ele><time>2026-04-25T09:41:27.926Z</time></trkpt><trkpt lat="43.93075469075149" lon="11.496980432332029"><ele>210.0</ele><time>2026-04-25T09:41:28.926Z</time></trkpt><trkpt lat="43.93077693629171" lon="11.496842421558474"><ele>206.75</ele><time>2026-04-25T09:41:29.926Z</time></trkpt><trkpt lat="43.93077249414624" lon="11.496693144651367"><ele>203.5</ele><time>2026-04-25T09:41:30.926Z</time></trkpt><trkpt lat="43.93075759530976" lon="11.496512226894364"><ele>200.25</ele><time>2026-04-25T09:41:31.926Z</time></trkpt><trkpt lat="43.93073913004668" lon="11.496313699558403"><ele>197.0</ele><time>2026-04-25T09:41:32.926Z</time></trkpt><trkpt lat="43.93073362974263" lon="11.496084430609201"><ele>195.66666666666669</ele><time>2026-04-25T09:41:33.926Z</time></trkpt><trkpt lat="43.93074207207148" lon="11.495847058144312"><ele>194.33333333333331</ele><time>2026-04-25T09:41:34.926Z</time></trkpt><trkpt lat="43.93076223439189" lon="11.495635861722707"><ele>193.0</ele><time>2026-04-25T09:41:35.926Z</time></trkpt><trkpt lat="43.93079569850479" lon="11.4954283129556"><ele>190.75</ele><time>2026-04-25T09:41:36.926Z</time></trkpt><trkpt lat="43.93084851413249" lon="11.495240124243928"><ele>188.5</ele><time>2026-04-25T09:41:37.926Z</time></trkpt><trkpt lat="43.93092192904612" lon="11.4950782243465"><ele>186.25</ele><time>2026-04-25T09:41:38.926Z</time></trkpt><trkpt lat="43.93098185358303" lon="11.494928097359193"><ele>184.0</ele><time>2026-04-25T09:41:39.926Z</time></trkpt><trkpt lat="43.93101642233003" lon="11.49477825746192"><ele>182.5</ele><time>2026-04-25T09:41:40.926Z</time></trkpt><trkpt lat="43.93100581150374" lon="11.494606947064298"><ele>181.0</ele><time>2026-04-25T09:41:41.926Z</time></trkpt><trkpt lat="43.93095941233895" lon="11.494433788374717"><ele>179.5</ele><time>2026-04-25T09:41:42.926Z</time></trkpt><trkpt lat="43.93089538984135" lon="11.494256531545698"><ele>178.0</ele><time>2026-04-25T09:41:43.926Z</time></trkpt><trkpt lat="43.93084065046119" lon="11.49407905247075"><ele>178.0</ele><time>2026-04-25T09:41:44.926Z</time></trkpt><trkpt lat="43.93080857783439" lon="11.493873099648289"><ele>178.0</ele><time>2026-04-25T09:41:45.926Z</time></trkpt><trkpt lat="43.93079619459888" lon="11.493638754021587"><ele>178.0</ele><time>2026-04-25T09:41:46.923Z</time></trkpt><trkpt lat="43.93080353527025" lon="11.49339071919545"><ele>178.0</ele><time>2026-04-25T09:41:47.923Z</time></trkpt><trkpt lat="43.9308081768395" lon="11.49314739265846"><ele>178.0</ele><time>2026-04-25T09:41:48.923Z</time></trkpt><trkpt lat="43.93080310336195" lon="11.492899024191193"><ele>178.0</ele><time>2026-04-25T09:41:49.923Z</time></trkpt><trkpt lat="43.9307957942363" lon="11.492634223160426"><ele>179.0</ele><time>2026-04-25T09:41:50.923Z</time></trkpt><trkpt lat="43.93078485584269" lon="11.492370880734391"><ele>180.0</ele><time>2026-04-25T09:41:51.923Z</time></trkpt><trkpt lat="43.93076141792405" lon="11.492109632530848"><ele>181.0</ele><time>2026-04-25T09:41:52.923Z</time></trkpt><trkpt lat="43.930721708503505" lon="11.491850673001906"><ele>182.66666666666669</ele><time>2026-04-25T09:41:53.924Z</time></trkpt><trkpt lat="43.9306795938719" lon="11.491593517803011"><ele>184.33333333333334</ele><time>2026-04-25T09:41:54.924Z</time></trkpt><trkpt lat="43.93062697204437" lon="11.491331792001327"><ele>186.0</ele><time>2026-04-25T09:41:55.924Z</time></trkpt><trkpt lat="43.93057529993501" lon="11.491067721902649"><ele>187.0</ele><time>2026-04-25T09:41:56.923Z</time></trkpt><trkpt lat="43.93051463252694" lon="11.490802565196827"><ele>188.0</ele><time>2026-04-25T09:41:57.923Z</time></trkpt><trkpt lat="43.93046254961504" lon="11.490547576838997"><ele>189.0</ele><time>2026-04-25T09:41:58.923Z</time></trkpt><trkpt lat="43.93040291341372" lon="11.49029547162931"><ele>191.66666666666669</ele><time>2026-04-25T09:41:59.923Z</time></trkpt><trkpt lat="43.930368220863635" lon="11.490045469271712"><ele>194.33333333333334</ele><time>2026-04-25T09:42:00.923Z</time></trkpt><trkpt lat="43.930320799654275" lon="11.48980710470585"><ele>197.0</ele><time>2026-04-25T09:42:01.923Z</time></trkpt><trkpt lat="43.930272934781684" lon="11.489566510126814"><ele>201.66666666666669</ele><time>2026-04-25T09:42:02.923Z</time></trkpt><trkpt lat="43.93022733521037" lon="11.489336903243782"><ele>206.33333333333331</ele><time>2026-04-25T09:42:03.923Z</time></trkpt><trkpt lat="43.930186072521025" lon="11.489128763949758"><ele>211.0</ele><time>2026-04-25T09:42:04.923Z</time></trkpt><trkpt lat="43.930143920352144" lon="11.488916138000192"><ele>211.33333333333331</ele><time>2026-04-25T09:42:05.923Z</time></trkpt><trkpt lat="43.930102146668105" lon="11.48869832899945"><ele>211.66666666666669</ele><time>2026-04-25T09:42:06.923Z</time></trkpt><trkpt lat="43.93006340246674" lon="11.488480032508877"><ele>212.0</ele><time>2026-04-25T09:42:07.923Z</time></trkpt><trkpt lat="43.93003680801938" lon="11.488248516526998"><ele>203.0</ele><time>2026-04-25T09:42:08.923Z</time></trkpt><trkpt lat="43.9300289938842" lon="11.488021980147268"><ele>194.0</ele><time>2026-04-25T09:42:09.923Z</time></trkpt><trkpt lat="43.93003145585185" lon="11.487787578668401"><ele>185.0</ele><time>2026-04-25T09:42:10.923Z</time></trkpt><trkpt lat="43.93003843271397" lon="11.487555824142664"><ele>185.33333333333331</ele><time>2026-04-25T09:42:11.923Z</time></trkpt><trkpt lat="43.93002892317232" lon="11.48732477135028"><ele>185.66666666666666</ele><time>2026-04-25T09:42:12.923Z</time></trkpt><trkpt lat="43.93005703948443" lon="11.487110369681856"><ele>186.0</ele><time>2026-04-25T09:42:13.923Z</time></trkpt><trkpt lat="43.9300670211446" lon="11.486916370942376"><ele>186.0</ele><time>2026-04-25T09:42:14.923Z</time></trkpt><trkpt lat="43.93010506448351" lon="11.486751877172079"><ele>186.0</ele><time>2026-04-25T09:42:15.923Z</time></trkpt><trkpt lat="43.93014330943841" lon="11.486592981535042"><ele>186.0</ele><time>2026-04-25T09:42:16.923Z</time></trkpt><trkpt lat="43.9302042437807" lon="11.486464001723679"><ele>186.0</ele><time>2026-04-25T09:42:17.923Z</time></trkpt><trkpt lat="43.930293175024694" lon="11.486361757702817"><ele>186.0</ele><time>2026-04-25T09:42:18.923Z</time></trkpt><trkpt lat="43.93040121781027" lon="11.486291102849473"><ele>186.0</ele><time>2026-04-25T09:42:19.923Z</time></trkpt><trkpt lat="43.9305206795197" lon="11.486239286137089"><ele>186.0</ele><time>2026-04-25T09:42:20.923Z</time></trkpt><trkpt lat="43.93066165490344" lon="11.486198057773521"><ele>186.0</ele><time>2026-04-25T09:42:21.923Z</time></trkpt><trkpt lat="43.93076287069365" lon="11.486115404427272"><ele>183.0</ele><time>2026-04-25T09:42:22.923Z</time></trkpt><trkpt lat="43.93083499251202" lon="11.485998351875608"><ele>180.0</ele><time>2026-04-25T09:42:23.923Z</time></trkpt><trkpt lat="43.930877713396285" lon="11.485865340776865"><ele>177.0</ele><time>2026-04-25T09:42:24.923Z</time></trkpt><trkpt lat="43.93091177943562" lon="11.4857018771572"><ele>174.0</ele><time>2026-04-25T09:42:25.923Z</time></trkpt><trkpt lat="43.930951858495085" lon="11.485507584145228"><ele>175.0</ele><time>2026-04-25T09:42:26.923Z</time></trkpt><trkpt lat="43.930998595934" lon="11.485310555401329"><ele>176.0</ele><time>2026-04-25T09:42:27.923Z</time></trkpt><trkpt lat="43.93104951187006" lon="11.485085366758854"><ele>177.0</ele><time>2026-04-25T09:42:28.923Z</time></trkpt><trkpt lat="43.93109967544728" lon="11.484853305983203"><ele>177.0</ele><time>2026-04-25T09:42:29.923Z</time></trkpt><trkpt lat="43.93114982483307" lon="11.484622897111446"><ele>177.0</ele><time>2026-04-25T09:42:30.923Z</time></trkpt><trkpt lat="43.93119935659595" lon="11.484411848225031"><ele>177.0</ele><time>2026-04-25T09:42:31.923Z</time></trkpt><trkpt lat="43.93125208657316" lon="11.484217065239248"><ele>177.33333333333334</ele><time>2026-04-25T09:42:32.923Z</time></trkpt><trkpt lat="43.931315298545634" lon="11.484029706798495"><ele>177.66666666666669</ele><time>2026-04-25T09:42:33.923Z</time></trkpt><trkpt lat="43.93139904614725" lon="11.48385453565784"><ele>178.0</ele><time>2026-04-25T09:42:34.923Z</time></trkpt><trkpt lat="43.931506547362645" lon="11.48367757487921"><ele>176.66666666666669</ele><time>2026-04-25T09:42:35.923Z</time></trkpt><trkpt lat="43.9316212916991" lon="11.48348400430444"><ele>175.33333333333334</ele><time>2026-04-25T09:42:36.923Z</time></trkpt><trkpt lat="43.93174104082057" lon="11.483280925402909"><ele>174.0</ele><time>2026-04-25T09:42:37.923Z</time></trkpt><trkpt lat="43.9318548350625" lon="11.48309094854827"><ele>173.66666666666666</ele><time>2026-04-25T09:42:38.923Z</time></trkpt><trkpt lat="43.93196840496802" lon="11.482900921628584"><ele>173.33333333333331</ele><time>2026-04-25T09:42:39.923Z</time></trkpt><trkpt lat="43.932076182525364" lon="11.482720288447574"><ele>173.0</ele><time>2026-04-25T09:42:40.923Z</time></trkpt><trkpt lat="43.9321858063466" lon="11.482525098288752"><ele>173.0</ele><time>2026-04-25T09:42:41.923Z</time></trkpt><trkpt lat="43.9322938761258" lon="11.482343987813644"><ele>173.0</ele><time>2026-04-25T09:42:42.923Z</time></trkpt><trkpt lat="43.93240171302163" lon="11.48216594721405"><ele>173.0</ele><time>2026-04-25T09:42:43.923Z</time></trkpt><trkpt lat="43.93251010992652" lon="11.48199091282267"><ele>173.66666666666666</ele><time>2026-04-25T09:42:44.923Z</time></trkpt><trkpt lat="43.93262904142719" lon="11.481824145107145"><ele>174.33333333333334</ele><time>2026-04-25T09:42:45.923Z</time></trkpt><trkpt lat="43.9327680600549" lon="11.481663867879595"><ele>175.0</ele><time>2026-04-25T09:42:46.923Z</time></trkpt><trkpt lat="43.9329210949025" lon="11.481502426328127"><ele>175.0</ele><time>2026-04-25T09:42:47.923Z</time></trkpt><trkpt lat="43.93308361749864" lon="11.481340899358331"><ele>175.0</ele><time>2026-04-25T09:42:48.923Z</time></trkpt><trkpt lat="43.93323828105373" lon="11.481173694275386"><ele>175.0</ele><time>2026-04-25T09:42:49.923Z</time></trkpt><trkpt lat="43.933385970075776" lon="11.481021153921555"><ele>175.33333333333334</ele><time>2026-04-25T09:42:50.923Z</time></trkpt><trkpt lat="43.93352749966911" lon="11.480870883856442"><ele>175.66666666666666</ele><time>2026-04-25T09:42:51.923Z</time></trkpt><trkpt lat="43.933646770621" lon="11.480706693401686"><ele>176.0</ele><time>2026-04-25T09:42:52.923Z</time></trkpt><trkpt lat="43.93375345403692" lon="11.48052235996271"><ele>175.33333333333331</ele><time>2026-04-25T09:42:53.923Z</time></trkpt><trkpt lat="43.93384065207496" lon="11.48031994859296"><ele>174.66666666666666</ele><time>2026-04-25T09:42:54.923Z</time></trkpt><trkpt lat="43.93392519270288" lon="11.480097828046484"><ele>174.0</ele><time>2026-04-25T09:42:55.923Z</time></trkpt><trkpt lat="43.93401451543863" lon="11.479867354274745"><ele>174.0</ele><time>2026-04-25T09:42:56.923Z</time></trkpt><trkpt lat="43.93410209787698" lon="11.479643189587032"><ele>174.0</ele><time>2026-04-25T09:42:57.923Z</time></trkpt><trkpt lat="43.93418315996822" lon="11.479418433882776"><ele>174.0</ele><time>2026-04-25T09:42:58.923Z</time></trkpt><trkpt lat="43.934258460178405" lon="11.479190158924148"><ele>175.66666666666666</ele><time>2026-04-25T09:42:59.923Z</time></trkpt><trkpt lat="43.93431943351761" lon="11.478954891288893"><ele>177.33333333333331</ele><time>2026-04-25T09:43:00.923Z</time></trkpt><trkpt lat="43.93439206074972" lon="11.478716400743807"><ele>179.0</ele><time>2026-04-25T09:43:01.923Z</time></trkpt><trkpt lat="43.93443466204082" lon="11.478479859965686"><ele>179.0</ele><time>2026-04-25T09:43:02.923Z</time></trkpt><trkpt lat="43.93448660498163" lon="11.478259674282588"><ele>179.0</ele><time>2026-04-25T09:43:03.923Z</time></trkpt><trkpt lat="43.934535841008525" lon="11.47805331200219"><ele>179.0</ele><time>2026-04-25T09:43:04.923Z</time></trkpt><trkpt lat="43.934575341845104" lon="11.477854277453513"><ele>178.5</ele><time>2026-04-25T09:43:05.923Z</time></trkpt><trkpt lat="43.93461435540086" lon="11.477661426005865"><ele>178.0</ele><time>2026-04-25T09:43:06.923Z</time></trkpt><trkpt lat="43.934631468580946" lon="11.47746845465201"><ele>177.5</ele><time>2026-04-25T09:43:07.923Z</time></trkpt><trkpt lat="43.934620631755294" lon="11.477269060433839"><ele>177.0</ele><time>2026-04-25T09:43:08.923Z</time></trkpt><trkpt lat="43.93458822315364" lon="11.477064380510123"><ele>177.0</ele><time>2026-04-25T09:43:09.923Z</time></trkpt><trkpt lat="43.93456596736442" lon="11.476837293587353"><ele>177.0</ele><time>2026-04-25T09:43:10.923Z</time></trkpt><trkpt lat="43.934536017213354" lon="11.47660505546911"><ele>177.0</ele><time>2026-04-25T09:43:11.923Z</time></trkpt><trkpt lat="43.93450397870693" lon="11.476373937541865"><ele>177.0</ele><time>2026-04-25T09:43:12.923Z</time></trkpt><trkpt lat="43.93447887548043" lon="11.476140200445503"><ele>177.0</ele><time>2026-04-25T09:43:13.923Z</time></trkpt><trkpt lat="43.93445165092825" lon="11.475901806175578"><ele>177.0</ele><time>2026-04-25T09:43:14.923Z</time></trkpt><trkpt lat="43.93442137009535" lon="11.475664364129337"><ele>177.0</ele><time>2026-04-25T09:43:15.923Z</time></trkpt><trkpt lat="43.93439220917391" lon="11.475449055626505"><ele>177.0</ele><time>2026-04-25T09:43:16.923Z</time></trkpt><trkpt lat="43.934369556890786" lon="11.475234287429492"><ele>177.0</ele><time>2026-04-25T09:43:17.923Z</time></trkpt><trkpt lat="43.934344017556676" lon="11.475041005018095"><ele>176.0</ele><time>2026-04-25T09:43:18.923Z</time></trkpt><trkpt lat="43.9343207045652" lon="11.474856216196782"><ele>175.0</ele><time>2026-04-25T09:43:19.923Z</time></trkpt><trkpt lat="43.93430152446309" lon="11.474710144849787"><ele>174.0</ele><time>2026-04-25T09:43:20.923Z</time></trkpt><trkpt lat="43.934276078473204" lon="11.474575755718055"><ele>173.0</ele><time>2026-04-25T09:43:21.923Z</time></trkpt><trkpt lat="43.934254975065315" lon="11.474461002854138"><ele>172.0</ele><time>2026-04-25T09:43:22.923Z</time></trkpt><trkpt lat="43.9342271011328" lon="11.47433869485239"><ele>172.0</ele><time>2026-04-25T09:43:23.923Z</time></trkpt><trkpt lat="43.934199606584016" lon="11.474205100913238"><ele>172.0</ele><time>2026-04-25T09:43:24.923Z</time></trkpt><trkpt lat="43.93416626947294" lon="11.47406445578744"><ele>172.0</ele><time>2026-04-25T09:43:25.923Z</time></trkpt><trkpt lat="43.93412040863822" lon="11.473908713888651"><ele>172.0</ele><time>2026-04-25T09:43:26.923Z</time></trkpt><trkpt lat="43.934072970830016" lon="11.473742434684835"><ele>172.5</ele><time>2026-04-25T09:43:27.923Z</time></trkpt><trkpt lat="43.934034190349735" lon="11.473588339740989"><ele>173.0</ele><time>2026-04-25T09:43:28.923Z</time></trkpt><trkpt lat="43.9339905815984" lon="11.473438053857974"><ele>173.5</ele><time>2026-04-25T09:43:29.923Z</time></trkpt><trkpt lat="43.933943668909386" lon="11.473285398396834"><ele>174.0</ele><time>2026-04-25T09:43:30.923Z</time></trkpt><trkpt lat="43.93392626534579" lon="11.473131769896323"><ele>174.0</ele><time>2026-04-25T09:43:31.923Z</time></trkpt><trkpt lat="43.93388155993474" lon="11.472974380481196"><ele>174.0</ele><time>2026-04-25T09:43:32.923Z</time></trkpt><trkpt lat="43.933835632971416" lon="11.472817142511907"><ele>174.0</ele><time>2026-04-25T09:43:33.923Z</time></trkpt><trkpt lat="43.93379715303719" lon="11.472669521040249"><ele>174.0</ele><time>2026-04-25T09:43:34.923Z</time></trkpt><trkpt lat="43.933769377465396" lon="11.472527004903544"><ele>174.6</ele><time>2026-04-25T09:43:35.923Z</time></trkpt><trkpt lat="43.93373593372463" lon="11.472378864074255"><ele>175.2</ele><time>2026-04-25T09:43:36.923Z</time></trkpt><trkpt lat="43.93370642092752" lon="11.472243078658892"><ele>175.79999999999998</ele><time>2026-04-25T09:43:37.923Z</time></trkpt><trkpt lat="43.93366350768037" lon="11.472115457363266"><ele>176.39999999999998</ele><time>2026-04-25T09:43:38.923Z</time></trkpt><trkpt lat="43.9336223528257" lon="11.471984993442145"><ele>177.0</ele><time>2026-04-25T09:43:39.923Z</time></trkpt><trkpt lat="43.933560511538374" lon="11.471861701382498"><ele>177.2</ele><time>2026-04-25T09:43:40.923Z</time></trkpt><trkpt lat="43.93347942088229" lon="11.471780454052071"><ele>177.39999999999998</ele><time>2026-04-25T09:43:41.923Z</time></trkpt><trkpt lat="43.93337077294444" lon="11.471722059591775"><ele>177.60000000000002</ele><time>2026-04-25T09:43:42.923Z</time></trkpt><trkpt lat="43.93326752215816" lon="11.471675824768816"><ele>177.8</ele><time>2026-04-25T09:43:43.923Z</time></trkpt><trkpt lat="43.93317291957024" lon="11.471635172449343"><ele>178.0</ele><time>2026-04-25T09:43:44.923Z</time></trkpt><trkpt lat="43.933080762924945" lon="11.471596841762727"><ele>177.16666666666669</ele><time>2026-04-25T09:43:45.923Z</time></trkpt><trkpt lat="43.9329982972277" lon="11.471555268732319"><ele>176.33333333333334</ele><time>2026-04-25T09:43:46.923Z</time></trkpt><trkpt lat="43.93291293284631" lon="11.471515698958752"><ele>175.5</ele><time>2026-04-25T09:43:47.923Z</time></trkpt><trkpt lat="43.93283040357206" lon="11.471473537866066"><ele>174.66666666666666</ele><time>2026-04-25T09:43:48.923Z</time></trkpt><trkpt lat="43.932757303877885" lon="11.471436783140879"><ele>173.83333333333331</ele><time>2026-04-25T09:43:49.923Z</time></trkpt><trkpt lat="43.93268824670605" lon="11.47140009131698"><ele>173.0</ele><time>2026-04-25T09:43:50.923Z</time></trkpt><trkpt lat="43.932619201336095" lon="11.471360727794655"><ele>173.0</ele><time>2026-04-25T09:43:51.923Z</time></trkpt><trkpt lat="43.932545025603204" lon="11.471319527819158"><ele>173.0</ele><time>2026-04-25T09:43:52.922Z</time></trkpt><trkpt lat="43.93246758996019" lon="11.47128189462132"><ele>173.0</ele><time>2026-04-25T09:43:53.922Z</time></trkpt><trkpt lat="43.93238654739701" lon="11.471241034488198"><ele>173.0</ele><time>2026-04-25T09:43:54.922Z</time></trkpt><trkpt lat="43.932302064602524" lon="11.471194049975892"><ele>173.0</ele><time>2026-04-25T09:43:55.922Z</time></trkpt><trkpt lat="43.93221287074307" lon="11.471134790571865"><ele>173.0</ele><time>2026-04-25T09:43:56.922Z</time></trkpt><trkpt lat="43.932111379699755" lon="11.471068064919265"><ele>173.25</ele><time>2026-04-25T09:43:57.922Z</time></trkpt><trkpt lat="43.932010774510864" lon="11.470974887752785"><ele>173.5</ele><time>2026-04-25T09:43:58.922Z</time></trkpt><trkpt lat="43.93188984536977" lon="11.470892642541623"><ele>173.75</ele><time>2026-04-25T09:43:59.922Z</time></trkpt><trkpt lat="43.93177116992122" lon="11.470798956517925"><ele>174.0</ele><time>2026-04-25T09:44:00.922Z</time></trkpt><trkpt lat="43.93165313412347" lon="11.470708737743733"><ele>174.0</ele><time>2026-04-25T09:44:01.922Z</time></trkpt><trkpt lat="43.931532137013576" lon="11.470623116131437"><ele>174.0</ele><time>2026-04-25T09:44:02.922Z</time></trkpt><trkpt lat="43.93140893705463" lon="11.470506763640099"><ele>174.0</ele><time>2026-04-25T09:44:03.922Z</time></trkpt><trkpt lat="43.93128306551859" lon="11.470395049180514"><ele>174.0</ele><time>2026-04-25T09:44:04.922Z</time></trkpt><trkpt lat="43.931149694862484" lon="11.470264152842578"><ele>173.66666666666666</ele><time>2026-04-25T09:44:05.921Z</time></trkpt><trkpt lat="43.93102787139319" lon="11.470131954228767"><ele>173.33333333333331</ele><time>2026-04-25T09:44:06.921Z</time></trkpt><trkpt lat="43.93091085217994" lon="11.46998729422661"><ele>173.0</ele><time>2026-04-25T09:44:07.921Z</time></trkpt><trkpt lat="43.930809933329876" lon="11.46983073840842"><ele>173.0</ele><time>2026-04-25T09:44:08.921Z</time></trkpt><trkpt lat="43.930712937233494" lon="11.469660826472227"><ele>173.0</ele><time>2026-04-25T09:44:09.921Z</time></trkpt><trkpt lat="43.93062508143389" lon="11.4694702129343"><ele>173.0</ele><time>2026-04-25T09:44:10.921Z</time></trkpt><trkpt lat="43.93054431512916" lon="11.46927510521749"><ele>174.66666666666666</ele><time>2026-04-25T09:44:11.921Z</time></trkpt><trkpt lat="43.93046217186233" lon="11.469077199941415"><ele>176.33333333333334</ele><time>2026-04-25T09:44:12.921Z</time></trkpt><trkpt lat="43.930399232513416" lon="11.468876755802956"><ele>178.0</ele><time>2026-04-25T09:44:13.921Z</time></trkpt><trkpt lat="43.93038733047364" lon="11.468675213945529"><ele>180.25</ele><time>2026-04-25T09:44:14.921Z</time></trkpt><trkpt lat="43.93033454931454" lon="11.468503608366667"><ele>182.5</ele><time>2026-04-25T09:44:15.921Z</time></trkpt><trkpt lat="43.930299480030534" lon="11.468327892266858"><ele>184.75</ele><time>2026-04-25T09:44:16.921Z</time></trkpt><trkpt lat="43.930289016526494" lon="11.468155673128843"><ele>187.0</ele><time>2026-04-25T09:44:17.921Z</time></trkpt><trkpt lat="43.93027371062166" lon="11.46798265665814"><ele>188.5</ele><time>2026-04-25T09:44:18.921Z</time></trkpt><trkpt lat="43.930272180241474" lon="11.467818022675843"><ele>190.0</ele><time>2026-04-25T09:44:19.921Z</time></trkpt><trkpt lat="43.930259566267246" lon="11.46765495528408"><ele>191.5</ele><time>2026-04-25T09:44:20.921Z</time></trkpt><trkpt lat="43.93027070079259" lon="11.467501531189965"><ele>193.0</ele><time>2026-04-25T09:44:21.921Z</time></trkpt><trkpt lat="43.93028494741523" lon="11.467358369524813"><ele>193.0</ele><time>2026-04-25T09:44:22.921Z</time></trkpt><trkpt lat="43.93031768344975" lon="11.46721849512469"><ele>193.0</ele><time>2026-04-25T09:44:23.921Z</time></trkpt><trkpt lat="43.930347843783174" lon="11.467077631216002"><ele>193.0</ele><time>2026-04-25T09:44:24.921Z</time></trkpt><trkpt lat="43.93037619822474" lon="11.466938245618753"><ele>193.0</ele><time>2026-04-25T09:44:25.921Z</time></trkpt><trkpt lat="43.930407427593614" lon="11.46680615716028"><ele>193.0</ele><time>2026-04-25T09:44:26.921Z</time></trkpt><trkpt lat="43.930443171648086" lon="11.4666689505208"><ele>192.2</ele><time>2026-04-25T09:44:27.921Z</time></trkpt><trkpt lat="43.93048061523431" lon="11.46652451475133"><ele>191.4</ele><time>2026-04-25T09:44:28.921Z</time></trkpt><trkpt lat="43.93051664711729" lon="11.46638579868254"><ele>190.6</ele><time>2026-04-25T09:44:29.921Z</time></trkpt><trkpt lat="43.93055556582113" lon="11.46626147682839"><ele>189.79999999999998</ele><time>2026-04-25T09:44:30.921Z</time></trkpt><trkpt lat="43.93059779711265" lon="11.466147530247767"><ele>189.0</ele><time>2026-04-25T09:44:31.921Z</time></trkpt><trkpt lat="43.9306438500747" lon="11.466031153990667"><ele>188.2</ele><time>2026-04-25T09:44:32.921Z</time></trkpt><trkpt lat="43.930692877628296" lon="11.465917016082882"><ele>187.39999999999998</ele><time>2026-04-25T09:44:33.921Z</time></trkpt><trkpt lat="43.93074748296622" lon="11.465805486968367"><ele>186.6</ele><time>2026-04-25T09:44:34.921Z</time></trkpt><trkpt lat="43.93081299649446" lon="11.465688104782432"><ele>185.8</ele><time>2026-04-25T09:44:35.921Z</time></trkpt><trkpt lat="43.930890571776295" lon="11.465570809013057"><ele>185.0</ele><time>2026-04-25T09:44:36.921Z</time></trkpt><trkpt lat="43.93097367295838" lon="11.465439866758981"><ele>185.0</ele><time>2026-04-25T09:44:37.921Z</time></trkpt><trkpt lat="43.93106381071958" lon="11.465319428060711"><ele>185.0</ele><time>2026-04-25T09:44:38.921Z</time></trkpt><trkpt lat="43.931151524772325" lon="11.46519123564791"><ele>185.0</ele><time>2026-04-25T09:44:39.921Z</time></trkpt><trkpt lat="43.931235304593464" lon="11.465068026410206"><ele>185.0</ele><time>2026-04-25T09:44:40.921Z</time></trkpt><trkpt lat="43.93131299610547" lon="11.464956646523747"><ele>185.0</ele><time>2026-04-25T09:44:41.921Z</time></trkpt><trkpt lat="43.93138969416575" lon="11.464857371999376"><ele>185.0</ele><time>2026-04-25T09:44:42.921Z</time></trkpt><trkpt lat="43.931448261948034" lon="11.464753174894907"><ele>185.0</ele><time>2026-04-25T09:44:43.921Z</time></trkpt><trkpt lat="43.93151195947747" lon="11.464652983994318"><ele>185.0</ele><time>2026-04-25T09:44:44.921Z</time></trkpt><trkpt lat="43.931578836974225" lon="11.464557949100044"><ele>185.0</ele><time>2026-04-25T09:44:45.921Z</time></trkpt><trkpt lat="43.93163639709781" lon="11.464446962057206"><ele>185.2</ele><time>2026-04-25T09:44:46.921Z</time></trkpt><trkpt lat="43.93168808367102" lon="11.464342754462024"><ele>185.4</ele><time>2026-04-25T09:44:47.921Z</time></trkpt><trkpt lat="43.931731881275745" lon="11.464218726198906"><ele>185.60000000000002</ele><time>2026-04-25T09:44:48.921Z</time></trkpt><trkpt lat="43.93177806042998" lon="11.464076678517536"><ele>185.8</ele><time>2026-04-25T09:44:49.921Z</time></trkpt><trkpt lat="43.93181891930693" lon="11.463906480841784"><ele>186.0</ele><time>2026-04-25T09:44:50.921Z</time></trkpt><trkpt lat="43.93186154405765" lon="11.463739585383273"><ele>186.0</ele><time>2026-04-25T09:44:51.921Z</time></trkpt><trkpt lat="43.93191038451614" lon="11.463572592771277"><ele>186.0</ele><time>2026-04-25T09:44:52.921Z</time></trkpt><trkpt lat="43.93195563104861" lon="11.463403494555315"><ele>186.0</ele><time>2026-04-25T09:44:53.921Z</time></trkpt><trkpt lat="43.93200185775412" lon="11.463228292118657"><ele>186.0</ele><time>2026-04-25T09:44:54.921Z</time></trkpt><trkpt lat="43.93204792761797" lon="11.463047726974054"><ele>185.25</ele><time>2026-04-25T09:44:55.921Z</time></trkpt><trkpt lat="43.9320899809861" lon="11.462868023053694"><ele>184.5</ele><time>2026-04-25T09:44:56.921Z</time></trkpt><trkpt lat="43.93214205508548" lon="11.462685011745357"><ele>183.75</ele><time>2026-04-25T09:44:57.921Z</time></trkpt><trkpt lat="43.93219139114721" lon="11.462504663392584"><ele>183.0</ele><time>2026-04-25T09:44:58.921Z</time></trkpt><trkpt lat="43.932238275117726" lon="11.462324128669474"><ele>183.0</ele><time>2026-04-25T09:44:59.921Z</time></trkpt><trkpt lat="43.93228300169092" lon="11.462133584935337"><ele>183.0</ele><time>2026-04-25T09:45:00.921Z</time></trkpt><trkpt lat="43.93233226198211" lon="11.461962985030643"><ele>183.0</ele><time>2026-04-25T09:45:01.921Z</time></trkpt><trkpt lat="43.93238726755651" lon="11.461787509197945"><ele>183.0</ele><time>2026-04-25T09:45:02.921Z</time></trkpt><trkpt lat="43.93244583489504" lon="11.461607995025007"><ele>182.75</ele><time>2026-04-25T09:45:03.921Z</time></trkpt><trkpt lat="43.93250739688415" lon="11.46143020283716"><ele>182.5</ele><time>2026-04-25T09:45:04.921Z</time></trkpt><trkpt lat="43.93257399638401" lon="11.46126168488797"><ele>182.25</ele><time>2026-04-25T09:45:05.921Z</time></trkpt><trkpt lat="43.93264763103961" lon="11.461094525459009"><ele>182.0</ele><time>2026-04-25T09:45:06.921Z</time></trkpt><trkpt lat="43.93273691313627" lon="11.460918362453587"><ele>182.5</ele><time>2026-04-25T09:45:07.921Z</time></trkpt><trkpt lat="43.93283277528769" lon="11.4607689060276"><ele>183.0</ele><time>2026-04-25T09:45:08.921Z</time></trkpt><trkpt lat="43.932924870966936" lon="11.460626375278437"><ele>183.5</ele><time>2026-04-25T09:45:09.921Z</time></trkpt><trkpt lat="43.93300447151554" lon="11.460484184232092"><ele>184.0</ele><time>2026-04-25T09:45:10.921Z</time></trkpt><trkpt lat="43.933083917937836" lon="11.46034643083773"><ele>184.0</ele><time>2026-04-25T09:45:11.921Z</time></trkpt><trkpt lat="43.933163214010065" lon="11.460221040741834"><ele>184.0</ele><time>2026-04-25T09:45:12.921Z</time></trkpt><trkpt lat="43.9332338019361" lon="11.460101834000174"><ele>184.0</ele><time>2026-04-25T09:45:13.921Z</time></trkpt><trkpt lat="43.93329981141084" lon="11.45998972777471"><ele>184.0</ele><time>2026-04-25T09:45:14.921Z</time></trkpt><trkpt lat="43.933359858663806" lon="11.459889890429993"><ele>184.0</ele><time>2026-04-25T09:45:15.921Z</time></trkpt><trkpt lat="43.93342028411481" lon="11.459798727166122"><ele>184.0</ele><time>2026-04-25T09:45:16.921Z</time></trkpt><trkpt lat="43.93348142914777" lon="11.459760556739065"><ele>184.0</ele><time>2026-04-25T09:45:17.921Z</time></trkpt><trkpt lat="43.93351156402197" lon="11.45967130826944"><ele>184.0</ele><time>2026-04-25T09:45:19.921Z</time></trkpt><trkpt lat="43.93357256173287" lon="11.459589637896714"><ele>184.0</ele><time>2026-04-25T09:45:22.921Z</time></trkpt><trkpt lat="43.93361806171049" lon="11.459492386117144"><ele>184.0</ele><time>2026-04-25T09:45:26.921Z</time></trkpt><trkpt lat="43.93368607388145" lon="11.459397377116666"><ele>184.0</ele><time>2026-04-25T09:45:28.921Z</time></trkpt><trkpt lat="43.9337433724817" lon="11.459356981567694"><ele>184.0</ele><time>2026-04-25T09:45:29.921Z</time></trkpt><trkpt lat="43.93376810263012" lon="11.459236449664484"><ele>184.0</ele><time>2026-04-25T09:45:31.921Z</time></trkpt><trkpt lat="43.93381368216534" lon="11.459084600511119"><ele>184.0</ele><time>2026-04-25T09:45:33.921Z</time></trkpt><trkpt lat="43.93381424902024" lon="11.458978067551135"><ele>184.0</ele><time>2026-04-25T09:45:34.921Z</time></trkpt><trkpt lat="43.933830835756666" lon="11.458842252772422"><ele>184.0</ele><time>2026-04-25T09:45:35.921Z</time></trkpt><trkpt lat="43.93384242229064" lon="11.458690586765407"><ele>183.6</ele><time>2026-04-25T09:45:36.921Z</time></trkpt><trkpt lat="43.93386226823341" lon="11.458550530749651"><ele>183.2</ele><time>2026-04-25T09:45:37.921Z</time></trkpt><trkpt lat="43.93387422791823" lon="11.45842395041538"><ele>182.79999999999998</ele><time>2026-04-25T09:45:38.921Z</time></trkpt><trkpt lat="43.93388978838926" lon="11.458300398308022"><ele>182.39999999999998</ele><time>2026-04-25T09:45:39.921Z</time></trkpt><trkpt lat="43.93390338449379" lon="11.458172920314606"><ele>182.0</ele><time>2026-04-25T09:45:40.921Z</time></trkpt><trkpt lat="43.933924515744316" lon="11.45804782196686"><ele>181.8</ele><time>2026-04-25T09:45:41.921Z</time></trkpt><trkpt lat="43.9339403830437" lon="11.457918034679084"><ele>181.6</ele><time>2026-04-25T09:45:42.921Z</time></trkpt><trkpt lat="43.9339608019822" lon="11.457770685602656"><ele>181.4</ele><time>2026-04-25T09:45:43.921Z</time></trkpt><trkpt lat="43.9339720207949" lon="11.457636179892045"><ele>181.20000000000002</ele><time>2026-04-25T09:45:44.921Z</time></trkpt><trkpt lat="43.93398952470625" lon="11.457504978081896"><ele>181.0</ele><time>2026-04-25T09:45:45.921Z</time></trkpt><trkpt lat="43.934016749334795" lon="11.457351307842593"><ele>181.0</ele><time>2026-04-25T09:45:46.921Z</time></trkpt><trkpt lat="43.93403231706835" lon="11.457198562293106"><ele>181.0</ele><time>2026-04-25T09:45:47.921Z</time></trkpt><trkpt lat="43.934052730505115" lon="11.457037759699713"><ele>181.0</ele><time>2026-04-25T09:45:48.921Z</time></trkpt><trkpt lat="43.934075236484034" lon="11.456879023287172"><ele>181.0</ele><time>2026-04-25T09:45:49.921Z</time></trkpt><trkpt lat="43.934096472384276" lon="11.456714153761139"><ele>180.75</ele><time>2026-04-25T09:45:50.921Z</time></trkpt><trkpt lat="43.93411740587128" lon="11.45654315711239"><ele>180.5</ele><time>2026-04-25T09:45:51.921Z</time></trkpt><trkpt lat="43.93414382161761" lon="11.45637635749456"><ele>180.25</ele><time>2026-04-25T09:45:52.921Z</time></trkpt><trkpt lat="43.93417473080115" lon="11.456223224333309"><ele>180.0</ele><time>2026-04-25T09:45:53.921Z</time></trkpt><trkpt lat="43.93419764327132" lon="11.456088082122589"><ele>179.8</ele><time>2026-04-25T09:45:54.921Z</time></trkpt><trkpt lat="43.934225093534366" lon="11.455939381153415"><ele>179.6</ele><time>2026-04-25T09:45:55.921Z</time></trkpt><trkpt lat="43.934255037509395" lon="11.455797147134348"><ele>179.39999999999998</ele><time>2026-04-25T09:45:56.921Z</time></trkpt><trkpt lat="43.934285637987294" lon="11.455657268409675"><ele>179.2</ele><time>2026-04-25T09:45:57.921Z</time></trkpt><trkpt lat="43.93431202315942" lon="11.455528856784321"><ele>179.0</ele><time>2026-04-25T09:45:58.92Z</time></trkpt><trkpt lat="43.934328652486776" lon="11.455390286374328"><ele>179.0</ele><time>2026-04-25T09:45:59.92Z</time></trkpt><trkpt lat="43.93437903371472" lon="11.455259446312036"><ele>179.0</ele><time>2026-04-25T09:46:00.92Z</time></trkpt><trkpt lat="43.934403426850835" lon="11.455108400126608"><ele>179.0</ele><time>2026-04-25T09:46:01.92Z</time></trkpt><trkpt lat="43.934432915649786" lon="11.454958734964036"><ele>179.0</ele><time>2026-04-25T09:46:02.92Z</time></trkpt><trkpt lat="43.93446292754573" lon="11.454808350521239"><ele>179.0</ele><time>2026-04-25T09:46:03.92Z</time></trkpt><trkpt lat="43.934502589375846" lon="11.454667341514027"><ele>179.2</ele><time>2026-04-25T09:46:04.92Z</time></trkpt><trkpt lat="43.934533636228586" lon="11.454511425258813"><ele>179.39999999999998</ele><time>2026-04-25T09:46:05.92Z</time></trkpt><trkpt lat="43.93456290207635" lon="11.45437330563025"><ele>179.6</ele><time>2026-04-25T09:46:06.92Z</time></trkpt><trkpt lat="43.934585955951015" lon="11.454234904900131"><ele>179.8</ele><time>2026-04-25T09:46:07.92Z</time></trkpt><trkpt lat="43.93460829869998" lon="11.454106015354029"><ele>180.0</ele><time>2026-04-25T09:46:08.92Z</time></trkpt><trkpt lat="43.93461906258007" lon="11.453965043387212"><ele>180.0</ele><time>2026-04-25T09:46:09.92Z</time></trkpt><trkpt lat="43.93463485111296" lon="11.453822304037368"><ele>180.0</ele><time>2026-04-25T09:46:10.92Z</time></trkpt><trkpt lat="43.93462834076573" lon="11.453647323104772"><ele>180.0</ele><time>2026-04-25T09:46:11.92Z</time></trkpt><trkpt lat="43.93459671806771" lon="11.45347280059831"><ele>180.0</ele><time>2026-04-25T09:46:12.92Z</time></trkpt><trkpt lat="43.93455951589281" lon="11.453307835735849"><ele>180.8</ele><time>2026-04-25T09:46:13.92Z</time></trkpt><trkpt lat="43.93451975628848" lon="11.453160445550022"><ele>181.6</ele><time>2026-04-25T09:46:14.92Z</time></trkpt><trkpt lat="43.934471481089346" lon="11.453026989280245"><ele>182.39999999999998</ele><time>2026-04-25T09:46:15.92Z</time></trkpt><trkpt lat="43.93442795661108" lon="11.452896951861126"><ele>183.2</ele><time>2026-04-25T09:46:16.92Z</time></trkpt><trkpt lat="43.934384184030236" lon="11.452773916709376"><ele>184.0</ele><time>2026-04-25T09:46:17.92Z</time></trkpt><trkpt lat="43.93433119719402" lon="11.452633728111973"><ele>183.5</ele><time>2026-04-25T09:46:18.92Z</time></trkpt><trkpt lat="43.934268802590736" lon="11.45246907823595"><ele>183.0</ele><time>2026-04-25T09:46:19.92Z</time></trkpt><trkpt lat="43.93420219816547" lon="11.45229259552379"><ele>182.5</ele><time>2026-04-25T09:46:20.92Z</time></trkpt><trkpt lat="43.93416031662435" lon="11.452073645863356"><ele>182.0</ele><time>2026-04-25T09:46:21.92Z</time></trkpt><trkpt lat="43.9341237193629" lon="11.45185258894755"><ele>182.0</ele><time>2026-04-25T09:46:22.92Z</time></trkpt><trkpt lat="43.93410826828312" lon="11.451636653623861"><ele>182.0</ele><time>2026-04-25T09:46:23.92Z</time></trkpt><trkpt lat="43.934116782298574" lon="11.451407618542818"><ele>182.0</ele><time>2026-04-25T09:46:24.92Z</time></trkpt><trkpt lat="43.93415291363058" lon="11.451165854836326"><ele>181.0</ele><time>2026-04-25T09:46:25.92Z</time></trkpt><trkpt lat="43.93419630223758" lon="11.450947121042047"><ele>180.0</ele><time>2026-04-25T09:46:26.92Z</time></trkpt><trkpt lat="43.93425564532308" lon="11.450718368855817"><ele>179.0</ele><time>2026-04-25T09:46:27.92Z</time></trkpt><trkpt lat="43.93432848080141" lon="11.450531222150445"><ele>179.66666666666666</ele><time>2026-04-25T09:46:28.92Z</time></trkpt><trkpt lat="43.934403912885614" lon="11.450333717757195"><ele>180.33333333333334</ele><time>2026-04-25T09:46:29.92Z</time></trkpt><trkpt lat="43.93448350302335" lon="11.45015241741201"><ele>181.0</ele><time>2026-04-25T09:46:30.92Z</time></trkpt><trkpt lat="43.93457013042433" lon="11.449967160603176"><ele>181.0</ele><time>2026-04-25T09:46:31.92Z</time></trkpt><trkpt lat="43.9346636104463" lon="11.449783712307077"><ele>181.0</ele><time>2026-04-25T09:46:32.92Z</time></trkpt><trkpt lat="43.934762510009705" lon="11.449607493907004"><ele>181.0</ele><time>2026-04-25T09:46:33.92Z</time></trkpt><trkpt lat="43.93486691892543" lon="11.449431248697927"><ele>180.75</ele><time>2026-04-25T09:46:34.92Z</time></trkpt><trkpt lat="43.93496001137243" lon="11.449261378466588"><ele>180.5</ele><time>2026-04-25T09:46:35.92Z</time></trkpt><trkpt lat="43.93504845642285" lon="11.449105956706454"><ele>180.25</ele><time>2026-04-25T09:46:36.92Z</time></trkpt><trkpt lat="43.935135442464606" lon="11.448958582587409"><ele>180.0</ele><time>2026-04-25T09:46:37.92Z</time></trkpt><trkpt lat="43.93524131475655" lon="11.448825287834149"><ele>180.0</ele><time>2026-04-25T09:46:38.92Z</time></trkpt><trkpt lat="43.93533608283303" lon="11.448672041836424"><ele>180.0</ele><time>2026-04-25T09:46:39.92Z</time></trkpt><trkpt lat="43.935427351820145" lon="11.44850293957666"><ele>180.0</ele><time>2026-04-25T09:46:40.92Z</time></trkpt><trkpt lat="43.93551905475032" lon="11.44832652228702"><ele>180.0</ele><time>2026-04-25T09:46:41.92Z</time></trkpt><trkpt lat="43.93560613480975" lon="11.448136640700499"><ele>180.0</ele><time>2026-04-25T09:46:42.92Z</time></trkpt><trkpt lat="43.93569117952662" lon="11.447942404261225"><ele>180.0</ele><time>2026-04-25T09:46:43.92Z</time></trkpt><trkpt lat="43.93578109204349" lon="11.44774043295549"><ele>179.66666666666666</ele><time>2026-04-25T09:46:44.92Z</time></trkpt><trkpt lat="43.935867573413695" lon="11.447544543129608"><ele>179.33333333333331</ele><time>2026-04-25T09:46:45.92Z</time></trkpt><trkpt lat="43.935949262276914" lon="11.44734941576869"><ele>179.0</ele><time>2026-04-25T09:46:46.92Z</time></trkpt><trkpt lat="43.9360322096782" lon="11.447150248337799"><ele>179.33333333333331</ele><time>2026-04-25T09:46:47.92Z</time></trkpt><trkpt lat="43.936106589124236" lon="11.446949894111278"><ele>179.66666666666666</ele><time>2026-04-25T09:46:48.92Z</time></trkpt><trkpt lat="43.9361878551594" lon="11.446744992578843"><ele>180.0</ele><time>2026-04-25T09:46:49.92Z</time></trkpt><trkpt lat="43.93625995947857" lon="11.446542033011541"><ele>180.0</ele><time>2026-04-25T09:46:50.92Z</time></trkpt><trkpt lat="43.936326865473944" lon="11.446338547820893"><ele>180.0</ele><time>2026-04-25T09:46:51.92Z</time></trkpt><trkpt lat="43.93640404451763" lon="11.44614171625163"><ele>180.0</ele><time>2026-04-25T09:46:52.92Z</time></trkpt><trkpt lat="43.93647586599247" lon="11.445934089630237"><ele>179.66666666666666</ele><time>2026-04-25T09:46:53.92Z</time></trkpt><trkpt lat="43.93654948800233" lon="11.445728511254865"><ele>179.33333333333331</ele><time>2026-04-25T09:46:54.92Z</time></trkpt><trkpt lat="43.936629124872766" lon="11.44552423752592"><ele>179.0</ele><time>2026-04-25T09:46:55.92Z</time></trkpt><trkpt lat="43.93670217752835" lon="11.4453207716687"><ele>179.0</ele><time>2026-04-25T09:46:56.92Z</time></trkpt><trkpt lat="43.936777755505304" lon="11.445113331777396"><ele>179.0</ele><time>2026-04-25T09:46:57.92Z</time></trkpt><trkpt lat="43.93685176637115" lon="11.444904446549844"><ele>179.0</ele><time>2026-04-25T09:46:58.92Z</time></trkpt><trkpt lat="43.93692808659261" lon="11.444701889176283"><ele>179.33333333333331</ele><time>2026-04-25T09:46:59.92Z</time></trkpt><trkpt lat="43.93699937683" lon="11.4444998916248"><ele>179.66666666666666</ele><time>2026-04-25T09:47:00.92Z</time></trkpt><trkpt lat="43.93707438745336" lon="11.444305381536317"><ele>180.0</ele><time>2026-04-25T09:47:01.92Z</time></trkpt><trkpt lat="43.937147729684035" lon="11.444112476799988"><ele>180.0</ele><time>2026-04-25T09:47:02.92Z</time></trkpt><trkpt lat="43.93722108150481" lon="11.443925783364444"><ele>180.0</ele><time>2026-04-25T09:47:03.92Z</time></trkpt><trkpt lat="43.93731816547129" lon="11.4437475909257"><ele>180.0</ele><time>2026-04-25T09:47:04.92Z</time></trkpt><trkpt lat="43.93739954397008" lon="11.443548532777388"><ele>180.0</ele><time>2026-04-25T09:47:05.92Z</time></trkpt><trkpt lat="43.93748468503271" lon="11.443345272855682"><ele>180.0</ele><time>2026-04-25T09:47:06.92Z</time></trkpt><trkpt lat="43.937563504990564" lon="11.443133354107431"><ele>180.0</ele><time>2026-04-25T09:47:07.92Z</time></trkpt><trkpt lat="43.9376398424514" lon="11.442934840118241"><ele>182.0</ele><time>2026-04-25T09:47:08.92Z</time></trkpt><trkpt lat="43.93770997202308" lon="11.44273956105836"><ele>184.0</ele><time>2026-04-25T09:47:09.92Z</time></trkpt><trkpt lat="43.937777851252264" lon="11.442544453804189"><ele>186.0</ele><time>2026-04-25T09:47:10.92Z</time></trkpt><trkpt lat="43.93785232234577" lon="11.44234710402535"><ele>186.0</ele><time>2026-04-25T09:47:11.92Z</time></trkpt><trkpt lat="43.937921160612284" lon="11.442147121805895"><ele>186.0</ele><time>2026-04-25T09:47:12.92Z</time></trkpt><trkpt lat="43.93799026883789" lon="11.441943609276022"><ele>186.0</ele><time>2026-04-25T09:47:13.92Z</time></trkpt><trkpt lat="43.93805862952379" lon="11.441744611504884"><ele>186.0</ele><time>2026-04-25T09:47:14.92Z</time></trkpt><trkpt lat="43.938121090536654" lon="11.44155547418014"><ele>186.0</ele><time>2026-04-25T09:47:15.92Z</time></trkpt><trkpt lat="43.938189086843664" lon="11.44137167110093"><ele>186.0</ele><time>2026-04-25T09:47:16.92Z</time></trkpt><trkpt lat="43.93825452760083" lon="11.441185176030213"><ele>186.0</ele><time>2026-04-25T09:47:17.92Z</time></trkpt><trkpt lat="43.9383215878995" lon="11.440997464619599"><ele>185.75</ele><time>2026-04-25T09:47:18.92Z</time></trkpt><trkpt lat="43.93838765890334" lon="11.440810711328515"><ele>185.5</ele><time>2026-04-25T09:47:19.92Z</time></trkpt><trkpt lat="43.93845401166779" lon="11.440630753493327"><ele>185.25</ele><time>2026-04-25T09:47:20.92Z</time></trkpt><trkpt lat="43.93851989414997" lon="11.440448431510017"><ele>185.0</ele><time>2026-04-25T09:47:21.92Z</time></trkpt><trkpt lat="43.93858641943136" lon="11.440275288457787"><ele>184.5</ele><time>2026-04-25T09:47:22.92Z</time></trkpt><trkpt lat="43.93865445918416" lon="11.440121541976959"><ele>184.0</ele><time>2026-04-25T09:47:23.92Z</time></trkpt><trkpt lat="43.93871768847594" lon="11.439956376394905"><ele>183.5</ele><time>2026-04-25T09:47:24.92Z</time></trkpt><trkpt lat="43.93879246987969" lon="11.439790295404611"><ele>183.0</ele><time>2026-04-25T09:47:25.92Z</time></trkpt><trkpt lat="43.93885654468893" lon="11.439620814112274"><ele>182.33333333333334</ele><time>2026-04-25T09:47:26.92Z</time></trkpt><trkpt lat="43.938913317579214" lon="11.43943676110009"><ele>181.66666666666669</ele><time>2026-04-25T09:47:27.92Z</time></trkpt><trkpt lat="43.938983725860425" lon="11.439247549062845"><ele>181.0</ele><time>2026-04-25T09:47:28.92Z</time></trkpt><trkpt lat="43.93906191315493" lon="11.439043714841528"><ele>181.0</ele><time>2026-04-25T09:47:29.92Z</time></trkpt><trkpt lat="43.939134607414495" lon="11.438822143443023"><ele>181.0</ele><time>2026-04-25T09:47:30.92Z</time></trkpt><trkpt lat="43.93921550461183" lon="11.438602447935596"><ele>181.0</ele><time>2026-04-25T09:47:31.92Z</time></trkpt><trkpt lat="43.93929957716497" lon="11.438396532845438"><ele>181.66666666666669</ele><time>2026-04-25T09:47:32.92Z</time></trkpt><trkpt lat="43.93939180911678" lon="11.438227079499228"><ele>182.33333333333334</ele><time>2026-04-25T09:47:33.92Z</time></trkpt><trkpt lat="43.939480310836466" lon="11.438053284459654"><ele>183.0</ele><time>2026-04-25T09:47:34.92Z</time></trkpt><trkpt lat="43.939571901842015" lon="11.437895401769252"><ele>184.25</ele><time>2026-04-25T09:47:35.92Z</time></trkpt><trkpt lat="43.93965737303039" lon="11.437729783157723"><ele>185.5</ele><time>2026-04-25T09:47:36.92Z</time></trkpt><trkpt lat="43.93976025865103" lon="11.43758734720459"><ele>186.75</ele><time>2026-04-25T09:47:37.92Z</time></trkpt><trkpt lat="43.93985277129966" lon="11.437453081723659"><ele>188.0</ele><time>2026-04-25T09:47:38.92Z</time></trkpt><trkpt lat="43.9399404960441" lon="11.437323977725743"><ele>188.0</ele><time>2026-04-25T09:47:39.92Z</time></trkpt><trkpt lat="43.94003382190607" lon="11.437222446537781"><ele>188.0</ele><time>2026-04-25T09:47:40.92Z</time></trkpt><trkpt lat="43.940113706703336" lon="11.437095855804648"><ele>188.0</ele><time>2026-04-25T09:47:41.92Z</time></trkpt><trkpt lat="43.94020644455194" lon="11.436987546039543"><ele>188.0</ele><time>2026-04-25T09:47:42.92Z</time></trkpt><trkpt lat="43.940300977566324" lon="11.436885642238325"><ele>187.8</ele><time>2026-04-25T09:47:43.92Z</time></trkpt><trkpt lat="43.940384893827485" lon="11.436794274417844"><ele>187.60000000000002</ele><time>2026-04-25T09:47:44.92Z</time></trkpt><trkpt lat="43.94048181899788" lon="11.436728834288452"><ele>187.39999999999998</ele><time>2026-04-25T09:47:45.92Z</time></trkpt><trkpt lat="43.94056597303305" lon="11.436627993425036"><ele>187.2</ele><time>2026-04-25T09:47:46.92Z</time></trkpt><trkpt lat="43.940657581866056" lon="11.436552583682266"><ele>187.0</ele><time>2026-04-25T09:47:47.92Z</time></trkpt><trkpt lat="43.94074235708842" lon="11.436477382762913"><ele>187.0</ele><time>2026-04-25T09:47:48.92Z</time></trkpt><trkpt lat="43.940830272952965" lon="11.436401198895648"><ele>187.0</ele><time>2026-04-25T09:47:49.92Z</time></trkpt><trkpt lat="43.94092775776814" lon="11.436316699811158"><ele>187.0</ele><time>2026-04-25T09:47:50.92Z</time></trkpt><trkpt lat="43.94101745891947" lon="11.436205329026158"><ele>187.0</ele><time>2026-04-25T09:47:51.92Z</time></trkpt><trkpt lat="43.94111782463469" lon="11.436082062553725"><ele>188.0</ele><time>2026-04-25T09:47:52.92Z</time></trkpt><trkpt lat="43.9412127177293" lon="11.435947690711913"><ele>189.0</ele><time>2026-04-25T09:47:53.92Z</time></trkpt><trkpt lat="43.94130776698315" lon="11.43580401828844"><ele>190.0</ele><time>2026-04-25T09:47:54.92Z</time></trkpt><trkpt lat="43.9413996229957" lon="11.435652146277075"><ele>191.0</ele><time>2026-04-25T09:47:55.92Z</time></trkpt><trkpt lat="43.94148353159428" lon="11.43547764864962"><ele>190.66666666666666</ele><time>2026-04-25T09:47:56.92Z</time></trkpt><trkpt lat="43.94155850110144" lon="11.43528434282398"><ele>190.33333333333334</ele><time>2026-04-25T09:47:57.92Z</time></trkpt><trkpt lat="43.94161703777479" lon="11.435062920378165"><ele>190.0</ele><time>2026-04-25T09:47:58.92Z</time></trkpt><trkpt lat="43.9416502486924" lon="11.43483552959991"><ele>189.0</ele><time>2026-04-25T09:47:59.92Z</time></trkpt><trkpt lat="43.9416928024226" lon="11.434625491858394"><ele>188.0</ele><time>2026-04-25T09:48:00.92Z</time></trkpt><trkpt lat="43.941722790696126" lon="11.434419074911045"><ele>187.0</ele><time>2026-04-25T09:48:01.92Z</time></trkpt><trkpt lat="43.94173531209419" lon="11.43420197636222"><ele>187.0</ele><time>2026-04-25T09:48:02.92Z</time></trkpt><trkpt lat="43.94178207023461" lon="11.43398505404147"><ele>187.0</ele><time>2026-04-25T09:48:03.92Z</time></trkpt><trkpt lat="43.941795506150065" lon="11.433784923665527"><ele>187.0</ele><time>2026-04-25T09:48:04.918Z</time></trkpt><trkpt lat="43.94183273281119" lon="11.433591925880522"><ele>188.0</ele><time>2026-04-25T09:48:05.918Z</time></trkpt><trkpt lat="43.94187463764637" lon="11.433392583091065"><ele>189.0</ele><time>2026-04-25T09:48:06.918Z</time></trkpt><trkpt lat="43.941928416291" lon="11.433209706406274"><ele>190.0</ele><time>2026-04-25T09:48:07.919Z</time></trkpt><trkpt lat="43.94196854119829" lon="11.433026987478883"><ele>191.0</ele><time>2026-04-25T09:48:08.918Z</time></trkpt><trkpt lat="43.94200870978477" lon="11.432864552937449"><ele>191.25</ele><time>2026-04-25T09:48:09.918Z</time></trkpt><trkpt lat="43.94207740375685" lon="11.432705442715793"><ele>191.5</ele><time>2026-04-25T09:48:10.918Z</time></trkpt><trkpt lat="43.942116825107064" lon="11.432528286044658"><ele>191.75</ele><time>2026-04-25T09:48:11.918Z</time></trkpt><trkpt lat="43.94215553028032" lon="11.432331836679056"><ele>192.0</ele><time>2026-04-25T09:48:12.918Z</time></trkpt><trkpt lat="43.942179845431276" lon="11.432132744720688"><ele>192.0</ele><time>2026-04-25T09:48:13.918Z</time></trkpt><trkpt lat="43.94219163761597" lon="11.431947615166576"><ele>192.0</ele><time>2026-04-25T09:48:14.918Z</time></trkpt><trkpt lat="43.942190899868045" lon="11.431764812726646"><ele>192.0</ele><time>2026-04-25T09:48:15.918Z</time></trkpt><trkpt lat="43.94218174374534" lon="11.43159188921311"><ele>192.0</ele><time>2026-04-25T09:48:16.918Z</time></trkpt><trkpt lat="43.94217815802497" lon="11.431437043512389"><ele>191.5</ele><time>2026-04-25T09:48:17.918Z</time></trkpt><trkpt lat="43.94216908549445" lon="11.431279573563215"><ele>191.0</ele><time>2026-04-25T09:48:18.918Z</time></trkpt><trkpt lat="43.942175487250026" lon="11.431125872775288"><ele>190.5</ele><time>2026-04-25T09:48:19.918Z</time></trkpt><trkpt lat="43.94219514500571" lon="11.430969186300617"><ele>190.0</ele><time>2026-04-25T09:48:20.918Z</time></trkpt><trkpt lat="43.942227979749305" lon="11.430814293897136"><ele>190.0</ele><time>2026-04-25T09:48:21.918Z</time></trkpt><trkpt lat="43.94226087550981" lon="11.43067598228687"><ele>190.0</ele><time>2026-04-25T09:48:22.918Z</time></trkpt><trkpt lat="43.94230810461284" lon="11.430547404254671"><ele>190.0</ele><time>2026-04-25T09:48:23.918Z</time></trkpt><trkpt lat="43.9423634625851" lon="11.430426726538135"><ele>190.0</ele><time>2026-04-25T09:48:24.918Z</time></trkpt><trkpt lat="43.94243737189847" lon="11.430323173057912"><ele>190.0</ele><time>2026-04-25T09:48:25.918Z</time></trkpt><trkpt lat="43.94254522791385" lon="11.430244439294505"><ele>190.25</ele><time>2026-04-25T09:48:26.918Z</time></trkpt><trkpt lat="43.94266349312798" lon="11.430166279973497"><ele>190.5</ele><time>2026-04-25T09:48:27.918Z</time></trkpt><trkpt lat="43.94277509261679" lon="11.43008733354242"><ele>190.75</ele><time>2026-04-25T09:48:28.918Z</time></trkpt><trkpt lat="43.942884216405886" lon="11.430008656138323"><ele>191.0</ele><time>2026-04-25T09:48:29.918Z</time></trkpt><trkpt lat="43.942977914707114" lon="11.429927487632924"><ele>191.0</ele><time>2026-04-25T09:48:30.918Z</time></trkpt><trkpt lat="43.94305586718426" lon="11.429824592803298"><ele>191.0</ele><time>2026-04-25T09:48:31.918Z</time></trkpt><trkpt lat="43.943107217599106" lon="11.429693151142029"><ele>191.0</ele><time>2026-04-25T09:48:32.918Z</time></trkpt><trkpt lat="43.943135713036554" lon="11.429525294769256"><ele>191.0</ele><time>2026-04-25T09:48:33.918Z</time></trkpt><trkpt lat="43.943137513473125" lon="11.429344912153313"><ele>189.75</ele><time>2026-04-25T09:48:34.918Z</time></trkpt><trkpt lat="43.94314390260989" lon="11.429174023351822"><ele>188.5</ele><time>2026-04-25T09:48:35.918Z</time></trkpt><trkpt lat="43.943183694303535" lon="11.429012004339278"><ele>187.25</ele><time>2026-04-25T09:48:36.918Z</time></trkpt><trkpt lat="43.943189187351564" lon="11.428859759385242"><ele>186.0</ele><time>2026-04-25T09:48:37.918Z</time></trkpt><trkpt lat="43.943194679416806" lon="11.428725827338615"><ele>186.0</ele><time>2026-04-25T09:48:38.918Z</time></trkpt><trkpt lat="43.94318459695611" lon="11.428611828661682"><ele>186.0</ele><time>2026-04-25T09:48:39.918Z</time></trkpt><trkpt lat="43.9431907269532" lon="11.428522540731288"><ele>186.0</ele><time>2026-04-25T09:48:40.918Z</time></trkpt><trkpt lat="43.94320548592133" lon="11.42841959021091"><ele>186.0</ele><time>2026-04-25T09:48:42.918Z</time></trkpt><trkpt lat="43.94320945885598" lon="11.428322611494835"><ele>186.0</ele><time>2026-04-25T09:48:44.918Z</time></trkpt><trkpt lat="43.943209734403375" lon="11.428170895009073"><ele>186.0</ele><time>2026-04-25T09:48:46.918Z</time></trkpt><trkpt lat="43.94320823334579" lon="11.428037652226102"><ele>185.8</ele><time>2026-04-25T09:48:48.918Z</time></trkpt><trkpt lat="43.943202406938696" lon="11.427892067526546"><ele>185.60000000000002</ele><time>2026-04-25T09:48:50.918Z</time></trkpt><trkpt lat="43.94319716222271" lon="11.427794353271587"><ele>185.4</ele><time>2026-04-25T09:48:51.918Z</time></trkpt><trkpt lat="43.94319968701162" lon="11.42769513622533"><ele>185.2</ele><time>2026-04-25T09:48:52.918Z</time></trkpt><trkpt lat="43.94320021833201" lon="11.42755589995461"><ele>185.0</ele><time>2026-04-25T09:48:53.918Z</time></trkpt><trkpt lat="43.94320928981666" lon="11.427376878737968"><ele>185.0</ele><time>2026-04-25T09:48:54.918Z</time></trkpt><trkpt lat="43.94321510518882" lon="11.427195205904816"><ele>185.0</ele><time>2026-04-25T09:48:55.918Z</time></trkpt><trkpt lat="43.943223821361116" lon="11.427010634281677"><ele>185.0</ele><time>2026-04-25T09:48:56.918Z</time></trkpt><trkpt lat="43.9432258399724" lon="11.426812858640899"><ele>185.0</ele><time>2026-04-25T09:48:57.918Z</time></trkpt><trkpt lat="43.943232819162525" lon="11.426604485464445"><ele>185.66666666666666</ele><time>2026-04-25T09:48:58.918Z</time></trkpt><trkpt lat="43.94324379857329" lon="11.426364333349941"><ele>186.33333333333334</ele><time>2026-04-25T09:48:59.918Z</time></trkpt><trkpt lat="43.943265661140785" lon="11.426070491547245"><ele>187.0</ele><time>2026-04-25T09:49:00.918Z</time></trkpt><trkpt lat="43.943260747095415" lon="11.425758448594697"><ele>188.0</ele><time>2026-04-25T09:49:01.918Z</time></trkpt><trkpt lat="43.94327901763883" lon="11.425475372942978"><ele>189.0</ele><time>2026-04-25T09:49:02.918Z</time></trkpt><trkpt lat="43.94329638508932" lon="11.425234078575258"><ele>190.0</ele><time>2026-04-25T09:49:03.918Z</time></trkpt><trkpt lat="43.94330887772041" lon="11.425015995160258"><ele>190.0</ele><time>2026-04-25T09:49:04.918Z</time></trkpt><trkpt lat="43.94331622028143" lon="11.424793617670696"><ele>190.0</ele><time>2026-04-25T09:49:05.918Z</time></trkpt><trkpt lat="43.94332435593244" lon="11.424559106023803"><ele>190.0</ele><time>2026-04-25T09:49:06.918Z</time></trkpt><trkpt lat="43.943331282201704" lon="11.424328483269743"><ele>191.0</ele><time>2026-04-25T09:49:07.918Z</time></trkpt><trkpt lat="43.94333756878463" lon="11.424081697084924"><ele>192.0</ele><time>2026-04-25T09:49:08.918Z</time></trkpt><trkpt lat="43.943349371645596" lon="11.423822355536661"><ele>193.0</ele><time>2026-04-25T09:49:09.918Z</time></trkpt><trkpt lat="43.943358419519164" lon="11.423558277185604"><ele>193.66666666666666</ele><time>2026-04-25T09:49:10.918Z</time></trkpt><trkpt lat="43.94336149619105" lon="11.42328287259478"><ele>194.33333333333331</ele><time>2026-04-25T09:49:11.918Z</time></trkpt><trkpt lat="43.94337682588198" lon="11.42300104340388"><ele>195.0</ele><time>2026-04-25T09:49:12.918Z</time></trkpt><trkpt lat="43.943386632071935" lon="11.422718561015978"><ele>195.0</ele><time>2026-04-25T09:49:13.918Z</time></trkpt><trkpt lat="43.94339666932613" lon="11.422446801989853"><ele>195.0</ele><time>2026-04-25T09:49:14.918Z</time></trkpt><trkpt lat="43.94340734417408" lon="11.42219716646523"><ele>195.0</ele><time>2026-04-25T09:49:15.918Z</time></trkpt><trkpt lat="43.943417266681045" lon="11.421945716484643"><ele>195.66666666666669</ele><time>2026-04-25T09:49:16.918Z</time></trkpt><trkpt lat="43.94342710798984" lon="11.42168939144918"><ele>196.33333333333334</ele><time>2026-04-25T09:49:17.918Z</time></trkpt><trkpt lat="43.94343967218357" lon="11.421435198149213"><ele>197.0</ele><time>2026-04-25T09:49:18.918Z</time></trkpt><trkpt lat="43.94344474531857" lon="11.421179531805459"><ele>197.33333333333334</ele><time>2026-04-25T09:49:19.918Z</time></trkpt><trkpt lat="43.94345629897931" lon="11.420926551997166"><ele>197.66666666666669</ele><time>2026-04-25T09:49:20.918Z</time></trkpt><trkpt lat="43.943467146995104" lon="11.420687624039807"><ele>198.0</ele><time>2026-04-25T09:49:21.918Z</time></trkpt><trkpt lat="43.9434850709739" lon="11.420458200192096"><ele>197.33333333333331</ele><time>2026-04-25T09:49:22.918Z</time></trkpt><trkpt lat="43.94351547702859" lon="11.420228095060404"><ele>196.66666666666666</ele><time>2026-04-25T09:49:23.918Z</time></trkpt><trkpt lat="43.943541151531186" lon="11.420014402371107"><ele>196.0</ele><time>2026-04-25T09:49:24.918Z</time></trkpt><trkpt lat="43.94357744204662" lon="11.419796691192598"><ele>196.0</ele><time>2026-04-25T09:49:25.918Z</time></trkpt><trkpt lat="43.943614248711995" lon="11.419587091363779"><ele>196.0</ele><time>2026-04-25T09:49:26.918Z</time></trkpt><trkpt lat="43.94365258404987" lon="11.419373397736592"><ele>196.0</ele><time>2026-04-25T09:49:27.918Z</time></trkpt><trkpt lat="43.943688696618246" lon="11.419159860331334"><ele>196.0</ele><time>2026-04-25T09:49:28.918Z</time></trkpt><trkpt lat="43.94373515140029" lon="11.41894870259293"><ele>196.0</ele><time>2026-04-25T09:49:29.918Z</time></trkpt><trkpt lat="43.943792388308694" lon="11.418742090539403"><ele>196.0</ele><time>2026-04-25T09:49:30.918Z</time></trkpt><trkpt lat="43.94386144084785" lon="11.418538577541534"><ele>196.0</ele><time>2026-04-25T09:49:31.918Z</time></trkpt><trkpt lat="43.94393782612019" lon="11.418348561616678"><ele>196.0</ele><time>2026-04-25T09:49:32.918Z</time></trkpt><trkpt lat="43.94401432562328" lon="11.418166933826777"><ele>196.0</ele><time>2026-04-25T09:49:33.918Z</time></trkpt><trkpt lat="43.94409225363623" lon="11.417975201478505"><ele>196.0</ele><time>2026-04-25T09:49:34.918Z</time></trkpt><trkpt lat="43.9441712189098" lon="11.417804091473464"><ele>196.0</ele><time>2026-04-25T09:49:35.918Z</time></trkpt><trkpt lat="43.9442428023504" lon="11.417601271848412"><ele>196.0</ele><time>2026-04-25T09:49:36.918Z</time></trkpt><trkpt lat="43.944318126887545" lon="11.41739726688026"><ele>196.0</ele><time>2026-04-25T09:49:37.918Z</time></trkpt><trkpt lat="43.94438777398713" lon="11.417188007809377"><ele>196.0</ele><time>2026-04-25T09:49:38.918Z</time></trkpt><trkpt lat="43.94446676560356" lon="11.416985255218826"><ele>196.0</ele><time>2026-04-25T09:49:39.918Z</time></trkpt><trkpt lat="43.94451876413118" lon="11.416778888513152"><ele>196.0</ele><time>2026-04-25T09:49:40.918Z</time></trkpt><trkpt lat="43.94455726350314" lon="11.416552452978733"><ele>196.0</ele><time>2026-04-25T09:49:41.918Z</time></trkpt><trkpt lat="43.944578586713924" lon="11.416327433818084"><ele>196.0</ele><time>2026-04-25T09:49:42.918Z</time></trkpt><trkpt lat="43.944573265947525" lon="11.416108306507082"><ele>196.66666666666666</ele><time>2026-04-25T09:49:43.918Z</time></trkpt><trkpt lat="43.944572807233364" lon="11.415892232953155"><ele>197.33333333333331</ele><time>2026-04-25T09:49:44.918Z</time></trkpt><trkpt lat="43.94457363451517" lon="11.415670988208296"><ele>198.0</ele><time>2026-04-25T09:49:45.918Z</time></trkpt><trkpt lat="43.944564628456966" lon="11.415476578195227"><ele>198.5</ele><time>2026-04-25T09:49:46.918Z</time></trkpt><trkpt lat="43.94458569576192" lon="11.415274024469268"><ele>199.0</ele><time>2026-04-25T09:49:47.918Z</time></trkpt><trkpt lat="43.944581337354634" lon="11.41508988857813"><ele>199.5</ele><time>2026-04-25T09:49:48.918Z</time></trkpt><trkpt lat="43.94457696823828" lon="11.414903759469842"><ele>200.0</ele><time>2026-04-25T09:49:49.918Z</time></trkpt><trkpt lat="43.94457109160495" lon="11.41472152960683"><ele>199.5</ele><time>2026-04-25T09:49:50.918Z</time></trkpt><trkpt lat="43.94456911826541" lon="11.414534294851657"><ele>199.0</ele><time>2026-04-25T09:49:51.918Z</time></trkpt><trkpt lat="43.94456934005074" lon="11.414346697752164"><ele>198.5</ele><time>2026-04-25T09:49:52.918Z</time></trkpt><trkpt lat="43.944572545436436" lon="11.414168085619227"><ele>198.0</ele><time>2026-04-25T09:49:53.918Z</time></trkpt><trkpt lat="43.94458147567703" lon="11.413987270311978"><ele>198.5</ele><time>2026-04-25T09:49:54.918Z</time></trkpt><trkpt lat="43.94459835627839" lon="11.413805219185393"><ele>199.0</ele><time>2026-04-25T09:49:55.918Z</time></trkpt><trkpt lat="43.944630245662665" lon="11.413610882788872"><ele>199.5</ele><time>2026-04-25T09:49:56.918Z</time></trkpt><trkpt lat="43.944682489657545" lon="11.413411610810583"><ele>200.0</ele><time>2026-04-25T09:49:57.918Z</time></trkpt><trkpt lat="43.94474028808418" lon="11.413229605256404"><ele>200.0</ele><time>2026-04-25T09:49:58.918Z</time></trkpt><trkpt lat="43.94480471524708" lon="11.41305011622988"><ele>200.0</ele><time>2026-04-25T09:49:59.918Z</time></trkpt><trkpt lat="43.94487252752968" lon="11.41288002361503"><ele>200.0</ele><time>2026-04-25T09:50:00.918Z</time></trkpt><trkpt lat="43.94493670328776" lon="11.412710617529326"><ele>200.0</ele><time>2026-04-25T09:50:01.918Z</time></trkpt><trkpt lat="43.94500464099607" lon="11.412547097349266"><ele>199.25</ele><time>2026-04-25T09:50:02.918Z</time></trkpt><trkpt lat="43.94506829734464" lon="11.412397657647121"><ele>198.5</ele><time>2026-04-25T09:50:03.918Z</time></trkpt><trkpt lat="43.94512575050939" lon="11.412247483597579"><ele>197.75</ele><time>2026-04-25T09:50:04.918Z</time></trkpt><trkpt lat="43.945185122158406" lon="11.412094328896794"><ele>197.0</ele><time>2026-04-25T09:50:05.917Z</time></trkpt><trkpt lat="43.945245230898145" lon="11.411927501726774"><ele>196.0</ele><time>2026-04-25T09:50:06.917Z</time></trkpt><trkpt lat="43.94531342293667" lon="11.411755415699604"><ele>195.0</ele><time>2026-04-25T09:50:07.917Z</time></trkpt><trkpt lat="43.94540406041183" lon="11.411604100680274"><ele>194.0</ele><time>2026-04-25T09:50:08.917Z</time></trkpt><trkpt lat="43.94546908783732" lon="11.411438714020058"><ele>193.0</ele><time>2026-04-25T09:50:09.917Z</time></trkpt><trkpt lat="43.94552707651439" lon="11.411267966525509"><ele>192.75</ele><time>2026-04-25T09:50:10.916Z</time></trkpt><trkpt lat="43.94558974330785" lon="11.411091602441422"><ele>192.5</ele><time>2026-04-25T09:50:11.916Z</time></trkpt><trkpt lat="43.945662362865114" lon="11.410913774535535"><ele>192.25</ele><time>2026-04-25T09:50:12.916Z</time></trkpt><trkpt lat="43.9457289720867" lon="11.410753649927154"><ele>192.0</ele><time>2026-04-25T09:50:13.916Z</time></trkpt><trkpt lat="43.94579027156976" lon="11.410600787779703"><ele>191.75</ele><time>2026-04-25T09:50:14.916Z</time></trkpt><trkpt lat="43.945851273127246" lon="11.410450116427501"><ele>191.5</ele><time>2026-04-25T09:50:15.916Z</time></trkpt><trkpt lat="43.945910322213024" lon="11.410292999546838"><ele>191.25</ele><time>2026-04-25T09:50:16.916Z</time></trkpt><trkpt lat="43.94596971647129" lon="11.410141957141134"><ele>191.0</ele><time>2026-04-25T09:50:17.916Z</time></trkpt><trkpt lat="43.946029472065824" lon="11.409989362122207"><ele>191.75</ele><time>2026-04-25T09:50:18.916Z</time></trkpt><trkpt lat="43.94609624772316" lon="11.409832770064984"><ele>192.5</ele><time>2026-04-25T09:50:19.916Z</time></trkpt><trkpt lat="43.946157162297446" lon="11.409685412295623"><ele>193.25</ele><time>2026-04-25T09:50:20.916Z</time></trkpt><trkpt lat="43.946216619065375" lon="11.409540975614012"><ele>194.0</ele><time>2026-04-25T09:50:21.916Z</time></trkpt><trkpt lat="43.94628010819701" lon="11.409387470944795"><ele>194.5</ele><time>2026-04-25T09:50:22.916Z</time></trkpt><trkpt lat="43.946346801848485" lon="11.40922941584311"><ele>195.0</ele><time>2026-04-25T09:50:23.916Z</time></trkpt><trkpt lat="43.946417508908546" lon="11.409079150581018"><ele>195.5</ele><time>2026-04-25T09:50:24.916Z</time></trkpt><trkpt lat="43.94648551282303" lon="11.40892502749497"><ele>196.0</ele><time>2026-04-25T09:50:25.916Z</time></trkpt><trkpt lat="43.94655814774802" lon="11.408775425454099"><ele>196.0</ele><time>2026-04-25T09:50:26.916Z</time></trkpt><trkpt lat="43.94663435759873" lon="11.408634814493503"><ele>196.0</ele><time>2026-04-25T09:50:27.916Z</time></trkpt><trkpt lat="43.94670726025782" lon="11.408496578164653"><ele>196.0</ele><time>2026-04-25T09:50:28.916Z</time></trkpt><trkpt lat="43.946782142543164" lon="11.40835707565982"><ele>196.0</ele><time>2026-04-25T09:50:29.916Z</time></trkpt><trkpt lat="43.94686270870122" lon="11.40821355862239"><ele>196.25</ele><time>2026-04-25T09:50:30.916Z</time></trkpt><trkpt lat="43.94694442287017" lon="11.4080841793532"><ele>196.5</ele><time>2026-04-25T09:50:31.916Z</time></trkpt><trkpt lat="43.94702970477879" lon="11.407960812173128"><ele>196.75</ele><time>2026-04-25T09:50:32.916Z</time></trkpt><trkpt lat="43.94711355402033" lon="11.407838448177936"><ele>197.0</ele><time>2026-04-25T09:50:33.916Z</time></trkpt><trkpt lat="43.94720694691106" lon="11.407718604944053"><ele>196.5</ele><time>2026-04-25T09:50:34.916Z</time></trkpt><trkpt lat="43.947306148657056" lon="11.40760083778241"><ele>196.0</ele><time>2026-04-25T09:50:35.916Z</time></trkpt><trkpt lat="43.94740938498975" lon="11.407484983616582"><ele>195.5</ele><time>2026-04-25T09:50:36.916Z</time></trkpt><trkpt lat="43.94752157102984" lon="11.407360015558533"><ele>195.0</ele><time>2026-04-25T09:50:37.916Z</time></trkpt><trkpt lat="43.947655625301216" lon="11.407261697103886"><ele>194.66666666666669</ele><time>2026-04-25T09:50:38.916Z</time></trkpt><trkpt lat="43.94779338638853" lon="11.407106077285832"><ele>194.33333333333334</ele><time>2026-04-25T09:50:39.916Z</time></trkpt><trkpt lat="43.94794677470369" lon="11.406962308452032"><ele>194.0</ele><time>2026-04-25T09:50:40.916Z</time></trkpt><trkpt lat="43.94808891092528" lon="11.40682805349756"><ele>194.0</ele><time>2026-04-25T09:50:41.916Z</time></trkpt><trkpt lat="43.94821935244871" lon="11.406701778818945"><ele>194.0</ele><time>2026-04-25T09:50:42.916Z</time></trkpt><trkpt lat="43.94834156418607" lon="11.406589072859246"><ele>194.0</ele><time>2026-04-25T09:50:43.916Z</time></trkpt><trkpt lat="43.94845846336273" lon="11.40648069933285"><ele>194.0</ele><time>2026-04-25T09:50:44.916Z</time></trkpt><trkpt lat="43.94856661480605" lon="11.406376118254073"><ele>193.0</ele><time>2026-04-25T09:50:45.916Z</time></trkpt><trkpt lat="43.94866964605001" lon="11.406269152054936"><ele>192.0</ele><time>2026-04-25T09:50:46.916Z</time></trkpt><trkpt lat="43.94876586353743" lon="11.406161650130768"><ele>191.0</ele><time>2026-04-25T09:50:47.916Z</time></trkpt><trkpt lat="43.948855127852696" lon="11.406064032589079"><ele>190.0</ele><time>2026-04-25T09:50:48.916Z</time></trkpt><trkpt lat="43.94893545328208" lon="11.405964491724111"><ele>190.0</ele><time>2026-04-25T09:50:49.916Z</time></trkpt><trkpt lat="43.94901090057465" lon="11.405873502906882"><ele>190.0</ele><time>2026-04-25T09:50:50.916Z</time></trkpt><trkpt lat="43.94909194470757" lon="11.405787492094342"><ele>190.0</ele><time>2026-04-25T09:50:51.916Z</time></trkpt><trkpt lat="43.9491709050495" lon="11.405703563377786"><ele>190.0</ele><time>2026-04-25T09:50:52.916Z</time></trkpt><trkpt lat="43.9492447532751" lon="11.405633138490646"><ele>190.0</ele><time>2026-04-25T09:50:53.916Z</time></trkpt><trkpt lat="43.94931367763827" lon="11.40556450361274"><ele>190.5</ele><time>2026-04-25T09:50:54.916Z</time></trkpt><trkpt lat="43.94935908246416" lon="11.4054766967226"><ele>191.0</ele><time>2026-04-25T09:50:55.916Z</time></trkpt><trkpt lat="43.94937302513615" lon="11.405378774207973"><ele>191.5</ele><time>2026-04-25T09:50:56.916Z</time></trkpt><trkpt lat="43.949350307978165" lon="11.405277177931914"><ele>192.0</ele><time>2026-04-25T09:50:57.916Z</time></trkpt><trkpt lat="43.94929739779409" lon="11.40518027543249"><ele>192.49999999999997</ele><time>2026-04-25T09:50:58.916Z</time></trkpt><trkpt lat="43.94924439695326" lon="11.405068108588331"><ele>193.0</ele><time>2026-04-25T09:50:59.916Z</time></trkpt><trkpt lat="43.94921212319042" lon="11.404944404287779"><ele>193.0</ele><time>2026-04-25T09:51:00.916Z</time></trkpt><trkpt lat="43.949193791635025" lon="11.404825431245555"><ele>193.0</ele><time>2026-04-25T09:51:01.916Z</time></trkpt><trkpt lat="43.94926359154814" lon="11.404692610026071"><ele>193.0</ele><time>2026-04-25T09:51:02.916Z</time></trkpt><trkpt lat="43.94929040659607" lon="11.404521001313533"><ele>193.0</ele><time>2026-04-25T09:51:03.916Z</time></trkpt><trkpt lat="43.949343757373384" lon="11.404324284128721"><ele>192.0</ele><time>2026-04-25T09:51:04.916Z</time></trkpt><trkpt lat="43.949402828467846" lon="11.4040933461867"><ele>191.0</ele><time>2026-04-25T09:51:05.916Z</time></trkpt><trkpt lat="43.94946167813408" lon="11.403851141747577"><ele>190.0</ele><time>2026-04-25T09:51:06.916Z</time></trkpt><trkpt lat="43.94950235973104" lon="11.403597947222849"><ele>190.0</ele><time>2026-04-25T09:51:07.916Z</time></trkpt><trkpt lat="43.94953547392203" lon="11.40335757865212"><ele>190.0</ele><time>2026-04-25T09:51:08.916Z</time></trkpt><trkpt lat="43.94955816378365" lon="11.403136538213483"><ele>190.0</ele><time>2026-04-25T09:51:09.916Z</time></trkpt><trkpt lat="43.94958142241646" lon="11.40293494906285"><ele>189.8</ele><time>2026-04-25T09:51:10.916Z</time></trkpt><trkpt lat="43.94960187607089" lon="11.402753224357411"><ele>189.6</ele><time>2026-04-25T09:51:11.916Z</time></trkpt><trkpt lat="43.949641033380765" lon="11.40259582728993"><ele>189.39999999999998</ele><time>2026-04-25T09:51:12.916Z</time></trkpt><trkpt lat="43.949657368308216" lon="11.402460549643616"><ele>189.2</ele><time>2026-04-25T09:51:13.916Z</time></trkpt><trkpt lat="43.94966990208412" lon="11.402356751420694"><ele>189.0</ele><time>2026-04-25T09:51:14.916Z</time></trkpt><trkpt lat="43.9496816494779" lon="11.402259465577293"><ele>188.79999999999998</ele><time>2026-04-25T09:51:15.916Z</time></trkpt><trkpt lat="43.949691481577084" lon="11.402125022305297"><ele>188.6</ele><time>2026-04-25T09:51:17.916Z</time></trkpt><trkpt lat="43.94969615753302" lon="11.402031946173228"><ele>188.4</ele><time>2026-04-25T09:51:19.916Z</time></trkpt><trkpt lat="43.949702021983015" lon="11.401897819349271"><ele>188.2</ele><time>2026-04-25T09:51:39.915Z</time></trkpt><trkpt lat="43.94973027871259" lon="11.401700354394862"><ele>188.0</ele><time>2026-04-25T09:51:41.915Z</time></trkpt><trkpt lat="43.94975721432999" lon="11.40158340981409"><ele>188.0</ele><time>2026-04-25T09:51:42.915Z</time></trkpt><trkpt lat="43.94977295467524" lon="11.401426485118089"><ele>188.0</ele><time>2026-04-25T09:51:43.915Z</time></trkpt><trkpt lat="43.94980215491819" lon="11.401238629275365"><ele>188.0</ele><time>2026-04-25T09:51:44.915Z</time></trkpt><trkpt lat="43.94982304544627" lon="11.401044740436745"><ele>188.0</ele><time>2026-04-25T09:51:45.915Z</time></trkpt><trkpt lat="43.94985588456197" lon="11.400835131600676"><ele>187.66666666666666</ele><time>2026-04-25T09:51:46.915Z</time></trkpt><trkpt lat="43.94987649623828" lon="11.40061448227873"><ele>187.33333333333334</ele><time>2026-04-25T09:51:47.915Z</time></trkpt><trkpt lat="43.94990220069201" lon="11.400393730943108"><ele>187.0</ele><time>2026-04-25T09:51:48.915Z</time></trkpt><trkpt lat="43.94991863914008" lon="11.40017445003918"><ele>187.0</ele><time>2026-04-25T09:51:49.915Z</time></trkpt><trkpt lat="43.949943740000094" lon="11.399973276098027"><ele>187.0</ele><time>2026-04-25T09:51:50.915Z</time></trkpt><trkpt lat="43.94996988581399" lon="11.399777494612067"><ele>187.0</ele><time>2026-04-25T09:51:51.915Z</time></trkpt><trkpt lat="43.94998650118237" lon="11.399620575054929"><ele>187.0</ele><time>2026-04-25T09:51:52.915Z</time></trkpt><trkpt lat="43.949997927186985" lon="11.399478482624897"><ele>187.0</ele><time>2026-04-25T09:51:53.915Z</time></trkpt><trkpt lat="43.95001583230388" lon="11.39934846438991"><ele>187.0</ele><time>2026-04-25T09:51:54.915Z</time></trkpt><trkpt lat="43.9500289061164" lon="11.399214304086893"><ele>187.0</ele><time>2026-04-25T09:51:55.915Z</time></trkpt><trkpt lat="43.95004699256814" lon="11.399067536995679"><ele>187.0</ele><time>2026-04-25T09:51:56.915Z</time></trkpt><trkpt lat="43.95006593486012" lon="11.398894141307068"><ele>187.0</ele><time>2026-04-25T09:51:57.915Z</time></trkpt><trkpt lat="43.950091518946664" lon="11.39872889286495"><ele>187.75</ele><time>2026-04-25T09:51:58.915Z</time></trkpt><trkpt lat="43.9501196606391" lon="11.398530764126274"><ele>188.5</ele><time>2026-04-25T09:51:59.915Z</time></trkpt><trkpt lat="43.95013770591567" lon="11.398325284451793"><ele>189.25</ele><time>2026-04-25T09:52:00.915Z</time></trkpt><trkpt lat="43.950155689784744" lon="11.398132438315141"><ele>190.0</ele><time>2026-04-25T09:52:01.915Z</time></trkpt><trkpt lat="43.95018030855798" lon="11.397958963146532"><ele>190.0</ele><time>2026-04-25T09:52:02.915Z</time></trkpt><trkpt lat="43.95019730148999" lon="11.39779303518983"><ele>190.0</ele><time>2026-04-25T09:52:03.915Z</time></trkpt><trkpt lat="43.950217486054456" lon="11.397631233314602"><ele>190.0</ele><time>2026-04-25T09:52:04.915Z</time></trkpt><trkpt lat="43.95023672043255" lon="11.397468570868977"><ele>190.0</ele><time>2026-04-25T09:52:05.915Z</time></trkpt><trkpt lat="43.95026240155837" lon="11.397301835422404"><ele>190.25</ele><time>2026-04-25T09:52:06.915Z</time></trkpt><trkpt lat="43.950277443626845" lon="11.397132179304315"><ele>190.5</ele><time>2026-04-25T09:52:07.915Z</time></trkpt><trkpt lat="43.950296869173464" lon="11.396963485057595"><ele>190.75</ele><time>2026-04-25T09:52:08.915Z</time></trkpt><trkpt lat="43.95031619824502" lon="11.396779533742372"><ele>191.0</ele><time>2026-04-25T09:52:09.915Z</time></trkpt><trkpt lat="43.95033812892065" lon="11.396592512896907"><ele>191.0</ele><time>2026-04-25T09:52:10.915Z</time></trkpt><trkpt lat="43.95036052687572" lon="11.396405182917524"><ele>191.0</ele><time>2026-04-25T09:52:11.915Z</time></trkpt><trkpt lat="43.95038521799289" lon="11.39621559028308"><ele>191.0</ele><time>2026-04-25T09:52:12.915Z</time></trkpt><trkpt lat="43.95041045511026" lon="11.396025576368602"><ele>191.0</ele><time>2026-04-25T09:52:13.915Z</time></trkpt><trkpt lat="43.950441912419414" lon="11.395837293730485"><ele>191.0</ele><time>2026-04-25T09:52:14.915Z</time></trkpt><trkpt lat="43.950467651387214" lon="11.395658798900424"><ele>191.0</ele><time>2026-04-25T09:52:15.915Z</time></trkpt><trkpt lat="43.950493015896825" lon="11.395474823219114"><ele>191.0</ele><time>2026-04-25T09:52:16.915Z</time></trkpt><trkpt lat="43.950518996989786" lon="11.395279066012247"><ele>191.0</ele><time>2026-04-25T09:52:17.914Z</time></trkpt><trkpt lat="43.95054469535112" lon="11.395083156359513"><ele>190.75</ele><time>2026-04-25T09:52:18.914Z</time></trkpt><trkpt lat="43.95056981456741" lon="11.394898679056634"><ele>190.5</ele><time>2026-04-25T09:52:19.915Z</time></trkpt><trkpt lat="43.95060379041076" lon="11.394715596627304"><ele>190.25</ele><time>2026-04-25T09:52:20.915Z</time></trkpt><trkpt lat="43.95062869782747" lon="11.394534497921551"><ele>190.0</ele><time>2026-04-25T09:52:21.915Z</time></trkpt><trkpt lat="43.95066675395109" lon="11.394376328433324"><ele>190.0</ele><time>2026-04-25T09:52:22.915Z</time></trkpt><trkpt lat="43.950698037619986" lon="11.394230142171965"><ele>190.0</ele><time>2026-04-25T09:52:23.914Z</time></trkpt><trkpt lat="43.95073180140251" lon="11.394103037086726"><ele>190.0</ele><time>2026-04-25T09:52:24.914Z</time></trkpt><trkpt lat="43.95076680069056" lon="11.393995762580474"><ele>190.0</ele><time>2026-04-25T09:52:25.915Z</time></trkpt><trkpt lat="43.95080465904559" lon="11.393912768599057"><ele>190.0</ele><time>2026-04-25T09:52:26.915Z</time></trkpt><trkpt lat="43.95084387810733" lon="11.393787553812484"><ele>190.0</ele><time>2026-04-25T09:52:28.915Z</time></trkpt><trkpt lat="43.95071146500917" lon="11.393680749369343"><ele>190.0</ele><time>2026-04-25T09:52:29.914Z</time></trkpt><trkpt lat="43.950632971310135" lon="11.393629317896373"><ele>190.0</ele><time>2026-04-25T09:52:30.914Z</time></trkpt><trkpt lat="43.95054047463138" lon="11.393567512721805"><ele>190.0</ele><time>2026-04-25T09:52:31.914Z</time></trkpt><trkpt lat="43.9504391655739" lon="11.393485633033587"><ele>190.0</ele><time>2026-04-25T09:52:32.914Z</time></trkpt><trkpt lat="43.95031934923513" lon="11.393386118674465"><ele>190.0</ele><time>2026-04-25T09:52:33.914Z</time></trkpt><trkpt lat="43.95019085243726" lon="11.393267651039189"><ele>190.0</ele><time>2026-04-25T09:52:34.914Z</time></trkpt><trkpt lat="43.95007093388888" lon="11.393157985493996"><ele>190.0</ele><time>2026-04-25T09:52:35.914Z</time></trkpt><trkpt lat="43.949960280008405" lon="11.393048835641531"><ele>189.25</ele><time>2026-04-25T09:52:36.914Z</time></trkpt><trkpt lat="43.94985662667179" lon="11.392926650973351"><ele>188.5</ele><time>2026-04-25T09:52:37.914Z</time></trkpt><trkpt lat="43.94974396467745" lon="11.392819093361478"><ele>187.75</ele><time>2026-04-25T09:52:38.914Z</time></trkpt><trkpt lat="43.9496371949999" lon="11.392716449872683"><ele>187.0</ele><time>2026-04-25T09:52:39.914Z</time></trkpt><trkpt lat="43.94953362997645" lon="11.392617993578199"><ele>187.0</ele><time>2026-04-25T09:52:40.914Z</time></trkpt><trkpt lat="43.94942671918404" lon="11.39254004422638"><ele>187.0</ele><time>2026-04-25T09:52:41.914Z</time></trkpt><trkpt lat="43.94933415374263" lon="11.392436512900543"><ele>187.0</ele><time>2026-04-25T09:52:42.914Z</time></trkpt><trkpt lat="43.949259823182764" lon="11.392322893457267"><ele>187.0</ele><time>2026-04-25T09:52:43.914Z</time></trkpt><trkpt lat="43.949216360666696" lon="11.392171434822226"><ele>186.75</ele><time>2026-04-25T09:52:44.914Z</time></trkpt><trkpt lat="43.94919840910829" lon="11.392020445093133"><ele>186.5</ele><time>2026-04-25T09:52:45.914Z</time></trkpt><trkpt lat="43.94919971057156" lon="11.391843410500522"><ele>186.25</ele><time>2026-04-25T09:52:46.914Z</time></trkpt><trkpt lat="43.94922718229022" lon="11.3916733795215"><ele>186.0</ele><time>2026-04-25T09:52:47.914Z</time></trkpt><trkpt lat="43.94928155242703" lon="11.391505137076958"><ele>187.0</ele><time>2026-04-25T09:52:48.914Z</time></trkpt><trkpt lat="43.949349060465345" lon="11.39130966521978"><ele>188.0</ele><time>2026-04-25T09:52:49.914Z</time></trkpt><trkpt lat="43.94940657467008" lon="11.391105630826228"><ele>189.0</ele><time>2026-04-25T09:52:50.914Z</time></trkpt><trkpt lat="43.9494667303772" lon="11.390904504012301"><ele>189.0</ele><time>2026-04-25T09:52:51.914Z</time></trkpt><trkpt lat="43.94952335124359" lon="11.390724239941903"><ele>189.0</ele><time>2026-04-25T09:52:52.914Z</time></trkpt><trkpt lat="43.94958422690863" lon="11.390527466059634"><ele>189.0</ele><time>2026-04-25T09:52:53.914Z</time></trkpt><trkpt lat="43.949642380503725" lon="11.39033864955967"><ele>189.0</ele><time>2026-04-25T09:52:54.914Z</time></trkpt><trkpt lat="43.94969377369129" lon="11.39016005404958"><ele>188.75</ele><time>2026-04-25T09:52:55.914Z</time></trkpt><trkpt lat="43.949744372034985" lon="11.389984851111583"><ele>188.5</ele><time>2026-04-25T09:52:56.914Z</time></trkpt><trkpt lat="43.94979031141089" lon="11.389811168534694"><ele>188.25</ele><time>2026-04-25T09:52:57.914Z</time></trkpt><trkpt lat="43.94983618784921" lon="11.38964671478931"><ele>188.0</ele><time>2026-04-25T09:52:58.914Z</time></trkpt><trkpt lat="43.94987903586434" lon="11.389478764113749"><ele>187.75</ele><time>2026-04-25T09:52:59.914Z</time></trkpt><trkpt lat="43.94991100460277" lon="11.3893234518628"><ele>187.5</ele><time>2026-04-25T09:53:00.914Z</time></trkpt><trkpt lat="43.949959536838634" lon="11.389174423116867"><ele>187.25</ele><time>2026-04-25T09:53:01.914Z</time></trkpt><trkpt lat="43.950004677143404" lon="11.38901839567803"><ele>187.0</ele><time>2026-04-25T09:53:02.914Z</time></trkpt><trkpt lat="43.9500415985427" lon="11.388870151223053"><ele>187.25</ele><time>2026-04-25T09:53:03.914Z</time></trkpt><trkpt lat="43.950080573612" lon="11.388723148241487"><ele>187.5</ele><time>2026-04-25T09:53:04.914Z</time></trkpt><trkpt lat="43.95012176899417" lon="11.388575636939573"><ele>187.75</ele><time>2026-04-25T09:53:05.914Z</time></trkpt><trkpt lat="43.95016020623803" lon="11.388425377046843"><ele>188.0</ele><time>2026-04-25T09:53:06.914Z</time></trkpt><trkpt lat="43.950193560207104" lon="11.388263493069786"><ele>188.0</ele><time>2026-04-25T09:53:07.914Z</time></trkpt><trkpt lat="43.95022999415185" lon="11.388095771273605"><ele>188.0</ele><time>2026-04-25T09:53:08.914Z</time></trkpt><trkpt lat="43.95025302893389" lon="11.387939706919322"><ele>188.0</ele><time>2026-04-25T09:53:09.914Z</time></trkpt><trkpt lat="43.950277325074424" lon="11.387786288991295"><ele>188.0</ele><time>2026-04-25T09:53:10.914Z</time></trkpt><trkpt lat="43.95029928139684" lon="11.387649952339777"><ele>188.0</ele><time>2026-04-25T09:53:11.914Z</time></trkpt><trkpt lat="43.950323682191524" lon="11.387526081816116"><ele>188.0</ele><time>2026-04-25T09:53:12.914Z</time></trkpt><trkpt lat="43.950349518700676" lon="11.387399435556754"><ele>188.0</ele><time>2026-04-25T09:53:13.914Z</time></trkpt><trkpt lat="43.95037306897099" lon="11.387276276830463"><ele>188.0</ele><time>2026-04-25T09:53:14.914Z</time></trkpt><trkpt lat="43.95038443722001" lon="11.387156316581144"><ele>188.0</ele><time>2026-04-25T09:53:15.914Z</time></trkpt><trkpt lat="43.9503816637719" lon="11.387046884671369"><ele>188.0</ele><time>2026-04-25T09:53:16.914Z</time></trkpt><trkpt lat="43.95037757445481" lon="11.38694477289585"><ele>188.2</ele><time>2026-04-25T09:53:17.914Z</time></trkpt><trkpt lat="43.950303767383026" lon="11.386866411596818"><ele>188.4</ele><time>2026-04-25T09:53:18.914Z</time></trkpt><trkpt lat="43.95023498083956" lon="11.386804991827413"><ele>188.6</ele><time>2026-04-25T09:53:19.914Z</time></trkpt><trkpt lat="43.95016110885454" lon="11.386749940219124"><ele>188.79999999999998</ele><time>2026-04-25T09:53:20.914Z</time></trkpt><trkpt lat="43.950059503787514" lon="11.386765799891002"><ele>189.0</ele><time>2026-04-25T09:53:21.914Z</time></trkpt><trkpt lat="43.94994656265856" lon="11.386775628976354"><ele>189.5</ele><time>2026-04-25T09:53:22.914Z</time></trkpt><trkpt lat="43.94982517361318" lon="11.386761951584042"><ele>190.0</ele><time>2026-04-25T09:53:23.914Z</time></trkpt><trkpt lat="43.9496993365848" lon="11.386765459085314"><ele>190.5</ele><time>2026-04-25T09:53:24.914Z</time></trkpt><trkpt lat="43.94958094772246" lon="11.38676871662579"><ele>191.0</ele><time>2026-04-25T09:53:25.914Z</time></trkpt><trkpt lat="43.949466812770815" lon="11.386793066607511"><ele>191.0</ele><time>2026-04-25T09:53:26.914Z</time></trkpt><trkpt lat="43.94934636025482" lon="11.386797408372512"><ele>191.0</ele><time>2026-04-25T09:53:27.914Z</time></trkpt><trkpt lat="43.94923087478021" lon="11.386797156715158"><ele>191.0</ele><time>2026-04-25T09:53:28.914Z</time></trkpt><trkpt lat="43.94912215685065" lon="11.386801993361823"><ele>191.0</ele><time>2026-04-25T09:53:29.914Z</time></trkpt><trkpt lat="43.949003542670944" lon="11.386783820870468"><ele>191.0</ele><time>2026-04-25T09:53:30.914Z</time></trkpt><trkpt lat="43.948862453786006" lon="11.38679701059476"><ele>191.0</ele><time>2026-04-25T09:53:31.914Z</time></trkpt><trkpt lat="43.94870810384106" lon="11.386803603688907"><ele>191.0</ele><time>2026-04-25T09:53:32.914Z</time></trkpt><trkpt lat="43.94852638789608" lon="11.38679599251772"><ele>189.33333333333331</ele><time>2026-04-25T09:53:33.914Z</time></trkpt><trkpt lat="43.94834081918346" lon="11.38680836952753"><ele>187.66666666666666</ele><time>2026-04-25T09:53:34.914Z</time></trkpt><trkpt lat="43.948129956858615" lon="11.386813645688203"><ele>186.0</ele><time>2026-04-25T09:53:35.914Z</time></trkpt><trkpt lat="43.94791428700208" lon="11.386802318215917"><ele>186.0</ele><time>2026-04-25T09:53:36.914Z</time></trkpt><trkpt lat="43.94769486228855" lon="11.386810360686619"><ele>186.0</ele><time>2026-04-25T09:53:37.914Z</time></trkpt><trkpt lat="43.947481557438095" lon="11.38681283168767"><ele>186.0</ele><time>2026-04-25T09:53:38.914Z</time></trkpt><trkpt lat="43.947276817973666" lon="11.386821945872548"><ele>186.0</ele><time>2026-04-25T09:53:39.914Z</time></trkpt><trkpt lat="43.94708640886134" lon="11.386832387181588"><ele>186.0</ele><time>2026-04-25T09:53:40.914Z</time></trkpt><trkpt lat="43.9469075207603" lon="11.386841166274694"><ele>186.0</ele><time>2026-04-25T09:53:41.914Z</time></trkpt><trkpt lat="43.94673452061603" lon="11.386846961632719"><ele>186.66666666666666</ele><time>2026-04-25T09:53:42.914Z</time></trkpt><trkpt lat="43.946572059053096" lon="11.38685480445907"><ele>187.33333333333331</ele><time>2026-04-25T09:53:43.914Z</time></trkpt><trkpt lat="43.946411472471105" lon="11.386847484168756"><ele>188.0</ele><time>2026-04-25T09:53:44.914Z</time></trkpt><trkpt lat="43.94626327578147" lon="11.386819649942854"><ele>188.0</ele><time>2026-04-25T09:53:45.914Z</time></trkpt><trkpt lat="43.94612403019" lon="11.386755142430742"><ele>188.0</ele><time>2026-04-25T09:53:46.914Z</time></trkpt><trkpt lat="43.94598688362032" lon="11.386642982245448"><ele>188.0</ele><time>2026-04-25T09:53:47.914Z</time></trkpt><trkpt lat="43.945851302810205" lon="11.386473674376871"><ele>188.33333333333331</ele><time>2026-04-25T09:53:48.914Z</time></trkpt><trkpt lat="43.94571925177478" lon="11.386294106565888"><ele>188.66666666666666</ele><time>2026-04-25T09:53:49.914Z</time></trkpt><trkpt lat="43.94558530732795" lon="11.386108022384251"><ele>189.0</ele><time>2026-04-25T09:53:50.914Z</time></trkpt><trkpt lat="43.94545721934083" lon="11.385935940921339"><ele>189.0</ele><time>2026-04-25T09:53:51.914Z</time></trkpt><trkpt lat="43.945339594961524" lon="11.385761084217188"><ele>189.0</ele><time>2026-04-25T09:53:52.914Z</time></trkpt><trkpt lat="43.94522014765215" lon="11.38560502742546"><ele>189.0</ele><time>2026-04-25T09:53:53.914Z</time></trkpt><trkpt lat="43.945100642414594" lon="11.385440769986852"><ele>189.33333333333334</ele><time>2026-04-25T09:53:54.914Z</time></trkpt><trkpt lat="43.944966958182576" lon="11.385267074270287"><ele>189.66666666666669</ele><time>2026-04-25T09:53:55.914Z</time></trkpt><trkpt lat="43.9448366955155" lon="11.385097049433856"><ele>190.0</ele><time>2026-04-25T09:53:56.914Z</time></trkpt><trkpt lat="43.94471322493691" lon="11.384928423588796"><ele>190.0</ele><time>2026-04-25T09:53:57.914Z</time></trkpt><trkpt lat="43.94459490922604" lon="11.384765760699931"><ele>190.0</ele><time>2026-04-25T09:53:58.914Z</time></trkpt><trkpt lat="43.944475506179046" lon="11.384603436202616"><ele>190.0</ele><time>2026-04-25T09:53:59.914Z</time></trkpt><trkpt lat="43.94435485241987" lon="11.384448988691926"><ele>189.25</ele><time>2026-04-25T09:54:00.914Z</time></trkpt><trkpt lat="43.94423639899628" lon="11.384296788509792"><ele>188.5</ele><time>2026-04-25T09:54:01.914Z</time></trkpt><trkpt lat="43.94412922556323" lon="11.38415466210631"><ele>187.75</ele><time>2026-04-25T09:54:02.914Z</time></trkpt><trkpt lat="43.94403304633448" lon="11.38401884006124"><ele>187.0</ele><time>2026-04-25T09:54:03.914Z</time></trkpt><trkpt lat="43.9439659902707" lon="11.38389859166562"><ele>188.5</ele><time>2026-04-25T09:54:04.914Z</time></trkpt><trkpt lat="43.94391234260215" lon="11.383727716829448"><ele>190.0</ele><time>2026-04-25T09:54:05.914Z</time></trkpt><trkpt lat="43.94388772145336" lon="11.38353952205752"><ele>191.5</ele><time>2026-04-25T09:54:06.914Z</time></trkpt><trkpt lat="43.94390794235807" lon="11.383345899283283"><ele>193.0</ele><time>2026-04-25T09:54:07.914Z</time></trkpt><trkpt lat="43.9439438876937" lon="11.383131794755519"><ele>193.33333333333331</ele><time>2026-04-25T09:54:08.914Z</time></trkpt><trkpt lat="43.94398136470539" lon="11.382899814619526"><ele>193.66666666666669</ele><time>2026-04-25T09:54:09.914Z</time></trkpt><trkpt lat="43.944012810993016" lon="11.382643167735985"><ele>194.0</ele><time>2026-04-25T09:54:10.914Z</time></trkpt><trkpt lat="43.944046612009" lon="11.382362911531258"><ele>194.66666666666669</ele><time>2026-04-25T09:54:11.914Z</time></trkpt><trkpt lat="43.944106206154366" lon="11.38207276385586"><ele>195.33333333333331</ele><time>2026-04-25T09:54:12.914Z</time></trkpt><trkpt lat="43.944151648663905" lon="11.381767934323111"><ele>196.0</ele><time>2026-04-25T09:54:13.914Z</time></trkpt><trkpt lat="43.94419674599952" lon="11.38145607653581"><ele>191.5</ele><time>2026-04-25T09:54:14.914Z</time></trkpt><trkpt lat="43.94424244026316" lon="11.381125997502233"><ele>187.0</ele><time>2026-04-25T09:54:15.914Z</time></trkpt><trkpt lat="43.94427399555304" lon="11.380787408284965"><ele>189.0</ele><time>2026-04-25T09:54:16.914Z</time></trkpt><trkpt lat="43.94432758689571" lon="11.380441547907994"><ele>191.0</ele><time>2026-04-25T09:54:17.914Z</time></trkpt><trkpt lat="43.94437505887304" lon="11.380117265670442"><ele>191.0</ele><time>2026-04-25T09:54:18.914Z</time></trkpt><trkpt lat="43.94441927802223" lon="11.37981822509453"><ele>191.0</ele><time>2026-04-25T09:54:19.914Z</time></trkpt><trkpt lat="43.944461711679594" lon="11.379535899338869"><ele>191.0</ele><time>2026-04-25T09:54:20.914Z</time></trkpt><trkpt lat="43.94449628656796" lon="11.379268821548711"><ele>193.66666666666666</ele><time>2026-04-25T09:54:21.914Z</time></trkpt><trkpt lat="43.94453544526664" lon="11.379012486479535"><ele>196.33333333333331</ele><time>2026-04-25T09:54:22.913Z</time></trkpt><trkpt lat="43.944573455927355" lon="11.378750755911254"><ele>199.0</ele><time>2026-04-25T09:54:23.912Z</time></trkpt><trkpt lat="43.944611134190765" lon="11.37848780897199"><ele>200.66666666666666</ele><time>2026-04-25T09:54:24.912Z</time></trkpt><trkpt lat="43.94464894920169" lon="11.378224950959734"><ele>202.33333333333331</ele><time>2026-04-25T09:54:25.913Z</time></trkpt><trkpt lat="43.9446880232275" lon="11.377966462065947"><ele>204.0</ele><time>2026-04-25T09:54:26.913Z</time></trkpt><trkpt lat="43.94472546067931" lon="11.37772363295632"><ele>205.0</ele><time>2026-04-25T09:54:27.913Z</time></trkpt><trkpt lat="43.94476627689158" lon="11.377489211223514"><ele>206.0</ele><time>2026-04-25T09:54:28.913Z</time></trkpt><trkpt lat="43.94481656638475" lon="11.377256768124914"><ele>207.0</ele><time>2026-04-25T09:54:29.914Z</time></trkpt><trkpt lat="43.944887193069874" lon="11.377026212088847"><ele>207.0</ele><time>2026-04-25T09:54:30.914Z</time></trkpt><trkpt lat="43.944980596914036" lon="11.376798675370981"><ele>207.0</ele><time>2026-04-25T09:54:31.915Z</time></trkpt><trkpt lat="43.945079749365696" lon="11.376589190523122"><ele>207.0</ele><time>2026-04-25T09:54:32.915Z</time></trkpt><trkpt lat="43.94517125478702" lon="11.376386397878756"><ele>207.5</ele><time>2026-04-25T09:54:33.916Z</time></trkpt><trkpt lat="43.94526663872616" lon="11.37621681216211"><ele>208.0</ele><time>2026-04-25T09:54:34.917Z</time></trkpt><trkpt lat="43.94534952581012" lon="11.376047574084815"><ele>208.5</ele><time>2026-04-25T09:54:35.917Z</time></trkpt><trkpt lat="43.94542585379187" lon="11.375892416446591"><ele>209.0</ele><time>2026-04-25T09:54:36.917Z</time></trkpt><trkpt lat="43.94549866574691" lon="11.375745012924417"><ele>209.0</ele><time>2026-04-25T09:54:37.918Z</time></trkpt><trkpt lat="43.94556223385222" lon="11.375615426423419"><ele>209.0</ele><time>2026-04-25T09:54:38.918Z</time></trkpt><trkpt lat="43.945618291476535" lon="11.375500582032615"><ele>209.0</ele><time>2026-04-25T09:54:39.919Z</time></trkpt><trkpt lat="43.94567401172921" lon="11.375386428767632"><ele>209.0</ele><time>2026-04-25T09:54:40.919Z</time></trkpt><trkpt lat="43.9457203117145" lon="11.375256332368592"><ele>209.0</ele><time>2026-04-25T09:54:41.919Z</time></trkpt><trkpt lat="43.9457982619182" lon="11.375127334859302"><ele>206.5</ele><time>2026-04-25T09:54:42.92Z</time></trkpt><trkpt lat="43.94587961459941" lon="11.374967464628462"><ele>204.0</ele><time>2026-04-25T09:54:43.92Z</time></trkpt><trkpt lat="43.94595754109721" lon="11.374804744544946"><ele>201.5</ele><time>2026-04-25T09:54:44.92Z</time></trkpt><trkpt lat="43.94603199273733" lon="11.374646542452108"><ele>199.0</ele><time>2026-04-25T09:54:45.921Z</time></trkpt><trkpt lat="43.946109905095035" lon="11.374497033128064"><ele>199.0</ele><time>2026-04-25T09:54:46.921Z</time></trkpt><trkpt lat="43.94618469126446" lon="11.374342121335657"><ele>199.0</ele><time>2026-04-25T09:54:47.921Z</time></trkpt><trkpt lat="43.946263143357235" lon="11.37418426792849"><ele>199.0</ele><time>2026-04-25T09:54:48.921Z</time></trkpt><trkpt lat="43.94634010649198" lon="11.37401530770302"><ele>199.0</ele><time>2026-04-25T09:54:49.921Z</time></trkpt><trkpt lat="43.94642029365531" lon="11.3738507057347"><ele>200.66666666666666</ele><time>2026-04-25T09:54:50.922Z</time></trkpt><trkpt lat="43.94650180817815" lon="11.373687387885774"><ele>202.33333333333331</ele><time>2026-04-25T09:54:51.922Z</time></trkpt><trkpt lat="43.946589079702655" lon="11.373514650285447"><ele>204.0</ele><time>2026-04-25T09:54:52.922Z</time></trkpt><trkpt lat="43.94668287663527" lon="11.37332548144937"><ele>203.66666666666669</ele><time>2026-04-25T09:54:53.922Z</time></trkpt><trkpt lat="43.94677646111195" lon="11.373118135825349"><ele>203.33333333333334</ele><time>2026-04-25T09:54:54.922Z</time></trkpt><trkpt lat="43.94686326007433" lon="11.372887312236866"><ele>203.0</ele><time>2026-04-25T09:54:55.922Z</time></trkpt><trkpt lat="43.946942362929576" lon="11.372636060149166"><ele>203.0</ele><time>2026-04-25T09:54:56.922Z</time></trkpt><trkpt lat="43.94701073846226" lon="11.372394425851885"><ele>203.0</ele><time>2026-04-25T09:54:57.923Z</time></trkpt><trkpt lat="43.94707665784277" lon="11.372165572455025"><ele>203.0</ele><time>2026-04-25T09:54:58.923Z</time></trkpt><trkpt lat="43.9471426389215" lon="11.371957421363712"><ele>203.0</ele><time>2026-04-25T09:54:59.923Z</time></trkpt><trkpt lat="43.94720420114522" lon="11.371752735723728"><ele>203.0</ele><time>2026-04-25T09:55:00.923Z</time></trkpt><trkpt lat="43.947267187841305" lon="11.371543526418776"><ele>203.0</ele><time>2026-04-25T09:55:01.923Z</time></trkpt><trkpt lat="43.94733523343391" lon="11.371335830587023"><ele>203.33333333333334</ele><time>2026-04-25T09:55:02.923Z</time></trkpt><trkpt lat="43.94740054016361" lon="11.371116338563656"><ele>203.66666666666669</ele><time>2026-04-25T09:55:03.923Z</time></trkpt><trkpt lat="43.94746676397249" lon="11.370895613662213"><ele>204.0</ele><time>2026-04-25T09:55:04.923Z</time></trkpt><trkpt lat="43.94753458949035" lon="11.370665021630142"><ele>200.66666666666669</ele><time>2026-04-25T09:55:05.923Z</time></trkpt><trkpt lat="43.94760653213082" lon="11.37041586987109"><ele>197.33333333333334</ele><time>2026-04-25T09:55:06.923Z</time></trkpt><trkpt lat="43.94768286592597" lon="11.370159186519386"><ele>194.0</ele><time>2026-04-25T09:55:07.923Z</time></trkpt><trkpt lat="43.947757084350236" lon="11.36990750314927"><ele>195.66666666666669</ele><time>2026-04-25T09:55:08.923Z</time></trkpt><trkpt lat="43.94782680532248" lon="11.369664900684295"><ele>197.33333333333331</ele><time>2026-04-25T09:55:09.923Z</time></trkpt><trkpt lat="43.947895142682725" lon="11.369430586704"><ele>199.0</ele><time>2026-04-25T09:55:10.924Z</time></trkpt><trkpt lat="43.94796096649176" lon="11.3692019894356"><ele>199.0</ele><time>2026-04-25T09:55:11.924Z</time></trkpt><trkpt lat="43.94802754751098" lon="11.368979122712364"><ele>199.0</ele><time>2026-04-25T09:55:12.924Z</time></trkpt><trkpt lat="43.94809425645707" lon="11.36875571616582"><ele>199.0</ele><time>2026-04-25T09:55:13.924Z</time></trkpt><trkpt lat="43.948159811922096" lon="11.368530098099972"><ele>199.66666666666666</ele><time>2026-04-25T09:55:14.924Z</time></trkpt><trkpt lat="43.948221879735435" lon="11.36831658744022"><ele>200.33333333333331</ele><time>2026-04-25T09:55:15.924Z</time></trkpt><trkpt lat="43.94828500606679" lon="11.368107836159282"><ele>201.0</ele><time>2026-04-25T09:55:16.924Z</time></trkpt><trkpt lat="43.94835385956741" lon="11.36789216156464"><ele>198.66666666666669</ele><time>2026-04-25T09:55:17.924Z</time></trkpt><trkpt lat="43.94842153751515" lon="11.36767693052692"><ele>196.33333333333334</ele><time>2026-04-25T09:55:18.924Z</time></trkpt><trkpt lat="43.94848065000021" lon="11.367467225503752"><ele>194.0</ele><time>2026-04-25T09:55:19.924Z</time></trkpt><trkpt lat="43.9485390419185" lon="11.367270149602554"><ele>194.25</ele><time>2026-04-25T09:55:20.924Z</time></trkpt><trkpt lat="43.94859129899127" lon="11.367078058130796"><ele>194.5</ele><time>2026-04-25T09:55:21.924Z</time></trkpt><trkpt lat="43.94863357189285" lon="11.36689198401967"><ele>194.75</ele><time>2026-04-25T09:55:22.924Z</time></trkpt><trkpt lat="43.948656802045996" lon="11.366688280971406"><ele>195.0</ele><time>2026-04-25T09:55:23.924Z</time></trkpt><trkpt lat="43.94865860163282" lon="11.366469084498528"><ele>196.0</ele><time>2026-04-25T09:55:24.924Z</time></trkpt><trkpt lat="43.94863313062933" lon="11.366234504538905"><ele>197.0</ele><time>2026-04-25T09:55:25.924Z</time></trkpt><trkpt lat="43.94859462240963" lon="11.365998709903465"><ele>198.0</ele><time>2026-04-25T09:55:26.924Z</time></trkpt><trkpt lat="43.9485418598759" lon="11.365769635334404"><ele>198.0</ele><time>2026-04-25T09:55:27.924Z</time></trkpt><trkpt lat="43.948485832167734" lon="11.365543271174442"><ele>198.0</ele><time>2026-04-25T09:55:28.924Z</time></trkpt><trkpt lat="43.94843101466789" lon="11.365326982076065"><ele>198.0</ele><time>2026-04-25T09:55:29.924Z</time></trkpt><trkpt lat="43.94836386657395" lon="11.36511399825195"><ele>197.66666666666669</ele><time>2026-04-25T09:55:30.924Z</time></trkpt><trkpt lat="43.94826937267284" lon="11.36489490052919"><ele>197.33333333333334</ele><time>2026-04-25T09:55:31.924Z</time></trkpt><trkpt lat="43.94817175745359" lon="11.364689969329744"><ele>197.0</ele><time>2026-04-25T09:55:32.924Z</time></trkpt><trkpt lat="43.948071270812264" lon="11.364480572371646"><ele>197.0</ele><time>2026-04-25T09:55:33.924Z</time></trkpt><trkpt lat="43.94797154857666" lon="11.364288792195422"><ele>197.0</ele><time>2026-04-25T09:55:34.924Z</time></trkpt><trkpt lat="43.94787995140729" lon="11.364102574053113"><ele>197.0</ele><time>2026-04-25T09:55:35.924Z</time></trkpt><trkpt lat="43.94776752262587" lon="11.36395135693158"><ele>197.0</ele><time>2026-04-25T09:55:36.924Z</time></trkpt><trkpt lat="43.94763867101321" lon="11.363835203285703"><ele>197.0</ele><time>2026-04-25T09:55:37.924Z</time></trkpt><trkpt lat="43.94752059560394" lon="11.36371563627406"><ele>197.0</ele><time>2026-04-25T09:55:38.924Z</time></trkpt><trkpt lat="43.947408821382936" lon="11.363595410672795"><ele>197.0</ele><time>2026-04-25T09:55:39.924Z</time></trkpt><trkpt lat="43.94731088065264" lon="11.36346937932808"><ele>197.0</ele><time>2026-04-25T09:55:40.924Z</time></trkpt><trkpt lat="43.94722029866947" lon="11.363333072627238"><ele>197.0</ele><time>2026-04-25T09:55:41.924Z</time></trkpt><trkpt lat="43.94714002126478" lon="11.363168380748075"><ele>197.0</ele><time>2026-04-25T09:55:42.924Z</time></trkpt><trkpt lat="43.94707699563427" lon="11.362972353435548"><ele>197.0</ele><time>2026-04-25T09:55:43.924Z</time></trkpt><trkpt lat="43.94704448940626" lon="11.362754671811526"><ele>197.33333333333334</ele><time>2026-04-25T09:55:44.924Z</time></trkpt><trkpt lat="43.94701413380956" lon="11.362532308989557"><ele>197.66666666666669</ele><time>2026-04-25T09:55:45.924Z</time></trkpt><trkpt lat="43.94698757766549" lon="11.362321100746106"><ele>198.0</ele><time>2026-04-25T09:55:46.924Z</time></trkpt><trkpt lat="43.946961543656315" lon="11.362119368142535"><ele>198.25</ele><time>2026-04-25T09:55:47.924Z</time></trkpt><trkpt lat="43.94693649315139" lon="11.36193896625736"><ele>198.5</ele><time>2026-04-25T09:55:48.924Z</time></trkpt><trkpt lat="43.94688698768162" lon="11.361787194420131"><ele>198.75</ele><time>2026-04-25T09:55:49.924Z</time></trkpt><trkpt lat="43.94682054088226" lon="11.361656795005077"><ele>199.0</ele><time>2026-04-25T09:55:50.924Z</time></trkpt><trkpt lat="43.94672399945517" lon="11.36155110087923"><ele>198.75</ele><time>2026-04-25T09:55:51.924Z</time></trkpt><trkpt lat="43.94661884931677" lon="11.361447608997091"><ele>198.5</ele><time>2026-04-25T09:55:52.924Z</time></trkpt><trkpt lat="43.94650326526845" lon="11.361346832001685"><ele>198.25</ele><time>2026-04-25T09:55:53.924Z</time></trkpt><trkpt lat="43.94637426988723" lon="11.361245485839728"><ele>198.0</ele><time>2026-04-25T09:55:54.924Z</time></trkpt><trkpt lat="43.94623422220393" lon="11.361150900068921"><ele>199.0</ele><time>2026-04-25T09:55:55.924Z</time></trkpt><trkpt lat="43.94609002887519" lon="11.361049109566666"><ele>200.0</ele><time>2026-04-25T09:55:56.924Z</time></trkpt><trkpt lat="43.945942047666485" lon="11.360979992049694"><ele>201.0</ele><time>2026-04-25T09:55:57.924Z</time></trkpt><trkpt lat="43.94580367647957" lon="11.360930513060122"><ele>201.5</ele><time>2026-04-25T09:55:58.924Z</time></trkpt><trkpt lat="43.945670809708304" lon="11.360896349732615"><ele>202.0</ele><time>2026-04-25T09:55:59.924Z</time></trkpt><trkpt lat="43.94553775132775" lon="11.360878348111758"><ele>202.5</ele><time>2026-04-25T09:56:00.924Z</time></trkpt><trkpt lat="43.94540660367049" lon="11.360880898877367"><ele>203.0</ele><time>2026-04-25T09:56:01.924Z</time></trkpt><trkpt lat="43.945279981109465" lon="11.360909551480809"><ele>203.0</ele><time>2026-04-25T09:56:02.924Z</time></trkpt><trkpt lat="43.94515666695783" lon="11.360932597609823"><ele>203.0</ele><time>2026-04-25T09:56:03.924Z</time></trkpt><trkpt lat="43.94504993355629" lon="11.360954600632546"><ele>203.0</ele><time>2026-04-25T09:56:04.924Z</time></trkpt><trkpt lat="43.944950820284554" lon="11.360963591836073"><ele>203.0</ele><time>2026-04-25T09:56:05.924Z</time></trkpt><trkpt lat="43.94486524226546" lon="11.360940565997831"><ele>203.0</ele><time>2026-04-25T09:56:06.924Z</time></trkpt><trkpt lat="43.94479580601258" lon="11.360894850012022"><ele>203.42857142857142</ele><time>2026-04-25T09:56:07.924Z</time></trkpt><trkpt lat="43.94473683971634" lon="11.36083176358219"><ele>203.85714285714286</ele><time>2026-04-25T09:56:08.924Z</time></trkpt><trkpt lat="43.944713959268284" lon="11.36071762189007"><ele>204.28571428571428</ele><time>2026-04-25T09:56:09.924Z</time></trkpt><trkpt lat="43.94468563340048" lon="11.360619324317819"><ele>204.71428571428572</ele><time>2026-04-25T09:56:10.924Z</time></trkpt><trkpt lat="43.94465200215531" lon="11.360524878053088"><ele>205.14285714285714</ele><time>2026-04-25T09:56:11.924Z</time></trkpt><trkpt lat="43.9446696519155" lon="11.360430657995847"><ele>205.57142857142856</ele><time>2026-04-25T09:56:12.924Z</time></trkpt><trkpt lat="43.944713982562845" lon="11.360365237381997"><ele>206.0</ele><time>2026-04-25T09:56:13.924Z</time></trkpt><trkpt lat="43.944787378595485" lon="11.360312786075788"><ele>206.5</ele><time>2026-04-25T09:56:14.924Z</time></trkpt><trkpt lat="43.94490106398663" lon="11.360271784082496"><ele>207.0</ele><time>2026-04-25T09:56:15.924Z</time></trkpt><trkpt lat="43.94502821328198" lon="11.360228186930469"><ele>207.5</ele><time>2026-04-25T09:56:16.924Z</time></trkpt><trkpt lat="43.94517183246551" lon="11.360156025517691"><ele>208.0</ele><time>2026-04-25T09:56:17.924Z</time></trkpt><trkpt lat="43.94531347923323" lon="11.360045159550772"><ele>208.0</ele><time>2026-04-25T09:56:18.924Z</time></trkpt><trkpt lat="43.94542460392923" lon="11.359924541816795"><ele>208.0</ele><time>2026-04-25T09:56:19.924Z</time></trkpt><trkpt lat="43.94551835506914" lon="11.359812629866308"><ele>208.0</ele><time>2026-04-25T09:56:20.924Z</time></trkpt><trkpt lat="43.945607094142346" lon="11.359706369100472"><ele>208.0</ele><time>2026-04-25T09:56:21.924Z</time></trkpt><trkpt lat="43.94569722351196" lon="11.359611352175477"><ele>207.4</ele><time>2026-04-25T09:56:22.924Z</time></trkpt><trkpt lat="43.94579444115331" lon="11.359548366005766"><ele>206.8</ele><time>2026-04-25T09:56:23.924Z</time></trkpt><trkpt lat="43.945879663159815" lon="11.359466864949193"><ele>206.2</ele><time>2026-04-25T09:56:24.924Z</time></trkpt><trkpt lat="43.94597615171193" lon="11.359435631834835"><ele>205.6</ele><time>2026-04-25T09:56:25.924Z</time></trkpt><trkpt lat="43.946068399647224" lon="11.359435569008033"><ele>205.0</ele><time>2026-04-25T09:56:26.924Z</time></trkpt><trkpt lat="43.94616339241303" lon="11.359427268805412"><ele>205.0</ele><time>2026-04-25T09:56:27.924Z</time></trkpt><trkpt lat="43.946237725000046" lon="11.359388512409357"><ele>205.0</ele><time>2026-04-25T09:56:28.923Z</time></trkpt><trkpt lat="43.946305272740986" lon="11.359314338603465"><ele>205.0</ele><time>2026-04-25T09:56:29.923Z</time></trkpt><trkpt lat="43.94634079328714" lon="11.35919651331163"><ele>205.0</ele><time>2026-04-25T09:56:30.923Z</time></trkpt><trkpt lat="43.946379350552974" lon="11.359076644703022"><ele>205.0</ele><time>2026-04-25T09:56:31.923Z</time></trkpt><trkpt lat="43.94633558445216" lon="11.358931174288864"><ele>204.75</ele><time>2026-04-25T09:56:32.923Z</time></trkpt><trkpt lat="43.94629556825888" lon="11.358771875703667"><ele>204.5</ele><time>2026-04-25T09:56:33.923Z</time></trkpt><trkpt lat="43.94626191309709" lon="11.358592595080404"><ele>204.25</ele><time>2026-04-25T09:56:34.923Z</time></trkpt><trkpt lat="43.94622232785374" lon="11.35838115440366"><ele>204.0</ele><time>2026-04-25T09:56:35.923Z</time></trkpt><trkpt lat="43.946188855452355" lon="11.358153553819838"><ele>203.0</ele><time>2026-04-25T09:56:36.923Z</time></trkpt><trkpt lat="43.94614248358779" lon="11.35790459645239"><ele>202.0</ele><time>2026-04-25T09:56:37.923Z</time></trkpt><trkpt lat="43.946102416472456" lon="11.357665993493848"><ele>201.0</ele><time>2026-04-25T09:56:38.923Z</time></trkpt><trkpt lat="43.94607933803808" lon="11.35744021714767"><ele>201.0</ele><time>2026-04-25T09:56:39.923Z</time></trkpt><trkpt lat="43.946066713861526" lon="11.357215130595787"><ele>201.0</ele><time>2026-04-25T09:56:40.923Z</time></trkpt><trkpt lat="43.94607104877048" lon="11.356962042180331"><ele>201.0</ele><time>2026-04-25T09:56:41.923Z</time></trkpt><trkpt lat="43.94610409611405" lon="11.356695081724746"><ele>200.33333333333331</ele><time>2026-04-25T09:56:42.923Z</time></trkpt><trkpt lat="43.94612833138684" lon="11.356399306136804"><ele>199.66666666666666</ele><time>2026-04-25T09:56:43.923Z</time></trkpt><trkpt lat="43.94615101437684" lon="11.356119716413144"><ele>199.0</ele><time>2026-04-25T09:56:44.923Z</time></trkpt><trkpt lat="43.94616076874111" lon="11.355832868921121"><ele>198.66666666666666</ele><time>2026-04-25T09:56:45.923Z</time></trkpt><trkpt lat="43.94618428613583" lon="11.355549117270455"><ele>198.33333333333331</ele><time>2026-04-25T09:56:46.923Z</time></trkpt><trkpt lat="43.94620667253122" lon="11.355259425958886"><ele>198.0</ele><time>2026-04-25T09:56:47.923Z</time></trkpt><trkpt lat="43.94622725926655" lon="11.354971830987896"><ele>198.33333333333331</ele><time>2026-04-25T09:56:48.923Z</time></trkpt><trkpt lat="43.94626710249789" lon="11.354690276618458"><ele>198.66666666666666</ele><time>2026-04-25T09:56:49.923Z</time></trkpt><trkpt lat="43.94627956147676" lon="11.354400842565958"><ele>199.0</ele><time>2026-04-25T09:56:50.923Z</time></trkpt><trkpt lat="43.94631577289475" lon="11.354113931104742"><ele>200.33333333333331</ele><time>2026-04-25T09:56:51.923Z</time></trkpt><trkpt lat="43.946351416905735" lon="11.35382641398159"><ele>201.66666666666669</ele><time>2026-04-25T09:56:52.923Z</time></trkpt><trkpt lat="43.94639242132441" lon="11.353537804048452"><ele>203.0</ele><time>2026-04-25T09:56:53.923Z</time></trkpt><trkpt lat="43.94643922368347" lon="11.353256945420576"><ele>203.66666666666669</ele><time>2026-04-25T09:56:54.923Z</time></trkpt><trkpt lat="43.9464844074123" lon="11.352977237401689"><ele>204.33333333333331</ele><time>2026-04-25T09:56:55.923Z</time></trkpt><trkpt lat="43.94652053395818" lon="11.352694320732548"><ele>205.0</ele><time>2026-04-25T09:56:56.923Z</time></trkpt><trkpt lat="43.94656737283926" lon="11.352403556584102"><ele>205.33333333333331</ele><time>2026-04-25T09:56:57.923Z</time></trkpt><trkpt lat="43.94661496541944" lon="11.352111043787078"><ele>205.66666666666669</ele><time>2026-04-25T09:56:58.923Z</time></trkpt><trkpt lat="43.94667944599475" lon="11.351818023061242"><ele>206.0</ele><time>2026-04-25T09:56:59.923Z</time></trkpt><trkpt lat="43.94673192922549" lon="11.351503185286328"><ele>206.0</ele><time>2026-04-25T09:57:00.923Z</time></trkpt><trkpt lat="43.94678360654658" lon="11.351193181875201"><ele>206.0</ele><time>2026-04-25T09:57:01.923Z</time></trkpt><trkpt lat="43.946836773165366" lon="11.350874244234431"><ele>206.0</ele><time>2026-04-25T09:57:02.923Z</time></trkpt><trkpt lat="43.94688740596322" lon="11.35057106871719"><ele>206.0</ele><time>2026-04-25T09:57:03.923Z</time></trkpt><trkpt lat="43.94693701401587" lon="11.350275078865502"><ele>206.0</ele><time>2026-04-25T09:57:04.923Z</time></trkpt><trkpt lat="43.94697699951611" lon="11.34996898769164"><ele>207.33333333333334</ele><time>2026-04-25T09:57:05.923Z</time></trkpt><trkpt lat="43.947026859442" lon="11.34967201513741"><ele>208.66666666666669</ele><time>2026-04-25T09:57:06.923Z</time></trkpt><trkpt lat="43.94707615952667" lon="11.34938192040848"><ele>210.0</ele><time>2026-04-25T09:57:07.923Z</time></trkpt><trkpt lat="43.94712260579029" lon="11.34908912963867"><ele>210.66666666666669</ele><time>2026-04-25T09:57:08.923Z</time></trkpt><trkpt lat="43.947177870938305" lon="11.34880127902248"><ele>211.33333333333334</ele><time>2026-04-25T09:57:09.923Z</time></trkpt><trkpt lat="43.947222438790526" lon="11.348516456444917"><ele>212.0</ele><time>2026-04-25T09:57:10.923Z</time></trkpt><trkpt lat="43.947269630760616" lon="11.348237990904103"><ele>213.33333333333334</ele><time>2026-04-25T09:57:11.923Z</time></trkpt><trkpt lat="43.94731699308949" lon="11.347964702875917"><ele>214.66666666666669</ele><time>2026-04-25T09:57:12.923Z</time></trkpt><trkpt lat="43.947360327416256" lon="11.34769785645497"><ele>216.0</ele><time>2026-04-25T09:57:13.923Z</time></trkpt><trkpt lat="43.947406288476934" lon="11.347442521722725"><ele>217.66666666666669</ele><time>2026-04-25T09:57:14.923Z</time></trkpt><trkpt lat="43.94744598078539" lon="11.34720405475167"><ele>219.33333333333334</ele><time>2026-04-25T09:57:15.923Z</time></trkpt><trkpt lat="43.94748521675243" lon="11.346977886841662"><ele>221.0</ele><time>2026-04-25T09:57:16.923Z</time></trkpt><trkpt lat="43.947526689053255" lon="11.34676074739738"><ele>219.75</ele><time>2026-04-25T09:57:17.923Z</time></trkpt><trkpt lat="43.947562250205664" lon="11.34655585790192"><ele>218.5</ele><time>2026-04-25T09:57:18.923Z</time></trkpt><trkpt lat="43.94760157399056" lon="11.346360315864866"><ele>217.25</ele><time>2026-04-25T09:57:19.923Z</time></trkpt><trkpt lat="43.94764288274365" lon="11.346172293472383"><ele>216.0</ele><time>2026-04-25T09:57:20.923Z</time></trkpt><trkpt lat="43.94768768677978" lon="11.34598357909295"><ele>216.0</ele><time>2026-04-25T09:57:21.923Z</time></trkpt><trkpt lat="43.947744127427" lon="11.34580441861036"><ele>216.0</ele><time>2026-04-25T09:57:22.923Z</time></trkpt><trkpt lat="43.947808469803554" lon="11.345622511763516"><ele>216.0</ele><time>2026-04-25T09:57:23.923Z</time></trkpt><trkpt lat="43.947886444427" lon="11.345440281436229"><ele>216.0</ele><time>2026-04-25T09:57:24.923Z</time></trkpt><trkpt lat="43.947976571239685" lon="11.345253744948359"><ele>216.33333333333331</ele><time>2026-04-25T09:57:25.923Z</time></trkpt><trkpt lat="43.94807739153503" lon="11.345068378537038"><ele>216.66666666666666</ele><time>2026-04-25T09:57:26.923Z</time></trkpt><trkpt lat="43.94820373296895" lon="11.344875845438525"><ele>217.0</ele><time>2026-04-25T09:57:27.923Z</time></trkpt><trkpt lat="43.94833159678319" lon="11.34468378867964"><ele>216.33333333333331</ele><time>2026-04-25T09:57:28.923Z</time></trkpt><trkpt lat="43.94846825637625" lon="11.344490456419152"><ele>215.66666666666669</ele><time>2026-04-25T09:57:29.923Z</time></trkpt><trkpt lat="43.94860165221267" lon="11.344291375376509"><ele>215.0</ele><time>2026-04-25T09:57:30.923Z</time></trkpt><trkpt lat="43.948746053224006" lon="11.34411254554874"><ele>215.0</ele><time>2026-04-25T09:57:31.923Z</time></trkpt><trkpt lat="43.94887199834709" lon="11.343920208581856"><ele>215.0</ele><time>2026-04-25T09:57:32.923Z</time></trkpt><trkpt lat="43.9489875101683" lon="11.343715036422763"><ele>215.0</ele><time>2026-04-25T09:57:33.923Z</time></trkpt><trkpt lat="43.94909409897552" lon="11.343500809664219"><ele>215.33333333333334</ele><time>2026-04-25T09:57:34.923Z</time></trkpt><trkpt lat="43.94918705380829" lon="11.343274240363078"><ele>215.66666666666669</ele><time>2026-04-25T09:57:35.923Z</time></trkpt><trkpt lat="43.94927219645752" lon="11.343041168159965"><ele>216.0</ele><time>2026-04-25T09:57:36.923Z</time></trkpt><trkpt lat="43.949341515274305" lon="11.34280770517708"><ele>216.0</ele><time>2026-04-25T09:57:37.923Z</time></trkpt><trkpt lat="43.9494011887902" lon="11.342567859128806"><ele>216.0</ele><time>2026-04-25T09:57:38.923Z</time></trkpt><trkpt lat="43.94945417067761" lon="11.342339931075191"><ele>216.0</ele><time>2026-04-25T09:57:39.923Z</time></trkpt><trkpt lat="43.94950554098462" lon="11.3421104899083"><ele>215.66666666666669</ele><time>2026-04-25T09:57:40.923Z</time></trkpt><trkpt lat="43.94955408058298" lon="11.34188158263505"><ele>215.33333333333334</ele><time>2026-04-25T09:57:41.923Z</time></trkpt><trkpt lat="43.94961496820864" lon="11.341661725253879"><ele>215.0</ele><time>2026-04-25T09:57:42.923Z</time></trkpt><trkpt lat="43.94968072051181" lon="11.34144721128969"><ele>213.33333333333334</ele><time>2026-04-25T09:57:43.923Z</time></trkpt><trkpt lat="43.949752877897154" lon="11.3412401021385"><ele>211.66666666666669</ele><time>2026-04-25T09:57:44.923Z</time></trkpt><trkpt lat="43.94984247784233" lon="11.34103147473735"><ele>210.0</ele><time>2026-04-25T09:57:45.923Z</time></trkpt><trkpt lat="43.94994566695448" lon="11.340828733040668"><ele>210.0</ele><time>2026-04-25T09:57:46.923Z</time></trkpt><trkpt lat="43.95006807376942" lon="11.340622157357604"><ele>210.0</ele><time>2026-04-25T09:57:47.923Z</time></trkpt><trkpt lat="43.95020727965842" lon="11.340414125541662"><ele>210.0</ele><time>2026-04-25T09:57:48.923Z</time></trkpt><trkpt lat="43.95036390695142" lon="11.340205966181083"><ele>209.66666666666669</ele><time>2026-04-25T09:57:49.923Z</time></trkpt><trkpt lat="43.950528772969065" lon="11.33999494837057"><ele>209.33333333333334</ele><time>2026-04-25T09:57:50.923Z</time></trkpt><trkpt lat="43.9506928844282" lon="11.339783584170707"><ele>209.0</ele><time>2026-04-25T09:57:51.923Z</time></trkpt><trkpt lat="43.95084834775274" lon="11.339591516290145"><ele>211.0</ele><time>2026-04-25T09:57:52.923Z</time></trkpt><trkpt lat="43.95098344573739" lon="11.33939262858226"><ele>213.0</ele><time>2026-04-25T09:57:53.923Z</time></trkpt><trkpt lat="43.951107584069014" lon="11.339185687864648"><ele>215.0</ele><time>2026-04-25T09:57:54.923Z</time></trkpt><trkpt lat="43.95122112761469" lon="11.338967873665908"><ele>214.66666666666669</ele><time>2026-04-25T09:57:55.923Z</time></trkpt><trkpt lat="43.951324850066484" lon="11.338749652939761"><ele>214.33333333333331</ele><time>2026-04-25T09:57:56.923Z</time></trkpt><trkpt lat="43.95143888921059" lon="11.338540360493587"><ele>214.0</ele><time>2026-04-25T09:57:57.923Z</time></trkpt><trkpt lat="43.95153853792355" lon="11.338315080767895"><ele>214.0</ele><time>2026-04-25T09:57:58.923Z</time></trkpt><trkpt lat="43.95162633649425" lon="11.338073842708406"><ele>214.0</ele><time>2026-04-25T09:57:59.923Z</time></trkpt><trkpt lat="43.95173275387019" lon="11.337846098299343"><ele>214.0</ele><time>2026-04-25T09:58:00.923Z</time></trkpt><trkpt lat="43.951837848597215" lon="11.337616951781433"><ele>213.66666666666666</ele><time>2026-04-25T09:58:01.923Z</time></trkpt><trkpt lat="43.95193915023735" lon="11.337381709858834"><ele>213.33333333333331</ele><time>2026-04-25T09:58:02.923Z</time></trkpt><trkpt lat="43.95204122661106" lon="11.337146239427488"><ele>213.0</ele><time>2026-04-25T09:58:03.923Z</time></trkpt><trkpt lat="43.952144901387" lon="11.336911136011123"><ele>213.0</ele><time>2026-04-25T09:58:04.923Z</time></trkpt><trkpt lat="43.95226387422409" lon="11.336692112887237"><ele>213.0</ele><time>2026-04-25T09:58:05.923Z</time></trkpt><trkpt lat="43.95236618925467" lon="11.336457379241535"><ele>213.0</ele><time>2026-04-25T09:58:06.923Z</time></trkpt><trkpt lat="43.95247009999158" lon="11.336224340232885"><ele>212.66666666666669</ele><time>2026-04-25T09:58:07.923Z</time></trkpt><trkpt lat="43.952571471171865" lon="11.335992478379918"><ele>212.33333333333334</ele><time>2026-04-25T09:58:08.923Z</time></trkpt><trkpt lat="43.952664567981245" lon="11.335754035864662"><ele>212.0</ele><time>2026-04-25T09:58:09.923Z</time></trkpt><trkpt lat="43.952756035395474" lon="11.33551253580668"><ele>212.0</ele><time>2026-04-25T09:58:10.923Z</time></trkpt><trkpt lat="43.95284754101501" lon="11.335272174371935"><ele>212.0</ele><time>2026-04-25T09:58:11.923Z</time></trkpt><trkpt lat="43.952928745644826" lon="11.33502588072325"><ele>212.0</ele><time>2026-04-25T09:58:12.923Z</time></trkpt><trkpt lat="43.95300474169993" lon="11.3347720596154"><ele>211.33333333333334</ele><time>2026-04-25T09:58:13.923Z</time></trkpt><trkpt lat="43.95308086057609" lon="11.334497991576145"><ele>210.66666666666669</ele><time>2026-04-25T09:58:14.923Z</time></trkpt><trkpt lat="43.95315743600118" lon="11.334212245589413"><ele>210.0</ele><time>2026-04-25T09:58:15.923Z</time></trkpt><trkpt lat="43.95323603577021" lon="11.333919452769187"><ele>209.66666666666669</ele><time>2026-04-25T09:58:16.923Z</time></trkpt><trkpt lat="43.95331554335731" lon="11.333626053142678"><ele>209.33333333333334</ele><time>2026-04-25T09:58:17.923Z</time></trkpt><trkpt lat="43.95339402586895" lon="11.333344013885046"><ele>209.0</ele><time>2026-04-25T09:58:18.923Z</time></trkpt><trkpt lat="43.95346902333628" lon="11.33306705097416"><ele>207.66666666666669</ele><time>2026-04-25T09:58:19.923Z</time></trkpt><trkpt lat="43.95354006901833" lon="11.332796593623693"><ele>206.33333333333331</ele><time>2026-04-25T09:58:20.923Z</time></trkpt><trkpt lat="43.95361477894174" lon="11.33252329817499"><ele>205.0</ele><time>2026-04-25T09:58:21.923Z</time></trkpt><trkpt lat="43.95370530635576" lon="11.332251649199247"><ele>204.66666666666666</ele><time>2026-04-25T09:58:22.923Z</time></trkpt><trkpt lat="43.953805137851276" lon="11.331988273438334"><ele>204.33333333333331</ele><time>2026-04-25T09:58:23.923Z</time></trkpt><trkpt lat="43.953928386147645" lon="11.331725585404643"><ele>204.0</ele><time>2026-04-25T09:58:24.923Z</time></trkpt><trkpt lat="43.954065380976814" lon="11.331474899929725"><ele>202.0</ele><time>2026-04-25T09:58:25.923Z</time></trkpt><trkpt lat="43.95421051349651" lon="11.331231516007074"><ele>200.0</ele><time>2026-04-25T09:58:26.923Z</time></trkpt><trkpt lat="43.95435542391987" lon="11.33098799704038"><ele>200.0</ele><time>2026-04-25T09:58:27.923Z</time></trkpt><trkpt lat="43.954496522962046" lon="11.330749133723192"><ele>200.0</ele><time>2026-04-25T09:58:28.923Z</time></trkpt><trkpt lat="43.954629302881585" lon="11.330523105388304"><ele>200.0</ele><time>2026-04-25T09:58:29.923Z</time></trkpt><trkpt lat="43.954755737738815" lon="11.330313618988713"><ele>201.33333333333334</ele><time>2026-04-25T09:58:30.923Z</time></trkpt><trkpt lat="43.95487355457586" lon="11.330110327880435"><ele>202.66666666666669</ele><time>2026-04-25T09:58:31.923Z</time></trkpt><trkpt lat="43.954989540092775" lon="11.329902582695151"><ele>204.0</ele><time>2026-04-25T09:58:32.923Z</time></trkpt><trkpt lat="43.955099180280534" lon="11.32967776833339"><ele>204.0</ele><time>2026-04-25T09:58:33.923Z</time></trkpt><trkpt lat="43.95519361204956" lon="11.32943991665317"><ele>204.0</ele><time>2026-04-25T09:58:34.922Z</time></trkpt><trkpt lat="43.9552724557311" lon="11.3291737925496"><ele>204.0</ele><time>2026-04-25T09:58:35.922Z</time></trkpt><trkpt lat="43.95534980474845" lon="11.328924551357957"><ele>205.0</ele><time>2026-04-25T09:58:36.922Z</time></trkpt><trkpt lat="43.95542558880744" lon="11.328669486375622"><ele>206.0</ele><time>2026-04-25T09:58:37.922Z</time></trkpt><trkpt lat="43.955506913231986" lon="11.328417360902655"><ele>207.0</ele><time>2026-04-25T09:58:38.922Z</time></trkpt><trkpt lat="43.95558656788522" lon="11.32817710927217"><ele>207.66666666666669</ele><time>2026-04-25T09:58:39.922Z</time></trkpt><trkpt lat="43.95565700865724" lon="11.327949228410198"><ele>208.33333333333334</ele><time>2026-04-25T09:58:40.922Z</time></trkpt><trkpt lat="43.955721716464986" lon="11.327721542989211"><ele>209.0</ele><time>2026-04-25T09:58:41.922Z</time></trkpt><trkpt lat="43.95577704912297" lon="11.327486785934191"><ele>209.0</ele><time>2026-04-25T09:58:42.922Z</time></trkpt><trkpt lat="43.955858471348186" lon="11.32726277329106"><ele>209.0</ele><time>2026-04-25T09:58:43.922Z</time></trkpt><trkpt lat="43.955866645070685" lon="11.326991413087075"><ele>209.0</ele><time>2026-04-25T09:58:44.922Z</time></trkpt><trkpt lat="43.95588638420991" lon="11.326725782954679"><ele>209.66666666666669</ele><time>2026-04-25T09:58:45.922Z</time></trkpt><trkpt lat="43.955887384176236" lon="11.32644272156004"><ele>210.33333333333331</ele><time>2026-04-25T09:58:46.921Z</time></trkpt><trkpt lat="43.95586903840607" lon="11.32614920526197"><ele>211.0</ele><time>2026-04-25T09:58:47.921Z</time></trkpt><trkpt lat="43.95583788141604" lon="11.325843080353206"><ele>214.0</ele><time>2026-04-25T09:58:48.921Z</time></trkpt><trkpt lat="43.95579985116543" lon="11.325534836150126"><ele>217.0</ele><time>2026-04-25T09:58:49.921Z</time></trkpt><trkpt lat="43.955766215091174" lon="11.325240047952242"><ele>220.0</ele><time>2026-04-25T09:58:50.921Z</time></trkpt><trkpt lat="43.95572997143723" lon="11.324963410945125"><ele>221.0</ele><time>2026-04-25T09:58:51.921Z</time></trkpt><trkpt lat="43.95569219786846" lon="11.324690480959784"><ele>222.0</ele><time>2026-04-25T09:58:52.921Z</time></trkpt><trkpt lat="43.955657548152" lon="11.324422259796565"><ele>223.0</ele><time>2026-04-25T09:58:53.921Z</time></trkpt><trkpt lat="43.95562491833521" lon="11.324169924248068"><ele>223.0</ele><time>2026-04-25T09:58:54.921Z</time></trkpt><trkpt lat="43.95559226371984" lon="11.323928902341521"><ele>223.0</ele><time>2026-04-25T09:58:55.921Z</time></trkpt><trkpt lat="43.95556846698589" lon="11.323695017219935"><ele>223.0</ele><time>2026-04-25T09:58:56.921Z</time></trkpt><trkpt lat="43.95555598615845" lon="11.323455544263583"><ele>224.33333333333331</ele><time>2026-04-25T09:58:57.921Z</time></trkpt><trkpt lat="43.95555559536712" lon="11.323199868685812"><ele>225.66666666666669</ele><time>2026-04-25T09:58:58.921Z</time></trkpt><trkpt lat="43.95557730446408" lon="11.322938344381592"><ele>227.0</ele><time>2026-04-25T09:58:59.921Z</time></trkpt><trkpt lat="43.95561363904611" lon="11.322670558471387"><ele>227.33333333333334</ele><time>2026-04-25T09:59:00.921Z</time></trkpt><trkpt lat="43.95565530420779" lon="11.322389162492177"><ele>227.66666666666669</ele><time>2026-04-25T09:59:01.921Z</time></trkpt><trkpt lat="43.95570050219182" lon="11.322092888622938"><ele>228.0</ele><time>2026-04-25T09:59:02.921Z</time></trkpt><trkpt lat="43.955750476173165" lon="11.321789772326134"><ele>226.5</ele><time>2026-04-25T09:59:03.921Z</time></trkpt><trkpt lat="43.95579805967219" lon="11.32147890993624"><ele>225.0</ele><time>2026-04-25T09:59:04.921Z</time></trkpt><trkpt lat="43.95584512238871" lon="11.3211636222507"><ele>218.5</ele><time>2026-04-25T09:59:05.921Z</time></trkpt><trkpt lat="43.9558941095259" lon="11.3208517093139"><ele>212.0</ele><time>2026-04-25T09:59:06.921Z</time></trkpt><trkpt lat="43.955941524891834" lon="11.320550631988347"><ele>212.0</ele><time>2026-04-25T09:59:07.921Z</time></trkpt><trkpt lat="43.9559877932466" lon="11.320261346219208"><ele>212.0</ele><time>2026-04-25T09:59:08.921Z</time></trkpt><trkpt lat="43.95602958029594" lon="11.319987635670444"><ele>212.0</ele><time>2026-04-25T09:59:09.921Z</time></trkpt><trkpt lat="43.956070956718996" lon="11.319727428732701"><ele>213.66666666666669</ele><time>2026-04-25T09:59:10.921Z</time></trkpt><trkpt lat="43.956108518904756" lon="11.319479864082853"><ele>215.33333333333331</ele><time>2026-04-25T09:59:11.921Z</time></trkpt><trkpt lat="43.95615089587717" lon="11.319238701120518"><ele>217.0</ele><time>2026-04-25T09:59:12.921Z</time></trkpt><trkpt lat="43.956180634969584" lon="11.318990635027431"><ele>217.33333333333331</ele><time>2026-04-25T09:59:13.921Z</time></trkpt><trkpt lat="43.95620703956699" lon="11.318737708439029"><ele>217.66666666666669</ele><time>2026-04-25T09:59:14.921Z</time></trkpt><trkpt lat="43.95622259793447" lon="11.318480947956418"><ele>218.0</ele><time>2026-04-25T09:59:15.921Z</time></trkpt><trkpt lat="43.95621775657827" lon="11.318217872533234"><ele>218.0</ele><time>2026-04-25T09:59:16.921Z</time></trkpt><trkpt lat="43.95619577833997" lon="11.317960276206941"><ele>218.0</ele><time>2026-04-25T09:59:17.921Z</time></trkpt><trkpt lat="43.956149130398124" lon="11.317709804179552"><ele>218.0</ele><time>2026-04-25T09:59:18.921Z</time></trkpt><trkpt lat="43.9560830766108" lon="11.317473627556577"><ele>218.0</ele><time>2026-04-25T09:59:19.921Z</time></trkpt><trkpt lat="43.95599857438567" lon="11.317264189407494"><ele>218.0</ele><time>2026-04-25T09:59:20.921Z</time></trkpt><trkpt lat="43.95590298945453" lon="11.317061641115544"><ele>218.0</ele><time>2026-04-25T09:59:21.921Z</time></trkpt><trkpt lat="43.9557939071043" lon="11.316879764059342"><ele>222.66666666666669</ele><time>2026-04-25T09:59:22.921Z</time></trkpt><trkpt lat="43.955668805607786" lon="11.316712893182574"><ele>227.33333333333331</ele><time>2026-04-25T09:59:23.921Z</time></trkpt><trkpt lat="43.95552997782969" lon="11.31654490587491"><ele>232.0</ele><time>2026-04-25T09:59:24.921Z</time></trkpt><trkpt lat="43.955376850083724" lon="11.316368323860916"><ele>232.66666666666666</ele><time>2026-04-25T09:59:25.921Z</time></trkpt><trkpt lat="43.95521870729401" lon="11.316187180525517"><ele>233.33333333333331</ele><time>2026-04-25T09:59:26.921Z</time></trkpt><trkpt lat="43.9550497379597" lon="11.315996149016062"><ele>234.0</ele><time>2026-04-25T09:59:27.921Z</time></trkpt><trkpt lat="43.9548778617577" lon="11.315811946641036"><ele>234.0</ele><time>2026-04-25T09:59:28.921Z</time></trkpt><trkpt lat="43.95469383710831" lon="11.315613026055518"><ele>234.0</ele><time>2026-04-25T09:59:29.921Z</time></trkpt><trkpt lat="43.95451942722252" lon="11.315420892166431"><ele>234.0</ele><time>2026-04-25T09:59:30.921Z</time></trkpt><trkpt lat="43.95435361065077" lon="11.315238241600543"><ele>234.0</ele><time>2026-04-25T09:59:31.921Z</time></trkpt><trkpt lat="43.954171231889895" lon="11.315033947725198"><ele>234.0</ele><time>2026-04-25T09:59:33.059Z</time></trkpt><trkpt lat="43.954009955700855" lon="11.314852039553449"><ele>227.0</ele><time>2026-04-25T09:59:34.058Z</time></trkpt><trkpt lat="43.95373812878257" lon="11.31456180010849"><ele>220.0</ele><time>2026-04-25T09:59:35.921Z</time></trkpt><trkpt lat="43.95360279028243" lon="11.31439534985912"><ele>220.0</ele><time>2026-04-25T09:59:36.921Z</time></trkpt><trkpt lat="43.953471637774655" lon="11.314255565840206"><ele>220.0</ele><time>2026-04-25T09:59:37.921Z</time></trkpt><trkpt lat="43.95334322724841" lon="11.314101438163764"><ele>220.0</ele><time>2026-04-25T09:59:38.921Z</time></trkpt><trkpt lat="43.9532368313248" lon="11.313925421873796"><ele>219.33333333333331</ele><time>2026-04-25T09:59:39.921Z</time></trkpt><trkpt lat="43.9531348330447" lon="11.313729502902286"><ele>218.66666666666669</ele><time>2026-04-25T09:59:40.921Z</time></trkpt><trkpt lat="43.95305125634347" lon="11.313522593770408"><ele>218.0</ele><time>2026-04-25T09:59:41.921Z</time></trkpt><trkpt lat="43.95298242160856" lon="11.313293447891832"><ele>218.33333333333334</ele><time>2026-04-25T09:59:42.921Z</time></trkpt><trkpt lat="43.95293356443214" lon="11.313068183474702"><ele>218.66666666666669</ele><time>2026-04-25T09:59:43.921Z</time></trkpt><trkpt lat="43.952896410289746" lon="11.312853539509463"><ele>219.0</ele><time>2026-04-25T09:59:44.921Z</time></trkpt><trkpt lat="43.95285798727388" lon="11.31265025245997"><ele>219.0</ele><time>2026-04-25T09:59:45.921Z</time></trkpt><trkpt lat="43.952821640451454" lon="11.312469076941019"><ele>219.0</ele><time>2026-04-25T09:59:46.921Z</time></trkpt><trkpt lat="43.95279118272507" lon="11.312302652753932"><ele>219.0</ele><time>2026-04-25T09:59:47.921Z</time></trkpt><trkpt lat="43.95276068081137" lon="11.312137309649867"><ele>219.0</ele><time>2026-04-25T09:59:48.921Z</time></trkpt><trkpt lat="43.952734269197336" lon="11.311981351643178"><ele>220.0</ele><time>2026-04-25T09:59:49.921Z</time></trkpt><trkpt lat="43.952710967817424" lon="11.311839115259826"><ele>220.99999999999997</ele><time>2026-04-25T09:59:50.921Z</time></trkpt><trkpt lat="43.95269890841169" lon="11.311716627054947"><ele>221.99999999999997</ele><time>2026-04-25T09:59:51.921Z</time></trkpt><trkpt lat="43.952710344446395" lon="11.311591868171208"><ele>223.0</ele><time>2026-04-25T09:59:52.921Z</time></trkpt><trkpt lat="43.952746195050196" lon="11.311470673634652"><ele>224.0</ele><time>2026-04-25T09:59:53.921Z</time></trkpt><trkpt lat="43.95278024317739" lon="11.311351703349796"><ele>225.0</ele><time>2026-04-25T09:59:54.921Z</time></trkpt><trkpt lat="43.95278210574041" lon="11.311223536434403"><ele>225.99999999999997</ele><time>2026-04-25T09:59:55.921Z</time></trkpt><trkpt lat="43.95275677165297" lon="11.311100429078625"><ele>226.99999999999997</ele><time>2026-04-25T09:59:56.921Z</time></trkpt><trkpt lat="43.95270755168782" lon="11.310974370803358"><ele>228.0</ele><time>2026-04-25T09:59:57.921Z</time></trkpt><trkpt lat="43.95262878785192" lon="11.310869578776781"><ele>229.0</ele><time>2026-04-25T09:59:58.921Z</time></trkpt><trkpt lat="43.952550925480516" lon="11.310746083100451"><ele>229.0</ele><time>2026-04-25T09:59:59.921Z</time></trkpt><trkpt lat="43.95248812340334" lon="11.310579672032404"><ele>229.0</ele><time>2026-04-25T10:00:00.921Z</time></trkpt><trkpt lat="43.95244018447875" lon="11.310387053504659"><ele>229.0</ele><time>2026-04-25T10:00:01.921Z</time></trkpt><trkpt lat="43.95240620090616" lon="11.310161367246105"><ele>229.0</ele><time>2026-04-25T10:00:02.921Z</time></trkpt><trkpt lat="43.952369186309134" lon="11.309913308318281"><ele>231.66666666666666</ele><time>2026-04-25T10:00:03.921Z</time></trkpt><trkpt lat="43.95232352142797" lon="11.309649202892658"><ele>234.33333333333331</ele><time>2026-04-25T10:00:04.921Z</time></trkpt><trkpt lat="43.95227774564089" lon="11.309372832712294"><ele>237.0</ele><time>2026-04-25T10:00:05.921Z</time></trkpt><trkpt lat="43.95222987426344" lon="11.309103519938205"><ele>238.33333333333331</ele><time>2026-04-25T10:00:06.921Z</time></trkpt><trkpt lat="43.952185003928825" lon="11.308845886836055"><ele>239.66666666666666</ele><time>2026-04-25T10:00:07.921Z</time></trkpt><trkpt lat="43.95214123218219" lon="11.308599189232167"><ele>241.0</ele><time>2026-04-25T10:00:08.921Z</time></trkpt><trkpt lat="43.952106955474044" lon="11.308362783432376"><ele>241.0</ele><time>2026-04-25T10:00:09.921Z</time></trkpt><trkpt lat="43.95208249424621" lon="11.308146708040923"><ele>241.0</ele><time>2026-04-25T10:00:10.921Z</time></trkpt><trkpt lat="43.95207472678737" lon="11.30793897460795"><ele>241.0</ele><time>2026-04-25T10:00:11.921Z</time></trkpt><trkpt lat="43.95208949047313" lon="11.307739509495784"><ele>241.0</ele><time>2026-04-25T10:00:12.921Z</time></trkpt><trkpt lat="43.952151139145826" lon="11.307572004367547"><ele>241.0</ele><time>2026-04-25T10:00:13.921Z</time></trkpt><trkpt lat="43.95223528826408" lon="11.307421376712803"><ele>241.0</ele><time>2026-04-25T10:00:14.921Z</time></trkpt><trkpt lat="43.95234897104457" lon="11.307289414656235"><ele>241.0</ele><time>2026-04-25T10:00:15.921Z</time></trkpt><trkpt lat="43.952483029912564" lon="11.307167018688796"><ele>245.0</ele><time>2026-04-25T10:00:16.921Z</time></trkpt><trkpt lat="43.95263374381828" lon="11.30704895165301"><ele>249.0</ele><time>2026-04-25T10:00:17.921Z</time></trkpt><trkpt lat="43.95279208821002" lon="11.306931572839034"><ele>253.0</ele><time>2026-04-25T10:00:18.921Z</time></trkpt><trkpt lat="43.952953673057806" lon="11.306810346613709"><ele>253.0</ele><time>2026-04-25T10:00:19.921Z</time></trkpt><trkpt lat="43.95311523720172" lon="11.306684128087793"><ele>253.0</ele><time>2026-04-25T10:00:20.921Z</time></trkpt><trkpt lat="43.9532649756767" lon="11.306569479196652"><ele>253.0</ele><time>2026-04-25T10:00:21.921Z</time></trkpt><trkpt lat="43.95341980237938" lon="11.306473692192313"><ele>253.66666666666666</ele><time>2026-04-25T10:00:22.921Z</time></trkpt><trkpt lat="43.95358374711333" lon="11.306399898051891"><ele>254.33333333333331</ele><time>2026-04-25T10:00:23.921Z</time></trkpt><trkpt lat="43.9537664204434" lon="11.306393364184357"><ele>255.0</ele><time>2026-04-25T10:00:24.921Z</time></trkpt><trkpt lat="43.95395669210408" lon="11.306383425658456"><ele>255.0</ele><time>2026-04-25T10:00:25.921Z</time></trkpt><trkpt lat="43.95414178153515" lon="11.306362721376734"><ele>255.0</ele><time>2026-04-25T10:00:26.921Z</time></trkpt><trkpt lat="43.95430912133977" lon="11.306296035579347"><ele>255.0</ele><time>2026-04-25T10:00:27.921Z</time></trkpt><trkpt lat="43.95448221573507" lon="11.306233225369455"><ele>255.33333333333331</ele><time>2026-04-25T10:00:28.921Z</time></trkpt><trkpt lat="43.954654257301094" lon="11.30614964974625"><ele>255.66666666666666</ele><time>2026-04-25T10:00:29.921Z</time></trkpt><trkpt lat="43.95481127050886" lon="11.306072768296287"><ele>256.0</ele><time>2026-04-25T10:00:30.921Z</time></trkpt><trkpt lat="43.95495850826657" lon="11.305996405982286"><ele>254.5</ele><time>2026-04-25T10:00:31.921Z</time></trkpt><trkpt lat="43.95509706075823" lon="11.305923741944449"><ele>253.0</ele><time>2026-04-25T10:00:32.921Z</time></trkpt><trkpt lat="43.955226795512" lon="11.305851025683728"><ele>251.5</ele><time>2026-04-25T10:00:33.921Z</time></trkpt><trkpt lat="43.955335656564415" lon="11.305792556507246"><ele>250.0</ele><time>2026-04-25T10:00:34.921Z</time></trkpt><trkpt lat="43.95544343152495" lon="11.305770207744516"><ele>250.0</ele><time>2026-04-25T10:00:35.921Z</time></trkpt><trkpt lat="43.95555655263254" lon="11.305772748725554"><ele>250.0</ele><time>2026-04-25T10:00:36.921Z</time></trkpt><trkpt lat="43.95566619722907" lon="11.305809909423353"><ele>250.0</ele><time>2026-04-25T10:00:37.921Z</time></trkpt><trkpt lat="43.95577748309179" lon="11.305883834239696"><ele>250.0</ele><time>2026-04-25T10:00:38.921Z</time></trkpt><trkpt lat="43.9558929846783" lon="11.305972392616813"><ele>247.0</ele><time>2026-04-25T10:00:39.921Z</time></trkpt><trkpt lat="43.95601115898262" lon="11.306054027846718"><ele>244.0</ele><time>2026-04-25T10:00:40.921Z</time></trkpt><trkpt lat="43.95613205797855" lon="11.306123084588341"><ele>241.0</ele><time>2026-04-25T10:00:41.921Z</time></trkpt><trkpt lat="43.95626157168345" lon="11.306171049645435"><ele>238.0</ele><time>2026-04-25T10:00:42.921Z</time></trkpt><trkpt lat="43.95640248873025" lon="11.30620649266241"><ele>238.0</ele><time>2026-04-25T10:00:43.92Z</time></trkpt><trkpt lat="43.9565557733397" lon="11.306214723762617"><ele>238.0</ele><time>2026-04-25T10:00:44.921Z</time></trkpt><trkpt lat="43.95671914316127" lon="11.306206751344362"><ele>238.0</ele><time>2026-04-25T10:00:45.921Z</time></trkpt><trkpt lat="43.95688581953798" lon="11.306195034297708"><ele>236.33333333333331</ele><time>2026-04-25T10:00:46.92Z</time></trkpt><trkpt lat="43.957049475033195" lon="11.306184184015887"><ele>234.66666666666669</ele><time>2026-04-25T10:00:47.92Z</time></trkpt><trkpt lat="43.957210576684915" lon="11.306172586032064"><ele>233.0</ele><time>2026-04-25T10:00:48.92Z</time></trkpt><trkpt lat="43.957373299105186" lon="11.306160434100807"><ele>233.0</ele><time>2026-04-25T10:00:49.92Z</time></trkpt><trkpt lat="43.95753504677992" lon="11.306141355194475"><ele>233.0</ele><time>2026-04-25T10:00:50.92Z</time></trkpt><trkpt lat="43.957698726342166" lon="11.306112553392737"><ele>233.0</ele><time>2026-04-25T10:00:51.92Z</time></trkpt><trkpt lat="43.95785913860985" lon="11.306085172172793"><ele>232.66666666666669</ele><time>2026-04-25T10:00:52.92Z</time></trkpt><trkpt lat="43.95802455431047" lon="11.306069199240774"><ele>232.33333333333331</ele><time>2026-04-25T10:00:53.92Z</time></trkpt><trkpt lat="43.958185914073" lon="11.306049137623114"><ele>232.0</ele><time>2026-04-25T10:00:54.92Z</time></trkpt><trkpt lat="43.95834110252521" lon="11.306032448759135"><ele>230.0</ele><time>2026-04-25T10:00:55.92Z</time></trkpt><trkpt lat="43.95849570604324" lon="11.30601335913176"><ele>228.0</ele><time>2026-04-25T10:00:56.92Z</time></trkpt><trkpt lat="43.95865257509929" lon="11.30599272897605"><ele>226.0</ele><time>2026-04-25T10:00:57.92Z</time></trkpt><trkpt lat="43.958809757385225" lon="11.305947790921204"><ele>226.0</ele><time>2026-04-25T10:00:58.92Z</time></trkpt><trkpt lat="43.9589725994468" lon="11.305885247963694"><ele>226.0</ele><time>2026-04-25T10:00:59.92Z</time></trkpt><trkpt lat="43.9591368194588" lon="11.305815060394853"><ele>226.0</ele><time>2026-04-25T10:01:00.92Z</time></trkpt><trkpt lat="43.95930245861351" lon="11.305737560727987"><ele>226.33333333333331</ele><time>2026-04-25T10:01:01.92Z</time></trkpt><trkpt lat="43.95945965222691" lon="11.305661670122488"><ele>226.66666666666669</ele><time>2026-04-25T10:01:02.92Z</time></trkpt><trkpt lat="43.95963754011487" lon="11.305606946016617"><ele>227.0</ele><time>2026-04-25T10:01:03.92Z</time></trkpt><trkpt lat="43.959795861995325" lon="11.305502309318964"><ele>224.66666666666669</ele><time>2026-04-25T10:01:04.92Z</time></trkpt><trkpt lat="43.95994500130617" lon="11.30539839157504"><ele>222.33333333333331</ele><time>2026-04-25T10:01:05.92Z</time></trkpt><trkpt lat="43.96009108284784" lon="11.30529105643101"><ele>220.0</ele><time>2026-04-25T10:01:06.92Z</time></trkpt><trkpt lat="43.960234193072374" lon="11.30517516066003"><ele>219.66666666666666</ele><time>2026-04-25T10:01:07.92Z</time></trkpt><trkpt lat="43.96036579079269" lon="11.305052938910581"><ele>219.33333333333331</ele><time>2026-04-25T10:01:08.92Z</time></trkpt><trkpt lat="43.96048957946377" lon="11.304921050607772"><ele>219.0</ele><time>2026-04-25T10:01:09.92Z</time></trkpt><trkpt lat="43.96060334011285" lon="11.304776144113765"><ele>217.0</ele><time>2026-04-25T10:01:10.92Z</time></trkpt><trkpt lat="43.960707998563734" lon="11.304627149926555"><ele>215.0</ele><time>2026-04-25T10:01:11.92Z</time></trkpt><trkpt lat="43.96081265900868" lon="11.304462940706891"><ele>213.0</ele><time>2026-04-25T10:01:12.92Z</time></trkpt><trkpt lat="43.960918116371886" lon="11.304282854303617"><ele>213.0</ele><time>2026-04-25T10:01:13.92Z</time></trkpt><trkpt lat="43.96102290046936" lon="11.304085000174467"><ele>213.0</ele><time>2026-04-25T10:01:14.92Z</time></trkpt><trkpt lat="43.96113710620788" lon="11.303885312297355"><ele>213.0</ele><time>2026-04-25T10:01:15.92Z</time></trkpt><trkpt lat="43.96125653184883" lon="11.303670558981139"><ele>213.0</ele><time>2026-04-25T10:01:16.92Z</time></trkpt><trkpt lat="43.961379522143105" lon="11.303452307502926"><ele>213.0</ele><time>2026-04-25T10:01:17.92Z</time></trkpt><trkpt lat="43.96150528011564" lon="11.303225109138843"><ele>213.0</ele><time>2026-04-25T10:01:18.92Z</time></trkpt><trkpt lat="43.96162711835062" lon="11.30299684068853"><ele>212.33333333333331</ele><time>2026-04-25T10:01:19.92Z</time></trkpt><trkpt lat="43.96174221689418" lon="11.302789083535096"><ele>211.66666666666666</ele><time>2026-04-25T10:01:20.92Z</time></trkpt><trkpt lat="43.96183766766875" lon="11.302599835661239"><ele>211.0</ele><time>2026-04-25T10:01:21.92Z</time></trkpt><trkpt lat="43.961920828130985" lon="11.302427146542389"><ele>211.0</ele><time>2026-04-25T10:01:22.92Z</time></trkpt><trkpt lat="43.9620081214589" lon="11.3022712868487"><ele>211.0</ele><time>2026-04-25T10:01:23.92Z</time></trkpt><trkpt lat="43.962112315860985" lon="11.302128956319306"><ele>211.0</ele><time>2026-04-25T10:01:24.92Z</time></trkpt><trkpt lat="43.96223438789307" lon="11.302017224438"><ele>211.0</ele><time>2026-04-25T10:01:25.92Z</time></trkpt><trkpt lat="43.962373259560195" lon="11.301948870230083"><ele>212.0</ele><time>2026-04-25T10:01:26.92Z</time></trkpt><trkpt lat="43.96250783413525" lon="11.30191280947475"><ele>213.0</ele><time>2026-04-25T10:01:27.92Z</time></trkpt><trkpt lat="43.96264295396004" lon="11.301891470860335"><ele>214.0</ele><time>2026-04-25T10:01:28.92Z</time></trkpt><trkpt lat="43.96277377041969" lon="11.301873584100852"><ele>215.0</ele><time>2026-04-25T10:01:29.92Z</time></trkpt><trkpt lat="43.962911315521396" lon="11.301845911288803"><ele>215.0</ele><time>2026-04-25T10:01:30.92Z</time></trkpt><trkpt lat="43.96304915462478" lon="11.301789583560208"><ele>215.0</ele><time>2026-04-25T10:01:31.92Z</time></trkpt><trkpt lat="43.96318738891951" lon="11.301699495768487"><ele>215.0</ele><time>2026-04-25T10:01:32.92Z</time></trkpt><trkpt lat="43.963324124913505" lon="11.301567947957324"><ele>215.0</ele><time>2026-04-25T10:01:33.92Z</time></trkpt><trkpt lat="43.96345379970174" lon="11.301410055193111"><ele>215.0</ele><time>2026-04-25T10:01:34.92Z</time></trkpt><trkpt lat="43.96358764931326" lon="11.30122814737324"><ele>215.0</ele><time>2026-04-25T10:01:35.92Z</time></trkpt><trkpt lat="43.96373278521035" lon="11.301043161508344"><ele>215.0</ele><time>2026-04-25T10:01:36.92Z</time></trkpt><trkpt lat="43.963884674313" lon="11.300855368480125"><ele>215.0</ele><time>2026-04-25T10:01:37.92Z</time></trkpt><trkpt lat="43.96403968992055" lon="11.300667467600164"><ele>215.0</ele><time>2026-04-25T10:01:38.92Z</time></trkpt><trkpt lat="43.96417995994393" lon="11.300496287885693"><ele>215.0</ele><time>2026-04-25T10:01:39.92Z</time></trkpt><trkpt lat="43.96431028784181" lon="11.300327714566372"><ele>215.0</ele><time>2026-04-25T10:01:40.92Z</time></trkpt><trkpt lat="43.9644360517502" lon="11.300172016604916"><ele>215.0</ele><time>2026-04-25T10:01:41.92Z</time></trkpt><trkpt lat="43.96455431792668" lon="11.300021173927428"><ele>215.0</ele><time>2026-04-25T10:01:42.92Z</time></trkpt><trkpt lat="43.964664315098126" lon="11.299873142030863"><ele>215.0</ele><time>2026-04-25T10:01:43.92Z</time></trkpt><trkpt lat="43.964758817591786" lon="11.299724433815513"><ele>215.0</ele><time>2026-04-25T10:01:44.92Z</time></trkpt><trkpt lat="43.964863801740165" lon="11.299590331413395"><ele>215.0</ele><time>2026-04-25T10:01:45.92Z</time></trkpt><trkpt lat="43.964938676617145" lon="11.29942841610476"><ele>215.66666666666669</ele><time>2026-04-25T10:01:46.92Z</time></trkpt><trkpt lat="43.9649767130072" lon="11.299229710584777"><ele>216.33333333333331</ele><time>2026-04-25T10:01:47.92Z</time></trkpt><trkpt lat="43.964980149372785" lon="11.29901249052905"><ele>217.0</ele><time>2026-04-25T10:01:48.92Z</time></trkpt><trkpt lat="43.96497066071459" lon="11.298785421305013"><ele>217.66666666666666</ele><time>2026-04-25T10:01:49.92Z</time></trkpt><trkpt lat="43.96495452997378" lon="11.298542806334176"><ele>218.33333333333331</ele><time>2026-04-25T10:01:50.92Z</time></trkpt><trkpt lat="43.96493938068919" lon="11.298288737742348"><ele>219.0</ele><time>2026-04-25T10:01:51.92Z</time></trkpt><trkpt lat="43.96491080792999" lon="11.29802594365173"><ele>220.0</ele><time>2026-04-25T10:01:52.92Z</time></trkpt><trkpt lat="43.96489859504348" lon="11.29775489922895"><ele>221.0</ele><time>2026-04-25T10:01:53.92Z</time></trkpt><trkpt lat="43.96488464938441" lon="11.297480855066238"><ele>222.0</ele><time>2026-04-25T10:01:54.92Z</time></trkpt><trkpt lat="43.964871462011125" lon="11.297227968464274"><ele>223.0</ele><time>2026-04-25T10:01:55.92Z</time></trkpt><trkpt lat="43.96485787533034" lon="11.296993877837922"><ele>224.0</ele><time>2026-04-25T10:01:56.92Z</time></trkpt><trkpt lat="43.96484726256632" lon="11.29677468596506"><ele>225.0</ele><time>2026-04-25T10:01:57.92Z</time></trkpt><trkpt lat="43.964833417851054" lon="11.296571463481216"><ele>225.2</ele><time>2026-04-25T10:01:58.92Z</time></trkpt><trkpt lat="43.96483295488435" lon="11.296392662795188"><ele>225.4</ele><time>2026-04-25T10:01:59.92Z</time></trkpt><trkpt lat="43.96486266387557" lon="11.296248660697175"><ele>225.60000000000002</ele><time>2026-04-25T10:02:00.92Z</time></trkpt><trkpt lat="43.96492162345784" lon="11.296138349830057"><ele>225.8</ele><time>2026-04-25T10:02:01.92Z</time></trkpt><trkpt lat="43.965004920155884" lon="11.296036430916688"><ele>226.0</ele><time>2026-04-25T10:02:02.92Z</time></trkpt><trkpt lat="43.96510863068846" lon="11.29593135279787"><ele>226.0</ele><time>2026-04-25T10:02:03.92Z</time></trkpt><trkpt lat="43.9652252082211" lon="11.295806092075326"><ele>226.0</ele><time>2026-04-25T10:02:04.92Z</time></trkpt><trkpt lat="43.96534962307704" lon="11.295679309364122"><ele>226.0</ele><time>2026-04-25T10:02:05.92Z</time></trkpt><trkpt lat="43.96548024646762" lon="11.29553987535154"><ele>226.33333333333331</ele><time>2026-04-25T10:02:06.92Z</time></trkpt><trkpt lat="43.96562854043735" lon="11.295396509255974"><ele>226.66666666666669</ele><time>2026-04-25T10:02:07.92Z</time></trkpt><trkpt lat="43.965792215430774" lon="11.295251089619812"><ele>227.0</ele><time>2026-04-25T10:02:08.92Z</time></trkpt><trkpt lat="43.9659669188411" lon="11.295110535055855"><ele>227.0</ele><time>2026-04-25T10:02:09.92Z</time></trkpt><trkpt lat="43.966144949661214" lon="11.294970601371874"><ele>227.0</ele><time>2026-04-25T10:02:10.92Z</time></trkpt><trkpt lat="43.966314677537504" lon="11.294834624326073"><ele>227.0</ele><time>2026-04-25T10:02:11.92Z</time></trkpt><trkpt lat="43.96647915882306" lon="11.29469925380213"><ele>227.0</ele><time>2026-04-25T10:02:12.92Z</time></trkpt><trkpt lat="43.966639978774154" lon="11.294564649586379"><ele>227.0</ele><time>2026-04-25T10:02:13.92Z</time></trkpt><trkpt lat="43.966797888381485" lon="11.29442083698453"><ele>227.0</ele><time>2026-04-25T10:02:14.92Z</time></trkpt><trkpt lat="43.966960702141904" lon="11.294257997581072"><ele>226.66666666666669</ele><time>2026-04-25T10:02:15.92Z</time></trkpt><trkpt lat="43.96711811539448" lon="11.294093801642607"><ele>226.33333333333331</ele><time>2026-04-25T10:02:16.92Z</time></trkpt><trkpt lat="43.967289543434916" lon="11.293932735654758"><ele>226.0</ele><time>2026-04-25T10:02:17.92Z</time></trkpt><trkpt lat="43.96746268261378" lon="11.29377224322434"><ele>225.66666666666666</ele><time>2026-04-25T10:02:18.92Z</time></trkpt><trkpt lat="43.96764159994596" lon="11.293609899638039"><ele>225.33333333333331</ele><time>2026-04-25T10:02:19.92Z</time></trkpt><trkpt lat="43.96782297194562" lon="11.293448868659974"><ele>225.0</ele><time>2026-04-25T10:02:20.92Z</time></trkpt><trkpt lat="43.968008251523244" lon="11.293275334679027"><ele>225.0</ele><time>2026-04-25T10:02:21.92Z</time></trkpt><trkpt lat="43.96819058740262" lon="11.293103324091419"><ele>225.0</ele><time>2026-04-25T10:02:22.92Z</time></trkpt><trkpt lat="43.96837462662078" lon="11.292945306782284"><ele>225.0</ele><time>2026-04-25T10:02:23.92Z</time></trkpt><trkpt lat="43.968563835025364" lon="11.292782506441656"><ele>224.66666666666669</ele><time>2026-04-25T10:02:24.92Z</time></trkpt><trkpt lat="43.96875104175936" lon="11.292616306026092"><ele>224.33333333333334</ele><time>2026-04-25T10:02:25.92Z</time></trkpt><trkpt lat="43.9689430203472" lon="11.292450134807508"><ele>224.0</ele><time>2026-04-25T10:02:26.92Z</time></trkpt><trkpt lat="43.96912974467214" lon="11.292287465283675"><ele>224.0</ele><time>2026-04-25T10:02:27.92Z</time></trkpt><trkpt lat="43.96931636278266" lon="11.29211925785901"><ele>224.0</ele><time>2026-04-25T10:02:28.92Z</time></trkpt><trkpt lat="43.969499101824766" lon="11.291955752163798"><ele>224.0</ele><time>2026-04-25T10:02:29.92Z</time></trkpt><trkpt lat="43.96967918819236" lon="11.291791684655474"><ele>224.0</ele><time>2026-04-25T10:02:30.92Z</time></trkpt><trkpt lat="43.96985915148098" lon="11.291631835961253"><ele>224.0</ele><time>2026-04-25T10:02:31.92Z</time></trkpt><trkpt lat="43.97003777817757" lon="11.291473933546238"><ele>224.0</ele><time>2026-04-25T10:02:32.92Z</time></trkpt><trkpt lat="43.97021706037611" lon="11.291312971129608"><ele>223.66666666666669</ele><time>2026-04-25T10:02:33.92Z</time></trkpt><trkpt lat="43.97039018821615" lon="11.29116050321556"><ele>223.33333333333331</ele><time>2026-04-25T10:02:34.92Z</time></trkpt><trkpt lat="43.97055813735071" lon="11.291012752265772"><ele>223.0</ele><time>2026-04-25T10:02:35.92Z</time></trkpt><trkpt lat="43.97073121584382" lon="11.290854978784465"><ele>222.66666666666666</ele><time>2026-04-25T10:02:36.92Z</time></trkpt><trkpt lat="43.97090651799913" lon="11.29070676821463"><ele>222.33333333333331</ele><time>2026-04-25T10:02:37.92Z</time></trkpt><trkpt lat="43.97107265969748" lon="11.290557110339893"><ele>222.0</ele><time>2026-04-25T10:02:38.92Z</time></trkpt><trkpt lat="43.97123329295461" lon="11.290413268161254"><ele>222.0</ele><time>2026-04-25T10:02:39.92Z</time></trkpt><trkpt lat="43.97138201178554" lon="11.290274483481394"><ele>222.0</ele><time>2026-04-25T10:02:40.92Z</time></trkpt><trkpt lat="43.97152583453711" lon="11.29014388826838"><ele>222.0</ele><time>2026-04-25T10:02:41.92Z</time></trkpt><trkpt lat="43.97166812928644" lon="11.290015057805766"><ele>222.0</ele><time>2026-04-25T10:02:42.92Z</time></trkpt><trkpt lat="43.971810883103" lon="11.28988953994152"><ele>222.0</ele><time>2026-04-25T10:02:43.92Z</time></trkpt><trkpt lat="43.971947019449864" lon="11.289773698725005"><ele>222.0</ele><time>2026-04-25T10:02:44.92Z</time></trkpt><trkpt lat="43.972075419697404" lon="11.289660934608749"><ele>222.0</ele><time>2026-04-25T10:02:45.92Z</time></trkpt><trkpt lat="43.972198906920354" lon="11.289555160569032"><ele>222.0</ele><time>2026-04-25T10:02:46.919Z</time></trkpt><trkpt lat="43.97231690436532" lon="11.289452285852644"><ele>222.0</ele><time>2026-04-25T10:02:47.919Z</time></trkpt><trkpt lat="43.97242721404971" lon="11.289362595012038"><ele>222.0</ele><time>2026-04-25T10:02:48.919Z</time></trkpt><trkpt lat="43.97253057692415" lon="11.289273306260693"><ele>222.0</ele><time>2026-04-25T10:02:49.919Z</time></trkpt><trkpt lat="43.97262654472879" lon="11.28919092631493"><ele>222.0</ele><time>2026-04-25T10:02:50.919Z</time></trkpt><trkpt lat="43.972717476222364" lon="11.289127843886833"><ele>222.0</ele><time>2026-04-25T10:02:51.919Z</time></trkpt><trkpt lat="43.97280505517343" lon="11.289108723133106"><ele>222.0</ele><time>2026-04-25T10:02:52.919Z</time></trkpt><trkpt lat="43.9729044640535" lon="11.289133901496324"><ele>222.0</ele><time>2026-04-25T10:02:53.919Z</time></trkpt><trkpt lat="43.97300153143091" lon="11.289168554637055"><ele>222.0</ele><time>2026-04-25T10:02:54.919Z</time></trkpt><trkpt lat="43.9731080576741" lon="11.289187646598856"><ele>222.0</ele><time>2026-04-25T10:02:55.919Z</time></trkpt><trkpt lat="43.973216703576334" lon="11.289156748193447"><ele>222.0</ele><time>2026-04-25T10:02:56.919Z</time></trkpt><trkpt lat="43.97331001513398" lon="11.289077845082357"><ele>222.0</ele><time>2026-04-25T10:02:57.919Z</time></trkpt><trkpt lat="43.973381091833886" lon="11.288967770825492"><ele>222.0</ele><time>2026-04-25T10:02:58.919Z</time></trkpt><trkpt lat="43.97343103330099" lon="11.288829133509276"><ele>222.0</ele><time>2026-04-25T10:02:59.919Z</time></trkpt><trkpt lat="43.97344815826238" lon="11.288677693600205"><ele>222.0</ele><time>2026-04-25T10:03:00.919Z</time></trkpt><trkpt lat="43.97358573857787" lon="11.288569854953971"><ele>222.0</ele><time>2026-04-25T10:03:01.919Z</time></trkpt><trkpt lat="43.97369761844945" lon="11.288486963828884"><ele>222.0</ele><time>2026-04-25T10:03:02.919Z</time></trkpt><trkpt lat="43.9738249690652" lon="11.288429396635236"><ele>222.0</ele><time>2026-04-25T10:03:03.919Z</time></trkpt><trkpt lat="43.97397421473877" lon="11.288382832383837"><ele>222.0</ele><time>2026-04-25T10:03:04.919Z</time></trkpt><trkpt lat="43.97414477041651" lon="11.288328190656474"><ele>222.0</ele><time>2026-04-25T10:03:05.919Z</time></trkpt><trkpt lat="43.97432372163535" lon="11.288269493348858"><ele>222.66666666666669</ele><time>2026-04-25T10:03:06.919Z</time></trkpt><trkpt lat="43.97449649755854" lon="11.288219275021136"><ele>223.33333333333334</ele><time>2026-04-25T10:03:07.919Z</time></trkpt><trkpt lat="43.974668148273814" lon="11.288188239522166"><ele>224.0</ele><time>2026-04-25T10:03:08.919Z</time></trkpt><trkpt lat="43.97483499318118" lon="11.288146624152057"><ele>224.0</ele><time>2026-04-25T10:03:09.919Z</time></trkpt><trkpt lat="43.97501011541747" lon="11.288119526588103"><ele>224.0</ele><time>2026-04-25T10:03:10.919Z</time></trkpt><trkpt lat="43.9751844888708" lon="11.288103665248306"><ele>224.0</ele><time>2026-04-25T10:03:11.919Z</time></trkpt><trkpt lat="43.97536179517227" lon="11.288103385317985"><ele>223.33333333333334</ele><time>2026-04-25T10:03:12.919Z</time></trkpt><trkpt lat="43.975536839472376" lon="11.28810675579093"><ele>222.66666666666669</ele><time>2026-04-25T10:03:13.919Z</time></trkpt><trkpt lat="43.9757210473501" lon="11.28811846680545"><ele>222.0</ele><time>2026-04-25T10:03:14.919Z</time></trkpt><trkpt lat="43.975915866647" lon="11.28813841923425"><ele>222.0</ele><time>2026-04-25T10:03:15.919Z</time></trkpt><trkpt lat="43.976121255551796" lon="11.288166721995418"><ele>222.0</ele><time>2026-04-25T10:03:16.919Z</time></trkpt><trkpt lat="43.976333459682216" lon="11.288203157653738"><ele>222.0</ele><time>2026-04-25T10:03:17.919Z</time></trkpt><trkpt lat="43.97653820750935" lon="11.288243156288571"><ele>224.0</ele><time>2026-04-25T10:03:18.919Z</time></trkpt><trkpt lat="43.97673818092037" lon="11.288280009471384"><ele>226.0</ele><time>2026-04-25T10:03:19.919Z</time></trkpt><trkpt lat="43.97693814865972" lon="11.288309923277119"><ele>228.0</ele><time>2026-04-25T10:03:20.919Z</time></trkpt><trkpt lat="43.97713872487595" lon="11.288342164173853"><ele>228.0</ele><time>2026-04-25T10:03:21.919Z</time></trkpt><trkpt lat="43.97733739744669" lon="11.288370097416282"><ele>228.0</ele><time>2026-04-25T10:03:22.919Z</time></trkpt><trkpt lat="43.97753704990478" lon="11.288405058612145"><ele>228.0</ele><time>2026-04-25T10:03:23.919Z</time></trkpt><trkpt lat="43.97773917156215" lon="11.288446265291778"><ele>229.33333333333331</ele><time>2026-04-25T10:03:24.919Z</time></trkpt><trkpt lat="43.97794677590688" lon="11.288481399375808"><ele>230.66666666666666</ele><time>2026-04-25T10:03:25.919Z</time></trkpt><trkpt lat="43.97815143745822" lon="11.288495621263337"><ele>232.0</ele><time>2026-04-25T10:03:26.919Z</time></trkpt><trkpt lat="43.97835019289247" lon="11.288505233497556"><ele>233.66666666666666</ele><time>2026-04-25T10:03:27.919Z</time></trkpt><trkpt lat="43.97853744536998" lon="11.288513010380576"><ele>235.33333333333331</ele><time>2026-04-25T10:03:28.919Z</time></trkpt><trkpt lat="43.9787124652565" lon="11.2885101486827"><ele>237.0</ele><time>2026-04-25T10:03:29.919Z</time></trkpt><trkpt lat="43.978880235362624" lon="11.288503444158648"><ele>237.0</ele><time>2026-04-25T10:03:30.919Z</time></trkpt><trkpt lat="43.97904219053842" lon="11.288485621597925"><ele>237.0</ele><time>2026-04-25T10:03:31.919Z</time></trkpt><trkpt lat="43.979196721149634" lon="11.288472463680648"><ele>237.0</ele><time>2026-04-25T10:03:32.919Z</time></trkpt><trkpt lat="43.97935771888113" lon="11.288456177314282"><ele>237.66666666666669</ele><time>2026-04-25T10:03:33.919Z</time></trkpt><trkpt lat="43.97952671313297" lon="11.2884250149041"><ele>238.33333333333334</ele><time>2026-04-25T10:03:34.919Z</time></trkpt><trkpt lat="43.97970850294627" lon="11.28838466550259"><ele>239.0</ele><time>2026-04-25T10:03:35.919Z</time></trkpt><trkpt lat="43.979889412803" lon="11.288342101340264"><ele>240.66666666666669</ele><time>2026-04-25T10:03:36.919Z</time></trkpt><trkpt lat="43.98007656014741" lon="11.288265354573737"><ele>242.33333333333331</ele><time>2026-04-25T10:03:37.919Z</time></trkpt><trkpt lat="43.98026670009175" lon="11.288179907700478"><ele>244.0</ele><time>2026-04-25T10:03:38.919Z</time></trkpt><trkpt lat="43.98045318625425" lon="11.288071512446594"><ele>244.0</ele><time>2026-04-25T10:03:39.919Z</time></trkpt><trkpt lat="43.98063395051198" lon="11.28794890455205"><ele>244.0</ele><time>2026-04-25T10:03:40.919Z</time></trkpt><trkpt lat="43.9808122358161" lon="11.28780406747765"><ele>244.0</ele><time>2026-04-25T10:03:41.919Z</time></trkpt><trkpt lat="43.98098348328217" lon="11.287646399085967"><ele>243.66666666666666</ele><time>2026-04-25T10:03:42.919Z</time></trkpt><trkpt lat="43.981150038374274" lon="11.287464758864033"><ele>243.33333333333331</ele><time>2026-04-25T10:03:43.919Z</time></trkpt><trkpt lat="43.981316489823975" lon="11.287302435590844"><ele>243.0</ele><time>2026-04-25T10:03:44.919Z</time></trkpt><trkpt lat="43.98146105119587" lon="11.287101356199248"><ele>243.0</ele><time>2026-04-25T10:03:45.919Z</time></trkpt><trkpt lat="43.98161027591666" lon="11.286893366350212"><ele>243.0</ele><time>2026-04-25T10:03:46.919Z</time></trkpt><trkpt lat="43.98176562182409" lon="11.286681200996112"><ele>243.0</ele><time>2026-04-25T10:03:47.919Z</time></trkpt><trkpt lat="43.981896692734864" lon="11.286453197445777"><ele>245.66666666666669</ele><time>2026-04-25T10:03:48.919Z</time></trkpt><trkpt lat="43.98201267754842" lon="11.2862286888032"><ele>248.33333333333334</ele><time>2026-04-25T10:03:49.919Z</time></trkpt><trkpt lat="43.98211214679396" lon="11.286002975333986"><ele>251.0</ele><time>2026-04-25T10:03:50.919Z</time></trkpt><trkpt lat="43.98219357825823" lon="11.285759521535839"><ele>252.33333333333334</ele><time>2026-04-25T10:03:51.919Z</time></trkpt><trkpt lat="43.98227928515386" lon="11.285521412949546"><ele>253.66666666666669</ele><time>2026-04-25T10:03:52.919Z</time></trkpt><trkpt lat="43.98235850957902" lon="11.285273542274991"><ele>255.0</ele><time>2026-04-25T10:03:53.919Z</time></trkpt><trkpt lat="43.98243040653587" lon="11.285022874417985"><ele>255.0</ele><time>2026-04-25T10:03:54.919Z</time></trkpt><trkpt lat="43.98249165915161" lon="11.28476437671747"><ele>255.0</ele><time>2026-04-25T10:03:55.919Z</time></trkpt><trkpt lat="43.98254084923922" lon="11.284503659152625"><ele>255.0</ele><time>2026-04-25T10:03:56.919Z</time></trkpt><trkpt lat="43.98258430792779" lon="11.284242864942659"><ele>260.0</ele><time>2026-04-25T10:03:57.919Z</time></trkpt><trkpt lat="43.982618552561206" lon="11.283979441862606"><ele>265.0</ele><time>2026-04-25T10:03:58.919Z</time></trkpt><trkpt lat="43.98264615882958" lon="11.283720701811571"><ele>270.0</ele><time>2026-04-25T10:03:59.919Z</time></trkpt><trkpt lat="43.982664789226746" lon="11.283470646172708"><ele>270.6666666666667</ele><time>2026-04-25T10:04:00.919Z</time></trkpt><trkpt lat="43.982678499294444" lon="11.283228553182633"><ele>271.33333333333337</ele><time>2026-04-25T10:04:01.919Z</time></trkpt><trkpt lat="43.98269102821285" lon="11.2830055650341"><ele>272.0</ele><time>2026-04-25T10:04:02.919Z</time></trkpt><trkpt lat="43.982703285432585" lon="11.282790380329212"><ele>272.33333333333337</ele><time>2026-04-25T10:04:03.919Z</time></trkpt><trkpt lat="43.98271113339545" lon="11.282577261831658"><ele>272.6666666666667</ele><time>2026-04-25T10:04:04.919Z</time></trkpt><trkpt lat="43.98271365868924" lon="11.2823662332157"><ele>273.0</ele><time>2026-04-25T10:04:05.919Z</time></trkpt><trkpt lat="43.98271872617542" lon="11.282164047344823"><ele>274.3333333333333</ele><time>2026-04-25T10:04:06.919Z</time></trkpt><trkpt lat="43.98272126780353" lon="11.28195189519732"><ele>275.66666666666663</ele><time>2026-04-25T10:04:07.919Z</time></trkpt><trkpt lat="43.9827511416734" lon="11.281741652494388"><ele>277.0</ele><time>2026-04-25T10:04:08.919Z</time></trkpt><trkpt lat="43.98274846471556" lon="11.281519651391083"><ele>276.66666666666663</ele><time>2026-04-25T10:04:09.919Z</time></trkpt><trkpt lat="43.98274221819885" lon="11.281297514237192"><ele>276.3333333333333</ele><time>2026-04-25T10:04:10.919Z</time></trkpt><trkpt lat="43.982739749118046" lon="11.281070232914516"><ele>276.0</ele><time>2026-04-25T10:04:11.919Z</time></trkpt><trkpt lat="43.98275194859466" lon="11.280841731631487"><ele>276.0</ele><time>2026-04-25T10:04:12.919Z</time></trkpt><trkpt lat="43.98276490152847" lon="11.280608337815027"><ele>276.0</ele><time>2026-04-25T10:04:13.919Z</time></trkpt><trkpt lat="43.982792085982126" lon="11.280366427786527"><ele>276.0</ele><time>2026-04-25T10:04:14.919Z</time></trkpt><trkpt lat="43.98283101530048" lon="11.280124652004794"><ele>268.3333333333333</ele><time>2026-04-25T10:04:15.919Z</time></trkpt><trkpt lat="43.9828868946475" lon="11.279887592770843"><ele>260.66666666666663</ele><time>2026-04-25T10:04:16.919Z</time></trkpt><trkpt lat="43.98293912036015" lon="11.279638371027849"><ele>253.0</ele><time>2026-04-25T10:04:17.919Z</time></trkpt><trkpt lat="43.98299644573644" lon="11.279392554519328"><ele>250.0</ele><time>2026-04-25T10:04:18.919Z</time></trkpt><trkpt lat="43.9830520845368" lon="11.27914351544449"><ele>247.0</ele><time>2026-04-25T10:04:19.919Z</time></trkpt><trkpt lat="43.98310151732984" lon="11.278890596011045"><ele>244.0</ele><time>2026-04-25T10:04:20.919Z</time></trkpt><trkpt lat="43.983150748572214" lon="11.27864384325614"><ele>243.0</ele><time>2026-04-25T10:04:21.919Z</time></trkpt><trkpt lat="43.983201425632224" lon="11.278402635341394"><ele>242.0</ele><time>2026-04-25T10:04:22.919Z</time></trkpt><trkpt lat="43.983253612381816" lon="11.278169762386959"><ele>241.0</ele><time>2026-04-25T10:04:23.919Z</time></trkpt><trkpt lat="43.98329860190186" lon="11.277943404510582"><ele>241.0</ele><time>2026-04-25T10:04:24.919Z</time></trkpt><trkpt lat="43.983343356663404" lon="11.277725921990912"><ele>241.0</ele><time>2026-04-25T10:04:25.919Z</time></trkpt><trkpt lat="43.9833916144575" lon="11.277510136967713"><ele>241.0</ele><time>2026-04-25T10:04:26.919Z</time></trkpt><trkpt lat="43.9834373608574" lon="11.277287576243685"><ele>244.0</ele><time>2026-04-25T10:04:27.919Z</time></trkpt><trkpt lat="43.98348247977445" lon="11.27706108349896"><ele>247.0</ele><time>2026-04-25T10:04:28.919Z</time></trkpt><trkpt lat="43.98352867077121" lon="11.276836241424594"><ele>250.0</ele><time>2026-04-25T10:04:29.919Z</time></trkpt><trkpt lat="43.983576681419414" lon="11.276600733985841"><ele>257.3333333333333</ele><time>2026-04-25T10:04:30.919Z</time></trkpt><trkpt lat="43.98362491308057" lon="11.276367971577663"><ele>264.6666666666667</ele><time>2026-04-25T10:04:31.919Z</time></trkpt><trkpt lat="43.9836650584533" lon="11.276149530751308"><ele>272.0</ele><time>2026-04-25T10:04:32.919Z</time></trkpt><trkpt lat="43.983706614354865" lon="11.275944922173114"><ele>272.0</ele><time>2026-04-25T10:04:33.919Z</time></trkpt><trkpt lat="43.98374883308202" lon="11.275747975532683"><ele>272.0</ele><time>2026-04-25T10:04:34.919Z</time></trkpt><trkpt lat="43.983799475088404" lon="11.275561177747296"><ele>272.0</ele><time>2026-04-25T10:04:35.919Z</time></trkpt><trkpt lat="43.98386016415786" lon="11.27536399406681"><ele>272.0</ele><time>2026-04-25T10:04:36.919Z</time></trkpt><trkpt lat="43.98392617324035" lon="11.275183722246613"><ele>272.0</ele><time>2026-04-25T10:04:37.919Z</time></trkpt><trkpt lat="43.98399055862945" lon="11.275000903919208"><ele>272.0</ele><time>2026-04-25T10:04:38.919Z</time></trkpt><trkpt lat="43.98407578752657" lon="11.274826112201708"><ele>272.0</ele><time>2026-04-25T10:04:39.919Z</time></trkpt><trkpt lat="43.98416663288973" lon="11.27465855979135"><ele>272.0</ele><time>2026-04-25T10:04:40.919Z</time></trkpt><trkpt lat="43.98426685766712" lon="11.274509528614557"><ele>274.75</ele><time>2026-04-25T10:04:41.919Z</time></trkpt><trkpt lat="43.984366468901136" lon="11.274377068099952"><ele>277.5</ele><time>2026-04-25T10:04:42.919Z</time></trkpt><trkpt lat="43.98446524406305" lon="11.274262300997375"><ele>280.25</ele><time>2026-04-25T10:04:43.919Z</time></trkpt><trkpt lat="43.98456143987983" lon="11.274161681376459"><ele>283.0</ele><time>2026-04-25T10:04:44.919Z</time></trkpt><trkpt lat="43.984658853494274" lon="11.27407084241295"><ele>283.0</ele><time>2026-04-25T10:04:45.919Z</time></trkpt><trkpt lat="43.98475881812361" lon="11.27399213095345"><ele>283.0</ele><time>2026-04-25T10:04:46.919Z</time></trkpt><trkpt lat="43.98485645248575" lon="11.273933739558105"><ele>283.0</ele><time>2026-04-25T10:04:47.919Z</time></trkpt><trkpt lat="43.98494610964397" lon="11.273882653777743"><ele>283.0</ele><time>2026-04-25T10:04:48.919Z</time></trkpt><trkpt lat="43.98503362866643" lon="11.273828165533578"><ele>283.0</ele><time>2026-04-25T10:04:49.919Z</time></trkpt><trkpt lat="43.985123157089404" lon="11.273774466069417"><ele>283.0</ele><time>2026-04-25T10:04:50.919Z</time></trkpt><trkpt lat="43.985225467268165" lon="11.273726169224805"><ele>283.0</ele><time>2026-04-25T10:04:51.919Z</time></trkpt><trkpt lat="43.98533307352534" lon="11.273675193147913"><ele>283.0</ele><time>2026-04-25T10:04:52.917Z</time></trkpt><trkpt lat="43.98545111219731" lon="11.273622609514483"><ele>283.0</ele><time>2026-04-25T10:04:53.917Z</time></trkpt><trkpt lat="43.98557001955858" lon="11.27358666005434"><ele>283.0</ele><time>2026-04-25T10:04:54.917Z</time></trkpt><trkpt lat="43.98569809217144" lon="11.27353968704904"><ele>283.0</ele><time>2026-04-25T10:04:55.918Z</time></trkpt><trkpt lat="43.98584613161405" lon="11.273511499846226"><ele>283.0</ele><time>2026-04-25T10:04:56.917Z</time></trkpt><trkpt lat="43.9860118939156" lon="11.273477256998135"><ele>283.0</ele><time>2026-04-25T10:04:57.917Z</time></trkpt><trkpt lat="43.98619275327751" lon="11.27347736481198"><ele>284.0</ele><time>2026-04-25T10:04:58.917Z</time></trkpt><trkpt lat="43.98639079489839" lon="11.27344046708977"><ele>285.0</ele><time>2026-04-25T10:04:59.918Z</time></trkpt><trkpt lat="43.98657892687868" lon="11.273426212943201"><ele>286.0</ele><time>2026-04-25T10:05:00.918Z</time></trkpt><trkpt lat="43.98677114310464" lon="11.273396951087244"><ele>287.3333333333333</ele><time>2026-04-25T10:05:01.918Z</time></trkpt><trkpt lat="43.98696475903638" lon="11.273377449340078"><ele>288.6666666666667</ele><time>2026-04-25T10:05:02.917Z</time></trkpt><trkpt lat="43.98716463499497" lon="11.273349238515484"><ele>290.0</ele><time>2026-04-25T10:05:03.917Z</time></trkpt><trkpt lat="43.987372741209995" lon="11.273316982720052"><ele>293.33333333333337</ele><time>2026-04-25T10:05:04.918Z</time></trkpt><trkpt lat="43.987584834489375" lon="11.273287730297199"><ele>296.6666666666667</ele><time>2026-04-25T10:05:05.917Z</time></trkpt><trkpt lat="43.98779717516824" lon="11.273247507003848"><ele>300.0</ele><time>2026-04-25T10:05:06.917Z</time></trkpt><trkpt lat="43.987992444956944" lon="11.27320312873618"><ele>300.0</ele><time>2026-04-25T10:05:07.917Z</time></trkpt><trkpt lat="43.98817783786561" lon="11.273155217353661"><ele>300.0</ele><time>2026-04-25T10:05:08.917Z</time></trkpt><trkpt lat="43.98834569181907" lon="11.273081178344867"><ele>300.0</ele><time>2026-04-25T10:05:09.917Z</time></trkpt><trkpt lat="43.98851171876937" lon="11.2729972156541"><ele>298.6666666666667</ele><time>2026-04-25T10:05:10.917Z</time></trkpt><trkpt lat="43.988672492048714" lon="11.272900797311785"><ele>297.33333333333337</ele><time>2026-04-25T10:05:11.917Z</time></trkpt><trkpt lat="43.988838299893466" lon="11.272818122655254"><ele>296.0</ele><time>2026-04-25T10:05:12.917Z</time></trkpt><trkpt lat="43.988993256886225" lon="11.27272368431166"><ele>296.0</ele><time>2026-04-25T10:05:13.917Z</time></trkpt><trkpt lat="43.98913520952624" lon="11.272627185787737"><ele>296.0</ele><time>2026-04-25T10:05:14.917Z</time></trkpt><trkpt lat="43.989280730155784" lon="11.272523078169005"><ele>296.0</ele><time>2026-04-25T10:05:15.917Z</time></trkpt><trkpt lat="43.989434578786366" lon="11.272401723043412"><ele>297.0</ele><time>2026-04-25T10:05:16.917Z</time></trkpt><trkpt lat="43.98959341449587" lon="11.272257665206824"><ele>298.0</ele><time>2026-04-25T10:05:17.917Z</time></trkpt><trkpt lat="43.989758339249775" lon="11.272107561870559"><ele>299.0</ele><time>2026-04-25T10:05:18.917Z</time></trkpt><trkpt lat="43.98992601123414" lon="11.271955074345437"><ele>304.33333333333337</ele><time>2026-04-25T10:05:19.917Z</time></trkpt><trkpt lat="43.99008699403413" lon="11.271809019056121"><ele>309.6666666666667</ele><time>2026-04-25T10:05:20.917Z</time></trkpt><trkpt lat="43.99023456693845" lon="11.271674720794945"><ele>315.0</ele><time>2026-04-25T10:05:21.917Z</time></trkpt><trkpt lat="43.99037414051971" lon="11.271547319469926"><ele>312.3333333333333</ele><time>2026-04-25T10:05:22.917Z</time></trkpt><trkpt lat="43.99050815193258" lon="11.271424995354634"><ele>309.66666666666663</ele><time>2026-04-25T10:05:23.917Z</time></trkpt><trkpt lat="43.990646692088134" lon="11.27129853737471"><ele>307.0</ele><time>2026-04-25T10:05:24.917Z</time></trkpt><trkpt lat="43.990781388511394" lon="11.27117558793927"><ele>310.3333333333333</ele><time>2026-04-25T10:05:25.917Z</time></trkpt><trkpt lat="43.99091909818932" lon="11.27104988809407"><ele>313.6666666666667</ele><time>2026-04-25T10:05:26.917Z</time></trkpt><trkpt lat="43.99104604160941" lon="11.270934015482242"><ele>317.0</ele><time>2026-04-25T10:05:27.917Z</time></trkpt><trkpt lat="43.99116908275751" lon="11.270821704811484"><ele>317.0</ele><time>2026-04-25T10:05:28.917Z</time></trkpt><trkpt lat="43.991283771742665" lon="11.27071454424487"><ele>317.0</ele><time>2026-04-25T10:05:29.917Z</time></trkpt><trkpt lat="43.9913737709221" lon="11.270591526984655"><ele>317.0</ele><time>2026-04-25T10:05:30.917Z</time></trkpt><trkpt lat="43.99147137557809" lon="11.270482661477757"><ele>317.0</ele><time>2026-04-25T10:05:31.917Z</time></trkpt><trkpt lat="43.99153745056773" lon="11.270320854224162"><ele>317.25</ele><time>2026-04-25T10:05:32.917Z</time></trkpt><trkpt lat="43.991585613166386" lon="11.270153499442339"><ele>317.5</ele><time>2026-04-25T10:05:33.917Z</time></trkpt><trkpt lat="43.99158954970444" lon="11.269955522590562"><ele>317.75</ele><time>2026-04-25T10:05:34.917Z</time></trkpt><trkpt lat="43.991599508593495" lon="11.269753937440075"><ele>318.0</ele><time>2026-04-25T10:05:35.917Z</time></trkpt><trkpt lat="43.99160109945636" lon="11.269585942681012"><ele>317.6</ele><time>2026-04-25T10:05:36.917Z</time></trkpt><trkpt lat="43.99161339687001" lon="11.269436289913141"><ele>317.20000000000005</ele><time>2026-04-25T10:05:37.917Z</time></trkpt><trkpt lat="43.99163453737877" lon="11.269307626048292"><ele>316.8</ele><time>2026-04-25T10:05:38.917Z</time></trkpt><trkpt lat="43.99168063534852" lon="11.269213213907298"><ele>316.40000000000003</ele><time>2026-04-25T10:05:39.917Z</time></trkpt><trkpt lat="43.99176610051992" lon="11.269127883614404"><ele>316.0</ele><time>2026-04-25T10:05:40.917Z</time></trkpt><trkpt lat="43.991862105121214" lon="11.2691186851637"><ele>317.75</ele><time>2026-04-25T10:05:41.917Z</time></trkpt><trkpt lat="43.99195393708509" lon="11.269126633002056"><ele>319.5</ele><time>2026-04-25T10:05:42.917Z</time></trkpt><trkpt lat="43.99206318811849" lon="11.269173019552838"><ele>321.25</ele><time>2026-04-25T10:05:43.917Z</time></trkpt><trkpt lat="43.99218281511073" lon="11.26923958870176"><ele>323.0</ele><time>2026-04-25T10:05:44.917Z</time></trkpt><trkpt lat="43.99230583395995" lon="11.269292687556318"><ele>323.0</ele><time>2026-04-25T10:05:45.917Z</time></trkpt><trkpt lat="43.99242281816072" lon="11.269344375067648"><ele>323.0</ele><time>2026-04-25T10:05:46.917Z</time></trkpt><trkpt lat="43.992556965829785" lon="11.26934401176377"><ele>323.0</ele><time>2026-04-25T10:05:47.917Z</time></trkpt><trkpt lat="43.992694960895726" lon="11.269273823745623"><ele>323.0</ele><time>2026-04-25T10:05:48.917Z</time></trkpt><trkpt lat="43.99281446184238" lon="11.269205133717453"><ele>324.5</ele><time>2026-04-25T10:05:49.917Z</time></trkpt><trkpt lat="43.99293471305659" lon="11.269131144335113"><ele>326.0</ele><time>2026-04-25T10:05:50.917Z</time></trkpt><trkpt lat="43.99305692394701" lon="11.269062625259101"><ele>327.5</ele><time>2026-04-25T10:05:51.917Z</time></trkpt><trkpt lat="43.9931867346626" lon="11.269019863153373"><ele>329.0</ele><time>2026-04-25T10:05:52.917Z</time></trkpt><trkpt lat="43.99332582453353" lon="11.268992659314423"><ele>328.25</ele><time>2026-04-25T10:05:53.917Z</time></trkpt><trkpt lat="43.99346563671561" lon="11.268965849844307"><ele>327.5</ele><time>2026-04-25T10:05:54.917Z</time></trkpt><trkpt lat="43.99360909994988" lon="11.268936346252154"><ele>326.75</ele><time>2026-04-25T10:05:55.917Z</time></trkpt><trkpt lat="43.993754406587655" lon="11.268906463547165"><ele>326.0</ele><time>2026-04-25T10:05:56.917Z</time></trkpt><trkpt lat="43.993886782490875" lon="11.268890042150813"><ele>326.0</ele><time>2026-04-25T10:05:57.917Z</time></trkpt><trkpt lat="43.994021029724664" lon="11.268914236999825"><ele>326.0</ele><time>2026-04-25T10:05:58.917Z</time></trkpt><trkpt lat="43.99415796508293" lon="11.268950012838708"><ele>326.0</ele><time>2026-04-25T10:05:59.917Z</time></trkpt><trkpt lat="43.99429272323376" lon="11.268953876765694"><ele>326.0</ele><time>2026-04-25T10:06:00.917Z</time></trkpt><trkpt lat="43.99442297222007" lon="11.268946003039632"><ele>328.75</ele><time>2026-04-25T10:06:01.917Z</time></trkpt><trkpt lat="43.99454630538451" lon="11.268935069641566"><ele>331.5</ele><time>2026-04-25T10:06:02.917Z</time></trkpt><trkpt lat="43.99467040556898" lon="11.268924068241226"><ele>334.25</ele><time>2026-04-25T10:06:03.917Z</time></trkpt><trkpt lat="43.99478480835223" lon="11.268912405656618"><ele>337.0</ele><time>2026-04-25T10:06:04.917Z</time></trkpt><trkpt lat="43.994896665166536" lon="11.268892066247515"><ele>337.75</ele><time>2026-04-25T10:06:05.917Z</time></trkpt><trkpt lat="43.99500925352167" lon="11.268846646692525"><ele>338.5</ele><time>2026-04-25T10:06:06.917Z</time></trkpt><trkpt lat="43.995116945181415" lon="11.26874116302436"><ele>339.25</ele><time>2026-04-25T10:06:07.917Z</time></trkpt><trkpt lat="43.99519615200891" lon="11.268626817883522"><ele>340.0</ele><time>2026-04-25T10:06:08.917Z</time></trkpt><trkpt lat="43.9952729573981" lon="11.26852119343712"><ele>340.0</ele><time>2026-04-25T10:06:09.917Z</time></trkpt><trkpt lat="43.99536025709156" lon="11.268452505267195"><ele>340.0</ele><time>2026-04-25T10:06:10.917Z</time></trkpt><trkpt lat="43.995456405736896" lon="11.268426009881921"><ele>340.0</ele><time>2026-04-25T10:06:11.917Z</time></trkpt><trkpt lat="43.99556788327135" lon="11.268383312157681"><ele>340.0</ele><time>2026-04-25T10:06:12.917Z</time></trkpt><trkpt lat="43.99569238310908" lon="11.268358514873446"><ele>340.0</ele><time>2026-04-25T10:06:13.917Z</time></trkpt><trkpt lat="43.995822287067035" lon="11.268326041506429"><ele>339.5</ele><time>2026-04-25T10:06:14.917Z</time></trkpt><trkpt lat="43.99594461328955" lon="11.268328455520853"><ele>339.0</ele><time>2026-04-25T10:06:15.917Z</time></trkpt><trkpt lat="43.99605013123146" lon="11.268319186077205"><ele>338.5</ele><time>2026-04-25T10:06:16.917Z</time></trkpt><trkpt lat="43.996147150546356" lon="11.26838911883182"><ele>338.0</ele><time>2026-04-25T10:06:17.917Z</time></trkpt><trkpt lat="43.996244599595116" lon="11.268505192513569"><ele>338.0</ele><time>2026-04-25T10:06:18.917Z</time></trkpt><trkpt lat="43.99634952844312" lon="11.268638940431106"><ele>338.0</ele><time>2026-04-25T10:06:19.917Z</time></trkpt><trkpt lat="43.996470755756675" lon="11.268754864145821"><ele>338.0</ele><time>2026-04-25T10:06:20.917Z</time></trkpt><trkpt lat="43.99660037014984" lon="11.268849565626182"><ele>338.0</ele><time>2026-04-25T10:06:21.917Z</time></trkpt><trkpt lat="43.99674051497909" lon="11.26892239430028"><ele>338.6666666666667</ele><time>2026-04-25T10:06:22.917Z</time></trkpt><trkpt lat="43.996891498418464" lon="11.268984574108458"><ele>339.3333333333333</ele><time>2026-04-25T10:06:23.917Z</time></trkpt><trkpt lat="43.9970601462204" lon="11.26896719457742"><ele>340.0</ele><time>2026-04-25T10:06:24.917Z</time></trkpt><trkpt lat="43.99724143744469" lon="11.268969496223045"><ele>340.0</ele><time>2026-04-25T10:06:25.917Z</time></trkpt><trkpt lat="43.997421996107754" lon="11.268956521750317"><ele>340.0</ele><time>2026-04-25T10:06:26.917Z</time></trkpt><trkpt lat="43.99759072434767" lon="11.268945628578047"><ele>340.0</ele><time>2026-04-25T10:06:27.917Z</time></trkpt><trkpt lat="43.99774656426353" lon="11.268935371927066"><ele>341.0</ele><time>2026-04-25T10:06:28.917Z</time></trkpt><trkpt lat="43.99789483345181" lon="11.268928112112924"><ele>342.0</ele><time>2026-04-25T10:06:29.917Z</time></trkpt><trkpt lat="43.998032582812236" lon="11.268943308313649"><ele>343.0</ele><time>2026-04-25T10:06:30.917Z</time></trkpt><trkpt lat="43.99817382675229" lon="11.268974715681393"><ele>344.0</ele><time>2026-04-25T10:06:31.917Z</time></trkpt><trkpt lat="43.99832154398869" lon="11.269009325930917"><ele>345.0</ele><time>2026-04-25T10:06:32.917Z</time></trkpt><trkpt lat="43.99847156874529" lon="11.269044476768315"><ele>346.0</ele><time>2026-04-25T10:06:33.917Z</time></trkpt><trkpt lat="43.998620783404334" lon="11.269079437863494"><ele>347.0</ele><time>2026-04-25T10:06:34.917Z</time></trkpt><trkpt lat="43.99876274599861" lon="11.269112699777313"><ele>348.0</ele><time>2026-04-25T10:06:35.917Z</time></trkpt><trkpt lat="43.99889565573153" lon="11.269144057567306"><ele>348.0</ele><time>2026-04-25T10:06:36.917Z</time></trkpt><trkpt lat="43.999038587631844" lon="11.269177805176872"><ele>348.0</ele><time>2026-04-25T10:06:37.917Z</time></trkpt><trkpt lat="43.99917602229076" lon="11.269210254828094"><ele>348.0</ele><time>2026-04-25T10:06:38.917Z</time></trkpt><trkpt lat="43.99932860975167" lon="11.26924628218818"><ele>348.0</ele><time>2026-04-25T10:06:39.917Z</time></trkpt><trkpt lat="43.99948315627654" lon="11.269282772086955"><ele>347.0</ele><time>2026-04-25T10:06:40.917Z</time></trkpt><trkpt lat="43.99965275445844" lon="11.269322815822521"><ele>346.0</ele><time>2026-04-25T10:06:41.917Z</time></trkpt><trkpt lat="43.999827144799184" lon="11.269365561352386"><ele>345.0</ele><time>2026-04-25T10:06:42.917Z</time></trkpt><trkpt lat="44.00000253909393" lon="11.269408905040503"><ele>345.0</ele><time>2026-04-25T10:06:43.917Z</time></trkpt><trkpt lat="44.000184801716536" lon="11.269430861101423"><ele>345.0</ele><time>2026-04-25T10:06:44.917Z</time></trkpt><trkpt lat="44.00036860922904" lon="11.269487317603907"><ele>345.0</ele><time>2026-04-25T10:06:45.917Z</time></trkpt><trkpt lat="44.00054693499041" lon="11.269540056664802"><ele>345.0</ele><time>2026-04-25T10:06:46.917Z</time></trkpt><trkpt lat="44.000716237583156" lon="11.26957921608331"><ele>345.0</ele><time>2026-04-25T10:06:47.917Z</time></trkpt><trkpt lat="44.000890428495694" lon="11.269619925833918"><ele>345.0</ele><time>2026-04-25T10:06:48.917Z</time></trkpt><trkpt lat="44.001038340304035" lon="11.269650852961668"><ele>344.25</ele><time>2026-04-25T10:06:49.917Z</time></trkpt><trkpt lat="44.001186667118226" lon="11.269685499147464"><ele>343.5</ele><time>2026-04-25T10:06:50.917Z</time></trkpt><trkpt lat="44.001334855199445" lon="11.269718632547454"><ele>342.75</ele><time>2026-04-25T10:06:51.917Z</time></trkpt><trkpt lat="44.00147891095646" lon="11.269731640013283"><ele>342.0</ele><time>2026-04-25T10:06:52.917Z</time></trkpt><trkpt lat="44.00161074646981" lon="11.269744922384945"><ele>343.5</ele><time>2026-04-25T10:06:53.917Z</time></trkpt><trkpt lat="44.00173947808947" lon="11.269754873013216"><ele>345.0</ele><time>2026-04-25T10:06:54.917Z</time></trkpt><trkpt lat="44.001865893747215" lon="11.269764173208626"><ele>346.5</ele><time>2026-04-25T10:06:55.917Z</time></trkpt><trkpt lat="44.00199039716766" lon="11.269699538981627"><ele>348.0</ele><time>2026-04-25T10:06:56.917Z</time></trkpt><trkpt lat="44.0020987368646" lon="11.269564836092547"><ele>348.0</ele><time>2026-04-25T10:06:57.917Z</time></trkpt><trkpt lat="44.00220514401708" lon="11.269446119997554"><ele>348.0</ele><time>2026-04-25T10:06:58.916Z</time></trkpt><trkpt lat="44.00231813757496" lon="11.269348706947035"><ele>348.0</ele><time>2026-04-25T10:06:59.916Z</time></trkpt><trkpt lat="44.0024378483165" lon="11.269277469467568"><ele>348.0</ele><time>2026-04-25T10:07:00.916Z</time></trkpt><trkpt lat="44.002552479982434" lon="11.269236224819016"><ele>350.25</ele><time>2026-04-25T10:07:01.916Z</time></trkpt><trkpt lat="44.002680091842336" lon="11.269223047906072"><ele>352.5</ele><time>2026-04-25T10:07:02.915Z</time></trkpt><trkpt lat="44.002817106339506" lon="11.269257319952027"><ele>354.75</ele><time>2026-04-25T10:07:03.915Z</time></trkpt><trkpt lat="44.00295811398008" lon="11.2693228690092"><ele>357.0</ele><time>2026-04-25T10:07:04.916Z</time></trkpt><trkpt lat="44.00310949120608" lon="11.269392538465603"><ele>357.0</ele><time>2026-04-25T10:07:05.916Z</time></trkpt><trkpt lat="44.00326588711306" lon="11.269471579506925"><ele>357.0</ele><time>2026-04-25T10:07:06.916Z</time></trkpt><trkpt lat="44.00341832586622" lon="11.269539657319713"><ele>357.0</ele><time>2026-04-25T10:07:07.916Z</time></trkpt><trkpt lat="44.00356607717833" lon="11.269596229239179"><ele>359.25</ele><time>2026-04-25T10:07:08.915Z</time></trkpt><trkpt lat="44.00371100261174" lon="11.26963866599897"><ele>361.5</ele><time>2026-04-25T10:07:09.915Z</time></trkpt><trkpt lat="44.00384638470683" lon="11.269673084882555"><ele>363.75</ele><time>2026-04-25T10:07:10.915Z</time></trkpt><trkpt lat="44.003974204082546" lon="11.26973155519289"><ele>366.0</ele><time>2026-04-25T10:07:11.916Z</time></trkpt><trkpt lat="44.00410002781472" lon="11.269804412661852"><ele>367.5</ele><time>2026-04-25T10:07:12.916Z</time></trkpt><trkpt lat="44.00421712942719" lon="11.269897493776986"><ele>369.0</ele><time>2026-04-25T10:07:13.916Z</time></trkpt><trkpt lat="44.0043393131426" lon="11.270000960812375"><ele>370.5</ele><time>2026-04-25T10:07:14.916Z</time></trkpt><trkpt lat="44.00446148988244" lon="11.270086351542457"><ele>372.0</ele><time>2026-04-25T10:07:15.916Z</time></trkpt><trkpt lat="44.0045852468891" lon="11.27017866968058"><ele>372.0</ele><time>2026-04-25T10:07:16.916Z</time></trkpt><trkpt lat="44.00470159363041" lon="11.270292227683903"><ele>372.0</ele><time>2026-04-25T10:07:17.916Z</time></trkpt><trkpt lat="44.00482420108879" lon="11.270377578364231"><ele>372.0</ele><time>2026-04-25T10:07:18.916Z</time></trkpt><trkpt lat="44.00495313814566" lon="11.27044478203925"><ele>372.0</ele><time>2026-04-25T10:07:19.916Z</time></trkpt><trkpt lat="44.005093789373234" lon="11.270485226363718"><ele>371.0</ele><time>2026-04-25T10:07:20.916Z</time></trkpt><trkpt lat="44.00524073851987" lon="11.27047908145063"><ele>370.0</ele><time>2026-04-25T10:07:21.916Z</time></trkpt><trkpt lat="44.005385579348314" lon="11.270449186419203"><ele>369.0</ele><time>2026-04-25T10:07:22.916Z</time></trkpt><trkpt lat="44.00551952441451" lon="11.270406433316145"><ele>368.0</ele><time>2026-04-25T10:07:23.916Z</time></trkpt><trkpt lat="44.00565567924836" lon="11.270385877560578"><ele>368.0</ele><time>2026-04-25T10:07:24.916Z</time></trkpt><trkpt lat="44.00578673821065" lon="11.27040222888878"><ele>368.0</ele><time>2026-04-25T10:07:25.916Z</time></trkpt><trkpt lat="44.005907035646715" lon="11.270474292825092"><ele>368.0</ele><time>2026-04-25T10:07:26.916Z</time></trkpt><trkpt lat="44.00604509368197" lon="11.270570369806203"><ele>368.0</ele><time>2026-04-25T10:07:27.916Z</time></trkpt><trkpt lat="44.00618327618384" lon="11.270642097142371"><ele>370.0</ele><time>2026-04-25T10:07:28.916Z</time></trkpt><trkpt lat="44.00631226074854" lon="11.270729271773932"><ele>372.0</ele><time>2026-04-25T10:07:29.916Z</time></trkpt><trkpt lat="44.00643419896672" lon="11.270810163744173"><ele>374.0</ele><time>2026-04-25T10:07:30.916Z</time></trkpt><trkpt lat="44.00655161070829" lon="11.270883685681406"><ele>376.0</ele><time>2026-04-25T10:07:31.916Z</time></trkpt><trkpt lat="44.0066696190878" lon="11.270957847790328"><ele>379.25</ele><time>2026-04-25T10:07:32.916Z</time></trkpt><trkpt lat="44.00679089174052" lon="11.27103158721703"><ele>382.5</ele><time>2026-04-25T10:07:33.916Z</time></trkpt><trkpt lat="44.006920638167905" lon="11.271105127710813"><ele>385.75</ele><time>2026-04-25T10:07:34.916Z</time></trkpt><trkpt lat="44.00706220781598" lon="11.271179398315706"><ele>389.0</ele><time>2026-04-25T10:07:35.916Z</time></trkpt><trkpt lat="44.00721631521296" lon="11.271261554948937"><ele>389.0</ele><time>2026-04-25T10:07:36.916Z</time></trkpt><trkpt lat="44.00738343206621" lon="11.271350801936844"><ele>389.0</ele><time>2026-04-25T10:07:37.916Z</time></trkpt><trkpt lat="44.007543776596385" lon="11.271446523125173"><ele>389.0</ele><time>2026-04-25T10:07:38.916Z</time></trkpt><trkpt lat="44.00768640408548" lon="11.27153254803232"><ele>390.25</ele><time>2026-04-25T10:07:39.916Z</time></trkpt><trkpt lat="44.0078149139042" lon="11.271600647584863"><ele>391.5</ele><time>2026-04-25T10:07:40.916Z</time></trkpt><trkpt lat="44.00795002965402" lon="11.271653536673872"><ele>392.75</ele><time>2026-04-25T10:07:41.916Z</time></trkpt><trkpt lat="44.00809597189221" lon="11.271687974943593"><ele>394.0</ele><time>2026-04-25T10:07:42.916Z</time></trkpt><trkpt lat="44.008240074068006" lon="11.271692594530611"><ele>395.6666666666667</ele><time>2026-04-25T10:07:43.916Z</time></trkpt><trkpt lat="44.00839038892515" lon="11.271697680687968"><ele>397.33333333333337</ele><time>2026-04-25T10:07:44.916Z</time></trkpt><trkpt lat="44.00855237569419" lon="11.271649197260183"><ele>399.0</ele><time>2026-04-25T10:07:45.916Z</time></trkpt><trkpt lat="44.00871201667867" lon="11.27159647255656"><ele>399.0</ele><time>2026-04-25T10:07:46.916Z</time></trkpt><trkpt lat="44.008868633573194" lon="11.271545844671113"><ele>399.0</ele><time>2026-04-25T10:07:47.916Z</time></trkpt><trkpt lat="44.00902045685809" lon="11.27149139151879"><ele>399.0</ele><time>2026-04-25T10:07:48.916Z</time></trkpt><trkpt lat="44.00915890410308" lon="11.271423966818029"><ele>399.75</ele><time>2026-04-25T10:07:49.916Z</time></trkpt><trkpt lat="44.00927051222899" lon="11.271337238269616"><ele>400.5</ele><time>2026-04-25T10:07:50.916Z</time></trkpt><trkpt lat="44.009376043639996" lon="11.271270460941945"><ele>401.25</ele><time>2026-04-25T10:07:51.916Z</time></trkpt><trkpt lat="44.00948473024795" lon="11.271244239739481"><ele>402.0</ele><time>2026-04-25T10:07:52.916Z</time></trkpt><trkpt lat="44.00961248754986" lon="11.2712146638758"><ele>402.0</ele><time>2026-04-25T10:07:53.916Z</time></trkpt><trkpt lat="44.009749662573846" lon="11.271179217593316"><ele>402.0</ele><time>2026-04-25T10:07:54.916Z</time></trkpt><trkpt lat="44.00990212086601" lon="11.271186940316522"><ele>402.0</ele><time>2026-04-25T10:07:55.916Z</time></trkpt><trkpt lat="44.010049986340576" lon="11.271207472944589"><ele>402.0</ele><time>2026-04-25T10:07:56.916Z</time></trkpt><trkpt lat="44.01019486430452" lon="11.271244847863318"><ele>403.75</ele><time>2026-04-25T10:07:57.916Z</time></trkpt><trkpt lat="44.01033535738533" lon="11.271305633643909"><ele>405.5</ele><time>2026-04-25T10:07:58.916Z</time></trkpt><trkpt lat="44.01046267674266" lon="11.271345308018287"><ele>407.25</ele><time>2026-04-25T10:07:59.916Z</time></trkpt><trkpt lat="44.01057843748391" lon="11.271367829039066"><ele>409.0</ele><time>2026-04-25T10:08:00.916Z</time></trkpt><trkpt lat="44.01069517157573" lon="11.271371669466365"><ele>409.0</ele><time>2026-04-25T10:08:01.916Z</time></trkpt><trkpt lat="44.0108125296791" lon="11.271382265227414"><ele>409.0</ele><time>2026-04-25T10:08:02.916Z</time></trkpt><trkpt lat="44.01095159149291" lon="11.271329744528238"><ele>409.0</ele><time>2026-04-25T10:08:03.916Z</time></trkpt><trkpt lat="44.01109186993957" lon="11.271252207394738"><ele>409.0</ele><time>2026-04-25T10:08:04.916Z</time></trkpt><trkpt lat="44.011225124459486" lon="11.271144206072837"><ele>411.6666666666667</ele><time>2026-04-25T10:08:05.916Z</time></trkpt><trkpt lat="44.011340611583186" lon="11.271030214521021"><ele>414.33333333333337</ele><time>2026-04-25T10:08:06.916Z</time></trkpt><trkpt lat="44.011480019935064" lon="11.270919165783337"><ele>417.0</ele><time>2026-04-25T10:08:07.916Z</time></trkpt><trkpt lat="44.011637236187504" lon="11.27083717923483"><ele>417.33333333333337</ele><time>2026-04-25T10:08:08.916Z</time></trkpt><trkpt lat="44.0117971259998" lon="11.270760335733133"><ele>417.6666666666667</ele><time>2026-04-25T10:08:09.916Z</time></trkpt><trkpt lat="44.01194896442399" lon="11.270686663957031"><ele>418.0</ele><time>2026-04-25T10:08:10.916Z</time></trkpt><trkpt lat="44.01208972346957" lon="11.27061811856628"><ele>417.0</ele><time>2026-04-25T10:08:11.916Z</time></trkpt><trkpt lat="44.012226568347586" lon="11.270552931723651"><ele>416.0</ele><time>2026-04-25T10:08:12.916Z</time></trkpt><trkpt lat="44.012358810068775" lon="11.270491339641707"><ele>415.0</ele><time>2026-04-25T10:08:13.916Z</time></trkpt><trkpt lat="44.01248684521186" lon="11.270433128829849"><ele>414.0</ele><time>2026-04-25T10:08:14.916Z</time></trkpt><trkpt lat="44.01260970200896" lon="11.270354540069938"><ele>417.25</ele><time>2026-04-25T10:08:15.916Z</time></trkpt><trkpt lat="44.01274349351106" lon="11.270312571350253"><ele>420.5</ele><time>2026-04-25T10:08:16.916Z</time></trkpt><trkpt lat="44.01287204480761" lon="11.270257124019755"><ele>423.75</ele><time>2026-04-25T10:08:17.916Z</time></trkpt><trkpt lat="44.012999563658035" lon="11.270220741312638"><ele>427.0</ele><time>2026-04-25T10:08:18.916Z</time></trkpt><trkpt lat="44.01312624686197" lon="11.270193803728477"><ele>427.0</ele><time>2026-04-25T10:08:19.916Z</time></trkpt><trkpt lat="44.01325743654552" lon="11.270182391718881"><ele>427.0</ele><time>2026-04-25T10:08:20.916Z</time></trkpt><trkpt lat="44.013393683883336" lon="11.27020921844162"><ele>427.0</ele><time>2026-04-25T10:08:21.916Z</time></trkpt><trkpt lat="44.01354154244676" lon="11.270259243120009"><ele>427.0</ele><time>2026-04-25T10:08:22.916Z</time></trkpt><trkpt lat="44.01369823518764" lon="11.27033092794106"><ele>430.33333333333337</ele><time>2026-04-25T10:08:23.916Z</time></trkpt><trkpt lat="44.0138694205375" lon="11.270404504397774"><ele>433.66666666666663</ele><time>2026-04-25T10:08:24.916Z</time></trkpt><trkpt lat="44.01403127214882" lon="11.270469723015339"><ele>437.0</ele><time>2026-04-25T10:08:25.916Z</time></trkpt><trkpt lat="44.01417363472196" lon="11.270527588790488"><ele>437.0</ele><time>2026-04-25T10:08:26.916Z</time></trkpt><trkpt lat="44.0142996189877" lon="11.270594109406257"><ele>437.0</ele><time>2026-04-25T10:08:27.916Z</time></trkpt><trkpt lat="44.01441095271551" lon="11.270663005563689"><ele>437.0</ele><time>2026-04-25T10:08:28.916Z</time></trkpt><trkpt lat="44.01451165000281" lon="11.270710709597815"><ele>437.0</ele><time>2026-04-25T10:08:29.916Z</time></trkpt><trkpt lat="44.01460753444027" lon="11.270719071531445"><ele>437.0</ele><time>2026-04-25T10:08:30.916Z</time></trkpt><trkpt lat="44.01469381038323" lon="11.270690737205156"><ele>437.00000000000006</ele><time>2026-04-25T10:08:31.916Z</time></trkpt><trkpt lat="44.01478410731638" lon="11.270656177011693"><ele>437.00000000000006</ele><time>2026-04-25T10:08:32.916Z</time></trkpt><trkpt lat="44.0148922654678" lon="11.270631580062624"><ele>437.0</ele><time>2026-04-25T10:08:33.916Z</time></trkpt><trkpt lat="44.01501571928981" lon="11.270594276474434"><ele>437.0</ele><time>2026-04-25T10:08:34.916Z</time></trkpt><trkpt lat="44.01515292751716" lon="11.270518300575931"><ele>440.0</ele><time>2026-04-25T10:08:35.916Z</time></trkpt><trkpt lat="44.01528785263366" lon="11.270420622765814"><ele>443.0</ele><time>2026-04-25T10:08:36.916Z</time></trkpt><trkpt lat="44.01539913410861" lon="11.270311165733789"><ele>446.0</ele><time>2026-04-25T10:08:37.916Z</time></trkpt><trkpt lat="44.0154889697239" lon="11.270181143742304"><ele>449.0</ele><time>2026-04-25T10:08:38.916Z</time></trkpt><trkpt lat="44.01556034437051" lon="11.270001884865387"><ele>449.0</ele><time>2026-04-25T10:08:39.916Z</time></trkpt><trkpt lat="44.015616783730714" lon="11.269826971310867"><ele>449.0</ele><time>2026-04-25T10:08:40.916Z</time></trkpt><trkpt lat="44.01566342788521" lon="11.269665254413932"><ele>449.0</ele><time>2026-04-25T10:08:41.916Z</time></trkpt><trkpt lat="44.01571088260402" lon="11.269511715614781"><ele>449.0</ele><time>2026-04-25T10:08:42.916Z</time></trkpt><trkpt lat="44.01575929231807" lon="11.26939664764639"><ele>447.4</ele><time>2026-04-25T10:08:43.916Z</time></trkpt><trkpt lat="44.01579596567984" lon="11.269279353671187"><ele>445.79999999999995</ele><time>2026-04-25T10:08:44.916Z</time></trkpt><trkpt lat="44.01586279653579" lon="11.269161894620368"><ele>444.20000000000005</ele><time>2026-04-25T10:08:45.916Z</time></trkpt><trkpt lat="44.01594893688664" lon="11.269067459177737"><ele>442.6</ele><time>2026-04-25T10:08:46.916Z</time></trkpt><trkpt lat="44.01607722405684" lon="11.269002478480475"><ele>441.0</ele><time>2026-04-25T10:08:47.916Z</time></trkpt><trkpt lat="44.016226919155336" lon="11.268944036329327"><ele>442.25</ele><time>2026-04-25T10:08:48.916Z</time></trkpt><trkpt lat="44.01637612455346" lon="11.268899514332938"><ele>443.5</ele><time>2026-04-25T10:08:49.916Z</time></trkpt><trkpt lat="44.01651989296173" lon="11.268878378860292"><ele>444.75</ele><time>2026-04-25T10:08:50.916Z</time></trkpt><trkpt lat="44.01666644473568" lon="11.268894143351393"><ele>446.0</ele><time>2026-04-25T10:08:51.916Z</time></trkpt><trkpt lat="44.01681567708558" lon="11.26893918189373"><ele>453.66666666666663</ele><time>2026-04-25T10:08:52.916Z</time></trkpt><trkpt lat="44.016965150053196" lon="11.269019446827391"><ele>461.33333333333337</ele><time>2026-04-25T10:08:53.916Z</time></trkpt><trkpt lat="44.01710338251868" lon="11.269125931827364"><ele>469.0</ele><time>2026-04-25T10:08:54.916Z</time></trkpt><trkpt lat="44.017233871147624" lon="11.269244018315218"><ele>469.0</ele><time>2026-04-25T10:08:55.916Z</time></trkpt><trkpt lat="44.01736123658799" lon="11.269372350925035"><ele>469.0</ele><time>2026-04-25T10:08:56.916Z</time></trkpt><trkpt lat="44.01748466432703" lon="11.269476836629957"><ele>469.0</ele><time>2026-04-25T10:08:57.916Z</time></trkpt><trkpt lat="44.01759404538447" lon="11.269571825627603"><ele>469.0</ele><time>2026-04-25T10:08:58.916Z</time></trkpt><trkpt lat="44.01770043609237" lon="11.26966155720719"><ele>467.5</ele><time>2026-04-25T10:08:59.916Z</time></trkpt><trkpt lat="44.01781564946631" lon="11.269731182478713"><ele>466.0</ele><time>2026-04-25T10:09:00.916Z</time></trkpt><trkpt lat="44.01794587165035" lon="11.269754085765685"><ele>464.5</ele><time>2026-04-25T10:09:01.916Z</time></trkpt><trkpt lat="44.01808384608991" lon="11.269729179388724"><ele>463.0</ele><time>2026-04-25T10:09:02.916Z</time></trkpt><trkpt lat="44.018237661632035" lon="11.269673433069519"><ele>463.6666666666667</ele><time>2026-04-25T10:09:03.916Z</time></trkpt><trkpt lat="44.01838134927236" lon="11.269538706590172"><ele>464.33333333333337</ele><time>2026-04-25T10:09:04.914Z</time></trkpt><trkpt lat="44.018531573110955" lon="11.269420927390462"><ele>465.0</ele><time>2026-04-25T10:09:05.915Z</time></trkpt><trkpt lat="44.01866920914806" lon="11.269322451027673"><ele>465.0</ele><time>2026-04-25T10:09:06.915Z</time></trkpt><trkpt lat="44.01880417163402" lon="11.269231304456866"><ele>465.0</ele><time>2026-04-25T10:09:07.915Z</time></trkpt><trkpt lat="44.01894488170645" lon="11.269153630826224"><ele>465.0</ele><time>2026-04-25T10:09:08.915Z</time></trkpt><trkpt lat="44.019091637768376" lon="11.269112670203274"><ele>469.0</ele><time>2026-04-25T10:09:09.915Z</time></trkpt><trkpt lat="44.019239094166636" lon="11.26904669589219"><ele>473.0</ele><time>2026-04-25T10:09:10.914Z</time></trkpt><trkpt lat="44.019391469724674" lon="11.269000563981093"><ele>477.0</ele><time>2026-04-25T10:09:11.915Z</time></trkpt><trkpt lat="44.01954391269057" lon="11.268963103237049"><ele>473.0</ele><time>2026-04-25T10:09:12.915Z</time></trkpt><trkpt lat="44.019691510199564" lon="11.268906626605265"><ele>469.0</ele><time>2026-04-25T10:09:13.915Z</time></trkpt><trkpt lat="44.019841577111706" lon="11.26884517489692"><ele>465.0</ele><time>2026-04-25T10:09:14.914Z</time></trkpt><trkpt lat="44.01997761531688" lon="11.26874378495979"><ele>471.33333333333337</ele><time>2026-04-25T10:09:15.914Z</time></trkpt><trkpt lat="44.020098610968745" lon="11.268599761928602"><ele>477.6666666666667</ele><time>2026-04-25T10:09:16.914Z</time></trkpt><trkpt lat="44.02021204374661" lon="11.268458097327517"><ele>484.0</ele><time>2026-04-25T10:09:17.914Z</time></trkpt><trkpt lat="44.02032667271177" lon="11.268329810705485"><ele>484.0</ele><time>2026-04-25T10:09:18.914Z</time></trkpt><trkpt lat="44.020425201009814" lon="11.26821504910155"><ele>484.0</ele><time>2026-04-25T10:09:19.914Z</time></trkpt><trkpt lat="44.02052444381895" lon="11.268120549877086"><ele>484.0</ele><time>2026-04-25T10:09:20.914Z</time></trkpt><trkpt lat="44.02064434214494" lon="11.26807758803297"><ele>484.0</ele><time>2026-04-25T10:09:21.914Z</time></trkpt><trkpt lat="44.020776979009234" lon="11.268062451874492"><ele>484.0</ele><time>2026-04-25T10:09:22.914Z</time></trkpt><trkpt lat="44.02091125306622" lon="11.268048970678379"><ele>484.0</ele><time>2026-04-25T10:09:23.914Z</time></trkpt><trkpt lat="44.02105650884299" lon="11.268051369934902"><ele>484.0</ele><time>2026-04-25T10:09:24.914Z</time></trkpt><trkpt lat="44.0212106964942" lon="11.268026965311238"><ele>484.0</ele><time>2026-04-25T10:09:25.914Z</time></trkpt><trkpt lat="44.02136483105468" lon="11.268000291768521"><ele>484.0</ele><time>2026-04-25T10:09:26.914Z</time></trkpt><trkpt lat="44.02151320682708" lon="11.267974578053968"><ele>484.0</ele><time>2026-04-25T10:09:27.914Z</time></trkpt><trkpt lat="44.021648869874625" lon="11.267906164821342"><ele>484.0</ele><time>2026-04-25T10:09:28.914Z</time></trkpt><trkpt lat="44.02178373855712" lon="11.267820391789545"><ele>484.0</ele><time>2026-04-25T10:09:29.914Z</time></trkpt><trkpt lat="44.02191839920888" lon="11.267751845734859"><ele>485.33333333333337</ele><time>2026-04-25T10:09:30.914Z</time></trkpt><trkpt lat="44.02205356907454" lon="11.267670100230985"><ele>486.66666666666663</ele><time>2026-04-25T10:09:31.914Z</time></trkpt><trkpt lat="44.02220333179947" lon="11.267591482375092"><ele>488.0</ele><time>2026-04-25T10:09:32.914Z</time></trkpt><trkpt lat="44.02236562984706" lon="11.267530354007667"><ele>490.0</ele><time>2026-04-25T10:09:33.914Z</time></trkpt><trkpt lat="44.02253753822062" lon="11.26748128734751"><ele>492.0</ele><time>2026-04-25T10:09:34.914Z</time></trkpt><trkpt lat="44.022701259076065" lon="11.267461277264113"><ele>494.0</ele><time>2026-04-25T10:09:35.914Z</time></trkpt><trkpt lat="44.02286369005695" lon="11.267461484458595"><ele>494.0</ele><time>2026-04-25T10:09:36.914Z</time></trkpt><trkpt lat="44.023011341338915" lon="11.267448831798438"><ele>494.0</ele><time>2026-04-25T10:09:37.914Z</time></trkpt><trkpt lat="44.02314953126857" lon="11.267433552565393"><ele>494.0</ele><time>2026-04-25T10:09:38.914Z</time></trkpt><trkpt lat="44.02327299681779" lon="11.267421791504363"><ele>494.0</ele><time>2026-04-25T10:09:39.914Z</time></trkpt><trkpt lat="44.02339284531124" lon="11.267380636256428"><ele>494.25</ele><time>2026-04-25T10:09:40.914Z</time></trkpt><trkpt lat="44.023528250558385" lon="11.267323410615667"><ele>494.5</ele><time>2026-04-25T10:09:41.914Z</time></trkpt><trkpt lat="44.023652752449834" lon="11.267209246187406"><ele>494.75</ele><time>2026-04-25T10:09:42.914Z</time></trkpt><trkpt lat="44.02376293911074" lon="11.267075069178937"><ele>495.0</ele><time>2026-04-25T10:09:43.914Z</time></trkpt><trkpt lat="44.02386023094719" lon="11.266948153263153"><ele>497.25</ele><time>2026-04-25T10:09:44.914Z</time></trkpt><trkpt lat="44.02394886084309" lon="11.266812191570176"><ele>499.5</ele><time>2026-04-25T10:09:45.914Z</time></trkpt><trkpt lat="44.02400885187877" lon="11.266653628084859"><ele>501.75</ele><time>2026-04-25T10:09:46.914Z</time></trkpt><trkpt lat="44.02407100109491" lon="11.26651614611385"><ele>504.0</ele><time>2026-04-25T10:09:47.914Z</time></trkpt><trkpt lat="44.024162796982914" lon="11.266411168966828"><ele>505.6</ele><time>2026-04-25T10:09:48.914Z</time></trkpt><trkpt lat="44.02426184985987" lon="11.26631180697021"><ele>507.2</ele><time>2026-04-25T10:09:49.914Z</time></trkpt><trkpt lat="44.0243642776289" lon="11.266211698612354"><ele>508.80000000000007</ele><time>2026-04-25T10:09:50.914Z</time></trkpt><trkpt lat="44.0244519705763" lon="11.266129288203137"><ele>510.40000000000003</ele><time>2026-04-25T10:09:51.914Z</time></trkpt><trkpt lat="44.02453001186783" lon="11.26606237651822"><ele>512.0</ele><time>2026-04-25T10:09:52.914Z</time></trkpt><trkpt lat="44.02463668592717" lon="11.26605377065515"><ele>512.0</ele><time>2026-04-25T10:09:53.914Z</time></trkpt><trkpt lat="44.02474084053731" lon="11.26606999799406"><ele>512.0</ele><time>2026-04-25T10:09:54.914Z</time></trkpt><trkpt lat="44.02485014456716" lon="11.266068587268245"><ele>512.0</ele><time>2026-04-25T10:09:55.914Z</time></trkpt><trkpt lat="44.0249650491721" lon="11.26602875400722"><ele>512.0</ele><time>2026-04-25T10:09:56.914Z</time></trkpt><trkpt lat="44.02509522642032" lon="11.2659326799228"><ele>511.75</ele><time>2026-04-25T10:09:57.914Z</time></trkpt><trkpt lat="44.02521599716649" lon="11.265796713753588"><ele>511.5</ele><time>2026-04-25T10:09:58.914Z</time></trkpt><trkpt lat="44.02532682481696" lon="11.265666375498052"><ele>511.25</ele><time>2026-04-25T10:09:59.914Z</time></trkpt><trkpt lat="44.025429180845975" lon="11.265535750150704"><ele>511.0</ele><time>2026-04-25T10:10:00.914Z</time></trkpt><trkpt lat="44.02553190294049" lon="11.265402574662755"><ele>511.0</ele><time>2026-04-25T10:10:01.914Z</time></trkpt><trkpt lat="44.02563253053858" lon="11.265270779274095"><ele>511.0</ele><time>2026-04-25T10:10:02.914Z</time></trkpt><trkpt lat="44.025730186489504" lon="11.265149526868333"><ele>511.0</ele><time>2026-04-25T10:10:03.914Z</time></trkpt><trkpt lat="44.02583382912148" lon="11.26504819375642"><ele>511.0</ele><time>2026-04-25T10:10:04.914Z</time></trkpt><trkpt lat="44.02593541049344" lon="11.264966188855983"><ele>508.5</ele><time>2026-04-25T10:10:05.914Z</time></trkpt><trkpt lat="44.026029369478174" lon="11.264892058841578"><ele>506.0</ele><time>2026-04-25T10:10:06.914Z</time></trkpt><trkpt lat="44.026116704625025" lon="11.2647904483252"><ele>503.5</ele><time>2026-04-25T10:10:07.914Z</time></trkpt><trkpt lat="44.02620233875972" lon="11.264695775980659"><ele>501.0</ele><time>2026-04-25T10:10:08.914Z</time></trkpt><trkpt lat="44.02625612788843" lon="11.264541481639512"><ele>501.0</ele><time>2026-04-25T10:10:09.914Z</time></trkpt><trkpt lat="44.02628776661781" lon="11.264376298654177"><ele>501.0</ele><time>2026-04-25T10:10:10.914Z</time></trkpt><trkpt lat="44.0263195929395" lon="11.264228717072548"><ele>501.0</ele><time>2026-04-25T10:10:11.914Z</time></trkpt><trkpt lat="44.0263625001589" lon="11.264091921370534"><ele>501.0</ele><time>2026-04-25T10:10:12.914Z</time></trkpt><trkpt lat="44.02640527046587" lon="11.263988274881253"><ele>501.0</ele><time>2026-04-25T10:10:13.914Z</time></trkpt><trkpt lat="44.02642514446283" lon="11.263902039188416"><ele>501.0</ele><time>2026-04-25T10:10:14.914Z</time></trkpt><trkpt lat="44.02648329037737" lon="11.263819988639364"><ele>501.0</ele><time>2026-04-25T10:10:16.914Z</time></trkpt><trkpt lat="44.026595202394795" lon="11.263764368504278"><ele>501.0</ele><time>2026-04-25T10:10:18.914Z</time></trkpt><trkpt lat="44.02668273938177" lon="11.26376635003904"><ele>501.0</ele><time>2026-04-25T10:10:19.914Z</time></trkpt><trkpt lat="44.02679502579429" lon="11.26381180260077"><ele>501.0</ele><time>2026-04-25T10:10:20.914Z</time></trkpt><trkpt lat="44.026924698551305" lon="11.263870927781694"><ele>493.5</ele><time>2026-04-25T10:10:21.914Z</time></trkpt><trkpt lat="44.02705377874696" lon="11.263929051115927"><ele>486.0</ele><time>2026-04-25T10:10:22.914Z</time></trkpt><trkpt lat="44.02717558076238" lon="11.26395876159821"><ele>478.5</ele><time>2026-04-25T10:10:23.914Z</time></trkpt><trkpt lat="44.02731261086875" lon="11.263975176848126"><ele>471.0</ele><time>2026-04-25T10:10:24.914Z</time></trkpt><trkpt lat="44.027447415896226" lon="11.263984449088113"><ele>470.5</ele><time>2026-04-25T10:10:25.914Z</time></trkpt><trkpt lat="44.027567384339605" lon="11.263947880069535"><ele>470.0</ele><time>2026-04-25T10:10:26.914Z</time></trkpt><trkpt lat="44.02767223870346" lon="11.263872043423188"><ele>469.5</ele><time>2026-04-25T10:10:27.916Z</time></trkpt><trkpt lat="44.02775667743637" lon="11.263744288914125"><ele>469.0</ele><time>2026-04-25T10:10:28.917Z</time></trkpt><trkpt lat="44.02783559951387" lon="11.26356919183207"><ele>468.25</ele><time>2026-04-25T10:10:29.918Z</time></trkpt><trkpt lat="44.02789247666864" lon="11.263386628724906"><ele>467.5</ele><time>2026-04-25T10:10:30.919Z</time></trkpt><trkpt lat="44.02793624741782" lon="11.263213913088801"><ele>466.75</ele><time>2026-04-25T10:10:31.92Z</time></trkpt><trkpt lat="44.02797214922416" lon="11.26305452217533"><ele>466.0</ele><time>2026-04-25T10:10:32.92Z</time></trkpt><trkpt lat="44.0280183057996" lon="11.262918267855316"><ele>466.4</ele><time>2026-04-25T10:10:33.921Z</time></trkpt><trkpt lat="44.02808949716661" lon="11.262811519517603"><ele>466.8</ele><time>2026-04-25T10:10:34.922Z</time></trkpt><trkpt lat="44.028172964983106" lon="11.262718480269388"><ele>467.19999999999993</ele><time>2026-04-25T10:10:35.923Z</time></trkpt><trkpt lat="44.02827872548082" lon="11.262657305618898"><ele>467.59999999999997</ele><time>2026-04-25T10:10:36.923Z</time></trkpt><trkpt lat="44.0283957494417" lon="11.262610597502503"><ele>468.0</ele><time>2026-04-25T10:10:37.924Z</time></trkpt><trkpt lat="44.02850304510475" lon="11.262524639766804"><ele>468.0</ele><time>2026-04-25T10:10:38.925Z</time></trkpt><trkpt lat="44.028608509419044" lon="11.2624103778024"><ele>468.0</ele><time>2026-04-25T10:10:39.925Z</time></trkpt><trkpt lat="44.0286980787362" lon="11.262270494668273"><ele>468.0</ele><time>2026-04-25T10:10:40.926Z</time></trkpt><trkpt lat="44.02876649148075" lon="11.262103963157783"><ele>468.0</ele><time>2026-04-25T10:10:41.926Z</time></trkpt><trkpt lat="44.02881312450064" lon="11.261927101144982"><ele>466.5</ele><time>2026-04-25T10:10:42.927Z</time></trkpt><trkpt lat="44.02885232998698" lon="11.26174392203955"><ele>465.0</ele><time>2026-04-25T10:10:43.927Z</time></trkpt><trkpt lat="44.028911052916385" lon="11.261576082611233"><ele>463.5</ele><time>2026-04-25T10:10:44.927Z</time></trkpt><trkpt lat="44.02896540803017" lon="11.261404871108637"><ele>462.0</ele><time>2026-04-25T10:10:45.928Z</time></trkpt><trkpt lat="44.02901531802696" lon="11.26123967928851"><ele>461.25</ele><time>2026-04-25T10:10:46.928Z</time></trkpt><trkpt lat="44.02909899550216" lon="11.261115241243298"><ele>460.5</ele><time>2026-04-25T10:10:47.929Z</time></trkpt><trkpt lat="44.02919294815939" lon="11.261024516438834"><ele>459.75</ele><time>2026-04-25T10:10:48.929Z</time></trkpt><trkpt lat="44.029310341986545" lon="11.260970149622338"><ele>459.0</ele><time>2026-04-25T10:10:49.929Z</time></trkpt><trkpt lat="44.0294369097021" lon="11.260924866831855"><ele>459.0</ele><time>2026-04-25T10:10:50.929Z</time></trkpt><trkpt lat="44.029586767652845" lon="11.260871614034096"><ele>459.0</ele><time>2026-04-25T10:10:51.93Z</time></trkpt><trkpt lat="44.02973310846746" lon="11.260815051956355"><ele>459.0</ele><time>2026-04-25T10:10:52.93Z</time></trkpt><trkpt lat="44.029877342251275" lon="11.260768135001099"><ele>457.33333333333337</ele><time>2026-04-25T10:10:53.93Z</time></trkpt><trkpt lat="44.03003163720708" lon="11.260761186889928"><ele>455.6666666666667</ele><time>2026-04-25T10:10:54.93Z</time></trkpt><trkpt lat="44.03022140048781" lon="11.260801383445562"><ele>454.0</ele><time>2026-04-25T10:10:55.93Z</time></trkpt><trkpt lat="44.030433756480946" lon="11.260876017942893"><ele>454.0</ele><time>2026-04-25T10:10:56.931Z</time></trkpt><trkpt lat="44.03066844195957" lon="11.260948365130421"><ele>454.0</ele><time>2026-04-25T10:10:57.931Z</time></trkpt><trkpt lat="44.03091554219859" lon="11.261017142973946"><ele>451.5</ele><time>2026-04-25T10:10:58.931Z</time></trkpt><trkpt lat="44.03117134697303" lon="11.261120310152341"><ele>449.0</ele><time>2026-04-25T10:10:59.931Z</time></trkpt><trkpt lat="44.03142376051636" lon="11.261201927761352"><ele>450.5</ele><time>2026-04-25T10:11:00.931Z</time></trkpt><trkpt lat="44.031672176228334" lon="11.26125945400069"><ele>452.0</ele><time>2026-04-25T10:11:01.931Z</time></trkpt><trkpt lat="44.03188538902046" lon="11.261342816022928"><ele>452.0</ele><time>2026-04-25T10:11:02.932Z</time></trkpt><trkpt lat="44.032107176268696" lon="11.261420459400282"><ele>452.0</ele><time>2026-04-25T10:11:03.932Z</time></trkpt><trkpt lat="44.03232834173501" lon="11.261489337057744"><ele>450.66666666666663</ele><time>2026-04-25T10:11:04.932Z</time></trkpt><trkpt lat="44.032541780879576" lon="11.261553233119985"><ele>449.33333333333337</ele><time>2026-04-25T10:11:05.932Z</time></trkpt><trkpt lat="44.03275640664563" lon="11.26163006062715"><ele>448.0</ele><time>2026-04-25T10:11:06.932Z</time></trkpt><trkpt lat="44.03296553249012" lon="11.26169170391851"><ele>448.0</ele><time>2026-04-25T10:11:07.932Z</time></trkpt><trkpt lat="44.03317633133236" lon="11.261755163192873"><ele>448.0</ele><time>2026-04-25T10:11:08.932Z</time></trkpt><trkpt lat="44.03337464406152" lon="11.261817932787375"><ele>448.0</ele><time>2026-04-25T10:11:09.932Z</time></trkpt><trkpt lat="44.03356639695927" lon="11.261878314770073"><ele>451.6666666666667</ele><time>2026-04-25T10:11:10.932Z</time></trkpt><trkpt lat="44.03374078909942" lon="11.261934777544027"><ele>455.33333333333337</ele><time>2026-04-25T10:11:11.931Z</time></trkpt><trkpt lat="44.03391245425855" lon="11.2619944473818"><ele>459.0</ele><time>2026-04-25T10:11:12.932Z</time></trkpt><trkpt lat="44.03407576243591" lon="11.26204934056093"><ele>464.0</ele><time>2026-04-25T10:11:13.932Z</time></trkpt><trkpt lat="44.034233388085234" lon="11.262096447801389"><ele>469.0</ele><time>2026-04-25T10:11:14.932Z</time></trkpt><trkpt lat="44.03439164822555" lon="11.262146718543345"><ele>474.0</ele><time>2026-04-25T10:11:15.932Z</time></trkpt><trkpt lat="44.03453362547347" lon="11.262190591659213"><ele>474.0</ele><time>2026-04-25T10:11:16.932Z</time></trkpt><trkpt lat="44.03468455601266" lon="11.262227787800983"><ele>474.0</ele><time>2026-04-25T10:11:17.932Z</time></trkpt><trkpt lat="44.03483818430457" lon="11.262277619290225"><ele>474.0</ele><time>2026-04-25T10:11:18.932Z</time></trkpt><trkpt lat="44.035010089229864" lon="11.26234614706321"><ele>472.33333333333337</ele><time>2026-04-25T10:11:19.932Z</time></trkpt><trkpt lat="44.03519477880493" lon="11.262413773974076"><ele>470.6666666666667</ele><time>2026-04-25T10:11:20.932Z</time></trkpt><trkpt lat="44.035365450036856" lon="11.262486451495267"><ele>469.0</ele><time>2026-04-25T10:11:21.932Z</time></trkpt><trkpt lat="44.03552676002879" lon="11.26256023133935"><ele>469.0</ele><time>2026-04-25T10:11:22.932Z</time></trkpt><trkpt lat="44.035699295484996" lon="11.262631044302983"><ele>469.0</ele><time>2026-04-25T10:11:23.933Z</time></trkpt><trkpt lat="44.035868086844545" lon="11.262700652146027"><ele>469.0</ele><time>2026-04-25T10:11:24.933Z</time></trkpt><trkpt lat="44.03602164070516" lon="11.2627600429487"><ele>468.0</ele><time>2026-04-25T10:11:25.933Z</time></trkpt><trkpt lat="44.03617005029683" lon="11.26279910784851"><ele>467.0</ele><time>2026-04-25T10:11:26.933Z</time></trkpt><trkpt lat="44.03631616614044" lon="11.262808144528364"><ele>466.0</ele><time>2026-04-25T10:11:27.933Z</time></trkpt><trkpt lat="44.036468428402124" lon="11.262773181464764"><ele>466.0</ele><time>2026-04-25T10:11:28.933Z</time></trkpt><trkpt lat="44.0366327751185" lon="11.26270325145063"><ele>466.0</ele><time>2026-04-25T10:11:29.933Z</time></trkpt><trkpt lat="44.036811359498785" lon="11.262615078075989"><ele>466.0</ele><time>2026-04-25T10:11:30.933Z</time></trkpt><trkpt lat="44.036995390891924" lon="11.262522379633946"><ele>465.33333333333337</ele><time>2026-04-25T10:11:31.933Z</time></trkpt><trkpt lat="44.03718508189223" lon="11.262423581073747"><ele>464.66666666666663</ele><time>2026-04-25T10:11:32.933Z</time></trkpt><trkpt lat="44.03737428527267" lon="11.262323390500786"><ele>464.0</ele><time>2026-04-25T10:11:33.933Z</time></trkpt><trkpt lat="44.037575531107784" lon="11.262219808864318"><ele>466.3333333333333</ele><time>2026-04-25T10:11:34.933Z</time></trkpt><trkpt lat="44.03777468296901" lon="11.262107996537324"><ele>468.66666666666663</ele><time>2026-04-25T10:11:35.933Z</time></trkpt><trkpt lat="44.037975197773754" lon="11.261992571469301"><ele>471.0</ele><time>2026-04-25T10:11:36.933Z</time></trkpt><trkpt lat="44.03817254026481" lon="11.261872261516073"><ele>469.0</ele><time>2026-04-25T10:11:37.933Z</time></trkpt><trkpt lat="44.03836753105015" lon="11.261754989767125"><ele>467.0</ele><time>2026-04-25T10:11:38.933Z</time></trkpt><trkpt lat="44.038560036665146" lon="11.261639600893105"><ele>465.0</ele><time>2026-04-25T10:11:39.933Z</time></trkpt><trkpt lat="44.03874764220912" lon="11.261522735776857"><ele>467.33333333333337</ele><time>2026-04-25T10:11:40.933Z</time></trkpt><trkpt lat="44.03893598912366" lon="11.261399541481744"><ele>469.6666666666667</ele><time>2026-04-25T10:11:41.933Z</time></trkpt><trkpt lat="44.03912618429408" lon="11.261291670297764"><ele>472.0</ele><time>2026-04-25T10:11:42.933Z</time></trkpt><trkpt lat="44.03930902890367" lon="11.261178177786112"><ele>472.0</ele><time>2026-04-25T10:11:43.933Z</time></trkpt><trkpt lat="44.03948965243639" lon="11.261073160760754"><ele>472.0</ele><time>2026-04-25T10:11:44.933Z</time></trkpt><trkpt lat="44.03966552109916" lon="11.260965137977015"><ele>472.0</ele><time>2026-04-25T10:11:45.933Z</time></trkpt><trkpt lat="44.03984470534529" lon="11.26086673897538"><ele>471.33333333333337</ele><time>2026-04-25T10:11:46.933Z</time></trkpt><trkpt lat="44.04003375487541" lon="11.260786046829224"><ele>470.66666666666663</ele><time>2026-04-25T10:11:47.933Z</time></trkpt><trkpt lat="44.040230380853515" lon="11.260716590939408"><ele>470.0</ele><time>2026-04-25T10:11:48.933Z</time></trkpt><trkpt lat="44.04043007128652" lon="11.260658494914567"><ele>472.66666666666663</ele><time>2026-04-25T10:11:49.933Z</time></trkpt><trkpt lat="44.040609204647474" lon="11.260599046036011"><ele>475.33333333333337</ele><time>2026-04-25T10:11:50.933Z</time></trkpt><trkpt lat="44.040776558977946" lon="11.260538082600476"><ele>478.0</ele><time>2026-04-25T10:11:51.933Z</time></trkpt><trkpt lat="44.040936081560986" lon="11.260483657199334"><ele>479.5</ele><time>2026-04-25T10:11:52.933Z</time></trkpt><trkpt lat="44.04109038020806" lon="11.260437381945652"><ele>481.0</ele><time>2026-04-25T10:11:53.933Z</time></trkpt><trkpt lat="44.04123534193451" lon="11.260390787876556"><ele>482.5</ele><time>2026-04-25T10:11:54.933Z</time></trkpt><trkpt lat="44.041369475450246" lon="11.260345620688348"><ele>484.0</ele><time>2026-04-25T10:11:55.933Z</time></trkpt><trkpt lat="44.04149323037367" lon="11.260286222783972"><ele>484.0</ele><time>2026-04-25T10:11:56.933Z</time></trkpt><trkpt lat="44.04162111109184" lon="11.26022847625933"><ele>484.0</ele><time>2026-04-25T10:11:57.933Z</time></trkpt><trkpt lat="44.04174940831773" lon="11.260126615468103"><ele>484.0</ele><time>2026-04-25T10:11:58.933Z</time></trkpt><trkpt lat="44.0418608993472" lon="11.259979671904285"><ele>484.0</ele><time>2026-04-25T10:11:59.933Z</time></trkpt><trkpt lat="44.041981695168595" lon="11.259830516948684"><ele>486.25</ele><time>2026-04-25T10:12:00.933Z</time></trkpt><trkpt lat="44.042093453149576" lon="11.259676779889055"><ele>488.5</ele><time>2026-04-25T10:12:01.933Z</time></trkpt><trkpt lat="44.04219085622993" lon="11.259526050200064"><ele>490.75</ele><time>2026-04-25T10:12:02.933Z</time></trkpt><trkpt lat="44.04228382658834" lon="11.25939436724192"><ele>493.0</ele><time>2026-04-25T10:12:03.933Z</time></trkpt><trkpt lat="44.0423663768436" lon="11.259278201865676"><ele>493.0</ele><time>2026-04-25T10:12:04.933Z</time></trkpt><trkpt lat="44.0424424304217" lon="11.25917629736366"><ele>492.99999999999994</ele><time>2026-04-25T10:12:05.933Z</time></trkpt><trkpt lat="44.04253215640687" lon="11.259116153920152"><ele>492.99999999999994</ele><time>2026-04-25T10:12:06.933Z</time></trkpt><trkpt lat="44.04262900676267" lon="11.259081857944734"><ele>493.0</ele><time>2026-04-25T10:12:07.933Z</time></trkpt><trkpt lat="44.04274373232272" lon="11.259047595501135"><ele>493.0</ele><time>2026-04-25T10:12:08.933Z</time></trkpt><trkpt lat="44.042872008223306" lon="11.259014821506831"><ele>493.0</ele><time>2026-04-25T10:12:09.933Z</time></trkpt><trkpt lat="44.04301406540404" lon="11.258989921850082"><ele>493.0</ele><time>2026-04-25T10:12:10.933Z</time></trkpt><trkpt lat="44.04317350049487" lon="11.258973192346208"><ele>493.0</ele><time>2026-04-25T10:12:11.933Z</time></trkpt><trkpt lat="44.04334353645281" lon="11.258961041725696"><ele>491.0</ele><time>2026-04-25T10:12:12.933Z</time></trkpt><trkpt lat="44.043528343030566" lon="11.258944416474854"><ele>489.0</ele><time>2026-04-25T10:12:13.933Z</time></trkpt><trkpt lat="44.04369798432335" lon="11.258926842595779"><ele>487.0</ele><time>2026-04-25T10:12:14.933Z</time></trkpt><trkpt lat="44.04386231370475" lon="11.258898150920523"><ele>487.0</ele><time>2026-04-25T10:12:15.933Z</time></trkpt><trkpt lat="44.044023271697355" lon="11.25885490038447"><ele>487.0</ele><time>2026-04-25T10:12:16.933Z</time></trkpt><trkpt lat="44.04419006275304" lon="11.258802474377672"><ele>487.0</ele><time>2026-04-25T10:12:17.933Z</time></trkpt><trkpt lat="44.044350680940724" lon="11.258731181588525"><ele>488.6666666666667</ele><time>2026-04-25T10:12:18.933Z</time></trkpt><trkpt lat="44.04450957331177" lon="11.258688085868554"><ele>490.33333333333337</ele><time>2026-04-25T10:12:19.933Z</time></trkpt><trkpt lat="44.044660704842904" lon="11.258640643110839"><ele>492.0</ele><time>2026-04-25T10:12:20.933Z</time></trkpt><trkpt lat="44.04480343421383" lon="11.258595969674246"><ele>492.0</ele><time>2026-04-25T10:12:21.933Z</time></trkpt><trkpt lat="44.04494327336155" lon="11.25855507234149"><ele>492.0</ele><time>2026-04-25T10:12:22.933Z</time></trkpt><trkpt lat="44.0450900162833" lon="11.258517364993386"><ele>492.0</ele><time>2026-04-25T10:12:23.933Z</time></trkpt><trkpt lat="44.04524496218864" lon="11.258481973318943"><ele>492.0</ele><time>2026-04-25T10:12:24.933Z</time></trkpt><trkpt lat="44.045408627456496" lon="11.258451517255667"><ele>495.66666666666663</ele><time>2026-04-25T10:12:25.933Z</time></trkpt><trkpt lat="44.04556321136646" lon="11.258384776136309"><ele>499.3333333333333</ele><time>2026-04-25T10:12:26.933Z</time></trkpt><trkpt lat="44.045703145267915" lon="11.258309905526872"><ele>503.0</ele><time>2026-04-25T10:12:27.933Z</time></trkpt><trkpt lat="44.045834748836796" lon="11.258239083985986"><ele>504.75</ele><time>2026-04-25T10:12:28.933Z</time></trkpt><trkpt lat="44.04595789635627" lon="11.258177161581964"><ele>506.5</ele><time>2026-04-25T10:12:29.933Z</time></trkpt><trkpt lat="44.0460676448079" lon="11.258132551798262"><ele>508.25</ele><time>2026-04-25T10:12:30.933Z</time></trkpt><trkpt lat="44.04617939893667" lon="11.258162190994511"><ele>510.0</ele><time>2026-04-25T10:12:31.933Z</time></trkpt><trkpt lat="44.04627958377112" lon="11.258224182104557"><ele>510.0</ele><time>2026-04-25T10:12:32.934Z</time></trkpt><trkpt lat="44.04638573501062" lon="11.258331992720757"><ele>510.0</ele><time>2026-04-25T10:12:33.934Z</time></trkpt><trkpt lat="44.046496230550275" lon="11.258460851915162"><ele>510.0</ele><time>2026-04-25T10:12:34.934Z</time></trkpt><trkpt lat="44.046617936759546" lon="11.258609822476863"><ele>510.0</ele><time>2026-04-25T10:12:35.934Z</time></trkpt><trkpt lat="44.046752164851604" lon="11.258775523841742"><ele>508.33333333333337</ele><time>2026-04-25T10:12:36.934Z</time></trkpt><trkpt lat="44.04690488373713" lon="11.258934267278107"><ele>506.6666666666667</ele><time>2026-04-25T10:12:37.934Z</time></trkpt><trkpt lat="44.047064338569186" lon="11.259095055031132"><ele>505.0</ele><time>2026-04-25T10:12:38.934Z</time></trkpt><trkpt lat="44.04721099150437" lon="11.259246826794111"><ele>503.6666666666667</ele><time>2026-04-25T10:12:39.934Z</time></trkpt><trkpt lat="44.04735522035923" lon="11.2593849615278"><ele>502.33333333333337</ele><time>2026-04-25T10:12:40.934Z</time></trkpt><trkpt lat="44.047496915279574" lon="11.259523871352922"><ele>501.0</ele><time>2026-04-25T10:12:41.934Z</time></trkpt><trkpt lat="44.047630160521905" lon="11.2596810943047"><ele>504.33333333333337</ele><time>2026-04-25T10:12:42.934Z</time></trkpt><trkpt lat="44.04777782585175" lon="11.25981867536002"><ele>507.6666666666667</ele><time>2026-04-25T10:12:43.934Z</time></trkpt><trkpt lat="44.04791618223343" lon="11.259977575198658"><ele>511.0</ele><time>2026-04-25T10:12:44.934Z</time></trkpt><trkpt lat="44.048037389592125" lon="11.260159582954588"><ele>511.0</ele><time>2026-04-25T10:12:45.934Z</time></trkpt><trkpt lat="44.048155997453655" lon="11.260323336933245"><ele>511.0</ele><time>2026-04-25T10:12:46.934Z</time></trkpt><trkpt lat="44.04827787586756" lon="11.260468188540042"><ele>511.0</ele><time>2026-04-25T10:12:47.934Z</time></trkpt><trkpt lat="44.04839373038092" lon="11.260600731633284"><ele>512.75</ele><time>2026-04-25T10:12:48.934Z</time></trkpt><trkpt lat="44.048503713199075" lon="11.260726800822342"><ele>514.5</ele><time>2026-04-25T10:12:49.934Z</time></trkpt><trkpt lat="44.04861646277396" lon="11.260849773383901"><ele>516.25</ele><time>2026-04-25T10:12:50.934Z</time></trkpt><trkpt lat="44.048741497877465" lon="11.260964369434875"><ele>518.0</ele><time>2026-04-25T10:12:51.934Z</time></trkpt><trkpt lat="44.048885299497776" lon="11.261056298522123"><ele>518.0</ele><time>2026-04-25T10:12:52.934Z</time></trkpt><trkpt lat="44.04904858550808" lon="11.26112203057547"><ele>518.0</ele><time>2026-04-25T10:12:53.934Z</time></trkpt><trkpt lat="44.04922088867448" lon="11.261185676575442"><ele>518.0</ele><time>2026-04-25T10:12:54.934Z</time></trkpt><trkpt lat="44.04939641117535" lon="11.261239876092418"><ele>517.3333333333333</ele><time>2026-04-25T10:12:55.934Z</time></trkpt><trkpt lat="44.04958050381781" lon="11.261285378017163"><ele>516.6666666666666</ele><time>2026-04-25T10:12:56.934Z</time></trkpt><trkpt lat="44.04977158401809" lon="11.261315985204023"><ele>516.0</ele><time>2026-04-25T10:12:57.934Z</time></trkpt><trkpt lat="44.04996770031213" lon="11.261328029807533"><ele>516.0</ele><time>2026-04-25T10:12:58.934Z</time></trkpt><trkpt lat="44.05016694759147" lon="11.261319284314789"><ele>516.0</ele><time>2026-04-25T10:12:59.934Z</time></trkpt><trkpt lat="44.05036038239464" lon="11.261284590283601"><ele>516.0</ele><time>2026-04-25T10:13:00.934Z</time></trkpt><trkpt lat="44.0505427744464" lon="11.261266742658721"><ele>516.0</ele><time>2026-04-25T10:13:01.934Z</time></trkpt><trkpt lat="44.05071681071264" lon="11.261193758905938"><ele>516.0</ele><time>2026-04-25T10:13:02.934Z</time></trkpt><trkpt lat="44.05089939395698" lon="11.261118013615818"><ele>516.0</ele><time>2026-04-25T10:13:03.934Z</time></trkpt><trkpt lat="44.051074011927945" lon="11.261057391464663"><ele>516.6666666666666</ele><time>2026-04-25T10:13:04.934Z</time></trkpt><trkpt lat="44.05124370479898" lon="11.26100083389388"><ele>517.3333333333333</ele><time>2026-04-25T10:13:05.934Z</time></trkpt><trkpt lat="44.051388876563145" lon="11.260939995414569"><ele>518.0</ele><time>2026-04-25T10:13:06.934Z</time></trkpt><trkpt lat="44.051542875367616" lon="11.260880416706533"><ele>519.0</ele><time>2026-04-25T10:13:07.934Z</time></trkpt><trkpt lat="44.0516911941551" lon="11.260831605256259"><ele>520.0</ele><time>2026-04-25T10:13:08.934Z</time></trkpt><trkpt lat="44.0518471215699" lon="11.260769433220878"><ele>521.0</ele><time>2026-04-25T10:13:09.934Z</time></trkpt><trkpt lat="44.052008983055515" lon="11.260719608926237"><ele>521.0</ele><time>2026-04-25T10:13:10.934Z</time></trkpt><trkpt lat="44.05216523682905" lon="11.260664835621798"><ele>521.0</ele><time>2026-04-25T10:13:11.934Z</time></trkpt><trkpt lat="44.052322246254555" lon="11.26063384499612"><ele>521.0</ele><time>2026-04-25T10:13:12.934Z</time></trkpt><trkpt lat="44.052467874969246" lon="11.26061955777226"><ele>522.75</ele><time>2026-04-25T10:13:13.934Z</time></trkpt><trkpt lat="44.052599591964814" lon="11.260628453564278"><ele>524.5</ele><time>2026-04-25T10:13:14.934Z</time></trkpt><trkpt lat="44.05271889778153" lon="11.26067661569182"><ele>526.25</ele><time>2026-04-25T10:13:15.934Z</time></trkpt><trkpt lat="44.05284159339765" lon="11.260745930158748"><ele>528.0</ele><time>2026-04-25T10:13:16.933Z</time></trkpt><trkpt lat="44.052964236178994" lon="11.260840395875999"><ele>528.0</ele><time>2026-04-25T10:13:17.933Z</time></trkpt><trkpt lat="44.05308987815329" lon="11.260949777205322"><ele>528.0</ele><time>2026-04-25T10:13:18.933Z</time></trkpt><trkpt lat="44.0532311659387" lon="11.261053369159377"><ele>528.0</ele><time>2026-04-25T10:13:19.932Z</time></trkpt><trkpt lat="44.05337035529477" lon="11.261178490420662"><ele>527.6666666666666</ele><time>2026-04-25T10:13:20.932Z</time></trkpt><trkpt lat="44.053510591542164" lon="11.2613120614589"><ele>527.3333333333333</ele><time>2026-04-25T10:13:21.932Z</time></trkpt><trkpt lat="44.05365963549029" lon="11.261432354899503"><ele>527.0</ele><time>2026-04-25T10:13:22.933Z</time></trkpt><trkpt lat="44.05382130045932" lon="11.261542997259461"><ele>529.3333333333333</ele><time>2026-04-25T10:13:23.932Z</time></trkpt><trkpt lat="44.05401073719357" lon="11.261596941384045"><ele>531.6666666666666</ele><time>2026-04-25T10:13:24.933Z</time></trkpt><trkpt lat="44.054208697927216" lon="11.261674638285369"><ele>534.0</ele><time>2026-04-25T10:13:25.932Z</time></trkpt><trkpt lat="44.05441910857675" lon="11.261777464106514"><ele>534.0</ele><time>2026-04-25T10:13:26.933Z</time></trkpt><trkpt lat="44.05464436879441" lon="11.261870551063927"><ele>534.0</ele><time>2026-04-25T10:13:27.933Z</time></trkpt><trkpt lat="44.0548630354612" lon="11.261954362916274"><ele>532.6666666666666</ele><time>2026-04-25T10:13:28.933Z</time></trkpt><trkpt lat="44.0550696586742" lon="11.262040205207416"><ele>531.3333333333333</ele><time>2026-04-25T10:13:29.933Z</time></trkpt><trkpt lat="44.05526010736606" lon="11.262110994870739"><ele>530.0</ele><time>2026-04-25T10:13:30.933Z</time></trkpt><trkpt lat="44.05544616572664" lon="11.262178810847482"><ele>530.0</ele><time>2026-04-25T10:13:31.933Z</time></trkpt><trkpt lat="44.055616560994466" lon="11.262241864566718"><ele>530.0</ele><time>2026-04-25T10:13:32.933Z</time></trkpt><trkpt lat="44.055782427011394" lon="11.262306702207646"><ele>530.0</ele><time>2026-04-25T10:13:33.933Z</time></trkpt><trkpt lat="44.055940084040444" lon="11.262370822401587"><ele>532.25</ele><time>2026-04-25T10:13:34.933Z</time></trkpt><trkpt lat="44.05608143933078" lon="11.262451442881039"><ele>534.5</ele><time>2026-04-25T10:13:35.933Z</time></trkpt><trkpt lat="44.05620370353096" lon="11.262550415580268"><ele>536.75</ele><time>2026-04-25T10:13:36.933Z</time></trkpt><trkpt lat="44.056306717925054" lon="11.262664978414522"><ele>539.0</ele><time>2026-04-25T10:13:37.933Z</time></trkpt><trkpt lat="44.056401751047" lon="11.262765392571003"><ele>539.0</ele><time>2026-04-25T10:13:38.933Z</time></trkpt><trkpt lat="44.0565023409147" lon="11.2628311873774"><ele>539.0</ele><time>2026-04-25T10:13:39.933Z</time></trkpt><trkpt lat="44.05661342278293" lon="11.262838976150102"><ele>539.0</ele><time>2026-04-25T10:13:40.933Z</time></trkpt><trkpt lat="44.05673034048162" lon="11.26279412355882"><ele>539.0</ele><time>2026-04-25T10:13:41.933Z</time></trkpt><trkpt lat="44.05684450741092" lon="11.262709868130921"><ele>541.25</ele><time>2026-04-25T10:13:42.933Z</time></trkpt><trkpt lat="44.056961896440065" lon="11.262612036217455"><ele>543.5</ele><time>2026-04-25T10:13:43.933Z</time></trkpt><trkpt lat="44.057076798312416" lon="11.262532864071336"><ele>545.75</ele><time>2026-04-25T10:13:44.933Z</time></trkpt><trkpt lat="44.05718243692702" lon="11.2624805096075"><ele>548.0</ele><time>2026-04-25T10:13:45.933Z</time></trkpt><trkpt lat="44.05729703436817" lon="11.26244277164122"><ele>548.0</ele><time>2026-04-25T10:13:46.933Z</time></trkpt><trkpt lat="44.05742662704735" lon="11.26244931105142"><ele>548.0</ele><time>2026-04-25T10:13:47.933Z</time></trkpt><trkpt lat="44.05755596013311" lon="11.262496500576377"><ele>548.0</ele><time>2026-04-25T10:13:48.933Z</time></trkpt><trkpt lat="44.057700479441124" lon="11.262585116995966"><ele>548.0</ele><time>2026-04-25T10:13:49.933Z</time></trkpt><trkpt lat="44.057850855837586" lon="11.262702384668618"><ele>550.3333333333333</ele><time>2026-04-25T10:13:50.933Z</time></trkpt><trkpt lat="44.05800180193848" lon="11.262825873462269"><ele>552.6666666666666</ele><time>2026-04-25T10:13:51.933Z</time></trkpt><trkpt lat="44.05813743150995" lon="11.262936213676037"><ele>555.0</ele><time>2026-04-25T10:13:52.933Z</time></trkpt><trkpt lat="44.058278153611525" lon="11.263024626007844"><ele>556.0</ele><time>2026-04-25T10:13:53.933Z</time></trkpt><trkpt lat="44.058426834274265" lon="11.26307295485764"><ele>557.0</ele><time>2026-04-25T10:13:54.933Z</time></trkpt><trkpt lat="44.05859540744204" lon="11.263074146060513"><ele>558.0</ele><time>2026-04-25T10:13:55.933Z</time></trkpt><trkpt lat="44.05877190895067" lon="11.26305907461221"><ele>558.0</ele><time>2026-04-25T10:13:56.933Z</time></trkpt><trkpt lat="44.05895032744802" lon="11.263045503269106"><ele>558.0</ele><time>2026-04-25T10:13:57.933Z</time></trkpt><trkpt lat="44.059143957294054" lon="11.263039701174131"><ele>558.0</ele><time>2026-04-25T10:13:58.933Z</time></trkpt><trkpt lat="44.05934478892132" lon="11.263043451953195"><ele>560.0</ele><time>2026-04-25T10:13:59.933Z</time></trkpt><trkpt lat="44.05955238028664" lon="11.263044436411178"><ele>562.0</ele><time>2026-04-25T10:14:00.933Z</time></trkpt><trkpt lat="44.059761781470286" lon="11.263042394516738"><ele>564.0</ele><time>2026-04-25T10:14:01.933Z</time></trkpt><trkpt lat="44.05997446581478" lon="11.263039676673024"><ele>567.6666666666666</ele><time>2026-04-25T10:14:02.933Z</time></trkpt><trkpt lat="44.060181099039774" lon="11.263048440321736"><ele>571.3333333333333</ele><time>2026-04-25T10:14:03.933Z</time></trkpt><trkpt lat="44.06038165453793" lon="11.263060932896124"><ele>575.0</ele><time>2026-04-25T10:14:04.933Z</time></trkpt><trkpt lat="44.06056588547118" lon="11.263084238208219"><ele>574.0</ele><time>2026-04-25T10:14:05.933Z</time></trkpt><trkpt lat="44.060744982409055" lon="11.263114291871004"><ele>573.0</ele><time>2026-04-25T10:14:06.933Z</time></trkpt><trkpt lat="44.06092700589641" lon="11.263164037795123"><ele>572.0</ele><time>2026-04-25T10:14:07.933Z</time></trkpt><trkpt lat="44.06110583766642" lon="11.263239841266465"><ele>572.0</ele><time>2026-04-25T10:14:08.933Z</time></trkpt><trkpt lat="44.06128268892055" lon="11.2633578169307"><ele>572.0</ele><time>2026-04-25T10:14:09.933Z</time></trkpt><trkpt lat="44.061460598057174" lon="11.263477379851167"><ele>572.0</ele><time>2026-04-25T10:14:10.933Z</time></trkpt><trkpt lat="44.06163931118822" lon="11.263599960845212"><ele>573.6666666666666</ele><time>2026-04-25T10:14:11.933Z</time></trkpt><trkpt lat="44.061822829062095" lon="11.263722505201446"><ele>575.3333333333334</ele><time>2026-04-25T10:14:12.933Z</time></trkpt><trkpt lat="44.06201357839171" lon="11.263845142339234"><ele>577.0</ele><time>2026-04-25T10:14:13.933Z</time></trkpt><trkpt lat="44.062204100293705" lon="11.26395596971093"><ele>577.3333333333334</ele><time>2026-04-25T10:14:14.933Z</time></trkpt><trkpt lat="44.062377421461946" lon="11.264058495891412"><ele>577.6666666666666</ele><time>2026-04-25T10:14:15.933Z</time></trkpt><trkpt lat="44.0625456313192" lon="11.264160188123913"><ele>578.0</ele><time>2026-04-25T10:14:16.933Z</time></trkpt><trkpt lat="44.06270667630954" lon="11.264270547315142"><ele>581.6666666666666</ele><time>2026-04-25T10:14:17.933Z</time></trkpt><trkpt lat="44.06286489568247" lon="11.264388358950937"><ele>585.3333333333334</ele><time>2026-04-25T10:14:18.933Z</time></trkpt><trkpt lat="44.06300442385943" lon="11.264528775807483"><ele>589.0</ele><time>2026-04-25T10:14:19.933Z</time></trkpt><trkpt lat="44.06312882482732" lon="11.264703462740583"><ele>588.0</ele><time>2026-04-25T10:14:20.933Z</time></trkpt><trkpt lat="44.06323113468693" lon="11.264917081066343"><ele>587.0</ele><time>2026-04-25T10:14:21.933Z</time></trkpt><trkpt lat="44.06331388176029" lon="11.265148343159284"><ele>586.0</ele><time>2026-04-25T10:14:22.933Z</time></trkpt><trkpt lat="44.06339863124125" lon="11.265384731047611"><ele>591.0</ele><time>2026-04-25T10:14:23.933Z</time></trkpt><trkpt lat="44.06349590235421" lon="11.265610848535774"><ele>596.0</ele><time>2026-04-25T10:14:24.933Z</time></trkpt><trkpt lat="44.06360966626608" lon="11.26582206870645"><ele>601.0</ele><time>2026-04-25T10:14:25.933Z</time></trkpt><trkpt lat="44.063734891992276" lon="11.266029080083664"><ele>601.0</ele><time>2026-04-25T10:14:26.933Z</time></trkpt><trkpt lat="44.06386407166947" lon="11.266229126167351"><ele>601.0</ele><time>2026-04-25T10:14:27.933Z</time></trkpt><trkpt lat="44.063978423167114" lon="11.266423783154881"><ele>601.0</ele><time>2026-04-25T10:14:28.933Z</time></trkpt><trkpt lat="44.06408385675114" lon="11.266590207697323"><ele>604.75</ele><time>2026-04-25T10:14:29.933Z</time></trkpt><trkpt lat="44.06417487629511" lon="11.26671877353721"><ele>608.5</ele><time>2026-04-25T10:14:30.933Z</time></trkpt><trkpt lat="44.06426239417509" lon="11.266831086791965"><ele>612.25</ele><time>2026-04-25T10:14:31.933Z</time></trkpt><trkpt lat="44.064358542799745" lon="11.266936144760056"><ele>616.0</ele><time>2026-04-25T10:14:32.933Z</time></trkpt><trkpt lat="44.06449981144953" lon="11.266976680538875"><ele>616.0</ele><time>2026-04-25T10:14:33.933Z</time></trkpt><trkpt lat="44.0646350306316" lon="11.266984546304831"><ele>616.0</ele><time>2026-04-25T10:14:34.933Z</time></trkpt><trkpt lat="44.06477908439863" lon="11.266984788463184"><ele>616.0</ele><time>2026-04-25T10:14:35.933Z</time></trkpt><trkpt lat="44.06494040308822" lon="11.266984788462098"><ele>616.0</ele><time>2026-04-25T10:14:36.933Z</time></trkpt><trkpt lat="44.06511131418738" lon="11.266994053201847"><ele>619.3333333333334</ele><time>2026-04-25T10:14:37.933Z</time></trkpt><trkpt lat="44.065287228358216" lon="11.267069453421405"><ele>622.6666666666666</ele><time>2026-04-25T10:14:38.933Z</time></trkpt><trkpt lat="44.06547607711167" lon="11.267158930910599"><ele>626.0</ele><time>2026-04-25T10:14:39.933Z</time></trkpt><trkpt lat="44.065673806933084" lon="11.267263793144378"><ele>625.6666666666666</ele><time>2026-04-25T10:14:40.933Z</time></trkpt><trkpt lat="44.065866911514235" lon="11.267339918723856"><ele>625.3333333333334</ele><time>2026-04-25T10:14:41.933Z</time></trkpt><trkpt lat="44.06604713271675" lon="11.267378045076837"><ele>625.0</ele><time>2026-04-25T10:14:42.933Z</time></trkpt><trkpt lat="44.06621152713418" lon="11.267409171738407"><ele>625.0</ele><time>2026-04-25T10:14:43.933Z</time></trkpt><trkpt lat="44.06636667467962" lon="11.267448348784312"><ele>625.0</ele><time>2026-04-25T10:14:44.933Z</time></trkpt><trkpt lat="44.06652318599156" lon="11.26751114909567"><ele>625.0</ele><time>2026-04-25T10:14:45.933Z</time></trkpt><trkpt lat="44.06665776663399" lon="11.267655972955136"><ele>627.0</ele><time>2026-04-25T10:14:46.933Z</time></trkpt><trkpt lat="44.0667930001285" lon="11.26781529954579"><ele>629.0</ele><time>2026-04-25T10:14:47.933Z</time></trkpt><trkpt lat="44.066921469472625" lon="11.267952836831597"><ele>631.0</ele><time>2026-04-25T10:14:48.933Z</time></trkpt><trkpt lat="44.067059862649884" lon="11.26808550238056"><ele>629.3333333333334</ele><time>2026-04-25T10:14:49.933Z</time></trkpt><trkpt lat="44.06722376895179" lon="11.268126786948114"><ele>627.6666666666666</ele><time>2026-04-25T10:14:50.933Z</time></trkpt><trkpt lat="44.06736708694766" lon="11.268194307425219"><ele>626.0</ele><time>2026-04-25T10:14:51.933Z</time></trkpt><trkpt lat="44.06750087649969" lon="11.268224091371781"><ele>629.0</ele><time>2026-04-25T10:14:52.933Z</time></trkpt><trkpt lat="44.06761512519357" lon="11.268301833340557"><ele>632.0</ele><time>2026-04-25T10:14:53.933Z</time></trkpt><trkpt lat="44.06770894131894" lon="11.2684274214663"><ele>635.0</ele><time>2026-04-25T10:14:54.933Z</time></trkpt><trkpt lat="44.067783062551825" lon="11.268596199689597"><ele>638.0</ele><time>2026-04-25T10:14:55.933Z</time></trkpt><trkpt lat="44.067828714587606" lon="11.268788993617385"><ele>637.0</ele><time>2026-04-25T10:14:56.933Z</time></trkpt><trkpt lat="44.067862193201705" lon="11.268993991430476"><ele>636.0</ele><time>2026-04-25T10:14:57.933Z</time></trkpt><trkpt lat="44.06792070466146" lon="11.269207767415898"><ele>635.0</ele><time>2026-04-25T10:14:58.933Z</time></trkpt><trkpt lat="44.06798168654897" lon="11.269416864945622"><ele>635.0</ele><time>2026-04-25T10:14:59.933Z</time></trkpt><trkpt lat="44.068046398111505" lon="11.269591442007643"><ele>635.0</ele><time>2026-04-25T10:15:00.933Z</time></trkpt><trkpt lat="44.06812345255289" lon="11.26974509123609"><ele>635.0</ele><time>2026-04-25T10:15:01.933Z</time></trkpt><trkpt lat="44.06821682339505" lon="11.269868263054715"><ele>635.0</ele><time>2026-04-25T10:15:02.933Z</time></trkpt><trkpt lat="44.06833116092495" lon="11.269975245824527"><ele>639.6666666666666</ele><time>2026-04-25T10:15:03.933Z</time></trkpt><trkpt lat="44.0684592067629" lon="11.270071696008214"><ele>644.3333333333334</ele><time>2026-04-25T10:15:04.933Z</time></trkpt><trkpt lat="44.06859994068845" lon="11.270156601464235"><ele>649.0</ele><time>2026-04-25T10:15:05.933Z</time></trkpt><trkpt lat="44.06875221939705" lon="11.270208421518785"><ele>649.0</ele><time>2026-04-25T10:15:06.933Z</time></trkpt><trkpt lat="44.06891665591217" lon="11.270209270019315"><ele>649.0</ele><time>2026-04-25T10:15:07.933Z</time></trkpt><trkpt lat="44.069093961072596" lon="11.270180487251524"><ele>649.0</ele><time>2026-04-25T10:15:08.933Z</time></trkpt><trkpt lat="44.069287354280235" lon="11.270137881126399"><ele>653.3333333333334</ele><time>2026-04-25T10:15:09.933Z</time></trkpt><trkpt lat="44.06948605014764" lon="11.270122578400121"><ele>657.6666666666666</ele><time>2026-04-25T10:15:10.933Z</time></trkpt><trkpt lat="44.0696842082049" lon="11.270085290395299"><ele>662.0</ele><time>2026-04-25T10:15:11.933Z</time></trkpt><trkpt lat="44.069872480434086" lon="11.270037542012114"><ele>664.0</ele><time>2026-04-25T10:15:12.933Z</time></trkpt><trkpt lat="44.07003809586422" lon="11.269986251268051"><ele>666.0</ele><time>2026-04-25T10:15:13.933Z</time></trkpt><trkpt lat="44.07019056090571" lon="11.26991988149887"><ele>668.0</ele><time>2026-04-25T10:15:14.933Z</time></trkpt><trkpt lat="44.0703324789895" lon="11.269863318521612"><ele>668.0</ele><time>2026-04-25T10:15:15.933Z</time></trkpt><trkpt lat="44.07045393174659" lon="11.269841285095321"><ele>668.0</ele><time>2026-04-25T10:15:16.933Z</time></trkpt><trkpt lat="44.070583651525624" lon="11.26988098510369"><ele>668.0</ele><time>2026-04-25T10:15:17.933Z</time></trkpt><trkpt lat="44.07071222203933" lon="11.269964909418327"><ele>668.0</ele><time>2026-04-25T10:15:18.933Z</time></trkpt><trkpt lat="44.07084594865251" lon="11.27007019763529"><ele>670.0</ele><time>2026-04-25T10:15:19.933Z</time></trkpt><trkpt lat="44.07098179144734" lon="11.270174477187068"><ele>672.0</ele><time>2026-04-25T10:15:20.933Z</time></trkpt><trkpt lat="44.07112167957149" lon="11.27027601390252"><ele>674.0</ele><time>2026-04-25T10:15:21.933Z</time></trkpt><trkpt lat="44.07124855769484" lon="11.270379120038848"><ele>674.0</ele><time>2026-04-25T10:15:22.932Z</time></trkpt><trkpt lat="44.07136016018356" lon="11.270513836325856"><ele>674.0</ele><time>2026-04-25T10:15:23.932Z</time></trkpt><trkpt lat="44.071467030745495" lon="11.27067763792543"><ele>674.0</ele><time>2026-04-25T10:15:24.932Z</time></trkpt><trkpt lat="44.071568790294904" lon="11.27085186374869"><ele>678.0</ele><time>2026-04-25T10:15:25.932Z</time></trkpt><trkpt lat="44.07167891923744" lon="11.271026771483731"><ele>682.0</ele><time>2026-04-25T10:15:26.932Z</time></trkpt><trkpt lat="44.07181567892712" lon="11.271175822592205"><ele>686.0</ele><time>2026-04-25T10:15:27.932Z</time></trkpt><trkpt lat="44.07195324872157" lon="11.271304195651293"><ele>686.0</ele><time>2026-04-25T10:15:28.932Z</time></trkpt><trkpt lat="44.072082440772" lon="11.271423324456565"><ele>686.0</ele><time>2026-04-25T10:15:29.932Z</time></trkpt><trkpt lat="44.0722001222803" lon="11.271532966043972"><ele>686.0</ele><time>2026-04-25T10:15:30.932Z</time></trkpt><trkpt lat="44.072306056438734" lon="11.27162454705929"><ele>686.0</ele><time>2026-04-25T10:15:31.932Z</time></trkpt><trkpt lat="44.072404877562946" lon="11.27169497027474"><ele>687.0</ele><time>2026-04-25T10:15:32.933Z</time></trkpt><trkpt lat="44.072508442807894" lon="11.2717351913735"><ele>688.0</ele><time>2026-04-25T10:15:33.933Z</time></trkpt><trkpt lat="44.07261875476199" lon="11.271754029148923"><ele>689.0</ele><time>2026-04-25T10:15:34.932Z</time></trkpt><trkpt lat="44.07270824660905" lon="11.271651046719295"><ele>690.0</ele><time>2026-04-25T10:15:35.932Z</time></trkpt><trkpt lat="44.07277554963313" lon="11.27154957723696"><ele>691.0</ele><time>2026-04-25T10:15:36.932Z</time></trkpt><trkpt lat="44.07280831755244" lon="11.271414662718206"><ele>693.25</ele><time>2026-04-25T10:15:37.932Z</time></trkpt><trkpt lat="44.07281252132063" lon="11.271246046553678"><ele>695.5</ele><time>2026-04-25T10:15:38.932Z</time></trkpt><trkpt lat="44.072823315207245" lon="11.271055825802382"><ele>697.75</ele><time>2026-04-25T10:15:39.932Z</time></trkpt><trkpt lat="44.07280061100904" lon="11.270844455667637"><ele>700.0</ele><time>2026-04-25T10:15:40.932Z</time></trkpt><trkpt lat="44.072806624207786" lon="11.270641089576747"><ele>699.0</ele><time>2026-04-25T10:15:41.932Z</time></trkpt><trkpt lat="44.07279840388235" lon="11.270464614545357"><ele>698.0</ele><time>2026-04-25T10:15:42.932Z</time></trkpt><trkpt lat="44.07279177006467" lon="11.270309213448188"><ele>697.0</ele><time>2026-04-25T10:15:43.932Z</time></trkpt><trkpt lat="44.07282158489781" lon="11.270187128610136"><ele>696.0</ele><time>2026-04-25T10:15:44.932Z</time></trkpt><trkpt lat="44.07288536300028" lon="11.270105958081944"><ele>695.0</ele><time>2026-04-25T10:15:45.932Z</time></trkpt><trkpt lat="44.072952554904184" lon="11.270072566604151"><ele>695.0</ele><time>2026-04-25T10:15:46.932Z</time></trkpt><trkpt lat="44.0730475196445" lon="11.270056148592321"><ele>695.0</ele><time>2026-04-25T10:15:47.932Z</time></trkpt><trkpt lat="44.073157563039686" lon="11.27007429403624"><ele>695.0</ele><time>2026-04-25T10:15:48.932Z</time></trkpt><trkpt lat="44.073265351562696" lon="11.27010940842924"><ele>695.0</ele><time>2026-04-25T10:15:49.932Z</time></trkpt><trkpt lat="44.07336339296023" lon="11.270179050835443"><ele>695.0</ele><time>2026-04-25T10:15:50.932Z</time></trkpt><trkpt lat="44.073465857922834" lon="11.270276129965593"><ele>697.0</ele><time>2026-04-25T10:15:51.932Z</time></trkpt><trkpt lat="44.07357698022218" lon="11.270384077838472"><ele>699.0</ele><time>2026-04-25T10:15:52.932Z</time></trkpt><trkpt lat="44.07368283565406" lon="11.270518657437902"><ele>701.0</ele><time>2026-04-25T10:15:53.932Z</time></trkpt><trkpt lat="44.07378859393625" lon="11.270679811224143"><ele>703.0</ele><time>2026-04-25T10:15:54.932Z</time></trkpt><trkpt lat="44.07387828847262" lon="11.270887447826512"><ele>703.3333333333334</ele><time>2026-04-25T10:15:55.932Z</time></trkpt><trkpt lat="44.07395173955333" lon="11.271121723659197"><ele>703.6666666666666</ele><time>2026-04-25T10:15:56.932Z</time></trkpt><trkpt lat="44.07400446401041" lon="11.271375693651082"><ele>704.0</ele><time>2026-04-25T10:15:57.932Z</time></trkpt><trkpt lat="44.07404066065913" lon="11.271626923648054"><ele>703.3333333333333</ele><time>2026-04-25T10:15:58.932Z</time></trkpt><trkpt lat="44.07406815287563" lon="11.271883985074103"><ele>702.6666666666666</ele><time>2026-04-25T10:15:59.932Z</time></trkpt><trkpt lat="44.074082524228366" lon="11.272135095872972"><ele>702.0</ele><time>2026-04-25T10:16:00.932Z</time></trkpt><trkpt lat="44.07410573795843" lon="11.272349392901171"><ele>708.5</ele><time>2026-04-25T10:16:01.932Z</time></trkpt><trkpt lat="44.07412067893784" lon="11.272561777599323"><ele>715.0</ele><time>2026-04-25T10:16:02.932Z</time></trkpt><trkpt lat="44.07412836537435" lon="11.272759522088853"><ele>721.5</ele><time>2026-04-25T10:16:03.932Z</time></trkpt><trkpt lat="44.07413888830569" lon="11.272928320537929"><ele>728.0</ele><time>2026-04-25T10:16:04.932Z</time></trkpt><trkpt lat="44.07411709682318" lon="11.273099427746722"><ele>724.75</ele><time>2026-04-25T10:16:05.932Z</time></trkpt><trkpt lat="44.074066174872826" lon="11.273262584526181"><ele>721.5</ele><time>2026-04-25T10:16:06.932Z</time></trkpt><trkpt lat="44.07400633752776" lon="11.273447484806992"><ele>718.25</ele><time>2026-04-25T10:16:07.932Z</time></trkpt><trkpt lat="44.07394355756272" lon="11.273620953412792"><ele>715.0</ele><time>2026-04-25T10:16:08.932Z</time></trkpt><trkpt lat="44.07390490264664" lon="11.273771839061643"><ele>715.0</ele><time>2026-04-25T10:16:09.932Z</time></trkpt><trkpt lat="44.07388022416496" lon="11.27392917880624"><ele>715.0</ele><time>2026-04-25T10:16:10.932Z</time></trkpt><trkpt lat="44.07389829908443" lon="11.274078523643668"><ele>715.0</ele><time>2026-04-25T10:16:11.932Z</time></trkpt><trkpt lat="44.07396320531084" lon="11.274227661083176"><ele>715.0</ele><time>2026-04-25T10:16:12.932Z</time></trkpt><trkpt lat="44.07407268779663" lon="11.27437128268277"><ele>719.5</ele><time>2026-04-25T10:16:13.932Z</time></trkpt><trkpt lat="44.07417391835869" lon="11.274525254050612"><ele>724.0</ele><time>2026-04-25T10:16:14.932Z</time></trkpt><trkpt lat="44.07425877249759" lon="11.274659189938525"><ele>728.5</ele><time>2026-04-25T10:16:15.932Z</time></trkpt><trkpt lat="44.07434020963638" lon="11.274776113298167"><ele>733.0</ele><time>2026-04-25T10:16:16.932Z</time></trkpt><trkpt lat="44.07441563446432" lon="11.274887685994578"><ele>733.0</ele><time>2026-04-25T10:16:17.932Z</time></trkpt><trkpt lat="44.07451519648623" lon="11.27498937992659"><ele>733.0</ele><time>2026-04-25T10:16:18.932Z</time></trkpt><trkpt lat="44.07463127950784" lon="11.275086682395239"><ele>733.0</ele><time>2026-04-25T10:16:19.932Z</time></trkpt><trkpt lat="44.074769760285754" lon="11.275161170727797"><ele>733.0</ele><time>2026-04-25T10:16:20.932Z</time></trkpt><trkpt lat="44.07488768077497" lon="11.275236285573028"><ele>736.0</ele><time>2026-04-25T10:16:21.932Z</time></trkpt><trkpt lat="44.07499485562545" lon="11.275340729546425"><ele>739.0</ele><time>2026-04-25T10:16:22.932Z</time></trkpt><trkpt lat="44.075076104736254" lon="11.275449378190144"><ele>742.0</ele><time>2026-04-25T10:16:23.932Z</time></trkpt><trkpt lat="44.07513657635177" lon="11.275601458131712"><ele>745.0</ele><time>2026-04-25T10:16:24.932Z</time></trkpt><trkpt lat="44.07518741701496" lon="11.275782085115505"><ele>745.0</ele><time>2026-04-25T10:16:25.932Z</time></trkpt><trkpt lat="44.07524973781752" lon="11.275970640051431"><ele>745.0</ele><time>2026-04-25T10:16:26.932Z</time></trkpt><trkpt lat="44.075331424713895" lon="11.27615860940851"><ele>745.0</ele><time>2026-04-25T10:16:27.932Z</time></trkpt><trkpt lat="44.07543316558195" lon="11.276315024755274"><ele>745.0</ele><time>2026-04-25T10:16:28.932Z</time></trkpt><trkpt lat="44.07553978733909" lon="11.276444135545745"><ele>745.0</ele><time>2026-04-25T10:16:29.932Z</time></trkpt><trkpt lat="44.07562397086587" lon="11.276561583008132"><ele>745.0</ele><time>2026-04-25T10:16:30.932Z</time></trkpt><trkpt lat="44.0757056639391" lon="11.276659435267794"><ele>745.0</ele><time>2026-04-25T10:16:31.932Z</time></trkpt><trkpt lat="44.07576847010931" lon="11.276753542035491"><ele>749.4</ele><time>2026-04-25T10:16:32.932Z</time></trkpt><trkpt lat="44.075820379883965" lon="11.276863729949424"><ele>753.8</ele><time>2026-04-25T10:16:33.932Z</time></trkpt><trkpt lat="44.07584766606891" lon="11.276997522875751"><ele>758.2</ele><time>2026-04-25T10:16:34.932Z</time></trkpt><trkpt lat="44.07584295917046" lon="11.277143140868441"><ele>762.6</ele><time>2026-04-25T10:16:35.932Z</time></trkpt><trkpt lat="44.075805417213864" lon="11.27729167625099"><ele>767.0</ele><time>2026-04-25T10:16:36.932Z</time></trkpt><trkpt lat="44.07577275563468" lon="11.277433122285673"><ele>767.25</ele><time>2026-04-25T10:16:37.932Z</time></trkpt><trkpt lat="44.07576774891417" lon="11.277582849939648"><ele>767.5</ele><time>2026-04-25T10:16:38.932Z</time></trkpt><trkpt lat="44.07578464381313" lon="11.277739744031305"><ele>767.75</ele><time>2026-04-25T10:16:39.932Z</time></trkpt><trkpt lat="44.075827702126816" lon="11.277895986278573"><ele>768.0</ele><time>2026-04-25T10:16:40.932Z</time></trkpt><trkpt lat="44.07586327634767" lon="11.278073167960796"><ele>767.6666666666666</ele><time>2026-04-25T10:16:41.932Z</time></trkpt><trkpt lat="44.075885773513335" lon="11.278269331810487"><ele>767.3333333333333</ele><time>2026-04-25T10:16:42.932Z</time></trkpt><trkpt lat="44.07589417951113" lon="11.278492954592643"><ele>767.0</ele><time>2026-04-25T10:16:43.932Z</time></trkpt><trkpt lat="44.07588019476751" lon="11.27872971143117"><ele>766.6666666666666</ele><time>2026-04-25T10:16:44.932Z</time></trkpt><trkpt lat="44.07585101588285" lon="11.278976259560675"><ele>766.3333333333334</ele><time>2026-04-25T10:16:45.932Z</time></trkpt><trkpt lat="44.07583063328776" lon="11.279243992482428"><ele>766.0</ele><time>2026-04-25T10:16:46.932Z</time></trkpt><trkpt lat="44.075816446543115" lon="11.279495013264013"><ele>766.0</ele><time>2026-04-25T10:16:47.932Z</time></trkpt><trkpt lat="44.0758085789225" lon="11.279728856701949"><ele>766.0</ele><time>2026-04-25T10:16:48.932Z</time></trkpt><trkpt lat="44.0757852628787" lon="11.279923809124485"><ele>766.0</ele><time>2026-04-25T10:16:49.932Z</time></trkpt><trkpt lat="44.075787045297794" lon="11.280128238559021"><ele>765.75</ele><time>2026-04-25T10:16:50.932Z</time></trkpt><trkpt lat="44.075827068917484" lon="11.28028289381852"><ele>765.5</ele><time>2026-04-25T10:16:51.932Z</time></trkpt><trkpt lat="44.07588286896227" lon="11.280422207354517"><ele>765.25</ele><time>2026-04-25T10:16:52.932Z</time></trkpt><trkpt lat="44.075968770068535" lon="11.280543474920592"><ele>765.0</ele><time>2026-04-25T10:16:53.932Z</time></trkpt><trkpt lat="44.07607687830273" lon="11.280639788614012"><ele>762.25</ele><time>2026-04-25T10:16:54.932Z</time></trkpt><trkpt lat="44.07619865771941" lon="11.28070870726951"><ele>759.5</ele><time>2026-04-25T10:16:55.932Z</time></trkpt><trkpt lat="44.07632958576136" lon="11.280746502072919"><ele>756.75</ele><time>2026-04-25T10:16:56.932Z</time></trkpt><trkpt lat="44.07646206227512" lon="11.280762429717319"><ele>754.0</ele><time>2026-04-25T10:16:57.932Z</time></trkpt><trkpt lat="44.076597209817216" lon="11.280791238322895"><ele>756.75</ele><time>2026-04-25T10:16:58.932Z</time></trkpt><trkpt lat="44.076715552184325" lon="11.280883599390622"><ele>759.5</ele><time>2026-04-25T10:16:59.932Z</time></trkpt><trkpt lat="44.07683052415556" lon="11.281011355229579"><ele>762.25</ele><time>2026-04-25T10:17:00.932Z</time></trkpt><trkpt lat="44.07694941370389" lon="11.281128677133553"><ele>765.0</ele><time>2026-04-25T10:17:01.932Z</time></trkpt><trkpt lat="44.0770762046513" lon="11.281243083920375"><ele>765.0</ele><time>2026-04-25T10:17:02.933Z</time></trkpt><trkpt lat="44.07722555995877" lon="11.281337367969684"><ele>765.0</ele><time>2026-04-25T10:17:03.933Z</time></trkpt><trkpt lat="44.07739665567882" lon="11.281420990506051"><ele>765.0</ele><time>2026-04-25T10:17:04.933Z</time></trkpt><trkpt lat="44.0775834443352" lon="11.281514929750216"><ele>764.6666666666666</ele><time>2026-04-25T10:17:05.933Z</time></trkpt><trkpt lat="44.07777868714905" lon="11.281624977322435"><ele>764.3333333333333</ele><time>2026-04-25T10:17:06.933Z</time></trkpt><trkpt lat="44.07796328841734" lon="11.281713746002088"><ele>764.0</ele><time>2026-04-25T10:17:07.933Z</time></trkpt><trkpt lat="44.078152071864785" lon="11.281806633875897"><ele>767.3333333333333</ele><time>2026-04-25T10:17:08.933Z</time></trkpt><trkpt lat="44.078324217359764" lon="11.28189313790459"><ele>770.6666666666666</ele><time>2026-04-25T10:17:09.933Z</time></trkpt><trkpt lat="44.07847906082884" lon="11.281970420895226"><ele>774.0</ele><time>2026-04-25T10:17:10.933Z</time></trkpt><trkpt lat="44.07863791380728" lon="11.282035077779325"><ele>774.0</ele><time>2026-04-25T10:17:11.933Z</time></trkpt><trkpt lat="44.07880157190288" lon="11.282080526758458"><ele>774.0</ele><time>2026-04-25T10:17:12.933Z</time></trkpt><trkpt lat="44.07897183383315" lon="11.28207217666981"><ele>774.0</ele><time>2026-04-25T10:17:13.933Z</time></trkpt><trkpt lat="44.079149178280254" lon="11.282084810981033"><ele>780.0</ele><time>2026-04-25T10:17:14.933Z</time></trkpt><trkpt lat="44.07933633197045" lon="11.282066974387144"><ele>786.0</ele><time>2026-04-25T10:17:15.933Z</time></trkpt><trkpt lat="44.079526911906086" lon="11.282047158617154"><ele>792.0</ele><time>2026-04-25T10:17:16.933Z</time></trkpt><trkpt lat="44.07972466618858" lon="11.282026459600985"><ele>792.0</ele><time>2026-04-25T10:17:17.933Z</time></trkpt><trkpt lat="44.07991895501868" lon="11.282005371884104"><ele>792.0</ele><time>2026-04-25T10:17:18.933Z</time></trkpt><trkpt lat="44.08010459077783" lon="11.281985333397808"><ele>792.0</ele><time>2026-04-25T10:17:19.933Z</time></trkpt><trkpt lat="44.0802862236201" lon="11.281966855035828"><ele>796.6666666666667</ele><time>2026-04-25T10:17:20.933Z</time></trkpt><trkpt lat="44.08046435104333" lon="11.281951113106539"><ele>801.3333333333334</ele><time>2026-04-25T10:17:21.933Z</time></trkpt><trkpt lat="44.080636785009595" lon="11.281930589862029"><ele>806.0</ele><time>2026-04-25T10:17:22.933Z</time></trkpt><trkpt lat="44.080808431113574" lon="11.281871768831486"><ele>807.0</ele><time>2026-04-25T10:17:23.933Z</time></trkpt><trkpt lat="44.08096773993662" lon="11.281804999758496"><ele>808.0</ele><time>2026-04-25T10:17:24.933Z</time></trkpt><trkpt lat="44.08111203264694" lon="11.281744736550971"><ele>809.0</ele><time>2026-04-25T10:17:25.933Z</time></trkpt><trkpt lat="44.08125199956703" lon="11.281680437674835"><ele>809.0</ele><time>2026-04-25T10:17:26.933Z</time></trkpt><trkpt lat="44.08138213446747" lon="11.281576474246673"><ele>809.0</ele><time>2026-04-25T10:17:27.933Z</time></trkpt><trkpt lat="44.08148433538364" lon="11.281415041773919"><ele>809.0</ele><time>2026-04-25T10:17:28.932Z</time></trkpt><trkpt lat="44.08160480422094" lon="11.281293275519893"><ele>811.6666666666667</ele><time>2026-04-25T10:17:29.932Z</time></trkpt><trkpt lat="44.08169909490878" lon="11.281176689502528"><ele>814.3333333333334</ele><time>2026-04-25T10:17:30.932Z</time></trkpt><trkpt lat="44.08178055542088" lon="11.281075967398975"><ele>817.0</ele><time>2026-04-25T10:17:31.932Z</time></trkpt><trkpt lat="44.081842278717936" lon="11.281007796384658"><ele>819.6666666666667</ele><time>2026-04-25T10:17:32.932Z</time></trkpt><trkpt lat="44.0818982114986" lon="11.280955986893016"><ele>822.3333333333334</ele><time>2026-04-25T10:17:33.932Z</time></trkpt><trkpt lat="44.08196236560776" lon="11.280930824459865"><ele>825.0</ele><time>2026-04-25T10:17:34.932Z</time></trkpt><trkpt lat="44.082064409855064" lon="11.280925901576117"><ele>825.0</ele><time>2026-04-25T10:17:35.932Z</time></trkpt><trkpt lat="44.08217829767867" lon="11.280954350923167"><ele>825.0</ele><time>2026-04-25T10:17:36.932Z</time></trkpt><trkpt lat="44.08227036617559" lon="11.281056213343074"><ele>825.0</ele><time>2026-04-25T10:17:37.932Z</time></trkpt><trkpt lat="44.08233814120966" lon="11.281208058353739"><ele>825.0</ele><time>2026-04-25T10:17:38.932Z</time></trkpt><trkpt lat="44.08238062321" lon="11.281379161691866"><ele>819.25</ele><time>2026-04-25T10:17:39.932Z</time></trkpt><trkpt lat="44.08239548190721" lon="11.281578726576559"><ele>813.5</ele><time>2026-04-25T10:17:40.932Z</time></trkpt><trkpt lat="44.082398919663106" lon="11.281786811350614"><ele>807.75</ele><time>2026-04-25T10:17:41.932Z</time></trkpt><trkpt lat="44.08240242882093" lon="11.281979894107858"><ele>802.0</ele><time>2026-04-25T10:17:42.932Z</time></trkpt><trkpt lat="44.08241565325232" lon="11.282168915661105"><ele>808.3333333333333</ele><time>2026-04-25T10:17:43.932Z</time></trkpt><trkpt lat="44.082440778207264" lon="11.28236942579839"><ele>814.6666666666667</ele><time>2026-04-25T10:17:44.932Z</time></trkpt><trkpt lat="44.08250421666297" lon="11.282566878601335"><ele>821.0</ele><time>2026-04-25T10:17:45.932Z</time></trkpt><trkpt lat="44.082578008483374" lon="11.28277842731644"><ele>821.0</ele><time>2026-04-25T10:17:46.932Z</time></trkpt><trkpt lat="44.08266580660974" lon="11.28297085354602"><ele>821.0</ele><time>2026-04-25T10:17:47.932Z</time></trkpt><trkpt lat="44.082750598236856" lon="11.283116278427805"><ele>821.0</ele><time>2026-04-25T10:17:48.932Z</time></trkpt><trkpt lat="44.08280629001249" lon="11.283249984122577"><ele>821.0</ele><time>2026-04-25T10:17:49.932Z</time></trkpt><trkpt lat="44.08284960729989" lon="11.283339292511267"><ele>821.0</ele><time>2026-04-25T10:17:50.932Z</time></trkpt><trkpt lat="44.0829745386834" lon="11.283413950876962"><ele>821.0</ele><time>2026-04-25T10:17:52.932Z</time></trkpt><trkpt lat="44.08304873607599" lon="11.283290292298776"><ele>821.0</ele><time>2026-04-25T10:17:53.932Z</time></trkpt><trkpt lat="44.08302858399102" lon="11.283163756300715"><ele>821.0</ele><time>2026-04-25T10:17:54.932Z</time></trkpt><trkpt lat="44.08299813073396" lon="11.283057819075434"><ele>821.0</ele><time>2026-04-25T10:17:55.932Z</time></trkpt><trkpt lat="44.08294110166968" lon="11.28294716362087"><ele>821.0</ele><time>2026-04-25T10:17:56.932Z</time></trkpt><trkpt lat="44.08290267009584" lon="11.282806737704105"><ele>821.0</ele><time>2026-04-25T10:17:57.932Z</time></trkpt><trkpt lat="44.082838694625764" lon="11.282643452672497"><ele>821.0</ele><time>2026-04-25T10:17:58.932Z</time></trkpt><trkpt lat="44.082791897528914" lon="11.282459931705825"><ele>821.0</ele><time>2026-04-25T10:17:59.932Z</time></trkpt><trkpt lat="44.08275390800269" lon="11.282264242810253"><ele>820.8</ele><time>2026-04-25T10:18:00.932Z</time></trkpt><trkpt lat="44.08273771334514" lon="11.282091545146432"><ele>820.5999999999999</ele><time>2026-04-25T10:18:01.932Z</time></trkpt><trkpt lat="44.08273980624473" lon="11.281954925585817"><ele>820.4</ele><time>2026-04-25T10:18:02.932Z</time></trkpt><trkpt lat="44.082753096915255" lon="11.281850295848907"><ele>820.2</ele><time>2026-04-25T10:18:03.932Z</time></trkpt><trkpt lat="44.08279516834772" lon="11.281721995994108"><ele>820.0</ele><time>2026-04-25T10:18:05.932Z</time></trkpt><trkpt lat="44.082867896459646" lon="11.281691954907945"><ele>820.0</ele><time>2026-04-25T10:18:06.932Z</time></trkpt><trkpt lat="44.08295068626298" lon="11.281669822292708"><ele>820.0</ele><time>2026-04-25T10:18:07.932Z</time></trkpt><trkpt lat="44.083053643167595" lon="11.281610108462331"><ele>820.0</ele><time>2026-04-25T10:18:08.932Z</time></trkpt><trkpt lat="44.083118356401826" lon="11.281483135307878"><ele>820.0</ele><time>2026-04-25T10:18:09.932Z</time></trkpt><trkpt lat="44.08314758056698" lon="11.281345932028335"><ele>820.0</ele><time>2026-04-25T10:18:10.932Z</time></trkpt><trkpt lat="44.083153012732915" lon="11.281242519424266"><ele>819.8333333333333</ele><time>2026-04-25T10:18:11.932Z</time></trkpt><trkpt lat="44.08319367581495" lon="11.281165499006907"><ele>819.6666666666666</ele><time>2026-04-25T10:18:12.932Z</time></trkpt><trkpt lat="44.08323363087268" lon="11.281094142436665"><ele>819.5</ele><time>2026-04-25T10:18:13.932Z</time></trkpt><trkpt lat="44.083309341598756" lon="11.281107335427592"><ele>819.3333333333333</ele><time>2026-04-25T10:18:14.932Z</time></trkpt><trkpt lat="44.0834040223391" lon="11.28115632998397"><ele>819.1666666666666</ele><time>2026-04-25T10:18:15.932Z</time></trkpt><trkpt lat="44.08350113469463" lon="11.281199738224354"><ele>819.0</ele><time>2026-04-25T10:18:16.932Z</time></trkpt><trkpt lat="44.08359384652728" lon="11.28123368648405"><ele>821.6</ele><time>2026-04-25T10:18:17.932Z</time></trkpt><trkpt lat="44.08368405556521" lon="11.281267309839095"><ele>824.2</ele><time>2026-04-25T10:18:18.932Z</time></trkpt><trkpt lat="44.08377504019977" lon="11.281313235720035"><ele>826.8000000000001</ele><time>2026-04-25T10:18:19.932Z</time></trkpt><trkpt lat="44.08385555872822" lon="11.281366084907372"><ele>829.4000000000001</ele><time>2026-04-25T10:18:20.932Z</time></trkpt><trkpt lat="44.08393956626533" lon="11.281408737324334"><ele>832.0</ele><time>2026-04-25T10:18:21.932Z</time></trkpt><trkpt lat="44.08402281173156" lon="11.281468882523585"><ele>835.8333333333333</ele><time>2026-04-25T10:18:22.932Z</time></trkpt><trkpt lat="44.0840992555126" lon="11.281541850936005"><ele>839.6666666666666</ele><time>2026-04-25T10:18:23.932Z</time></trkpt><trkpt lat="44.08416375532386" lon="11.281634827101804"><ele>843.5</ele><time>2026-04-25T10:18:24.932Z</time></trkpt><trkpt lat="44.08421639754193" lon="11.281728818170594"><ele>847.3333333333333</ele><time>2026-04-25T10:18:25.932Z</time></trkpt><trkpt lat="44.08427183211887" lon="11.28178922704024"><ele>851.1666666666666</ele><time>2026-04-25T10:18:26.932Z</time></trkpt><trkpt lat="44.084333786791525" lon="11.281828539913853"><ele>855.0</ele><time>2026-04-25T10:18:27.932Z</time></trkpt><trkpt lat="44.084410321904016" lon="11.281825969613537"><ele>855.0</ele><time>2026-04-25T10:18:28.932Z</time></trkpt><trkpt lat="44.08449082503379" lon="11.28177350044489"><ele>855.0</ele><time>2026-04-25T10:18:29.932Z</time></trkpt><trkpt lat="44.08453283990565" lon="11.281635970911715"><ele>855.0</ele><time>2026-04-25T10:18:30.932Z</time></trkpt><trkpt lat="44.08450561633619" lon="11.281490030888703"><ele>855.0</ele><time>2026-04-25T10:18:31.932Z</time></trkpt><trkpt lat="44.08453165661495" lon="11.281364721314487"><ele>855.0</ele><time>2026-04-25T10:18:32.932Z</time></trkpt><trkpt lat="44.08456608082324" lon="11.281277737929184"><ele>854.1666666666666</ele><time>2026-04-25T10:18:33.932Z</time></trkpt><trkpt lat="44.08463656101422" lon="11.281228048087872"><ele>853.3333333333333</ele><time>2026-04-25T10:18:34.932Z</time></trkpt><trkpt lat="44.08473380886618" lon="11.281203196361167"><ele>852.5</ele><time>2026-04-25T10:18:35.932Z</time></trkpt><trkpt lat="44.084825934712036" lon="11.281157468345706"><ele>851.6666666666666</ele><time>2026-04-25T10:18:36.932Z</time></trkpt><trkpt lat="44.0849043606426" lon="11.281121169881578"><ele>850.8333333333333</ele><time>2026-04-25T10:18:37.932Z</time></trkpt><trkpt lat="44.08496700838408" lon="11.28109477793291"><ele>850.0</ele><time>2026-04-25T10:18:38.932Z</time></trkpt><trkpt lat="44.085030642217035" lon="11.281171868612033"><ele>850.0</ele><time>2026-04-25T10:18:39.932Z</time></trkpt><trkpt lat="44.085072055674104" lon="11.281271747941858"><ele>850.0</ele><time>2026-04-25T10:18:40.933Z</time></trkpt><trkpt lat="44.08511376033195" lon="11.281391977465702"><ele>850.0</ele><time>2026-04-25T10:18:41.933Z</time></trkpt><trkpt lat="44.08518632970236" lon="11.281496963607186"><ele>850.0</ele><time>2026-04-25T10:18:42.933Z</time></trkpt><trkpt lat="44.0852980264063" lon="11.281532320114124"><ele>850.0</ele><time>2026-04-25T10:18:43.933Z</time></trkpt><trkpt lat="44.0854024121199" lon="11.281564141174556"><ele>853.4</ele><time>2026-04-25T10:18:44.933Z</time></trkpt><trkpt lat="44.08550020025134" lon="11.28159586425405"><ele>856.8</ele><time>2026-04-25T10:18:45.933Z</time></trkpt><trkpt lat="44.08561140290782" lon="11.281636559393801"><ele>860.2</ele><time>2026-04-25T10:18:46.933Z</time></trkpt><trkpt lat="44.085696113509364" lon="11.281672134855516"><ele>863.6</ele><time>2026-04-25T10:18:47.933Z</time></trkpt><trkpt lat="44.08577529153232" lon="11.281722370578542"><ele>867.0</ele><time>2026-04-25T10:18:48.933Z</time></trkpt><trkpt lat="44.08584088392068" lon="11.281794977396117"><ele>868.2</ele><time>2026-04-25T10:18:49.933Z</time></trkpt><trkpt lat="44.08591180226499" lon="11.28186944159921"><ele>869.4000000000001</ele><time>2026-04-25T10:18:50.933Z</time></trkpt><trkpt lat="44.085958775007306" lon="11.281960864031385"><ele>870.5999999999999</ele><time>2026-04-25T10:18:51.933Z</time></trkpt><trkpt lat="44.08603080772207" lon="11.28205917062446"><ele>871.8</ele><time>2026-04-25T10:18:53.933Z</time></trkpt><trkpt lat="44.086165167617935" lon="11.282088403292969"><ele>873.0</ele><time>2026-04-25T10:18:55.933Z</time></trkpt><trkpt lat="44.08623914844161" lon="11.281979517088402"><ele>873.0</ele><time>2026-04-25T10:18:56.933Z</time></trkpt><trkpt lat="44.08625165776969" lon="11.281830979252462"><ele>873.0</ele><time>2026-04-25T10:18:57.933Z</time></trkpt><trkpt lat="44.08627303078169" lon="11.281721795027835"><ele>873.0</ele><time>2026-04-25T10:18:58.933Z</time></trkpt><trkpt lat="44.08633160417668" lon="11.28157852547103"><ele>873.0</ele><time>2026-04-25T10:19:00.933Z</time></trkpt><trkpt lat="44.08643734956362" lon="11.281550989733347"><ele>873.0</ele><time>2026-04-25T10:19:02.933Z</time></trkpt><trkpt lat="44.08649089833154" lon="11.281606711594042"><ele>873.0</ele><time>2026-04-25T10:19:03.933Z</time></trkpt><trkpt lat="44.086542224658494" lon="11.281720420330648"><ele>873.0</ele><time>2026-04-25T10:19:04.933Z</time></trkpt><trkpt lat="44.086602694988606" lon="11.28180397229746"><ele>873.0</ele><time>2026-04-25T10:19:05.933Z</time></trkpt><trkpt lat="44.08667364097796" lon="11.281854396863457"><ele>873.0</ele><time>2026-04-25T10:19:06.933Z</time></trkpt><trkpt lat="44.086761338336274" lon="11.28185892381173"><ele>873.0</ele><time>2026-04-25T10:19:07.933Z</time></trkpt><trkpt lat="44.086863490313014" lon="11.281795042997855"><ele>874.8</ele><time>2026-04-25T10:19:08.933Z</time></trkpt><trkpt lat="44.08692808579915" lon="11.28170290328805"><ele>876.5999999999999</ele><time>2026-04-25T10:19:09.933Z</time></trkpt><trkpt lat="44.08696143398372" lon="11.281531246346063"><ele>878.4000000000001</ele><time>2026-04-25T10:19:10.933Z</time></trkpt><trkpt lat="44.08694028165392" lon="11.281376183818862"><ele>880.2</ele><time>2026-04-25T10:19:11.933Z</time></trkpt><trkpt lat="44.08692026670705" lon="11.281240464693262"><ele>882.0</ele><time>2026-04-25T10:19:12.933Z</time></trkpt><trkpt lat="44.086914608356615" lon="11.281131111066966"><ele>882.0</ele><time>2026-04-25T10:19:13.933Z</time></trkpt><trkpt lat="44.086922166172336" lon="11.281022381029683"><ele>882.0</ele><time>2026-04-25T10:19:14.933Z</time></trkpt><trkpt lat="44.086930541235716" lon="11.280898851457506"><ele>882.0</ele><time>2026-04-25T10:19:15.933Z</time></trkpt><trkpt lat="44.086986103600985" lon="11.280787255820014"><ele>882.0</ele><time>2026-04-25T10:19:16.933Z</time></trkpt><trkpt lat="44.08707675644369" lon="11.280672551726482"><ele>882.0</ele><time>2026-04-25T10:19:17.933Z</time></trkpt><trkpt lat="44.08715103221476" lon="11.280572663917225"><ele>880.6666666666666</ele><time>2026-04-25T10:19:18.933Z</time></trkpt><trkpt lat="44.08721466187508" lon="11.280506688228852"><ele>879.3333333333333</ele><time>2026-04-25T10:19:19.933Z</time></trkpt><trkpt lat="44.0872688988421" lon="11.280458269582107"><ele>878.0</ele><time>2026-04-25T10:19:20.933Z</time></trkpt><trkpt lat="44.08734320368785" lon="11.280429542952112"><ele>876.6666666666666</ele><time>2026-04-25T10:19:21.933Z</time></trkpt><trkpt lat="44.08743359869737" lon="11.280482686121218"><ele>875.3333333333333</ele><time>2026-04-25T10:19:22.933Z</time></trkpt><trkpt lat="44.08751440913964" lon="11.280590071273704"><ele>874.0</ele><time>2026-04-25T10:19:23.933Z</time></trkpt><trkpt lat="44.0876071080749" lon="11.280725278214689"><ele>879.0</ele><time>2026-04-25T10:19:24.933Z</time></trkpt><trkpt lat="44.08770859555306" lon="11.280846967587522"><ele>884.0</ele><time>2026-04-25T10:19:25.933Z</time></trkpt><trkpt lat="44.087804327016656" lon="11.280970557137673"><ele>889.0</ele><time>2026-04-25T10:19:26.933Z</time></trkpt><trkpt lat="44.08788849856599" lon="11.281113179505052"><ele>894.0</ele><time>2026-04-25T10:19:27.933Z</time></trkpt><trkpt lat="44.087978136768484" lon="11.28123897525675"><ele>894.0</ele><time>2026-04-25T10:19:28.933Z</time></trkpt><trkpt lat="44.08807737545568" lon="11.281332208535872"><ele>894.0</ele><time>2026-04-25T10:19:29.933Z</time></trkpt><trkpt lat="44.08820337852327" lon="11.28135117997226"><ele>894.0</ele><time>2026-04-25T10:19:30.933Z</time></trkpt><trkpt lat="44.08832409556535" lon="11.281381380222602"><ele>894.0</ele><time>2026-04-25T10:19:31.933Z</time></trkpt><trkpt lat="44.08842950392267" lon="11.281374313988863"><ele>891.5</ele><time>2026-04-25T10:19:32.933Z</time></trkpt><trkpt lat="44.08853623282006" lon="11.281373896753065"><ele>889.0</ele><time>2026-04-25T10:19:33.933Z</time></trkpt><trkpt lat="44.088648879338336" lon="11.281381796957106"><ele>886.5</ele><time>2026-04-25T10:19:34.932Z</time></trkpt><trkpt lat="44.08877382731483" lon="11.281389256657977"><ele>884.0</ele><time>2026-04-25T10:19:35.932Z</time></trkpt><trkpt lat="44.08889201085982" lon="11.28141938428256"><ele>888.25</ele><time>2026-04-25T10:19:36.932Z</time></trkpt><trkpt lat="44.089020168595894" lon="11.281452537435909"><ele>892.5</ele><time>2026-04-25T10:19:37.932Z</time></trkpt><trkpt lat="44.08915158569732" lon="11.281461176879986"><ele>896.75</ele><time>2026-04-25T10:19:38.932Z</time></trkpt><trkpt lat="44.089288011265616" lon="11.281474912760153"><ele>901.0</ele><time>2026-04-25T10:19:39.932Z</time></trkpt><trkpt lat="44.089398706685934" lon="11.281439378797813"><ele>899.5999999999999</ele><time>2026-04-25T10:19:40.932Z</time></trkpt><trkpt lat="44.089509286903294" lon="11.281377985662248"><ele>898.1999999999999</ele><time>2026-04-25T10:19:41.931Z</time></trkpt><trkpt lat="44.08960919325073" lon="11.28131659987727"><ele>896.8000000000001</ele><time>2026-04-25T10:19:42.931Z</time></trkpt><trkpt lat="44.08970228835604" lon="11.281262896874662"><ele>895.4000000000001</ele><time>2026-04-25T10:19:43.932Z</time></trkpt><trkpt lat="44.08981023462812" lon="11.28121288036924"><ele>894.0</ele><time>2026-04-25T10:19:44.932Z</time></trkpt><trkpt lat="44.08992786965987" lon="11.281168796039404"><ele>894.0</ele><time>2026-04-25T10:19:45.932Z</time></trkpt><trkpt lat="44.0900386480138" lon="11.281137436060181"><ele>894.0000000000001</ele><time>2026-04-25T10:19:46.932Z</time></trkpt><trkpt lat="44.090146867732976" lon="11.281127064138428"><ele>894.0000000000001</ele><time>2026-04-25T10:19:47.931Z</time></trkpt><trkpt lat="44.09025058005035" lon="11.281138222816558"><ele>894.0</ele><time>2026-04-25T10:19:48.931Z</time></trkpt><trkpt lat="44.09035516487186" lon="11.281146127774406"><ele>894.0</ele><time>2026-04-25T10:19:49.931Z</time></trkpt><trkpt lat="44.090444791330995" lon="11.28118970745599"><ele>894.0</ele><time>2026-04-25T10:19:50.931Z</time></trkpt><trkpt lat="44.09054616899893" lon="11.281205950193307"><ele>894.0</ele><time>2026-04-25T10:19:51.931Z</time></trkpt><trkpt lat="44.09065814223808" lon="11.281189895856444"><ele>894.0</ele><time>2026-04-25T10:19:52.931Z</time></trkpt><trkpt lat="44.09077182262762" lon="11.281098127305347"><ele>894.0</ele><time>2026-04-25T10:19:53.931Z</time></trkpt><trkpt lat="44.09087111576981" lon="11.28099129699105"><ele>894.5</ele><time>2026-04-25T10:19:54.931Z</time></trkpt><trkpt lat="44.090964967375015" lon="11.280885183674073"><ele>895.0</ele><time>2026-04-25T10:19:55.931Z</time></trkpt><trkpt lat="44.09105716243009" lon="11.28075290177834"><ele>895.5</ele><time>2026-04-25T10:19:56.931Z</time></trkpt><trkpt lat="44.09117054917479" lon="11.28063924739739"><ele>896.0</ele><time>2026-04-25T10:19:57.931Z</time></trkpt><trkpt lat="44.09128757409604" lon="11.280550440360393"><ele>893.5</ele><time>2026-04-25T10:19:58.931Z</time></trkpt><trkpt lat="44.09142476951822" lon="11.280498259022057"><ele>891.0</ele><time>2026-04-25T10:19:59.931Z</time></trkpt><trkpt lat="44.09155327017476" lon="11.280432209043473"><ele>888.5</ele><time>2026-04-25T10:20:00.931Z</time></trkpt><trkpt lat="44.0916795947277" lon="11.280378253249182"><ele>886.0</ele><time>2026-04-25T10:20:01.931Z</time></trkpt><trkpt lat="44.09179050444233" lon="11.280309564769297"><ele>886.0</ele><time>2026-04-25T10:20:02.931Z</time></trkpt><trkpt lat="44.091898180552064" lon="11.280231347956121"><ele>886.0</ele><time>2026-04-25T10:20:03.931Z</time></trkpt><trkpt lat="44.092002343661306" lon="11.280157521957262"><ele>886.0</ele><time>2026-04-25T10:20:04.931Z</time></trkpt><trkpt lat="44.09211011803471" lon="11.280097138445702"><ele>886.0</ele><time>2026-04-25T10:20:05.931Z</time></trkpt><trkpt lat="44.09220537301488" lon="11.280023086514005"><ele>886.0</ele><time>2026-04-25T10:20:06.931Z</time></trkpt><trkpt lat="44.092281199626456" lon="11.279938081560495"><ele>885.9999999999999</ele><time>2026-04-25T10:20:07.931Z</time></trkpt><trkpt lat="44.092339501937374" lon="11.279814226895471"><ele>885.9999999999999</ele><time>2026-04-25T10:20:08.931Z</time></trkpt><trkpt lat="44.0923852275899" lon="11.27966935269909"><ele>886.0</ele><time>2026-04-25T10:20:09.931Z</time></trkpt><trkpt lat="44.09244391930718" lon="11.279534522873714"><ele>886.0</ele><time>2026-04-25T10:20:10.931Z</time></trkpt><trkpt lat="44.09249388256475" lon="11.279374925279596"><ele>887.25</ele><time>2026-04-25T10:20:11.931Z</time></trkpt><trkpt lat="44.092539334428054" lon="11.279201771170055"><ele>888.5</ele><time>2026-04-25T10:20:12.931Z</time></trkpt><trkpt lat="44.09256985485008" lon="11.27904386072083"><ele>889.75</ele><time>2026-04-25T10:20:13.931Z</time></trkpt><trkpt lat="44.09259815369097" lon="11.278893063158446"><ele>891.0</ele><time>2026-04-25T10:20:14.931Z</time></trkpt><trkpt lat="44.092640690713296" lon="11.278758091768603"><ele>891.0</ele><time>2026-04-25T10:20:15.931Z</time></trkpt><trkpt lat="44.09269661953353" lon="11.278618941425703"><ele>890.9999999999999</ele><time>2026-04-25T10:20:16.931Z</time></trkpt><trkpt lat="44.09276341701112" lon="11.278509017921325"><ele>890.9999999999999</ele><time>2026-04-25T10:20:17.931Z</time></trkpt><trkpt lat="44.09285048277116" lon="11.278437519123168"><ele>891.0</ele><time>2026-04-25T10:20:18.931Z</time></trkpt><trkpt lat="44.092949638315986" lon="11.27839864084804"><ele>891.0</ele><time>2026-04-25T10:20:19.931Z</time></trkpt><trkpt lat="44.09304768456503" lon="11.278382158218697"><ele>891.0</ele><time>2026-04-25T10:20:20.931Z</time></trkpt><trkpt lat="44.09313083713774" lon="11.278368086761915"><ele>891.0</ele><time>2026-04-25T10:20:21.931Z</time></trkpt><trkpt lat="44.09322626265643" lon="11.278373408724025"><ele>891.0</ele><time>2026-04-25T10:20:22.931Z</time></trkpt><trkpt lat="44.09330917286754" lon="11.278355762315577"><ele>891.0</ele><time>2026-04-25T10:20:23.931Z</time></trkpt><trkpt lat="44.09338063370724" lon="11.278361240021546"><ele>891.0</ele><time>2026-04-25T10:20:24.931Z</time></trkpt><trkpt lat="44.09346505857623" lon="11.278367243044592"><ele>891.0</ele><time>2026-04-25T10:20:26.931Z</time></trkpt><trkpt lat="44.093500176776146" lon="11.278509794900314"><ele>892.8333333333334</ele><time>2026-04-25T10:20:27.931Z</time></trkpt><trkpt lat="44.09352533960797" lon="11.278618432999975"><ele>894.6666666666667</ele><time>2026-04-25T10:20:28.931Z</time></trkpt><trkpt lat="44.093538820562365" lon="11.27871510249735"><ele>896.5</ele><time>2026-04-25T10:20:29.931Z</time></trkpt><trkpt lat="44.09357636496849" lon="11.278870107508343"><ele>898.3333333333334</ele><time>2026-04-25T10:20:31.931Z</time></trkpt><trkpt lat="44.09363066994227" lon="11.278922116316782"><ele>900.1666666666667</ele><time>2026-04-25T10:20:33.931Z</time></trkpt><trkpt lat="44.0936495980272" lon="11.279012130308965"><ele>902.0</ele><time>2026-04-25T10:20:37.931Z</time></trkpt><trkpt lat="44.09369712472394" lon="11.279113401200553"><ele>902.0000000000001</ele><time>2026-04-25T10:20:52.932Z</time></trkpt><trkpt lat="44.093661261791546" lon="11.279021924086324"><ele>902.0</ele><time>2026-04-25T10:20:55.932Z</time></trkpt><trkpt lat="44.09362066050231" lon="11.27891549207122"><ele>902.0</ele><time>2026-04-25T10:20:58.932Z</time></trkpt><trkpt lat="44.093585725619945" lon="11.278836121515717"><ele>902.0</ele><time>2026-04-25T10:21:00.932Z</time></trkpt><trkpt lat="44.09355685160641" lon="11.278749335440574"><ele>902.0000000000001</ele><time>2026-04-25T10:21:01.932Z</time></trkpt><trkpt lat="44.09353786215862" lon="11.278651866955581"><ele>902.0</ele><time>2026-04-25T10:21:02.932Z</time></trkpt><trkpt lat="44.093549288763406" lon="11.278519914667962"><ele>902.0</ele><time>2026-04-25T10:21:03.932Z</time></trkpt><trkpt lat="44.09353598905934" lon="11.278417864573017"><ele>902.0</ele><time>2026-04-25T10:21:04.932Z</time></trkpt><trkpt lat="44.09355682509761" lon="11.278312896598534"><ele>902.0</ele><time>2026-04-25T10:21:05.932Z</time></trkpt><trkpt lat="44.093593541725696" lon="11.278197636491184"><ele>902.0</ele><time>2026-04-25T10:21:06.932Z</time></trkpt><trkpt lat="44.093649439794106" lon="11.278065746689013"><ele>902.0</ele><time>2026-04-25T10:21:07.932Z</time></trkpt><trkpt lat="44.093711153274626" lon="11.27792453198517"><ele>900.75</ele><time>2026-04-25T10:21:08.932Z</time></trkpt><trkpt lat="44.09378253513324" lon="11.277767022835313"><ele>899.5</ele><time>2026-04-25T10:21:09.932Z</time></trkpt><trkpt lat="44.09384902065508" lon="11.277610464033991"><ele>898.25</ele><time>2026-04-25T10:21:10.932Z</time></trkpt><trkpt lat="44.093919740497704" lon="11.277461098810528"><ele>897.0</ele><time>2026-04-25T10:21:11.932Z</time></trkpt><trkpt lat="44.093981098776624" lon="11.277308445846856"><ele>896.0</ele><time>2026-04-25T10:21:12.932Z</time></trkpt><trkpt lat="44.09403366399155" lon="11.277170527781038"><ele>895.0</ele><time>2026-04-25T10:21:13.932Z</time></trkpt><trkpt lat="44.094097929579675" lon="11.277048041057009"><ele>894.0</ele><time>2026-04-25T10:21:14.932Z</time></trkpt><trkpt lat="44.09413623445904" lon="11.276919930160819"><ele>893.0</ele><time>2026-04-25T10:21:15.932Z</time></trkpt><trkpt lat="44.09414607834342" lon="11.276784239032525"><ele>892.0</ele><time>2026-04-25T10:21:16.932Z</time></trkpt><trkpt lat="44.09418699886612" lon="11.276670971123213"><ele>894.4000000000001</ele><time>2026-04-25T10:21:17.932Z</time></trkpt><trkpt lat="44.09424275709377" lon="11.276569252955525"><ele>896.8000000000001</ele><time>2026-04-25T10:21:18.932Z</time></trkpt><trkpt lat="44.0942986758965" lon="11.276443390423658"><ele>899.2</ele><time>2026-04-25T10:21:19.932Z</time></trkpt><trkpt lat="44.09436390365723" lon="11.276319128580536"><ele>901.6</ele><time>2026-04-25T10:21:20.932Z</time></trkpt><trkpt lat="44.09442698548329" lon="11.276183632916004"><ele>904.0</ele><time>2026-04-25T10:21:21.932Z</time></trkpt><trkpt lat="44.094499271378005" lon="11.276039173971247"><ele>904.0</ele><time>2026-04-25T10:21:22.932Z</time></trkpt><trkpt lat="44.09457169428439" lon="11.275887368330206"><ele>904.0</ele><time>2026-04-25T10:21:23.932Z</time></trkpt><trkpt lat="44.09464969181743" lon="11.275738790479753"><ele>904.0</ele><time>2026-04-25T10:21:24.932Z</time></trkpt><trkpt lat="44.094748197143936" lon="11.275610737286568"><ele>904.0</ele><time>2026-04-25T10:21:25.932Z</time></trkpt><trkpt lat="44.09485365925573" lon="11.275512620790801"><ele>906.75</ele><time>2026-04-25T10:21:26.932Z</time></trkpt><trkpt lat="44.094964834965474" lon="11.275426472179062"><ele>909.5</ele><time>2026-04-25T10:21:27.932Z</time></trkpt><trkpt lat="44.09509235888358" lon="11.275373323465619"><ele>912.25</ele><time>2026-04-25T10:21:28.932Z</time></trkpt><trkpt lat="44.095225298372085" lon="11.27534230592567"><ele>915.0</ele><time>2026-04-25T10:21:29.932Z</time></trkpt><trkpt lat="44.095355368154614" lon="11.275326255277248"><ele>915.0</ele><time>2026-04-25T10:21:30.932Z</time></trkpt><trkpt lat="44.0954878713244" lon="11.275331410903044"><ele>915.0</ele><time>2026-04-25T10:21:31.932Z</time></trkpt><trkpt lat="44.095626015225335" lon="11.275353781149288"><ele>915.0</ele><time>2026-04-25T10:21:32.932Z</time></trkpt><trkpt lat="44.09576750720706" lon="11.275362367593956"><ele>915.0</ele><time>2026-04-25T10:21:33.932Z</time></trkpt><trkpt lat="44.09591313906385" lon="11.275358413825792"><ele>916.3333333333333</ele><time>2026-04-25T10:21:34.932Z</time></trkpt><trkpt lat="44.0960580175148" lon="11.275337938327255"><ele>917.6666666666666</ele><time>2026-04-25T10:21:35.932Z</time></trkpt><trkpt lat="44.096211970212266" lon="11.27530310853476"><ele>919.0</ele><time>2026-04-25T10:21:36.932Z</time></trkpt><trkpt lat="44.09636263245374" lon="11.275261145210488"><ele>919.0</ele><time>2026-04-25T10:21:37.932Z</time></trkpt><trkpt lat="44.096523347714026" lon="11.275208391390422"><ele>919.0</ele><time>2026-04-25T10:21:38.932Z</time></trkpt><trkpt lat="44.09666286804974" lon="11.275160369453445"><ele>919.0</ele><time>2026-04-25T10:21:39.932Z</time></trkpt><trkpt lat="44.096797141116085" lon="11.275100368120038"><ele>919.5</ele><time>2026-04-25T10:21:40.932Z</time></trkpt><trkpt lat="44.09693115219585" lon="11.275044046412138"><ele>920.0</ele><time>2026-04-25T10:21:41.931Z</time></trkpt><trkpt lat="44.09707594799802" lon="11.274999475492807"><ele>920.5</ele><time>2026-04-25T10:21:42.931Z</time></trkpt><trkpt lat="44.097221139612415" lon="11.274987320778115"><ele>921.0</ele><time>2026-04-25T10:21:43.931Z</time></trkpt><trkpt lat="44.097381633318236" lon="11.275003674686555"><ele>918.6666666666667</ele><time>2026-04-25T10:21:44.932Z</time></trkpt><trkpt lat="44.09754940274661" lon="11.2750460085452"><ele>916.3333333333334</ele><time>2026-04-25T10:21:45.932Z</time></trkpt><trkpt lat="44.09772172601803" lon="11.275096406590349"><ele>914.0</ele><time>2026-04-25T10:21:46.931Z</time></trkpt><trkpt lat="44.09789203738517" lon="11.275149397199232"><ele>914.0</ele><time>2026-04-25T10:21:47.932Z</time></trkpt><trkpt lat="44.09804976033837" lon="11.275209841757942"><ele>914.0</ele><time>2026-04-25T10:21:48.932Z</time></trkpt><trkpt lat="44.098199762589275" lon="11.275266054158298"><ele>914.0</ele><time>2026-04-25T10:21:49.932Z</time></trkpt><trkpt lat="44.09834160792619" lon="11.27530660244732"><ele>913.5</ele><time>2026-04-25T10:21:50.931Z</time></trkpt><trkpt lat="44.09847257517949" lon="11.275326219849855"><ele>913.0</ele><time>2026-04-25T10:21:51.931Z</time></trkpt><trkpt lat="44.09859592628753" lon="11.275297696570464"><ele>912.5</ele><time>2026-04-25T10:21:52.931Z</time></trkpt><trkpt lat="44.09869758723041" lon="11.275240540090365"><ele>912.0</ele><time>2026-04-25T10:21:53.931Z</time></trkpt><trkpt lat="44.09879742663381" lon="11.2751741822933"><ele>912.0</ele><time>2026-04-25T10:21:54.931Z</time></trkpt><trkpt lat="44.098905370382724" lon="11.275127616420356"><ele>912.0</ele><time>2026-04-25T10:21:55.931Z</time></trkpt><trkpt lat="44.09902768812997" lon="11.275083704362771"><ele>912.0</ele><time>2026-04-25T10:21:56.931Z</time></trkpt><trkpt lat="44.09915355469106" lon="11.27509257894101"><ele>912.0</ele><time>2026-04-25T10:21:57.931Z</time></trkpt><trkpt lat="44.09928487575959" lon="11.275099705045978"><ele>910.0</ele><time>2026-04-25T10:21:58.931Z</time></trkpt><trkpt lat="44.099420358888096" lon="11.275105663899197"><ele>908.0</ele><time>2026-04-25T10:21:59.931Z</time></trkpt><trkpt lat="44.099554850312764" lon="11.27510525173548"><ele>906.0</ele><time>2026-04-25T10:22:00.931Z</time></trkpt><trkpt lat="44.09967592374394" lon="11.275111715883284"><ele>904.0</ele><time>2026-04-25T10:22:01.931Z</time></trkpt><trkpt lat="44.099794780942815" lon="11.275070586676666"><ele>904.0</ele><time>2026-04-25T10:22:02.931Z</time></trkpt><trkpt lat="44.09991281983873" lon="11.275071372139042"><ele>904.0</ele><time>2026-04-25T10:22:03.931Z</time></trkpt><trkpt lat="44.100032599080365" lon="11.275101759525421"><ele>904.0</ele><time>2026-04-25T10:22:04.931Z</time></trkpt><trkpt lat="44.10015681735933" lon="11.275178794810344"><ele>904.0</ele><time>2026-04-25T10:22:05.931Z</time></trkpt><trkpt lat="44.100271936726976" lon="11.275286792736516"><ele>903.0</ele><time>2026-04-25T10:22:06.931Z</time></trkpt><trkpt lat="44.100387322218594" lon="11.275429131638639"><ele>902.0</ele><time>2026-04-25T10:22:07.931Z</time></trkpt><trkpt lat="44.1004858063354" lon="11.275585386480905"><ele>901.0</ele><time>2026-04-25T10:22:08.931Z</time></trkpt><trkpt lat="44.100581086692216" lon="11.27573798630515"><ele>900.0</ele><time>2026-04-25T10:22:09.931Z</time></trkpt><trkpt lat="44.100676372736615" lon="11.275868315912794"><ele>899.0</ele><time>2026-04-25T10:22:10.931Z</time></trkpt><trkpt lat="44.10076872894133" lon="11.275957421583668"><ele>898.0</ele><time>2026-04-25T10:22:11.931Z</time></trkpt><trkpt lat="44.1008642485097" lon="11.276019828462672"><ele>897.0</ele><time>2026-04-25T10:22:12.931Z</time></trkpt><trkpt lat="44.10095192293718" lon="11.276067539204481"><ele>896.0</ele><time>2026-04-25T10:22:13.931Z</time></trkpt><trkpt lat="44.101052943556994" lon="11.276095657165305"><ele>895.0</ele><time>2026-04-25T10:22:14.931Z</time></trkpt><trkpt lat="44.10115570318681" lon="11.276102827354663"><ele>895.0</ele><time>2026-04-25T10:22:15.931Z</time></trkpt><trkpt lat="44.101265358138356" lon="11.276082140721075"><ele>895.0</ele><time>2026-04-25T10:22:16.931Z</time></trkpt><trkpt lat="44.1013830183494" lon="11.276048098727452"><ele>895.0</ele><time>2026-04-25T10:22:17.931Z</time></trkpt><trkpt lat="44.10149586405438" lon="11.275988643567699"><ele>895.0</ele><time>2026-04-25T10:22:18.931Z</time></trkpt><trkpt lat="44.10159329445195" lon="11.275983885644314"><ele>895.0</ele><time>2026-04-25T10:22:19.931Z</time></trkpt><trkpt lat="44.101697374277464" lon="11.276017460098398"><ele>895.5</ele><time>2026-04-25T10:22:20.931Z</time></trkpt><trkpt lat="44.101800939700695" lon="11.276102883305985"><ele>896.0</ele><time>2026-04-25T10:22:21.931Z</time></trkpt><trkpt lat="44.10189433796497" lon="11.276221703838303"><ele>896.5</ele><time>2026-04-25T10:22:22.931Z</time></trkpt><trkpt lat="44.10197706785326" lon="11.276361966725007"><ele>897.0</ele><time>2026-04-25T10:22:23.931Z</time></trkpt><trkpt lat="44.10204377330144" lon="11.276512183704732"><ele>894.5</ele><time>2026-04-25T10:22:24.931Z</time></trkpt><trkpt lat="44.10210785800107" lon="11.276669270342278"><ele>892.0</ele><time>2026-04-25T10:22:25.931Z</time></trkpt><trkpt lat="44.10216501598255" lon="11.276836392637154"><ele>889.5</ele><time>2026-04-25T10:22:26.931Z</time></trkpt><trkpt lat="44.10220376944901" lon="11.27703334763234"><ele>887.0</ele><time>2026-04-25T10:22:27.931Z</time></trkpt><trkpt lat="44.10222428915321" lon="11.277241260166257"><ele>884.25</ele><time>2026-04-25T10:22:28.931Z</time></trkpt><trkpt lat="44.102230573040536" lon="11.27744241727517"><ele>881.5</ele><time>2026-04-25T10:22:29.931Z</time></trkpt><trkpt lat="44.10223226558655" lon="11.277634518203172"><ele>878.75</ele><time>2026-04-25T10:22:30.931Z</time></trkpt><trkpt lat="44.1022530089846" lon="11.277815413786442"><ele>876.0</ele><time>2026-04-25T10:22:31.931Z</time></trkpt><trkpt lat="44.10229183269346" lon="11.277971270609514"><ele>877.75</ele><time>2026-04-25T10:22:32.931Z</time></trkpt><trkpt lat="44.10235890368464" lon="11.278104881385019"><ele>879.5</ele><time>2026-04-25T10:22:33.931Z</time></trkpt><trkpt lat="44.10243879139783" lon="11.278218420950095"><ele>881.25</ele><time>2026-04-25T10:22:34.931Z</time></trkpt><trkpt lat="44.102556502224296" lon="11.27831796479927"><ele>883.0</ele><time>2026-04-25T10:22:35.931Z</time></trkpt><trkpt lat="44.10268738976307" lon="11.278410459828168"><ele>883.0</ele><time>2026-04-25T10:22:36.931Z</time></trkpt><trkpt lat="44.102803764617306" lon="11.278516544680267"><ele>883.0</ele><time>2026-04-25T10:22:37.931Z</time></trkpt><trkpt lat="44.10292785050135" lon="11.278636951080939"><ele>883.0</ele><time>2026-04-25T10:22:38.931Z</time></trkpt><trkpt lat="44.103051938587186" lon="11.278766406726406"><ele>883.0</ele><time>2026-04-25T10:22:39.931Z</time></trkpt><trkpt lat="44.10316770117542" lon="11.278902504211388"><ele>882.6666666666666</ele><time>2026-04-25T10:22:40.931Z</time></trkpt><trkpt lat="44.103285659164804" lon="11.279046248462585"><ele>882.3333333333333</ele><time>2026-04-25T10:22:41.931Z</time></trkpt><trkpt lat="44.10339826185193" lon="11.27921425521766"><ele>882.0</ele><time>2026-04-25T10:22:42.931Z</time></trkpt><trkpt lat="44.103511758781266" lon="11.27939788760279"><ele>882.0</ele><time>2026-04-25T10:22:43.931Z</time></trkpt><trkpt lat="44.103623242719856" lon="11.279588992496997"><ele>882.0</ele><time>2026-04-25T10:22:44.931Z</time></trkpt><trkpt lat="44.10373987075715" lon="11.279773514643663"><ele>882.0</ele><time>2026-04-25T10:22:45.931Z</time></trkpt><trkpt lat="44.103868702428564" lon="11.279941990466169"><ele>882.6666666666667</ele><time>2026-04-25T10:22:46.931Z</time></trkpt><trkpt lat="44.103998403697126" lon="11.280121730222845"><ele>883.3333333333334</ele><time>2026-04-25T10:22:47.931Z</time></trkpt><trkpt lat="44.104129293122895" lon="11.280294858491768"><ele>884.0</ele><time>2026-04-25T10:22:48.931Z</time></trkpt><trkpt lat="44.10426419875933" lon="11.28046943860403"><ele>882.0</ele><time>2026-04-25T10:22:49.931Z</time></trkpt><trkpt lat="44.104393309626495" lon="11.280644218273983"><ele>880.0</ele><time>2026-04-25T10:22:50.931Z</time></trkpt><trkpt lat="44.1045255543367" lon="11.28080891759443"><ele>878.0</ele><time>2026-04-25T10:22:51.931Z</time></trkpt><trkpt lat="44.10465734170148" lon="11.280975765497333"><ele>878.0</ele><time>2026-04-25T10:22:52.931Z</time></trkpt><trkpt lat="44.10478542898753" lon="11.281132189245763"><ele>878.0</ele><time>2026-04-25T10:22:53.931Z</time></trkpt><trkpt lat="44.10490988951763" lon="11.281287947938463"><ele>878.0</ele><time>2026-04-25T10:22:54.931Z</time></trkpt><trkpt lat="44.10502783145346" lon="11.281447201585273"><ele>878.6666666666667</ele><time>2026-04-25T10:22:55.931Z</time></trkpt><trkpt lat="44.10513842295694" lon="11.281604006621722"><ele>879.3333333333333</ele><time>2026-04-25T10:22:56.931Z</time></trkpt><trkpt lat="44.10524877172407" lon="11.281762592694509"><ele>880.0</ele><time>2026-04-25T10:22:57.931Z</time></trkpt><trkpt lat="44.10536008854438" lon="11.281917399751435"><ele>880.0</ele><time>2026-04-25T10:22:58.931Z</time></trkpt><trkpt lat="44.10546397056712" lon="11.282073815244111"><ele>880.0</ele><time>2026-04-25T10:22:59.931Z</time></trkpt><trkpt lat="44.10556363957338" lon="11.282230305712378"><ele>880.0</ele><time>2026-04-25T10:23:00.931Z</time></trkpt><trkpt lat="44.10566455589567" lon="11.282384855733902"><ele>879.75</ele><time>2026-04-25T10:23:01.931Z</time></trkpt><trkpt lat="44.105766194477006" lon="11.282532729120991"><ele>879.5</ele><time>2026-04-25T10:23:02.931Z</time></trkpt><trkpt lat="44.10586397690662" lon="11.282687766564734"><ele>879.25</ele><time>2026-04-25T10:23:03.931Z</time></trkpt><trkpt lat="44.10595557966838" lon="11.282839858942705"><ele>879.0</ele><time>2026-04-25T10:23:04.931Z</time></trkpt><trkpt lat="44.1060439123925" lon="11.282995050418766"><ele>876.5</ele><time>2026-04-25T10:23:05.931Z</time></trkpt><trkpt lat="44.10613178506853" lon="11.283144938695335"><ele>874.0</ele><time>2026-04-25T10:23:06.931Z</time></trkpt><trkpt lat="44.10621912769379" lon="11.283295878433432"><ele>871.5</ele><time>2026-04-25T10:23:07.931Z</time></trkpt><trkpt lat="44.10631606867485" lon="11.28343631871867"><ele>869.0</ele><time>2026-04-25T10:23:08.931Z</time></trkpt><trkpt lat="44.10642129571983" lon="11.283558816653105"><ele>869.0</ele><time>2026-04-25T10:23:09.931Z</time></trkpt><trkpt lat="44.1065392009063" lon="11.283668145069004"><ele>869.0</ele><time>2026-04-25T10:23:10.931Z</time></trkpt><trkpt lat="44.10666314277181" lon="11.283745224991868"><ele>869.0</ele><time>2026-04-25T10:23:11.931Z</time></trkpt><trkpt lat="44.10680220021874" lon="11.28380680272795"><ele>869.0</ele><time>2026-04-25T10:23:12.931Z</time></trkpt><trkpt lat="44.10694450133452" lon="11.283839874051859"><ele>870.5</ele><time>2026-04-25T10:23:13.931Z</time></trkpt><trkpt lat="44.107094625557224" lon="11.283847042397031"><ele>872.0</ele><time>2026-04-25T10:23:14.931Z</time></trkpt><trkpt lat="44.107233103553405" lon="11.283839454200466"><ele>873.5</ele><time>2026-04-25T10:23:15.931Z</time></trkpt><trkpt lat="44.107380304704776" lon="11.283830304759869"><ele>875.0</ele><time>2026-04-25T10:23:16.931Z</time></trkpt><trkpt lat="44.10752936477616" lon="11.283823184467913"><ele>875.0</ele><time>2026-04-25T10:23:17.931Z</time></trkpt><trkpt lat="44.10767149984812" lon="11.283819783543896"><ele>875.0</ele><time>2026-04-25T10:23:18.931Z</time></trkpt><trkpt lat="44.107816826605095" lon="11.283807817120842"><ele>875.0</ele><time>2026-04-25T10:23:19.931Z</time></trkpt><trkpt lat="44.10795699104691" lon="11.28378876387907"><ele>875.0</ele><time>2026-04-25T10:23:20.931Z</time></trkpt><trkpt lat="44.10809536360449" lon="11.28375485246181"><ele>875.0</ele><time>2026-04-25T10:23:21.931Z</time></trkpt><trkpt lat="44.10824158713895" lon="11.283725554048209"><ele>875.0</ele><time>2026-04-25T10:23:22.931Z</time></trkpt><trkpt lat="44.108370041708135" lon="11.283655097754309"><ele>875.0</ele><time>2026-04-25T10:23:23.931Z</time></trkpt><trkpt lat="44.10849550910179" lon="11.283593679560834"><ele>875.0</ele><time>2026-04-25T10:23:24.931Z</time></trkpt><trkpt lat="44.10862408477547" lon="11.28355436339532"><ele>872.25</ele><time>2026-04-25T10:23:25.931Z</time></trkpt><trkpt lat="44.108761327807976" lon="11.283535237833899"><ele>869.5</ele><time>2026-04-25T10:23:26.931Z</time></trkpt><trkpt lat="44.108905523134595" lon="11.28352346797314"><ele>866.75</ele><time>2026-04-25T10:23:27.931Z</time></trkpt><trkpt lat="44.109046033096874" lon="11.283534858501929"><ele>864.0</ele><time>2026-04-25T10:23:28.931Z</time></trkpt><trkpt lat="44.10918114345112" lon="11.283565302693658"><ele>863.0</ele><time>2026-04-25T10:23:29.931Z</time></trkpt><trkpt lat="44.10931102318086" lon="11.283591581598282"><ele>862.0</ele><time>2026-04-25T10:23:30.931Z</time></trkpt><trkpt lat="44.10944036494082" lon="11.283619113020372"><ele>861.0</ele><time>2026-04-25T10:23:31.931Z</time></trkpt><trkpt lat="44.10955623578179" lon="11.283646935168449"><ele>860.0</ele><time>2026-04-25T10:23:32.931Z</time></trkpt><trkpt lat="44.109681102884295" lon="11.283697921036087"><ele>860.0</ele><time>2026-04-25T10:23:33.931Z</time></trkpt><trkpt lat="44.10980245966611" lon="11.283770250874912"><ele>860.0</ele><time>2026-04-25T10:23:34.931Z</time></trkpt><trkpt lat="44.109917791827" lon="11.28385350475651"><ele>860.0</ele><time>2026-04-25T10:23:35.931Z</time></trkpt><trkpt lat="44.11003396578872" lon="11.28393996373052"><ele>860.0</ele><time>2026-04-25T10:23:36.931Z</time></trkpt><trkpt lat="44.11015190859765" lon="11.284027239966084"><ele>857.75</ele><time>2026-04-25T10:23:37.931Z</time></trkpt><trkpt lat="44.110275575155015" lon="11.284121798807927"><ele>855.5</ele><time>2026-04-25T10:23:38.931Z</time></trkpt><trkpt lat="44.11039987865576" lon="11.284220107122222"><ele>853.25</ele><time>2026-04-25T10:23:39.931Z</time></trkpt><trkpt lat="44.11052379054877" lon="11.284316727797465"><ele>851.0</ele><time>2026-04-25T10:23:40.931Z</time></trkpt><trkpt lat="44.11064293982013" lon="11.284411080954523"><ele>851.5</ele><time>2026-04-25T10:23:41.931Z</time></trkpt><trkpt lat="44.11076050873983" lon="11.28451090373059"><ele>852.0</ele><time>2026-04-25T10:23:42.931Z</time></trkpt><trkpt lat="44.110862167237435" lon="11.284597360151995"><ele>852.5</ele><time>2026-04-25T10:23:43.931Z</time></trkpt><trkpt lat="44.110964091187185" lon="11.284675242134114"><ele>853.0</ele><time>2026-04-25T10:23:44.931Z</time></trkpt><trkpt lat="44.11106614220167" lon="11.284757662236364"><ele>851.25</ele><time>2026-04-25T10:23:45.931Z</time></trkpt><trkpt lat="44.111169673100925" lon="11.284855439308496"><ele>849.5</ele><time>2026-04-25T10:23:46.932Z</time></trkpt><trkpt lat="44.1112747466911" lon="11.284938433236595"><ele>847.75</ele><time>2026-04-25T10:23:47.93Z</time></trkpt><trkpt lat="44.11139824067352" lon="11.285012288814748"><ele>846.0</ele><time>2026-04-25T10:23:48.93Z</time></trkpt><trkpt lat="44.111541260586165" lon="11.285031972437212"><ele>848.0</ele><time>2026-04-25T10:23:49.931Z</time></trkpt><trkpt lat="44.11169130307252" lon="11.285055593349693"><ele>850.0</ele><time>2026-04-25T10:23:50.931Z</time></trkpt><trkpt lat="44.11185099481765" lon="11.285091730760888"><ele>852.0</ele><time>2026-04-25T10:23:51.931Z</time></trkpt><trkpt lat="44.11201671323632" lon="11.285116803311155"><ele>852.0</ele><time>2026-04-25T10:23:52.931Z</time></trkpt><trkpt lat="44.112174353853526" lon="11.28513159655088"><ele>852.0</ele><time>2026-04-25T10:23:53.931Z</time></trkpt><trkpt lat="44.11233123640792" lon="11.285151928614296"><ele>852.0</ele><time>2026-04-25T10:23:54.931Z</time></trkpt><trkpt lat="44.11248061745178" lon="11.28520124999009"><ele>853.0</ele><time>2026-04-25T10:23:55.931Z</time></trkpt><trkpt lat="44.11263167870479" lon="11.285296728111224"><ele>854.0</ele><time>2026-04-25T10:23:56.931Z</time></trkpt><trkpt lat="44.11279963720805" lon="11.285413220349282"><ele>855.0</ele><time>2026-04-25T10:23:57.931Z</time></trkpt><trkpt lat="44.11296873978222" lon="11.28553269210466"><ele>853.6666666666667</ele><time>2026-04-25T10:23:58.931Z</time></trkpt><trkpt lat="44.11314775979182" lon="11.28563313921822"><ele>852.3333333333334</ele><time>2026-04-25T10:23:59.931Z</time></trkpt><trkpt lat="44.11330472717784" lon="11.285768871463222"><ele>851.0</ele><time>2026-04-25T10:24:00.931Z</time></trkpt><trkpt lat="44.11345795935468" lon="11.285875053741048"><ele>851.0</ele><time>2026-04-25T10:24:01.931Z</time></trkpt><trkpt lat="44.11360192572901" lon="11.285981930193218"><ele>851.0</ele><time>2026-04-25T10:24:02.931Z</time></trkpt><trkpt lat="44.113744950290624" lon="11.286081218337552"><ele>851.0</ele><time>2026-04-25T10:24:03.931Z</time></trkpt><trkpt lat="44.11388601828524" lon="11.286177135273586"><ele>851.0</ele><time>2026-04-25T10:24:04.931Z</time></trkpt><trkpt lat="44.11402805871308" lon="11.286262772313586"><ele>851.0</ele><time>2026-04-25T10:24:05.931Z</time></trkpt><trkpt lat="44.11417622623853" lon="11.286323886212244"><ele>851.0</ele><time>2026-04-25T10:24:06.931Z</time></trkpt><trkpt lat="44.11431695961523" lon="11.286364127394886"><ele>852.75</ele><time>2026-04-25T10:24:07.931Z</time></trkpt><trkpt lat="44.11446709536825" lon="11.286405282684791"><ele>854.5</ele><time>2026-04-25T10:24:08.931Z</time></trkpt><trkpt lat="44.11460587234931" lon="11.28644332440356"><ele>856.25</ele><time>2026-04-25T10:24:09.931Z</time></trkpt><trkpt lat="44.11473385415036" lon="11.286481744715179"><ele>858.0</ele><time>2026-04-25T10:24:10.931Z</time></trkpt><trkpt lat="44.114861366177294" lon="11.286537456380646"><ele>859.3333333333333</ele><time>2026-04-25T10:24:11.931Z</time></trkpt><trkpt lat="44.1150017058645" lon="11.286609532256572"><ele>860.6666666666666</ele><time>2026-04-25T10:24:12.931Z</time></trkpt><trkpt lat="44.115133915907265" lon="11.28674697731624"><ele>862.0</ele><time>2026-04-25T10:24:13.931Z</time></trkpt><trkpt lat="44.11523982832373" lon="11.286922556269657"><ele>862.0</ele><time>2026-04-25T10:24:14.931Z</time></trkpt><trkpt lat="44.11531848633563" lon="11.28710778319922"><ele>862.0</ele><time>2026-04-25T10:24:15.931Z</time></trkpt><trkpt lat="44.115384035289786" lon="11.287310139559235"><ele>862.0</ele><time>2026-04-25T10:24:16.931Z</time></trkpt><trkpt lat="44.11543946134675" lon="11.287519660868538"><ele>860.25</ele><time>2026-04-25T10:24:17.931Z</time></trkpt><trkpt lat="44.11549453331127" lon="11.287716424602667"><ele>858.5</ele><time>2026-04-25T10:24:18.931Z</time></trkpt><trkpt lat="44.11555167453761" lon="11.28788526024117"><ele>856.75</ele><time>2026-04-25T10:24:19.931Z</time></trkpt><trkpt lat="44.11562311200764" lon="11.28803067677305"><ele>855.0</ele><time>2026-04-25T10:24:20.931Z</time></trkpt><trkpt lat="44.1156916087355" lon="11.288174247541995"><ele>856.75</ele><time>2026-04-25T10:24:21.931Z</time></trkpt><trkpt lat="44.115794694250894" lon="11.288284183976716"><ele>858.5</ele><time>2026-04-25T10:24:22.931Z</time></trkpt><trkpt lat="44.1159231479008" lon="11.28835900704384"><ele>860.25</ele><time>2026-04-25T10:24:23.931Z</time></trkpt><trkpt lat="44.11604614302174" lon="11.288403308871434"><ele>862.0</ele><time>2026-04-25T10:24:24.931Z</time></trkpt><trkpt lat="44.11617638736741" lon="11.288402617209103"><ele>862.0</ele><time>2026-04-25T10:24:25.931Z</time></trkpt><trkpt lat="44.11629938230434" lon="11.288348539871448"><ele>862.0</ele><time>2026-04-25T10:24:26.931Z</time></trkpt><trkpt lat="44.116393353057155" lon="11.288226780909199"><ele>862.0</ele><time>2026-04-25T10:24:27.931Z</time></trkpt><trkpt lat="44.11647561291238" lon="11.288083240014686"><ele>862.0</ele><time>2026-04-25T10:24:28.931Z</time></trkpt><trkpt lat="44.11653809184195" lon="11.287890590648217"><ele>863.0</ele><time>2026-04-25T10:24:29.931Z</time></trkpt><trkpt lat="44.11661640649763" lon="11.287701303451785"><ele>864.0</ele><time>2026-04-25T10:24:30.931Z</time></trkpt><trkpt lat="44.11668187614764" lon="11.28751148306767"><ele>865.0</ele><time>2026-04-25T10:24:31.931Z</time></trkpt><trkpt lat="44.11674509955044" lon="11.287328175736794"><ele>868.25</ele><time>2026-04-25T10:24:32.931Z</time></trkpt><trkpt lat="44.11680382768505" lon="11.287153947078906"><ele>871.5</ele><time>2026-04-25T10:24:33.931Z</time></trkpt><trkpt lat="44.11685799969675" lon="11.28699883495193"><ele>874.75</ele><time>2026-04-25T10:24:34.931Z</time></trkpt><trkpt lat="44.11691692485457" lon="11.286861626180311"><ele>878.0</ele><time>2026-04-25T10:24:35.931Z</time></trkpt><trkpt lat="44.1169888831857" lon="11.286768131970417"><ele>878.0</ele><time>2026-04-25T10:24:36.931Z</time></trkpt><trkpt lat="44.11707036001166" lon="11.286710119898622"><ele>878.0</ele><time>2026-04-25T10:24:37.931Z</time></trkpt><trkpt lat="44.117147158889125" lon="11.286690957786927"><ele>878.0</ele><time>2026-04-25T10:24:38.931Z</time></trkpt><trkpt lat="44.11724832415207" lon="11.28670822896984"><ele>878.0</ele><time>2026-04-25T10:24:39.931Z</time></trkpt><trkpt lat="44.11735470890952" lon="11.286770482937339"><ele>878.0</ele><time>2026-04-25T10:24:40.931Z</time></trkpt><trkpt lat="44.11743517987803" lon="11.286904386848803"><ele>874.75</ele><time>2026-04-25T10:24:41.931Z</time></trkpt><trkpt lat="44.117492883972176" lon="11.287063089313804"><ele>871.5</ele><time>2026-04-25T10:24:42.931Z</time></trkpt><trkpt lat="44.11752729074273" lon="11.287250051775313"><ele>868.25</ele><time>2026-04-25T10:24:43.931Z</time></trkpt><trkpt lat="44.11754397043322" lon="11.287458675139378"><ele>865.0</ele><time>2026-04-25T10:24:44.931Z</time></trkpt><trkpt lat="44.11757431972327" lon="11.287649382582677"><ele>863.75</ele><time>2026-04-25T10:24:45.931Z</time></trkpt><trkpt lat="44.11761611605625" lon="11.287841619730427"><ele>862.5</ele><time>2026-04-25T10:24:46.931Z</time></trkpt><trkpt lat="44.11766284008839" lon="11.28801419472318"><ele>861.25</ele><time>2026-04-25T10:24:47.931Z</time></trkpt><trkpt lat="44.11772749488428" lon="11.288167482098379"><ele>860.0</ele><time>2026-04-25T10:24:48.931Z</time></trkpt><trkpt lat="44.11779585730779" lon="11.288300819553383"><ele>859.75</ele><time>2026-04-25T10:24:49.931Z</time></trkpt><trkpt lat="44.117889095253446" lon="11.288416492986851"><ele>859.5</ele><time>2026-04-25T10:24:50.931Z</time></trkpt><trkpt lat="44.118011392758056" lon="11.288515037793166"><ele>859.25</ele><time>2026-04-25T10:24:51.931Z</time></trkpt><trkpt lat="44.11813705454932" lon="11.288632564532422"><ele>859.0</ele><time>2026-04-25T10:24:52.931Z</time></trkpt><trkpt lat="44.1182761934836" lon="11.288761991216903"><ele>862.3333333333333</ele><time>2026-04-25T10:24:53.931Z</time></trkpt><trkpt lat="44.11842200507983" lon="11.28889148734107"><ele>865.6666666666667</ele><time>2026-04-25T10:24:54.931Z</time></trkpt><trkpt lat="44.1185561825899" lon="11.289012086858088"><ele>869.0</ele><time>2026-04-25T10:24:55.931Z</time></trkpt><trkpt lat="44.118686189668495" lon="11.289118904896776"><ele>869.0</ele><time>2026-04-25T10:24:56.931Z</time></trkpt><trkpt lat="44.11880917956907" lon="11.289219750442198"><ele>869.0</ele><time>2026-04-25T10:24:57.931Z</time></trkpt><trkpt lat="44.11892550486585" lon="11.289313301209214"><ele>869.0</ele><time>2026-04-25T10:24:58.931Z</time></trkpt><trkpt lat="44.119021205584" lon="11.289417725574616"><ele>869.0</ele><time>2026-04-25T10:24:59.931Z</time></trkpt><trkpt lat="44.1190964138539" lon="11.28955916585264"><ele>869.3333333333334</ele><time>2026-04-25T10:25:00.931Z</time></trkpt><trkpt lat="44.119140776257154" lon="11.289744444682063"><ele>869.6666666666667</ele><time>2026-04-25T10:25:01.931Z</time></trkpt><trkpt lat="44.11916054441507" lon="11.289948025701605"><ele>870.0</ele><time>2026-04-25T10:25:02.931Z</time></trkpt><trkpt lat="44.11916361971143" lon="11.290186652968973"><ele>870.0</ele><time>2026-04-25T10:25:03.931Z</time></trkpt><trkpt lat="44.11916716987123" lon="11.29044769502234"><ele>870.0</ele><time>2026-04-25T10:25:04.931Z</time></trkpt><trkpt lat="44.11917132224335" lon="11.29071219893024"><ele>870.0</ele><time>2026-04-25T10:25:05.931Z</time></trkpt><trkpt lat="44.119175829998156" lon="11.290966353807855"><ele>868.0</ele><time>2026-04-25T10:25:06.931Z</time></trkpt><trkpt lat="44.11917660059882" lon="11.291207682929235"><ele>866.0</ele><time>2026-04-25T10:25:07.931Z</time></trkpt><trkpt lat="44.1191823407231" lon="11.291434949145636"><ele>864.0</ele><time>2026-04-25T10:25:08.931Z</time></trkpt><trkpt lat="44.119196465394396" lon="11.291648259239905"><ele>863.5</ele><time>2026-04-25T10:25:09.931Z</time></trkpt><trkpt lat="44.11921840237749" lon="11.291854024862152"><ele>863.0</ele><time>2026-04-25T10:25:10.931Z</time></trkpt><trkpt lat="44.11926551502843" lon="11.292042536161329"><ele>862.5</ele><time>2026-04-25T10:25:11.931Z</time></trkpt><trkpt lat="44.11932433130912" lon="11.292237764793894"><ele>862.0</ele><time>2026-04-25T10:25:12.931Z</time></trkpt><trkpt lat="44.11940190466986" lon="11.292410384258396"><ele>861.3333333333333</ele><time>2026-04-25T10:25:13.931Z</time></trkpt><trkpt lat="44.11950404037741" lon="11.292570093882867"><ele>860.6666666666667</ele><time>2026-04-25T10:25:14.931Z</time></trkpt><trkpt lat="44.1196258316004" lon="11.29271811263631"><ele>860.0</ele><time>2026-04-25T10:25:15.931Z</time></trkpt><trkpt lat="44.11975493515768" lon="11.292872463979107"><ele>860.0</ele><time>2026-04-25T10:25:16.931Z</time></trkpt><trkpt lat="44.11988331408972" lon="11.293030223967836"><ele>860.0</ele><time>2026-04-25T10:25:17.931Z</time></trkpt><trkpt lat="44.120022296146445" lon="11.293191127557096"><ele>860.0</ele><time>2026-04-25T10:25:18.931Z</time></trkpt><trkpt lat="44.12015814976957" lon="11.293350044955293"><ele>860.3333333333334</ele><time>2026-04-25T10:25:19.931Z</time></trkpt><trkpt lat="44.120299176455326" lon="11.293509082567136"><ele>860.6666666666667</ele><time>2026-04-25T10:25:20.931Z</time></trkpt><trkpt lat="44.12044288881354" lon="11.293688127472647"><ele>861.0</ele><time>2026-04-25T10:25:21.931Z</time></trkpt><trkpt lat="44.12058287344572" lon="11.293880780761134"><ele>858.6666666666667</ele><time>2026-04-25T10:25:22.931Z</time></trkpt><trkpt lat="44.12070157546476" lon="11.294106649969368"><ele>856.3333333333334</ele><time>2026-04-25T10:25:23.931Z</time></trkpt><trkpt lat="44.120800488862045" lon="11.294359063910322"><ele>854.0</ele><time>2026-04-25T10:25:24.931Z</time></trkpt><trkpt lat="44.12089391148926" lon="11.294588241739914"><ele>858.0</ele><time>2026-04-25T10:25:25.931Z</time></trkpt><trkpt lat="44.12098798016345" lon="11.294797246142158"><ele>862.0</ele><time>2026-04-25T10:25:26.931Z</time></trkpt><trkpt lat="44.121087025761994" lon="11.29497142423794"><ele>866.0</ele><time>2026-04-25T10:25:27.931Z</time></trkpt><trkpt lat="44.121184270550835" lon="11.29515216731882"><ele>866.0</ele><time>2026-04-25T10:25:28.931Z</time></trkpt><trkpt lat="44.12127335587115" lon="11.295322248557913"><ele>866.0</ele><time>2026-04-25T10:25:29.931Z</time></trkpt><trkpt lat="44.12136540627108" lon="11.295490291906026"><ele>866.0</ele><time>2026-04-25T10:25:30.931Z</time></trkpt><trkpt lat="44.1214645355393" lon="11.295637065926005"><ele>866.0</ele><time>2026-04-25T10:25:31.931Z</time></trkpt><trkpt lat="44.12157966112815" lon="11.29574564652129"><ele>871.0</ele><time>2026-04-25T10:25:32.931Z</time></trkpt><trkpt lat="44.12169854561929" lon="11.295815614962802"><ele>876.0</ele><time>2026-04-25T10:25:33.931Z</time></trkpt><trkpt lat="44.12179690056683" lon="11.29589339179206"><ele>881.0</ele><time>2026-04-25T10:25:34.931Z</time></trkpt><trkpt lat="44.121879290429476" lon="11.29600232300687"><ele>886.0</ele><time>2026-04-25T10:25:35.931Z</time></trkpt><trkpt lat="44.12195015355088" lon="11.29614670896606"><ele>886.0</ele><time>2026-04-25T10:25:36.931Z</time></trkpt><trkpt lat="44.121995564166156" lon="11.296321684319018"><ele>886.0</ele><time>2026-04-25T10:25:37.931Z</time></trkpt><trkpt lat="44.122011674133546" lon="11.29651517426815"><ele>886.0</ele><time>2026-04-25T10:25:38.931Z</time></trkpt><trkpt lat="44.12200421613059" lon="11.296730936072537"><ele>886.0</ele><time>2026-04-25T10:25:39.931Z</time></trkpt><trkpt lat="44.12198866616629" lon="11.296939017909898"><ele>886.0</ele><time>2026-04-25T10:25:40.931Z</time></trkpt><trkpt lat="44.12197850774529" lon="11.297152936921407"><ele>886.0</ele><time>2026-04-25T10:25:41.931Z</time></trkpt><trkpt lat="44.12196756163954" lon="11.297381680403598"><ele>886.0</ele><time>2026-04-25T10:25:42.931Z</time></trkpt><trkpt lat="44.1219577985222" lon="11.297603588005439"><ele>886.0</ele><time>2026-04-25T10:25:43.931Z</time></trkpt><trkpt lat="44.12195248907963" lon="11.29782294596129"><ele>886.0</ele><time>2026-04-25T10:25:44.931Z</time></trkpt><trkpt lat="44.12194786066164" lon="11.298029230353897"><ele>886.0</ele><time>2026-04-25T10:25:45.931Z</time></trkpt><trkpt lat="44.12195237802787" lon="11.298235801366825"><ele>885.6666666666666</ele><time>2026-04-25T10:25:46.931Z</time></trkpt><trkpt lat="44.12196926574549" lon="11.29844470089651"><ele>885.3333333333333</ele><time>2026-04-25T10:25:47.931Z</time></trkpt><trkpt lat="44.12201608585525" lon="11.298661913861977"><ele>885.0</ele><time>2026-04-25T10:25:48.931Z</time></trkpt><trkpt lat="44.12209335170918" lon="11.298873104890061"><ele>884.3333333333333</ele><time>2026-04-25T10:25:49.931Z</time></trkpt><trkpt lat="44.122176641334306" lon="11.29908309073388"><ele>883.6666666666666</ele><time>2026-04-25T10:25:50.932Z</time></trkpt><trkpt lat="44.122266371349134" lon="11.299289395687511"><ele>883.0</ele><time>2026-04-25T10:25:51.932Z</time></trkpt><trkpt lat="44.12234921259192" lon="11.29949032961323"><ele>888.3333333333333</ele><time>2026-04-25T10:25:52.932Z</time></trkpt><trkpt lat="44.12243095176202" lon="11.299687059524933"><ele>893.6666666666667</ele><time>2026-04-25T10:25:53.931Z</time></trkpt><trkpt lat="44.12250831088625" lon="11.299879190378682"><ele>899.0</ele><time>2026-04-25T10:25:54.931Z</time></trkpt><trkpt lat="44.122584215736964" lon="11.30006292963506"><ele>899.0</ele><time>2026-04-25T10:25:55.931Z</time></trkpt><trkpt lat="44.122654392204794" lon="11.300229539935618"><ele>899.0</ele><time>2026-04-25T10:25:56.932Z</time></trkpt><trkpt lat="44.12272975569865" lon="11.300382448734995"><ele>899.0</ele><time>2026-04-25T10:25:57.932Z</time></trkpt><trkpt lat="44.12281786394357" lon="11.300518011219282"><ele>899.0</ele><time>2026-04-25T10:25:58.932Z</time></trkpt><trkpt lat="44.12293138577254" lon="11.300625765744256"><ele>899.0</ele><time>2026-04-25T10:25:59.931Z</time></trkpt><trkpt lat="44.12307083130415" lon="11.300698008504193"><ele>899.0</ele><time>2026-04-25T10:26:00.931Z</time></trkpt><trkpt lat="44.12322847640513" lon="11.300741136524175"><ele>899.0</ele><time>2026-04-25T10:26:01.931Z</time></trkpt><trkpt lat="44.12338492994168" lon="11.30076137072142"><ele>902.75</ele><time>2026-04-25T10:26:02.931Z</time></trkpt><trkpt lat="44.12352972744826" lon="11.300806129650073"><ele>906.5</ele><time>2026-04-25T10:26:03.931Z</time></trkpt><trkpt lat="44.12366794394669" lon="11.30083021697116"><ele>910.25</ele><time>2026-04-25T10:26:04.932Z</time></trkpt><trkpt lat="44.12380798243893" lon="11.300852632590127"><ele>914.0</ele><time>2026-04-25T10:26:05.931Z</time></trkpt><trkpt lat="44.12397585145554" lon="11.300855389037267"><ele>913.6666666666667</ele><time>2026-04-25T10:26:06.931Z</time></trkpt><trkpt lat="44.124150161715484" lon="11.300801265541056"><ele>913.3333333333333</ele><time>2026-04-25T10:26:07.931Z</time></trkpt><trkpt lat="44.12431768407061" lon="11.300709115177508"><ele>913.0</ele><time>2026-04-25T10:26:08.931Z</time></trkpt><trkpt lat="44.1244738950043" lon="11.30065786061042"><ele>913.0</ele><time>2026-04-25T10:26:09.931Z</time></trkpt><trkpt lat="44.12463109151772" lon="11.300621717806182"><ele>913.0</ele><time>2026-04-25T10:26:10.931Z</time></trkpt><trkpt lat="44.12479650420947" lon="11.30059625330354"><ele>913.0</ele><time>2026-04-25T10:26:11.931Z</time></trkpt><trkpt lat="44.12497742153246" lon="11.300591490720727"><ele>912.6666666666666</ele><time>2026-04-25T10:26:12.931Z</time></trkpt><trkpt lat="44.125169171947675" lon="11.300621662994013"><ele>912.3333333333333</ele><time>2026-04-25T10:26:13.931Z</time></trkpt><trkpt lat="44.12536516202867" lon="11.300660658611463"><ele>912.0</ele><time>2026-04-25T10:26:14.931Z</time></trkpt><trkpt lat="44.12557012977201" lon="11.300681993886768"><ele>914.6666666666667</ele><time>2026-04-25T10:26:15.931Z</time></trkpt><trkpt lat="44.12576141310075" lon="11.300696970737055"><ele>917.3333333333334</ele><time>2026-04-25T10:26:16.931Z</time></trkpt><trkpt lat="44.12592895276989" lon="11.300712494329103"><ele>920.0</ele><time>2026-04-25T10:26:17.931Z</time></trkpt><trkpt lat="44.12608671294712" lon="11.300731216396475"><ele>920.0</ele><time>2026-04-25T10:26:18.931Z</time></trkpt><trkpt lat="44.12623978760145" lon="11.300754280863313"><ele>920.0</ele><time>2026-04-25T10:26:19.931Z</time></trkpt><trkpt lat="44.12638840443147" lon="11.300811140076815"><ele>920.0</ele><time>2026-04-25T10:26:20.931Z</time></trkpt><trkpt lat="44.126517976783774" lon="11.300885132225405"><ele>920.0</ele><time>2026-04-25T10:26:21.931Z</time></trkpt><trkpt lat="44.12660624843929" lon="11.300952341240059"><ele>922.0000000000001</ele><time>2026-04-25T10:26:22.931Z</time></trkpt><trkpt lat="44.126666435329604" lon="11.301011317590218"><ele>924.0</ele><time>2026-04-25T10:26:23.931Z</time></trkpt><trkpt lat="44.12672055535278" lon="11.301064282800695"><ele>926.0</ele><time>2026-04-25T10:26:24.931Z</time></trkpt><trkpt lat="44.126776129490935" lon="11.301115141534904"><ele>928.0</ele><time>2026-04-25T10:26:25.931Z</time></trkpt><trkpt lat="44.126844750832916" lon="11.301171909462502"><ele>930.0000000000001</ele><time>2026-04-25T10:26:26.931Z</time></trkpt><trkpt lat="44.12693768395942" lon="11.301249701482579"><ele>932.0</ele><time>2026-04-25T10:26:27.932Z</time></trkpt><trkpt lat="44.1270444338318" lon="11.301361665326226"><ele>931.3333333333334</ele><time>2026-04-25T10:26:28.932Z</time></trkpt><trkpt lat="44.12715817935796" lon="11.301490238177506"><ele>930.6666666666667</ele><time>2026-04-25T10:26:29.933Z</time></trkpt><trkpt lat="44.12728238694177" lon="11.301639130433447"><ele>930.0</ele><time>2026-04-25T10:26:30.933Z</time></trkpt><trkpt lat="44.127412579783595" lon="11.301781226930142"><ele>930.0</ele><time>2026-04-25T10:26:31.933Z</time></trkpt><trkpt lat="44.12754148702564" lon="11.301910376442319"><ele>930.0</ele><time>2026-04-25T10:26:32.934Z</time></trkpt><trkpt lat="44.12766292047445" lon="11.302023904828962"><ele>930.0</ele><time>2026-04-25T10:26:33.934Z</time></trkpt><trkpt lat="44.12778922376107" lon="11.302123194997112"><ele>930.0</ele><time>2026-04-25T10:26:34.934Z</time></trkpt><trkpt lat="44.127932961240376" lon="11.302209579304304"><ele>930.0</ele><time>2026-04-25T10:26:35.935Z</time></trkpt><trkpt lat="44.12808065496955" lon="11.302290124607062"><ele>930.0</ele><time>2026-04-25T10:26:36.935Z</time></trkpt><trkpt lat="44.1282226275038" lon="11.302377435011891"><ele>928.3333333333333</ele><time>2026-04-25T10:26:37.935Z</time></trkpt><trkpt lat="44.128362179084235" lon="11.302469221482596"><ele>926.6666666666666</ele><time>2026-04-25T10:26:38.936Z</time></trkpt><trkpt lat="44.12850073354867" lon="11.302566843416544"><ele>925.0</ele><time>2026-04-25T10:26:39.936Z</time></trkpt><trkpt lat="44.12862847040657" lon="11.302680404503322"><ele>925.0</ele><time>2026-04-25T10:26:40.936Z</time></trkpt><trkpt lat="44.12874378434015" lon="11.302815215330835"><ele>925.0</ele><time>2026-04-25T10:26:41.936Z</time></trkpt><trkpt lat="44.12883791008688" lon="11.302953564975939"><ele>925.0</ele><time>2026-04-25T10:26:42.937Z</time></trkpt><trkpt lat="44.1289033476047" lon="11.303095839151524"><ele>925.0</ele><time>2026-04-25T10:26:43.937Z</time></trkpt><trkpt lat="44.12894324864781" lon="11.303235424454392"><ele>923.6</ele><time>2026-04-25T10:26:44.937Z</time></trkpt><trkpt lat="44.128974711928514" lon="11.303361824349702"><ele>922.2</ele><time>2026-04-25T10:26:45.937Z</time></trkpt><trkpt lat="44.12901755914244" lon="11.303479047543876"><ele>920.8</ele><time>2026-04-25T10:26:46.937Z</time></trkpt><trkpt lat="44.12906520084408" lon="11.303582664646928"><ele>919.4</ele><time>2026-04-25T10:26:47.937Z</time></trkpt><trkpt lat="44.12913504221657" lon="11.303656514118934"><ele>918.0</ele><time>2026-04-25T10:26:48.938Z</time></trkpt><trkpt lat="44.12921847746524" lon="11.303696586275484"><ele>918.0</ele><time>2026-04-25T10:26:49.938Z</time></trkpt><trkpt lat="44.12932437805373" lon="11.303700751137793"><ele>918.0</ele><time>2026-04-25T10:26:50.938Z</time></trkpt><trkpt lat="44.12944783872092" lon="11.30369062248524"><ele>918.0</ele><time>2026-04-25T10:26:51.938Z</time></trkpt><trkpt lat="44.12959025553026" lon="11.303711851553622"><ele>918.0</ele><time>2026-04-25T10:26:52.938Z</time></trkpt><trkpt lat="44.129755388403645" lon="11.303777112302997"><ele>920.3333333333333</ele><time>2026-04-25T10:26:53.938Z</time></trkpt><trkpt lat="44.12993741073654" lon="11.303898334657895"><ele>922.6666666666666</ele><time>2026-04-25T10:26:54.938Z</time></trkpt><trkpt lat="44.13013895749024" lon="11.304002476899091"><ele>925.0</ele><time>2026-04-25T10:26:55.938Z</time></trkpt><trkpt lat="44.13035781745224" lon="11.304099474411343"><ele>917.3333333333333</ele><time>2026-04-25T10:26:56.938Z</time></trkpt><trkpt lat="44.13056427875812" lon="11.304175921741502"><ele>909.6666666666667</ele><time>2026-04-25T10:26:57.939Z</time></trkpt><trkpt lat="44.1307647482048" lon="11.304230021680132"><ele>902.0</ele><time>2026-04-25T10:26:58.939Z</time></trkpt><trkpt lat="44.13093495635855" lon="11.304285732593033"><ele>902.0</ele><time>2026-04-25T10:26:59.939Z</time></trkpt><trkpt lat="44.13111320227342" lon="11.304338435939869"><ele>902.0</ele><time>2026-04-25T10:27:00.939Z</time></trkpt><trkpt lat="44.13127569564159" lon="11.304385365943942"><ele>902.0</ele><time>2026-04-25T10:27:01.939Z</time></trkpt><trkpt lat="44.13143195346258" lon="11.304459119389353"><ele>904.6666666666667</ele><time>2026-04-25T10:27:02.939Z</time></trkpt><trkpt lat="44.13158225886852" lon="11.304539703933218"><ele>907.3333333333333</ele><time>2026-04-25T10:27:03.939Z</time></trkpt><trkpt lat="44.131724826036326" lon="11.304670044862341"><ele>910.0</ele><time>2026-04-25T10:27:04.939Z</time></trkpt><trkpt lat="44.13186344764884" lon="11.304788589315965"><ele>906.25</ele><time>2026-04-25T10:27:05.939Z</time></trkpt><trkpt lat="44.132003658867994" lon="11.304896416181743"><ele>902.5</ele><time>2026-04-25T10:27:06.939Z</time></trkpt><trkpt lat="44.13212928918441" lon="11.304985834729802"><ele>898.75</ele><time>2026-04-25T10:27:07.939Z</time></trkpt><trkpt lat="44.13225953322225" lon="11.305056662432806"><ele>895.0</ele><time>2026-04-25T10:27:08.939Z</time></trkpt><trkpt lat="44.13239354740618" lon="11.305100419811785"><ele>895.0</ele><time>2026-04-25T10:27:09.939Z</time></trkpt><trkpt lat="44.13254905216482" lon="11.305103544754012"><ele>895.0</ele><time>2026-04-25T10:27:10.939Z</time></trkpt><trkpt lat="44.132699289364815" lon="11.305088976070131"><ele>895.0</ele><time>2026-04-25T10:27:11.939Z</time></trkpt><trkpt lat="44.13284323254904" lon="11.305064362433974"><ele>895.0</ele><time>2026-04-25T10:27:12.939Z</time></trkpt><trkpt lat="44.132987597059916" lon="11.305031986029883"><ele>895.0</ele><time>2026-04-25T10:27:13.939Z</time></trkpt><trkpt lat="44.13312002517481" lon="11.304976084056884"><ele>895.0</ele><time>2026-04-25T10:27:14.939Z</time></trkpt><trkpt lat="44.133239849703045" lon="11.30491170624956"><ele>895.0</ele><time>2026-04-25T10:27:15.939Z</time></trkpt><trkpt lat="44.13334446083969" lon="11.304834884464741"><ele>893.6</ele><time>2026-04-25T10:27:16.939Z</time></trkpt><trkpt lat="44.13344748869632" lon="11.304763682351993"><ele>892.2</ele><time>2026-04-25T10:27:17.939Z</time></trkpt><trkpt lat="44.133534178701396" lon="11.304708566460771"><ele>890.8</ele><time>2026-04-25T10:27:18.94Z</time></trkpt><trkpt lat="44.13362417316919" lon="11.304706508246257"><ele>889.4</ele><time>2026-04-25T10:27:19.94Z</time></trkpt><trkpt lat="44.13370430322327" lon="11.30475946783103"><ele>888.0</ele><time>2026-04-25T10:27:20.94Z</time></trkpt><trkpt lat="44.13377244578817" lon="11.30486000536252"><ele>888.0</ele><time>2026-04-25T10:27:21.94Z</time></trkpt><trkpt lat="44.13382397269371" lon="11.305002209580966"><ele>888.0</ele><time>2026-04-25T10:27:22.94Z</time></trkpt><trkpt lat="44.13385035607363" lon="11.305155954125881"><ele>888.0</ele><time>2026-04-25T10:27:23.94Z</time></trkpt><trkpt lat="44.13385940493978" lon="11.305303293181236"><ele>888.0</ele><time>2026-04-25T10:27:24.94Z</time></trkpt><trkpt lat="44.13389326519447" lon="11.305434790546274"><ele>888.0</ele><time>2026-04-25T10:27:25.94Z</time></trkpt><trkpt lat="44.13395375219427" lon="11.305552122322595"><ele>883.75</ele><time>2026-04-25T10:27:26.94Z</time></trkpt><trkpt lat="44.13404632741508" lon="11.305655296043144"><ele>879.5</ele><time>2026-04-25T10:27:27.94Z</time></trkpt><trkpt lat="44.13415394182473" lon="11.305765395722421"><ele>875.25</ele><time>2026-04-25T10:27:28.94Z</time></trkpt><trkpt lat="44.13425406475448" lon="11.30586799742682"><ele>871.0</ele><time>2026-04-25T10:27:29.94Z</time></trkpt><trkpt lat="44.134360882389004" lon="11.305956308851721"><ele>871.0</ele><time>2026-04-25T10:27:30.94Z</time></trkpt><trkpt lat="44.13447753639313" lon="11.306023854851178"><ele>871.0</ele><time>2026-04-25T10:27:31.94Z</time></trkpt><trkpt lat="44.13461410781924" lon="11.306076204318758"><ele>871.0</ele><time>2026-04-25T10:27:32.94Z</time></trkpt><trkpt lat="44.13475946715473" lon="11.306101399396216"><ele>871.0</ele><time>2026-04-25T10:27:33.94Z</time></trkpt><trkpt lat="44.134909694878786" lon="11.306121365092476"><ele>874.0</ele><time>2026-04-25T10:27:34.94Z</time></trkpt><trkpt lat="44.13503958313553" lon="11.306155662881553"><ele>877.0</ele><time>2026-04-25T10:27:35.94Z</time></trkpt><trkpt lat="44.135170254005324" lon="11.306186514432452"><ele>880.0</ele><time>2026-04-25T10:27:36.94Z</time></trkpt><trkpt lat="44.13529802880503" lon="11.306228568498334"><ele>883.0</ele><time>2026-04-25T10:27:37.94Z</time></trkpt><trkpt lat="44.13541606872829" lon="11.306254802636197"><ele>883.0</ele><time>2026-04-25T10:27:38.94Z</time></trkpt><trkpt lat="44.13553290514799" lon="11.306289967430624"><ele>883.0</ele><time>2026-04-25T10:27:39.94Z</time></trkpt><trkpt lat="44.135651639617805" lon="11.30635466318162"><ele>883.0</ele><time>2026-04-25T10:27:40.94Z</time></trkpt><trkpt lat="44.135774167697775" lon="11.306454022690584"><ele>883.0</ele><time>2026-04-25T10:27:41.94Z</time></trkpt><trkpt lat="44.135882381521476" lon="11.306591199601733"><ele>878.0</ele><time>2026-04-25T10:27:42.94Z</time></trkpt><trkpt lat="44.13598380108867" lon="11.30673199061408"><ele>873.0</ele><time>2026-04-25T10:27:43.94Z</time></trkpt><trkpt lat="44.13607020245524" lon="11.306888817059715"><ele>868.0</ele><time>2026-04-25T10:27:44.94Z</time></trkpt><trkpt lat="44.13613528761892" lon="11.307062501346888"><ele>863.0</ele><time>2026-04-25T10:27:45.94Z</time></trkpt><trkpt lat="44.13617771291627" lon="11.307246945086327"><ele>861.25</ele><time>2026-04-25T10:27:46.94Z</time></trkpt><trkpt lat="44.13622138830787" lon="11.307432445363398"><ele>859.5</ele><time>2026-04-25T10:27:47.94Z</time></trkpt><trkpt lat="44.13627722185657" lon="11.307606810379268"><ele>857.75</ele><time>2026-04-25T10:27:48.94Z</time></trkpt><trkpt lat="44.13633929979928" lon="11.307771269128711"><ele>856.0</ele><time>2026-04-25T10:27:49.94Z</time></trkpt><trkpt lat="44.136411701800874" lon="11.307929117639121"><ele>856.0</ele><time>2026-04-25T10:27:50.94Z</time></trkpt><trkpt lat="44.13649300485076" lon="11.308068448267786"><ele>856.0</ele><time>2026-04-25T10:27:51.94Z</time></trkpt><trkpt lat="44.13656990638181" lon="11.308204463466547"><ele>856.0</ele><time>2026-04-25T10:27:52.94Z</time></trkpt><trkpt lat="44.13663687602493" lon="11.308339778051488"><ele>856.0</ele><time>2026-04-25T10:27:53.94Z</time></trkpt><trkpt lat="44.13674058900627" lon="11.308424325190662"><ele>857.0</ele><time>2026-04-25T10:27:54.94Z</time></trkpt><trkpt lat="44.13685103644141" lon="11.308516791117645"><ele>858.0</ele><time>2026-04-25T10:27:55.94Z</time></trkpt><trkpt lat="44.13699599208334" lon="11.308621367568747"><ele>859.0</ele><time>2026-04-25T10:27:56.94Z</time></trkpt><trkpt lat="44.13715858638012" lon="11.308727022234468"><ele>859.0</ele><time>2026-04-25T10:27:57.94Z</time></trkpt><trkpt lat="44.13731383163484" lon="11.308844091214"><ele>859.0</ele><time>2026-04-25T10:27:58.94Z</time></trkpt><trkpt lat="44.137459048230596" lon="11.308940724372201"><ele>859.0</ele><time>2026-04-25T10:27:59.94Z</time></trkpt><trkpt lat="44.13758741076951" lon="11.309029828028516"><ele>858.0</ele><time>2026-04-25T10:28:00.94Z</time></trkpt><trkpt lat="44.13770287117824" lon="11.309117614502144"><ele>857.0</ele><time>2026-04-25T10:28:01.94Z</time></trkpt><trkpt lat="44.13777777717573" lon="11.30921761161248"><ele>856.0</ele><time>2026-04-25T10:28:02.94Z</time></trkpt><trkpt lat="44.13783358136594" lon="11.309360627489712"><ele>855.0</ele><time>2026-04-25T10:28:03.94Z</time></trkpt><trkpt lat="44.13788095836236" lon="11.309522647429814"><ele>855.0</ele><time>2026-04-25T10:28:04.94Z</time></trkpt><trkpt lat="44.137909918792715" lon="11.309709661673121"><ele>855.0</ele><time>2026-04-25T10:28:05.94Z</time></trkpt><trkpt lat="44.1379487231752" lon="11.309919365764726"><ele>855.0</ele><time>2026-04-25T10:28:06.94Z</time></trkpt><trkpt lat="44.13799843314773" lon="11.310140815861374"><ele>853.6666666666667</ele><time>2026-04-25T10:28:07.94Z</time></trkpt><trkpt lat="44.13805062659822" lon="11.310359528725424"><ele>852.3333333333334</ele><time>2026-04-25T10:28:08.94Z</time></trkpt><trkpt lat="44.13811133533525" lon="11.310558257931076"><ele>851.0</ele><time>2026-04-25T10:28:09.94Z</time></trkpt><trkpt lat="44.13817111023703" lon="11.310747789163209"><ele>851.0</ele><time>2026-04-25T10:28:10.94Z</time></trkpt><trkpt lat="44.13823003221348" lon="11.310923144206646"><ele>851.0</ele><time>2026-04-25T10:28:11.94Z</time></trkpt><trkpt lat="44.13828347009932" lon="11.311087567337356"><ele>851.0</ele><time>2026-04-25T10:28:12.94Z</time></trkpt><trkpt lat="44.138311952013076" lon="11.311247104546293"><ele>851.0</ele><time>2026-04-25T10:28:13.94Z</time></trkpt><trkpt lat="44.13828005837963" lon="11.311419626602666"><ele>851.0</ele><time>2026-04-25T10:28:14.94Z</time></trkpt><trkpt lat="44.13825093932237" lon="11.311594112784919"><ele>851.0</ele><time>2026-04-25T10:28:15.94Z</time></trkpt><trkpt lat="44.13820523910688" lon="11.31174894069497"><ele>851.0</ele><time>2026-04-25T10:28:16.94Z</time></trkpt><trkpt lat="44.13816700218085" lon="11.311908907834809"><ele>851.0</ele><time>2026-04-25T10:28:17.94Z</time></trkpt><trkpt lat="44.138150716232346" lon="11.312063538162041"><ele>850.5</ele><time>2026-04-25T10:28:18.94Z</time></trkpt><trkpt lat="44.13814305067754" lon="11.31221077712498"><ele>850.0</ele><time>2026-04-25T10:28:19.94Z</time></trkpt><trkpt lat="44.13821465959444" lon="11.312352546739096"><ele>849.5</ele><time>2026-04-25T10:28:20.94Z</time></trkpt><trkpt lat="44.13829166299503" lon="11.312487124782344"><ele>849.0</ele><time>2026-04-25T10:28:21.94Z</time></trkpt><trkpt lat="44.13836834593779" lon="11.312619796890313"><ele>846.75</ele><time>2026-04-25T10:28:22.94Z</time></trkpt><trkpt lat="44.13843344301828" lon="11.312750506433098"><ele>844.5</ele><time>2026-04-25T10:28:23.94Z</time></trkpt><trkpt lat="44.13847232070833" lon="11.312906635077532"><ele>842.25</ele><time>2026-04-25T10:28:24.94Z</time></trkpt><trkpt lat="44.13848079672768" lon="11.313104758410331"><ele>840.0</ele><time>2026-04-25T10:28:25.94Z</time></trkpt><trkpt lat="44.13843795278417" lon="11.31331138063487"><ele>838.6666666666667</ele><time>2026-04-25T10:28:26.94Z</time></trkpt><trkpt lat="44.138406631497546" lon="11.313546867346796"><ele>837.3333333333334</ele><time>2026-04-25T10:28:27.94Z</time></trkpt><trkpt lat="44.1383754547798" lon="11.31379725223187"><ele>836.0</ele><time>2026-04-25T10:28:28.94Z</time></trkpt><trkpt lat="44.138351397063126" lon="11.314049217153613"><ele>836.0</ele><time>2026-04-25T10:28:29.94Z</time></trkpt><trkpt lat="44.138335252762396" lon="11.31430040964148"><ele>836.0</ele><time>2026-04-25T10:28:30.94Z</time></trkpt><trkpt lat="44.138341669113196" lon="11.314557731514437"><ele>836.0</ele><time>2026-04-25T10:28:31.94Z</time></trkpt><trkpt lat="44.138350852014476" lon="11.314817101211853"><ele>836.3333333333334</ele><time>2026-04-25T10:28:32.94Z</time></trkpt><trkpt lat="44.13835747313047" lon="11.315062832720388"><ele>836.6666666666667</ele><time>2026-04-25T10:28:33.94Z</time></trkpt><trkpt lat="44.138368161645715" lon="11.315296620483275"><ele>837.0</ele><time>2026-04-25T10:28:34.94Z</time></trkpt><trkpt lat="44.13838276578982" lon="11.315523425846317"><ele>836.0</ele><time>2026-04-25T10:28:35.94Z</time></trkpt><trkpt lat="44.13839922038241" lon="11.31575637517046"><ele>835.0</ele><time>2026-04-25T10:28:36.94Z</time></trkpt><trkpt lat="44.13843480776102" lon="11.31598749358281"><ele>834.0</ele><time>2026-04-25T10:28:37.94Z</time></trkpt><trkpt lat="44.13845920828152" lon="11.316205755334257"><ele>833.3333333333333</ele><time>2026-04-25T10:28:38.94Z</time></trkpt><trkpt lat="44.13849225200719" lon="11.31641863280209"><ele>832.6666666666666</ele><time>2026-04-25T10:28:39.94Z</time></trkpt><trkpt lat="44.138538435952086" lon="11.316635450182972"><ele>832.0</ele><time>2026-04-25T10:28:40.94Z</time></trkpt><trkpt lat="44.13859690292805" lon="11.316848340759352"><ele>832.0</ele><time>2026-04-25T10:28:41.94Z</time></trkpt><trkpt lat="44.138665023752786" lon="11.317061614890278"><ele>832.0</ele><time>2026-04-25T10:28:42.94Z</time></trkpt><trkpt lat="44.138726068776336" lon="11.317271414727367"><ele>832.0</ele><time>2026-04-25T10:28:43.94Z</time></trkpt><trkpt lat="44.13877827339171" lon="11.317479608621325"><ele>828.6666666666666</ele><time>2026-04-25T10:28:44.94Z</time></trkpt><trkpt lat="44.13881704375947" lon="11.317694972494124"><ele>825.3333333333333</ele><time>2026-04-25T10:28:45.94Z</time></trkpt><trkpt lat="44.13882843955012" lon="11.317927154209025"><ele>822.0</ele><time>2026-04-25T10:28:46.94Z</time></trkpt><trkpt lat="44.13880997842216" lon="11.318164325699419"><ele>820.6666666666667</ele><time>2026-04-25T10:28:47.94Z</time></trkpt><trkpt lat="44.138783570173985" lon="11.318407738267297"><ele>819.3333333333334</ele><time>2026-04-25T10:28:48.94Z</time></trkpt><trkpt lat="44.13878370942357" lon="11.318656089907405"><ele>818.0</ele><time>2026-04-25T10:28:49.94Z</time></trkpt><trkpt lat="44.1387808351555" lon="11.318908594195191"><ele>818.0</ele><time>2026-04-25T10:28:50.94Z</time></trkpt><trkpt lat="44.1387727372823" lon="11.319161055089882"><ele>818.0</ele><time>2026-04-25T10:28:51.94Z</time></trkpt><trkpt lat="44.13875698144196" lon="11.319398323846734"><ele>818.0</ele><time>2026-04-25T10:28:52.94Z</time></trkpt><trkpt lat="44.13873545676077" lon="11.319620072821216"><ele>819.25</ele><time>2026-04-25T10:28:53.94Z</time></trkpt><trkpt lat="44.13871175697703" lon="11.319823978311051"><ele>820.5</ele><time>2026-04-25T10:28:54.94Z</time></trkpt><trkpt lat="44.1386943922175" lon="11.31999687598384"><ele>821.75</ele><time>2026-04-25T10:28:55.94Z</time></trkpt><trkpt lat="44.13868318729122" lon="11.32014836431268"><ele>823.0</ele><time>2026-04-25T10:28:56.94Z</time></trkpt><trkpt lat="44.138692662934055" lon="11.320282710787987"><ele>823.0</ele><time>2026-04-25T10:28:57.94Z</time></trkpt><trkpt lat="44.13872216610257" lon="11.320407365652516"><ele>823.0</ele><time>2026-04-25T10:28:58.94Z</time></trkpt><trkpt lat="44.13882124060886" lon="11.320501520542082"><ele>823.0</ele><time>2026-04-25T10:28:59.94Z</time></trkpt><trkpt lat="44.1389246189051" lon="11.320589030665356"><ele>823.0</ele><time>2026-04-25T10:29:00.94Z</time></trkpt><trkpt lat="44.13906017752889" lon="11.320661587357412"><ele>825.3333333333333</ele><time>2026-04-25T10:29:01.94Z</time></trkpt><trkpt lat="44.13918830074029" lon="11.320769059373296"><ele>827.6666666666667</ele><time>2026-04-25T10:29:02.94Z</time></trkpt><trkpt lat="44.13931912895154" lon="11.320903905554792"><ele>830.0</ele><time>2026-04-25T10:29:03.94Z</time></trkpt><trkpt lat="44.1394368136329" lon="11.321070692902055"><ele>830.0</ele><time>2026-04-25T10:29:04.94Z</time></trkpt><trkpt lat="44.13956463989827" lon="11.321243034754112"><ele>830.0</ele><time>2026-04-25T10:29:05.94Z</time></trkpt><trkpt lat="44.13968053700841" lon="11.321409661511062"><ele>830.0</ele><time>2026-04-25T10:29:06.94Z</time></trkpt><trkpt lat="44.139800789877185" lon="11.321542575310362"><ele>832.0</ele><time>2026-04-25T10:29:07.94Z</time></trkpt><trkpt lat="44.13992286377909" lon="11.32162886810926"><ele>834.0</ele><time>2026-04-25T10:29:08.94Z</time></trkpt><trkpt lat="44.140050428257325" lon="11.32167953457093"><ele>836.0</ele><time>2026-04-25T10:29:09.94Z</time></trkpt><trkpt lat="44.1401735178296" lon="11.321700952507639"><ele>838.0</ele><time>2026-04-25T10:29:10.94Z</time></trkpt><trkpt lat="44.14029783314399" lon="11.321711424837197"><ele>838.0</ele><time>2026-04-25T10:29:11.94Z</time></trkpt><trkpt lat="44.14042574471463" lon="11.321752087450605"><ele>838.0</ele><time>2026-04-25T10:29:12.94Z</time></trkpt><trkpt lat="44.140527517177574" lon="11.321829560817656"><ele>838.0</ele><time>2026-04-25T10:29:13.94Z</time></trkpt><trkpt lat="44.140610733345035" lon="11.321953297472403"><ele>838.0</ele><time>2026-04-25T10:29:14.94Z</time></trkpt><trkpt lat="44.14066075329278" lon="11.322130378466808"><ele>840.3333333333333</ele><time>2026-04-25T10:29:15.94Z</time></trkpt><trkpt lat="44.14073467515213" lon="11.322308119426912"><ele>842.6666666666667</ele><time>2026-04-25T10:29:16.94Z</time></trkpt><trkpt lat="44.140803544033666" lon="11.32250984464132"><ele>845.0</ele><time>2026-04-25T10:29:17.94Z</time></trkpt><trkpt lat="44.140882727498116" lon="11.322725053691164"><ele>845.0</ele><time>2026-04-25T10:29:18.94Z</time></trkpt><trkpt lat="44.14097255035057" lon="11.322953419432011"><ele>845.0</ele><time>2026-04-25T10:29:19.94Z</time></trkpt><trkpt lat="44.14106458070137" lon="11.32318151230224"><ele>845.0</ele><time>2026-04-25T10:29:20.94Z</time></trkpt><trkpt lat="44.14114868497299" lon="11.32339178120268"><ele>843.6666666666667</ele><time>2026-04-25T10:29:21.94Z</time></trkpt><trkpt lat="44.14120778022407" lon="11.323596539407324"><ele>842.3333333333333</ele><time>2026-04-25T10:29:22.94Z</time></trkpt><trkpt lat="44.14123884037496" lon="11.323803946981"><ele>841.0</ele><time>2026-04-25T10:29:23.94Z</time></trkpt><trkpt lat="44.14123351692758" lon="11.324024160659544"><ele>841.0</ele><time>2026-04-25T10:29:24.94Z</time></trkpt><trkpt lat="44.14121674960531" lon="11.324252783803509"><ele>841.0</ele><time>2026-04-25T10:29:25.94Z</time></trkpt><trkpt lat="44.141190769512754" lon="11.324492737694893"><ele>841.0</ele><time>2026-04-25T10:29:26.94Z</time></trkpt><trkpt lat="44.141154814876735" lon="11.324719634650469"><ele>841.75</ele><time>2026-04-25T10:29:27.94Z</time></trkpt><trkpt lat="44.141111795873684" lon="11.324931370368473"><ele>842.5</ele><time>2026-04-25T10:29:28.94Z</time></trkpt><trkpt lat="44.1410671498489" lon="11.325119737296749"><ele>843.25</ele><time>2026-04-25T10:29:29.94Z</time></trkpt><trkpt lat="44.14102522567792" lon="11.325279916449315"><ele>844.0</ele><time>2026-04-25T10:29:30.94Z</time></trkpt><trkpt lat="44.14101579156649" lon="11.325449701891747"><ele>844.5</ele><time>2026-04-25T10:29:31.94Z</time></trkpt><trkpt lat="44.14103984972753" lon="11.325624260679588"><ele>845.0</ele><time>2026-04-25T10:29:32.94Z</time></trkpt><trkpt lat="44.14109673482813" lon="11.325804344169422"><ele>845.5</ele><time>2026-04-25T10:29:33.94Z</time></trkpt><trkpt lat="44.14116942465417" lon="11.32599789909034"><ele>846.0</ele><time>2026-04-25T10:29:34.94Z</time></trkpt><trkpt lat="44.14123067461849" lon="11.326193624307528"><ele>846.0</ele><time>2026-04-25T10:29:35.94Z</time></trkpt><trkpt lat="44.14127714536305" lon="11.326379555656738"><ele>846.0</ele><time>2026-04-25T10:29:36.94Z</time></trkpt><trkpt lat="44.14129385778244" lon="11.326558211946477"><ele>846.0</ele><time>2026-04-25T10:29:37.94Z</time></trkpt><trkpt lat="44.14127151421739" lon="11.326730448796107"><ele>846.0</ele><time>2026-04-25T10:29:38.94Z</time></trkpt><trkpt lat="44.14121339785445" lon="11.326892113914086"><ele>846.0</ele><time>2026-04-25T10:29:39.94Z</time></trkpt><trkpt lat="44.14112071488284" lon="11.32702043806873"><ele>846.0</ele><time>2026-04-25T10:29:40.94Z</time></trkpt><trkpt lat="44.14099367287038" lon="11.32711002661234"><ele>846.0</ele><time>2026-04-25T10:29:41.94Z</time></trkpt><trkpt lat="44.14087974614012" lon="11.327222405156023"><ele>846.0</ele><time>2026-04-25T10:29:42.94Z</time></trkpt><trkpt lat="44.14077137022441" lon="11.327313248598623"><ele>845.5</ele><time>2026-04-25T10:29:43.94Z</time></trkpt><trkpt lat="44.14067256832641" lon="11.32740499811953"><ele>845.0</ele><time>2026-04-25T10:29:44.94Z</time></trkpt><trkpt lat="44.14057603326663" lon="11.32749960759608"><ele>844.5</ele><time>2026-04-25T10:29:45.94Z</time></trkpt><trkpt lat="44.14049811480404" lon="11.327628125874687"><ele>844.0</ele><time>2026-04-25T10:29:46.94Z</time></trkpt><trkpt lat="44.140459886251016" lon="11.327796099554595"><ele>844.0</ele><time>2026-04-25T10:29:47.94Z</time></trkpt><trkpt lat="44.140451162122936" lon="11.327980086686715"><ele>844.0</ele><time>2026-04-25T10:29:48.94Z</time></trkpt><trkpt lat="44.14047419283026" lon="11.328169705408333"><ele>844.0</ele><time>2026-04-25T10:29:49.94Z</time></trkpt><trkpt lat="44.14051419659209" lon="11.328336401597197"><ele>844.0</ele><time>2026-04-25T10:29:50.94Z</time></trkpt><trkpt lat="44.14056827505076" lon="11.328468250522207"><ele>844.0</ele><time>2026-04-25T10:29:51.94Z</time></trkpt><trkpt lat="44.14064812081979" lon="11.328566240220587"><ele>844.0</ele><time>2026-04-25T10:29:52.94Z</time></trkpt><trkpt lat="44.140743108660764" lon="11.328618538581903"><ele>844.0</ele><time>2026-04-25T10:29:53.94Z</time></trkpt><trkpt lat="44.140850644494336" lon="11.328619106764997"><ele>844.0</ele><time>2026-04-25T10:29:54.94Z</time></trkpt><trkpt lat="44.14095800514036" lon="11.328547976313413"><ele>844.0</ele><time>2026-04-25T10:29:55.94Z</time></trkpt><trkpt lat="44.14107023530713" lon="11.328449405925566"><ele>849.0</ele><time>2026-04-25T10:29:56.94Z</time></trkpt><trkpt lat="44.14119166083325" lon="11.32833981544389"><ele>854.0</ele><time>2026-04-25T10:29:57.94Z</time></trkpt><trkpt lat="44.14132343613699" lon="11.328231084861532"><ele>859.0</ele><time>2026-04-25T10:29:58.94Z</time></trkpt><trkpt lat="44.14146481072844" lon="11.328112502912237"><ele>861.0</ele><time>2026-04-25T10:29:59.94Z</time></trkpt><trkpt lat="44.14161699328946" lon="11.327985918586988"><ele>863.0</ele><time>2026-04-25T10:30:00.94Z</time></trkpt><trkpt lat="44.141781904398464" lon="11.327856475245532"><ele>865.0</ele><time>2026-04-25T10:30:01.94Z</time></trkpt><trkpt lat="44.14195506623636" lon="11.327716865724101"><ele>865.0</ele><time>2026-04-25T10:30:02.94Z</time></trkpt><trkpt lat="44.14212551554194" lon="11.327576232884514"><ele>865.0</ele><time>2026-04-25T10:30:03.94Z</time></trkpt><trkpt lat="44.14229655210703" lon="11.327462600570204"><ele>865.0</ele><time>2026-04-25T10:30:04.94Z</time></trkpt><trkpt lat="44.14246428113897" lon="11.327334001768962"><ele>865.0</ele><time>2026-04-25T10:30:05.94Z</time></trkpt><trkpt lat="44.14266212557546" lon="11.327251887305769"><ele>865.0</ele><time>2026-04-25T10:30:06.94Z</time></trkpt><trkpt lat="44.14287684121745" lon="11.327202939129497"><ele>865.0</ele><time>2026-04-25T10:30:07.94Z</time></trkpt><trkpt lat="44.14308966546932" lon="11.327181728153196"><ele>870.3333333333333</ele><time>2026-04-25T10:30:08.94Z</time></trkpt><trkpt lat="44.143292642765566" lon="11.327174623937891"><ele>875.6666666666667</ele><time>2026-04-25T10:30:09.94Z</time></trkpt><trkpt lat="44.14349186052877" lon="11.327191590438394"><ele>881.0</ele><time>2026-04-25T10:30:10.941Z</time></trkpt><trkpt lat="44.14367357721985" lon="11.327225885686524"><ele>877.6666666666667</ele><time>2026-04-25T10:30:11.94Z</time></trkpt><trkpt lat="44.14384381875639" lon="11.327298655916854"><ele>874.3333333333333</ele><time>2026-04-25T10:30:12.94Z</time></trkpt><trkpt lat="44.14399809246327" lon="11.327384478344815"><ele>871.0</ele><time>2026-04-25T10:30:13.94Z</time></trkpt><trkpt lat="44.144143257767915" lon="11.327468361540486"><ele>871.0</ele><time>2026-04-25T10:30:14.94Z</time></trkpt><trkpt lat="44.144291772183024" lon="11.327529662951813"><ele>871.0</ele><time>2026-04-25T10:30:15.94Z</time></trkpt><trkpt lat="44.14442567900025" lon="11.327551489842167"><ele>871.0</ele><time>2026-04-25T10:30:16.94Z</time></trkpt><trkpt lat="44.144537988631484" lon="11.327533470079743"><ele>871.0</ele><time>2026-04-25T10:30:17.94Z</time></trkpt><trkpt lat="44.14464033503426" lon="11.327463420596931"><ele>871.0</ele><time>2026-04-25T10:30:18.94Z</time></trkpt><trkpt lat="44.14471780673969" lon="11.327333928007066"><ele>871.0</ele><time>2026-04-25T10:30:19.94Z</time></trkpt><trkpt lat="44.14478316408589" lon="11.327176778169676"><ele>871.0</ele><time>2026-04-25T10:30:20.94Z</time></trkpt><trkpt lat="44.14486228013031" lon="11.327004180300063"><ele>871.0</ele><time>2026-04-25T10:30:21.94Z</time></trkpt><trkpt lat="44.14497201841225" lon="11.326846938630798"><ele>874.3333333333333</ele><time>2026-04-25T10:30:22.94Z</time></trkpt><trkpt lat="44.14510818002751" lon="11.326729467296312"><ele>877.6666666666667</ele><time>2026-04-25T10:30:23.94Z</time></trkpt><trkpt lat="44.145261409215586" lon="11.32666111643014"><ele>881.0</ele><time>2026-04-25T10:30:24.94Z</time></trkpt><trkpt lat="44.14543080070291" lon="11.326630990104729"><ele>881.0</ele><time>2026-04-25T10:30:25.94Z</time></trkpt><trkpt lat="44.1456112214179" lon="11.326622728432573"><ele>881.0</ele><time>2026-04-25T10:30:26.94Z</time></trkpt><trkpt lat="44.14579629068026" lon="11.326668472177179"><ele>881.0</ele><time>2026-04-25T10:30:27.94Z</time></trkpt><trkpt lat="44.14598323288237" lon="11.326761279771704"><ele>880.3333333333334</ele><time>2026-04-25T10:30:28.94Z</time></trkpt><trkpt lat="44.146155010283394" lon="11.326877725487089"><ele>879.6666666666667</ele><time>2026-04-25T10:30:29.94Z</time></trkpt><trkpt lat="44.14631751521698" lon="11.326993059682142"><ele>879.0</ele><time>2026-04-25T10:30:30.94Z</time></trkpt><trkpt lat="44.14646861884192" lon="11.327093805709435"><ele>883.0</ele><time>2026-04-25T10:30:31.94Z</time></trkpt><trkpt lat="44.146617306308706" lon="11.327174529121114"><ele>887.0</ele><time>2026-04-25T10:30:32.94Z</time></trkpt><trkpt lat="44.146768638001305" lon="11.327221415820285"><ele>891.0</ele><time>2026-04-25T10:30:33.94Z</time></trkpt><trkpt lat="44.146939017705215" lon="11.327222669053464"><ele>891.0</ele><time>2026-04-25T10:30:34.94Z</time></trkpt><trkpt lat="44.1471146508581" lon="11.32721108280366"><ele>891.0</ele><time>2026-04-25T10:30:35.94Z</time></trkpt><trkpt lat="44.147299200595135" lon="11.327202497864215"><ele>891.0</ele><time>2026-04-25T10:30:36.94Z</time></trkpt><trkpt lat="44.14747819089611" lon="11.327226743613672"><ele>889.3333333333333</ele><time>2026-04-25T10:30:37.94Z</time></trkpt><trkpt lat="44.14764640781539" lon="11.327299295473448"><ele>887.6666666666666</ele><time>2026-04-25T10:30:38.94Z</time></trkpt><trkpt lat="44.14779558067357" lon="11.327389120467071"><ele>886.0</ele><time>2026-04-25T10:30:39.94Z</time></trkpt><trkpt lat="44.147929938871904" lon="11.327467872872942"><ele>886.0</ele><time>2026-04-25T10:30:40.94Z</time></trkpt><trkpt lat="44.148045001680394" lon="11.327509017488305"><ele>886.0</ele><time>2026-04-25T10:30:41.94Z</time></trkpt><trkpt lat="44.148154220084464" lon="11.327511142139773"><ele>886.0</ele><time>2026-04-25T10:30:42.94Z</time></trkpt><trkpt lat="44.14826220527258" lon="11.327453177161912"><ele>886.0</ele><time>2026-04-25T10:30:43.94Z</time></trkpt><trkpt lat="44.148375402388574" lon="11.327364587984167"><ele>886.0</ele><time>2026-04-25T10:30:44.94Z</time></trkpt><trkpt lat="44.1484774310298" lon="11.327253018054012"><ele>886.0</ele><time>2026-04-25T10:30:45.94Z</time></trkpt><trkpt lat="44.1485743347643" lon="11.327137948710346"><ele>886.0</ele><time>2026-04-25T10:30:46.94Z</time></trkpt><trkpt lat="44.14866553076565" lon="11.32701277902132"><ele>886.0</ele><time>2026-04-25T10:30:47.94Z</time></trkpt><trkpt lat="44.14875269760053" lon="11.326880213169282"><ele>886.75</ele><time>2026-04-25T10:30:48.94Z</time></trkpt><trkpt lat="44.148841969343664" lon="11.326745023279646"><ele>887.5</ele><time>2026-04-25T10:30:49.94Z</time></trkpt><trkpt lat="44.1489387445416" lon="11.326607380837535"><ele>888.25</ele><time>2026-04-25T10:30:50.94Z</time></trkpt><trkpt lat="44.14905561654487" lon="11.326465715482557"><ele>889.0</ele><time>2026-04-25T10:30:51.94Z</time></trkpt><trkpt lat="44.149170829710556" lon="11.326332247125352"><ele>895.3333333333333</ele><time>2026-04-25T10:30:52.94Z</time></trkpt><trkpt lat="44.14929142731505" lon="11.32620669885725"><ele>901.6666666666667</ele><time>2026-04-25T10:30:53.94Z</time></trkpt><trkpt lat="44.14941002688809" lon="11.326077626056197"><ele>908.0</ele><time>2026-04-25T10:30:54.94Z</time></trkpt><trkpt lat="44.14953626169506" lon="11.325967913963336"><ele>908.0</ele><time>2026-04-25T10:30:55.94Z</time></trkpt><trkpt lat="44.14967363442748" lon="11.325915989130044"><ele>908.0</ele><time>2026-04-25T10:30:56.94Z</time></trkpt><trkpt lat="44.149824191428095" lon="11.325898422558408"><ele>908.0</ele><time>2026-04-25T10:30:57.94Z</time></trkpt><trkpt lat="44.149980524877876" lon="11.325901793182956"><ele>904.0</ele><time>2026-04-25T10:30:58.94Z</time></trkpt><trkpt lat="44.150169151594405" lon="11.325925973688483"><ele>900.0</ele><time>2026-04-25T10:30:59.94Z</time></trkpt><trkpt lat="44.150367646224666" lon="11.325938809696886"><ele>896.0</ele><time>2026-04-25T10:31:00.94Z</time></trkpt><trkpt lat="44.150558407246876" lon="11.32595030463051"><ele>893.0</ele><time>2026-04-25T10:31:01.94Z</time></trkpt><trkpt lat="44.1507353363418" lon="11.325946254088995"><ele>890.0</ele><time>2026-04-25T10:31:02.94Z</time></trkpt><trkpt lat="44.15090333911478" lon="11.325926004063154"><ele>887.0</ele><time>2026-04-25T10:31:03.94Z</time></trkpt><trkpt lat="44.15106184547197" lon="11.325882203596688"><ele>887.0</ele><time>2026-04-25T10:31:04.94Z</time></trkpt><trkpt lat="44.151215458008586" lon="11.325817600636798"><ele>887.0</ele><time>2026-04-25T10:31:05.94Z</time></trkpt><trkpt lat="44.151378489513604" lon="11.325715165816362"><ele>887.0</ele><time>2026-04-25T10:31:06.94Z</time></trkpt><trkpt lat="44.15154095276918" lon="11.325584109010093"><ele>891.0</ele><time>2026-04-25T10:31:07.94Z</time></trkpt><trkpt lat="44.151706935224595" lon="11.325438898515364"><ele>895.0</ele><time>2026-04-25T10:31:08.94Z</time></trkpt><trkpt lat="44.15186941654813" lon="11.325298809858714"><ele>899.0</ele><time>2026-04-25T10:31:09.94Z</time></trkpt><trkpt lat="44.15203926482007" lon="11.325150251928878"><ele>899.0</ele><time>2026-04-25T10:31:10.94Z</time></trkpt><trkpt lat="44.152201942557554" lon="11.325018362752159"><ele>899.0</ele><time>2026-04-25T10:31:11.94Z</time></trkpt><trkpt lat="44.152345279810696" lon="11.324882143651683"><ele>899.0</ele><time>2026-04-25T10:31:12.94Z</time></trkpt><trkpt lat="44.15249069636405" lon="11.324754626196388"><ele>900.6666666666667</ele><time>2026-04-25T10:31:13.94Z</time></trkpt><trkpt lat="44.152635077105025" lon="11.324637988604131"><ele>902.3333333333333</ele><time>2026-04-25T10:31:14.94Z</time></trkpt><trkpt lat="44.152764090658046" lon="11.324534174014783"><ele>904.0</ele><time>2026-04-25T10:31:15.94Z</time></trkpt><trkpt lat="44.15289651954096" lon="11.324450703351138"><ele>904.0</ele><time>2026-04-25T10:31:16.94Z</time></trkpt><trkpt lat="44.15302678373827" lon="11.324441859713101"><ele>904.0</ele><time>2026-04-25T10:31:17.94Z</time></trkpt><trkpt lat="44.153175437132845" lon="11.324476672826323"><ele>904.0</ele><time>2026-04-25T10:31:18.94Z</time></trkpt><trkpt lat="44.15332110170106" lon="11.324562467239929"><ele>904.0</ele><time>2026-04-25T10:31:19.94Z</time></trkpt><trkpt lat="44.15346405370773" lon="11.324678698570892"><ele>897.6666666666666</ele><time>2026-04-25T10:31:20.94Z</time></trkpt><trkpt lat="44.15360608296652" lon="11.324805069791886"><ele>891.3333333333333</ele><time>2026-04-25T10:31:21.94Z</time></trkpt><trkpt lat="44.15373725651869" lon="11.32492661238425"><ele>885.0</ele><time>2026-04-25T10:31:22.94Z</time></trkpt><trkpt lat="44.153868012532314" lon="11.3250348420189"><ele>885.0</ele><time>2026-04-25T10:31:23.94Z</time></trkpt><trkpt lat="44.15401103277843" lon="11.325098095816422"><ele>885.0</ele><time>2026-04-25T10:31:24.94Z</time></trkpt><trkpt lat="44.15415481480691" lon="11.325160568643582"><ele>885.0</ele><time>2026-04-25T10:31:25.94Z</time></trkpt><trkpt lat="44.15429369354856" lon="11.325195810223589"><ele>885.0</ele><time>2026-04-25T10:31:26.94Z</time></trkpt><trkpt lat="44.15441853645893" lon="11.325215315412018"><ele>886.5</ele><time>2026-04-25T10:31:27.94Z</time></trkpt><trkpt lat="44.154535872357485" lon="11.325189559252424"><ele>888.0</ele><time>2026-04-25T10:31:28.94Z</time></trkpt><trkpt lat="44.15463638000475" lon="11.325118222748161"><ele>889.5</ele><time>2026-04-25T10:31:29.94Z</time></trkpt><trkpt lat="44.154730822105556" lon="11.325001492394945"><ele>891.0</ele><time>2026-04-25T10:31:30.94Z</time></trkpt><trkpt lat="44.154812783207426" lon="11.324835225542948"><ele>892.0</ele><time>2026-04-25T10:31:31.94Z</time></trkpt><trkpt lat="44.15487940349803" lon="11.324667364169338"><ele>893.0</ele><time>2026-04-25T10:31:32.94Z</time></trkpt><trkpt lat="44.15496136991675" lon="11.32452004450832"><ele>894.0</ele><time>2026-04-25T10:31:33.94Z</time></trkpt><trkpt lat="44.15506501115669" lon="11.324387329812993"><ele>895.0</ele><time>2026-04-25T10:31:34.94Z</time></trkpt><trkpt lat="44.155205687747696" lon="11.324260616363247"><ele>895.0</ele><time>2026-04-25T10:31:35.94Z</time></trkpt><trkpt lat="44.15533653806665" lon="11.324114570649451"><ele>895.0</ele><time>2026-04-25T10:31:36.94Z</time></trkpt><trkpt lat="44.15546073487106" lon="11.323929662302046"><ele>895.0</ele><time>2026-04-25T10:31:37.94Z</time></trkpt><trkpt lat="44.15557401389939" lon="11.323727505169936"><ele>896.3333333333333</ele><time>2026-04-25T10:31:38.94Z</time></trkpt><trkpt lat="44.15568953952006" lon="11.323539119528268"><ele>897.6666666666667</ele><time>2026-04-25T10:31:39.94Z</time></trkpt><trkpt lat="44.15581624327195" lon="11.323387088961406"><ele>899.0</ele><time>2026-04-25T10:31:40.94Z</time></trkpt><trkpt lat="44.15594173259245" lon="11.323276301913204"><ele>899.0</ele><time>2026-04-25T10:31:41.94Z</time></trkpt><trkpt lat="44.15607664100058" lon="11.323219200093211"><ele>899.0</ele><time>2026-04-25T10:31:42.94Z</time></trkpt><trkpt lat="44.156212981743685" lon="11.32320049022558"><ele>899.0</ele><time>2026-04-25T10:31:43.94Z</time></trkpt><trkpt lat="44.156352434895524" lon="11.323215896039796"><ele>899.0</ele><time>2026-04-25T10:31:44.94Z</time></trkpt><trkpt lat="44.15649210850133" lon="11.323263777405272"><ele>899.5</ele><time>2026-04-25T10:31:45.94Z</time></trkpt><trkpt lat="44.15663689078893" lon="11.323334294341478"><ele>900.0</ele><time>2026-04-25T10:31:46.94Z</time></trkpt><trkpt lat="44.156781054663426" lon="11.323404189736126"><ele>900.5</ele><time>2026-04-25T10:31:47.94Z</time></trkpt><trkpt lat="44.15691552535334" lon="11.323449148731223"><ele>901.0</ele><time>2026-04-25T10:31:48.94Z</time></trkpt><trkpt lat="44.15704352598238" lon="11.323457201323581"><ele>901.0</ele><time>2026-04-25T10:31:49.94Z</time></trkpt><trkpt lat="44.15718381393604" lon="11.323412188627756"><ele>901.0</ele><time>2026-04-25T10:31:50.94Z</time></trkpt><trkpt lat="44.157335673354304" lon="11.323327886247146"><ele>901.0</ele><time>2026-04-25T10:31:51.94Z</time></trkpt><trkpt lat="44.15748707950966" lon="11.3231981250447"><ele>902.6666666666666</ele><time>2026-04-25T10:31:52.94Z</time></trkpt><trkpt lat="44.15762095600349" lon="11.32305075015864"><ele>904.3333333333333</ele><time>2026-04-25T10:31:53.94Z</time></trkpt><trkpt lat="44.15774196395231" lon="11.322909198944089"><ele>906.0</ele><time>2026-04-25T10:31:54.94Z</time></trkpt><trkpt lat="44.15786991211569" lon="11.322790451432141"><ele>906.0</ele><time>2026-04-25T10:31:55.94Z</time></trkpt><trkpt lat="44.15800037473744" lon="11.322720246479918"><ele>906.0</ele><time>2026-04-25T10:31:56.94Z</time></trkpt><trkpt lat="44.15813512030268" lon="11.322685447385084"><ele>906.0</ele><time>2026-04-25T10:31:57.94Z</time></trkpt><trkpt lat="44.158273524989696" lon="11.322698792750744"><ele>906.0</ele><time>2026-04-25T10:31:58.94Z</time></trkpt><trkpt lat="44.15842104796892" lon="11.322759830282209"><ele>905.6666666666667</ele><time>2026-04-25T10:31:59.94Z</time></trkpt><trkpt lat="44.15856657221494" lon="11.322859350338065"><ele>905.3333333333334</ele><time>2026-04-25T10:32:00.94Z</time></trkpt><trkpt lat="44.15870846278886" lon="11.322996889214583"><ele>905.0</ele><time>2026-04-25T10:32:01.94Z</time></trkpt><trkpt lat="44.15882935285238" lon="11.323145588549442"><ele>903.0</ele><time>2026-04-25T10:32:02.94Z</time></trkpt><trkpt lat="44.158944387158186" lon="11.323289931448283"><ele>901.0</ele><time>2026-04-25T10:32:03.94Z</time></trkpt><trkpt lat="44.15908538240351" lon="11.323414359288584"><ele>899.0</ele><time>2026-04-25T10:32:04.94Z</time></trkpt><trkpt lat="44.15925255417002" lon="11.323523317058312"><ele>899.0</ele><time>2026-04-25T10:32:05.94Z</time></trkpt><trkpt lat="44.159423729242896" lon="11.323629995937267"><ele>899.0</ele><time>2026-04-25T10:32:06.94Z</time></trkpt><trkpt lat="44.159578895191366" lon="11.32375286847823"><ele>899.0</ele><time>2026-04-25T10:32:07.94Z</time></trkpt><trkpt lat="44.159716213136605" lon="11.323890974327306"><ele>899.0</ele><time>2026-04-25T10:32:08.94Z</time></trkpt><trkpt lat="44.15983211940566" lon="11.324047685742746"><ele>899.0</ele><time>2026-04-25T10:32:09.94Z</time></trkpt><trkpt lat="44.159920602768665" lon="11.324233254271393"><ele>899.0</ele><time>2026-04-25T10:32:10.941Z</time></trkpt><trkpt lat="44.159966650821204" lon="11.324460805772736"><ele>899.0</ele><time>2026-04-25T10:32:11.941Z</time></trkpt><trkpt lat="44.160028875981304" lon="11.324697600697931"><ele>899.0</ele><time>2026-04-25T10:32:12.941Z</time></trkpt><trkpt lat="44.16010376842778" lon="11.324971857138989"><ele>899.0</ele><time>2026-04-25T10:32:13.94Z</time></trkpt><trkpt lat="44.160169072277455" lon="11.32521733674811"><ele>896.0</ele><time>2026-04-25T10:32:14.94Z</time></trkpt><trkpt lat="44.16023735880086" lon="11.325449974590326"><ele>893.0</ele><time>2026-04-25T10:32:15.94Z</time></trkpt><trkpt lat="44.16030302113719" lon="11.325687804979236"><ele>890.0</ele><time>2026-04-25T10:32:16.94Z</time></trkpt><trkpt lat="44.16038520627827" lon="11.325922101385775"><ele>887.3333333333334</ele><time>2026-04-25T10:32:17.94Z</time></trkpt><trkpt lat="44.16046952527071" lon="11.32616581534411"><ele>884.6666666666667</ele><time>2026-04-25T10:32:18.94Z</time></trkpt><trkpt lat="44.16055990073038" lon="11.326412019500314"><ele>882.0</ele><time>2026-04-25T10:32:19.94Z</time></trkpt><trkpt lat="44.1606502837586" lon="11.326665736657544"><ele>882.3333333333333</ele><time>2026-04-25T10:32:20.94Z</time></trkpt><trkpt lat="44.16075299950638" lon="11.326920002013035"><ele>882.6666666666666</ele><time>2026-04-25T10:32:21.94Z</time></trkpt><trkpt lat="44.160857115401086" lon="11.327145377581715"><ele>883.0</ele><time>2026-04-25T10:32:22.94Z</time></trkpt><trkpt lat="44.16095780785071" lon="11.327366483864129"><ele>883.0</ele><time>2026-04-25T10:32:23.94Z</time></trkpt><trkpt lat="44.1610419223195" lon="11.3276057813371"><ele>883.0</ele><time>2026-04-25T10:32:24.94Z</time></trkpt><trkpt lat="44.16111475002142" lon="11.327862520964201"><ele>883.0</ele><time>2026-04-25T10:32:25.94Z</time></trkpt><trkpt lat="44.161178179266635" lon="11.328103090604538"><ele>882.6666666666666</ele><time>2026-04-25T10:32:26.94Z</time></trkpt><trkpt lat="44.16121244307287" lon="11.32833804352832"><ele>882.3333333333333</ele><time>2026-04-25T10:32:27.94Z</time></trkpt><trkpt lat="44.16124390476451" lon="11.328547998095553"><ele>882.0</ele><time>2026-04-25T10:32:28.94Z</time></trkpt><trkpt lat="44.16127191752227" lon="11.328725646925685"><ele>880.0</ele><time>2026-04-25T10:32:29.94Z</time></trkpt><trkpt lat="44.16129620973976" lon="11.328894127287027"><ele>878.0</ele><time>2026-04-25T10:32:30.94Z</time></trkpt><trkpt lat="44.16132038766209" lon="11.329041108947264"><ele>876.0</ele><time>2026-04-25T10:32:31.94Z</time></trkpt><trkpt lat="44.161367344138014" lon="11.329191439246971"><ele>874.0</ele><time>2026-04-25T10:32:32.94Z</time></trkpt><trkpt lat="44.161437883024554" lon="11.329336287510344"><ele>875.75</ele><time>2026-04-25T10:32:33.94Z</time></trkpt><trkpt lat="44.16153749317538" lon="11.32945170506166"><ele>877.5</ele><time>2026-04-25T10:32:34.94Z</time></trkpt><trkpt lat="44.16165572735262" lon="11.329556340100684"><ele>879.25</ele><time>2026-04-25T10:32:35.94Z</time></trkpt><trkpt lat="44.16178732809732" lon="11.329636390327222"><ele>881.0</ele><time>2026-04-25T10:32:36.94Z</time></trkpt><trkpt lat="44.16193057992013" lon="11.329697978301807"><ele>877.75</ele><time>2026-04-25T10:32:37.94Z</time></trkpt><trkpt lat="44.16207090458907" lon="11.329731720761131"><ele>874.5</ele><time>2026-04-25T10:32:38.94Z</time></trkpt><trkpt lat="44.16221055040733" lon="11.329742870076874"><ele>871.25</ele><time>2026-04-25T10:32:39.94Z</time></trkpt><trkpt lat="44.16233596213667" lon="11.329747105427785"><ele>868.0</ele><time>2026-04-25T10:32:40.94Z</time></trkpt><trkpt lat="44.16246171185123" lon="11.329766784860984"><ele>867.25</ele><time>2026-04-25T10:32:41.94Z</time></trkpt><trkpt lat="44.16258327654483" lon="11.329819226532363"><ele>866.5</ele><time>2026-04-25T10:32:42.94Z</time></trkpt><trkpt lat="44.16268713337677" lon="11.329931734687612"><ele>865.75</ele><time>2026-04-25T10:32:43.94Z</time></trkpt><trkpt lat="44.162775599413145" lon="11.3300657423874"><ele>865.0</ele><time>2026-04-25T10:32:44.94Z</time></trkpt><trkpt lat="44.1628312161573" lon="11.330228806573096"><ele>865.0</ele><time>2026-04-25T10:32:45.94Z</time></trkpt><trkpt lat="44.162855024041264" lon="11.330400780525576"><ele>865.0</ele><time>2026-04-25T10:32:46.94Z</time></trkpt><trkpt lat="44.16284132502552" lon="11.330592807673819"><ele>865.0</ele><time>2026-04-25T10:32:47.94Z</time></trkpt><trkpt lat="44.162809778397644" lon="11.330780331078461"><ele>865.0</ele><time>2026-04-25T10:32:48.94Z</time></trkpt><trkpt lat="44.16279486621977" lon="11.330957018390425"><ele>862.8</ele><time>2026-04-25T10:32:49.94Z</time></trkpt><trkpt lat="44.16280484581134" lon="11.331096136417498"><ele>860.6</ele><time>2026-04-25T10:32:50.94Z</time></trkpt><trkpt lat="44.16283309335924" lon="11.331215438697708"><ele>858.4000000000001</ele><time>2026-04-25T10:32:51.94Z</time></trkpt><trkpt lat="44.162892885166734" lon="11.331306073383027"><ele>856.2</ele><time>2026-04-25T10:32:52.94Z</time></trkpt><trkpt lat="44.16298414950891" lon="11.331378053443425"><ele>854.0</ele><time>2026-04-25T10:32:53.94Z</time></trkpt><trkpt lat="44.163096252286316" lon="11.331461872623194"><ele>853.25</ele><time>2026-04-25T10:32:54.94Z</time></trkpt><trkpt lat="44.163211690016865" lon="11.331551567706864"><ele>852.5</ele><time>2026-04-25T10:32:55.94Z</time></trkpt><trkpt lat="44.16332697885572" lon="11.331633616709526"><ele>851.75</ele><time>2026-04-25T10:32:56.94Z</time></trkpt><trkpt lat="44.16343606377076" lon="11.331714535527686"><ele>851.0</ele><time>2026-04-25T10:32:57.94Z</time></trkpt><trkpt lat="44.16354530801105" lon="11.331805541646515"><ele>851.0</ele><time>2026-04-25T10:32:58.94Z</time></trkpt><trkpt lat="44.16364932003912" lon="11.331894723743728"><ele>851.0</ele><time>2026-04-25T10:32:59.94Z</time></trkpt><trkpt lat="44.16374763312171" lon="11.332002725253622"><ele>851.0</ele><time>2026-04-25T10:33:00.94Z</time></trkpt><trkpt lat="44.163848092421645" lon="11.332151332861951"><ele>851.0</ele><time>2026-04-25T10:33:01.94Z</time></trkpt><trkpt lat="44.16393869634352" lon="11.332317029948697"><ele>851.5</ele><time>2026-04-25T10:33:02.94Z</time></trkpt><trkpt lat="44.16402428908215" lon="11.332473519344942"><ele>852.0</ele><time>2026-04-25T10:33:03.94Z</time></trkpt><trkpt lat="44.16410869086868" lon="11.332618785906385"><ele>852.5</ele><time>2026-04-25T10:33:04.94Z</time></trkpt><trkpt lat="44.164195739085436" lon="11.332742965770302"><ele>853.0</ele><time>2026-04-25T10:33:05.94Z</time></trkpt><trkpt lat="44.16428346545686" lon="11.332851699650146"><ele>853.0</ele><time>2026-04-25T10:33:06.94Z</time></trkpt><trkpt lat="44.16436354277449" lon="11.332965045426652"><ele>853.0</ele><time>2026-04-25T10:33:07.94Z</time></trkpt><trkpt lat="44.16443335404142" lon="11.333110733313108"><ele>853.0</ele><time>2026-04-25T10:33:08.94Z</time></trkpt><trkpt lat="44.164485230433506" lon="11.333287290811262"><ele>853.0</ele><time>2026-04-25T10:33:09.94Z</time></trkpt><trkpt lat="44.16451524566395" lon="11.333476537898164"><ele>852.0</ele><time>2026-04-25T10:33:10.94Z</time></trkpt><trkpt lat="44.16455181996719" lon="11.333669320909518"><ele>851.0</ele><time>2026-04-25T10:33:11.94Z</time></trkpt><trkpt lat="44.164612032601184" lon="11.333844269109033"><ele>850.0</ele><time>2026-04-25T10:33:12.94Z</time></trkpt><trkpt lat="44.164685053470045" lon="11.33401323587013"><ele>849.0</ele><time>2026-04-25T10:33:13.94Z</time></trkpt><trkpt lat="44.16477717300423" lon="11.334182391493904"><ele>851.0</ele><time>2026-04-25T10:33:14.94Z</time></trkpt><trkpt lat="44.16488595176203" lon="11.33435433207537"><ele>853.0</ele><time>2026-04-25T10:33:15.94Z</time></trkpt><trkpt lat="44.164996048341656" lon="11.334510241620547"><ele>855.0</ele><time>2026-04-25T10:33:16.94Z</time></trkpt><trkpt lat="44.165096526706996" lon="11.334650793914177"><ele>854.0</ele><time>2026-04-25T10:33:17.94Z</time></trkpt><trkpt lat="44.165182363050015" lon="11.334794925630032"><ele>853.0</ele><time>2026-04-25T10:33:18.94Z</time></trkpt><trkpt lat="44.165274345399055" lon="11.334950487054318"><ele>852.0</ele><time>2026-04-25T10:33:19.94Z</time></trkpt><trkpt lat="44.165340516447095" lon="11.335134855254681"><ele>851.0</ele><time>2026-04-25T10:33:20.94Z</time></trkpt><trkpt lat="44.16537053137945" lon="11.335344892480645"><ele>851.25</ele><time>2026-04-25T10:33:21.94Z</time></trkpt><trkpt lat="44.165394903790585" lon="11.335561748503153"><ele>851.5</ele><time>2026-04-25T10:33:22.94Z</time></trkpt><trkpt lat="44.16541049240369" lon="11.335764238917452"><ele>851.75</ele><time>2026-04-25T10:33:23.94Z</time></trkpt><trkpt lat="44.16544503854009" lon="11.335949560747098"><ele>852.0</ele><time>2026-04-25T10:33:24.94Z</time></trkpt><trkpt lat="44.16544919174157" lon="11.336074772878069"><ele>852.0</ele><time>2026-04-25T10:33:25.94Z</time></trkpt><trkpt lat="44.165490550721906" lon="11.336151827037005"><ele>852.0</ele><time>2026-04-25T10:33:26.94Z</time></trkpt><trkpt lat="44.165543444968314" lon="11.336202176888111"><ele>852.0</ele><time>2026-04-25T10:33:27.94Z</time></trkpt><trkpt lat="44.165549149776616" lon="11.336338810697766"><ele>852.0</ele><time>2026-04-25T10:33:28.94Z</time></trkpt><trkpt lat="44.16570801678593" lon="11.336223849435113"><ele>852.0</ele><time>2026-04-25T10:33:29.94Z</time></trkpt><trkpt lat="44.16580884160519" lon="11.336184539530684"><ele>854.5</ele><time>2026-04-25T10:33:30.94Z</time></trkpt><trkpt lat="44.16591745405898" lon="11.336126910061173"><ele>857.0</ele><time>2026-04-25T10:33:31.94Z</time></trkpt><trkpt lat="44.16604139798766" lon="11.336049668363524"><ele>859.5</ele><time>2026-04-25T10:33:32.94Z</time></trkpt><trkpt lat="44.16617076809577" lon="11.335952087801054"><ele>862.0</ele><time>2026-04-25T10:33:33.94Z</time></trkpt><trkpt lat="44.16630086020972" lon="11.335842713902853"><ele>862.0</ele><time>2026-04-25T10:33:34.94Z</time></trkpt><trkpt lat="44.166422730736876" lon="11.335719707335791"><ele>862.0</ele><time>2026-04-25T10:33:35.94Z</time></trkpt><trkpt lat="44.16654865312339" lon="11.335595070272037"><ele>862.0</ele><time>2026-04-25T10:33:36.94Z</time></trkpt><trkpt lat="44.16668529849477" lon="11.33547755863166"><ele>864.0</ele><time>2026-04-25T10:33:37.94Z</time></trkpt><trkpt lat="44.166834416642885" lon="11.335347323151973"><ele>866.0</ele><time>2026-04-25T10:33:38.94Z</time></trkpt><trkpt lat="44.16696888696022" lon="11.335224781497553"><ele>868.0</ele><time>2026-04-25T10:33:39.94Z</time></trkpt><trkpt lat="44.167096312670466" lon="11.335118874464108"><ele>868.0</ele><time>2026-04-25T10:33:40.94Z</time></trkpt><trkpt lat="44.16720722155113" lon="11.335027383826935"><ele>868.0</ele><time>2026-04-25T10:33:41.94Z</time></trkpt><trkpt lat="44.16730341105003" lon="11.334947344350507"><ele>868.0</ele><time>2026-04-25T10:33:42.94Z</time></trkpt><trkpt lat="44.167395711431666" lon="11.3348625969698"><ele>868.0</ele><time>2026-04-25T10:33:43.94Z</time></trkpt><trkpt lat="44.16747292841633" lon="11.33477114752815"><ele>870.4</ele><time>2026-04-25T10:33:44.941Z</time></trkpt><trkpt lat="44.16751924566952" lon="11.33467778309067"><ele>872.8</ele><time>2026-04-25T10:33:45.941Z</time></trkpt><trkpt lat="44.16754547201129" lon="11.33456139894558"><ele>875.2</ele><time>2026-04-25T10:33:46.941Z</time></trkpt><trkpt lat="44.16751439453283" lon="11.334418367046977"><ele>877.6</ele><time>2026-04-25T10:33:47.941Z</time></trkpt><trkpt lat="44.167460676525074" lon="11.334300120313394"><ele>880.0</ele><time>2026-04-25T10:33:48.941Z</time></trkpt><trkpt lat="44.16740551681579" lon="11.334180488239419"><ele>880.25</ele><time>2026-04-25T10:33:49.941Z</time></trkpt><trkpt lat="44.167340167183916" lon="11.334039834738961"><ele>880.5</ele><time>2026-04-25T10:33:50.941Z</time></trkpt><trkpt lat="44.16726715075839" lon="11.333878293309288"><ele>880.75</ele><time>2026-04-25T10:33:51.941Z</time></trkpt><trkpt lat="44.16719112378788" lon="11.333736858603201"><ele>881.0</ele><time>2026-04-25T10:33:52.941Z</time></trkpt><trkpt lat="44.1671663097896" lon="11.333573621203158"><ele>881.0</ele><time>2026-04-25T10:33:53.941Z</time></trkpt><trkpt lat="44.16716974854834" lon="11.333445052574513"><ele>880.9999999999999</ele><time>2026-04-25T10:33:54.941Z</time></trkpt><trkpt lat="44.16721099307543" lon="11.333315220009835"><ele>880.9999999999999</ele><time>2026-04-25T10:33:55.941Z</time></trkpt><trkpt lat="44.167285472670294" lon="11.333192312129334"><ele>881.0</ele><time>2026-04-25T10:33:56.941Z</time></trkpt><trkpt lat="44.16739252130852" lon="11.333081655635304"><ele>881.0</ele><time>2026-04-25T10:33:57.941Z</time></trkpt><trkpt lat="44.1674863657355" lon="11.332942702657443"><ele>883.5</ele><time>2026-04-25T10:33:58.941Z</time></trkpt><trkpt lat="44.16756891976682" lon="11.332796665326482"><ele>886.0</ele><time>2026-04-25T10:33:59.941Z</time></trkpt><trkpt lat="44.167656119724604" lon="11.332652568823743"><ele>888.5</ele><time>2026-04-25T10:34:00.941Z</time></trkpt><trkpt lat="44.1677241446788" lon="11.33256129090601"><ele>891.0</ele><time>2026-04-25T10:34:01.941Z</time></trkpt><trkpt lat="44.16780792162477" lon="11.332512394297368"><ele>891.0</ele><time>2026-04-25T10:34:02.941Z</time></trkpt><trkpt lat="44.167912717843215" lon="11.332528911603509"><ele>891.0</ele><time>2026-04-25T10:34:03.941Z</time></trkpt><trkpt lat="44.16803061907023" lon="11.332556583100363"><ele>891.0</ele><time>2026-04-25T10:34:04.941Z</time></trkpt><trkpt lat="44.168152559389696" lon="11.332605244749626"><ele>891.0</ele><time>2026-04-25T10:34:05.941Z</time></trkpt><trkpt lat="44.16829314314296" lon="11.332653339830696"><ele>896.3333333333333</ele><time>2026-04-25T10:34:06.941Z</time></trkpt><trkpt lat="44.16844368016278" lon="11.332725810199403"><ele>901.6666666666666</ele><time>2026-04-25T10:34:07.941Z</time></trkpt><trkpt lat="44.168599745388555" lon="11.332780058550185"><ele>907.0</ele><time>2026-04-25T10:34:08.941Z</time></trkpt><trkpt lat="44.16875247593052" lon="11.332829060714339"><ele>907.0</ele><time>2026-04-25T10:34:09.941Z</time></trkpt><trkpt lat="44.168896753823105" lon="11.33287386571553"><ele>907.0</ele><time>2026-04-25T10:34:10.941Z</time></trkpt><trkpt lat="44.169032201787964" lon="11.332908013291515"><ele>907.0</ele><time>2026-04-25T10:34:11.941Z</time></trkpt><trkpt lat="44.169169932291226" lon="11.332928620230987"><ele>907.0</ele><time>2026-04-25T10:34:12.941Z</time></trkpt><trkpt lat="44.16930646943037" lon="11.332920665435132"><ele>909.75</ele><time>2026-04-25T10:34:13.941Z</time></trkpt><trkpt lat="44.16944512175723" lon="11.332879744831809"><ele>912.5</ele><time>2026-04-25T10:34:14.941Z</time></trkpt><trkpt lat="44.16958414585107" lon="11.332826763206844"><ele>915.25</ele><time>2026-04-25T10:34:15.941Z</time></trkpt><trkpt lat="44.169723969536705" lon="11.33276253836805"><ele>918.0</ele><time>2026-04-25T10:34:16.94Z</time></trkpt><trkpt lat="44.16987228218858" lon="11.3327024000926"><ele>920.3333333333333</ele><time>2026-04-25T10:34:17.94Z</time></trkpt><trkpt lat="44.17003551112224" lon="11.332629605129595"><ele>922.6666666666666</ele><time>2026-04-25T10:34:18.94Z</time></trkpt><trkpt lat="44.170189830808475" lon="11.332573898621499"><ele>925.0</ele><time>2026-04-25T10:34:19.941Z</time></trkpt><trkpt lat="44.170326641180985" lon="11.332539229580323"><ele>925.0</ele><time>2026-04-25T10:34:20.94Z</time></trkpt><trkpt lat="44.17044599178175" lon="11.332539050156068"><ele>925.0</ele><time>2026-04-25T10:34:21.94Z</time></trkpt><trkpt lat="44.17055630867708" lon="11.332598119575966"><ele>925.0</ele><time>2026-04-25T10:34:22.941Z</time></trkpt><trkpt lat="44.170652244087385" lon="11.332692717918466"><ele>925.0</ele><time>2026-04-25T10:34:23.94Z</time></trkpt><trkpt lat="44.17071115914384" lon="11.332840225290871"><ele>925.25</ele><time>2026-04-25T10:34:24.94Z</time></trkpt><trkpt lat="44.17075757414207" lon="11.33300631272265"><ele>925.5</ele><time>2026-04-25T10:34:25.94Z</time></trkpt><trkpt lat="44.17080079160071" lon="11.33319423993251"><ele>925.75</ele><time>2026-04-25T10:34:26.94Z</time></trkpt><trkpt lat="44.170832940692065" lon="11.333399671541383"><ele>926.0</ele><time>2026-04-25T10:34:27.94Z</time></trkpt><trkpt lat="44.17085543711839" lon="11.333615147339241"><ele>926.0</ele><time>2026-04-25T10:34:28.941Z</time></trkpt><trkpt lat="44.17089066229588" lon="11.333832972168093"><ele>926.0</ele><time>2026-04-25T10:34:29.94Z</time></trkpt><trkpt lat="44.17094175002353" lon="11.334020684598094"><ele>926.0</ele><time>2026-04-25T10:34:30.94Z</time></trkpt><trkpt lat="44.171018580704" lon="11.334197685045929"><ele>925.6666666666667</ele><time>2026-04-25T10:34:31.94Z</time></trkpt><trkpt lat="44.171123372533806" lon="11.33437499714503"><ele>925.3333333333333</ele><time>2026-04-25T10:34:32.94Z</time></trkpt><trkpt lat="44.171236836173804" lon="11.33455249550993"><ele>925.0</ele><time>2026-04-25T10:34:33.94Z</time></trkpt><trkpt lat="44.171356737473864" lon="11.33474102941603"><ele>924.3333333333333</ele><time>2026-04-25T10:34:34.94Z</time></trkpt><trkpt lat="44.171473603135574" lon="11.334938875979836"><ele>923.6666666666667</ele><time>2026-04-25T10:34:35.94Z</time></trkpt><trkpt lat="44.17158698818487" lon="11.335153298505714"><ele>923.0</ele><time>2026-04-25T10:34:36.94Z</time></trkpt><trkpt lat="44.171691052466784" lon="11.335392032476726"><ele>928.6666666666667</ele><time>2026-04-25T10:34:37.94Z</time></trkpt><trkpt lat="44.17178405715512" lon="11.335626823531516"><ele>934.3333333333333</ele><time>2026-04-25T10:34:38.94Z</time></trkpt><trkpt lat="44.17188265916026" lon="11.335864728437802"><ele>940.0</ele><time>2026-04-25T10:34:39.94Z</time></trkpt><trkpt lat="44.171974719351105" lon="11.33607273843302"><ele>940.0</ele><time>2026-04-25T10:34:40.94Z</time></trkpt><trkpt lat="44.172064555356705" lon="11.336254621702647"><ele>940.0</ele><time>2026-04-25T10:34:41.94Z</time></trkpt><trkpt lat="44.172134613973135" lon="11.336430718913157"><ele>940.0</ele><time>2026-04-25T10:34:42.94Z</time></trkpt><trkpt lat="44.172184102995324" lon="11.336615977527781"><ele>940.0</ele><time>2026-04-25T10:34:43.94Z</time></trkpt><trkpt lat="44.17221185268386" lon="11.336815539829361"><ele>939.5</ele><time>2026-04-25T10:34:44.94Z</time></trkpt><trkpt lat="44.17222553935049" lon="11.337021154527134"><ele>939.0</ele><time>2026-04-25T10:34:45.94Z</time></trkpt><trkpt lat="44.17224181810785" lon="11.337220724399893"><ele>938.5</ele><time>2026-04-25T10:34:46.94Z</time></trkpt><trkpt lat="44.172289377377325" lon="11.337421476404417"><ele>938.0</ele><time>2026-04-25T10:34:47.941Z</time></trkpt><trkpt lat="44.17236419494047" lon="11.337606598171533"><ele>943.75</ele><time>2026-04-25T10:34:48.941Z</time></trkpt><trkpt lat="44.172439328872734" lon="11.337782638481436"><ele>949.5</ele><time>2026-04-25T10:34:49.941Z</time></trkpt><trkpt lat="44.17250447738201" lon="11.337933123629202"><ele>955.25</ele><time>2026-04-25T10:34:50.941Z</time></trkpt><trkpt lat="44.17256458060665" lon="11.338074183043782"><ele>961.0</ele><time>2026-04-25T10:34:51.941Z</time></trkpt><trkpt lat="44.172604098510206" lon="11.338203215980375"><ele>961.0</ele><time>2026-04-25T10:34:52.941Z</time></trkpt><trkpt lat="44.17264500233932" lon="11.33827531116642"><ele>960.9999999999999</ele><time>2026-04-25T10:34:53.941Z</time></trkpt><trkpt lat="44.172638884088904" lon="11.33836365681207"><ele>961.0</ele><time>2026-04-25T10:35:05.941Z</time></trkpt><trkpt lat="44.172668911106236" lon="11.338461956550447"><ele>961.0</ele><time>2026-04-25T10:36:32.94Z</time></trkpt><trkpt lat="44.172720017647585" lon="11.338548912684125"><ele>960.9999999999999</ele><time>2026-04-25T10:37:33.941Z</time></trkpt><trkpt lat="44.172736255370744" lon="11.338645406488808"><ele>961.0</ele><time>2026-04-25T10:37:42.941Z</time></trkpt><trkpt lat="44.17278149526331" lon="11.338723592605785"><ele>961.0</ele><time>2026-04-25T10:44:50.938Z</time></trkpt><trkpt lat="44.17281088003247" lon="11.338805302537168"><ele>961.0</ele><time>2026-04-25T10:45:11.938Z</time></trkpt><trkpt lat="44.172856626965284" lon="11.33887701627289"><ele>960.9999999999999</ele><time>2026-04-25T10:45:20.939Z</time></trkpt><trkpt lat="44.17291777960732" lon="11.338841606333514"><ele>961.0</ele><time>2026-04-25T10:45:34.939Z</time></trkpt><trkpt lat="44.17296596387414" lon="11.338906847134702"><ele>961.0</ele><time>2026-04-25T10:45:46.939Z</time></trkpt><trkpt lat="44.173029238495786" lon="11.338956305474069"><ele>960.9999999999999</ele><time>2026-04-25T10:45:56.939Z</time></trkpt><trkpt lat="44.173022148944895" lon="11.338860340544498"><ele>961.0</ele><time>2026-04-25T10:46:24.939Z</time></trkpt><trkpt lat="44.17300847206872" lon="11.338767731347376"><ele>961.0</ele><time>2026-04-25T10:46:38.939Z</time></trkpt><trkpt lat="44.173030767228155" lon="11.33868104863301"><ele>961.0</ele><time>2026-04-25T10:46:50.939Z</time></trkpt><trkpt lat="44.173044130729316" lon="11.33858976313801"><ele>960.9999999999999</ele><time>2026-04-25T10:47:01.939Z</time></trkpt><trkpt lat="44.17301112041299" lon="11.338708213410955"><ele>961.0</ele><time>2026-04-25T10:48:16.94Z</time></trkpt><trkpt lat="44.172953978468584" lon="11.338754661409624"><ele>961.0</ele><time>2026-04-25T10:48:28.94Z</time></trkpt><trkpt lat="44.17291224647797" lon="11.33882612493666"><ele>960.9999999999999</ele><time>2026-04-25T10:48:38.94Z</time></trkpt><trkpt lat="44.17284869035925" lon="11.338814606673196"><ele>961.0</ele><time>2026-04-25T10:48:49.94Z</time></trkpt><trkpt lat="44.17279085283003" lon="11.33885645081847"><ele>961.0</ele><time>2026-04-25T10:49:03.94Z</time></trkpt><trkpt lat="44.172765154582834" lon="11.338944686783059"><ele>961.0</ele><time>2026-04-25T10:49:14.94Z</time></trkpt><trkpt lat="44.17248396683173" lon="11.338782208858298"><ele>961.0</ele><time>2026-04-25T10:57:51.082Z</time></trkpt><trkpt lat="44.172550316015425" lon="11.338836993468528"><ele>961.0</ele><time>2026-04-25T10:57:53.081Z</time></trkpt><trkpt lat="44.17272564818562" lon="11.33883923075403"><ele>962.0</ele><time>2026-04-25T10:57:58.081Z</time></trkpt><trkpt lat="44.172735096429" lon="11.338975749440698"><ele>963.0</ele><time>2026-04-25T10:58:00.081Z</time></trkpt><trkpt lat="44.17281551279057" lon="11.3389959992633"><ele>964.0</ele><time>2026-04-25T10:58:08.081Z</time></trkpt><trkpt lat="44.17297049201153" lon="11.339029269860855"><ele>965.0</ele><time>2026-04-25T10:58:19.634Z</time></trkpt><trkpt lat="44.17267267133376" lon="11.338986222079427"><ele>965.0</ele><time>2026-04-25T10:59:16.082Z</time></trkpt><trkpt lat="44.17280866035183" lon="11.338919151850519"><ele>965.0</ele><time>2026-04-25T10:59:42.082Z</time></trkpt><trkpt lat="44.17289879026163" lon="11.33882664287503"><ele>965.0</ele><time>2026-04-25T11:18:56.085Z</time></trkpt><trkpt lat="44.172987143808534" lon="11.3387618125994"><ele>965.0</ele><time>2026-04-25T11:18:57.085Z</time></trkpt><trkpt lat="44.17294973392985" lon="11.338833887219064"><ele>965.0</ele><time>2026-04-25T11:19:24.085Z</time></trkpt><trkpt lat="44.17286868708134" lon="11.338876575658205"><ele>965.0</ele><time>2026-04-25T11:19:29.085Z</time></trkpt><trkpt lat="44.17279711475054" lon="11.33890833712913"><ele>965.0</ele><time>2026-04-25T11:19:32.085Z</time></trkpt><trkpt lat="44.17273218115903" lon="11.338928997154985"><ele>965.0</ele><time>2026-04-25T11:19:37.085Z</time></trkpt><trkpt lat="44.1727986417762" lon="11.3388930986143"><ele>965.0</ele><time>2026-04-25T11:20:23.944Z</time></trkpt><trkpt lat="44.172782919630684" lon="11.338803479163657"><ele>965.0</ele><time>2026-04-25T11:20:28.947Z</time></trkpt><trkpt lat="44.172795879160674" lon="11.338709107449487"><ele>965.0</ele><time>2026-04-25T11:20:37.947Z</time></trkpt><trkpt lat="44.17274084812097" lon="11.338664264080949"><ele>965.0</ele><time>2026-04-25T11:20:44.947Z</time></trkpt><trkpt lat="44.172671328614335" lon="11.33864562151455"><ele>964.4285714285713</ele><time>2026-04-25T11:28:28.943Z</time></trkpt><trkpt lat="44.172715106976426" lon="11.338550829438914"><ele>963.8571428571429</ele><time>2026-04-25T11:29:51.943Z</time></trkpt><trkpt lat="44.17268279704911" lon="11.338458536054965"><ele>963.2857142857142</ele><time>2026-04-25T11:29:59.943Z</time></trkpt><trkpt lat="44.17263711440023" lon="11.338390020587637"><ele>962.7142857142857</ele><time>2026-04-25T11:30:08.943Z</time></trkpt><trkpt lat="44.17263299171363" lon="11.338299098426676"><ele>962.1428571428571</ele><time>2026-04-25T11:32:24.942Z</time></trkpt><trkpt lat="44.172599028973956" lon="11.338213631791321"><ele>961.5714285714286</ele><time>2026-04-25T11:33:57.942Z</time></trkpt><trkpt lat="44.1725715372803" lon="11.338124340836663"><ele>961.0</ele><time>2026-04-25T11:33:59.942Z</time></trkpt><trkpt lat="44.17252357026654" lon="11.337955267439046"><ele>961.0</ele><time>2026-04-25T11:34:01.942Z</time></trkpt><trkpt lat="44.17248006804392" lon="11.33779519723027"><ele>960.9999999999999</ele><time>2026-04-25T11:34:03.942Z</time></trkpt><trkpt lat="44.17244618626897" lon="11.337710593615817"><ele>960.9999999999999</ele><time>2026-04-25T11:34:04.942Z</time></trkpt><trkpt lat="44.17240882803748" lon="11.33763558303091"><ele>961.0</ele><time>2026-04-25T11:34:05.942Z</time></trkpt><trkpt lat="44.17236556666929" lon="11.33755020386726"><ele>961.0</ele><time>2026-04-25T11:34:06.942Z</time></trkpt><trkpt lat="44.172311120848484" lon="11.337384094662772"><ele>957.7142857142857</ele><time>2026-04-25T11:34:08.942Z</time></trkpt><trkpt lat="44.17227570277689" lon="11.337282856162348"><ele>954.4285714285713</ele><time>2026-04-25T11:34:09.942Z</time></trkpt><trkpt lat="44.17226417649323" lon="11.337190289488147"><ele>951.1428571428571</ele><time>2026-04-25T11:34:10.942Z</time></trkpt><trkpt lat="44.172249062275384" lon="11.33710082661119"><ele>947.8571428571429</ele><time>2026-04-25T11:34:11.942Z</time></trkpt><trkpt lat="44.17225084263222" lon="11.337009270381003"><ele>944.5714285714286</ele><time>2026-04-25T11:34:12.942Z</time></trkpt><trkpt lat="44.17225603557035" lon="11.336915177854989"><ele>941.2857142857142</ele><time>2026-04-25T11:34:13.942Z</time></trkpt><trkpt lat="44.172251734412946" lon="11.33682517614391"><ele>938.0</ele><time>2026-04-25T11:34:14.942Z</time></trkpt><trkpt lat="44.17222314971154" lon="11.336677924028121"><ele>938.0</ele><time>2026-04-25T11:34:16.942Z</time></trkpt><trkpt lat="44.17218568652287" lon="11.336520581064864"><ele>938.0</ele><time>2026-04-25T11:34:18.942Z</time></trkpt><trkpt lat="44.17216011561316" lon="11.33643064586805"><ele>938.0</ele><time>2026-04-25T11:34:19.942Z</time></trkpt><trkpt lat="44.17212269950292" lon="11.336326891348051"><ele>938.0</ele><time>2026-04-25T11:34:20.942Z</time></trkpt><trkpt lat="44.17207839049593" lon="11.336215677736426"><ele>938.0</ele><time>2026-04-25T11:34:21.942Z</time></trkpt><trkpt lat="44.1720309191568" lon="11.336110467990439"><ele>938.4</ele><time>2026-04-25T11:34:22.942Z</time></trkpt><trkpt lat="44.171976132901385" lon="11.335993216070575"><ele>938.8</ele><time>2026-04-25T11:34:23.942Z</time></trkpt><trkpt lat="44.17193065460589" lon="11.335875909334325"><ele>939.2</ele><time>2026-04-25T11:34:24.942Z</time></trkpt><trkpt lat="44.17187613864098" lon="11.335751052104992"><ele>939.6</ele><time>2026-04-25T11:34:25.943Z</time></trkpt><trkpt lat="44.171827912332354" lon="11.335630891301689"><ele>940.0</ele><time>2026-04-25T11:34:26.943Z</time></trkpt><trkpt lat="44.17177764961586" lon="11.335518316260158"><ele>940.2</ele><time>2026-04-25T11:34:27.944Z</time></trkpt><trkpt lat="44.17172389737369" lon="11.335401574285955"><ele>940.4</ele><time>2026-04-25T11:34:28.944Z</time></trkpt><trkpt lat="44.171670515705166" lon="11.335281542813103"><ele>940.5999999999999</ele><time>2026-04-25T11:34:29.945Z</time></trkpt><trkpt lat="44.17161489062853" lon="11.335147813499393"><ele>940.8</ele><time>2026-04-25T11:34:30.945Z</time></trkpt><trkpt lat="44.17155891486719" lon="11.335027843481436"><ele>941.0</ele><time>2026-04-25T11:34:31.946Z</time></trkpt><trkpt lat="44.17149633475196" lon="11.334927579825097"><ele>937.8</ele><time>2026-04-25T11:34:32.946Z</time></trkpt><trkpt lat="44.17142230512721" lon="11.334808529191651"><ele>934.5999999999999</ele><time>2026-04-25T11:34:33.947Z</time></trkpt><trkpt lat="44.171349439220606" lon="11.33469998162837"><ele>931.4</ele><time>2026-04-25T11:34:34.947Z</time></trkpt><trkpt lat="44.17128061972798" lon="11.334589697625496"><ele>928.2</ele><time>2026-04-25T11:34:35.947Z</time></trkpt><trkpt lat="44.17121489115881" lon="11.334486345438597"><ele>925.0</ele><time>2026-04-25T11:34:36.948Z</time></trkpt><trkpt lat="44.17116693111126" lon="11.334365972930556"><ele>925.0</ele><time>2026-04-25T11:34:37.948Z</time></trkpt><trkpt lat="44.17110696207313" lon="11.334267114376411"><ele>925.0</ele><time>2026-04-25T11:34:38.948Z</time></trkpt><trkpt lat="44.171048022258624" lon="11.334158306810227"><ele>925.0</ele><time>2026-04-25T11:34:39.948Z</time></trkpt><trkpt lat="44.171003263031" lon="11.3340456480664"><ele>925.0</ele><time>2026-04-25T11:34:40.949Z</time></trkpt><trkpt lat="44.17096861134503" lon="11.333925056286526"><ele>925.0</ele><time>2026-04-25T11:34:41.949Z</time></trkpt><trkpt lat="44.17094858064276" lon="11.333799781767734"><ele>925.2</ele><time>2026-04-25T11:34:42.949Z</time></trkpt><trkpt lat="44.17092897789193" lon="11.333661277405769"><ele>925.4</ele><time>2026-04-25T11:34:43.949Z</time></trkpt><trkpt lat="44.17090838854895" lon="11.33351103579522"><ele>925.5999999999999</ele><time>2026-04-25T11:34:44.95Z</time></trkpt><trkpt lat="44.170886262398525" lon="11.333361926353753"><ele>925.8</ele><time>2026-04-25T11:34:45.95Z</time></trkpt><trkpt lat="44.17085677017962" lon="11.333219166046687"><ele>926.0</ele><time>2026-04-25T11:34:46.95Z</time></trkpt><trkpt lat="44.17082756553392" lon="11.333086515349898"><ele>925.8</ele><time>2026-04-25T11:34:47.95Z</time></trkpt><trkpt lat="44.170796742410865" lon="11.332963927366757"><ele>925.5999999999999</ele><time>2026-04-25T11:34:48.95Z</time></trkpt><trkpt lat="44.17075945510451" lon="11.332848209502917"><ele>925.4</ele><time>2026-04-25T11:34:49.95Z</time></trkpt><trkpt lat="44.170713204310104" lon="11.332738410205836"><ele>925.2</ele><time>2026-04-25T11:34:50.95Z</time></trkpt><trkpt lat="44.170657510331196" lon="11.332648784847391"><ele>925.0</ele><time>2026-04-25T11:34:51.951Z</time></trkpt><trkpt lat="44.170583281478365" lon="11.332576791154487"><ele>925.0</ele><time>2026-04-25T11:34:52.951Z</time></trkpt><trkpt lat="44.1705049788365" lon="11.332525251155701"><ele>925.0</ele><time>2026-04-25T11:34:53.951Z</time></trkpt><trkpt lat="44.1704048839642" lon="11.33250223208849"><ele>925.0</ele><time>2026-04-25T11:34:54.951Z</time></trkpt><trkpt lat="44.17030471726871" lon="11.332507930564017"><ele>925.0</ele><time>2026-04-25T11:34:55.951Z</time></trkpt><trkpt lat="44.17019551743603" lon="11.332541532912613"><ele>925.0</ele><time>2026-04-25T11:34:56.951Z</time></trkpt><trkpt lat="44.170077718332365" lon="11.332589381964114"><ele>925.0</ele><time>2026-04-25T11:34:57.951Z</time></trkpt><trkpt lat="44.169959985467344" lon="11.332637359466137"><ele>925.0</ele><time>2026-04-25T11:34:58.951Z</time></trkpt><trkpt lat="44.16984569876118" lon="11.332687482218448"><ele>925.0</ele><time>2026-04-25T11:34:59.951Z</time></trkpt><trkpt lat="44.16973601969839" lon="11.332725187351308"><ele>925.0</ele><time>2026-04-25T11:35:00.951Z</time></trkpt><trkpt lat="44.169626781653676" lon="11.332779308596907"><ele>923.6</ele><time>2026-04-25T11:35:01.952Z</time></trkpt><trkpt lat="44.169518477029676" lon="11.33283328261725"><ele>922.2</ele><time>2026-04-25T11:35:02.952Z</time></trkpt><trkpt lat="44.169411816101004" lon="11.332876347697228"><ele>920.8</ele><time>2026-04-25T11:35:03.952Z</time></trkpt><trkpt lat="44.169300894478326" lon="11.332919584072474"><ele>919.4</ele><time>2026-04-25T11:35:04.952Z</time></trkpt><trkpt lat="44.16919822805925" lon="11.332921236062433"><ele>918.0</ele><time>2026-04-25T11:35:05.952Z</time></trkpt><trkpt lat="44.169068894591994" lon="11.332895690557846"><ele>915.25</ele><time>2026-04-25T11:35:06.952Z</time></trkpt><trkpt lat="44.16895189419827" lon="11.332845856100315"><ele>912.5</ele><time>2026-04-25T11:35:07.951Z</time></trkpt><trkpt lat="44.16884054571992" lon="11.33280427716848"><ele>909.75</ele><time>2026-04-25T11:35:08.951Z</time></trkpt><trkpt lat="44.16872843204033" lon="11.33276557957566"><ele>907.0</ele><time>2026-04-25T11:35:09.951Z</time></trkpt><trkpt lat="44.168600120288104" lon="11.332739804758843"><ele>907.0</ele><time>2026-04-25T11:35:10.952Z</time></trkpt><trkpt lat="44.168480354299895" lon="11.332703912569523"><ele>907.0</ele><time>2026-04-25T11:35:11.951Z</time></trkpt><trkpt lat="44.16836058681988" lon="11.332661349371582"><ele>907.0</ele><time>2026-04-25T11:35:12.951Z</time></trkpt><trkpt lat="44.16824720138979" lon="11.332618024297775"><ele>907.0</ele><time>2026-04-25T11:35:13.951Z</time></trkpt><trkpt lat="44.168137079516285" lon="11.332583791426318"><ele>903.8</ele><time>2026-04-25T11:35:14.951Z</time></trkpt><trkpt lat="44.16803691127483" lon="11.332536502886192"><ele>900.6</ele><time>2026-04-25T11:35:15.951Z</time></trkpt><trkpt lat="44.16795170134852" lon="11.332487424043649"><ele>897.3999999999999</ele><time>2026-04-25T11:35:16.951Z</time></trkpt><trkpt lat="44.167859941587494" lon="11.332463662434249"><ele>894.1999999999999</ele><time>2026-04-25T11:35:17.952Z</time></trkpt><trkpt lat="44.167779322348295" lon="11.332482701554534"><ele>891.0</ele><time>2026-04-25T11:35:18.952Z</time></trkpt><trkpt lat="44.16770381718309" lon="11.33254073877547"><ele>891.0</ele><time>2026-04-25T11:35:19.951Z</time></trkpt><trkpt lat="44.167628003941545" lon="11.332627540570474"><ele>890.9999999999999</ele><time>2026-04-25T11:35:20.952Z</time></trkpt><trkpt lat="44.167566450644514" lon="11.33272961496311"><ele>890.9999999999999</ele><time>2026-04-25T11:35:21.952Z</time></trkpt><trkpt lat="44.167500610332205" lon="11.332843675971763"><ele>891.0</ele><time>2026-04-25T11:35:22.952Z</time></trkpt><trkpt lat="44.16742328004366" lon="11.33297219902556"><ele>891.0</ele><time>2026-04-25T11:35:23.952Z</time></trkpt><trkpt lat="44.167349138983106" lon="11.333084247748015"><ele>889.0</ele><time>2026-04-25T11:35:24.952Z</time></trkpt><trkpt lat="44.16726529831677" lon="11.333178356972144"><ele>886.9999999999999</ele><time>2026-04-25T11:35:25.952Z</time></trkpt><trkpt lat="44.16719923196967" lon="11.333270918551376"><ele>884.9999999999999</ele><time>2026-04-25T11:35:26.952Z</time></trkpt><trkpt lat="44.16714823210075" lon="11.333365863644445"><ele>883.0</ele><time>2026-04-25T11:35:27.952Z</time></trkpt><trkpt lat="44.1671199272449" lon="11.33346847157246"><ele>881.0</ele><time>2026-04-25T11:35:28.952Z</time></trkpt><trkpt lat="44.167119581639845" lon="11.333617274790786"><ele>881.0</ele><time>2026-04-25T11:35:29.952Z</time></trkpt><trkpt lat="44.16715297940938" lon="11.33374878327724"><ele>880.9999999999999</ele><time>2026-04-25T11:35:30.952Z</time></trkpt><trkpt lat="44.167197171772834" lon="11.333891973333007"><ele>880.9999999999999</ele><time>2026-04-25T11:35:31.952Z</time></trkpt><trkpt lat="44.16724881165795" lon="11.33402171829266"><ele>881.0</ele><time>2026-04-25T11:35:32.952Z</time></trkpt><trkpt lat="44.167310384720615" lon="11.334142330581155"><ele>881.0</ele><time>2026-04-25T11:35:33.952Z</time></trkpt><trkpt lat="44.16738743733116" lon="11.334253810454856"><ele>880.8333333333334</ele><time>2026-04-25T11:35:34.952Z</time></trkpt><trkpt lat="44.167448246395786" lon="11.334354838752867"><ele>880.6666666666667</ele><time>2026-04-25T11:35:35.952Z</time></trkpt><trkpt lat="44.167478034375975" lon="11.334438222910983"><ele>880.5</ele><time>2026-04-25T11:35:36.952Z</time></trkpt><trkpt lat="44.167494000634214" lon="11.334534271812348"><ele>880.3333333333333</ele><time>2026-04-25T11:35:37.952Z</time></trkpt><trkpt lat="44.16748103011454" lon="11.334626485359468"><ele>880.1666666666666</ele><time>2026-04-25T11:35:38.952Z</time></trkpt><trkpt lat="44.16740128359804" lon="11.334800795930558"><ele>880.0</ele><time>2026-04-25T11:35:40.952Z</time></trkpt><trkpt lat="44.16732643190307" lon="11.334884494798063"><ele>877.0</ele><time>2026-04-25T11:35:41.952Z</time></trkpt><trkpt lat="44.167224207917236" lon="11.334961801915993"><ele>874.0</ele><time>2026-04-25T11:35:42.952Z</time></trkpt><trkpt lat="44.16712689685478" lon="11.335044358068147"><ele>871.0</ele><time>2026-04-25T11:35:43.952Z</time></trkpt><trkpt lat="44.16701550470832" lon="11.335139998432874"><ele>868.0</ele><time>2026-04-25T11:35:44.952Z</time></trkpt><trkpt lat="44.16691052979104" lon="11.335234068189337"><ele>868.0</ele><time>2026-04-25T11:35:45.952Z</time></trkpt><trkpt lat="44.166804199102636" lon="11.335320633024109"><ele>868.0</ele><time>2026-04-25T11:35:46.952Z</time></trkpt><trkpt lat="44.166704880937246" lon="11.335406802162609"><ele>868.0</ele><time>2026-04-25T11:35:47.952Z</time></trkpt><trkpt lat="44.166603453430106" lon="11.335499894256067"><ele>868.0</ele><time>2026-04-25T11:35:48.952Z</time></trkpt><trkpt lat="44.166507744626884" lon="11.33560517368754"><ele>866.5</ele><time>2026-04-25T11:35:49.952Z</time></trkpt><trkpt lat="44.16640515173081" lon="11.335695465420041"><ele>865.0</ele><time>2026-04-25T11:35:50.952Z</time></trkpt><trkpt lat="44.166304558238075" lon="11.335779736462097"><ele>863.5</ele><time>2026-04-25T11:35:51.952Z</time></trkpt><trkpt lat="44.166214054540795" lon="11.33586605262797"><ele>862.0</ele><time>2026-04-25T11:35:52.952Z</time></trkpt><trkpt lat="44.166123735137546" lon="11.335939513665663"><ele>862.0</ele><time>2026-04-25T11:35:53.952Z</time></trkpt><trkpt lat="44.16603961751564" lon="11.336012517501384"><ele>862.0</ele><time>2026-04-25T11:35:54.952Z</time></trkpt><trkpt lat="44.16594581864274" lon="11.336089825534172"><ele>862.0</ele><time>2026-04-25T11:35:55.952Z</time></trkpt><trkpt lat="44.16584773964644" lon="11.336141170093216"><ele>862.0</ele><time>2026-04-25T11:35:56.952Z</time></trkpt><trkpt lat="44.16575524552598" lon="11.336171805067185"><ele>862.0</ele><time>2026-04-25T11:35:57.952Z</time></trkpt><trkpt lat="44.165671552980875" lon="11.336173841416514"><ele>860.5714285714286</ele><time>2026-04-25T11:35:58.952Z</time></trkpt><trkpt lat="44.16559870750123" lon="11.33618858502116"><ele>859.1428571428571</ele><time>2026-04-25T11:35:59.952Z</time></trkpt><trkpt lat="44.16553951145397" lon="11.33614784479453"><ele>857.7142857142857</ele><time>2026-04-25T11:36:00.952Z</time></trkpt><trkpt lat="44.16549370658728" lon="11.33606323934747"><ele>856.2857142857142</ele><time>2026-04-25T11:36:01.952Z</time></trkpt><trkpt lat="44.16547413790127" lon="11.335962495870742"><ele>854.8571428571429</ele><time>2026-04-25T11:36:02.952Z</time></trkpt><trkpt lat="44.165468156331784" lon="11.335860729552403"><ele>853.4285714285713</ele><time>2026-04-25T11:36:03.952Z</time></trkpt><trkpt lat="44.165468907982394" lon="11.335761918431817"><ele>852.0</ele><time>2026-04-25T11:36:04.952Z</time></trkpt><trkpt lat="44.16545820334811" lon="11.335648893025875"><ele>851.8</ele><time>2026-04-25T11:36:05.952Z</time></trkpt><trkpt lat="44.165441206552245" lon="11.335520314391578"><ele>851.6</ele><time>2026-04-25T11:36:06.952Z</time></trkpt><trkpt lat="44.165431503735036" lon="11.335374670309527"><ele>851.4</ele><time>2026-04-25T11:36:07.952Z</time></trkpt><trkpt lat="44.16539717279728" lon="11.335219609904827"><ele>851.1999999999999</ele><time>2026-04-25T11:36:08.952Z</time></trkpt><trkpt lat="44.165362721504934" lon="11.335082318058424"><ele>851.0</ele><time>2026-04-25T11:36:09.952Z</time></trkpt><trkpt lat="44.16531469071114" lon="11.334947271988282"><ele>851.0</ele><time>2026-04-25T11:36:10.952Z</time></trkpt><trkpt lat="44.16525611816004" lon="11.33483766158854"><ele>851.0</ele><time>2026-04-25T11:36:11.952Z</time></trkpt><trkpt lat="44.16517833516092" lon="11.334732510552117"><ele>851.0</ele><time>2026-04-25T11:36:12.952Z</time></trkpt><trkpt lat="44.16509723157501" lon="11.33462241324829"><ele>851.0</ele><time>2026-04-25T11:36:13.952Z</time></trkpt><trkpt lat="44.1650293391961" lon="11.334517546405744"><ele>851.0</ele><time>2026-04-25T11:36:14.952Z</time></trkpt><trkpt lat="44.1649581702853" lon="11.334412862287056"><ele>850.6666666666667</ele><time>2026-04-25T11:36:15.952Z</time></trkpt><trkpt lat="44.16489276580504" lon="11.334325257574992"><ele>850.3333333333334</ele><time>2026-04-25T11:36:16.952Z</time></trkpt><trkpt lat="44.16482845034491" lon="11.334238921236711"><ele>850.0</ele><time>2026-04-25T11:36:17.952Z</time></trkpt><trkpt lat="44.164774991783034" lon="11.334145015594077"><ele>849.6666666666667</ele><time>2026-04-25T11:36:18.952Z</time></trkpt><trkpt lat="44.16472436044751" lon="11.334049186538428"><ele>849.3333333333334</ele><time>2026-04-25T11:36:19.952Z</time></trkpt><trkpt lat="44.164664231111146" lon="11.33395319284475"><ele>849.0</ele><time>2026-04-25T11:36:20.952Z</time></trkpt><trkpt lat="44.16461697583635" lon="11.333827069595497"><ele>848.6</ele><time>2026-04-25T11:36:21.952Z</time></trkpt><trkpt lat="44.164582530706056" lon="11.333689848409955"><ele>848.2</ele><time>2026-04-25T11:36:22.952Z</time></trkpt><trkpt lat="44.16455657562229" lon="11.333551258196948"><ele>847.8000000000001</ele><time>2026-04-25T11:36:23.952Z</time></trkpt><trkpt lat="44.16453124914814" lon="11.333391606212434"><ele>847.4000000000001</ele><time>2026-04-25T11:36:24.952Z</time></trkpt><trkpt lat="44.16451070128287" lon="11.33322387916322"><ele>847.0</ele><time>2026-04-25T11:36:25.952Z</time></trkpt><trkpt lat="44.16447305317669" lon="11.333076357837996"><ele>848.5</ele><time>2026-04-25T11:36:26.952Z</time></trkpt><trkpt lat="44.164401796755264" lon="11.332940566263856"><ele>850.0</ele><time>2026-04-25T11:36:27.952Z</time></trkpt><trkpt lat="44.164293438437234" lon="11.332813656137981"><ele>851.5</ele><time>2026-04-25T11:36:28.952Z</time></trkpt><trkpt lat="44.16417758798756" lon="11.332711659888021"><ele>853.0</ele><time>2026-04-25T11:36:29.952Z</time></trkpt><trkpt lat="44.164098272350486" lon="11.33255432199894"><ele>852.5</ele><time>2026-04-25T11:36:30.952Z</time></trkpt><trkpt lat="44.164019536340845" lon="11.332405031549433"><ele>852.0</ele><time>2026-04-25T11:36:31.952Z</time></trkpt><trkpt lat="44.16392663320478" lon="11.33226607522744"><ele>851.5</ele><time>2026-04-25T11:36:32.952Z</time></trkpt><trkpt lat="44.163847776335295" lon="11.332114573151351"><ele>851.0</ele><time>2026-04-25T11:36:33.952Z</time></trkpt><trkpt lat="44.16375965793396" lon="11.331954253694025"><ele>851.0</ele><time>2026-04-25T11:36:34.952Z</time></trkpt><trkpt lat="44.163633260557525" lon="11.331842623191863"><ele>851.0</ele><time>2026-04-25T11:36:35.952Z</time></trkpt><trkpt lat="44.163503105167955" lon="11.331734393686908"><ele>851.0</ele><time>2026-04-25T11:36:36.952Z</time></trkpt><trkpt lat="44.16337932339468" lon="11.331647297239018"><ele>851.0</ele><time>2026-04-25T11:36:37.952Z</time></trkpt><trkpt lat="44.1632665257698" lon="11.331558426271101"><ele>850.4</ele><time>2026-04-25T11:36:38.952Z</time></trkpt><trkpt lat="44.163162013270394" lon="11.331480194728996"><ele>849.8</ele><time>2026-04-25T11:36:39.952Z</time></trkpt><trkpt lat="44.16306414375223" lon="11.33140240901536"><ele>849.1999999999999</ele><time>2026-04-25T11:36:40.952Z</time></trkpt><trkpt lat="44.16297483769609" lon="11.331329095324952"><ele>848.5999999999999</ele><time>2026-04-25T11:36:41.952Z</time></trkpt><trkpt lat="44.16289072321114" lon="11.331241571967961"><ele>848.0</ele><time>2026-04-25T11:36:42.952Z</time></trkpt><trkpt lat="44.162844643223906" lon="11.33113481637918"><ele>849.2</ele><time>2026-04-25T11:36:43.952Z</time></trkpt><trkpt lat="44.162819051564036" lon="11.331016540194701"><ele>850.4</ele><time>2026-04-25T11:36:44.952Z</time></trkpt><trkpt lat="44.16283528803481" lon="11.330888146362714"><ele>851.6000000000001</ele><time>2026-04-25T11:36:45.952Z</time></trkpt><trkpt lat="44.162848765911754" lon="11.330759858176203"><ele>852.8000000000001</ele><time>2026-04-25T11:36:46.952Z</time></trkpt><trkpt lat="44.16287040398925" lon="11.330618547226928"><ele>854.0</ele><time>2026-04-25T11:36:47.952Z</time></trkpt><trkpt lat="44.162884938037756" lon="11.330458015356667"><ele>856.75</ele><time>2026-04-25T11:36:48.952Z</time></trkpt><trkpt lat="44.162872372550424" lon="11.330306375795256"><ele>859.5</ele><time>2026-04-25T11:36:49.953Z</time></trkpt><trkpt lat="44.16285411265774" lon="11.330140635071718"><ele>862.25</ele><time>2026-04-25T11:36:50.953Z</time></trkpt><trkpt lat="44.16277031873342" lon="11.3300009355624"><ele>865.0</ele><time>2026-04-25T11:36:51.953Z</time></trkpt><trkpt lat="44.16269563904028" lon="11.3298709261113"><ele>865.0</ele><time>2026-04-25T11:36:52.953Z</time></trkpt><trkpt lat="44.16260521431973" lon="11.329751362733356"><ele>865.0</ele><time>2026-04-25T11:36:53.953Z</time></trkpt><trkpt lat="44.162487194267705" lon="11.329698973476752"><ele>865.0</ele><time>2026-04-25T11:36:54.953Z</time></trkpt><trkpt lat="44.16236346124271" lon="11.329669608219445"><ele>865.0</ele><time>2026-04-25T11:36:55.953Z</time></trkpt><trkpt lat="44.16222393446988" lon="11.329655807837542"><ele>869.0</ele><time>2026-04-25T11:36:56.953Z</time></trkpt><trkpt lat="44.16210406615853" lon="11.329671434831946"><ele>873.0</ele><time>2026-04-25T11:36:57.953Z</time></trkpt><trkpt lat="44.162004154573815" lon="11.329633566304052"><ele>877.0</ele><time>2026-04-25T11:36:58.953Z</time></trkpt><trkpt lat="44.161893907909956" lon="11.329601161949837"><ele>881.0</ele><time>2026-04-25T11:36:59.953Z</time></trkpt><trkpt lat="44.16176632814143" lon="11.329540322002556"><ele>881.0</ele><time>2026-04-25T11:37:00.953Z</time></trkpt><trkpt lat="44.161657437415414" lon="11.329476895745042"><ele>881.0</ele><time>2026-04-25T11:37:01.953Z</time></trkpt><trkpt lat="44.161554084442194" lon="11.329396764343828"><ele>881.0</ele><time>2026-04-25T11:37:02.953Z</time></trkpt><trkpt lat="44.16146774333668" lon="11.3293039972525"><ele>881.0</ele><time>2026-04-25T11:37:03.953Z</time></trkpt><trkpt lat="44.16140355327901" lon="11.329188642010829"><ele>881.25</ele><time>2026-04-25T11:37:04.953Z</time></trkpt><trkpt lat="44.16135993729162" lon="11.329057539027742"><ele>881.5</ele><time>2026-04-25T11:37:05.953Z</time></trkpt><trkpt lat="44.161307395646446" lon="11.328880891991844"><ele>881.75</ele><time>2026-04-25T11:37:06.953Z</time></trkpt><trkpt lat="44.16127870093134" lon="11.32868210198763"><ele>882.0</ele><time>2026-04-25T11:37:07.953Z</time></trkpt><trkpt lat="44.16124687022448" lon="11.328464683838355"><ele>882.0</ele><time>2026-04-25T11:37:08.953Z</time></trkpt><trkpt lat="44.16122863647203" lon="11.32824418230499"><ele>882.0</ele><time>2026-04-25T11:37:09.953Z</time></trkpt><trkpt lat="44.161193288727375" lon="11.328049665054962"><ele>882.0</ele><time>2026-04-25T11:37:10.953Z</time></trkpt><trkpt lat="44.161151435302614" lon="11.327863465079286"><ele>882.0</ele><time>2026-04-25T11:37:11.953Z</time></trkpt><trkpt lat="44.16110307104064" lon="11.327677765805985"><ele>882.25</ele><time>2026-04-25T11:37:12.953Z</time></trkpt><trkpt lat="44.161044772676426" lon="11.327494319731441"><ele>882.5</ele><time>2026-04-25T11:37:13.952Z</time></trkpt><trkpt lat="44.16098006549556" lon="11.327319130515018"><ele>882.75</ele><time>2026-04-25T11:37:14.952Z</time></trkpt><trkpt lat="44.160905276810375" lon="11.327147146740908"><ele>883.0</ele><time>2026-04-25T11:37:15.952Z</time></trkpt><trkpt lat="44.16081104186306" lon="11.32697903949052"><ele>882.75</ele><time>2026-04-25T11:37:16.952Z</time></trkpt><trkpt lat="44.16073331692004" lon="11.32680481209877"><ele>882.5</ele><time>2026-04-25T11:37:17.952Z</time></trkpt><trkpt lat="44.16066371667087" lon="11.326624101935797"><ele>882.25</ele><time>2026-04-25T11:37:18.952Z</time></trkpt><trkpt lat="44.16059461598259" lon="11.326436804671768"><ele>882.0</ele><time>2026-04-25T11:37:19.952Z</time></trkpt><trkpt lat="44.160539212123254" lon="11.326262497941464"><ele>882.0</ele><time>2026-04-25T11:37:20.952Z</time></trkpt><trkpt lat="44.16046948005241" lon="11.326075459735227"><ele>882.0</ele><time>2026-04-25T11:37:21.952Z</time></trkpt><trkpt lat="44.16040348062691" lon="11.325869489012852"><ele>882.0</ele><time>2026-04-25T11:37:22.952Z</time></trkpt><trkpt lat="44.16033594617733" lon="11.325663354669336"><ele>884.6666666666667</ele><time>2026-04-25T11:37:23.952Z</time></trkpt><trkpt lat="44.16027617585206" lon="11.32544891017771"><ele>887.3333333333334</ele><time>2026-04-25T11:37:24.952Z</time></trkpt><trkpt lat="44.160203487575316" lon="11.325228844057154"><ele>890.0</ele><time>2026-04-25T11:37:25.952Z</time></trkpt><trkpt lat="44.16014287444953" lon="11.325026137748917"><ele>890.0</ele><time>2026-04-25T11:37:26.952Z</time></trkpt><trkpt lat="44.1600947573582" lon="11.32482589770699"><ele>890.0</ele><time>2026-04-25T11:37:27.952Z</time></trkpt><trkpt lat="44.160040886994295" lon="11.324641997511751"><ele>890.0</ele><time>2026-04-25T11:37:28.952Z</time></trkpt><trkpt lat="44.15999632429742" lon="11.32444879811262"><ele>890.0</ele><time>2026-04-25T11:37:29.952Z</time></trkpt><trkpt lat="44.15994684032976" lon="11.324262645479722"><ele>890.25</ele><time>2026-04-25T11:37:30.952Z</time></trkpt><trkpt lat="44.15988802543311" lon="11.32409324009485"><ele>890.5</ele><time>2026-04-25T11:37:31.952Z</time></trkpt><trkpt lat="44.159807170158665" lon="11.323941748790395"><ele>890.75</ele><time>2026-04-25T11:37:32.952Z</time></trkpt><trkpt lat="44.15970130018331" lon="11.323819400627512"><ele>891.0</ele><time>2026-04-25T11:37:33.952Z</time></trkpt><trkpt lat="44.159582758854604" lon="11.323714080885704"><ele>893.0</ele><time>2026-04-25T11:37:34.952Z</time></trkpt><trkpt lat="44.15945452335174" lon="11.323622930903134"><ele>895.0</ele><time>2026-04-25T11:37:35.952Z</time></trkpt><trkpt lat="44.15933019878209" lon="11.323543692879978"><ele>897.0</ele><time>2026-04-25T11:37:36.952Z</time></trkpt><trkpt lat="44.15920942372042" lon="11.323462637849703"><ele>899.0</ele><time>2026-04-25T11:37:37.952Z</time></trkpt><trkpt lat="44.15908800087828" lon="11.323383043179636"><ele>898.25</ele><time>2026-04-25T11:37:38.952Z</time></trkpt><trkpt lat="44.15897233379251" lon="11.323274185838343"><ele>897.5</ele><time>2026-04-25T11:37:39.953Z</time></trkpt><trkpt lat="44.15886707130763" lon="11.323144034644402"><ele>896.75</ele><time>2026-04-25T11:37:40.953Z</time></trkpt><trkpt lat="44.15876473719117" lon="11.323006048567704"><ele>896.0</ele><time>2026-04-25T11:37:41.953Z</time></trkpt><trkpt lat="44.15864492610771" lon="11.322887562586091"><ele>898.25</ele><time>2026-04-25T11:37:42.953Z</time></trkpt><trkpt lat="44.15851690377573" lon="11.322791101469084"><ele>900.5</ele><time>2026-04-25T11:37:43.953Z</time></trkpt><trkpt lat="44.158380191414665" lon="11.322708110327095"><ele>902.75</ele><time>2026-04-25T11:37:44.953Z</time></trkpt><trkpt lat="44.15824778060901" lon="11.32263331117801"><ele>905.0</ele><time>2026-04-25T11:37:45.953Z</time></trkpt><trkpt lat="44.158095283073195" lon="11.322628880325878"><ele>905.3333333333334</ele><time>2026-04-25T11:37:46.953Z</time></trkpt><trkpt lat="44.157950556061365" lon="11.322680891971661"><ele>905.6666666666667</ele><time>2026-04-25T11:37:47.953Z</time></trkpt><trkpt lat="44.157816729557425" lon="11.32277763531625"><ele>906.0</ele><time>2026-04-25T11:37:48.953Z</time></trkpt><trkpt lat="44.1576906797418" lon="11.322905005116409"><ele>906.0</ele><time>2026-04-25T11:37:49.953Z</time></trkpt><trkpt lat="44.15758827373361" lon="11.323027365359078"><ele>906.0</ele><time>2026-04-25T11:37:50.953Z</time></trkpt><trkpt lat="44.15750266064099" lon="11.323154153514983"><ele>906.0</ele><time>2026-04-25T11:37:51.953Z</time></trkpt><trkpt lat="44.1574029491623" lon="11.323246430265801"><ele>906.0</ele><time>2026-04-25T11:37:52.953Z</time></trkpt><trkpt lat="44.15728665638308" lon="11.32332085732023"><ele>904.75</ele><time>2026-04-25T11:37:53.953Z</time></trkpt><trkpt lat="44.15716361434838" lon="11.323378996845811"><ele>903.5</ele><time>2026-04-25T11:37:54.953Z</time></trkpt><trkpt lat="44.15703899479357" lon="11.32341711300774"><ele>902.25</ele><time>2026-04-25T11:37:55.953Z</time></trkpt><trkpt lat="44.15691143267486" lon="11.323416280441615"><ele>901.0</ele><time>2026-04-25T11:37:56.953Z</time></trkpt><trkpt lat="44.15677933732911" lon="11.323366949785607"><ele>901.0</ele><time>2026-04-25T11:37:57.953Z</time></trkpt><trkpt lat="44.156650915072234" lon="11.323298616187031"><ele>901.0</ele><time>2026-04-25T11:37:58.953Z</time></trkpt><trkpt lat="44.15651692645844" lon="11.323241365128306"><ele>901.0</ele><time>2026-04-25T11:37:59.953Z</time></trkpt><trkpt lat="44.156387335178096" lon="11.323179177491664"><ele>901.0</ele><time>2026-04-25T11:38:00.953Z</time></trkpt><trkpt lat="44.15625424666273" lon="11.323148383738248"><ele>900.5</ele><time>2026-04-25T11:38:01.953Z</time></trkpt><trkpt lat="44.15612464937639" lon="11.323156828487173"><ele>900.0</ele><time>2026-04-25T11:38:02.953Z</time></trkpt><trkpt lat="44.15599024039833" lon="11.323198957374519"><ele>899.5</ele><time>2026-04-25T11:38:03.953Z</time></trkpt><trkpt lat="44.155861798383846" lon="11.323281592843214"><ele>899.0</ele><time>2026-04-25T11:38:04.953Z</time></trkpt><trkpt lat="44.15574250909588" lon="11.323398221627698"><ele>898.0</ele><time>2026-04-25T11:38:05.953Z</time></trkpt><trkpt lat="44.155636280865295" lon="11.323541502455681"><ele>897.0</ele><time>2026-04-25T11:38:06.953Z</time></trkpt><trkpt lat="44.15553912413807" lon="11.323698511421187"><ele>896.0</ele><time>2026-04-25T11:38:07.953Z</time></trkpt><trkpt lat="44.155457747619224" lon="11.323862355758553"><ele>895.0</ele><time>2026-04-25T11:38:08.953Z</time></trkpt><trkpt lat="44.15536683796589" lon="11.324017740321676"><ele>895.0</ele><time>2026-04-25T11:38:09.953Z</time></trkpt><trkpt lat="44.155255959082496" lon="11.324151691443102"><ele>895.0</ele><time>2026-04-25T11:38:10.953Z</time></trkpt><trkpt lat="44.15514411796374" lon="11.324277276505155"><ele>895.0</ele><time>2026-04-25T11:38:11.953Z</time></trkpt><trkpt lat="44.15502464050696" lon="11.324387519263388"><ele>895.0</ele><time>2026-04-25T11:38:12.953Z</time></trkpt><trkpt lat="44.15492265016122" lon="11.324517806711437"><ele>894.0</ele><time>2026-04-25T11:38:13.953Z</time></trkpt><trkpt lat="44.154835515192694" lon="11.324653579196816"><ele>893.0</ele><time>2026-04-25T11:38:14.953Z</time></trkpt><trkpt lat="44.15476488738997" lon="11.324802047160887"><ele>892.0</ele><time>2026-04-25T11:38:15.953Z</time></trkpt><trkpt lat="44.154704454391414" lon="11.324937072049009"><ele>891.0</ele><time>2026-04-25T11:38:16.953Z</time></trkpt><trkpt lat="44.15464467937667" lon="11.325061649978098"><ele>891.0</ele><time>2026-04-25T11:38:17.953Z</time></trkpt><trkpt lat="44.1545676317904" lon="11.32515431938937"><ele>891.0</ele><time>2026-04-25T11:38:18.953Z</time></trkpt><trkpt lat="44.15447040215804" lon="11.325172722257442"><ele>891.0</ele><time>2026-04-25T11:38:19.953Z</time></trkpt><trkpt lat="44.154346669894295" lon="11.325165676406053"><ele>891.0</ele><time>2026-04-25T11:38:20.953Z</time></trkpt><trkpt lat="44.154210789090094" lon="11.32513759339352"><ele>891.0</ele><time>2026-04-25T11:38:21.953Z</time></trkpt><trkpt lat="44.15407676064292" lon="11.325088137564062"><ele>891.0</ele><time>2026-04-25T11:38:22.953Z</time></trkpt><trkpt lat="44.153943715565866" lon="11.325032210952692"><ele>891.0</ele><time>2026-04-25T11:38:23.953Z</time></trkpt><trkpt lat="44.15381824403472" lon="11.32495480075528"><ele>891.0</ele><time>2026-04-25T11:38:24.953Z</time></trkpt><trkpt lat="44.153705047783745" lon="11.324849890433493"><ele>892.25</ele><time>2026-04-25T11:38:25.953Z</time></trkpt><trkpt lat="44.15359253338707" lon="11.324746222295763"><ele>893.5</ele><time>2026-04-25T11:38:26.953Z</time></trkpt><trkpt lat="44.15348237301374" lon="11.32463968893169"><ele>894.75</ele><time>2026-04-25T11:38:27.953Z</time></trkpt><trkpt lat="44.153372729025115" lon="11.324555542271343"><ele>896.0</ele><time>2026-04-25T11:38:28.953Z</time></trkpt><trkpt lat="44.15325398106783" lon="11.324470681012407"><ele>898.0</ele><time>2026-04-25T11:38:29.953Z</time></trkpt><trkpt lat="44.1531172556173" lon="11.324411279002794"><ele>900.0</ele><time>2026-04-25T11:38:30.953Z</time></trkpt><trkpt lat="44.152989865072556" lon="11.324392533455164"><ele>902.0</ele><time>2026-04-25T11:38:31.953Z</time></trkpt><trkpt lat="44.152860090136315" lon="11.324426407855318"><ele>904.0</ele><time>2026-04-25T11:38:32.953Z</time></trkpt><trkpt lat="44.15273091136455" lon="11.324506490751059"><ele>904.0</ele><time>2026-04-25T11:38:33.953Z</time></trkpt><trkpt lat="44.15260778327008" lon="11.324611977618899"><ele>904.0</ele><time>2026-04-25T11:38:34.953Z</time></trkpt><trkpt lat="44.15248220985331" lon="11.32471860801787"><ele>904.0</ele><time>2026-04-25T11:38:35.953Z</time></trkpt><trkpt lat="44.15235132608189" lon="11.324834604363117"><ele>904.0</ele><time>2026-04-25T11:38:36.953Z</time></trkpt><trkpt lat="44.1522103291763" lon="11.324935554209269"><ele>902.3333333333333</ele><time>2026-04-25T11:38:37.953Z</time></trkpt><trkpt lat="44.15207063674635" lon="11.325053465439783"><ele>900.6666666666667</ele><time>2026-04-25T11:38:38.953Z</time></trkpt><trkpt lat="44.15193601045226" lon="11.325166561542735"><ele>899.0</ele><time>2026-04-25T11:38:39.953Z</time></trkpt><trkpt lat="44.151801275236636" lon="11.32528031647669"><ele>899.0</ele><time>2026-04-25T11:38:40.953Z</time></trkpt><trkpt lat="44.15167423546494" lon="11.325381598976632"><ele>899.0</ele><time>2026-04-25T11:38:41.953Z</time></trkpt><trkpt lat="44.151549354666166" lon="11.325479021698195"><ele>899.0</ele><time>2026-04-25T11:38:42.953Z</time></trkpt><trkpt lat="44.151429996671865" lon="11.325581993134875"><ele>899.0</ele><time>2026-04-25T11:38:43.953Z</time></trkpt><trkpt lat="44.15132067105638" lon="11.325665032778566"><ele>896.0</ele><time>2026-04-25T11:38:44.953Z</time></trkpt><trkpt lat="44.151209584596245" lon="11.32574728414707"><ele>893.0</ele><time>2026-04-25T11:38:45.953Z</time></trkpt><trkpt lat="44.15108413526188" lon="11.325799108497678"><ele>890.0</ele><time>2026-04-25T11:38:46.953Z</time></trkpt><trkpt lat="44.15095623133841" lon="11.32583867704543"><ele>887.0</ele><time>2026-04-25T11:38:47.953Z</time></trkpt><trkpt lat="44.15081740914461" lon="11.325870494304144"><ele>890.0</ele><time>2026-04-25T11:38:48.953Z</time></trkpt><trkpt lat="44.15067012554883" lon="11.325878407731778"><ele>893.0</ele><time>2026-04-25T11:38:49.953Z</time></trkpt><trkpt lat="44.150519075797945" lon="11.325874370659744"><ele>896.0</ele><time>2026-04-25T11:38:50.953Z</time></trkpt><trkpt lat="44.15036373067637" lon="11.325875971944736"><ele>896.0</ele><time>2026-04-25T11:38:51.953Z</time></trkpt><trkpt lat="44.1502130297483" lon="11.325865751268221"><ele>896.0</ele><time>2026-04-25T11:38:52.953Z</time></trkpt><trkpt lat="44.150068444632964" lon="11.325854040440072"><ele>896.0</ele><time>2026-04-25T11:38:53.953Z</time></trkpt><trkpt lat="44.14993321288448" lon="11.325829250007997"><ele>896.0</ele><time>2026-04-25T11:38:54.953Z</time></trkpt><trkpt lat="44.149803793923475" lon="11.325818735253714"><ele>899.0</ele><time>2026-04-25T11:38:55.953Z</time></trkpt><trkpt lat="44.14967986065261" lon="11.325836504976165"><ele>902.0</ele><time>2026-04-25T11:38:56.953Z</time></trkpt><trkpt lat="44.14955945509056" lon="11.325897871367076"><ele>905.0</ele><time>2026-04-25T11:38:57.953Z</time></trkpt><trkpt lat="44.14944535566485" lon="11.3259947653135"><ele>908.0</ele><time>2026-04-25T11:38:58.953Z</time></trkpt><trkpt lat="44.14932891914016" lon="11.326104218722254"><ele>908.0</ele><time>2026-04-25T11:38:59.953Z</time></trkpt><trkpt lat="44.14920761548333" lon="11.326220976399519"><ele>908.0</ele><time>2026-04-25T11:39:00.953Z</time></trkpt><trkpt lat="44.14908911442939" lon="11.326328282681835"><ele>908.0</ele><time>2026-04-25T11:39:01.953Z</time></trkpt><trkpt lat="44.14897553426876" lon="11.326433543415831"><ele>908.0</ele><time>2026-04-25T11:39:02.953Z</time></trkpt><trkpt lat="44.148868217874096" lon="11.326531925154855"><ele>907.25</ele><time>2026-04-25T11:39:03.953Z</time></trkpt><trkpt lat="44.14877557966183" lon="11.326642209704481"><ele>906.5</ele><time>2026-04-25T11:39:04.953Z</time></trkpt><trkpt lat="44.148694598850504" lon="11.326762565561653"><ele>905.75</ele><time>2026-04-25T11:39:05.953Z</time></trkpt><trkpt lat="44.14861091633514" lon="11.326890656172328"><ele>905.0</ele><time>2026-04-25T11:39:06.953Z</time></trkpt><trkpt lat="44.1485177790808" lon="11.327033176804441"><ele>905.0</ele><time>2026-04-25T11:39:07.953Z</time></trkpt><trkpt lat="44.148406238354966" lon="11.327148042151142"><ele>905.0</ele><time>2026-04-25T11:39:08.953Z</time></trkpt><trkpt lat="44.14829229081911" lon="11.327259420039777"><ele>905.0</ele><time>2026-04-25T11:39:09.953Z</time></trkpt><trkpt lat="44.148188801585604" lon="11.327368940930315"><ele>905.0</ele><time>2026-04-25T11:39:10.953Z</time></trkpt><trkpt lat="44.14807076813687" lon="11.327388346290626"><ele>904.4</ele><time>2026-04-25T11:39:11.953Z</time></trkpt><trkpt lat="44.14797243146978" lon="11.327393973954237"><ele>903.8</ele><time>2026-04-25T11:39:12.953Z</time></trkpt><trkpt lat="44.14787230938064" lon="11.327375713225914"><ele>903.2</ele><time>2026-04-25T11:39:13.953Z</time></trkpt><trkpt lat="44.14778220448317" lon="11.327316603573063"><ele>902.6</ele><time>2026-04-25T11:39:14.953Z</time></trkpt><trkpt lat="44.14768890203925" lon="11.327257734788006"><ele>902.0</ele><time>2026-04-25T11:39:15.953Z</time></trkpt><trkpt lat="44.147586887988815" lon="11.327195453501869"><ele>902.0</ele><time>2026-04-25T11:39:16.953Z</time></trkpt><trkpt lat="44.14746507777382" lon="11.327139322345351"><ele>902.0</ele><time>2026-04-25T11:39:17.953Z</time></trkpt><trkpt lat="44.14733536008387" lon="11.327111622327344"><ele>902.0</ele><time>2026-04-25T11:39:18.953Z</time></trkpt><trkpt lat="44.147201272670905" lon="11.327123109201157"><ele>902.0</ele><time>2026-04-25T11:39:19.952Z</time></trkpt><trkpt lat="44.147068336990976" lon="11.327137227613425"><ele>899.25</ele><time>2026-04-25T11:39:20.953Z</time></trkpt><trkpt lat="44.14694730368161" lon="11.32715436776474"><ele>896.5</ele><time>2026-04-25T11:39:21.953Z</time></trkpt><trkpt lat="44.146827615404234" lon="11.327169937465854"><ele>893.75</ele><time>2026-04-25T11:39:22.952Z</time></trkpt><trkpt lat="44.14670384151977" lon="11.327160218475914"><ele>891.0</ele><time>2026-04-25T11:39:23.953Z</time></trkpt><trkpt lat="44.146588588825104" lon="11.32710144599935"><ele>888.0</ele><time>2026-04-25T11:39:24.953Z</time></trkpt><trkpt lat="44.146457717035155" lon="11.32704510411362"><ele>885.0</ele><time>2026-04-25T11:39:25.952Z</time></trkpt><trkpt lat="44.14633939614194" lon="11.326962084645917"><ele>882.0</ele><time>2026-04-25T11:39:26.953Z</time></trkpt><trkpt lat="44.14621883843991" lon="11.326880431083843"><ele>879.0</ele><time>2026-04-25T11:39:27.953Z</time></trkpt><trkpt lat="44.146105540813686" lon="11.326802153405316"><ele>879.0</ele><time>2026-04-25T11:39:28.952Z</time></trkpt><trkpt lat="44.14598387950612" lon="11.326728540628931"><ele>879.0</ele><time>2026-04-25T11:39:29.953Z</time></trkpt><trkpt lat="44.145880165307275" lon="11.326612242554788"><ele>879.0</ele><time>2026-04-25T11:39:30.953Z</time></trkpt><trkpt lat="44.14575044337603" lon="11.32655574377631"><ele>879.0</ele><time>2026-04-25T11:39:31.953Z</time></trkpt><trkpt lat="44.14561908796924" lon="11.32653299813752"><ele>879.5</ele><time>2026-04-25T11:39:32.952Z</time></trkpt><trkpt lat="44.14547112760133" lon="11.326529732417564"><ele>880.0</ele><time>2026-04-25T11:39:33.952Z</time></trkpt><trkpt lat="44.14533314650666" lon="11.326560381864967"><ele>880.5</ele><time>2026-04-25T11:39:34.952Z</time></trkpt><trkpt lat="44.145197923650066" lon="11.326617695773258"><ele>881.0</ele><time>2026-04-25T11:39:35.952Z</time></trkpt><trkpt lat="44.145066483322466" lon="11.32669359161534"><ele>881.0</ele><time>2026-04-25T11:39:36.952Z</time></trkpt><trkpt lat="44.144953230109905" lon="11.326803695233982"><ele>881.0</ele><time>2026-04-25T11:39:37.952Z</time></trkpt><trkpt lat="44.14485922279483" lon="11.326951603196356"><ele>881.0</ele><time>2026-04-25T11:39:38.952Z</time></trkpt><trkpt lat="44.144784292345925" lon="11.32709834577422"><ele>881.0</ele><time>2026-04-25T11:39:39.952Z</time></trkpt><trkpt lat="44.14472331610753" lon="11.327243742595668"><ele>879.0</ele><time>2026-04-25T11:39:40.952Z</time></trkpt><trkpt lat="44.144654802009704" lon="11.327371828914279"><ele>876.9999999999999</ele><time>2026-04-25T11:39:41.952Z</time></trkpt><trkpt lat="44.1445727880811" lon="11.327465024486843"><ele>874.9999999999999</ele><time>2026-04-25T11:39:42.952Z</time></trkpt><trkpt lat="44.1444741886002" lon="11.32751187087724"><ele>873.0</ele><time>2026-04-25T11:39:43.952Z</time></trkpt><trkpt lat="44.14435026810518" lon="11.327517186640552"><ele>871.0</ele><time>2026-04-25T11:39:44.952Z</time></trkpt><trkpt lat="44.14423121565627" lon="11.327478101340207"><ele>871.0</ele><time>2026-04-25T11:39:45.952Z</time></trkpt><trkpt lat="44.14410383118039" lon="11.327408508572049"><ele>871.0</ele><time>2026-04-25T11:39:46.952Z</time></trkpt><trkpt lat="44.143963838389006" lon="11.327324969797276"><ele>871.0</ele><time>2026-04-25T11:39:47.952Z</time></trkpt><trkpt lat="44.143823531161026" lon="11.327248502624649"><ele>871.0</ele><time>2026-04-25T11:39:48.952Z</time></trkpt><trkpt lat="44.143687130120156" lon="11.327180825253063"><ele>874.3333333333333</ele><time>2026-04-25T11:39:49.952Z</time></trkpt><trkpt lat="44.143540270932185" lon="11.327144837607754"><ele>877.6666666666667</ele><time>2026-04-25T11:39:50.952Z</time></trkpt><trkpt lat="44.14339050282417" lon="11.32712398543044"><ele>881.0</ele><time>2026-04-25T11:39:51.952Z</time></trkpt><trkpt lat="44.14323643884589" lon="11.327129115088646"><ele>878.0</ele><time>2026-04-25T11:39:52.952Z</time></trkpt><trkpt lat="44.14308289792353" lon="11.327139246815163"><ele>875.0</ele><time>2026-04-25T11:39:53.952Z</time></trkpt><trkpt lat="44.142927166114724" lon="11.327159759979242"><ele>872.0</ele><time>2026-04-25T11:39:54.952Z</time></trkpt><trkpt lat="44.142764664971565" lon="11.327193637264331"><ele>872.0</ele><time>2026-04-25T11:39:55.952Z</time></trkpt><trkpt lat="44.14261107276676" lon="11.32722615296338"><ele>872.0</ele><time>2026-04-25T11:39:56.952Z</time></trkpt><trkpt lat="44.142471749963605" lon="11.327277499779662"><ele>872.0</ele><time>2026-04-25T11:39:57.952Z</time></trkpt><trkpt lat="44.14233569858525" lon="11.327357766716343"><ele>872.0</ele><time>2026-04-25T11:39:58.952Z</time></trkpt><trkpt lat="44.142204290059425" lon="11.32745897735644"><ele>869.6666666666667</ele><time>2026-04-25T11:39:59.952Z</time></trkpt><trkpt lat="44.142060662607584" lon="11.327571864954656"><ele>867.3333333333333</ele><time>2026-04-25T11:40:00.952Z</time></trkpt><trkpt lat="44.141925772707374" lon="11.327679462980269"><ele>865.0</ele><time>2026-04-25T11:40:01.952Z</time></trkpt><trkpt lat="44.141792021011625" lon="11.327791157094076"><ele>865.0</ele><time>2026-04-25T11:40:02.952Z</time></trkpt><trkpt lat="44.14165610426945" lon="11.32790180080363"><ele>865.0</ele><time>2026-04-25T11:40:03.952Z</time></trkpt><trkpt lat="44.14152658320567" lon="11.328000583066565"><ele>865.0</ele><time>2026-04-25T11:40:04.952Z</time></trkpt><trkpt lat="44.141397250401326" lon="11.328099936455423"><ele>863.5</ele><time>2026-04-25T11:40:05.952Z</time></trkpt><trkpt lat="44.14127411499508" lon="11.328201298198936"><ele>862.0</ele><time>2026-04-25T11:40:06.952Z</time></trkpt><trkpt lat="44.141155424293466" lon="11.32829149370629"><ele>860.5</ele><time>2026-04-25T11:40:07.952Z</time></trkpt><trkpt lat="44.141046768944605" lon="11.328379240632586"><ele>859.0</ele><time>2026-04-25T11:40:08.952Z</time></trkpt><trkpt lat="44.140951240950166" lon="11.328453305118302"><ele>858.9999999999999</ele><time>2026-04-25T11:40:09.952Z</time></trkpt><trkpt lat="44.14087334856496" lon="11.328515953196344"><ele>859.0</ele><time>2026-04-25T11:40:10.952Z</time></trkpt><trkpt lat="44.14079200974546" lon="11.328544836070078"><ele>859.0</ele><time>2026-04-25T11:40:11.952Z</time></trkpt><trkpt lat="44.14071272391169" lon="11.328541165627417"><ele>859.0</ele><time>2026-04-25T11:40:12.952Z</time></trkpt><trkpt lat="44.14064207638824" lon="11.328509707760906"><ele>858.9999999999999</ele><time>2026-04-25T11:40:13.952Z</time></trkpt><trkpt lat="44.14057271298414" lon="11.328415234873052"><ele>859.0</ele><time>2026-04-25T11:40:14.952Z</time></trkpt><trkpt lat="44.140527097958994" lon="11.32829468724335"><ele>856.0</ele><time>2026-04-25T11:40:15.952Z</time></trkpt><trkpt lat="44.140494884371485" lon="11.328146625151795"><ele>853.0000000000001</ele><time>2026-04-25T11:40:16.952Z</time></trkpt><trkpt lat="44.140480253830155" lon="11.32799347750927"><ele>850.0</ele><time>2026-04-25T11:40:17.952Z</time></trkpt><trkpt lat="44.14049134504883" lon="11.32784581828557"><ele>847.0</ele><time>2026-04-25T11:40:18.952Z</time></trkpt><trkpt lat="44.14052404477234" lon="11.327710362312176"><ele>844.0</ele><time>2026-04-25T11:40:19.952Z</time></trkpt><trkpt lat="44.14058134630476" lon="11.327586249453924"><ele>844.0</ele><time>2026-04-25T11:40:20.952Z</time></trkpt><trkpt lat="44.14066136515175" lon="11.327482448314829"><ele>844.0</ele><time>2026-04-25T11:40:21.952Z</time></trkpt><trkpt lat="44.140758763523735" lon="11.32739048971386"><ele>844.0</ele><time>2026-04-25T11:40:22.952Z</time></trkpt><trkpt lat="44.14086912252387" lon="11.327299189510573"><ele>844.0</ele><time>2026-04-25T11:40:23.952Z</time></trkpt><trkpt lat="44.140986761620184" lon="11.327205620199718"><ele>844.5</ele><time>2026-04-25T11:40:24.953Z</time></trkpt><trkpt lat="44.14108942141031" lon="11.327113032315937"><ele>845.0</ele><time>2026-04-25T11:40:25.953Z</time></trkpt><trkpt lat="44.14118555880079" lon="11.327022295530275"><ele>845.5</ele><time>2026-04-25T11:40:26.953Z</time></trkpt><trkpt lat="44.14126526210711" lon="11.326924520850364"><ele>846.0</ele><time>2026-04-25T11:40:27.953Z</time></trkpt><trkpt lat="44.14132244404812" lon="11.32679398038262"><ele>846.0</ele><time>2026-04-25T11:40:28.953Z</time></trkpt><trkpt lat="44.14132159578194" lon="11.326634343168823"><ele>846.0</ele><time>2026-04-25T11:40:29.953Z</time></trkpt><trkpt lat="44.14131550912064" lon="11.32647054722053"><ele>846.0</ele><time>2026-04-25T11:40:30.953Z</time></trkpt><trkpt lat="44.14128301165898" lon="11.326303452239692"><ele>846.0</ele><time>2026-04-25T11:40:31.953Z</time></trkpt><trkpt lat="44.1412292303285" lon="11.326112578160975"><ele>846.0</ele><time>2026-04-25T11:40:32.953Z</time></trkpt><trkpt lat="44.141177334721036" lon="11.32595053570172"><ele>846.0</ele><time>2026-04-25T11:40:33.953Z</time></trkpt><trkpt lat="44.14112660722471" lon="11.325787614787076"><ele>846.0</ele><time>2026-04-25T11:40:34.953Z</time></trkpt><trkpt lat="44.141090113686296" lon="11.325651648405271"><ele>846.0</ele><time>2026-04-25T11:40:35.953Z</time></trkpt><trkpt lat="44.141059119264256" lon="11.325513780146977"><ele>845.5999999999999</ele><time>2026-04-25T11:40:36.953Z</time></trkpt><trkpt lat="44.141048493789896" lon="11.325358516149093"><ele>845.2</ele><time>2026-04-25T11:40:37.953Z</time></trkpt><trkpt lat="44.141078862824244" lon="11.325224566817507"><ele>844.8</ele><time>2026-04-25T11:40:38.953Z</time></trkpt><trkpt lat="44.141113894302265" lon="11.325075182978862"><ele>844.4000000000001</ele><time>2026-04-25T11:40:39.953Z</time></trkpt><trkpt lat="44.14115638226703" lon="11.324926581017008"><ele>844.0</ele><time>2026-04-25T11:40:40.953Z</time></trkpt><trkpt lat="44.14119374774223" lon="11.324744353837033"><ele>843.25</ele><time>2026-04-25T11:40:41.953Z</time></trkpt><trkpt lat="44.14122741104586" lon="11.32455129420545"><ele>842.5</ele><time>2026-04-25T11:40:42.953Z</time></trkpt><trkpt lat="44.14125139761339" lon="11.324368677144657"><ele>841.75</ele><time>2026-04-25T11:40:43.953Z</time></trkpt><trkpt lat="44.14126305209942" lon="11.324175283112206"><ele>841.0</ele><time>2026-04-25T11:40:44.953Z</time></trkpt><trkpt lat="44.14126566229236" lon="11.323987870457465"><ele>841.0</ele><time>2026-04-25T11:40:45.953Z</time></trkpt><trkpt lat="44.14126390863959" lon="11.323808309166786"><ele>841.0</ele><time>2026-04-25T11:40:46.953Z</time></trkpt><trkpt lat="44.141250356920345" lon="11.323632708196843"><ele>841.0</ele><time>2026-04-25T11:40:47.953Z</time></trkpt><trkpt lat="44.14119361399266" lon="11.323451813984104"><ele>841.0</ele><time>2026-04-25T11:40:48.953Z</time></trkpt><trkpt lat="44.14112248188709" lon="11.323268840310755"><ele>841.0</ele><time>2026-04-25T11:40:49.953Z</time></trkpt><trkpt lat="44.14104938900172" lon="11.323086362467103"><ele>841.0</ele><time>2026-04-25T11:40:50.953Z</time></trkpt><trkpt lat="44.14098654997839" lon="11.322901480377174"><ele>841.0</ele><time>2026-04-25T11:40:51.953Z</time></trkpt><trkpt lat="44.14091757666943" lon="11.322714961721351"><ele>841.0</ele><time>2026-04-25T11:40:52.953Z</time></trkpt><trkpt lat="44.140847853657256" lon="11.322534475734395"><ele>840.25</ele><time>2026-04-25T11:40:53.953Z</time></trkpt><trkpt lat="44.140789173727796" lon="11.322354324436713"><ele>839.5</ele><time>2026-04-25T11:40:54.953Z</time></trkpt><trkpt lat="44.14072687438036" lon="11.322186221718294"><ele>838.75</ele><time>2026-04-25T11:40:55.953Z</time></trkpt><trkpt lat="44.1406660175532" lon="11.32203088779155"><ele>838.0</ele><time>2026-04-25T11:40:56.953Z</time></trkpt><trkpt lat="44.14060817802104" lon="11.321893334349854"><ele>838.0</ele><time>2026-04-25T11:40:57.953Z</time></trkpt><trkpt lat="44.140532653432764" lon="11.321788433967667"><ele>838.0</ele><time>2026-04-25T11:40:58.953Z</time></trkpt><trkpt lat="44.140431597852206" lon="11.321726270428956"><ele>838.0</ele><time>2026-04-25T11:40:59.953Z</time></trkpt><trkpt lat="44.140306440042366" lon="11.321692140475756"><ele>838.0</ele><time>2026-04-25T11:41:00.953Z</time></trkpt><trkpt lat="44.14018068698811" lon="11.321666863382891"><ele>838.0</ele><time>2026-04-25T11:41:01.953Z</time></trkpt><trkpt lat="44.14006097553538" lon="11.321641793447254"><ele>838.0</ele><time>2026-04-25T11:41:02.953Z</time></trkpt><trkpt lat="44.139944874013864" lon="11.321607919898984"><ele>838.0</ele><time>2026-04-25T11:41:03.953Z</time></trkpt><trkpt lat="44.139831337176126" lon="11.321540198414766"><ele>838.0</ele><time>2026-04-25T11:41:04.953Z</time></trkpt><trkpt lat="44.13973094441385" lon="11.32143596020384"><ele>836.0</ele><time>2026-04-25T11:41:05.953Z</time></trkpt><trkpt lat="44.13964230427956" lon="11.321293340396"><ele>834.0</ele><time>2026-04-25T11:41:06.953Z</time></trkpt><trkpt lat="44.13954862106671" lon="11.321152622956475"><ele>832.0</ele><time>2026-04-25T11:41:07.953Z</time></trkpt><trkpt lat="44.1394524679044" lon="11.321019319006199"><ele>830.0</ele><time>2026-04-25T11:41:08.953Z</time></trkpt><trkpt lat="44.13934972816547" lon="11.320885963288335"><ele>830.0</ele><time>2026-04-25T11:41:09.953Z</time></trkpt><trkpt lat="44.13924134929458" lon="11.320758465872728"><ele>830.0</ele><time>2026-04-25T11:41:10.953Z</time></trkpt><trkpt lat="44.13912544617739" lon="11.32064912182709"><ele>830.0</ele><time>2026-04-25T11:41:11.953Z</time></trkpt><trkpt lat="44.13901084015635" lon="11.320556409238291"><ele>830.0</ele><time>2026-04-25T11:41:12.953Z</time></trkpt><trkpt lat="44.138910640564596" lon="11.320460536648675"><ele>828.6</ele><time>2026-04-25T11:41:13.953Z</time></trkpt><trkpt lat="44.138828663908065" lon="11.32034152510424"><ele>827.2</ele><time>2026-04-25T11:41:14.953Z</time></trkpt><trkpt lat="44.13876506370612" lon="11.32022919248049"><ele>825.8</ele><time>2026-04-25T11:41:15.953Z</time></trkpt><trkpt lat="44.138736444610224" lon="11.320088574739474"><ele>824.4</ele><time>2026-04-25T11:41:16.953Z</time></trkpt><trkpt lat="44.1387325963078" lon="11.319942185631247"><ele>823.0</ele><time>2026-04-25T11:41:17.953Z</time></trkpt><trkpt lat="44.13875841291065" lon="11.319788971851096"><ele>821.75</ele><time>2026-04-25T11:41:18.953Z</time></trkpt><trkpt lat="44.13877766890743" lon="11.31961616765354"><ele>820.5</ele><time>2026-04-25T11:41:19.953Z</time></trkpt><trkpt lat="44.13879903976259" lon="11.31941238698207"><ele>819.25</ele><time>2026-04-25T11:41:20.953Z</time></trkpt><trkpt lat="44.138820718678055" lon="11.319192724985694"><ele>818.0</ele><time>2026-04-25T11:41:21.953Z</time></trkpt><trkpt lat="44.138828691827705" lon="11.318983029708452"><ele>818.0</ele><time>2026-04-25T11:41:22.953Z</time></trkpt><trkpt lat="44.13882929029501" lon="11.318770680839094"><ele>818.0</ele><time>2026-04-25T11:41:23.953Z</time></trkpt><trkpt lat="44.138825044551375" lon="11.318549046667908"><ele>818.0</ele><time>2026-04-25T11:41:24.953Z</time></trkpt><trkpt lat="44.13882474481738" lon="11.318326806767084"><ele>818.0</ele><time>2026-04-25T11:41:25.953Z</time></trkpt><trkpt lat="44.13884013919188" lon="11.318106256298123"><ele>818.0</ele><time>2026-04-25T11:41:26.953Z</time></trkpt><trkpt lat="44.138857833118216" lon="11.317888708482188"><ele>818.0</ele><time>2026-04-25T11:41:27.953Z</time></trkpt><trkpt lat="44.13885460116249" lon="11.317674978116644"><ele>819.0</ele><time>2026-04-25T11:41:28.953Z</time></trkpt><trkpt lat="44.1388239452945" lon="11.317471871588365"><ele>820.0</ele><time>2026-04-25T11:41:29.954Z</time></trkpt><trkpt lat="44.13876147183257" lon="11.317288211571997"><ele>821.0</ele><time>2026-04-25T11:41:30.954Z</time></trkpt><trkpt lat="44.138702624585484" lon="11.317095324672849"><ele>822.0</ele><time>2026-04-25T11:41:31.954Z</time></trkpt><trkpt lat="44.13864676649989" lon="11.316899944239735"><ele>824.5</ele><time>2026-04-25T11:41:32.954Z</time></trkpt><trkpt lat="44.1385955794527" lon="11.316708192958403"><ele>827.0</ele><time>2026-04-25T11:41:33.954Z</time></trkpt><trkpt lat="44.13854602980135" lon="11.316541217086968"><ele>829.5</ele><time>2026-04-25T11:41:34.953Z</time></trkpt><trkpt lat="44.1385002258075" lon="11.316355003507446"><ele>832.0</ele><time>2026-04-25T11:41:35.953Z</time></trkpt><trkpt lat="44.138477929347026" lon="11.316159770148415"><ele>832.6666666666666</ele><time>2026-04-25T11:41:36.953Z</time></trkpt><trkpt lat="44.13846362883862" lon="11.315957451784884"><ele>833.3333333333333</ele><time>2026-04-25T11:41:37.953Z</time></trkpt><trkpt lat="44.13844380897105" lon="11.315740798100906"><ele>834.0</ele><time>2026-04-25T11:41:38.953Z</time></trkpt><trkpt lat="44.13841559633862" lon="11.315523424595927"><ele>835.0</ele><time>2026-04-25T11:41:39.953Z</time></trkpt><trkpt lat="44.13840543753076" lon="11.31530324594664"><ele>836.0</ele><time>2026-04-25T11:41:40.953Z</time></trkpt><trkpt lat="44.13839047008531" lon="11.315073214788482"><ele>837.0</ele><time>2026-04-25T11:41:41.953Z</time></trkpt><trkpt lat="44.13838395710482" lon="11.314844090056253"><ele>836.6666666666667</ele><time>2026-04-25T11:41:42.953Z</time></trkpt><trkpt lat="44.13836869052861" lon="11.314619671415459"><ele>836.3333333333334</ele><time>2026-04-25T11:41:43.953Z</time></trkpt><trkpt lat="44.13836435867913" lon="11.314399119469627"><ele>836.0</ele><time>2026-04-25T11:41:44.953Z</time></trkpt><trkpt lat="44.13837573064364" lon="11.314198250970493"><ele>836.0</ele><time>2026-04-25T11:41:45.954Z</time></trkpt><trkpt lat="44.13839506053716" lon="11.313988990354652"><ele>836.0</ele><time>2026-04-25T11:41:46.954Z</time></trkpt><trkpt lat="44.13842170350752" lon="11.313786133244763"><ele>836.0</ele><time>2026-04-25T11:41:47.954Z</time></trkpt><trkpt lat="44.13845580062487" lon="11.313588021804007"><ele>836.0</ele><time>2026-04-25T11:41:48.954Z</time></trkpt><trkpt lat="44.13847302477782" lon="11.313400928928182"><ele>836.0</ele><time>2026-04-25T11:41:49.954Z</time></trkpt><trkpt lat="44.13849742313941" lon="11.313220329338902"><ele>836.0</ele><time>2026-04-25T11:41:50.954Z</time></trkpt><trkpt lat="44.138510504052874" lon="11.31303974972612"><ele>836.0</ele><time>2026-04-25T11:41:51.954Z</time></trkpt><trkpt lat="44.138502527377376" lon="11.312871457881739"><ele>836.0</ele><time>2026-04-25T11:41:52.954Z</time></trkpt><trkpt lat="44.13845615310164" lon="11.312715730762438"><ele>837.0</ele><time>2026-04-25T11:41:53.954Z</time></trkpt><trkpt lat="44.13838614876691" lon="11.312572358046419"><ele>838.0</ele><time>2026-04-25T11:41:54.954Z</time></trkpt><trkpt lat="44.13831048054535" lon="11.312445119769482"><ele>839.0</ele><time>2026-04-25T11:41:55.954Z</time></trkpt><trkpt lat="44.138237705075774" lon="11.31232974385937"><ele>840.0</ele><time>2026-04-25T11:41:56.954Z</time></trkpt><trkpt lat="44.138184217711" lon="11.312205158684352"><ele>841.8</ele><time>2026-04-25T11:41:57.954Z</time></trkpt><trkpt lat="44.13816384250952" lon="11.31208187076419"><ele>843.6</ele><time>2026-04-25T11:41:58.954Z</time></trkpt><trkpt lat="44.138177428706385" lon="11.311962869738643"><ele>845.4000000000001</ele><time>2026-04-25T11:41:59.954Z</time></trkpt><trkpt lat="44.138207030785225" lon="11.31184604296157"><ele>847.2</ele><time>2026-04-25T11:42:00.954Z</time></trkpt><trkpt lat="44.13824607420091" lon="11.31171607327636"><ele>849.0</ele><time>2026-04-25T11:42:01.954Z</time></trkpt><trkpt lat="44.13828490913543" lon="11.311575992074463"><ele>849.5</ele><time>2026-04-25T11:42:02.954Z</time></trkpt><trkpt lat="44.138314271341784" lon="11.31143040355646"><ele>850.0</ele><time>2026-04-25T11:42:03.954Z</time></trkpt><trkpt lat="44.13833421525652" lon="11.311278063096736"><ele>850.5</ele><time>2026-04-25T11:42:04.954Z</time></trkpt><trkpt lat="44.13832563621697" lon="11.311126597535562"><ele>851.0</ele><time>2026-04-25T11:42:05.954Z</time></trkpt><trkpt lat="44.13827681093909" lon="11.310965923774784"><ele>851.0</ele><time>2026-04-25T11:42:06.954Z</time></trkpt><trkpt lat="44.13821576851813" lon="11.310802265802083"><ele>851.0</ele><time>2026-04-25T11:42:07.954Z</time></trkpt><trkpt lat="44.138155713706915" lon="11.310628616332673"><ele>851.0</ele><time>2026-04-25T11:42:08.954Z</time></trkpt><trkpt lat="44.13809091863787" lon="11.3104397884391"><ele>851.0</ele><time>2026-04-25T11:42:09.954Z</time></trkpt><trkpt lat="44.13803824243336" lon="11.310236088122213"><ele>851.0</ele><time>2026-04-25T11:42:10.954Z</time></trkpt><trkpt lat="44.13799700929393" lon="11.310037183520432"><ele>851.0</ele><time>2026-04-25T11:42:11.954Z</time></trkpt><trkpt lat="44.1379625747102" lon="11.309857854745637"><ele>851.0</ele><time>2026-04-25T11:42:12.954Z</time></trkpt><trkpt lat="44.13792894202972" lon="11.309697279926914"><ele>851.0</ele><time>2026-04-25T11:42:13.954Z</time></trkpt><trkpt lat="44.13788957415588" lon="11.309524712694296"><ele>852.0</ele><time>2026-04-25T11:42:14.954Z</time></trkpt><trkpt lat="44.13786895920621" lon="11.309385703097341"><ele>853.0</ele><time>2026-04-25T11:42:15.954Z</time></trkpt><trkpt lat="44.13781852082813" lon="11.309246560698078"><ele>854.0</ele><time>2026-04-25T11:42:16.954Z</time></trkpt><trkpt lat="44.13774432389022" lon="11.309103329914983"><ele>855.0</ele><time>2026-04-25T11:42:17.954Z</time></trkpt><trkpt lat="44.13763445947546" lon="11.309014305830587"><ele>855.0</ele><time>2026-04-25T11:42:18.954Z</time></trkpt><trkpt lat="44.13750628360782" lon="11.308935023730943"><ele>855.0</ele><time>2026-04-25T11:42:19.954Z</time></trkpt><trkpt lat="44.13736817560875" lon="11.308831220582636"><ele>855.0</ele><time>2026-04-25T11:42:20.954Z</time></trkpt><trkpt lat="44.137230212439036" lon="11.308732386630322"><ele>856.0</ele><time>2026-04-25T11:42:21.954Z</time></trkpt><trkpt lat="44.1370982121224" lon="11.30864074561455"><ele>857.0</ele><time>2026-04-25T11:42:22.954Z</time></trkpt><trkpt lat="44.13696581004015" lon="11.308549006629036"><ele>858.0</ele><time>2026-04-25T11:42:23.954Z</time></trkpt><trkpt lat="44.1368347625574" lon="11.308481932007165"><ele>859.0</ele><time>2026-04-25T11:42:24.954Z</time></trkpt><trkpt lat="44.136744036034706" lon="11.308367789946631"><ele>859.0</ele><time>2026-04-25T11:42:25.954Z</time></trkpt><trkpt lat="44.13664590316483" lon="11.30826951595183"><ele>859.0</ele><time>2026-04-25T11:42:26.954Z</time></trkpt><trkpt lat="44.13656868631605" lon="11.308154335299747"><ele>859.0</ele><time>2026-04-25T11:42:27.954Z</time></trkpt><trkpt lat="44.136506758279765" lon="11.308021812660362"><ele>859.0</ele><time>2026-04-25T11:42:28.954Z</time></trkpt><trkpt lat="44.136445528901966" lon="11.307887842147945"><ele>858.25</ele><time>2026-04-25T11:42:29.954Z</time></trkpt><trkpt lat="44.13637712136901" lon="11.307747650708375"><ele>857.5</ele><time>2026-04-25T11:42:30.954Z</time></trkpt><trkpt lat="44.13631269537999" lon="11.307607567076742"><ele>856.75</ele><time>2026-04-25T11:42:31.954Z</time></trkpt><trkpt lat="44.13625759724127" lon="11.307441876319727"><ele>856.0</ele><time>2026-04-25T11:42:32.954Z</time></trkpt><trkpt lat="44.136216483389354" lon="11.30727173053667"><ele>857.75</ele><time>2026-04-25T11:42:33.954Z</time></trkpt><trkpt lat="44.136184602108536" lon="11.307087669790704"><ele>859.5</ele><time>2026-04-25T11:42:34.954Z</time></trkpt><trkpt lat="44.13612113902546" lon="11.306912830714737"><ele>861.25</ele><time>2026-04-25T11:42:35.954Z</time></trkpt><trkpt lat="44.13604007778306" lon="11.306752625991976"><ele>863.0</ele><time>2026-04-25T11:42:36.954Z</time></trkpt><trkpt lat="44.13595052741508" lon="11.306607035804516"><ele>863.0</ele><time>2026-04-25T11:42:37.954Z</time></trkpt><trkpt lat="44.13587421294826" lon="11.306486546085361"><ele>863.0</ele><time>2026-04-25T11:42:38.954Z</time></trkpt><trkpt lat="44.1357792035401" lon="11.306389218932622"><ele>863.0</ele><time>2026-04-25T11:42:39.954Z</time></trkpt><trkpt lat="44.13567570210574" lon="11.306297641227378"><ele>863.0</ele><time>2026-04-25T11:42:40.954Z</time></trkpt><trkpt lat="44.13553846252817" lon="11.306240871982087"><ele>868.0</ele><time>2026-04-25T11:42:41.954Z</time></trkpt><trkpt lat="44.13541293569054" lon="11.306207987370247"><ele>873.0</ele><time>2026-04-25T11:42:42.954Z</time></trkpt><trkpt lat="44.13528694737193" lon="11.306184839776469"><ele>878.0</ele><time>2026-04-25T11:42:43.954Z</time></trkpt><trkpt lat="44.135139821081204" lon="11.306145995768276"><ele>883.0</ele><time>2026-04-25T11:42:44.954Z</time></trkpt><trkpt lat="44.1349941604297" lon="11.306100825600875"><ele>880.0</ele><time>2026-04-25T11:42:45.954Z</time></trkpt><trkpt lat="44.13484967258579" lon="11.306090155233242"><ele>877.0</ele><time>2026-04-25T11:42:46.953Z</time></trkpt><trkpt lat="44.134722262395506" lon="11.306059575155091"><ele>874.0</ele><time>2026-04-25T11:42:47.953Z</time></trkpt><trkpt lat="44.13460272037011" lon="11.306009292395533"><ele>871.0</ele><time>2026-04-25T11:42:48.953Z</time></trkpt><trkpt lat="44.13448524815373" lon="11.305968079397662"><ele>871.0</ele><time>2026-04-25T11:42:49.953Z</time></trkpt><trkpt lat="44.134358753435706" lon="11.305908334308938"><ele>871.0</ele><time>2026-04-25T11:42:50.953Z</time></trkpt><trkpt lat="44.13423047742749" lon="11.305833278250704"><ele>871.0</ele><time>2026-04-25T11:42:51.953Z</time></trkpt><trkpt lat="44.13411573572242" lon="11.305760071162696"><ele>871.0</ele><time>2026-04-25T11:42:52.953Z</time></trkpt><trkpt lat="44.134036466178195" lon="11.305600907436503"><ele>874.4</ele><time>2026-04-25T11:42:53.953Z</time></trkpt><trkpt lat="44.13396303066382" lon="11.305498165951718"><ele>877.8</ele><time>2026-04-25T11:42:54.953Z</time></trkpt><trkpt lat="44.13390358920099" lon="11.305390005304739"><ele>881.1999999999999</ele><time>2026-04-25T11:42:55.953Z</time></trkpt><trkpt lat="44.13387694089381" lon="11.305241377120685"><ele>884.5999999999999</ele><time>2026-04-25T11:42:56.953Z</time></trkpt><trkpt lat="44.133877419995706" lon="11.305092866803967"><ele>888.0</ele><time>2026-04-25T11:42:57.953Z</time></trkpt><trkpt lat="44.13384481411365" lon="11.304951350743153"><ele>888.0</ele><time>2026-04-25T11:42:58.953Z</time></trkpt><trkpt lat="44.133805830299856" lon="11.30482288974428"><ele>888.0</ele><time>2026-04-25T11:42:59.953Z</time></trkpt><trkpt lat="44.13374999890799" lon="11.304738840801653"><ele>888.0</ele><time>2026-04-25T11:43:00.953Z</time></trkpt><trkpt lat="44.133672480661644" lon="11.304682858953683"><ele>888.0</ele><time>2026-04-25T11:43:01.953Z</time></trkpt><trkpt lat="44.133572425435084" lon="11.304673232390696"><ele>888.0</ele><time>2026-04-25T11:43:02.953Z</time></trkpt><trkpt lat="44.13347228575536" lon="11.304729105621128"><ele>888.0</ele><time>2026-04-25T11:43:03.953Z</time></trkpt><trkpt lat="44.13335417167743" lon="11.30479450487006"><ele>888.0</ele><time>2026-04-25T11:43:04.953Z</time></trkpt><trkpt lat="44.133250991775384" lon="11.304890061812849"><ele>888.0</ele><time>2026-04-25T11:43:05.953Z</time></trkpt><trkpt lat="44.13312676101251" lon="11.3049269282507"><ele>888.0</ele><time>2026-04-25T11:43:06.953Z</time></trkpt><trkpt lat="44.13299689134905" lon="11.30496944185984"><ele>890.3333333333333</ele><time>2026-04-25T11:43:07.953Z</time></trkpt><trkpt lat="44.13284096297384" lon="11.305007925411319"><ele>892.6666666666666</ele><time>2026-04-25T11:43:08.953Z</time></trkpt><trkpt lat="44.13268427238417" lon="11.305026809663039"><ele>895.0</ele><time>2026-04-25T11:43:09.953Z</time></trkpt><trkpt lat="44.132542892668745" lon="11.305040778727646"><ele>895.0</ele><time>2026-04-25T11:43:10.953Z</time></trkpt><trkpt lat="44.13241777158696" lon="11.305073484030896"><ele>895.0</ele><time>2026-04-25T11:43:11.953Z</time></trkpt><trkpt lat="44.13229197977845" lon="11.305022441357911"><ele>895.0</ele><time>2026-04-25T11:43:12.953Z</time></trkpt><trkpt lat="44.13217152652233" lon="11.304950351506527"><ele>895.0</ele><time>2026-04-25T11:43:13.953Z</time></trkpt><trkpt lat="44.132028367441436" lon="11.304876871822625"><ele>892.3333333333333</ele><time>2026-04-25T11:43:14.953Z</time></trkpt><trkpt lat="44.13189890015691" lon="11.304748317889278"><ele>889.6666666666667</ele><time>2026-04-25T11:43:15.953Z</time></trkpt><trkpt lat="44.13175317480974" lon="11.304615123304865"><ele>887.0</ele><time>2026-04-25T11:43:16.953Z</time></trkpt><trkpt lat="44.1316093981864" lon="11.304486619424193"><ele>892.0</ele><time>2026-04-25T11:43:17.953Z</time></trkpt><trkpt lat="44.13145607490474" lon="11.304397373432407"><ele>897.0</ele><time>2026-04-25T11:43:18.953Z</time></trkpt><trkpt lat="44.13128981292287" lon="11.304324490127257"><ele>902.0</ele><time>2026-04-25T11:43:19.953Z</time></trkpt><trkpt lat="44.13112919424414" lon="11.304268333362797"><ele>902.0</ele><time>2026-04-25T11:43:20.953Z</time></trkpt><trkpt lat="44.13095981452612" lon="11.304219475159728"><ele>902.0</ele><time>2026-04-25T11:43:21.953Z</time></trkpt><trkpt lat="44.13078047963673" lon="11.304167732933006"><ele>902.0</ele><time>2026-04-25T11:43:22.953Z</time></trkpt><trkpt lat="44.13059906187326" lon="11.304113567784823"><ele>900.0</ele><time>2026-04-25T11:43:23.953Z</time></trkpt><trkpt lat="44.1304186206435" lon="11.304078008872205"><ele>898.0</ele><time>2026-04-25T11:43:24.953Z</time></trkpt><trkpt lat="44.1302618650339" lon="11.303957333292074"><ele>896.0</ele><time>2026-04-25T11:43:25.953Z</time></trkpt><trkpt lat="44.13008638103356" lon="11.303871415130939"><ele>903.3333333333334</ele><time>2026-04-25T11:43:26.953Z</time></trkpt><trkpt lat="44.12991588099427" lon="11.303781562033416"><ele>910.6666666666667</ele><time>2026-04-25T11:43:27.953Z</time></trkpt><trkpt lat="44.12975469552167" lon="11.303716605573708"><ele>918.0</ele><time>2026-04-25T11:43:28.953Z</time></trkpt><trkpt lat="44.129609060683364" lon="11.30365659215062"><ele>918.0</ele><time>2026-04-25T11:43:29.953Z</time></trkpt><trkpt lat="44.129474109406885" lon="11.30363837365633"><ele>918.0</ele><time>2026-04-25T11:43:30.953Z</time></trkpt><trkpt lat="44.12935885473562" lon="11.303635268521369"><ele>918.0</ele><time>2026-04-25T11:43:31.954Z</time></trkpt><trkpt lat="44.12925995548079" lon="11.303626321353814"><ele>918.0</ele><time>2026-04-25T11:43:32.954Z</time></trkpt><trkpt lat="44.12916176124363" lon="11.303607605321263"><ele>918.0</ele><time>2026-04-25T11:43:33.954Z</time></trkpt><trkpt lat="44.12908343700236" lon="11.303530173854696"><ele>919.75</ele><time>2026-04-25T11:43:34.954Z</time></trkpt><trkpt lat="44.129022640241935" lon="11.303390742660083"><ele>921.5</ele><time>2026-04-25T11:43:35.954Z</time></trkpt><trkpt lat="44.12897540597095" lon="11.303243620048539"><ele>923.25</ele><time>2026-04-25T11:43:36.954Z</time></trkpt><trkpt lat="44.1289309351593" lon="11.303087918918832"><ele>925.0</ele><time>2026-04-25T11:43:37.954Z</time></trkpt><trkpt lat="44.1288623719613" lon="11.302930878840861"><ele>925.0</ele><time>2026-04-25T11:43:38.954Z</time></trkpt><trkpt lat="44.128764658527636" lon="11.302771245000164"><ele>925.0</ele><time>2026-04-25T11:43:39.954Z</time></trkpt><trkpt lat="44.12864750555564" lon="11.30263190354529"><ele>925.0</ele><time>2026-04-25T11:43:40.954Z</time></trkpt><trkpt lat="44.128517336323156" lon="11.302507213031179"><ele>925.0</ele><time>2026-04-25T11:43:41.954Z</time></trkpt><trkpt lat="44.12836816207555" lon="11.302419997903199"><ele>925.0</ele><time>2026-04-25T11:43:42.954Z</time></trkpt><trkpt lat="44.128242197344" lon="11.302294373970389"><ele>925.0</ele><time>2026-04-25T11:43:43.954Z</time></trkpt><trkpt lat="44.12809487779822" lon="11.302214115945274"><ele>926.25</ele><time>2026-04-25T11:43:44.954Z</time></trkpt><trkpt lat="44.12795696733325" lon="11.302131646346293"><ele>927.5</ele><time>2026-04-25T11:43:45.954Z</time></trkpt><trkpt lat="44.12782016237584" lon="11.30205342888639"><ele>928.75</ele><time>2026-04-25T11:43:46.954Z</time></trkpt><trkpt lat="44.1276853708354" lon="11.30196363981543"><ele>930.0</ele><time>2026-04-25T11:43:47.954Z</time></trkpt><trkpt lat="44.12755755471291" lon="11.301846395037348"><ele>930.0</ele><time>2026-04-25T11:43:48.954Z</time></trkpt><trkpt lat="44.12743757859454" lon="11.301698976548007"><ele>930.0</ele><time>2026-04-25T11:43:49.954Z</time></trkpt><trkpt lat="44.12733173271697" lon="11.301554957614988"><ele>930.0</ele><time>2026-04-25T11:43:50.954Z</time></trkpt><trkpt lat="44.127215110434236" lon="11.30141236962716"><ele>930.6666666666667</ele><time>2026-04-25T11:43:51.954Z</time></trkpt><trkpt lat="44.12708274259373" lon="11.301291936113076"><ele>931.3333333333334</ele><time>2026-04-25T11:43:52.954Z</time></trkpt><trkpt lat="44.12696714777224" lon="11.301167634264413"><ele>932.0</ele><time>2026-04-25T11:43:53.954Z</time></trkpt><trkpt lat="44.12684418778798" lon="11.301054361985186"><ele>932.0</ele><time>2026-04-25T11:43:54.954Z</time></trkpt><trkpt lat="44.12671254958971" lon="11.30094473644779"><ele>932.0</ele><time>2026-04-25T11:43:55.954Z</time></trkpt><trkpt lat="44.12658109164193" lon="11.30084914972677"><ele>932.0</ele><time>2026-04-25T11:43:56.954Z</time></trkpt><trkpt lat="44.126442767356956" lon="11.300751574862403"><ele>928.0</ele><time>2026-04-25T11:43:57.954Z</time></trkpt><trkpt lat="44.126286530168066" lon="11.30068564848819"><ele>924.0</ele><time>2026-04-25T11:43:58.954Z</time></trkpt><trkpt lat="44.12613264625573" lon="11.300645338704046"><ele>920.0</ele><time>2026-04-25T11:43:59.954Z</time></trkpt><trkpt lat="44.125964991797645" lon="11.300629335342068"><ele>920.0</ele><time>2026-04-25T11:44:00.954Z</time></trkpt><trkpt lat="44.12579495136374" lon="11.300616032230321"><ele>920.0</ele><time>2026-04-25T11:44:01.954Z</time></trkpt><trkpt lat="44.12563785443549" lon="11.300612023225955"><ele>920.0</ele><time>2026-04-25T11:44:02.954Z</time></trkpt><trkpt lat="44.12548156145826" lon="11.300581909132402"><ele>925.6666666666667</ele><time>2026-04-25T11:44:03.954Z</time></trkpt><trkpt lat="44.125319256445266" lon="11.300578298953043"><ele>931.3333333333333</ele><time>2026-04-25T11:44:04.954Z</time></trkpt><trkpt lat="44.125178738493936" lon="11.300547720125387"><ele>937.0</ele><time>2026-04-25T11:44:05.954Z</time></trkpt><trkpt lat="44.12503137302718" lon="11.30052480550691"><ele>935.6666666666666</ele><time>2026-04-25T11:44:06.954Z</time></trkpt><trkpt lat="44.124878115165984" lon="11.300531023567723"><ele>934.3333333333333</ele><time>2026-04-25T11:44:07.954Z</time></trkpt><trkpt lat="44.12471793441496" lon="11.300555708605524"><ele>933.0</ele><time>2026-04-25T11:44:08.954Z</time></trkpt><trkpt lat="44.12454914108432" lon="11.300602699226232"><ele>926.3333333333333</ele><time>2026-04-25T11:44:09.954Z</time></trkpt><trkpt lat="44.12440062963776" lon="11.30064218825824"><ele>919.6666666666666</ele><time>2026-04-25T11:44:10.954Z</time></trkpt><trkpt lat="44.12425516384645" lon="11.300703937443314"><ele>913.0</ele><time>2026-04-25T11:44:11.954Z</time></trkpt><trkpt lat="44.12411189087132" lon="11.300751220633686"><ele>913.3333333333333</ele><time>2026-04-25T11:44:12.954Z</time></trkpt><trkpt lat="44.123958656003786" lon="11.300812836475616"><ele>913.6666666666667</ele><time>2026-04-25T11:44:13.954Z</time></trkpt><trkpt lat="44.12379524334092" lon="11.300804540711876"><ele>914.0</ele><time>2026-04-25T11:44:14.954Z</time></trkpt><trkpt lat="44.123642892412896" lon="11.300779267598092"><ele>914.0</ele><time>2026-04-25T11:44:15.954Z</time></trkpt><trkpt lat="44.12349567643697" lon="11.300753611873136"><ele>914.0</ele><time>2026-04-25T11:44:16.954Z</time></trkpt><trkpt lat="44.12335061802783" lon="11.300726684752268"><ele>914.0</ele><time>2026-04-25T11:44:17.954Z</time></trkpt><trkpt lat="44.12320416707416" lon="11.300699278961508"><ele>914.0</ele><time>2026-04-25T11:44:18.954Z</time></trkpt><trkpt lat="44.123065172804715" lon="11.30067604160439"><ele>910.25</ele><time>2026-04-25T11:44:19.954Z</time></trkpt><trkpt lat="44.12294253054539" lon="11.300650005714783"><ele>906.5</ele><time>2026-04-25T11:44:20.954Z</time></trkpt><trkpt lat="44.1228443735837" lon="11.300551210308571"><ele>902.75</ele><time>2026-04-25T11:44:21.954Z</time></trkpt><trkpt lat="44.1227476795653" lon="11.30042742968907"><ele>899.0</ele><time>2026-04-25T11:44:22.954Z</time></trkpt><trkpt lat="44.12266347979391" lon="11.300238133849303"><ele>899.0</ele><time>2026-04-25T11:44:23.954Z</time></trkpt><trkpt lat="44.122587177622236" lon="11.30003036977431"><ele>899.0</ele><time>2026-04-25T11:44:24.954Z</time></trkpt><trkpt lat="44.122509271835106" lon="11.299822708647653"><ele>899.0</ele><time>2026-04-25T11:44:25.954Z</time></trkpt><trkpt lat="44.122426326108226" lon="11.299635095468679"><ele>893.6666666666667</ele><time>2026-04-25T11:44:26.954Z</time></trkpt><trkpt lat="44.12234748678958" lon="11.299444504094051"><ele>888.3333333333333</ele><time>2026-04-25T11:44:27.954Z</time></trkpt><trkpt lat="44.12226984531958" lon="11.299268868054963"><ele>883.0</ele><time>2026-04-25T11:44:28.954Z</time></trkpt><trkpt lat="44.12219358618296" lon="11.29908218498678"><ele>883.6666666666666</ele><time>2026-04-25T11:44:29.954Z</time></trkpt><trkpt lat="44.12213265478245" lon="11.298882689175931"><ele>884.3333333333333</ele><time>2026-04-25T11:44:30.954Z</time></trkpt><trkpt lat="44.1220514829506" lon="11.29870231767859"><ele>885.0</ele><time>2026-04-25T11:44:31.954Z</time></trkpt><trkpt lat="44.12200044758743" lon="11.298509186954792"><ele>885.0</ele><time>2026-04-25T11:44:32.954Z</time></trkpt><trkpt lat="44.12197686041836" lon="11.298303037528287"><ele>885.0</ele><time>2026-04-25T11:44:33.954Z</time></trkpt><trkpt lat="44.12197330616155" lon="11.298082148556807"><ele>885.0</ele><time>2026-04-25T11:44:34.954Z</time></trkpt><trkpt lat="44.12198227004086" lon="11.297867246007565"><ele>885.3333333333333</ele><time>2026-04-25T11:44:35.954Z</time></trkpt><trkpt lat="44.12199003169645" lon="11.297654856590729"><ele>885.6666666666666</ele><time>2026-04-25T11:44:36.954Z</time></trkpt><trkpt lat="44.12199644466222" lon="11.29744361851204"><ele>886.0</ele><time>2026-04-25T11:44:37.954Z</time></trkpt><trkpt lat="44.12200598315204" lon="11.297239184985319"><ele>885.25</ele><time>2026-04-25T11:44:38.954Z</time></trkpt><trkpt lat="44.122014127127734" lon="11.2970423536601"><ele>884.5</ele><time>2026-04-25T11:44:39.954Z</time></trkpt><trkpt lat="44.122029960561164" lon="11.296859246838224"><ele>883.75</ele><time>2026-04-25T11:44:40.954Z</time></trkpt><trkpt lat="44.122033170620874" lon="11.296682913717994"><ele>883.0</ele><time>2026-04-25T11:44:41.954Z</time></trkpt><trkpt lat="44.122038277153806" lon="11.296518671355539"><ele>883.5999999999999</ele><time>2026-04-25T11:44:42.954Z</time></trkpt><trkpt lat="44.122045043585075" lon="11.296376635841453"><ele>884.1999999999999</ele><time>2026-04-25T11:44:43.954Z</time></trkpt><trkpt lat="44.12203141444389" lon="11.296236885193277"><ele>884.8</ele><time>2026-04-25T11:44:44.954Z</time></trkpt><trkpt lat="44.12199527533631" lon="11.296098835562788"><ele>885.4</ele><time>2026-04-25T11:44:45.954Z</time></trkpt><trkpt lat="44.12190471177456" lon="11.295974530607038"><ele>886.0</ele><time>2026-04-25T11:44:46.954Z</time></trkpt><trkpt lat="44.12181036567624" lon="11.295866359716204"><ele>886.0</ele><time>2026-04-25T11:44:47.954Z</time></trkpt><trkpt lat="44.12169400969942" lon="11.295802468942481"><ele>886.0</ele><time>2026-04-25T11:44:48.954Z</time></trkpt><trkpt lat="44.1215885864485" lon="11.29571694184885"><ele>886.0</ele><time>2026-04-25T11:44:49.954Z</time></trkpt><trkpt lat="44.121486849425665" lon="11.295620203777672"><ele>886.0</ele><time>2026-04-25T11:44:50.954Z</time></trkpt><trkpt lat="44.1213964900503" lon="11.295478563015953"><ele>879.3333333333333</ele><time>2026-04-25T11:44:51.954Z</time></trkpt><trkpt lat="44.12130035914455" lon="11.295306636630814"><ele>872.6666666666667</ele><time>2026-04-25T11:44:52.954Z</time></trkpt><trkpt lat="44.121205693430845" lon="11.295133818870712"><ele>866.0</ele><time>2026-04-25T11:44:53.954Z</time></trkpt><trkpt lat="44.121113353826104" lon="11.29497718194998"><ele>866.0</ele><time>2026-04-25T11:44:54.954Z</time></trkpt><trkpt lat="44.121016814636555" lon="11.294826800919273"><ele>866.0</ele><time>2026-04-25T11:44:55.954Z</time></trkpt><trkpt lat="44.12093671804948" lon="11.294652325672303"><ele>866.0</ele><time>2026-04-25T11:44:56.954Z</time></trkpt><trkpt lat="44.12086046874315" lon="11.294459905875902"><ele>867.6666666666667</ele><time>2026-04-25T11:44:57.954Z</time></trkpt><trkpt lat="44.12079302896309" lon="11.294250987140334"><ele>869.3333333333333</ele><time>2026-04-25T11:44:58.954Z</time></trkpt><trkpt lat="44.12070990924533" lon="11.294054250859336"><ele>871.0</ele><time>2026-04-25T11:44:59.954Z</time></trkpt><trkpt lat="44.120609256326155" lon="11.29386346706075"><ele>867.6666666666666</ele><time>2026-04-25T11:45:00.954Z</time></trkpt><trkpt lat="44.12048145647046" lon="11.293694971929513"><ele>864.3333333333333</ele><time>2026-04-25T11:45:01.954Z</time></trkpt><trkpt lat="44.120350513679284" lon="11.293534649604648"><ele>861.0</ele><time>2026-04-25T11:45:02.954Z</time></trkpt><trkpt lat="44.12022163713773" lon="11.293391372582661"><ele>861.0</ele><time>2026-04-25T11:45:03.954Z</time></trkpt><trkpt lat="44.1201008937297" lon="11.29324348269805"><ele>861.0</ele><time>2026-04-25T11:45:04.954Z</time></trkpt><trkpt lat="44.119978337132586" lon="11.293091515835874"><ele>861.0</ele><time>2026-04-25T11:45:05.954Z</time></trkpt><trkpt lat="44.11985326706318" lon="11.292945371128955"><ele>860.75</ele><time>2026-04-25T11:45:06.954Z</time></trkpt><trkpt lat="44.1197368134637" lon="11.292811368225589"><ele>860.5</ele><time>2026-04-25T11:45:07.954Z</time></trkpt><trkpt lat="44.11962502423146" lon="11.292684193158856"><ele>860.25</ele><time>2026-04-25T11:45:08.954Z</time></trkpt><trkpt lat="44.11951827298367" lon="11.292545314305485"><ele>860.0</ele><time>2026-04-25T11:45:09.954Z</time></trkpt><trkpt lat="44.1194294635523" lon="11.29240054937171"><ele>860.5</ele><time>2026-04-25T11:45:10.954Z</time></trkpt><trkpt lat="44.11934895224943" lon="11.292234022103532"><ele>861.0</ele><time>2026-04-25T11:45:11.954Z</time></trkpt><trkpt lat="44.11929135327523" lon="11.29207406106229"><ele>861.5</ele><time>2026-04-25T11:45:12.954Z</time></trkpt><trkpt lat="44.11925471450104" lon="11.291895012652565"><ele>862.0</ele><time>2026-04-25T11:45:13.954Z</time></trkpt><trkpt lat="44.119230391930046" lon="11.291717541342022"><ele>862.0</ele><time>2026-04-25T11:45:14.954Z</time></trkpt><trkpt lat="44.11922028990321" lon="11.291531506818849"><ele>862.0</ele><time>2026-04-25T11:45:15.954Z</time></trkpt><trkpt lat="44.119218895012146" lon="11.291354059696816"><ele>862.0</ele><time>2026-04-25T11:45:16.954Z</time></trkpt><trkpt lat="44.11921735104438" lon="11.29116937444501"><ele>862.0</ele><time>2026-04-25T11:45:17.954Z</time></trkpt><trkpt lat="44.119211249990904" lon="11.290970491577399"><ele>862.6666666666666</ele><time>2026-04-25T11:45:18.954Z</time></trkpt><trkpt lat="44.11920603828921" lon="11.290751012092539"><ele>863.3333333333333</ele><time>2026-04-25T11:45:19.954Z</time></trkpt><trkpt lat="44.119201486053896" lon="11.290523240916066"><ele>864.0</ele><time>2026-04-25T11:45:20.954Z</time></trkpt><trkpt lat="44.11919664821077" lon="11.290294077438144"><ele>865.5</ele><time>2026-04-25T11:45:21.954Z</time></trkpt><trkpt lat="44.11919766406285" lon="11.29008610091077"><ele>867.0</ele><time>2026-04-25T11:45:22.954Z</time></trkpt><trkpt lat="44.11919652097679" lon="11.289883999345383"><ele>868.5</ele><time>2026-04-25T11:45:23.954Z</time></trkpt><trkpt lat="44.119166773689635" lon="11.289689070800234"><ele>870.0</ele><time>2026-04-25T11:45:24.954Z</time></trkpt><trkpt lat="44.1191153879816" lon="11.289507027875045"><ele>869.6666666666667</ele><time>2026-04-25T11:45:25.954Z</time></trkpt><trkpt lat="44.11900487921602" lon="11.289349197861677"><ele>869.3333333333334</ele><time>2026-04-25T11:45:26.954Z</time></trkpt><trkpt lat="44.11886321935216" lon="11.28923724780042"><ele>869.0</ele><time>2026-04-25T11:45:27.954Z</time></trkpt><trkpt lat="44.11870737052014" lon="11.289115092801472"><ele>869.0</ele><time>2026-04-25T11:45:28.954Z</time></trkpt><trkpt lat="44.118545934201194" lon="11.288956449373629"><ele>869.0</ele><time>2026-04-25T11:45:29.954Z</time></trkpt><trkpt lat="44.11838027382909" lon="11.2888093816557"><ele>869.0</ele><time>2026-04-25T11:45:30.954Z</time></trkpt><trkpt lat="44.11822949969277" lon="11.28867818198401"><ele>865.6666666666667</ele><time>2026-04-25T11:45:31.954Z</time></trkpt><trkpt lat="44.118092714387224" lon="11.288554297695306"><ele>862.3333333333333</ele><time>2026-04-25T11:45:32.954Z</time></trkpt><trkpt lat="44.117963027380426" lon="11.288436247338643"><ele>859.0</ele><time>2026-04-25T11:45:33.954Z</time></trkpt><trkpt lat="44.117839599715644" lon="11.28832130543167"><ele>859.0</ele><time>2026-04-25T11:45:34.954Z</time></trkpt><trkpt lat="44.11774422879525" lon="11.288173872902847"><ele>859.0</ele><time>2026-04-25T11:45:35.954Z</time></trkpt><trkpt lat="44.11767171591298" lon="11.287987547680942"><ele>859.0</ele><time>2026-04-25T11:45:36.954Z</time></trkpt><trkpt lat="44.117624469122106" lon="11.287785958839631"><ele>859.0</ele><time>2026-04-25T11:45:37.956Z</time></trkpt><trkpt lat="44.11759860490028" lon="11.287567535425891"><ele>859.25</ele><time>2026-04-25T11:45:38.956Z</time></trkpt><trkpt lat="44.117581187541504" lon="11.287365101066289"><ele>859.5</ele><time>2026-04-25T11:45:39.956Z</time></trkpt><trkpt lat="44.11755494269451" lon="11.28717250236773"><ele>859.75</ele><time>2026-04-25T11:45:40.956Z</time></trkpt><trkpt lat="44.117505580096896" lon="11.286999501345061"><ele>860.0</ele><time>2026-04-25T11:45:41.956Z</time></trkpt><trkpt lat="44.117444671889494" lon="11.286852268309799"><ele>864.5</ele><time>2026-04-25T11:45:42.956Z</time></trkpt><trkpt lat="44.117355413455705" lon="11.286731973753461"><ele>869.0</ele><time>2026-04-25T11:45:43.956Z</time></trkpt><trkpt lat="44.11725193315783" lon="11.286677593849499"><ele>873.5</ele><time>2026-04-25T11:45:44.955Z</time></trkpt><trkpt lat="44.11714272889706" lon="11.286655391974652"><ele>878.0</ele><time>2026-04-25T11:45:45.955Z</time></trkpt><trkpt lat="44.117030798512346" lon="11.286681199458377"><ele>878.0</ele><time>2026-04-25T11:45:46.956Z</time></trkpt><trkpt lat="44.11692559021536" lon="11.286766984363828"><ele>878.0</ele><time>2026-04-25T11:45:47.955Z</time></trkpt><trkpt lat="44.116840668638474" lon="11.286899093444317"><ele>878.0</ele><time>2026-04-25T11:45:48.955Z</time></trkpt><trkpt lat="44.116766261426626" lon="11.287055681511328"><ele>878.0</ele><time>2026-04-25T11:45:49.956Z</time></trkpt><trkpt lat="44.11671294916868" lon="11.28725083036131"><ele>874.3333333333334</ele><time>2026-04-25T11:45:50.955Z</time></trkpt><trkpt lat="44.11665308948453" lon="11.287449529469159"><ele>870.6666666666667</ele><time>2026-04-25T11:45:51.955Z</time></trkpt><trkpt lat="44.116598466315395" lon="11.287644789526926"><ele>867.0</ele><time>2026-04-25T11:45:52.955Z</time></trkpt><trkpt lat="44.11653699145163" lon="11.28784238090091"><ele>867.0</ele><time>2026-04-25T11:45:53.955Z</time></trkpt><trkpt lat="44.116475763936016" lon="11.288021817897148"><ele>867.0</ele><time>2026-04-25T11:45:54.955Z</time></trkpt><trkpt lat="44.11640493398774" lon="11.288169904779195"><ele>867.0</ele><time>2026-04-25T11:45:55.955Z</time></trkpt><trkpt lat="44.11631792285645" lon="11.28827921572461"><ele>867.0</ele><time>2026-04-25T11:45:56.955Z</time></trkpt><trkpt lat="44.116221038730366" lon="11.288340352933037"><ele>865.75</ele><time>2026-04-25T11:45:57.955Z</time></trkpt><trkpt lat="44.11611568093404" lon="11.288357362813388"><ele>864.5</ele><time>2026-04-25T11:45:58.955Z</time></trkpt><trkpt lat="44.115997057059964" lon="11.288340303556774"><ele>863.25</ele><time>2026-04-25T11:45:59.955Z</time></trkpt><trkpt lat="44.115872594543774" lon="11.288282346194242"><ele>862.0</ele><time>2026-04-25T11:46:00.955Z</time></trkpt><trkpt lat="44.115759615375715" lon="11.28819417206056"><ele>860.25</ele><time>2026-04-25T11:46:01.955Z</time></trkpt><trkpt lat="44.11566927912798" lon="11.288083976943186"><ele>858.5</ele><time>2026-04-25T11:46:02.955Z</time></trkpt><trkpt lat="44.11560046337976" lon="11.287942856392025"><ele>856.75</ele><time>2026-04-25T11:46:03.955Z</time></trkpt><trkpt lat="44.115543956304194" lon="11.28777723027385"><ele>855.0</ele><time>2026-04-25T11:46:04.955Z</time></trkpt><trkpt lat="44.11548538434786" lon="11.28761641625159"><ele>855.0</ele><time>2026-04-25T11:46:05.955Z</time></trkpt><trkpt lat="44.11543705589451" lon="11.287433366646248"><ele>855.0</ele><time>2026-04-25T11:46:06.955Z</time></trkpt><trkpt lat="44.11538974732042" lon="11.287275833037638"><ele>855.0</ele><time>2026-04-25T11:46:07.955Z</time></trkpt><trkpt lat="44.11534317688207" lon="11.287093407611323"><ele>855.0</ele><time>2026-04-25T11:46:08.955Z</time></trkpt><trkpt lat="44.11526364344254" lon="11.286911127088498"><ele>856.0</ele><time>2026-04-25T11:46:09.955Z</time></trkpt><trkpt lat="44.115166314091425" lon="11.286751860088991"><ele>857.0</ele><time>2026-04-25T11:46:10.955Z</time></trkpt><trkpt lat="44.11503962379099" lon="11.286612901106507"><ele>858.0</ele><time>2026-04-25T11:46:11.955Z</time></trkpt><trkpt lat="44.114891069219304" lon="11.286518894910705"><ele>858.0</ele><time>2026-04-25T11:46:12.955Z</time></trkpt><trkpt lat="44.11473213761044" lon="11.286435568507349"><ele>858.0</ele><time>2026-04-25T11:46:13.955Z</time></trkpt><trkpt lat="44.114562577063055" lon="11.286373801276348"><ele>858.0</ele><time>2026-04-25T11:46:14.955Z</time></trkpt><trkpt lat="44.114369013566595" lon="11.286331013769713"><ele>859.3333333333333</ele><time>2026-04-25T11:46:15.955Z</time></trkpt><trkpt lat="44.11419943005" lon="11.28628112829385"><ele>860.6666666666666</ele><time>2026-04-25T11:46:16.955Z</time></trkpt><trkpt lat="44.11403540743446" lon="11.286234719985464"><ele>862.0</ele><time>2026-04-25T11:46:17.955Z</time></trkpt><trkpt lat="44.11388798049598" lon="11.286148947319733"><ele>858.3333333333333</ele><time>2026-04-25T11:46:18.955Z</time></trkpt><trkpt lat="44.11374448619012" lon="11.286029444276485"><ele>854.6666666666667</ele><time>2026-04-25T11:46:19.955Z</time></trkpt><trkpt lat="44.113591897541056" lon="11.285921991619777"><ele>851.0</ele><time>2026-04-25T11:46:20.955Z</time></trkpt><trkpt lat="44.113436300416495" lon="11.285830153093954"><ele>851.0</ele><time>2026-04-25T11:46:21.955Z</time></trkpt><trkpt lat="44.1132935941414" lon="11.285723471262791"><ele>851.0</ele><time>2026-04-25T11:46:22.955Z</time></trkpt><trkpt lat="44.113147431665986" lon="11.285617464589187"><ele>851.0</ele><time>2026-04-25T11:46:23.955Z</time></trkpt><trkpt lat="44.11299695793695" lon="11.28551486760639"><ele>852.3333333333334</ele><time>2026-04-25T11:46:24.955Z</time></trkpt><trkpt lat="44.11285210627391" lon="11.285412115318254"><ele>853.6666666666667</ele><time>2026-04-25T11:46:25.955Z</time></trkpt><trkpt lat="44.11270778251754" lon="11.285318582449118"><ele>855.0</ele><time>2026-04-25T11:46:26.955Z</time></trkpt><trkpt lat="44.11257166163012" lon="11.285221943215802"><ele>855.0</ele><time>2026-04-25T11:46:27.955Z</time></trkpt><trkpt lat="44.11243621007543" lon="11.285148957924486"><ele>855.0</ele><time>2026-04-25T11:46:28.955Z</time></trkpt><trkpt lat="44.112288099006726" lon="11.28511244695658"><ele>855.0</ele><time>2026-04-25T11:46:29.955Z</time></trkpt><trkpt lat="44.11214232997492" lon="11.285092342944687"><ele>855.0</ele><time>2026-04-25T11:46:30.955Z</time></trkpt><trkpt lat="44.11199946725976" lon="11.285075942544513"><ele>854.0</ele><time>2026-04-25T11:46:31.955Z</time></trkpt><trkpt lat="44.11173401261448" lon="11.285048334478306"><ele>853.0</ele><time>2026-04-25T11:46:33.955Z</time></trkpt><trkpt lat="44.11161714694151" lon="11.28500653312385"><ele>852.0</ele><time>2026-04-25T11:46:34.955Z</time></trkpt><trkpt lat="44.1114935579977" lon="11.284974319789352"><ele>852.25</ele><time>2026-04-25T11:46:35.955Z</time></trkpt><trkpt lat="44.111372310998696" lon="11.284920669746304"><ele>852.5</ele><time>2026-04-25T11:46:36.955Z</time></trkpt><trkpt lat="44.111251127888586" lon="11.284845788402382"><ele>852.75</ele><time>2026-04-25T11:46:37.955Z</time></trkpt><trkpt lat="44.11111859538453" lon="11.28475392897728"><ele>853.0</ele><time>2026-04-25T11:46:38.955Z</time></trkpt><trkpt lat="44.11098507222788" lon="11.284649457632964"><ele>853.0</ele><time>2026-04-25T11:46:39.955Z</time></trkpt><trkpt lat="44.11085165131598" lon="11.284537857093058"><ele>853.0</ele><time>2026-04-25T11:46:40.955Z</time></trkpt><trkpt lat="44.11071553972197" lon="11.284429638954391"><ele>853.0</ele><time>2026-04-25T11:46:41.955Z</time></trkpt><trkpt lat="44.11057315530157" lon="11.28431904093459"><ele>852.3333333333333</ele><time>2026-04-25T11:46:42.955Z</time></trkpt><trkpt lat="44.110428047007794" lon="11.284204552148307"><ele>851.6666666666667</ele><time>2026-04-25T11:46:43.955Z</time></trkpt><trkpt lat="44.11028189899579" lon="11.284090282325181"><ele>851.0</ele><time>2026-04-25T11:46:44.955Z</time></trkpt><trkpt lat="44.11013054671065" lon="11.283972870891093"><ele>854.0</ele><time>2026-04-25T11:46:45.955Z</time></trkpt><trkpt lat="44.10998545222002" lon="11.28385922089932"><ele>857.0</ele><time>2026-04-25T11:46:46.955Z</time></trkpt><trkpt lat="44.10984664036435" lon="11.283758753216931"><ele>860.0</ele><time>2026-04-25T11:46:47.955Z</time></trkpt><trkpt lat="44.10971688421856" lon="11.283671567046293"><ele>860.0</ele><time>2026-04-25T11:46:48.955Z</time></trkpt><trkpt lat="44.10958061315883" lon="11.283611123570706"><ele>860.0</ele><time>2026-04-25T11:46:49.955Z</time></trkpt><trkpt lat="44.10944295086163" lon="11.283564327869987"><ele>860.0</ele><time>2026-04-25T11:46:50.956Z</time></trkpt><trkpt lat="44.10929602979472" lon="11.283540009156672"><ele>860.0</ele><time>2026-04-25T11:46:51.956Z</time></trkpt><trkpt lat="44.109144896813326" lon="11.283495401403352"><ele>861.0</ele><time>2026-04-25T11:46:52.956Z</time></trkpt><trkpt lat="44.109007871617855" lon="11.283483219467994"><ele>862.0</ele><time>2026-04-25T11:46:53.956Z</time></trkpt><trkpt lat="44.10887709242902" lon="11.283463671710328"><ele>863.0</ele><time>2026-04-25T11:46:54.956Z</time></trkpt><trkpt lat="44.108734750047574" lon="11.283464870244668"><ele>864.0</ele><time>2026-04-25T11:46:55.956Z</time></trkpt><trkpt lat="44.10859854154451" lon="11.283504566073542"><ele>864.0</ele><time>2026-04-25T11:46:56.956Z</time></trkpt><trkpt lat="44.108450019176814" lon="11.283543570374485"><ele>864.0</ele><time>2026-04-25T11:46:57.956Z</time></trkpt><trkpt lat="44.10832728202859" lon="11.283640829851787"><ele>864.0</ele><time>2026-04-25T11:46:58.956Z</time></trkpt><trkpt lat="44.108188468498064" lon="11.283699679356115"><ele>864.0</ele><time>2026-04-25T11:46:59.956Z</time></trkpt><trkpt lat="44.108039326708436" lon="11.283751980090903"><ele>867.6666666666667</ele><time>2026-04-25T11:47:00.956Z</time></trkpt><trkpt lat="44.107881434545696" lon="11.283777870337628"><ele>871.3333333333334</ele><time>2026-04-25T11:47:01.956Z</time></trkpt><trkpt lat="44.10770472257521" lon="11.283780904415538"><ele>875.0</ele><time>2026-04-25T11:47:02.956Z</time></trkpt><trkpt lat="44.10752179505445" lon="11.283789756522488"><ele>875.0</ele><time>2026-04-25T11:47:03.956Z</time></trkpt><trkpt lat="44.1073456630032" lon="11.28379966657899"><ele>875.0</ele><time>2026-04-25T11:47:04.956Z</time></trkpt><trkpt lat="44.10718427905235" lon="11.283806859610243"><ele>875.0</ele><time>2026-04-25T11:47:05.956Z</time></trkpt><trkpt lat="44.107029774140074" lon="11.283828983591034"><ele>875.0</ele><time>2026-04-25T11:47:06.956Z</time></trkpt><trkpt lat="44.10687926781079" lon="11.283814203866129"><ele>875.0</ele><time>2026-04-25T11:47:07.956Z</time></trkpt><trkpt lat="44.106737889910605" lon="11.283742043954431"><ele>875.0</ele><time>2026-04-25T11:47:08.956Z</time></trkpt><trkpt lat="44.10659720944323" lon="11.28367114234829"><ele>873.0</ele><time>2026-04-25T11:47:09.956Z</time></trkpt><trkpt lat="44.10647935058418" lon="11.283565375712108"><ele>871.0</ele><time>2026-04-25T11:47:10.956Z</time></trkpt><trkpt lat="44.10635936628799" lon="11.283434874571752"><ele>869.0</ele><time>2026-04-25T11:47:11.956Z</time></trkpt><trkpt lat="44.10624552077685" lon="11.283265274734667"><ele>872.3333333333334</ele><time>2026-04-25T11:47:12.956Z</time></trkpt><trkpt lat="44.106137670920994" lon="11.283074186693064"><ele>875.6666666666667</ele><time>2026-04-25T11:47:13.956Z</time></trkpt><trkpt lat="44.10602622109972" lon="11.282875829337328"><ele>879.0</ele><time>2026-04-25T11:47:14.956Z</time></trkpt><trkpt lat="44.10590853974634" lon="11.282676868338065"><ele>879.0</ele><time>2026-04-25T11:47:15.956Z</time></trkpt><trkpt lat="44.10577063617447" lon="11.282461276600836"><ele>879.0</ele><time>2026-04-25T11:47:16.956Z</time></trkpt><trkpt lat="44.10562973219843" lon="11.282249831860613"><ele>879.0</ele><time>2026-04-25T11:47:17.956Z</time></trkpt><trkpt lat="44.105485070783956" lon="11.282039079232055"><ele>879.3333333333333</ele><time>2026-04-25T11:47:18.956Z</time></trkpt><trkpt lat="44.1053351660213" lon="11.281823981583157"><ele>879.6666666666666</ele><time>2026-04-25T11:47:19.956Z</time></trkpt><trkpt lat="44.10518105316969" lon="11.281634342492229"><ele>880.0</ele><time>2026-04-25T11:47:20.956Z</time></trkpt><trkpt lat="44.10505071396148" lon="11.28143987469602"><ele>879.3333333333333</ele><time>2026-04-25T11:47:21.956Z</time></trkpt><trkpt lat="44.104930187434256" lon="11.281252175817157"><ele>878.6666666666667</ele><time>2026-04-25T11:47:22.956Z</time></trkpt><trkpt lat="44.104802979462896" lon="11.281081360395312"><ele>878.0</ele><time>2026-04-25T11:47:23.956Z</time></trkpt><trkpt lat="44.10467078006217" lon="11.280911805752584"><ele>878.0</ele><time>2026-04-25T11:47:24.956Z</time></trkpt><trkpt lat="44.104536223345896" lon="11.280744104337796"><ele>878.0</ele><time>2026-04-25T11:47:25.956Z</time></trkpt><trkpt lat="44.10440448235164" lon="11.280576069496188"><ele>878.0</ele><time>2026-04-25T11:47:26.956Z</time></trkpt><trkpt lat="44.10426953769823" lon="11.28040377858866"><ele>876.3333333333334</ele><time>2026-04-25T11:47:27.956Z</time></trkpt><trkpt lat="44.104139926986555" lon="11.280239813211592"><ele>874.6666666666667</ele><time>2026-04-25T11:47:28.956Z</time></trkpt><trkpt lat="44.10400592373191" lon="11.280064657787563"><ele>873.0</ele><time>2026-04-25T11:47:29.956Z</time></trkpt><trkpt lat="44.10386961070009" lon="11.279886585413015"><ele>876.0</ele><time>2026-04-25T11:47:30.956Z</time></trkpt><trkpt lat="44.10373944663594" lon="11.2797062981184"><ele>879.0</ele><time>2026-04-25T11:47:31.956Z</time></trkpt><trkpt lat="44.10361024895495" lon="11.279519220290586"><ele>882.0</ele><time>2026-04-25T11:47:32.956Z</time></trkpt><trkpt lat="44.1034893363173" lon="11.279326212005024"><ele>882.0</ele><time>2026-04-25T11:47:33.956Z</time></trkpt><trkpt lat="44.10338332953095" lon="11.279119493936275"><ele>882.0</ele><time>2026-04-25T11:47:34.956Z</time></trkpt><trkpt lat="44.103250177772466" lon="11.278920796595212"><ele>882.0</ele><time>2026-04-25T11:47:35.956Z</time></trkpt><trkpt lat="44.10309734159152" lon="11.278752765040341"><ele>882.3333333333333</ele><time>2026-04-25T11:47:36.956Z</time></trkpt><trkpt lat="44.10294841174272" lon="11.278611027398135"><ele>882.6666666666666</ele><time>2026-04-25T11:47:37.956Z</time></trkpt><trkpt lat="44.10280913686675" lon="11.278482664358751"><ele>883.0</ele><time>2026-04-25T11:47:38.956Z</time></trkpt><trkpt lat="44.102677805394606" lon="11.278381876861971"><ele>883.0</ele><time>2026-04-25T11:47:39.956Z</time></trkpt><trkpt lat="44.10256047750284" lon="11.278252275366606"><ele>883.0</ele><time>2026-04-25T11:47:40.956Z</time></trkpt><trkpt lat="44.102445282397916" lon="11.278165359332855"><ele>883.0</ele><time>2026-04-25T11:47:41.956Z</time></trkpt><trkpt lat="44.10235277036672" lon="11.278048725159714"><ele>883.0</ele><time>2026-04-25T11:47:42.956Z</time></trkpt><trkpt lat="44.10229230172537" lon="11.277903514081498"><ele>884.0</ele><time>2026-04-25T11:47:43.957Z</time></trkpt><trkpt lat="44.102271548021164" lon="11.277719329906583"><ele>885.0</ele><time>2026-04-25T11:47:44.958Z</time></trkpt><trkpt lat="44.10226743793769" lon="11.277523744433644"><ele>886.0</ele><time>2026-04-25T11:47:45.958Z</time></trkpt><trkpt lat="44.10226795867251" lon="11.277309962269912"><ele>887.0</ele><time>2026-04-25T11:47:46.957Z</time></trkpt><trkpt lat="44.102236843582105" lon="11.277092481076103"><ele>887.0</ele><time>2026-04-25T11:47:47.957Z</time></trkpt><trkpt lat="44.10219637386729" lon="11.276874921768544"><ele>887.0</ele><time>2026-04-25T11:47:48.957Z</time></trkpt><trkpt lat="44.10213652541681" lon="11.276672940118951"><ele>887.0</ele><time>2026-04-25T11:47:49.957Z</time></trkpt><trkpt lat="44.1020727305992" lon="11.276500769644127"><ele>889.5</ele><time>2026-04-25T11:47:50.957Z</time></trkpt><trkpt lat="44.10201382415688" lon="11.276344171490015"><ele>892.0</ele><time>2026-04-25T11:47:51.957Z</time></trkpt><trkpt lat="44.10194317780516" lon="11.276211496319442"><ele>894.5</ele><time>2026-04-25T11:47:52.957Z</time></trkpt><trkpt lat="44.101857872302126" lon="11.276095163185378"><ele>897.0</ele><time>2026-04-25T11:47:53.957Z</time></trkpt><trkpt lat="44.10175736072104" lon="11.275995072395611"><ele>897.0</ele><time>2026-04-25T11:47:54.957Z</time></trkpt><trkpt lat="44.10164656364882" lon="11.275942567147204"><ele>897.0</ele><time>2026-04-25T11:47:55.957Z</time></trkpt><trkpt lat="44.101525747224336" lon="11.275957505203218"><ele>897.0</ele><time>2026-04-25T11:47:56.957Z</time></trkpt><trkpt lat="44.101391589828644" lon="11.276022081755556"><ele>897.0</ele><time>2026-04-25T11:47:57.957Z</time></trkpt><trkpt lat="44.10127162779744" lon="11.276074790031014"><ele>896.5</ele><time>2026-04-25T11:47:58.957Z</time></trkpt><trkpt lat="44.10116544521444" lon="11.276094764121057"><ele>896.0</ele><time>2026-04-25T11:47:59.957Z</time></trkpt><trkpt lat="44.10105332716268" lon="11.276064293270126"><ele>895.5</ele><time>2026-04-25T11:48:00.957Z</time></trkpt><trkpt lat="44.1009467105117" lon="11.276013392553997"><ele>895.0</ele><time>2026-04-25T11:48:01.957Z</time></trkpt><trkpt lat="44.100834457070306" lon="11.275947643842125"><ele>896.6666666666666</ele><time>2026-04-25T11:48:02.957Z</time></trkpt><trkpt lat="44.100705744586946" lon="11.275851122233622"><ele>898.3333333333333</ele><time>2026-04-25T11:48:03.957Z</time></trkpt><trkpt lat="44.10059690393345" lon="11.275716274348122"><ele>900.0</ele><time>2026-04-25T11:48:04.957Z</time></trkpt><trkpt lat="44.10049709197128" lon="11.275543715512834"><ele>900.0</ele><time>2026-04-25T11:48:05.957Z</time></trkpt><trkpt lat="44.10039428250952" lon="11.275402265507676"><ele>900.0</ele><time>2026-04-25T11:48:06.957Z</time></trkpt><trkpt lat="44.1002993344742" lon="11.275272669234301"><ele>900.0</ele><time>2026-04-25T11:48:07.957Z</time></trkpt><trkpt lat="44.10019977760982" lon="11.275168245445455"><ele>900.0</ele><time>2026-04-25T11:48:08.957Z</time></trkpt><trkpt lat="44.10008661893306" lon="11.275076902613916"><ele>900.0</ele><time>2026-04-25T11:48:09.957Z</time></trkpt><trkpt lat="44.099948621767865" lon="11.275040142810925"><ele>900.0</ele><time>2026-04-25T11:48:10.957Z</time></trkpt><trkpt lat="44.09980686807943" lon="11.275040330209686"><ele>900.0</ele><time>2026-04-25T11:48:11.957Z</time></trkpt><trkpt lat="44.099661265105" lon="11.27506748592187"><ele>900.0</ele><time>2026-04-25T11:48:12.957Z</time></trkpt><trkpt lat="44.09951524256247" lon="11.27508009899332"><ele>901.0</ele><time>2026-04-25T11:48:13.957Z</time></trkpt><trkpt lat="44.09936548852979" lon="11.275093828676939"><ele>902.0</ele><time>2026-04-25T11:48:14.957Z</time></trkpt><trkpt lat="44.09922164663598" lon="11.275079077750512"><ele>903.0</ele><time>2026-04-25T11:48:15.957Z</time></trkpt><trkpt lat="44.0990851565401" lon="11.275072329397904"><ele>904.0</ele><time>2026-04-25T11:48:16.957Z</time></trkpt><trkpt lat="44.09895431614101" lon="11.275048988600643"><ele>905.6</ele><time>2026-04-25T11:48:17.957Z</time></trkpt><trkpt lat="44.09883546028004" lon="11.275102373576354"><ele>907.2</ele><time>2026-04-25T11:48:18.957Z</time></trkpt><trkpt lat="44.09873618603835" lon="11.27515816160419"><ele>908.8000000000001</ele><time>2026-04-25T11:48:19.957Z</time></trkpt><trkpt lat="44.09863276735733" lon="11.275213632319462"><ele>910.4000000000001</ele><time>2026-04-25T11:48:20.957Z</time></trkpt><trkpt lat="44.09853157767346" lon="11.275246479911996"><ele>912.0</ele><time>2026-04-25T11:48:21.957Z</time></trkpt><trkpt lat="44.0984278486896" lon="11.275261255963736"><ele>912.0</ele><time>2026-04-25T11:48:22.957Z</time></trkpt><trkpt lat="44.0983090047752" lon="11.275238364038456"><ele>912.0</ele><time>2026-04-25T11:48:23.957Z</time></trkpt><trkpt lat="44.09818259076942" lon="11.275176834652061"><ele>912.0</ele><time>2026-04-25T11:48:24.957Z</time></trkpt><trkpt lat="44.09803703956691" lon="11.275122240183553"><ele>912.0</ele><time>2026-04-25T11:48:25.957Z</time></trkpt><trkpt lat="44.09787886193306" lon="11.275073485365809"><ele>912.6666666666667</ele><time>2026-04-25T11:48:26.957Z</time></trkpt><trkpt lat="44.09771241766016" lon="11.275018016410707"><ele>913.3333333333334</ele><time>2026-04-25T11:48:27.957Z</time></trkpt><trkpt lat="44.09753807986406" lon="11.274973672517092"><ele>914.0</ele><time>2026-04-25T11:48:28.957Z</time></trkpt><trkpt lat="44.09736566412329" lon="11.274949911926639"><ele>916.3333333333334</ele><time>2026-04-25T11:48:29.957Z</time></trkpt><trkpt lat="44.09720071805125" lon="11.274933619436705"><ele>918.6666666666667</ele><time>2026-04-25T11:48:30.957Z</time></trkpt><trkpt lat="44.097048982940954" lon="11.27495184386932"><ele>921.0</ele><time>2026-04-25T11:48:31.957Z</time></trkpt><trkpt lat="44.09691909071505" lon="11.275004304838419"><ele>921.0</ele><time>2026-04-25T11:48:32.957Z</time></trkpt><trkpt lat="44.09679204408544" lon="11.275080414244949"><ele>921.0</ele><time>2026-04-25T11:48:33.957Z</time></trkpt><trkpt lat="44.09666447623492" lon="11.275140192596934"><ele>921.0</ele><time>2026-04-25T11:48:34.957Z</time></trkpt><trkpt lat="44.096533518316825" lon="11.275185434922133"><ele>921.0</ele><time>2026-04-25T11:48:35.957Z</time></trkpt><trkpt lat="44.09640534823922" lon="11.275197837631923"><ele>920.5</ele><time>2026-04-25T11:48:36.957Z</time></trkpt><trkpt lat="44.09627563728675" lon="11.275237055742815"><ele>920.0</ele><time>2026-04-25T11:48:37.958Z</time></trkpt><trkpt lat="44.09615763262561" lon="11.275272561515205"><ele>919.5</ele><time>2026-04-25T11:48:38.958Z</time></trkpt><trkpt lat="44.09604321074864" lon="11.27529950751442"><ele>919.0</ele><time>2026-04-25T11:48:39.958Z</time></trkpt><trkpt lat="44.09592426137593" lon="11.275321276997783"><ele>919.0</ele><time>2026-04-25T11:48:40.958Z</time></trkpt><trkpt lat="44.095799819911576" lon="11.275332008603408"><ele>919.0</ele><time>2026-04-25T11:48:41.958Z</time></trkpt><trkpt lat="44.09566525205304" lon="11.275318797645761"><ele>919.0</ele><time>2026-04-25T11:48:42.958Z</time></trkpt><trkpt lat="44.09552815021178" lon="11.27529919720478"><ele>919.0</ele><time>2026-04-25T11:48:43.958Z</time></trkpt><trkpt lat="44.09539007809016" lon="11.275288371675769"><ele>918.0</ele><time>2026-04-25T11:48:44.958Z</time></trkpt><trkpt lat="44.09525001114491" lon="11.275288532929189"><ele>917.0</ele><time>2026-04-25T11:48:45.958Z</time></trkpt><trkpt lat="44.09512667871206" lon="11.27531533878391"><ele>916.0</ele><time>2026-04-25T11:48:46.958Z</time></trkpt><trkpt lat="44.095006518237405" lon="11.275368274446235"><ele>915.0</ele><time>2026-04-25T11:48:47.958Z</time></trkpt><trkpt lat="44.094888968603925" lon="11.275438275988696"><ele>913.0</ele><time>2026-04-25T11:48:48.958Z</time></trkpt><trkpt lat="44.09478571083691" lon="11.27551992087616"><ele>911.0</ele><time>2026-04-25T11:48:49.958Z</time></trkpt><trkpt lat="44.0947019735847" lon="11.27562825223331"><ele>909.0</ele><time>2026-04-25T11:48:50.958Z</time></trkpt><trkpt lat="44.09462881815264" lon="11.275739870427582"><ele>907.0</ele><time>2026-04-25T11:48:51.958Z</time></trkpt><trkpt lat="44.09456831895154" lon="11.275858256885819"><ele>905.0</ele><time>2026-04-25T11:48:52.958Z</time></trkpt><trkpt lat="44.09449876634096" lon="11.275966189037495"><ele>904.8</ele><time>2026-04-25T11:48:53.958Z</time></trkpt><trkpt lat="44.09444837865917" lon="11.27607529651628"><ele>904.6</ele><time>2026-04-25T11:48:54.958Z</time></trkpt><trkpt lat="44.094406017133636" lon="11.276170554546207"><ele>904.4000000000001</ele><time>2026-04-25T11:48:55.958Z</time></trkpt><trkpt lat="44.094364105332424" lon="11.276247145489672"><ele>904.2</ele><time>2026-04-25T11:48:56.958Z</time></trkpt><trkpt lat="44.09425115107709" lon="11.276296615230585"><ele>904.0</ele><time>2026-04-25T11:48:58.958Z</time></trkpt><trkpt lat="44.09414185678305" lon="11.276235084312273"><ele>903.9999999999999</ele><time>2026-04-25T11:49:00.958Z</time></trkpt><trkpt lat="44.09403475802168" lon="11.276296842054307"><ele>904.0</ele><time>2026-04-25T11:49:02.958Z</time></trkpt><trkpt lat="44.09399797008561" lon="11.276385605118476"><ele>904.0</ele><time>2026-04-25T11:49:03.958Z</time></trkpt><trkpt lat="44.093981342607194" lon="11.276486695484687"><ele>904.0</ele><time>2026-04-25T11:49:04.958Z</time></trkpt><trkpt lat="44.094010281787696" lon="11.276590984058243"><ele>903.9999999999999</ele><time>2026-04-25T11:49:05.958Z</time></trkpt><trkpt lat="44.09406429509267" lon="11.276703121959109"><ele>904.0</ele><time>2026-04-25T11:49:06.958Z</time></trkpt><trkpt lat="44.09410379356611" lon="11.276824646570908"><ele>904.0</ele><time>2026-04-25T11:49:07.958Z</time></trkpt><trkpt lat="44.094104838737" lon="11.276950333462537"><ele>904.0000000000001</ele><time>2026-04-25T11:49:08.958Z</time></trkpt><trkpt lat="44.094061727334356" lon="11.277068816179069"><ele>904.0000000000001</ele><time>2026-04-25T11:49:09.958Z</time></trkpt><trkpt lat="44.09400530376897" lon="11.277179065019133"><ele>904.0</ele><time>2026-04-25T11:49:10.958Z</time></trkpt><trkpt lat="44.0939586795053" lon="11.27731174359893"><ele>904.0</ele><time>2026-04-25T11:49:11.958Z</time></trkpt><trkpt lat="44.0938944879283" lon="11.277453978727628"><ele>902.25</ele><time>2026-04-25T11:49:12.958Z</time></trkpt><trkpt lat="44.0938327950384" lon="11.277601503789942"><ele>900.5</ele><time>2026-04-25T11:49:13.958Z</time></trkpt><trkpt lat="44.09376742435798" lon="11.27774465054221"><ele>898.75</ele><time>2026-04-25T11:49:14.958Z</time></trkpt><trkpt lat="44.09370296746905" lon="11.277880928891022"><ele>897.0</ele><time>2026-04-25T11:49:15.958Z</time></trkpt><trkpt lat="44.0936303285605" lon="11.277998078714539"><ele>898.25</ele><time>2026-04-25T11:49:16.958Z</time></trkpt><trkpt lat="44.09354303275478" lon="11.278103603001819"><ele>899.5</ele><time>2026-04-25T11:49:17.958Z</time></trkpt><trkpt lat="44.09343703611068" lon="11.278188199044612"><ele>900.75</ele><time>2026-04-25T11:49:18.958Z</time></trkpt><trkpt lat="44.09332116737387" lon="11.278260645097692"><ele>902.0</ele><time>2026-04-25T11:49:19.958Z</time></trkpt><trkpt lat="44.09319775494969" lon="11.278307249133205"><ele>899.25</ele><time>2026-04-25T11:49:20.958Z</time></trkpt><trkpt lat="44.09307100850618" lon="11.278337233017897"><ele>896.5</ele><time>2026-04-25T11:49:21.958Z</time></trkpt><trkpt lat="44.09294808340773" lon="11.278372837545833"><ele>893.75</ele><time>2026-04-25T11:49:22.958Z</time></trkpt><trkpt lat="44.09286365322948" lon="11.27840653506528"><ele>891.0</ele><time>2026-04-25T11:49:23.958Z</time></trkpt><trkpt lat="44.09276752494578" lon="11.278488197209525"><ele>891.0</ele><time>2026-04-25T11:49:24.958Z</time></trkpt><trkpt lat="44.0926684703341" lon="11.278602262147453"><ele>891.0</ele><time>2026-04-25T11:49:25.958Z</time></trkpt><trkpt lat="44.092585444290094" lon="11.278752221636811"><ele>891.0</ele><time>2026-04-25T11:49:26.958Z</time></trkpt><trkpt lat="44.092550861083765" lon="11.278930928102305"><ele>891.0</ele><time>2026-04-25T11:49:27.958Z</time></trkpt><trkpt lat="44.09251939967287" lon="11.279114710977256"><ele>892.5</ele><time>2026-04-25T11:49:28.958Z</time></trkpt><trkpt lat="44.092482113481154" lon="11.279290371488113"><ele>894.0</ele><time>2026-04-25T11:49:29.958Z</time></trkpt><trkpt lat="44.09243372992346" lon="11.2794576734355"><ele>895.5</ele><time>2026-04-25T11:49:30.958Z</time></trkpt><trkpt lat="44.092394657090196" lon="11.279604421625594"><ele>897.0</ele><time>2026-04-25T11:49:31.958Z</time></trkpt><trkpt lat="44.09234203474605" lon="11.279751417385047"><ele>894.25</ele><time>2026-04-25T11:49:32.958Z</time></trkpt><trkpt lat="44.09227687418872" lon="11.279878704111445"><ele>891.5</ele><time>2026-04-25T11:49:33.958Z</time></trkpt><trkpt lat="44.09218335358553" lon="11.279995936330641"><ele>888.75</ele><time>2026-04-25T11:49:34.958Z</time></trkpt><trkpt lat="44.09206805077456" lon="11.280092825408378"><ele>886.0</ele><time>2026-04-25T11:49:35.958Z</time></trkpt><trkpt lat="44.091915446999714" lon="11.280168822691131"><ele>886.0</ele><time>2026-04-25T11:49:36.958Z</time></trkpt><trkpt lat="44.091765870388855" lon="11.280245751068062"><ele>886.0</ele><time>2026-04-25T11:49:37.958Z</time></trkpt><trkpt lat="44.09161602540538" lon="11.28032736819464"><ele>886.0</ele><time>2026-04-25T11:49:38.958Z</time></trkpt><trkpt lat="44.09147693077752" lon="11.280409896601773"><ele>884.25</ele><time>2026-04-25T11:49:39.958Z</time></trkpt><trkpt lat="44.09134328936475" lon="11.280490842218873"><ele>882.5</ele><time>2026-04-25T11:49:40.958Z</time></trkpt><trkpt lat="44.09122037867636" lon="11.28057778369827"><ele>880.75</ele><time>2026-04-25T11:49:41.958Z</time></trkpt><trkpt lat="44.09109738251868" lon="11.280687837889095"><ele>879.0</ele><time>2026-04-25T11:49:42.958Z</time></trkpt><trkpt lat="44.090982487039255" lon="11.280804687503759"><ele>882.75</ele><time>2026-04-25T11:49:43.958Z</time></trkpt><trkpt lat="44.0908756748117" lon="11.280924741322806"><ele>886.5</ele><time>2026-04-25T11:49:44.958Z</time></trkpt><trkpt lat="44.09078119846792" lon="11.281028337796965"><ele>890.25</ele><time>2026-04-25T11:49:45.958Z</time></trkpt><trkpt lat="44.09068427437757" lon="11.281111144104342"><ele>894.0</ele><time>2026-04-25T11:49:46.958Z</time></trkpt><trkpt lat="44.09058150932094" lon="11.281160410303317"><ele>894.0</ele><time>2026-04-25T11:49:47.958Z</time></trkpt><trkpt lat="44.0904635797984" lon="11.281166026319067"><ele>894.0</ele><time>2026-04-25T11:49:48.959Z</time></trkpt><trkpt lat="44.09033461217055" lon="11.281126362446106"><ele>894.0</ele><time>2026-04-25T11:49:49.959Z</time></trkpt><trkpt lat="44.09021217951501" lon="11.281085970854226"><ele>894.0</ele><time>2026-04-25T11:49:50.959Z</time></trkpt><trkpt lat="44.090071924679464" lon="11.28108347585809"><ele>893.0</ele><time>2026-04-25T11:49:51.959Z</time></trkpt><trkpt lat="44.08992234678326" lon="11.281116932996873"><ele>892.0</ele><time>2026-04-25T11:49:52.959Z</time></trkpt><trkpt lat="44.08977344438249" lon="11.281184105133203"><ele>891.0</ele><time>2026-04-25T11:49:53.959Z</time></trkpt><trkpt lat="44.089640510048795" lon="11.281257375132284"><ele>891.0</ele><time>2026-04-25T11:49:54.959Z</time></trkpt><trkpt lat="44.08951968688173" lon="11.281325303498347"><ele>891.0</ele><time>2026-04-25T11:49:55.958Z</time></trkpt><trkpt lat="44.08940751283318" lon="11.281387405481004"><ele>891.0</ele><time>2026-04-25T11:49:56.958Z</time></trkpt><trkpt lat="44.08927988284857" lon="11.281430323358261"><ele>891.0</ele><time>2026-04-25T11:49:57.959Z</time></trkpt><trkpt lat="44.089129276989446" lon="11.28142394624138"><ele>888.6666666666667</ele><time>2026-04-25T11:49:58.959Z</time></trkpt><trkpt lat="44.088975747857845" lon="11.281405290722075"><ele>886.3333333333334</ele><time>2026-04-25T11:49:59.959Z</time></trkpt><trkpt lat="44.088821978102345" lon="11.281361165790425"><ele>884.0</ele><time>2026-04-25T11:50:00.959Z</time></trkpt><trkpt lat="44.08867031673629" lon="11.281328512553342"><ele>884.0</ele><time>2026-04-25T11:50:01.959Z</time></trkpt><trkpt lat="44.088525096422444" lon="11.281321616437138"><ele>884.0</ele><time>2026-04-25T11:50:02.959Z</time></trkpt><trkpt lat="44.08838272465011" lon="11.281326468408523"><ele>884.0</ele><time>2026-04-25T11:50:03.959Z</time></trkpt><trkpt lat="44.08824631038438" lon="11.28132923151193"><ele>884.0</ele><time>2026-04-25T11:50:04.959Z</time></trkpt><trkpt lat="44.08812843196057" lon="11.281309918109592"><ele>886.5</ele><time>2026-04-25T11:50:05.959Z</time></trkpt><trkpt lat="44.08802144968567" lon="11.281240813947305"><ele>889.0</ele><time>2026-04-25T11:50:06.959Z</time></trkpt><trkpt lat="44.08792991671528" lon="11.281145578722581"><ele>891.5</ele><time>2026-04-25T11:50:07.959Z</time></trkpt><trkpt lat="44.08786115902934" lon="11.281016999581752"><ele>894.0</ele><time>2026-04-25T11:50:08.959Z</time></trkpt><trkpt lat="44.08779490388279" lon="11.28087432676409"><ele>894.0</ele><time>2026-04-25T11:50:09.959Z</time></trkpt><trkpt lat="44.08770750954639" lon="11.280757915956784"><ele>894.0000000000001</ele><time>2026-04-25T11:50:10.959Z</time></trkpt><trkpt lat="44.087619948858965" lon="11.28065183495992"><ele>894.0000000000001</ele><time>2026-04-25T11:50:11.959Z</time></trkpt><trkpt lat="44.08753204989901" lon="11.280566800078837"><ele>894.0</ele><time>2026-04-25T11:50:12.959Z</time></trkpt><trkpt lat="44.08744516400276" lon="11.280507757316405"><ele>894.0</ele><time>2026-04-25T11:50:13.959Z</time></trkpt><trkpt lat="44.08735658060533" lon="11.280480306485746"><ele>891.6</ele><time>2026-04-25T11:50:14.959Z</time></trkpt><trkpt lat="44.08726353511787" lon="11.2804815352213"><ele>889.2</ele><time>2026-04-25T11:50:15.959Z</time></trkpt><trkpt lat="44.0871834720798" lon="11.280557768057927"><ele>886.8000000000001</ele><time>2026-04-25T11:50:16.959Z</time></trkpt><trkpt lat="44.08708937732569" lon="11.280666238703482"><ele>884.4000000000001</ele><time>2026-04-25T11:50:17.959Z</time></trkpt><trkpt lat="44.08701114829925" lon="11.28077052282496"><ele>882.0</ele><time>2026-04-25T11:50:18.959Z</time></trkpt><trkpt lat="44.08695261328583" lon="11.280862615893822"><ele>882.0</ele><time>2026-04-25T11:50:19.959Z</time></trkpt><trkpt lat="44.08689451425331" lon="11.280981110029993"><ele>882.0</ele><time>2026-04-25T11:50:20.959Z</time></trkpt><trkpt lat="44.086875496762666" lon="11.281127569194009"><ele>882.0</ele><time>2026-04-25T11:50:21.959Z</time></trkpt><trkpt lat="44.08689930695395" lon="11.281278924757784"><ele>882.0</ele><time>2026-04-25T11:50:22.959Z</time></trkpt><trkpt lat="44.086923236237105" lon="11.281425046354068"><ele>882.0</ele><time>2026-04-25T11:50:23.959Z</time></trkpt><trkpt lat="44.08693493993723" lon="11.281559798238108"><ele>882.8333333333334</ele><time>2026-04-25T11:50:24.959Z</time></trkpt><trkpt lat="44.08692783822775" lon="11.281676674527906"><ele>883.6666666666667</ele><time>2026-04-25T11:50:25.959Z</time></trkpt><trkpt lat="44.08686520695336" lon="11.281751557296161"><ele>884.5</ele><time>2026-04-25T11:50:26.959Z</time></trkpt><trkpt lat="44.0868017331313" lon="11.281793079901162"><ele>885.3333333333334</ele><time>2026-04-25T11:50:27.959Z</time></trkpt><trkpt lat="44.08673126851102" lon="11.281831766263737"><ele>886.1666666666667</ele><time>2026-04-25T11:50:28.959Z</time></trkpt><trkpt lat="44.08663499898809" lon="11.28178197656065"><ele>887.0</ele><time>2026-04-25T11:50:29.959Z</time></trkpt><trkpt lat="44.08657585479895" lon="11.281671865429876"><ele>884.6666666666667</ele><time>2026-04-25T11:50:30.959Z</time></trkpt><trkpt lat="44.08652344256861" lon="11.281579168764726"><ele>882.3333333333334</ele><time>2026-04-25T11:50:31.959Z</time></trkpt><trkpt lat="44.08645830544755" lon="11.281519224802446"><ele>880.0</ele><time>2026-04-25T11:50:32.959Z</time></trkpt><trkpt lat="44.086386907725796" lon="11.281512820577593"><ele>877.6666666666667</ele><time>2026-04-25T11:50:33.959Z</time></trkpt><trkpt lat="44.08630261084008" lon="11.28153564320599"><ele>875.3333333333334</ele><time>2026-04-25T11:50:34.959Z</time></trkpt><trkpt lat="44.08624921614984" lon="11.28166927861113"><ele>873.0</ele><time>2026-04-25T11:50:35.959Z</time></trkpt><trkpt lat="44.08621967782792" lon="11.281799812536097"><ele>873.0</ele><time>2026-04-25T11:50:36.959Z</time></trkpt><trkpt lat="44.0862062090996" lon="11.281914553679536"><ele>873.0</ele><time>2026-04-25T11:50:37.959Z</time></trkpt><trkpt lat="44.08618779650311" lon="11.28201217758078"><ele>873.0</ele><time>2026-04-25T11:50:38.959Z</time></trkpt><trkpt lat="44.0860939347191" lon="11.28208040838343"><ele>873.0</ele><time>2026-04-25T11:50:40.959Z</time></trkpt><trkpt lat="44.086011998592944" lon="11.282026635806309"><ele>873.0</ele><time>2026-04-25T11:50:41.959Z</time></trkpt><trkpt lat="44.08596268433437" lon="11.281904361302296"><ele>873.0</ele><time>2026-04-25T11:50:42.959Z</time></trkpt><trkpt lat="44.08589405918649" lon="11.281801405143302"><ele>873.0</ele><time>2026-04-25T11:50:43.959Z</time></trkpt><trkpt lat="44.08581034954586" lon="11.28169990721399"><ele>873.0</ele><time>2026-04-25T11:50:44.959Z</time></trkpt><trkpt lat="44.08570122604289" lon="11.281637965912886"><ele>873.0</ele><time>2026-04-25T11:50:45.959Z</time></trkpt><trkpt lat="44.08559142927388" lon="11.281567681358815"><ele>871.8</ele><time>2026-04-25T11:50:46.959Z</time></trkpt><trkpt lat="44.08546785652358" lon="11.281535995666466"><ele>870.5999999999999</ele><time>2026-04-25T11:50:47.959Z</time></trkpt><trkpt lat="44.08535660071155" lon="11.281502230970494"><ele>869.4000000000001</ele><time>2026-04-25T11:50:48.959Z</time></trkpt><trkpt lat="44.085259474643145" lon="11.281471429684677"><ele>868.2</ele><time>2026-04-25T11:50:49.959Z</time></trkpt><trkpt lat="44.08518118415667" lon="11.281437412038066"><ele>867.0</ele><time>2026-04-25T11:50:50.959Z</time></trkpt><trkpt lat="44.085120603031775" lon="11.281382677283746"><ele>864.1666666666666</ele><time>2026-04-25T11:50:51.959Z</time></trkpt><trkpt lat="44.085081909240515" lon="11.281285343120889"><ele>861.3333333333333</ele><time>2026-04-25T11:50:52.959Z</time></trkpt><trkpt lat="44.08505766032791" lon="11.281170460667678"><ele>858.5</ele><time>2026-04-25T11:50:53.959Z</time></trkpt><trkpt lat="44.08500329399486" lon="11.281114313692312"><ele>855.6666666666666</ele><time>2026-04-25T11:50:54.959Z</time></trkpt><trkpt lat="44.084938321163634" lon="11.28107284657092"><ele>852.8333333333333</ele><time>2026-04-25T11:50:55.959Z</time></trkpt><trkpt lat="44.08482408283198" lon="11.281109329302211"><ele>850.0</ele><time>2026-04-25T11:50:56.959Z</time></trkpt><trkpt lat="44.08472622861169" lon="11.28115790070133"><ele>851.0</ele><time>2026-04-25T11:50:57.959Z</time></trkpt><trkpt lat="44.08462310720879" lon="11.2812128751815"><ele>852.0</ele><time>2026-04-25T11:50:58.959Z</time></trkpt><trkpt lat="44.08453940907783" lon="11.281274672735229"><ele>853.0</ele><time>2026-04-25T11:50:59.959Z</time></trkpt><trkpt lat="44.084477865286615" lon="11.281403348842474"><ele>854.0</ele><time>2026-04-25T11:51:00.959Z</time></trkpt><trkpt lat="44.084487644598816" lon="11.281551501029229"><ele>855.0</ele><time>2026-04-25T11:51:01.959Z</time></trkpt><trkpt lat="44.0844737710858" lon="11.28165818416115"><ele>855.0</ele><time>2026-04-25T11:51:02.96Z</time></trkpt><trkpt lat="44.08443758952915" lon="11.281747042552134"><ele>855.0</ele><time>2026-04-25T11:51:03.96Z</time></trkpt><trkpt lat="44.08431948479237" lon="11.2817830443511"><ele>855.0</ele><time>2026-04-25T11:51:05.96Z</time></trkpt><trkpt lat="44.0842486213093" lon="11.281722673101347"><ele>855.0</ele><time>2026-04-25T11:51:06.96Z</time></trkpt><trkpt lat="44.084177827397745" lon="11.281629498504714"><ele>855.0</ele><time>2026-04-25T11:51:07.96Z</time></trkpt><trkpt lat="44.0841013993381" lon="11.281515686967413"><ele>849.25</ele><time>2026-04-25T11:51:08.96Z</time></trkpt><trkpt lat="44.08401110634505" lon="11.28141069492199"><ele>843.5</ele><time>2026-04-25T11:51:09.96Z</time></trkpt><trkpt lat="44.08389452851842" lon="11.281323609181268"><ele>837.75</ele><time>2026-04-25T11:51:10.96Z</time></trkpt><trkpt lat="44.08376617717713" lon="11.281283017069896"><ele>832.0</ele><time>2026-04-25T11:51:11.96Z</time></trkpt><trkpt lat="44.083646753140606" lon="11.281229378989297"><ele>832.0</ele><time>2026-04-25T11:51:12.96Z</time></trkpt><trkpt lat="44.083531619064594" lon="11.281174615914793"><ele>832.0</ele><time>2026-04-25T11:51:13.96Z</time></trkpt><trkpt lat="44.0834319037427" lon="11.28112232178971"><ele>832.0</ele><time>2026-04-25T11:51:14.96Z</time></trkpt><trkpt lat="44.08334013363541" lon="11.281075085075742"><ele>832.0</ele><time>2026-04-25T11:51:15.96Z</time></trkpt><trkpt lat="44.08326131479015" lon="11.281050543683456"><ele>832.0</ele><time>2026-04-25T11:51:16.96Z</time></trkpt><trkpt lat="44.08319791902326" lon="11.281071660285837"><ele>829.6</ele><time>2026-04-25T11:51:17.96Z</time></trkpt><trkpt lat="44.08314812513219" lon="11.281177338969071"><ele>827.2</ele><time>2026-04-25T11:51:18.96Z</time></trkpt><trkpt lat="44.0831191161962" lon="11.281295055144767"><ele>824.8</ele><time>2026-04-25T11:51:19.96Z</time></trkpt><trkpt lat="44.08309742034347" lon="11.281423566243538"><ele>822.4</ele><time>2026-04-25T11:51:20.96Z</time></trkpt><trkpt lat="44.08307052707043" lon="11.28153280008573"><ele>820.0</ele><time>2026-04-25T11:51:21.96Z</time></trkpt><trkpt lat="44.082997850336525" lon="11.28163254799139"><ele>819.9999999999999</ele><time>2026-04-25T11:51:22.96Z</time></trkpt><trkpt lat="44.08291611147914" lon="11.281651793535522"><ele>820.0</ele><time>2026-04-25T11:51:23.96Z</time></trkpt><trkpt lat="44.08283520540935" lon="11.281680955087147"><ele>820.0</ele><time>2026-04-25T11:51:24.96Z</time></trkpt><trkpt lat="44.08276116725188" lon="11.281748633151633"><ele>820.0</ele><time>2026-04-25T11:51:25.96Z</time></trkpt><trkpt lat="44.08272228627072" lon="11.281850358530948"><ele>819.9999999999999</ele><time>2026-04-25T11:51:26.96Z</time></trkpt><trkpt lat="44.08274608635415" lon="11.281990583780606"><ele>820.0</ele><time>2026-04-25T11:51:27.96Z</time></trkpt><trkpt lat="44.0827611621246" lon="11.282129260299897"><ele>820.25</ele><time>2026-04-25T11:51:28.96Z</time></trkpt><trkpt lat="44.082760035520444" lon="11.282281995321032"><ele>820.5</ele><time>2026-04-25T11:51:29.96Z</time></trkpt><trkpt lat="44.08277730559311" lon="11.282441915201641"><ele>820.75</ele><time>2026-04-25T11:51:30.96Z</time></trkpt><trkpt lat="44.082819941250946" lon="11.282591847457567"><ele>821.0</ele><time>2026-04-25T11:51:31.96Z</time></trkpt><trkpt lat="44.0828516173245" lon="11.282755788778674"><ele>821.0000000000001</ele><time>2026-04-25T11:51:32.96Z</time></trkpt><trkpt lat="44.082894262072784" lon="11.282900006721277"><ele>821.0</ele><time>2026-04-25T11:51:33.96Z</time></trkpt><trkpt lat="44.08293310367864" lon="11.283030527973333"><ele>821.0</ele><time>2026-04-25T11:51:34.96Z</time></trkpt><trkpt lat="44.08296541828938" lon="11.283138374920084"><ele>821.0</ele><time>2026-04-25T11:51:35.96Z</time></trkpt><trkpt lat="44.08298760848331" lon="11.283220601350864"><ele>821.0000000000001</ele><time>2026-04-25T11:51:36.96Z</time></trkpt><trkpt lat="44.08297791565549" lon="11.283330237209338"><ele>821.0</ele><time>2026-04-25T11:51:38.96Z</time></trkpt><trkpt lat="44.08286595157926" lon="11.283303193440824"><ele>821.0</ele><time>2026-04-25T11:51:40.96Z</time></trkpt><trkpt lat="44.08281150044276" lon="11.283196718174116"><ele>821.0</ele><time>2026-04-25T11:51:41.96Z</time></trkpt><trkpt lat="44.08275831445803" lon="11.283081173240246"><ele>821.0</ele><time>2026-04-25T11:51:42.96Z</time></trkpt><trkpt lat="44.08270587064696" lon="11.282962568691259"><ele>821.0</ele><time>2026-04-25T11:51:43.96Z</time></trkpt><trkpt lat="44.08264914975512" lon="11.282821953611247"><ele>821.0</ele><time>2026-04-25T11:51:44.96Z</time></trkpt><trkpt lat="44.08258992671875" lon="11.28267398339586"><ele>821.0</ele><time>2026-04-25T11:51:45.96Z</time></trkpt><trkpt lat="44.08251836136317" lon="11.28252686437363"><ele>821.0</ele><time>2026-04-25T11:51:46.96Z</time></trkpt><trkpt lat="44.082463248733724" lon="11.282360594176918"><ele>821.0</ele><time>2026-04-25T11:51:47.96Z</time></trkpt><trkpt lat="44.082444317300485" lon="11.282184468292149"><ele>821.0</ele><time>2026-04-25T11:51:48.96Z</time></trkpt><trkpt lat="44.0824290606417" lon="11.282009614730592"><ele>820.75</ele><time>2026-04-25T11:51:49.96Z</time></trkpt><trkpt lat="44.08244707482207" lon="11.281853462913304"><ele>820.5</ele><time>2026-04-25T11:51:50.96Z</time></trkpt><trkpt lat="44.08245504234507" lon="11.2816846999122"><ele>820.25</ele><time>2026-04-25T11:51:51.96Z</time></trkpt><trkpt lat="44.08245852753908" lon="11.281525730579471"><ele>820.0</ele><time>2026-04-25T11:51:52.96Z</time></trkpt><trkpt lat="44.0824593100885" lon="11.281369440570074"><ele>821.0</ele><time>2026-04-25T11:51:53.961Z</time></trkpt><trkpt lat="44.08242907294179" lon="11.2812294137688"><ele>822.0</ele><time>2026-04-25T11:51:54.961Z</time></trkpt><trkpt lat="44.08236161551623" lon="11.28110376736352"><ele>823.0</ele><time>2026-04-25T11:51:55.961Z</time></trkpt><trkpt lat="44.082285223988755" lon="11.280995054715426"><ele>824.0</ele><time>2026-04-25T11:51:56.961Z</time></trkpt><trkpt lat="44.08218049655997" lon="11.280919143734572"><ele>825.0</ele><time>2026-04-25T11:51:57.962Z</time></trkpt><trkpt lat="44.08208276610223" lon="11.280880135332588"><ele>825.0</ele><time>2026-04-25T11:51:58.962Z</time></trkpt><trkpt lat="44.08196597409013" lon="11.2808816178604"><ele>825.0</ele><time>2026-04-25T11:51:59.962Z</time></trkpt><trkpt lat="44.081849065851344" lon="11.280937804554748"><ele>825.0</ele><time>2026-04-25T11:52:00.962Z</time></trkpt><trkpt lat="44.08175941430136" lon="11.281037383775423"><ele>825.0</ele><time>2026-04-25T11:52:01.962Z</time></trkpt><trkpt lat="44.08166500041227" lon="11.281173999619355"><ele>821.0</ele><time>2026-04-25T11:52:02.961Z</time></trkpt><trkpt lat="44.081549284233965" lon="11.281300450337"><ele>817.0</ele><time>2026-04-25T11:52:03.962Z</time></trkpt><trkpt lat="44.08145495040371" lon="11.281430782939376"><ele>813.0</ele><time>2026-04-25T11:52:04.962Z</time></trkpt><trkpt lat="44.08136705596552" lon="11.281559959199017"><ele>809.0</ele><time>2026-04-25T11:52:05.962Z</time></trkpt><trkpt lat="44.0812604271094" lon="11.281648924053597"><ele>809.0</ele><time>2026-04-25T11:52:06.962Z</time></trkpt><trkpt lat="44.08113608650738" lon="11.281686453454249"><ele>809.0</ele><time>2026-04-25T11:52:07.962Z</time></trkpt><trkpt lat="44.08100494639861" lon="11.2817412254261"><ele>809.0</ele><time>2026-04-25T11:52:08.962Z</time></trkpt><trkpt lat="44.080866086465946" lon="11.281799219562204"><ele>809.0</ele><time>2026-04-25T11:52:09.962Z</time></trkpt><trkpt lat="44.08073578031931" lon="11.281871890429573"><ele>808.25</ele><time>2026-04-25T11:52:10.962Z</time></trkpt><trkpt lat="44.08059003467948" lon="11.281874243732135"><ele>807.5</ele><time>2026-04-25T11:52:11.962Z</time></trkpt><trkpt lat="44.08044854173668" lon="11.281916278084939"><ele>806.75</ele><time>2026-04-25T11:52:12.962Z</time></trkpt><trkpt lat="44.08030275094653" lon="11.28191363709476"><ele>806.0</ele><time>2026-04-25T11:52:13.962Z</time></trkpt><trkpt lat="44.08016437217408" lon="11.281927278169663"><ele>806.0</ele><time>2026-04-25T11:52:14.962Z</time></trkpt><trkpt lat="44.08004235984498" lon="11.281939540405887"><ele>806.0</ele><time>2026-04-25T11:52:15.962Z</time></trkpt><trkpt lat="44.07989786536316" lon="11.28194123193638"><ele>806.0</ele><time>2026-04-25T11:52:16.962Z</time></trkpt><trkpt lat="44.07974567986432" lon="11.281967552525973"><ele>806.0</ele><time>2026-04-25T11:52:17.962Z</time></trkpt><trkpt lat="44.079596442274" lon="11.28198149573771"><ele>802.5</ele><time>2026-04-25T11:52:18.962Z</time></trkpt><trkpt lat="44.07944928425038" lon="11.282006702838084"><ele>799.0</ele><time>2026-04-25T11:52:19.962Z</time></trkpt><trkpt lat="44.07930376369047" lon="11.282023166486981"><ele>795.5</ele><time>2026-04-25T11:52:20.962Z</time></trkpt><trkpt lat="44.07915725313838" lon="11.282037578433616"><ele>792.0</ele><time>2026-04-25T11:52:21.962Z</time></trkpt><trkpt lat="44.079023491554466" lon="11.282052042555332"><ele>787.5</ele><time>2026-04-25T11:52:22.962Z</time></trkpt><trkpt lat="44.078881673075465" lon="11.282035002125463"><ele>783.0</ele><time>2026-04-25T11:52:23.962Z</time></trkpt><trkpt lat="44.07873612113924" lon="11.282010756818243"><ele>778.5</ele><time>2026-04-25T11:52:24.962Z</time></trkpt><trkpt lat="44.07859848500252" lon="11.281971360557222"><ele>774.0</ele><time>2026-04-25T11:52:25.962Z</time></trkpt><trkpt lat="44.07846476827384" lon="11.28190930849827"><ele>774.0</ele><time>2026-04-25T11:52:26.962Z</time></trkpt><trkpt lat="44.07832678309808" lon="11.281847885915992"><ele>774.0</ele><time>2026-04-25T11:52:27.962Z</time></trkpt><trkpt lat="44.078187690412264" lon="11.281787744404712"><ele>774.0</ele><time>2026-04-25T11:52:28.962Z</time></trkpt><trkpt lat="44.078061484319626" lon="11.281723526231344"><ele>774.0</ele><time>2026-04-25T11:52:29.962Z</time></trkpt><trkpt lat="44.07793322938859" lon="11.281635510697381"><ele>771.75</ele><time>2026-04-25T11:52:30.962Z</time></trkpt><trkpt lat="44.077811080665136" lon="11.281577436668352"><ele>769.5</ele><time>2026-04-25T11:52:31.962Z</time></trkpt><trkpt lat="44.07767969322883" lon="11.281518583721263"><ele>767.25</ele><time>2026-04-25T11:52:32.962Z</time></trkpt><trkpt lat="44.07754627798711" lon="11.281451891866391"><ele>765.0</ele><time>2026-04-25T11:52:33.962Z</time></trkpt><trkpt lat="44.07742015831689" lon="11.281375594482848"><ele>765.0</ele><time>2026-04-25T11:52:34.962Z</time></trkpt><trkpt lat="44.077293402871284" lon="11.281322870909596"><ele>765.0</ele><time>2026-04-25T11:52:35.962Z</time></trkpt><trkpt lat="44.07717312412912" lon="11.281260414254074"><ele>765.0</ele><time>2026-04-25T11:52:36.962Z</time></trkpt><trkpt lat="44.07705951728278" lon="11.28119570137109"><ele>765.0</ele><time>2026-04-25T11:52:37.962Z</time></trkpt><trkpt lat="44.076955098962735" lon="11.281082570981521"><ele>765.0</ele><time>2026-04-25T11:52:38.962Z</time></trkpt><trkpt lat="44.07684747560515" lon="11.280966126962268"><ele>765.0</ele><time>2026-04-25T11:52:39.962Z</time></trkpt><trkpt lat="44.076728396178886" lon="11.280853001709135"><ele>765.0</ele><time>2026-04-25T11:52:40.962Z</time></trkpt><trkpt lat="44.0765914392986" lon="11.280760675259549"><ele>765.0</ele><time>2026-04-25T11:52:41.962Z</time></trkpt><trkpt lat="44.076447815915046" lon="11.280712773879126"><ele>765.0</ele><time>2026-04-25T11:52:42.962Z</time></trkpt><trkpt lat="44.076314332713814" lon="11.280685314301492"><ele>765.0</ele><time>2026-04-25T11:52:43.962Z</time></trkpt><trkpt lat="44.07618931510504" lon="11.28064596750731"><ele>765.0</ele><time>2026-04-25T11:52:44.962Z</time></trkpt><trkpt lat="44.07607792873129" lon="11.28058627049832"><ele>765.0</ele><time>2026-04-25T11:52:45.962Z</time></trkpt><trkpt lat="44.07598122159478" lon="11.280477571822649"><ele>765.0</ele><time>2026-04-25T11:52:46.962Z</time></trkpt><trkpt lat="44.07590190296346" lon="11.280351831958862"><ele>765.0</ele><time>2026-04-25T11:52:47.962Z</time></trkpt><trkpt lat="44.07585253744994" lon="11.28021062022609"><ele>765.0</ele><time>2026-04-25T11:52:48.962Z</time></trkpt><trkpt lat="44.075835033206836" lon="11.280042194939067"><ele>765.0</ele><time>2026-04-25T11:52:49.962Z</time></trkpt><trkpt lat="44.07583616074668" lon="11.279857671798197"><ele>765.25</ele><time>2026-04-25T11:52:50.962Z</time></trkpt><trkpt lat="44.075845911685214" lon="11.27965523829897"><ele>765.5</ele><time>2026-04-25T11:52:51.962Z</time></trkpt><trkpt lat="44.07586133133929" lon="11.279465892031151"><ele>765.75</ele><time>2026-04-25T11:52:52.962Z</time></trkpt><trkpt lat="44.075865259229616" lon="11.279295783021668"><ele>766.0</ele><time>2026-04-25T11:52:53.962Z</time></trkpt><trkpt lat="44.07587874868553" lon="11.27913308092095"><ele>766.0</ele><time>2026-04-25T11:52:54.962Z</time></trkpt><trkpt lat="44.07588734935123" lon="11.278967505813428"><ele>766.0</ele><time>2026-04-25T11:52:55.962Z</time></trkpt><trkpt lat="44.0758955226035" lon="11.278808378114046"><ele>766.0</ele><time>2026-04-25T11:52:56.962Z</time></trkpt><trkpt lat="44.07590643657406" lon="11.27865102863757"><ele>766.0</ele><time>2026-04-25T11:52:57.962Z</time></trkpt><trkpt lat="44.07592240497745" lon="11.278505194644184"><ele>766.1999999999999</ele><time>2026-04-25T11:52:58.962Z</time></trkpt><trkpt lat="44.07592639420896" lon="11.278362774208702"><ele>766.4</ele><time>2026-04-25T11:52:59.962Z</time></trkpt><trkpt lat="44.07591354259945" lon="11.278222823975558"><ele>766.6</ele><time>2026-04-25T11:53:00.962Z</time></trkpt><trkpt lat="44.07588170466986" lon="11.278072553108982"><ele>766.8</ele><time>2026-04-25T11:53:01.962Z</time></trkpt><trkpt lat="44.075844569805405" lon="11.277917468704661"><ele>767.0</ele><time>2026-04-25T11:53:02.962Z</time></trkpt><trkpt lat="44.075807992619055" lon="11.277766163027625"><ele>767.0</ele><time>2026-04-25T11:53:03.962Z</time></trkpt><trkpt lat="44.07578859524301" lon="11.277615760934543"><ele>767.0</ele><time>2026-04-25T11:53:04.962Z</time></trkpt><trkpt lat="44.075793564379005" lon="11.277464022194833"><ele>767.0</ele><time>2026-04-25T11:53:05.962Z</time></trkpt><trkpt lat="44.07584110803379" lon="11.277319887001063"><ele>767.0</ele><time>2026-04-25T11:53:06.962Z</time></trkpt><trkpt lat="44.07588746185507" lon="11.277179497520281"><ele>767.0</ele><time>2026-04-25T11:53:07.962Z</time></trkpt><trkpt lat="44.075886603516736" lon="11.277035364480732"><ele>767.0</ele><time>2026-04-25T11:53:08.962Z</time></trkpt><trkpt lat="44.07588856450906" lon="11.276889340500988"><ele>767.0</ele><time>2026-04-25T11:53:09.962Z</time></trkpt><trkpt lat="44.07582225791898" lon="11.276753375325336"><ele>767.0</ele><time>2026-04-25T11:53:10.962Z</time></trkpt><trkpt lat="44.07571670249465" lon="11.276627563137007"><ele>767.0</ele><time>2026-04-25T11:53:11.962Z</time></trkpt><trkpt lat="44.07561436888905" lon="11.276487683224646"><ele>761.5</ele><time>2026-04-25T11:53:12.962Z</time></trkpt><trkpt lat="44.075527696888614" lon="11.276337894835505"><ele>756.0</ele><time>2026-04-25T11:53:13.962Z</time></trkpt><trkpt lat="44.07542231962515" lon="11.276215882526484"><ele>750.5</ele><time>2026-04-25T11:53:14.962Z</time></trkpt><trkpt lat="44.0753322009044" lon="11.276063730562058"><ele>745.0</ele><time>2026-04-25T11:53:15.962Z</time></trkpt><trkpt lat="44.075268075158355" lon="11.275904279692696"><ele>745.0</ele><time>2026-04-25T11:53:16.962Z</time></trkpt><trkpt lat="44.075224735158635" lon="11.275726078405118"><ele>745.0</ele><time>2026-04-25T11:53:17.962Z</time></trkpt><trkpt lat="44.075186066543566" lon="11.275559188701234"><ele>745.0</ele><time>2026-04-25T11:53:18.962Z</time></trkpt><trkpt lat="44.07511825197615" lon="11.275410340844276"><ele>745.0</ele><time>2026-04-25T11:53:19.962Z</time></trkpt><trkpt lat="44.0750295267043" lon="11.275304366952398"><ele>742.0</ele><time>2026-04-25T11:53:20.962Z</time></trkpt><trkpt lat="44.07492173914968" lon="11.275211192806957"><ele>739.0</ele><time>2026-04-25T11:53:21.962Z</time></trkpt><trkpt lat="44.07480186953832" lon="11.27514061213066"><ele>736.0</ele><time>2026-04-25T11:53:22.962Z</time></trkpt><trkpt lat="44.074679655853274" lon="11.27506709009679"><ele>733.0</ele><time>2026-04-25T11:53:23.962Z</time></trkpt><trkpt lat="44.07456417374753" lon="11.274978175941397"><ele>733.0</ele><time>2026-04-25T11:53:24.962Z</time></trkpt><trkpt lat="44.074443604093425" lon="11.27487015325324"><ele>733.0</ele><time>2026-04-25T11:53:25.962Z</time></trkpt><trkpt lat="44.074344845705895" lon="11.27470221759395"><ele>733.0</ele><time>2026-04-25T11:53:26.962Z</time></trkpt><trkpt lat="44.074248488709415" lon="11.274552117911748"><ele>733.0</ele><time>2026-04-25T11:53:27.962Z</time></trkpt><trkpt lat="44.074157035651666" lon="11.274412080428764"><ele>730.2</ele><time>2026-04-25T11:53:28.962Z</time></trkpt><trkpt lat="44.074075958578966" lon="11.274287931101595"><ele>727.4</ele><time>2026-04-25T11:53:29.962Z</time></trkpt><trkpt lat="44.07399063840031" lon="11.274188029742783"><ele>724.6</ele><time>2026-04-25T11:53:30.962Z</time></trkpt><trkpt lat="44.073941970119314" lon="11.274063620461652"><ele>721.8000000000001</ele><time>2026-04-25T11:53:31.962Z</time></trkpt><trkpt lat="44.07392137697342" lon="11.273935443935502"><ele>719.0</ele><time>2026-04-25T11:53:32.962Z</time></trkpt><trkpt lat="44.07392881471035" lon="11.273796631856762"><ele>718.2</ele><time>2026-04-25T11:53:33.962Z</time></trkpt><trkpt lat="44.073964341382336" lon="11.273664097604394"><ele>717.4000000000001</ele><time>2026-04-25T11:53:34.962Z</time></trkpt><trkpt lat="44.07401304605257" lon="11.273530113831251"><ele>716.6</ele><time>2026-04-25T11:53:35.962Z</time></trkpt><trkpt lat="44.07405650213359" lon="11.273391117129798"><ele>715.8</ele><time>2026-04-25T11:53:36.962Z</time></trkpt><trkpt lat="44.074106143900174" lon="11.273233769431894"><ele>715.0</ele><time>2026-04-25T11:53:37.962Z</time></trkpt><trkpt lat="44.07414214181354" lon="11.273067874709616"><ele>718.25</ele><time>2026-04-25T11:53:38.962Z</time></trkpt><trkpt lat="44.074155451825156" lon="11.272906182461753"><ele>721.5</ele><time>2026-04-25T11:53:39.962Z</time></trkpt><trkpt lat="44.07415565758006" lon="11.272736526134201"><ele>724.75</ele><time>2026-04-25T11:53:40.962Z</time></trkpt><trkpt lat="44.07415046690008" lon="11.272580174715843"><ele>728.0</ele><time>2026-04-25T11:53:41.962Z</time></trkpt><trkpt lat="44.07413613730648" lon="11.272412816177141"><ele>727.0</ele><time>2026-04-25T11:53:42.962Z</time></trkpt><trkpt lat="44.07412935578398" lon="11.272257274257878"><ele>726.0</ele><time>2026-04-25T11:53:43.962Z</time></trkpt><trkpt lat="44.07410486510388" lon="11.272107226474894"><ele>725.0</ele><time>2026-04-25T11:53:44.962Z</time></trkpt><trkpt lat="44.07409235965424" lon="11.271946725347195"><ele>724.0</ele><time>2026-04-25T11:53:45.962Z</time></trkpt><trkpt lat="44.07408165281855" lon="11.271785229996992"><ele>719.0</ele><time>2026-04-25T11:53:46.962Z</time></trkpt><trkpt lat="44.07407059450759" lon="11.271627980985773"><ele>714.0</ele><time>2026-04-25T11:53:47.962Z</time></trkpt><trkpt lat="44.074071294905764" lon="11.27147011904929"><ele>709.0</ele><time>2026-04-25T11:53:48.962Z</time></trkpt><trkpt lat="44.074043880918964" lon="11.27131939752921"><ele>704.0</ele><time>2026-04-25T11:53:49.962Z</time></trkpt><trkpt lat="44.07401048676295" lon="11.271169332074829"><ele>704.0</ele><time>2026-04-25T11:53:50.962Z</time></trkpt><trkpt lat="44.073975197270315" lon="11.271018757331854"><ele>704.0</ele><time>2026-04-25T11:53:51.962Z</time></trkpt><trkpt lat="44.07392050137501" lon="11.270872517255867"><ele>704.0</ele><time>2026-04-25T11:53:52.962Z</time></trkpt><trkpt lat="44.07386185796599" lon="11.270728753764171"><ele>704.0</ele><time>2026-04-25T11:53:53.962Z</time></trkpt><trkpt lat="44.07378814969106" lon="11.270594032263494"><ele>703.75</ele><time>2026-04-25T11:53:54.962Z</time></trkpt><trkpt lat="44.07370020881974" lon="11.270463143808415"><ele>703.5</ele><time>2026-04-25T11:53:55.962Z</time></trkpt><trkpt lat="44.07360243884984" lon="11.270353066947422"><ele>703.25</ele><time>2026-04-25T11:53:56.962Z</time></trkpt><trkpt lat="44.07350180797762" lon="11.270250241503112"><ele>703.0</ele><time>2026-04-25T11:53:57.962Z</time></trkpt><trkpt lat="44.07339682934941" lon="11.270166749466725"><ele>703.0</ele><time>2026-04-25T11:53:58.963Z</time></trkpt><trkpt lat="44.07329252564034" lon="11.270089746704697"><ele>703.0</ele><time>2026-04-25T11:53:59.962Z</time></trkpt><trkpt lat="44.07318415007228" lon="11.270045030921658"><ele>703.0</ele><time>2026-04-25T11:54:00.962Z</time></trkpt><trkpt lat="44.0730717713368" lon="11.270023428754406"><ele>703.0</ele><time>2026-04-25T11:54:01.963Z</time></trkpt><trkpt lat="44.07296245543513" lon="11.27006909617366"><ele>701.6666666666667</ele><time>2026-04-25T11:54:02.963Z</time></trkpt><trkpt lat="44.072873064819746" lon="11.270107864009358"><ele>700.3333333333334</ele><time>2026-04-25T11:54:03.963Z</time></trkpt><trkpt lat="44.0728160026325" lon="11.270154712399245"><ele>699.0</ele><time>2026-04-25T11:54:04.962Z</time></trkpt><trkpt lat="44.07278659218291" lon="11.270253440304616"><ele>697.6666666666666</ele><time>2026-04-25T11:54:05.963Z</time></trkpt><trkpt lat="44.07278126583407" lon="11.270361586725825"><ele>696.3333333333333</ele><time>2026-04-25T11:54:06.963Z</time></trkpt><trkpt lat="44.072766259504355" lon="11.270483040348982"><ele>695.0</ele><time>2026-04-25T11:54:07.963Z</time></trkpt><trkpt lat="44.07276982595217" lon="11.270605898406416"><ele>696.0</ele><time>2026-04-25T11:54:08.963Z</time></trkpt><trkpt lat="44.072789761116084" lon="11.27073446467663"><ele>697.0</ele><time>2026-04-25T11:54:09.963Z</time></trkpt><trkpt lat="44.07278595753345" lon="11.270875923788918"><ele>698.0</ele><time>2026-04-25T11:54:10.962Z</time></trkpt><trkpt lat="44.07279036841698" lon="11.27102730022924"><ele>699.0</ele><time>2026-04-25T11:54:11.963Z</time></trkpt><trkpt lat="44.072791329620884" lon="11.27118066467746"><ele>700.0</ele><time>2026-04-25T11:54:12.963Z</time></trkpt><trkpt lat="44.07278809663676" lon="11.27132046306727"><ele>698.2</ele><time>2026-04-25T11:54:13.963Z</time></trkpt><trkpt lat="44.07276961794615" lon="11.27145023684861"><ele>696.4</ele><time>2026-04-25T11:54:14.963Z</time></trkpt><trkpt lat="44.072728356057006" lon="11.271562281007053"><ele>694.5999999999999</ele><time>2026-04-25T11:54:15.963Z</time></trkpt><trkpt lat="44.07267392944229" lon="11.271653396002337"><ele>692.8</ele><time>2026-04-25T11:54:16.963Z</time></trkpt><trkpt lat="44.07259279281104" lon="11.271702211016587"><ele>691.0</ele><time>2026-04-25T11:54:17.963Z</time></trkpt><trkpt lat="44.072502155626516" lon="11.271702696014056"><ele>689.75</ele><time>2026-04-25T11:54:18.963Z</time></trkpt><trkpt lat="44.07240228545032" lon="11.271674765205418"><ele>688.5</ele><time>2026-04-25T11:54:19.963Z</time></trkpt><trkpt lat="44.072289837021415" lon="11.271581472152471"><ele>687.25</ele><time>2026-04-25T11:54:20.963Z</time></trkpt><trkpt lat="44.07218913816224" lon="11.271469282007928"><ele>686.0</ele><time>2026-04-25T11:54:21.963Z</time></trkpt><trkpt lat="44.072079832838455" lon="11.271357009140537"><ele>686.0</ele><time>2026-04-25T11:54:22.963Z</time></trkpt><trkpt lat="44.07197326831156" lon="11.271254015303368"><ele>686.0</ele><time>2026-04-25T11:54:23.963Z</time></trkpt><trkpt lat="44.07186595077386" lon="11.27116940277998"><ele>686.0</ele><time>2026-04-25T11:54:24.963Z</time></trkpt><trkpt lat="44.07177158787352" lon="11.271077247196226"><ele>686.0</ele><time>2026-04-25T11:54:25.963Z</time></trkpt><trkpt lat="44.07169073882403" lon="11.270962825780881"><ele>683.0</ele><time>2026-04-25T11:54:26.963Z</time></trkpt><trkpt lat="44.071605615163875" lon="11.270835992362391"><ele>680.0</ele><time>2026-04-25T11:54:27.963Z</time></trkpt><trkpt lat="44.07152878397707" lon="11.270697823906998"><ele>677.0</ele><time>2026-04-25T11:54:28.963Z</time></trkpt><trkpt lat="44.071441191642755" lon="11.270553638565405"><ele>674.0</ele><time>2026-04-25T11:54:29.963Z</time></trkpt><trkpt lat="44.07134595474725" lon="11.270426824338688"><ele>674.0</ele><time>2026-04-25T11:54:30.963Z</time></trkpt><trkpt lat="44.07124886739728" lon="11.270314265802513"><ele>674.0</ele><time>2026-04-25T11:54:31.963Z</time></trkpt><trkpt lat="44.071154732629125" lon="11.270223635191082"><ele>674.0</ele><time>2026-04-25T11:54:32.963Z</time></trkpt><trkpt lat="44.07104484271351" lon="11.270138573951833"><ele>674.0</ele><time>2026-04-25T11:54:33.963Z</time></trkpt><trkpt lat="44.07093561639029" lon="11.270066910965534"><ele>674.0</ele><time>2026-04-25T11:54:34.963Z</time></trkpt><trkpt lat="44.07082481873625" lon="11.269999673006936"><ele>674.0</ele><time>2026-04-25T11:54:35.963Z</time></trkpt><trkpt lat="44.07071516498415" lon="11.269922201229463"><ele>674.0</ele><time>2026-04-25T11:54:36.963Z</time></trkpt><trkpt lat="44.07060413241262" lon="11.269861593152923"><ele>674.0</ele><time>2026-04-25T11:54:37.963Z</time></trkpt><trkpt lat="44.07048822785405" lon="11.269831465407053"><ele>672.5</ele><time>2026-04-25T11:54:38.963Z</time></trkpt><trkpt lat="44.07037293524717" lon="11.269823691709954"><ele>671.0</ele><time>2026-04-25T11:54:39.963Z</time></trkpt><trkpt lat="44.07025402918064" lon="11.269849867058612"><ele>669.5</ele><time>2026-04-25T11:54:40.963Z</time></trkpt><trkpt lat="44.07014297015677" lon="11.269891736162597"><ele>668.0</ele><time>2026-04-25T11:54:41.963Z</time></trkpt><trkpt lat="44.07003044351068" lon="11.269928650152078"><ele>666.5</ele><time>2026-04-25T11:54:42.963Z</time></trkpt><trkpt lat="44.06992189863897" lon="11.269968893494429"><ele>665.0</ele><time>2026-04-25T11:54:43.963Z</time></trkpt><trkpt lat="44.069804125401795" lon="11.270002049889426"><ele>663.5</ele><time>2026-04-25T11:54:44.963Z</time></trkpt><trkpt lat="44.06968288579941" lon="11.270028110322421"><ele>662.0</ele><time>2026-04-25T11:54:45.963Z</time></trkpt><trkpt lat="44.06955716254956" lon="11.270054687744782"><ele>662.0</ele><time>2026-04-25T11:54:46.963Z</time></trkpt><trkpt lat="44.06943389318145" lon="11.270077778867796"><ele>662.0</ele><time>2026-04-25T11:54:47.963Z</time></trkpt><trkpt lat="44.06931258542193" lon="11.27010033619883"><ele>662.0</ele><time>2026-04-25T11:54:48.963Z</time></trkpt><trkpt lat="44.0691938659739" lon="11.270117283711038"><ele>662.0</ele><time>2026-04-25T11:54:49.963Z</time></trkpt><trkpt lat="44.069079955530505" lon="11.270137898820934"><ele>658.75</ele><time>2026-04-25T11:54:50.963Z</time></trkpt><trkpt lat="44.06897014903453" lon="11.27015135183014"><ele>655.5</ele><time>2026-04-25T11:54:51.963Z</time></trkpt><trkpt lat="44.068850917185976" lon="11.270164136735344"><ele>652.25</ele><time>2026-04-25T11:54:52.963Z</time></trkpt><trkpt lat="44.06872998079855" lon="11.270154738685914"><ele>649.0</ele><time>2026-04-25T11:54:53.963Z</time></trkpt><trkpt lat="44.068612655697265" lon="11.270126637371186"><ele>649.0</ele><time>2026-04-25T11:54:54.963Z</time></trkpt><trkpt lat="44.06848737278661" lon="11.270061496149578"><ele>649.0</ele><time>2026-04-25T11:54:55.963Z</time></trkpt><trkpt lat="44.06837784957156" lon="11.269977344318317"><ele>649.0</ele><time>2026-04-25T11:54:56.963Z</time></trkpt><trkpt lat="44.06827032305121" lon="11.269879404346742"><ele>649.0</ele><time>2026-04-25T11:54:57.963Z</time></trkpt><trkpt lat="44.068183001225606" lon="11.26977007591891"><ele>645.5</ele><time>2026-04-25T11:54:58.963Z</time></trkpt><trkpt lat="44.068112917869634" lon="11.269634957144355"><ele>642.0</ele><time>2026-04-25T11:54:59.963Z</time></trkpt><trkpt lat="44.06805838497329" lon="11.269503119056663"><ele>638.5</ele><time>2026-04-25T11:55:00.963Z</time></trkpt><trkpt lat="44.06801576741114" lon="11.269348423885768"><ele>635.0</ele><time>2026-04-25T11:55:01.963Z</time></trkpt><trkpt lat="44.06796909851052" lon="11.269174218686764"><ele>635.0</ele><time>2026-04-25T11:55:02.963Z</time></trkpt><trkpt lat="44.06792077489855" lon="11.269006572703258"><ele>635.0</ele><time>2026-04-25T11:55:03.963Z</time></trkpt><trkpt lat="44.06787735947783" lon="11.26883576186921"><ele>635.0</ele><time>2026-04-25T11:55:04.963Z</time></trkpt><trkpt lat="44.067843199909255" lon="11.268668028735918"><ele>635.0</ele><time>2026-04-25T11:55:05.963Z</time></trkpt><trkpt lat="44.067800158365856" lon="11.268510695759657"><ele>635.75</ele><time>2026-04-25T11:55:06.963Z</time></trkpt><trkpt lat="44.06772957024248" lon="11.268362626831328"><ele>636.5</ele><time>2026-04-25T11:55:07.963Z</time></trkpt><trkpt lat="44.06763451623673" lon="11.268264799701496"><ele>637.25</ele><time>2026-04-25T11:55:08.963Z</time></trkpt><trkpt lat="44.06753206480814" lon="11.268196352030287"><ele>638.0</ele><time>2026-04-25T11:55:09.963Z</time></trkpt><trkpt lat="44.067408572307436" lon="11.268151682927103"><ele>636.25</ele><time>2026-04-25T11:55:10.963Z</time></trkpt><trkpt lat="44.067281918247076" lon="11.268111488189929"><ele>634.5</ele><time>2026-04-25T11:55:11.963Z</time></trkpt><trkpt lat="44.067157926207464" lon="11.268069847707913"><ele>632.75</ele><time>2026-04-25T11:55:12.963Z</time></trkpt><trkpt lat="44.06704118038346" lon="11.268009881261037"><ele>631.0</ele><time>2026-04-25T11:55:13.963Z</time></trkpt><trkpt lat="44.066922818358016" lon="11.267916639582943"><ele>631.0</ele><time>2026-04-25T11:55:14.963Z</time></trkpt><trkpt lat="44.06681722064104" lon="11.26779010867457"><ele>631.0</ele><time>2026-04-25T11:55:15.963Z</time></trkpt><trkpt lat="44.06671088988845" lon="11.267663525534562"><ele>631.0</ele><time>2026-04-25T11:55:16.963Z</time></trkpt><trkpt lat="44.06660065849791" lon="11.2675536737017"><ele>631.0</ele><time>2026-04-25T11:55:17.963Z</time></trkpt><trkpt lat="44.066471572715216" lon="11.267459195688128"><ele>629.5</ele><time>2026-04-25T11:55:18.963Z</time></trkpt><trkpt lat="44.06633572211606" lon="11.26738574679897"><ele>628.0</ele><time>2026-04-25T11:55:19.963Z</time></trkpt><trkpt lat="44.06619276337773" lon="11.267340381373888"><ele>626.5</ele><time>2026-04-25T11:55:20.963Z</time></trkpt><trkpt lat="44.06604813850539" lon="11.267315531404252"><ele>625.0</ele><time>2026-04-25T11:55:21.963Z</time></trkpt><trkpt lat="44.06589634401034" lon="11.267296032928385"><ele>625.25</ele><time>2026-04-25T11:55:22.963Z</time></trkpt><trkpt lat="44.06576392895881" lon="11.267247621714976"><ele>625.5</ele><time>2026-04-25T11:55:23.963Z</time></trkpt><trkpt lat="44.06563245951782" lon="11.267175350525795"><ele>625.75</ele><time>2026-04-25T11:55:24.963Z</time></trkpt><trkpt lat="44.06549569923076" lon="11.26710753105056"><ele>626.0</ele><time>2026-04-25T11:55:25.963Z</time></trkpt><trkpt lat="44.065358771370875" lon="11.26704049291906"><ele>626.0</ele><time>2026-04-25T11:55:26.963Z</time></trkpt><trkpt lat="44.06521407555404" lon="11.266989129576578"><ele>626.0</ele><time>2026-04-25T11:55:27.963Z</time></trkpt><trkpt lat="44.06506727812908" lon="11.266939082256634"><ele>626.0</ele><time>2026-04-25T11:55:28.963Z</time></trkpt><trkpt lat="44.06493734412588" lon="11.266905990802627"><ele>626.0</ele><time>2026-04-25T11:55:29.963Z</time></trkpt><trkpt lat="44.06479822341574" lon="11.266917689790537"><ele>624.0</ele><time>2026-04-25T11:55:30.963Z</time></trkpt><trkpt lat="44.06467880367494" lon="11.266929853159557"><ele>622.0</ele><time>2026-04-25T11:55:31.963Z</time></trkpt><trkpt lat="44.064568500350795" lon="11.266924586333156"><ele>620.0</ele><time>2026-04-25T11:55:32.963Z</time></trkpt><trkpt lat="44.06446105771699" lon="11.266915574855929"><ele>618.0</ele><time>2026-04-25T11:55:33.963Z</time></trkpt><trkpt lat="44.064363877806066" lon="11.266869770939369"><ele>616.0</ele><time>2026-04-25T11:55:34.963Z</time></trkpt><trkpt lat="44.064279711874505" lon="11.266788949788204"><ele>616.0</ele><time>2026-04-25T11:55:35.963Z</time></trkpt><trkpt lat="44.06420109021694" lon="11.266675413229331"><ele>616.0</ele><time>2026-04-25T11:55:36.963Z</time></trkpt><trkpt lat="44.064129508390764" lon="11.26656320074208"><ele>616.0</ele><time>2026-04-25T11:55:37.963Z</time></trkpt><trkpt lat="44.064049529806915" lon="11.266437489731892"><ele>616.0</ele><time>2026-04-25T11:55:38.963Z</time></trkpt><trkpt lat="44.063964021634156" lon="11.266306673058878"><ele>612.25</ele><time>2026-04-25T11:55:39.963Z</time></trkpt><trkpt lat="44.063874770227976" lon="11.266174977520448"><ele>608.5</ele><time>2026-04-25T11:55:40.963Z</time></trkpt><trkpt lat="44.06378358457373" lon="11.266034489000706"><ele>604.75</ele><time>2026-04-25T11:55:41.963Z</time></trkpt><trkpt lat="44.06368399401683" lon="11.265892764391356"><ele>601.0</ele><time>2026-04-25T11:55:42.963Z</time></trkpt><trkpt lat="44.0635938506038" lon="11.265737096564452"><ele>601.5</ele><time>2026-04-25T11:55:43.963Z</time></trkpt><trkpt lat="44.063517852169475" lon="11.265579447135678"><ele>602.0</ele><time>2026-04-25T11:55:44.963Z</time></trkpt><trkpt lat="44.06345069721581" lon="11.265410526840697"><ele>602.5</ele><time>2026-04-25T11:55:45.963Z</time></trkpt><trkpt lat="44.06338043014978" lon="11.265236128119254"><ele>603.0</ele><time>2026-04-25T11:55:46.963Z</time></trkpt><trkpt lat="44.06331508147753" lon="11.26506127505178"><ele>599.5</ele><time>2026-04-25T11:55:47.963Z</time></trkpt><trkpt lat="44.063245203364716" lon="11.264884252410663"><ele>596.0</ele><time>2026-04-25T11:55:48.963Z</time></trkpt><trkpt lat="44.0631731291394" lon="11.264707968480867"><ele>592.5</ele><time>2026-04-25T11:55:49.963Z</time></trkpt><trkpt lat="44.06308054057403" lon="11.26455752537539"><ele>589.0</ele><time>2026-04-25T11:55:50.963Z</time></trkpt><trkpt lat="44.062960949064944" lon="11.264428321261155"><ele>589.0</ele><time>2026-04-25T11:55:51.963Z</time></trkpt><trkpt lat="44.06283775140851" lon="11.264320577258287"><ele>589.0</ele><time>2026-04-25T11:55:52.963Z</time></trkpt><trkpt lat="44.0627097720653" lon="11.26422378438066"><ele>589.0</ele><time>2026-04-25T11:55:53.963Z</time></trkpt><trkpt lat="44.06258813421837" lon="11.26413687019618"><ele>589.0</ele><time>2026-04-25T11:55:54.963Z</time></trkpt><trkpt lat="44.062462745984966" lon="11.264053012382583"><ele>586.25</ele><time>2026-04-25T11:55:55.963Z</time></trkpt><trkpt lat="44.062332176647814" lon="11.263964156212948"><ele>583.5</ele><time>2026-04-25T11:55:56.963Z</time></trkpt><trkpt lat="44.062198714678615" lon="11.263880529505755"><ele>580.75</ele><time>2026-04-25T11:55:57.963Z</time></trkpt><trkpt lat="44.06207130412951" lon="11.263800353403436"><ele>578.0</ele><time>2026-04-25T11:55:58.963Z</time></trkpt><trkpt lat="44.061948621989934" lon="11.263716224734234"><ele>577.75</ele><time>2026-04-25T11:55:59.963Z</time></trkpt><trkpt lat="44.06182022842004" lon="11.263635812952675"><ele>577.5</ele><time>2026-04-25T11:56:00.963Z</time></trkpt><trkpt lat="44.061683509479955" lon="11.263551169087334"><ele>577.25</ele><time>2026-04-25T11:56:01.963Z</time></trkpt><trkpt lat="44.06154142590665" lon="11.26345885764256"><ele>577.0</ele><time>2026-04-25T11:56:02.963Z</time></trkpt><trkpt lat="44.06139567253842" lon="11.263364438714953"><ele>575.3333333333334</ele><time>2026-04-25T11:56:03.963Z</time></trkpt><trkpt lat="44.06125357758788" lon="11.263271370924128"><ele>573.6666666666666</ele><time>2026-04-25T11:56:04.964Z</time></trkpt><trkpt lat="44.06110152641" lon="11.263181102435581"><ele>572.0</ele><time>2026-04-25T11:56:05.964Z</time></trkpt><trkpt lat="44.060941452531395" lon="11.263102046900649"><ele>573.0</ele><time>2026-04-25T11:56:06.964Z</time></trkpt><trkpt lat="44.060770491206476" lon="11.26304662829633"><ele>574.0</ele><time>2026-04-25T11:56:07.965Z</time></trkpt><trkpt lat="44.06059762960691" lon="11.263012635121694"><ele>575.0</ele><time>2026-04-25T11:56:08.965Z</time></trkpt><trkpt lat="44.06041827666937" lon="11.262992193096387"><ele>575.0</ele><time>2026-04-25T11:56:09.965Z</time></trkpt><trkpt lat="44.0602398897932" lon="11.262988437531758"><ele>575.0</ele><time>2026-04-25T11:56:10.965Z</time></trkpt><trkpt lat="44.060059588653615" lon="11.26298904477255"><ele>575.0</ele><time>2026-04-25T11:56:11.965Z</time></trkpt><trkpt lat="44.0598770375" lon="11.262986969541755"><ele>571.3333333333333</ele><time>2026-04-25T11:56:12.965Z</time></trkpt><trkpt lat="44.05969345837051" lon="11.262990756419041"><ele>567.6666666666666</ele><time>2026-04-25T11:56:13.964Z</time></trkpt><trkpt lat="44.0595161817645" lon="11.262997130881025"><ele>564.0</ele><time>2026-04-25T11:56:14.965Z</time></trkpt><trkpt lat="44.05934162205546" lon="11.262993651863113"><ele>564.0</ele><time>2026-04-25T11:56:15.965Z</time></trkpt><trkpt lat="44.059176431526105" lon="11.262997406282736"><ele>564.0</ele><time>2026-04-25T11:56:16.964Z</time></trkpt><trkpt lat="44.05901118106437" lon="11.263006448183857"><ele>564.0</ele><time>2026-04-25T11:56:17.965Z</time></trkpt><trkpt lat="44.05885527167308" lon="11.263020543231299"><ele>562.5</ele><time>2026-04-25T11:56:18.965Z</time></trkpt><trkpt lat="44.05870135121822" lon="11.263038527409163"><ele>561.0</ele><time>2026-04-25T11:56:19.965Z</time></trkpt><trkpt lat="44.058551720082384" lon="11.263044066324671"><ele>559.5</ele><time>2026-04-25T11:56:20.965Z</time></trkpt><trkpt lat="44.05840785817116" lon="11.263027609562606"><ele>558.0</ele><time>2026-04-25T11:56:21.965Z</time></trkpt><trkpt lat="44.058269345095795" lon="11.262985195199601"><ele>557.25</ele><time>2026-04-25T11:56:22.965Z</time></trkpt><trkpt lat="44.05814947786836" lon="11.262898333474709"><ele>556.5</ele><time>2026-04-25T11:56:23.965Z</time></trkpt><trkpt lat="44.05803130745999" lon="11.262810059084"><ele>555.75</ele><time>2026-04-25T11:56:24.965Z</time></trkpt><trkpt lat="44.05791666457669" lon="11.262713614905929"><ele>555.0</ele><time>2026-04-25T11:56:25.965Z</time></trkpt><trkpt lat="44.057815634312085" lon="11.262622984092665"><ele>555.0</ele><time>2026-04-25T11:56:26.965Z</time></trkpt><trkpt lat="44.05771071075189" lon="11.262538324263813"><ele>555.0</ele><time>2026-04-25T11:56:27.965Z</time></trkpt><trkpt lat="44.057599697416045" lon="11.262479007905071"><ele>555.0</ele><time>2026-04-25T11:56:28.965Z</time></trkpt><trkpt lat="44.05748755477986" lon="11.262440975683925"><ele>555.0</ele><time>2026-04-25T11:56:29.965Z</time></trkpt><trkpt lat="44.05737256611578" lon="11.26241865239118"><ele>553.25</ele><time>2026-04-25T11:56:30.965Z</time></trkpt><trkpt lat="44.057252623579224" lon="11.262411245832626"><ele>551.5</ele><time>2026-04-25T11:56:31.965Z</time></trkpt><trkpt lat="44.05714476743882" lon="11.262452571374071"><ele>549.75</ele><time>2026-04-25T11:56:32.965Z</time></trkpt><trkpt lat="44.057037833088096" lon="11.262524119437948"><ele>548.0</ele><time>2026-04-25T11:56:33.965Z</time></trkpt><trkpt lat="44.05693450681824" lon="11.262604080207486"><ele>548.0</ele><time>2026-04-25T11:56:34.965Z</time></trkpt><trkpt lat="44.056832913092656" lon="11.262684215724224"><ele>548.0</ele><time>2026-04-25T11:56:35.965Z</time></trkpt><trkpt lat="44.05672817474658" lon="11.262747862723321"><ele>548.0</ele><time>2026-04-25T11:56:36.965Z</time></trkpt><trkpt lat="44.05662205744967" lon="11.262783080348177"><ele>548.0</ele><time>2026-04-25T11:56:37.965Z</time></trkpt><trkpt lat="44.056518855976115" lon="11.262777116791499"><ele>548.0</ele><time>2026-04-25T11:56:38.965Z</time></trkpt><trkpt lat="44.05641102709902" lon="11.262721668797482"><ele>545.75</ele><time>2026-04-25T11:56:39.965Z</time></trkpt><trkpt lat="44.05631248000177" lon="11.262610426741496"><ele>543.5</ele><time>2026-04-25T11:56:40.965Z</time></trkpt><trkpt lat="44.05620255877522" lon="11.26248738755628"><ele>541.25</ele><time>2026-04-25T11:56:41.965Z</time></trkpt><trkpt lat="44.05605790459449" lon="11.262391198240271"><ele>539.0</ele><time>2026-04-25T11:56:42.965Z</time></trkpt><trkpt lat="44.055902498917106" lon="11.262315415575353"><ele>536.0</ele><time>2026-04-25T11:56:43.965Z</time></trkpt><trkpt lat="44.05572854603676" lon="11.262251315372488"><ele>533.0</ele><time>2026-04-25T11:56:44.965Z</time></trkpt><trkpt lat="44.05555759125884" lon="11.262188887293975"><ele>530.0</ele><time>2026-04-25T11:56:45.965Z</time></trkpt><trkpt lat="44.05539562377562" lon="11.262127810609007"><ele>530.0</ele><time>2026-04-25T11:56:46.965Z</time></trkpt><trkpt lat="44.055234884431655" lon="11.262070960331801"><ele>530.0</ele><time>2026-04-25T11:56:47.965Z</time></trkpt><trkpt lat="44.05508217853075" lon="11.262012209851841"><ele>530.0</ele><time>2026-04-25T11:56:48.965Z</time></trkpt><trkpt lat="44.054929925738705" lon="11.261949935303754"><ele>531.0</ele><time>2026-04-25T11:56:49.965Z</time></trkpt><trkpt lat="44.05478407149768" lon="11.26188575577651"><ele>532.0</ele><time>2026-04-25T11:56:50.965Z</time></trkpt><trkpt lat="44.05464432375996" lon="11.261832259364198"><ele>533.0</ele><time>2026-04-25T11:56:51.965Z</time></trkpt><trkpt lat="44.054511239938186" lon="11.261779126774364"><ele>534.0</ele><time>2026-04-25T11:56:52.965Z</time></trkpt><trkpt lat="44.0543762149685" lon="11.261723928803866"><ele>534.0</ele><time>2026-04-25T11:56:53.965Z</time></trkpt><trkpt lat="44.05423594458344" lon="11.261671783613888"><ele>534.0</ele><time>2026-04-25T11:56:54.965Z</time></trkpt><trkpt lat="44.05410098848285" lon="11.261616292716463"><ele>534.0</ele><time>2026-04-25T11:56:55.965Z</time></trkpt><trkpt lat="44.05396819527065" lon="11.261554535241968"><ele>534.0</ele><time>2026-04-25T11:56:56.965Z</time></trkpt><trkpt lat="44.05383645591762" lon="11.261502050792751"><ele>535.25</ele><time>2026-04-25T11:56:57.965Z</time></trkpt><trkpt lat="44.05371115735643" lon="11.261449862642735"><ele>536.5</ele><time>2026-04-25T11:56:58.965Z</time></trkpt><trkpt lat="44.053607041930334" lon="11.261354394953576"><ele>537.75</ele><time>2026-04-25T11:56:59.965Z</time></trkpt><trkpt lat="44.05350623956881" lon="11.261276849903568"><ele>539.0</ele><time>2026-04-25T11:57:00.965Z</time></trkpt><trkpt lat="44.05340041649244" lon="11.261199464492773"><ele>536.25</ele><time>2026-04-25T11:57:01.965Z</time></trkpt><trkpt lat="44.05330805960429" lon="11.26109755190893"><ele>533.5</ele><time>2026-04-25T11:57:02.965Z</time></trkpt><trkpt lat="44.05319986119732" lon="11.26100343513632"><ele>530.75</ele><time>2026-04-25T11:57:03.965Z</time></trkpt><trkpt lat="44.05309522400301" lon="11.260910652468189"><ele>528.0</ele><time>2026-04-25T11:57:04.965Z</time></trkpt><trkpt lat="44.052991439669945" lon="11.260815203539265"><ele>528.0</ele><time>2026-04-25T11:57:05.965Z</time></trkpt><trkpt lat="44.0528855812007" lon="11.260731226096324"><ele>528.0</ele><time>2026-04-25T11:57:06.965Z</time></trkpt><trkpt lat="44.0527785449412" lon="11.260664885885236"><ele>528.0</ele><time>2026-04-25T11:57:07.965Z</time></trkpt><trkpt lat="44.05265759337161" lon="11.260606177884732"><ele>528.0</ele><time>2026-04-25T11:57:08.965Z</time></trkpt><trkpt lat="44.052540323080336" lon="11.26058520560134"><ele>526.25</ele><time>2026-04-25T11:57:09.965Z</time></trkpt><trkpt lat="44.05241778174763" lon="11.26059126784544"><ele>524.5</ele><time>2026-04-25T11:57:10.965Z</time></trkpt><trkpt lat="44.052291778885895" lon="11.260628816068532"><ele>522.75</ele><time>2026-04-25T11:57:11.965Z</time></trkpt><trkpt lat="44.052159463983294" lon="11.260637940800466"><ele>521.0</ele><time>2026-04-25T11:57:12.965Z</time></trkpt><trkpt lat="44.05201541487051" lon="11.260678057782522"><ele>521.0</ele><time>2026-04-25T11:57:13.965Z</time></trkpt><trkpt lat="44.05185346140585" lon="11.260732197768967"><ele>521.0</ele><time>2026-04-25T11:57:14.965Z</time></trkpt><trkpt lat="44.05169877819298" lon="11.26079349953738"><ele>521.0</ele><time>2026-04-25T11:57:15.965Z</time></trkpt><trkpt lat="44.05155713748356" lon="11.26084695248055"><ele>520.0</ele><time>2026-04-25T11:57:16.965Z</time></trkpt><trkpt lat="44.05141115386438" lon="11.260936745097904"><ele>519.0</ele><time>2026-04-25T11:57:17.965Z</time></trkpt><trkpt lat="44.051267290058924" lon="11.260997080097955"><ele>518.0</ele><time>2026-04-25T11:57:18.965Z</time></trkpt><trkpt lat="44.05113248332588" lon="11.261055376043089"><ele>518.0</ele><time>2026-04-25T11:57:19.965Z</time></trkpt><trkpt lat="44.051004215329925" lon="11.261092445170625"><ele>518.0</ele><time>2026-04-25T11:57:20.965Z</time></trkpt><trkpt lat="44.05088479876967" lon="11.261137303939858"><ele>518.0</ele><time>2026-04-25T11:57:21.965Z</time></trkpt><trkpt lat="44.0507667957563" lon="11.261174413058347"><ele>518.0</ele><time>2026-04-25T11:57:22.965Z</time></trkpt><trkpt lat="44.05064898225627" lon="11.261213905975335"><ele>517.5</ele><time>2026-04-25T11:57:23.965Z</time></trkpt><trkpt lat="44.050516821322866" lon="11.261226160733617"><ele>517.0</ele><time>2026-04-25T11:57:24.965Z</time></trkpt><trkpt lat="44.05038697824611" lon="11.261253808731993"><ele>516.5</ele><time>2026-04-25T11:57:25.965Z</time></trkpt><trkpt lat="44.050261708039265" lon="11.261271569481389"><ele>516.0</ele><time>2026-04-25T11:57:26.965Z</time></trkpt><trkpt lat="44.05013546367991" lon="11.261283323285898"><ele>516.0</ele><time>2026-04-25T11:57:27.965Z</time></trkpt><trkpt lat="44.05000091753633" lon="11.26128522485858"><ele>516.0</ele><time>2026-04-25T11:57:28.965Z</time></trkpt><trkpt lat="44.04985707032557" lon="11.261276401635866"><ele>516.0</ele><time>2026-04-25T11:57:29.965Z</time></trkpt><trkpt lat="44.049707382931956" lon="11.261260946712184"><ele>516.0</ele><time>2026-04-25T11:57:30.965Z</time></trkpt><trkpt lat="44.04956366497269" lon="11.26123405494958"><ele>515.5</ele><time>2026-04-25T11:57:31.965Z</time></trkpt><trkpt lat="44.04942651560638" lon="11.26119758985836"><ele>515.0</ele><time>2026-04-25T11:57:32.965Z</time></trkpt><trkpt lat="44.04930654077763" lon="11.261159398817403"><ele>514.5</ele><time>2026-04-25T11:57:33.965Z</time></trkpt><trkpt lat="44.04919271434402" lon="11.26112248336552"><ele>514.0</ele><time>2026-04-25T11:57:34.965Z</time></trkpt><trkpt lat="44.04907434496595" lon="11.26108341228771"><ele>515.0</ele><time>2026-04-25T11:57:35.965Z</time></trkpt><trkpt lat="44.04895721020951" lon="11.261039695278562"><ele>516.0</ele><time>2026-04-25T11:57:36.965Z</time></trkpt><trkpt lat="44.0488325269282" lon="11.260995133366398"><ele>517.0</ele><time>2026-04-25T11:57:37.965Z</time></trkpt><trkpt lat="44.048725771964364" lon="11.260882927353538"><ele>518.0</ele><time>2026-04-25T11:57:38.965Z</time></trkpt><trkpt lat="44.04861274174485" lon="11.26077037768834"><ele>518.0</ele><time>2026-04-25T11:57:39.965Z</time></trkpt><trkpt lat="44.048498764959305" lon="11.260649127359828"><ele>518.0</ele><time>2026-04-25T11:57:40.965Z</time></trkpt><trkpt lat="44.04837059940425" lon="11.260534990093102"><ele>518.0</ele><time>2026-04-25T11:57:41.965Z</time></trkpt><trkpt lat="44.0482591561427" lon="11.26038498060636"><ele>515.6666666666666</ele><time>2026-04-25T11:57:42.965Z</time></trkpt><trkpt lat="44.04814847287121" lon="11.260245420129722"><ele>513.3333333333334</ele><time>2026-04-25T11:57:43.965Z</time></trkpt><trkpt lat="44.04804021659666" lon="11.260085765604249"><ele>511.0</ele><time>2026-04-25T11:57:44.965Z</time></trkpt><trkpt lat="44.04792789998968" lon="11.25993573759724"><ele>507.6666666666667</ele><time>2026-04-25T11:57:45.965Z</time></trkpt><trkpt lat="44.04778876307628" lon="11.259774565274002"><ele>504.33333333333337</ele><time>2026-04-25T11:57:46.965Z</time></trkpt><trkpt lat="44.047627582453295" lon="11.25962206897585"><ele>501.0</ele><time>2026-04-25T11:57:47.965Z</time></trkpt><trkpt lat="44.04747428284227" lon="11.259475542736892"><ele>507.0</ele><time>2026-04-25T11:57:48.965Z</time></trkpt><trkpt lat="44.04732598846591" lon="11.259334192936375"><ele>513.0</ele><time>2026-04-25T11:57:49.965Z</time></trkpt><trkpt lat="44.04718809865004" lon="11.259192496088756"><ele>519.0</ele><time>2026-04-25T11:57:50.965Z</time></trkpt><trkpt lat="44.047053747917666" lon="11.259058245964306"><ele>516.75</ele><time>2026-04-25T11:57:51.965Z</time></trkpt><trkpt lat="44.04693164027289" lon="11.258926561616807"><ele>514.5</ele><time>2026-04-25T11:57:52.965Z</time></trkpt><trkpt lat="44.04681495214553" lon="11.258801107320144"><ele>512.25</ele><time>2026-04-25T11:57:53.965Z</time></trkpt><trkpt lat="44.046710304289896" lon="11.25867296636275"><ele>510.0</ele><time>2026-04-25T11:57:54.965Z</time></trkpt><trkpt lat="44.04661893616808" lon="11.258556686877574"><ele>510.0</ele><time>2026-04-25T11:57:55.965Z</time></trkpt><trkpt lat="44.04652960330104" lon="11.258438445367066"><ele>510.0</ele><time>2026-04-25T11:57:56.965Z</time></trkpt><trkpt lat="44.04644305317298" lon="11.258325516744831"><ele>510.0</ele><time>2026-04-25T11:57:57.965Z</time></trkpt><trkpt lat="44.04635259050369" lon="11.25822833456484"><ele>510.0</ele><time>2026-04-25T11:57:58.966Z</time></trkpt><trkpt lat="44.046253480576574" lon="11.258157720007056"><ele>510.0</ele><time>2026-04-25T11:57:59.966Z</time></trkpt><trkpt lat="44.04613604663638" lon="11.258105232623267"><ele>510.0</ele><time>2026-04-25T11:58:00.966Z</time></trkpt><trkpt lat="44.045996111672736" lon="11.25811505450756"><ele>510.0</ele><time>2026-04-25T11:58:01.966Z</time></trkpt><trkpt lat="44.04586362801842" lon="11.25817220823979"><ele>510.0</ele><time>2026-04-25T11:58:02.966Z</time></trkpt><trkpt lat="44.04572467903501" lon="11.258248985373662"><ele>507.66666666666663</ele><time>2026-04-25T11:58:03.966Z</time></trkpt><trkpt lat="44.04557229942739" lon="11.258330432109194"><ele>505.3333333333333</ele><time>2026-04-25T11:58:04.966Z</time></trkpt><trkpt lat="44.045434683008715" lon="11.258394832356874"><ele>503.0</ele><time>2026-04-25T11:58:05.966Z</time></trkpt><trkpt lat="44.04529284792528" lon="11.258435712404564"><ele>503.0</ele><time>2026-04-25T11:58:06.966Z</time></trkpt><trkpt lat="44.045151513735505" lon="11.258467983951586"><ele>503.0</ele><time>2026-04-25T11:58:07.966Z</time></trkpt><trkpt lat="44.04501368994547" lon="11.25850501106843"><ele>503.0</ele><time>2026-04-25T11:58:08.966Z</time></trkpt><trkpt lat="44.04489219821463" lon="11.258540886007369"><ele>503.0</ele><time>2026-04-25T11:58:09.966Z</time></trkpt><trkpt lat="44.04477192298591" lon="11.25857680197399"><ele>500.25</ele><time>2026-04-25T11:58:10.966Z</time></trkpt><trkpt lat="44.04464767728652" lon="11.258637592141602"><ele>497.5</ele><time>2026-04-25T11:58:11.966Z</time></trkpt><trkpt lat="44.044516329678444" lon="11.258676809452332"><ele>494.75</ele><time>2026-04-25T11:58:12.966Z</time></trkpt><trkpt lat="44.044383318073784" lon="11.258706561127486"><ele>492.0</ele><time>2026-04-25T11:58:13.966Z</time></trkpt><trkpt lat="44.04424355209618" lon="11.25874205016041"><ele>490.33333333333337</ele><time>2026-04-25T11:58:14.966Z</time></trkpt><trkpt lat="44.044093917018095" lon="11.258784595213097"><ele>488.6666666666667</ele><time>2026-04-25T11:58:15.966Z</time></trkpt><trkpt lat="44.04393931782833" lon="11.258826734137152"><ele>487.0</ele><time>2026-04-25T11:58:16.966Z</time></trkpt><trkpt lat="44.043786649187986" lon="11.25886515534668"><ele>487.0</ele><time>2026-04-25T11:58:17.967Z</time></trkpt><trkpt lat="44.04363758349983" lon="11.258892061029613"><ele>487.0</ele><time>2026-04-25T11:58:18.967Z</time></trkpt><trkpt lat="44.04348803759577" lon="11.258907009588278"><ele>487.0</ele><time>2026-04-25T11:58:19.966Z</time></trkpt><trkpt lat="44.043338609162014" lon="11.258918507717183"><ele>486.75</ele><time>2026-04-25T11:58:20.966Z</time></trkpt><trkpt lat="44.04319719872509" lon="11.258930253784756"><ele>486.5</ele><time>2026-04-25T11:58:21.966Z</time></trkpt><trkpt lat="44.043060243750055" lon="11.258940808193787"><ele>486.25</ele><time>2026-04-25T11:58:22.966Z</time></trkpt><trkpt lat="44.042933143428776" lon="11.258954139765763"><ele>486.0</ele><time>2026-04-25T11:58:23.966Z</time></trkpt><trkpt lat="44.04280928150239" lon="11.258978067782566"><ele>487.1666666666667</ele><time>2026-04-25T11:58:24.966Z</time></trkpt><trkpt lat="44.042699369294205" lon="11.259002794320404"><ele>488.33333333333337</ele><time>2026-04-25T11:58:25.966Z</time></trkpt><trkpt lat="44.04260545145921" lon="11.259032654895742"><ele>489.5</ele><time>2026-04-25T11:58:26.966Z</time></trkpt><trkpt lat="44.04252504689675" lon="11.25907683829645"><ele>490.6666666666667</ele><time>2026-04-25T11:58:27.966Z</time></trkpt><trkpt lat="44.0424585629185" lon="11.259125275253881"><ele>491.83333333333337</ele><time>2026-04-25T11:58:28.966Z</time></trkpt><trkpt lat="44.04240102246122" lon="11.259183081906162"><ele>493.0</ele><time>2026-04-25T11:58:29.966Z</time></trkpt><trkpt lat="44.04234550131697" lon="11.259258203045324"><ele>493.00000000000006</ele><time>2026-04-25T11:58:30.966Z</time></trkpt><trkpt lat="44.042292574844915" lon="11.25934235894102"><ele>493.0</ele><time>2026-04-25T11:58:31.966Z</time></trkpt><trkpt lat="44.042239794536705" lon="11.259418349900534"><ele>493.0</ele><time>2026-04-25T11:58:32.966Z</time></trkpt><trkpt lat="44.0421857662344" lon="11.259496624143981"><ele>493.0</ele><time>2026-04-25T11:58:33.966Z</time></trkpt><trkpt lat="44.04213062141016" lon="11.259574775856938"><ele>493.00000000000006</ele><time>2026-04-25T11:58:34.966Z</time></trkpt><trkpt lat="44.04207474926352" lon="11.259660631503108"><ele>493.0</ele><time>2026-04-25T11:58:35.966Z</time></trkpt><trkpt lat="44.042015569065235" lon="11.259747507077591"><ele>492.59999999999997</ele><time>2026-04-25T11:58:36.966Z</time></trkpt><trkpt lat="44.041949258311625" lon="11.259831747347246"><ele>492.19999999999993</ele><time>2026-04-25T11:58:37.966Z</time></trkpt><trkpt lat="44.04187947685304" lon="11.259923210271307"><ele>491.8</ele><time>2026-04-25T11:58:38.966Z</time></trkpt><trkpt lat="44.04179509312207" lon="11.260031162320358"><ele>491.4</ele><time>2026-04-25T11:58:39.966Z</time></trkpt><trkpt lat="44.04169936145546" lon="11.260132585400157"><ele>491.0</ele><time>2026-04-25T11:58:40.965Z</time></trkpt><trkpt lat="44.0415949330875" lon="11.260221135486947"><ele>489.25</ele><time>2026-04-25T11:58:41.965Z</time></trkpt><trkpt lat="44.04147228220224" lon="11.26026148918064"><ele>487.5</ele><time>2026-04-25T11:58:42.965Z</time></trkpt><trkpt lat="44.04134699975049" lon="11.260314444443996"><ele>485.75</ele><time>2026-04-25T11:58:43.965Z</time></trkpt><trkpt lat="44.04121616612398" lon="11.26037893452116"><ele>484.0</ele><time>2026-04-25T11:58:44.965Z</time></trkpt><trkpt lat="44.0410816658308" lon="11.260415898945988"><ele>484.0</ele><time>2026-04-25T11:58:45.965Z</time></trkpt><trkpt lat="44.040942328670035" lon="11.260458038934527"><ele>484.0</ele><time>2026-04-25T11:58:46.965Z</time></trkpt><trkpt lat="44.04078819481209" lon="11.26050244545589"><ele>484.0</ele><time>2026-04-25T11:58:47.965Z</time></trkpt><trkpt lat="44.040638144290895" lon="11.260553564722054"><ele>482.0</ele><time>2026-04-25T11:58:48.965Z</time></trkpt><trkpt lat="44.040471435314984" lon="11.260608135706589"><ele>480.0</ele><time>2026-04-25T11:58:49.965Z</time></trkpt><trkpt lat="44.040309098100245" lon="11.260650951971208"><ele>478.0</ele><time>2026-04-25T11:58:50.965Z</time></trkpt><trkpt lat="44.040157001486214" lon="11.260711068385454"><ele>476.0</ele><time>2026-04-25T11:58:51.965Z</time></trkpt><trkpt lat="44.0399980544071" lon="11.260770248897945"><ele>474.0</ele><time>2026-04-25T11:58:52.965Z</time></trkpt><trkpt lat="44.039847378672036" lon="11.260829300984387"><ele>472.0</ele><time>2026-04-25T11:58:53.965Z</time></trkpt><trkpt lat="44.03968696849655" lon="11.26091104173743"><ele>472.0</ele><time>2026-04-25T11:58:54.965Z</time></trkpt><trkpt lat="44.039528378023114" lon="11.261000558345309"><ele>472.0</ele><time>2026-04-25T11:58:55.965Z</time></trkpt><trkpt lat="44.03936644000539" lon="11.261098963465429"><ele>472.0</ele><time>2026-04-25T11:58:56.965Z</time></trkpt><trkpt lat="44.03920830874396" lon="11.261198900802484"><ele>472.33333333333337</ele><time>2026-04-25T11:58:57.965Z</time></trkpt><trkpt lat="44.03905237835933" lon="11.261291011755224"><ele>472.66666666666663</ele><time>2026-04-25T11:58:58.965Z</time></trkpt><trkpt lat="44.038898039912226" lon="11.261387709156645"><ele>473.0</ele><time>2026-04-25T11:58:59.965Z</time></trkpt><trkpt lat="44.03873975933638" lon="11.261488383483083"><ele>472.3333333333333</ele><time>2026-04-25T11:59:00.965Z</time></trkpt><trkpt lat="44.03857424151437" lon="11.261588825597387"><ele>471.66666666666663</ele><time>2026-04-25T11:59:01.965Z</time></trkpt><trkpt lat="44.03840893031999" lon="11.261676225855092"><ele>471.0</ele><time>2026-04-25T11:59:02.965Z</time></trkpt><trkpt lat="44.038252830500795" lon="11.261764894425685"><ele>471.0</ele><time>2026-04-25T11:59:03.965Z</time></trkpt><trkpt lat="44.038093296106965" lon="11.26185162548685"><ele>471.0</ele><time>2026-04-25T11:59:04.965Z</time></trkpt><trkpt lat="44.03793850903325" lon="11.261947216976564"><ele>471.0</ele><time>2026-04-25T11:59:05.965Z</time></trkpt><trkpt lat="44.037784798372165" lon="11.262039336429792"><ele>471.0</ele><time>2026-04-25T11:59:06.965Z</time></trkpt><trkpt lat="44.03763072263308" lon="11.26212468506951"><ele>471.0</ele><time>2026-04-25T11:59:07.965Z</time></trkpt><trkpt lat="44.03747737244136" lon="11.26221787471112"><ele>471.0</ele><time>2026-04-25T11:59:08.965Z</time></trkpt><trkpt lat="44.03732001282753" lon="11.262297006704758"><ele>468.66666666666663</ele><time>2026-04-25T11:59:09.965Z</time></trkpt><trkpt lat="44.03716442991132" lon="11.262379317220525"><ele>466.3333333333333</ele><time>2026-04-25T11:59:10.965Z</time></trkpt><trkpt lat="44.037006565860196" lon="11.262468059403188"><ele>464.0</ele><time>2026-04-25T11:59:11.965Z</time></trkpt><trkpt lat="44.03684525398149" lon="11.262549439253275"><ele>464.0</ele><time>2026-04-25T11:59:12.965Z</time></trkpt><trkpt lat="44.036675256257716" lon="11.26263076422624"><ele>464.0</ele><time>2026-04-25T11:59:13.965Z</time></trkpt><trkpt lat="44.036510798456796" lon="11.262705558493417"><ele>464.0</ele><time>2026-04-25T11:59:14.965Z</time></trkpt><trkpt lat="44.036367602934135" lon="11.262761541392434"><ele>464.5</ele><time>2026-04-25T11:59:15.965Z</time></trkpt><trkpt lat="44.03623541834705" lon="11.262780244559737"><ele>465.0</ele><time>2026-04-25T11:59:16.965Z</time></trkpt><trkpt lat="44.036101586384" lon="11.26276285878237"><ele>465.5</ele><time>2026-04-25T11:59:17.966Z</time></trkpt><trkpt lat="44.035959754494165" lon="11.262712622195064"><ele>466.0</ele><time>2026-04-25T11:59:18.966Z</time></trkpt><trkpt lat="44.03582529897524" lon="11.262647490885474"><ele>467.0</ele><time>2026-04-25T11:59:19.966Z</time></trkpt><trkpt lat="44.03568693241884" lon="11.262581221768672"><ele>468.0</ele><time>2026-04-25T11:59:20.966Z</time></trkpt><trkpt lat="44.0355461947165" lon="11.262517290781778"><ele>469.0</ele><time>2026-04-25T11:59:21.966Z</time></trkpt><trkpt lat="44.03539629642199" lon="11.262454420673473"><ele>469.0</ele><time>2026-04-25T11:59:22.966Z</time></trkpt><trkpt lat="44.03524100207633" lon="11.262394277395925"><ele>469.0</ele><time>2026-04-25T11:59:23.966Z</time></trkpt><trkpt lat="44.035097433679745" lon="11.262334407082443"><ele>469.0</ele><time>2026-04-25T11:59:24.966Z</time></trkpt><trkpt lat="44.034950292769935" lon="11.26227602490496"><ele>470.6666666666667</ele><time>2026-04-25T11:59:25.966Z</time></trkpt><trkpt lat="44.03479992185165" lon="11.262224596710277"><ele>472.33333333333337</ele><time>2026-04-25T11:59:26.966Z</time></trkpt><trkpt lat="44.03464140998785" lon="11.262176230985641"><ele>474.0</ele><time>2026-04-25T11:59:27.966Z</time></trkpt><trkpt lat="44.03449288486811" lon="11.262129055406021"><ele>474.0</ele><time>2026-04-25T11:59:28.966Z</time></trkpt><trkpt lat="44.03434015603191" lon="11.26207860334121"><ele>474.0</ele><time>2026-04-25T11:59:29.966Z</time></trkpt><trkpt lat="44.03417067963221" lon="11.262024481792512"><ele>474.0</ele><time>2026-04-25T11:59:30.966Z</time></trkpt><trkpt lat="44.0339799912161" lon="11.261965585230032"><ele>469.0</ele><time>2026-04-25T11:59:31.966Z</time></trkpt><trkpt lat="44.03379518750958" lon="11.261910570847872"><ele>464.0</ele><time>2026-04-25T11:59:32.966Z</time></trkpt><trkpt lat="44.033603886039266" lon="11.261852864324133"><ele>459.0</ele><time>2026-04-25T11:59:33.966Z</time></trkpt><trkpt lat="44.03341791035601" lon="11.261794562882942"><ele>455.33333333333337</ele><time>2026-04-25T11:59:34.966Z</time></trkpt><trkpt lat="44.03323186366328" lon="11.261732627911243"><ele>451.6666666666667</ele><time>2026-04-25T11:59:35.966Z</time></trkpt><trkpt lat="44.033038060388584" lon="11.261664824170426"><ele>448.0</ele><time>2026-04-25T11:59:36.966Z</time></trkpt><trkpt lat="44.03284126828588" lon="11.261601238908904"><ele>448.0</ele><time>2026-04-25T11:59:37.966Z</time></trkpt><trkpt lat="44.032629400695654" lon="11.261536378254274"><ele>448.0</ele><time>2026-04-25T11:59:38.966Z</time></trkpt><trkpt lat="44.03239987632947" lon="11.261468754336777"><ele>450.0</ele><time>2026-04-25T11:59:39.966Z</time></trkpt><trkpt lat="44.03216684342889" lon="11.261397985105893"><ele>452.0</ele><time>2026-04-25T11:59:40.966Z</time></trkpt><trkpt lat="44.03191607246458" lon="11.261318584712614"><ele>452.0</ele><time>2026-04-25T11:59:41.966Z</time></trkpt><trkpt lat="44.03167158920777" lon="11.261247264203483"><ele>452.0</ele><time>2026-04-25T11:59:42.966Z</time></trkpt><trkpt lat="44.03144349024308" lon="11.261173346215479"><ele>451.0</ele><time>2026-04-25T11:59:43.966Z</time></trkpt><trkpt lat="44.03123312044366" lon="11.26110372874033"><ele>450.0</ele><time>2026-04-25T11:59:44.966Z</time></trkpt><trkpt lat="44.031027616875754" lon="11.261031620808975"><ele>449.0</ele><time>2026-04-25T11:59:45.966Z</time></trkpt><trkpt lat="44.03082783526741" lon="11.26096688243969"><ele>450.66666666666663</ele><time>2026-04-25T11:59:46.966Z</time></trkpt><trkpt lat="44.030639056024604" lon="11.260907776744286"><ele>452.33333333333337</ele><time>2026-04-25T11:59:47.966Z</time></trkpt><trkpt lat="44.03046285331709" lon="11.260846869800636"><ele>454.0</ele><time>2026-04-25T11:59:48.966Z</time></trkpt><trkpt lat="44.03029963463357" lon="11.260795960208723"><ele>454.0</ele><time>2026-04-25T11:59:49.966Z</time></trkpt><trkpt lat="44.03014534008891" lon="11.260752831197433"><ele>454.0</ele><time>2026-04-25T11:59:50.966Z</time></trkpt><trkpt lat="44.030005304471565" lon="11.260726971158004"><ele>454.0</ele><time>2026-04-25T11:59:51.966Z</time></trkpt><trkpt lat="44.02985730065174" lon="11.260720462317678"><ele>454.0</ele><time>2026-04-25T11:59:52.966Z</time></trkpt><trkpt lat="44.02970859474794" lon="11.260751678953236"><ele>455.25</ele><time>2026-04-25T11:59:53.966Z</time></trkpt><trkpt lat="44.02956148068349" lon="11.260814072292852"><ele>456.5</ele><time>2026-04-25T11:59:54.966Z</time></trkpt><trkpt lat="44.02943207307876" lon="11.260869126762888"><ele>457.75</ele><time>2026-04-25T11:59:55.966Z</time></trkpt><trkpt lat="44.029316567440056" lon="11.260921482381553"><ele>459.0</ele><time>2026-04-25T11:59:56.966Z</time></trkpt><trkpt lat="44.02920341083838" lon="11.260988678987074"><ele>459.75</ele><time>2026-04-25T11:59:57.966Z</time></trkpt><trkpt lat="44.02910037024565" lon="11.261081715532756"><ele>460.5</ele><time>2026-04-25T11:59:58.966Z</time></trkpt><trkpt lat="44.02901638797367" lon="11.261198871486236"><ele>461.25</ele><time>2026-04-25T11:59:59.966Z</time></trkpt><trkpt lat="44.02894935681647" lon="11.261355737390724"><ele>462.0</ele><time>2026-04-25T12:00:00.966Z</time></trkpt><trkpt lat="44.02888810479216" lon="11.261537387751984"><ele>462.0</ele><time>2026-04-25T12:00:01.966Z</time></trkpt><trkpt lat="44.02883229721879" lon="11.261718729342856"><ele>462.0</ele><time>2026-04-25T12:00:02.966Z</time></trkpt><trkpt lat="44.028790121737494" lon="11.261878813072702"><ele>462.0</ele><time>2026-04-25T12:00:03.966Z</time></trkpt><trkpt lat="44.028749632808605" lon="11.262020181229277"><ele>462.0</ele><time>2026-04-25T12:00:04.966Z</time></trkpt><trkpt lat="44.02869745558031" lon="11.26215257017962"><ele>462.0</ele><time>2026-04-25T12:00:05.966Z</time></trkpt><trkpt lat="44.02864062107993" lon="11.262281252387366"><ele>462.00000000000006</ele><time>2026-04-25T12:00:06.966Z</time></trkpt><trkpt lat="44.02856535438697" lon="11.262392436921903"><ele>462.00000000000006</ele><time>2026-04-25T12:00:07.966Z</time></trkpt><trkpt lat="44.028476694815836" lon="11.262475565174721"><ele>462.0</ele><time>2026-04-25T12:00:08.966Z</time></trkpt><trkpt lat="44.02837165309855" lon="11.262521527655284"><ele>462.0</ele><time>2026-04-25T12:00:09.966Z</time></trkpt><trkpt lat="44.02826724043157" lon="11.26259527564102"><ele>462.8</ele><time>2026-04-25T12:00:10.966Z</time></trkpt><trkpt lat="44.02817550522836" lon="11.26265289139096"><ele>463.6</ele><time>2026-04-25T12:00:11.966Z</time></trkpt><trkpt lat="44.02808194259788" lon="11.262719999251404"><ele>464.40000000000003</ele><time>2026-04-25T12:00:12.966Z</time></trkpt><trkpt lat="44.02800370419617" lon="11.262826399274235"><ele>465.20000000000005</ele><time>2026-04-25T12:00:13.966Z</time></trkpt><trkpt lat="44.02793922563359" lon="11.262975924987813"><ele>466.0</ele><time>2026-04-25T12:00:14.966Z</time></trkpt><trkpt lat="44.02788691663024" lon="11.26316480537787"><ele>466.0</ele><time>2026-04-25T12:00:15.966Z</time></trkpt><trkpt lat="44.02784247857556" lon="11.263378051139012"><ele>466.0</ele><time>2026-04-25T12:00:16.967Z</time></trkpt><trkpt lat="44.02779037907381" lon="11.263569605369927"><ele>466.0</ele><time>2026-04-25T12:00:17.968Z</time></trkpt><trkpt lat="44.027716849871496" lon="11.263711551737822"><ele>466.0</ele><time>2026-04-25T12:00:18.968Z</time></trkpt><trkpt lat="44.02761264962578" lon="11.263832902897546"><ele>466.0</ele><time>2026-04-25T12:00:19.968Z</time></trkpt><trkpt lat="44.02750784757078" lon="11.263906360601867"><ele>466.0</ele><time>2026-04-25T12:00:20.967Z</time></trkpt><trkpt lat="44.027375433362735" lon="11.263965552170882"><ele>466.0</ele><time>2026-04-25T12:00:21.967Z</time></trkpt><trkpt lat="44.02724423828249" lon="11.263925731481214"><ele>466.0</ele><time>2026-04-25T12:00:22.967Z</time></trkpt><trkpt lat="44.027094676971664" lon="11.263884677033426"><ele>467.25</ele><time>2026-04-25T12:00:23.967Z</time></trkpt><trkpt lat="44.02695661777222" lon="11.26384600865705"><ele>468.5</ele><time>2026-04-25T12:00:24.967Z</time></trkpt><trkpt lat="44.026836223232806" lon="11.263793202556236"><ele>469.75</ele><time>2026-04-25T12:00:25.967Z</time></trkpt><trkpt lat="44.026727614832424" lon="11.263750185960673"><ele>471.0</ele><time>2026-04-25T12:00:26.967Z</time></trkpt><trkpt lat="44.026639149282765" lon="11.26371986977505"><ele>477.0</ele><time>2026-04-25T12:00:27.967Z</time></trkpt><trkpt lat="44.02655185216266" lon="11.263722593440125"><ele>483.0</ele><time>2026-04-25T12:00:28.967Z</time></trkpt><trkpt lat="44.02647785898094" lon="11.263767630025173"><ele>489.0</ele><time>2026-04-25T12:00:29.967Z</time></trkpt><trkpt lat="44.02640518802618" lon="11.263859099935155"><ele>495.0</ele><time>2026-04-25T12:00:30.967Z</time></trkpt><trkpt lat="44.02635076637653" lon="11.264004590177501"><ele>501.0</ele><time>2026-04-25T12:00:31.967Z</time></trkpt><trkpt lat="44.02630285674081" lon="11.264157059685372"><ele>501.0</ele><time>2026-04-25T12:00:32.967Z</time></trkpt><trkpt lat="44.02626903935318" lon="11.264318838795377"><ele>501.0</ele><time>2026-04-25T12:00:33.967Z</time></trkpt><trkpt lat="44.026244755120004" lon="11.264468505497577"><ele>501.0</ele><time>2026-04-25T12:00:34.967Z</time></trkpt><trkpt lat="44.02621648105229" lon="11.264604694277093"><ele>501.0</ele><time>2026-04-25T12:00:35.967Z</time></trkpt><trkpt lat="44.02615707744124" lon="11.26472155217056"><ele>501.0</ele><time>2026-04-25T12:00:36.967Z</time></trkpt><trkpt lat="44.02607760472129" lon="11.264821582382982"><ele>503.5</ele><time>2026-04-25T12:00:37.967Z</time></trkpt><trkpt lat="44.02595072718439" lon="11.26493171507735"><ele>506.0</ele><time>2026-04-25T12:00:38.967Z</time></trkpt><trkpt lat="44.02582867420775" lon="11.265014381366012"><ele>508.5</ele><time>2026-04-25T12:00:39.967Z</time></trkpt><trkpt lat="44.02572419976947" lon="11.26511663623498"><ele>511.0</ele><time>2026-04-25T12:00:40.967Z</time></trkpt><trkpt lat="44.025628300524936" lon="11.265230268274596"><ele>511.0</ele><time>2026-04-25T12:00:41.967Z</time></trkpt><trkpt lat="44.02553961251742" lon="11.265342440595902"><ele>511.0</ele><time>2026-04-25T12:00:42.967Z</time></trkpt><trkpt lat="44.02544800815233" lon="11.265471933263768"><ele>511.0</ele><time>2026-04-25T12:00:43.967Z</time></trkpt><trkpt lat="44.02534991323759" lon="11.26559940185724"><ele>511.0</ele><time>2026-04-25T12:00:44.967Z</time></trkpt><trkpt lat="44.02524289654941" lon="11.265726901989266"><ele>511.25</ele><time>2026-04-25T12:00:45.967Z</time></trkpt><trkpt lat="44.025150257226315" lon="11.265837606996584"><ele>511.5</ele><time>2026-04-25T12:00:46.967Z</time></trkpt><trkpt lat="44.02506042034684" lon="11.26594081067148"><ele>511.75</ele><time>2026-04-25T12:00:47.967Z</time></trkpt><trkpt lat="44.02494957520451" lon="11.265995041865905"><ele>512.0</ele><time>2026-04-25T12:00:48.967Z</time></trkpt><trkpt lat="44.02483065326358" lon="11.266029417447157"><ele>512.0</ele><time>2026-04-25T12:00:49.967Z</time></trkpt><trkpt lat="44.024708293108766" lon="11.266013957101631"><ele>512.0</ele><time>2026-04-25T12:00:50.967Z</time></trkpt><trkpt lat="44.024580672555985" lon="11.266011781628851"><ele>512.0</ele><time>2026-04-25T12:00:51.967Z</time></trkpt><trkpt lat="44.02445115139713" lon="11.26606754329639"><ele>512.0</ele><time>2026-04-25T12:00:52.967Z</time></trkpt><trkpt lat="44.02437147234044" lon="11.266161643838842"><ele>512.0</ele><time>2026-04-25T12:00:53.967Z</time></trkpt><trkpt lat="44.02426195167652" lon="11.26627207961155"><ele>512.0</ele><time>2026-04-25T12:00:54.967Z</time></trkpt><trkpt lat="44.024160672477535" lon="11.26638444849993"><ele>512.0</ele><time>2026-04-25T12:00:55.967Z</time></trkpt><trkpt lat="44.024062694521206" lon="11.266501471242186"><ele>512.0</ele><time>2026-04-25T12:00:56.967Z</time></trkpt><trkpt lat="44.02398302718163" lon="11.266643947587422"><ele>510.0</ele><time>2026-04-25T12:00:57.967Z</time></trkpt><trkpt lat="44.023901026525756" lon="11.266794842517267"><ele>508.0</ele><time>2026-04-25T12:00:58.967Z</time></trkpt><trkpt lat="44.02381295247668" lon="11.266932393018527"><ele>506.0</ele><time>2026-04-25T12:00:59.967Z</time></trkpt><trkpt lat="44.02371752060934" lon="11.267053386174666"><ele>504.0</ele><time>2026-04-25T12:01:00.967Z</time></trkpt><trkpt lat="44.023612457694696" lon="11.267191770909678"><ele>501.75</ele><time>2026-04-25T12:01:01.967Z</time></trkpt><trkpt lat="44.023504211062594" lon="11.267293137848204"><ele>499.5</ele><time>2026-04-25T12:01:02.967Z</time></trkpt><trkpt lat="44.02337715903383" lon="11.267353007408541"><ele>497.25</ele><time>2026-04-25T12:01:03.967Z</time></trkpt><trkpt lat="44.02321617750867" lon="11.267379703039355"><ele>495.0</ele><time>2026-04-25T12:01:04.967Z</time></trkpt><trkpt lat="44.02304834436747" lon="11.267382694605905"><ele>494.66666666666663</ele><time>2026-04-25T12:01:05.967Z</time></trkpt><trkpt lat="44.02288163142545" lon="11.267380239357431"><ele>494.3333333333333</ele><time>2026-04-25T12:01:06.967Z</time></trkpt><trkpt lat="44.022723572086015" lon="11.267388934916722"><ele>494.0</ele><time>2026-04-25T12:01:07.967Z</time></trkpt><trkpt lat="44.02256568842917" lon="11.267415701468442"><ele>492.5</ele><time>2026-04-25T12:01:08.967Z</time></trkpt><trkpt lat="44.022430309542" lon="11.2674501880425"><ele>491.0</ele><time>2026-04-25T12:01:09.967Z</time></trkpt><trkpt lat="44.022300746640994" lon="11.26749155347409"><ele>489.5</ele><time>2026-04-25T12:01:10.967Z</time></trkpt><trkpt lat="44.02218753866181" lon="11.267538342848002"><ele>488.0</ele><time>2026-04-25T12:01:11.967Z</time></trkpt><trkpt lat="44.02207007423968" lon="11.267575522247549"><ele>488.0</ele><time>2026-04-25T12:01:12.967Z</time></trkpt><trkpt lat="44.021954288201144" lon="11.267646791856759"><ele>488.0</ele><time>2026-04-25T12:01:13.967Z</time></trkpt><trkpt lat="44.02184141375467" lon="11.26771664245956"><ele>488.0</ele><time>2026-04-25T12:01:14.967Z</time></trkpt><trkpt lat="44.02172838880024" lon="11.267784889162149"><ele>488.0</ele><time>2026-04-25T12:01:15.967Z</time></trkpt><trkpt lat="44.02161573763855" lon="11.26785029870475"><ele>487.0</ele><time>2026-04-25T12:01:16.967Z</time></trkpt><trkpt lat="44.02149174964524" lon="11.267904520437325"><ele>486.0</ele><time>2026-04-25T12:01:17.967Z</time></trkpt><trkpt lat="44.02134663222765" lon="11.267953770285434"><ele>485.0</ele><time>2026-04-25T12:01:18.967Z</time></trkpt><trkpt lat="44.0211884177779" lon="11.26798338403122"><ele>484.0</ele><time>2026-04-25T12:01:19.967Z</time></trkpt><trkpt lat="44.02102160120678" lon="11.26800565168352"><ele>484.0</ele><time>2026-04-25T12:01:20.967Z</time></trkpt><trkpt lat="44.02085938939529" lon="11.268012620401205"><ele>484.0</ele><time>2026-04-25T12:01:21.967Z</time></trkpt><trkpt lat="44.02071264398184" lon="11.268033163402835"><ele>484.0</ele><time>2026-04-25T12:01:22.967Z</time></trkpt><trkpt lat="44.0205918902611" lon="11.268052287077378"><ele>484.0</ele><time>2026-04-25T12:01:23.967Z</time></trkpt><trkpt lat="44.020482836843286" lon="11.26810283212427"><ele>484.0</ele><time>2026-04-25T12:01:24.967Z</time></trkpt><trkpt lat="44.020372288189414" lon="11.268211456835916"><ele>484.0</ele><time>2026-04-25T12:01:25.967Z</time></trkpt><trkpt lat="44.020264082788444" lon="11.268346978888792"><ele>484.0</ele><time>2026-04-25T12:01:26.967Z</time></trkpt><trkpt lat="44.0201588026009" lon="11.268490192454973"><ele>484.0</ele><time>2026-04-25T12:01:27.967Z</time></trkpt><trkpt lat="44.02004996823785" lon="11.26861555676983"><ele>482.25</ele><time>2026-04-25T12:01:28.967Z</time></trkpt><trkpt lat="44.01993172193062" lon="11.268728030595547"><ele>480.5</ele><time>2026-04-25T12:01:29.967Z</time></trkpt><trkpt lat="44.01980047773989" lon="11.268820162386499"><ele>478.75</ele><time>2026-04-25T12:01:30.967Z</time></trkpt><trkpt lat="44.01965950011902" lon="11.268892626358562"><ele>477.0</ele><time>2026-04-25T12:01:31.967Z</time></trkpt><trkpt lat="44.01950783183994" lon="11.268950477848982"><ele>477.0</ele><time>2026-04-25T12:01:32.967Z</time></trkpt><trkpt lat="44.01934495317378" lon="11.268998585401636"><ele>477.0</ele><time>2026-04-25T12:01:33.967Z</time></trkpt><trkpt lat="44.01917595305727" lon="11.269047393163246"><ele>477.0</ele><time>2026-04-25T12:01:34.967Z</time></trkpt><trkpt lat="44.01901513762609" lon="11.269095538144942"><ele>473.0</ele><time>2026-04-25T12:01:35.967Z</time></trkpt><trkpt lat="44.01886525052103" lon="11.269168761073784"><ele>469.0</ele><time>2026-04-25T12:01:36.967Z</time></trkpt><trkpt lat="44.018728017224" lon="11.269258910212027"><ele>465.0</ele><time>2026-04-25T12:01:37.967Z</time></trkpt><trkpt lat="44.018598520302625" lon="11.269362307246459"><ele>465.0</ele><time>2026-04-25T12:01:38.967Z</time></trkpt><trkpt lat="44.01847471809569" lon="11.269461525124695"><ele>465.0</ele><time>2026-04-25T12:01:39.967Z</time></trkpt><trkpt lat="44.01835547423214" lon="11.26955195737232"><ele>465.0</ele><time>2026-04-25T12:01:40.967Z</time></trkpt><trkpt lat="44.01823986771321" lon="11.269635071775223"><ele>465.0</ele><time>2026-04-25T12:01:41.967Z</time></trkpt><trkpt lat="44.0181274749674" lon="11.269706438495907"><ele>464.5</ele><time>2026-04-25T12:01:42.967Z</time></trkpt><trkpt lat="44.01800901718758" lon="11.26974354838382"><ele>464.0</ele><time>2026-04-25T12:01:43.967Z</time></trkpt><trkpt lat="44.01788370635168" lon="11.269744651559009"><ele>463.5</ele><time>2026-04-25T12:01:44.967Z</time></trkpt><trkpt lat="44.01777376663241" lon="11.269671217221656"><ele>463.0</ele><time>2026-04-25T12:01:45.967Z</time></trkpt><trkpt lat="44.01767167762604" lon="11.269586275811195"><ele>463.0</ele><time>2026-04-25T12:01:46.967Z</time></trkpt><trkpt lat="44.01754757260056" lon="11.269484774951447"><ele>463.0</ele><time>2026-04-25T12:01:47.967Z</time></trkpt><trkpt lat="44.0174245702149" lon="11.269377631497086"><ele>463.0</ele><time>2026-04-25T12:01:48.967Z</time></trkpt><trkpt lat="44.0173095884884" lon="11.269270612468759"><ele>463.0</ele><time>2026-04-25T12:01:49.967Z</time></trkpt><trkpt lat="44.017202911293666" lon="11.269164508254113"><ele>464.5</ele><time>2026-04-25T12:01:50.967Z</time></trkpt><trkpt lat="44.01710311983273" lon="11.269064281305454"><ele>466.0</ele><time>2026-04-25T12:01:51.967Z</time></trkpt><trkpt lat="44.016992265029046" lon="11.268984271971783"><ele>467.5</ele><time>2026-04-25T12:01:52.967Z</time></trkpt><trkpt lat="44.0168763500156" lon="11.268932443440832"><ele>469.0</ele><time>2026-04-25T12:01:53.967Z</time></trkpt><trkpt lat="44.01676168206799" lon="11.268885044126185"><ele>463.25</ele><time>2026-04-25T12:01:54.967Z</time></trkpt><trkpt lat="44.01664919440206" lon="11.268840476029975"><ele>457.5</ele><time>2026-04-25T12:01:55.967Z</time></trkpt><trkpt lat="44.016511135803036" lon="11.268856321806176"><ele>451.75</ele><time>2026-04-25T12:01:56.967Z</time></trkpt><trkpt lat="44.01637339900309" lon="11.268878886309619"><ele>446.0</ele><time>2026-04-25T12:01:57.967Z</time></trkpt><trkpt lat="44.01622939465202" lon="11.268918218545997"><ele>444.75</ele><time>2026-04-25T12:01:58.967Z</time></trkpt><trkpt lat="44.016101001664616" lon="11.268961623307778"><ele>443.5</ele><time>2026-04-25T12:01:59.967Z</time></trkpt><trkpt lat="44.01598928226426" lon="11.269019047892069"><ele>442.25</ele><time>2026-04-25T12:02:00.967Z</time></trkpt><trkpt lat="44.015896624683975" lon="11.26909879702839"><ele>441.0</ele><time>2026-04-25T12:02:01.967Z</time></trkpt><trkpt lat="44.015815903851504" lon="11.269197544719175"><ele>441.0</ele><time>2026-04-25T12:02:02.967Z</time></trkpt><trkpt lat="44.01574443806132" lon="11.269334937010242"><ele>441.0</ele><time>2026-04-25T12:02:03.967Z</time></trkpt><trkpt lat="44.015689199934" lon="11.269496628786836"><ele>441.0</ele><time>2026-04-25T12:02:04.967Z</time></trkpt><trkpt lat="44.01563090821993" lon="11.269669584948122"><ele>441.0</ele><time>2026-04-25T12:02:05.967Z</time></trkpt><trkpt lat="44.015573731401126" lon="11.269837344423097"><ele>443.0</ele><time>2026-04-25T12:02:06.967Z</time></trkpt><trkpt lat="44.01552310907198" lon="11.269995153100258"><ele>445.0</ele><time>2026-04-25T12:02:07.967Z</time></trkpt><trkpt lat="44.01546720381783" lon="11.270131023205053"><ele>447.0</ele><time>2026-04-25T12:02:08.967Z</time></trkpt><trkpt lat="44.01539498021244" lon="11.27025338409255"><ele>449.0</ele><time>2026-04-25T12:02:09.967Z</time></trkpt><trkpt lat="44.01531298242151" lon="11.27035055365146"><ele>449.0</ele><time>2026-04-25T12:02:10.967Z</time></trkpt><trkpt lat="44.01521216235494" lon="11.270440390478857"><ele>449.0</ele><time>2026-04-25T12:02:11.967Z</time></trkpt><trkpt lat="44.01511624730829" lon="11.27051651803434"><ele>449.0</ele><time>2026-04-25T12:02:12.967Z</time></trkpt><trkpt lat="44.015004295617736" lon="11.270585327688755"><ele>449.0</ele><time>2026-04-25T12:02:13.967Z</time></trkpt><trkpt lat="44.01488721624116" lon="11.270620848017899"><ele>448.16666666666663</ele><time>2026-04-25T12:02:14.967Z</time></trkpt><trkpt lat="44.01477541561959" lon="11.270643155639418"><ele>447.3333333333333</ele><time>2026-04-25T12:02:15.967Z</time></trkpt><trkpt lat="44.01468665211965" lon="11.27065400032681"><ele>446.5</ele><time>2026-04-25T12:02:16.967Z</time></trkpt><trkpt lat="44.01460876665893" lon="11.270677367499434"><ele>445.66666666666663</ele><time>2026-04-25T12:02:17.967Z</time></trkpt><trkpt lat="44.01452898838018" lon="11.270674038793041"><ele>444.8333333333333</ele><time>2026-04-25T12:02:18.967Z</time></trkpt><trkpt lat="44.014458462478515" lon="11.270629442434645"><ele>444.0</ele><time>2026-04-25T12:02:19.967Z</time></trkpt><trkpt lat="44.014373278502944" lon="11.270578949289458"><ele>444.0</ele><time>2026-04-25T12:02:20.967Z</time></trkpt><trkpt lat="44.014280765767325" lon="11.270528206163128"><ele>444.0</ele><time>2026-04-25T12:02:21.967Z</time></trkpt><trkpt lat="44.014172197064084" lon="11.270475953808685"><ele>444.0</ele><time>2026-04-25T12:02:22.969Z</time></trkpt><trkpt lat="44.014055618472185" lon="11.270429060305307"><ele>444.0</ele><time>2026-04-25T12:02:23.969Z</time></trkpt><trkpt lat="44.01392911998508" lon="11.27037887489984"><ele>442.25</ele><time>2026-04-25T12:02:24.969Z</time></trkpt><trkpt lat="44.0138007732216" lon="11.270328963982678"><ele>440.5</ele><time>2026-04-25T12:02:25.969Z</time></trkpt><trkpt lat="44.01367464319036" lon="11.270280733049832"><ele>438.75</ele><time>2026-04-25T12:02:26.968Z</time></trkpt><trkpt lat="44.01355202281495" lon="11.270249876390961"><ele>437.0</ele><time>2026-04-25T12:02:27.968Z</time></trkpt><trkpt lat="44.013434015539815" lon="11.27019802149401"><ele>434.5</ele><time>2026-04-25T12:02:28.969Z</time></trkpt><trkpt lat="44.01332108729265" lon="11.270160954984554"><ele>432.0</ele><time>2026-04-25T12:02:29.969Z</time></trkpt><trkpt lat="44.013209175397265" lon="11.27013959102582"><ele>429.5</ele><time>2026-04-25T12:02:30.969Z</time></trkpt><trkpt lat="44.01309196029304" lon="11.270154818831818"><ele>427.0</ele><time>2026-04-25T12:02:31.968Z</time></trkpt><trkpt lat="44.01297039497252" lon="11.270194139527547"><ele>427.0</ele><time>2026-04-25T12:02:32.969Z</time></trkpt><trkpt lat="44.01284972877469" lon="11.27024107112831"><ele>427.0</ele><time>2026-04-25T12:02:33.969Z</time></trkpt><trkpt lat="44.01272470371424" lon="11.270287637004444"><ele>427.0</ele><time>2026-04-25T12:02:34.969Z</time></trkpt><trkpt lat="44.01260679893857" lon="11.270332216031312"><ele>427.0</ele><time>2026-04-25T12:02:35.968Z</time></trkpt><trkpt lat="44.01247503405687" lon="11.27039017643061"><ele>424.75</ele><time>2026-04-25T12:02:36.968Z</time></trkpt><trkpt lat="44.012348665119504" lon="11.2704529622882"><ele>422.5</ele><time>2026-04-25T12:02:37.968Z</time></trkpt><trkpt lat="44.01221944936449" lon="11.270508732006299"><ele>420.25</ele><time>2026-04-25T12:02:38.968Z</time></trkpt><trkpt lat="44.01208735460649" lon="11.270575491612108"><ele>418.0</ele><time>2026-04-25T12:02:39.968Z</time></trkpt><trkpt lat="44.01195571038528" lon="11.270639072186706"><ele>418.0</ele><time>2026-04-25T12:02:40.968Z</time></trkpt><trkpt lat="44.01182515790653" lon="11.270701185877543"><ele>418.0</ele><time>2026-04-25T12:02:41.968Z</time></trkpt><trkpt lat="44.01169400225432" lon="11.270771010586182"><ele>418.0</ele><time>2026-04-25T12:02:42.968Z</time></trkpt><trkpt lat="44.011569049224434" lon="11.270827632077342"><ele>418.0</ele><time>2026-04-25T12:02:43.968Z</time></trkpt><trkpt lat="44.01143707179067" lon="11.270906175496615"><ele>417.75</ele><time>2026-04-25T12:02:44.968Z</time></trkpt><trkpt lat="44.01131760984141" lon="11.270998916785132"><ele>417.5</ele><time>2026-04-25T12:02:45.968Z</time></trkpt><trkpt lat="44.01120643719359" lon="11.271108529056322"><ele>417.25</ele><time>2026-04-25T12:02:46.968Z</time></trkpt><trkpt lat="44.0110952152484" lon="11.271200355233656"><ele>417.0</ele><time>2026-04-25T12:02:47.968Z</time></trkpt><trkpt lat="44.01097122969513" lon="11.271280276629653"><ele>417.0</ele><time>2026-04-25T12:02:48.968Z</time></trkpt><trkpt lat="44.010853902140774" lon="11.271337402482303"><ele>417.0</ele><time>2026-04-25T12:02:49.968Z</time></trkpt><trkpt lat="44.010744631096145" lon="11.271347665399867"><ele>417.0</ele><time>2026-04-25T12:02:50.969Z</time></trkpt><trkpt lat="44.0106311034488" lon="11.271343710034287"><ele>417.0</ele><time>2026-04-25T12:02:51.969Z</time></trkpt><trkpt lat="44.01050258085119" lon="11.271308256817656"><ele>415.0</ele><time>2026-04-25T12:02:52.969Z</time></trkpt><trkpt lat="44.010360064556686" lon="11.271276272718936"><ele>413.0</ele><time>2026-04-25T12:02:53.969Z</time></trkpt><trkpt lat="44.01022320031838" lon="11.271211574424385"><ele>411.0</ele><time>2026-04-25T12:02:54.969Z</time></trkpt><trkpt lat="44.01006652571212" lon="11.271192411079106"><ele>409.0</ele><time>2026-04-25T12:02:55.969Z</time></trkpt><trkpt lat="44.00991569075926" lon="11.271178905934008"><ele>407.25</ele><time>2026-04-25T12:02:56.969Z</time></trkpt><trkpt lat="44.0097807786996" lon="11.271157375179733"><ele>405.5</ele><time>2026-04-25T12:02:57.969Z</time></trkpt><trkpt lat="44.009639298950866" lon="11.271165240098986"><ele>403.75</ele><time>2026-04-25T12:02:58.969Z</time></trkpt><trkpt lat="44.00951021965603" lon="11.271208523563873"><ele>402.0</ele><time>2026-04-25T12:02:59.969Z</time></trkpt><trkpt lat="44.0093785500882" lon="11.271256326660655"><ele>402.0</ele><time>2026-04-25T12:03:00.969Z</time></trkpt><trkpt lat="44.00924928997517" lon="11.271332844782105"><ele>402.0</ele><time>2026-04-25T12:03:01.969Z</time></trkpt><trkpt lat="44.00910856607896" lon="11.271409285190586"><ele>402.0</ele><time>2026-04-25T12:03:02.969Z</time></trkpt><trkpt lat="44.00896436625128" lon="11.271469730010958"><ele>402.0</ele><time>2026-04-25T12:03:03.969Z</time></trkpt><trkpt lat="44.00880477270946" lon="11.271536086946423"><ele>401.25</ele><time>2026-04-25T12:03:04.969Z</time></trkpt><trkpt lat="44.008684872147796" lon="11.271577911831226"><ele>400.5</ele><time>2026-04-25T12:03:05.969Z</time></trkpt><trkpt lat="44.00854829047959" lon="11.271618388676671"><ele>399.75</ele><time>2026-04-25T12:03:06.969Z</time></trkpt><trkpt lat="44.00842629947933" lon="11.271659015047913"><ele>399.0</ele><time>2026-04-25T12:03:07.969Z</time></trkpt><trkpt lat="44.00830440719241" lon="11.271680124372827"><ele>397.75</ele><time>2026-04-25T12:03:08.969Z</time></trkpt><trkpt lat="44.00818054626461" lon="11.271674331845453"><ele>396.5</ele><time>2026-04-25T12:03:09.969Z</time></trkpt><trkpt lat="44.00806172138055" lon="11.271651437311924"><ele>395.25</ele><time>2026-04-25T12:03:10.969Z</time></trkpt><trkpt lat="44.007936155255926" lon="11.271612988058845"><ele>394.0</ele><time>2026-04-25T12:03:11.969Z</time></trkpt><trkpt lat="44.00780501035849" lon="11.271560051782588"><ele>394.0</ele><time>2026-04-25T12:03:12.969Z</time></trkpt><trkpt lat="44.00766336313807" lon="11.271493893417865"><ele>394.0</ele><time>2026-04-25T12:03:13.969Z</time></trkpt><trkpt lat="44.00752152515536" lon="11.271421226175493"><ele>394.0</ele><time>2026-04-25T12:03:14.969Z</time></trkpt><trkpt lat="44.007372019665816" lon="11.271339033440032"><ele>392.75</ele><time>2026-04-25T12:03:15.969Z</time></trkpt><trkpt lat="44.00723099918682" lon="11.27123819014802"><ele>391.5</ele><time>2026-04-25T12:03:16.969Z</time></trkpt><trkpt lat="44.00709009816303" lon="11.27115793344446"><ele>390.25</ele><time>2026-04-25T12:03:17.969Z</time></trkpt><trkpt lat="44.006961906230565" lon="11.2710849157615"><ele>389.0</ele><time>2026-04-25T12:03:18.969Z</time></trkpt><trkpt lat="44.00683025037251" lon="11.271009775714772"><ele>389.0</ele><time>2026-04-25T12:03:19.969Z</time></trkpt><trkpt lat="44.00670074488071" lon="11.270934333807459"><ele>389.0</ele><time>2026-04-25T12:03:20.969Z</time></trkpt><trkpt lat="44.00656597431576" lon="11.270879464016192"><ele>389.0</ele><time>2026-04-25T12:03:21.969Z</time></trkpt><trkpt lat="44.0064435368534" lon="11.270779186261024"><ele>389.0</ele><time>2026-04-25T12:03:22.969Z</time></trkpt><trkpt lat="44.006319070330655" lon="11.270700836898435"><ele>385.75</ele><time>2026-04-25T12:03:23.969Z</time></trkpt><trkpt lat="44.00620399414118" lon="11.270626987634307"><ele>382.5</ele><time>2026-04-25T12:03:24.969Z</time></trkpt><trkpt lat="44.006106712527796" lon="11.270546656496535"><ele>379.25</ele><time>2026-04-25T12:03:25.969Z</time></trkpt><trkpt lat="44.006005036133374" lon="11.270469895386098"><ele>376.0</ele><time>2026-04-25T12:03:26.969Z</time></trkpt><trkpt lat="44.00590632222264" lon="11.270404765536364"><ele>374.0</ele><time>2026-04-25T12:03:27.969Z</time></trkpt><trkpt lat="44.00579120295774" lon="11.27035795062081"><ele>372.0</ele><time>2026-04-25T12:03:28.969Z</time></trkpt><trkpt lat="44.005663644367175" lon="11.270349054436842"><ele>370.0</ele><time>2026-04-25T12:03:29.969Z</time></trkpt><trkpt lat="44.005529367998896" lon="11.270373269861349"><ele>368.0</ele><time>2026-04-25T12:03:30.969Z</time></trkpt><trkpt lat="44.00538130541895" lon="11.270403335810089"><ele>368.0</ele><time>2026-04-25T12:03:31.969Z</time></trkpt><trkpt lat="44.00524143594099" lon="11.270452651718875"><ele>368.0</ele><time>2026-04-25T12:03:32.969Z</time></trkpt><trkpt lat="44.00509565260951" lon="11.270450252238348"><ele>368.0</ele><time>2026-04-25T12:03:33.969Z</time></trkpt><trkpt lat="44.00494966927733" lon="11.270404190279697"><ele>368.0</ele><time>2026-04-25T12:03:34.969Z</time></trkpt><trkpt lat="44.0047965389263" lon="11.270313347932115"><ele>369.33333333333337</ele><time>2026-04-25T12:03:35.969Z</time></trkpt><trkpt lat="44.00465218973287" lon="11.270191928437617"><ele>370.6666666666667</ele><time>2026-04-25T12:03:36.969Z</time></trkpt><trkpt lat="44.00449418950807" lon="11.270066517817474"><ele>372.0</ele><time>2026-04-25T12:03:37.969Z</time></trkpt><trkpt lat="44.00434672132981" lon="11.269946850167846"><ele>372.0</ele><time>2026-04-25T12:03:38.969Z</time></trkpt><trkpt lat="44.004202781043276" lon="11.269839525807352"><ele>372.0</ele><time>2026-04-25T12:03:39.969Z</time></trkpt><trkpt lat="44.004069952140036" lon="11.26974633176446"><ele>372.0</ele><time>2026-04-25T12:03:40.969Z</time></trkpt><trkpt lat="44.003926621444315" lon="11.269672076159223"><ele>370.0</ele><time>2026-04-25T12:03:41.969Z</time></trkpt><trkpt lat="44.003767119660786" lon="11.269616005680934"><ele>368.0</ele><time>2026-04-25T12:03:42.969Z</time></trkpt><trkpt lat="44.003594516234735" lon="11.269555528178376"><ele>366.0</ele><time>2026-04-25T12:03:43.969Z</time></trkpt><trkpt lat="44.003421616240445" lon="11.2694865236499"><ele>363.0</ele><time>2026-04-25T12:03:44.969Z</time></trkpt><trkpt lat="44.00326125858946" lon="11.269408522204385"><ele>360.0</ele><time>2026-04-25T12:03:45.969Z</time></trkpt><trkpt lat="44.00310171839133" lon="11.269333149322149"><ele>357.0</ele><time>2026-04-25T12:03:46.969Z</time></trkpt><trkpt lat="44.00294091037183" lon="11.269268862086541"><ele>357.0</ele><time>2026-04-25T12:03:47.969Z</time></trkpt><trkpt lat="44.002783681323656" lon="11.269217485811827"><ele>357.0</ele><time>2026-04-25T12:03:48.969Z</time></trkpt><trkpt lat="44.00263801146499" lon="11.26919741703065"><ele>357.0</ele><time>2026-04-25T12:03:49.969Z</time></trkpt><trkpt lat="44.00249542707822" lon="11.269213172045871"><ele>354.75</ele><time>2026-04-25T12:03:50.969Z</time></trkpt><trkpt lat="44.002359726836744" lon="11.269278179854304"><ele>352.5</ele><time>2026-04-25T12:03:51.969Z</time></trkpt><trkpt lat="44.00223607441013" lon="11.269374740110294"><ele>350.25</ele><time>2026-04-25T12:03:52.969Z</time></trkpt><trkpt lat="44.00213303109332" lon="11.269482814442348"><ele>348.0</ele><time>2026-04-25T12:03:53.969Z</time></trkpt><trkpt lat="44.00203739560915" lon="11.269597155136402"><ele>348.0</ele><time>2026-04-25T12:03:54.969Z</time></trkpt><trkpt lat="44.001940632790834" lon="11.269702315049365"><ele>348.0</ele><time>2026-04-25T12:03:55.969Z</time></trkpt><trkpt lat="44.00181926721127" lon="11.26974161588167"><ele>348.0</ele><time>2026-04-25T12:03:56.969Z</time></trkpt><trkpt lat="44.00169329477389" lon="11.269714702069523"><ele>348.0</ele><time>2026-04-25T12:03:57.969Z</time></trkpt><trkpt lat="44.00154279140581" lon="11.269713166618807"><ele>346.0</ele><time>2026-04-25T12:03:58.969Z</time></trkpt><trkpt lat="44.001388380151354" lon="11.26968648232642"><ele>344.0</ele><time>2026-04-25T12:03:59.969Z</time></trkpt><trkpt lat="44.001225052150176" lon="11.269660146155328"><ele>342.0</ele><time>2026-04-25T12:04:00.969Z</time></trkpt><trkpt lat="44.00106049197326" lon="11.269626274869188"><ele>342.0</ele><time>2026-04-25T12:04:01.969Z</time></trkpt><trkpt lat="44.000892897455124" lon="11.26958992654499"><ele>342.0</ele><time>2026-04-25T12:04:02.969Z</time></trkpt><trkpt lat="44.00073631744976" lon="11.269535061692864"><ele>342.0</ele><time>2026-04-25T12:04:03.969Z</time></trkpt><trkpt lat="44.000584039164764" lon="11.269499826533668"><ele>343.0</ele><time>2026-04-25T12:04:04.969Z</time></trkpt><trkpt lat="44.000440853938265" lon="11.269466550047134"><ele>344.0</ele><time>2026-04-25T12:04:05.969Z</time></trkpt><trkpt lat="44.000291303885035" lon="11.269453064384628"><ele>345.0</ele><time>2026-04-25T12:04:06.969Z</time></trkpt><trkpt lat="44.000134348449684" lon="11.26938461537689"><ele>345.0</ele><time>2026-04-25T12:04:07.969Z</time></trkpt><trkpt lat="43.99997444557805" lon="11.269356586526152"><ele>345.0</ele><time>2026-04-25T12:04:08.969Z</time></trkpt><trkpt lat="43.999806844022764" lon="11.269320148534446"><ele>345.0</ele><time>2026-04-25T12:04:09.969Z</time></trkpt><trkpt lat="43.9996461706196" lon="11.269283890388197"><ele>345.0</ele><time>2026-04-25T12:04:10.969Z</time></trkpt><trkpt lat="43.999491719420995" lon="11.269244165705263"><ele>345.0</ele><time>2026-04-25T12:04:11.969Z</time></trkpt><trkpt lat="43.99933834164891" lon="11.26920038198582"><ele>345.0</ele><time>2026-04-25T12:04:12.969Z</time></trkpt><trkpt lat="43.99918158494806" lon="11.269178959128762"><ele>346.0</ele><time>2026-04-25T12:04:13.969Z</time></trkpt><trkpt lat="43.999016336568815" lon="11.269141487947124"><ele>347.0</ele><time>2026-04-25T12:04:14.969Z</time></trkpt><trkpt lat="43.998851424186405" lon="11.269098160236881"><ele>348.0</ele><time>2026-04-25T12:04:15.969Z</time></trkpt><trkpt lat="43.99867695141521" lon="11.26904820374856"><ele>348.0</ele><time>2026-04-25T12:04:16.969Z</time></trkpt><trkpt lat="43.99851508142756" lon="11.269009369972053"><ele>348.0</ele><time>2026-04-25T12:04:17.969Z</time></trkpt><trkpt lat="43.99836534515192" lon="11.26897071096487"><ele>348.0</ele><time>2026-04-25T12:04:18.969Z</time></trkpt><trkpt lat="43.9982091573882" lon="11.268941356186689"><ele>347.5</ele><time>2026-04-25T12:04:19.969Z</time></trkpt><trkpt lat="43.998063358774246" lon="11.268905361309683"><ele>347.0</ele><time>2026-04-25T12:04:20.969Z</time></trkpt><trkpt lat="43.99791554989229" lon="11.268872136410689"><ele>346.5</ele><time>2026-04-25T12:04:21.969Z</time></trkpt><trkpt lat="43.997776083086265" lon="11.268878802644188"><ele>346.0</ele><time>2026-04-25T12:04:22.969Z</time></trkpt><trkpt lat="43.99764271943919" lon="11.268892806343862"><ele>346.0</ele><time>2026-04-25T12:04:23.969Z</time></trkpt><trkpt lat="43.99751403341789" lon="11.268907360182025"><ele>346.0</ele><time>2026-04-25T12:04:24.969Z</time></trkpt><trkpt lat="43.997393530302325" lon="11.268912138651375"><ele>346.0</ele><time>2026-04-25T12:04:25.969Z</time></trkpt><trkpt lat="43.9972725287396" lon="11.268918949147453"><ele>346.0</ele><time>2026-04-25T12:04:26.969Z</time></trkpt><trkpt lat="43.99715400260333" lon="11.268925926651649"><ele>345.0</ele><time>2026-04-25T12:04:27.969Z</time></trkpt><trkpt lat="43.99704115185544" lon="11.268937115954863"><ele>344.0</ele><time>2026-04-25T12:04:28.97Z</time></trkpt><trkpt lat="43.99693427978" lon="11.268926312305258"><ele>343.0</ele><time>2026-04-25T12:04:29.97Z</time></trkpt><trkpt lat="43.99682284525347" lon="11.2689015656034"><ele>342.0</ele><time>2026-04-25T12:04:30.97Z</time></trkpt><trkpt lat="43.99670556036091" lon="11.268865307057327"><ele>341.0</ele><time>2026-04-25T12:04:31.971Z</time></trkpt><trkpt lat="43.99658986369737" lon="11.268801866575679"><ele>340.0</ele><time>2026-04-25T12:04:32.971Z</time></trkpt><trkpt lat="43.99646799197997" lon="11.268718344935849"><ele>339.0</ele><time>2026-04-25T12:04:33.971Z</time></trkpt><trkpt lat="43.996366979204126" lon="11.26860865891132"><ele>338.0</ele><time>2026-04-25T12:04:34.97Z</time></trkpt><trkpt lat="43.99627420236185" lon="11.268499973990755"><ele>338.0</ele><time>2026-04-25T12:04:35.971Z</time></trkpt><trkpt lat="43.99618794741188" lon="11.268396769208906"><ele>338.0</ele><time>2026-04-25T12:04:36.971Z</time></trkpt><trkpt lat="43.99609262426454" lon="11.268318498983247"><ele>338.0</ele><time>2026-04-25T12:04:37.97Z</time></trkpt><trkpt lat="43.995986209175236" lon="11.268278622622715"><ele>338.0</ele><time>2026-04-25T12:04:38.971Z</time></trkpt><trkpt lat="43.99586198612076" lon="11.268286757175993"><ele>338.5</ele><time>2026-04-25T12:04:39.971Z</time></trkpt><trkpt lat="43.99573356614352" lon="11.268310202620004"><ele>339.0</ele><time>2026-04-25T12:04:40.97Z</time></trkpt><trkpt lat="43.99561070915427" lon="11.26832813604551"><ele>339.5</ele><time>2026-04-25T12:04:41.97Z</time></trkpt><trkpt lat="43.995492814943816" lon="11.26835678082979"><ele>340.0</ele><time>2026-04-25T12:04:42.97Z</time></trkpt><trkpt lat="43.995383542754915" lon="11.268390848829329"><ele>340.0</ele><time>2026-04-25T12:04:43.97Z</time></trkpt><trkpt lat="43.99528705181086" lon="11.26845787918412"><ele>340.0</ele><time>2026-04-25T12:04:44.97Z</time></trkpt><trkpt lat="43.99520101987298" lon="11.268557969703798"><ele>340.0</ele><time>2026-04-25T12:04:45.971Z</time></trkpt><trkpt lat="43.99511317352937" lon="11.268668155483097"><ele>340.0</ele><time>2026-04-25T12:04:46.971Z</time></trkpt><trkpt lat="43.9950219306655" lon="11.268747848202366"><ele>340.0</ele><time>2026-04-25T12:04:47.971Z</time></trkpt><trkpt lat="43.994924565118964" lon="11.268808954388378"><ele>339.25</ele><time>2026-04-25T12:04:48.971Z</time></trkpt><trkpt lat="43.994812093600984" lon="11.268848026531497"><ele>338.5</ele><time>2026-04-25T12:04:49.971Z</time></trkpt><trkpt lat="43.9946908570678" lon="11.268865945256959"><ele>337.75</ele><time>2026-04-25T12:04:50.971Z</time></trkpt><trkpt lat="43.994555921074976" lon="11.268875789061063"><ele>337.0</ele><time>2026-04-25T12:04:51.971Z</time></trkpt><trkpt lat="43.994403318130495" lon="11.26889001190284"><ele>337.0</ele><time>2026-04-25T12:04:52.971Z</time></trkpt><trkpt lat="43.99424482853794" lon="11.26889500667108"><ele>337.0</ele><time>2026-04-25T12:04:53.971Z</time></trkpt><trkpt lat="43.99409146393123" lon="11.268877896747542"><ele>337.0</ele><time>2026-04-25T12:04:54.971Z</time></trkpt><trkpt lat="43.99394044353201" lon="11.268855522741344"><ele>334.25</ele><time>2026-04-25T12:04:55.971Z</time></trkpt><trkpt lat="43.99381028766543" lon="11.268861030046757"><ele>331.5</ele><time>2026-04-25T12:04:56.971Z</time></trkpt><trkpt lat="43.993674577710976" lon="11.268887428866968"><ele>328.75</ele><time>2026-04-25T12:04:57.971Z</time></trkpt><trkpt lat="43.99353874600498" lon="11.268915549422081"><ele>326.0</ele><time>2026-04-25T12:04:58.971Z</time></trkpt><trkpt lat="43.99341032291309" lon="11.268941904783958"><ele>326.75</ele><time>2026-04-25T12:04:59.971Z</time></trkpt><trkpt lat="43.99329282676526" lon="11.268954560089233"><ele>327.5</ele><time>2026-04-25T12:05:00.971Z</time></trkpt><trkpt lat="43.99317160532415" lon="11.268973436739333"><ele>328.25</ele><time>2026-04-25T12:05:01.971Z</time></trkpt><trkpt lat="43.99305170868745" lon="11.269013031468662"><ele>329.0</ele><time>2026-04-25T12:05:02.971Z</time></trkpt><trkpt lat="43.992937206459786" lon="11.269075052437747"><ele>329.0</ele><time>2026-04-25T12:05:03.971Z</time></trkpt><trkpt lat="43.99282440246804" lon="11.269138580631493"><ele>329.0</ele><time>2026-04-25T12:05:04.971Z</time></trkpt><trkpt lat="43.99272746235165" lon="11.269201414403069"><ele>329.0</ele><time>2026-04-25T12:05:05.971Z</time></trkpt><trkpt lat="43.99263161114302" lon="11.26925832195221"><ele>329.0</ele><time>2026-04-25T12:05:06.971Z</time></trkpt><trkpt lat="43.99253157488789" lon="11.269293197463233"><ele>329.0</ele><time>2026-04-25T12:05:07.971Z</time></trkpt><trkpt lat="43.99242349005056" lon="11.269298705804307"><ele>327.5</ele><time>2026-04-25T12:05:08.971Z</time></trkpt><trkpt lat="43.99230465655508" lon="11.269263316307551"><ele>326.0</ele><time>2026-04-25T12:05:09.971Z</time></trkpt><trkpt lat="43.99218238345279" lon="11.269204264804834"><ele>324.5</ele><time>2026-04-25T12:05:10.971Z</time></trkpt><trkpt lat="43.992063748481115" lon="11.269136818680677"><ele>323.0</ele><time>2026-04-25T12:05:11.971Z</time></trkpt><trkpt lat="43.9919395590314" lon="11.269075714722222"><ele>323.0</ele><time>2026-04-25T12:05:12.971Z</time></trkpt><trkpt lat="43.99182112116774" lon="11.269086437180192"><ele>323.0</ele><time>2026-04-25T12:05:13.971Z</time></trkpt><trkpt lat="43.9917233892228" lon="11.269135641353728"><ele>323.0</ele><time>2026-04-25T12:05:14.971Z</time></trkpt><trkpt lat="43.99164653632286" lon="11.26921781904651"><ele>323.0</ele><time>2026-04-25T12:05:15.971Z</time></trkpt><trkpt lat="43.99160117612242" lon="11.269341656858806"><ele>323.0</ele><time>2026-04-25T12:05:16.971Z</time></trkpt><trkpt lat="43.9915674648655" lon="11.269461078221784"><ele>322.0</ele><time>2026-04-25T12:05:17.971Z</time></trkpt><trkpt lat="43.99155579408299" lon="11.26959587987516"><ele>321.0</ele><time>2026-04-25T12:05:18.971Z</time></trkpt><trkpt lat="43.99155626678679" lon="11.269739949041949"><ele>320.0</ele><time>2026-04-25T12:05:19.971Z</time></trkpt><trkpt lat="43.99156831516557" lon="11.269882592542865"><ele>319.0</ele><time>2026-04-25T12:05:20.971Z</time></trkpt><trkpt lat="43.991568675095145" lon="11.270027586471763"><ele>318.0</ele><time>2026-04-25T12:05:21.971Z</time></trkpt><trkpt lat="43.99153966117647" lon="11.27019128689907"><ele>318.0</ele><time>2026-04-25T12:05:22.971Z</time></trkpt><trkpt lat="43.99149554605978" lon="11.270350259113265"><ele>318.0</ele><time>2026-04-25T12:05:23.971Z</time></trkpt><trkpt lat="43.99143580954572" lon="11.270487937047408"><ele>318.0</ele><time>2026-04-25T12:05:24.971Z</time></trkpt><trkpt lat="43.99135763205976" lon="11.270605632451161"><ele>318.0</ele><time>2026-04-25T12:05:25.971Z</time></trkpt><trkpt lat="43.991250139601654" lon="11.270690591308034"><ele>317.6666666666667</ele><time>2026-04-25T12:05:26.971Z</time></trkpt><trkpt lat="43.99113108053441" lon="11.270801157473418"><ele>317.33333333333337</ele><time>2026-04-25T12:05:27.971Z</time></trkpt><trkpt lat="43.99097749335892" lon="11.270917268793685"><ele>317.0</ele><time>2026-04-25T12:05:28.971Z</time></trkpt><trkpt lat="43.99084418776372" lon="11.271041783043293"><ele>313.6666666666667</ele><time>2026-04-25T12:05:29.971Z</time></trkpt><trkpt lat="43.99071561454751" lon="11.271158072440937"><ele>310.3333333333333</ele><time>2026-04-25T12:05:30.971Z</time></trkpt><trkpt lat="43.990580204676014" lon="11.271273817266742"><ele>307.0</ele><time>2026-04-25T12:05:31.971Z</time></trkpt><trkpt lat="43.990440239665716" lon="11.27138925404659"><ele>309.66666666666663</ele><time>2026-04-25T12:05:32.971Z</time></trkpt><trkpt lat="43.99031237819932" lon="11.271505932947559"><ele>312.3333333333333</ele><time>2026-04-25T12:05:33.971Z</time></trkpt><trkpt lat="43.990177133547746" lon="11.27163506264776"><ele>315.0</ele><time>2026-04-25T12:05:34.971Z</time></trkpt><trkpt lat="43.990040124383846" lon="11.271760564207367"><ele>309.6666666666667</ele><time>2026-04-25T12:05:35.971Z</time></trkpt><trkpt lat="43.989916513121656" lon="11.271888834373824"><ele>304.33333333333337</ele><time>2026-04-25T12:05:36.971Z</time></trkpt><trkpt lat="43.98978948512723" lon="11.272007820555602"><ele>299.0</ele><time>2026-04-25T12:05:37.971Z</time></trkpt><trkpt lat="43.98965786696821" lon="11.272129444844685"><ele>299.0</ele><time>2026-04-25T12:05:38.971Z</time></trkpt><trkpt lat="43.98952596522923" lon="11.272255596549904"><ele>299.0</ele><time>2026-04-25T12:05:39.971Z</time></trkpt><trkpt lat="43.98937921418781" lon="11.272383122100143"><ele>299.0</ele><time>2026-04-25T12:05:40.971Z</time></trkpt><trkpt lat="43.989224099265634" lon="11.272506439336832"><ele>298.0</ele><time>2026-04-25T12:05:41.971Z</time></trkpt><trkpt lat="43.989075827276906" lon="11.272614923858937"><ele>297.0</ele><time>2026-04-25T12:05:42.971Z</time></trkpt><trkpt lat="43.98891809999674" lon="11.272715681968595"><ele>296.0</ele><time>2026-04-25T12:05:43.971Z</time></trkpt><trkpt lat="43.988776926566004" lon="11.272811014936881"><ele>296.0</ele><time>2026-04-25T12:05:44.971Z</time></trkpt><trkpt lat="43.98863236738863" lon="11.27289485963693"><ele>296.0</ele><time>2026-04-25T12:05:45.971Z</time></trkpt><trkpt lat="43.98849739044619" lon="11.272961539767643"><ele>296.0</ele><time>2026-04-25T12:05:46.971Z</time></trkpt><trkpt lat="43.988371242306755" lon="11.273034781878888"><ele>296.0</ele><time>2026-04-25T12:05:47.971Z</time></trkpt><trkpt lat="43.98824628549144" lon="11.273094812835055"><ele>297.0</ele><time>2026-04-25T12:05:48.971Z</time></trkpt><trkpt lat="43.98812987499177" lon="11.273147157923118"><ele>298.0</ele><time>2026-04-25T12:05:49.971Z</time></trkpt><trkpt lat="43.98800098190528" lon="11.273191095758483"><ele>299.0</ele><time>2026-04-25T12:05:50.971Z</time></trkpt><trkpt lat="43.98788035466155" lon="11.273225848502323"><ele>300.0</ele><time>2026-04-25T12:05:51.971Z</time></trkpt><trkpt lat="43.98775274547594" lon="11.273258256735861"><ele>300.0</ele><time>2026-04-25T12:05:52.971Z</time></trkpt><trkpt lat="43.98761722609354" lon="11.273245878743321"><ele>300.0</ele><time>2026-04-25T12:05:53.971Z</time></trkpt><trkpt lat="43.98749887354098" lon="11.273262023005246"><ele>300.0</ele><time>2026-04-25T12:05:54.971Z</time></trkpt><trkpt lat="43.98737183168711" lon="11.273278454196713"><ele>300.0</ele><time>2026-04-25T12:05:55.971Z</time></trkpt><trkpt lat="43.98723556907769" lon="11.27329793329691"><ele>297.5</ele><time>2026-04-25T12:05:56.971Z</time></trkpt><trkpt lat="43.987094313646416" lon="11.273313558902187"><ele>295.0</ele><time>2026-04-25T12:05:57.971Z</time></trkpt><trkpt lat="43.98696116436666" lon="11.273328003215417"><ele>292.5</ele><time>2026-04-25T12:05:58.971Z</time></trkpt><trkpt lat="43.986831910150556" lon="11.27334204477335"><ele>290.0</ele><time>2026-04-25T12:05:59.971Z</time></trkpt><trkpt lat="43.98671143090636" lon="11.273351557941606"><ele>289.2</ele><time>2026-04-25T12:06:00.971Z</time></trkpt><trkpt lat="43.98659431197163" lon="11.273370305245049"><ele>288.4</ele><time>2026-04-25T12:06:01.971Z</time></trkpt><trkpt lat="43.986474586550365" lon="11.273388234531081"><ele>287.6</ele><time>2026-04-25T12:06:02.971Z</time></trkpt><trkpt lat="43.98636500981295" lon="11.273403924111516"><ele>286.8</ele><time>2026-04-25T12:06:03.971Z</time></trkpt><trkpt lat="43.98626763578914" lon="11.273422725158172"><ele>286.0</ele><time>2026-04-25T12:06:04.971Z</time></trkpt><trkpt lat="43.98618848434274" lon="11.273436631803113"><ele>286.0</ele><time>2026-04-25T12:06:05.971Z</time></trkpt><trkpt lat="43.986099356657654" lon="11.273449257181248"><ele>286.0</ele><time>2026-04-25T12:06:06.971Z</time></trkpt><trkpt lat="43.98601841604038" lon="11.273416906933745"><ele>286.0</ele><time>2026-04-25T12:06:07.971Z</time></trkpt><trkpt lat="43.98595402686243" lon="11.273347745990916"><ele>286.0</ele><time>2026-04-25T12:06:08.971Z</time></trkpt><trkpt lat="43.9859094392252" lon="11.273248089513887"><ele>286.0</ele><time>2026-04-25T12:06:09.971Z</time></trkpt><trkpt lat="43.985887850129906" lon="11.273137200515531"><ele>286.0</ele><time>2026-04-25T12:06:10.971Z</time></trkpt><trkpt lat="43.98585794814636" lon="11.273020916600228"><ele>284.5</ele><time>2026-04-25T12:06:11.971Z</time></trkpt><trkpt lat="43.98581202848082" lon="11.27293639164636"><ele>283.0</ele><time>2026-04-25T12:06:12.971Z</time></trkpt><trkpt lat="43.98573959914723" lon="11.272867508199857"><ele>281.5</ele><time>2026-04-25T12:06:13.971Z</time></trkpt><trkpt lat="43.985657938687645" lon="11.272827232424579"><ele>280.0</ele><time>2026-04-25T12:06:14.971Z</time></trkpt><trkpt lat="43.98556861822743" lon="11.272823577794732"><ele>278.5</ele><time>2026-04-25T12:06:15.971Z</time></trkpt><trkpt lat="43.98546804889505" lon="11.272859986326067"><ele>277.0</ele><time>2026-04-25T12:06:16.971Z</time></trkpt><trkpt lat="43.985374881104356" lon="11.272925959383338"><ele>277.0</ele><time>2026-04-25T12:06:17.971Z</time></trkpt><trkpt lat="43.98529830415136" lon="11.273019866500128"><ele>277.0</ele><time>2026-04-25T12:06:18.971Z</time></trkpt><trkpt lat="43.98522253786846" lon="11.27313260303038"><ele>277.0</ele><time>2026-04-25T12:06:19.971Z</time></trkpt><trkpt lat="43.98515376756026" lon="11.27326029577106"><ele>277.0</ele><time>2026-04-25T12:06:20.971Z</time></trkpt><trkpt lat="43.9850903017082" lon="11.273410039307322"><ele>276.75</ele><time>2026-04-25T12:06:21.971Z</time></trkpt><trkpt lat="43.98501859762805" lon="11.273559090892482"><ele>276.5</ele><time>2026-04-25T12:06:22.971Z</time></trkpt><trkpt lat="43.98492722513815" lon="11.273714793832404"><ele>276.25</ele><time>2026-04-25T12:06:23.971Z</time></trkpt><trkpt lat="43.98482882592366" lon="11.273847766527796"><ele>276.0</ele><time>2026-04-25T12:06:24.971Z</time></trkpt><trkpt lat="43.98471268593643" lon="11.273958058097975"><ele>278.3333333333333</ele><time>2026-04-25T12:06:25.971Z</time></trkpt><trkpt lat="43.98459422507355" lon="11.274071861436752"><ele>280.66666666666663</ele><time>2026-04-25T12:06:26.971Z</time></trkpt><trkpt lat="43.98446267728186" lon="11.27419313881237"><ele>283.0</ele><time>2026-04-25T12:06:27.971Z</time></trkpt><trkpt lat="43.98433959307492" lon="11.27433322983828"><ele>283.0</ele><time>2026-04-25T12:06:28.971Z</time></trkpt><trkpt lat="43.98423161685324" lon="11.274479876244548"><ele>283.0</ele><time>2026-04-25T12:06:29.971Z</time></trkpt><trkpt lat="43.98412335255151" lon="11.274643208716167"><ele>283.0</ele><time>2026-04-25T12:06:30.971Z</time></trkpt><trkpt lat="43.98403064255768" lon="11.274805018433861"><ele>280.0</ele><time>2026-04-25T12:06:31.971Z</time></trkpt><trkpt lat="43.9839358343048" lon="11.27499600990561"><ele>277.0</ele><time>2026-04-25T12:06:32.972Z</time></trkpt><trkpt lat="43.98385548404245" lon="11.275211670806607"><ele>274.0</ele><time>2026-04-25T12:06:33.972Z</time></trkpt><trkpt lat="43.98377935730403" lon="11.275446728384289"><ele>273.3333333333333</ele><time>2026-04-25T12:06:34.972Z</time></trkpt><trkpt lat="43.98371906482422" lon="11.275676633932212"><ele>272.6666666666667</ele><time>2026-04-25T12:06:35.972Z</time></trkpt><trkpt lat="43.98367130691823" lon="11.27589776587587"><ele>272.0</ele><time>2026-04-25T12:06:36.972Z</time></trkpt><trkpt lat="43.983624415355905" lon="11.27612477526696"><ele>272.0</ele><time>2026-04-25T12:06:37.973Z</time></trkpt><trkpt lat="43.98357979634998" lon="11.276346485910143"><ele>272.0</ele><time>2026-04-25T12:06:38.973Z</time></trkpt><trkpt lat="43.9835330757139" lon="11.276567817574417"><ele>272.0</ele><time>2026-04-25T12:06:39.973Z</time></trkpt><trkpt lat="43.9834870511454" lon="11.276788784223406"><ele>264.6666666666667</ele><time>2026-04-25T12:06:40.973Z</time></trkpt><trkpt lat="43.98343435879369" lon="11.277014951131289"><ele>257.3333333333333</ele><time>2026-04-25T12:06:41.973Z</time></trkpt><trkpt lat="43.98338875257383" lon="11.277230971989582"><ele>250.0</ele><time>2026-04-25T12:06:42.973Z</time></trkpt><trkpt lat="43.983334428797804" lon="11.277446293353425"><ele>247.0</ele><time>2026-04-25T12:06:43.973Z</time></trkpt><trkpt lat="43.98328621685154" lon="11.277676951124558"><ele>244.0</ele><time>2026-04-25T12:06:44.973Z</time></trkpt><trkpt lat="43.98323617467802" lon="11.277910848699616"><ele>241.0</ele><time>2026-04-25T12:06:45.973Z</time></trkpt><trkpt lat="43.98318690289225" lon="11.278147085237855"><ele>241.0</ele><time>2026-04-25T12:06:46.972Z</time></trkpt><trkpt lat="43.98313711981568" lon="11.278389272871257"><ele>241.0</ele><time>2026-04-25T12:06:47.973Z</time></trkpt><trkpt lat="43.98308320635438" lon="11.27863465651402"><ele>241.0</ele><time>2026-04-25T12:06:48.973Z</time></trkpt><trkpt lat="43.98303012731528" lon="11.278885206967988"><ele>242.0</ele><time>2026-04-25T12:06:49.973Z</time></trkpt><trkpt lat="43.982978960742095" lon="11.279135794187614"><ele>243.0</ele><time>2026-04-25T12:06:50.973Z</time></trkpt><trkpt lat="43.98292907308266" lon="11.279388973013488"><ele>244.0</ele><time>2026-04-25T12:06:51.973Z</time></trkpt><trkpt lat="43.98287652608762" lon="11.279630476051974"><ele>247.0</ele><time>2026-04-25T12:06:52.973Z</time></trkpt><trkpt lat="43.98282843634411" lon="11.279870069204726"><ele>250.0</ele><time>2026-04-25T12:06:53.973Z</time></trkpt><trkpt lat="43.982779885228" lon="11.280117133464113"><ele>253.0</ele><time>2026-04-25T12:06:54.973Z</time></trkpt><trkpt lat="43.982736484301405" lon="11.280374846316402"><ele>260.66666666666663</ele><time>2026-04-25T12:06:55.973Z</time></trkpt><trkpt lat="43.98270506009649" lon="11.280638143079434"><ele>268.3333333333333</ele><time>2026-04-25T12:06:56.973Z</time></trkpt><trkpt lat="43.982682418564856" lon="11.280901002005724"><ele>276.0</ele><time>2026-04-25T12:06:57.973Z</time></trkpt><trkpt lat="43.982676929809585" lon="11.281149898360972"><ele>276.0</ele><time>2026-04-25T12:06:58.973Z</time></trkpt><trkpt lat="43.9826776657354" lon="11.28139236784041"><ele>276.0</ele><time>2026-04-25T12:06:59.973Z</time></trkpt><trkpt lat="43.98268088252873" lon="11.281632527844211"><ele>276.0</ele><time>2026-04-25T12:07:00.973Z</time></trkpt><trkpt lat="43.98267638784806" lon="11.281884846906376"><ele>276.3333333333333</ele><time>2026-04-25T12:07:01.973Z</time></trkpt><trkpt lat="43.982673884285596" lon="11.28215110071582"><ele>276.66666666666663</ele><time>2026-04-25T12:07:02.973Z</time></trkpt><trkpt lat="43.98267394887511" lon="11.28241926456273"><ele>277.0</ele><time>2026-04-25T12:07:03.973Z</time></trkpt><trkpt lat="43.98267125321264" lon="11.282692404198425"><ele>275.66666666666663</ele><time>2026-04-25T12:07:04.973Z</time></trkpt><trkpt lat="43.982660514144996" lon="11.28297373224031"><ele>274.3333333333333</ele><time>2026-04-25T12:07:05.973Z</time></trkpt><trkpt lat="43.98264505940565" lon="11.283247521161798"><ele>273.0</ele><time>2026-04-25T12:07:06.973Z</time></trkpt><trkpt lat="43.98262639746292" lon="11.28351478284216"><ele>272.6666666666667</ele><time>2026-04-25T12:07:07.973Z</time></trkpt><trkpt lat="43.98260592296552" lon="11.283770054429302"><ele>272.33333333333337</ele><time>2026-04-25T12:07:08.973Z</time></trkpt><trkpt lat="43.98258306875284" lon="11.284020977015816"><ele>272.0</ele><time>2026-04-25T12:07:09.973Z</time></trkpt><trkpt lat="43.98254317919749" lon="11.284271831866247"><ele>268.33333333333337</ele><time>2026-04-25T12:07:10.973Z</time></trkpt><trkpt lat="43.98249962211739" lon="11.284511595491411"><ele>264.6666666666667</ele><time>2026-04-25T12:07:11.973Z</time></trkpt><trkpt lat="43.98244142368811" lon="11.28475156940271"><ele>261.0</ele><time>2026-04-25T12:07:12.973Z</time></trkpt><trkpt lat="43.98239488370523" lon="11.284971631272024"><ele>259.0</ele><time>2026-04-25T12:07:13.973Z</time></trkpt><trkpt lat="43.98232738186125" lon="11.285199460164439"><ele>257.0</ele><time>2026-04-25T12:07:14.973Z</time></trkpt><trkpt lat="43.98227271987481" lon="11.285418684118834"><ele>255.0</ele><time>2026-04-25T12:07:15.973Z</time></trkpt><trkpt lat="43.98220085635777" lon="11.28563970951034"><ele>253.66666666666669</ele><time>2026-04-25T12:07:16.973Z</time></trkpt><trkpt lat="43.98212408908683" lon="11.285857597946608"><ele>252.33333333333334</ele><time>2026-04-25T12:07:17.973Z</time></trkpt><trkpt lat="43.9820270624517" lon="11.286075513090122"><ele>251.0</ele><time>2026-04-25T12:07:18.973Z</time></trkpt><trkpt lat="43.98192933618502" lon="11.28627992795418"><ele>250.0</ele><time>2026-04-25T12:07:19.973Z</time></trkpt><trkpt lat="43.981822156895824" lon="11.286477477210125"><ele>249.0</ele><time>2026-04-25T12:07:20.973Z</time></trkpt><trkpt lat="43.981706371804556" lon="11.286670559508599"><ele>248.0</ele><time>2026-04-25T12:07:21.973Z</time></trkpt><trkpt lat="43.98158310895422" lon="11.28685870682989"><ele>248.33333333333334</ele><time>2026-04-25T12:07:22.973Z</time></trkpt><trkpt lat="43.98145905495198" lon="11.287032849527275"><ele>248.66666666666669</ele><time>2026-04-25T12:07:23.973Z</time></trkpt><trkpt lat="43.98132592725425" lon="11.287210550386312"><ele>249.0</ele><time>2026-04-25T12:07:24.973Z</time></trkpt><trkpt lat="43.98118734381309" lon="11.287367417067088"><ele>249.0</ele><time>2026-04-25T12:07:25.973Z</time></trkpt><trkpt lat="43.98105033411192" lon="11.287516056705371"><ele>249.0</ele><time>2026-04-25T12:07:26.973Z</time></trkpt><trkpt lat="43.98089961509101" lon="11.287652754683675"><ele>249.0</ele><time>2026-04-25T12:07:27.973Z</time></trkpt><trkpt lat="43.980741254841604" lon="11.287783407113446"><ele>247.66666666666669</ele><time>2026-04-25T12:07:28.973Z</time></trkpt><trkpt lat="43.98058134319762" lon="11.28790776660022"><ele>246.33333333333334</ele><time>2026-04-25T12:07:29.973Z</time></trkpt><trkpt lat="43.98040192725434" lon="11.28802706992721"><ele>245.0</ele><time>2026-04-25T12:07:30.973Z</time></trkpt><trkpt lat="43.98022037950746" lon="11.288135692221404"><ele>245.0</ele><time>2026-04-25T12:07:31.973Z</time></trkpt><trkpt lat="43.980017502598265" lon="11.288228968731069"><ele>245.0</ele><time>2026-04-25T12:07:32.973Z</time></trkpt><trkpt lat="43.9798033616017" lon="11.288308721169777"><ele>245.0</ele><time>2026-04-25T12:07:33.973Z</time></trkpt><trkpt lat="43.97960109732264" lon="11.288373139950448"><ele>243.0</ele><time>2026-04-25T12:07:34.973Z</time></trkpt><trkpt lat="43.97939971157208" lon="11.288423038255699"><ele>241.0</ele><time>2026-04-25T12:07:35.973Z</time></trkpt><trkpt lat="43.97920762898272" lon="11.288456485144467"><ele>239.0</ele><time>2026-04-25T12:07:36.973Z</time></trkpt><trkpt lat="43.9790152907989" lon="11.288458132138974"><ele>238.33333333333334</ele><time>2026-04-25T12:07:37.973Z</time></trkpt><trkpt lat="43.978835405675" lon="11.288461355361886"><ele>237.66666666666669</ele><time>2026-04-25T12:07:38.973Z</time></trkpt><trkpt lat="43.97864239579626" lon="11.288466462653457"><ele>237.0</ele><time>2026-04-25T12:07:39.973Z</time></trkpt><trkpt lat="43.97845522691342" lon="11.288461681796088"><ele>235.33333333333331</ele><time>2026-04-25T12:07:40.973Z</time></trkpt><trkpt lat="43.97827459464387" lon="11.288445396749472"><ele>233.66666666666666</ele><time>2026-04-25T12:07:41.973Z</time></trkpt><trkpt lat="43.97810322092524" lon="11.288432798907738"><ele>232.0</ele><time>2026-04-25T12:07:42.973Z</time></trkpt><trkpt lat="43.9779308142592" lon="11.288416107839355"><ele>232.0</ele><time>2026-04-25T12:07:43.973Z</time></trkpt><trkpt lat="43.97777342910414" lon="11.288393969222563"><ele>232.0</ele><time>2026-04-25T12:07:44.973Z</time></trkpt><trkpt lat="43.97762048915628" lon="11.28836415133308"><ele>232.0</ele><time>2026-04-25T12:07:45.973Z</time></trkpt><trkpt lat="43.97746370783051" lon="11.288332513636032"><ele>230.66666666666666</ele><time>2026-04-25T12:07:46.973Z</time></trkpt><trkpt lat="43.97730312937909" lon="11.288306517175482"><ele>229.33333333333331</ele><time>2026-04-25T12:07:47.973Z</time></trkpt><trkpt lat="43.977142275821336" lon="11.288281281982838"><ele>228.0</ele><time>2026-04-25T12:07:48.973Z</time></trkpt><trkpt lat="43.976978973086126" lon="11.288254766595323"><ele>228.0</ele><time>2026-04-25T12:07:49.973Z</time></trkpt><trkpt lat="43.976811843211976" lon="11.288228330048824"><ele>228.0</ele><time>2026-04-25T12:07:50.973Z</time></trkpt><trkpt lat="43.976642299449985" lon="11.288199151493997"><ele>228.0</ele><time>2026-04-25T12:07:51.973Z</time></trkpt><trkpt lat="43.97647375118855" lon="11.288168658868859"><ele>226.33333333333331</ele><time>2026-04-25T12:07:52.973Z</time></trkpt><trkpt lat="43.976299616616025" lon="11.28813795022373"><ele>224.66666666666666</ele><time>2026-04-25T12:07:53.973Z</time></trkpt><trkpt lat="43.97612325651809" lon="11.288108169053903"><ele>223.0</ele><time>2026-04-25T12:07:54.973Z</time></trkpt><trkpt lat="43.97594513769589" lon="11.288075500240609"><ele>223.66666666666666</ele><time>2026-04-25T12:07:55.973Z</time></trkpt><trkpt lat="43.97576305786777" lon="11.28805408723003"><ele>224.33333333333331</ele><time>2026-04-25T12:07:56.973Z</time></trkpt><trkpt lat="43.97557541535022" lon="11.288045162684485"><ele>225.0</ele><time>2026-04-25T12:07:57.973Z</time></trkpt><trkpt lat="43.97538724203135" lon="11.28803585718853"><ele>225.0</ele><time>2026-04-25T12:07:58.973Z</time></trkpt><trkpt lat="43.975200321986826" lon="11.28803998544043"><ele>225.0</ele><time>2026-04-25T12:07:59.973Z</time></trkpt><trkpt lat="43.975010910629244" lon="11.288054381024551"><ele>225.0</ele><time>2026-04-25T12:08:00.973Z</time></trkpt><trkpt lat="43.9748202438702" lon="11.288079947299465"><ele>224.66666666666669</ele><time>2026-04-25T12:08:01.973Z</time></trkpt><trkpt lat="43.97463719402015" lon="11.288116017505901"><ele>224.33333333333334</ele><time>2026-04-25T12:08:02.973Z</time></trkpt><trkpt lat="43.97446190862169" lon="11.288159082315026"><ele>224.0</ele><time>2026-04-25T12:08:03.973Z</time></trkpt><trkpt lat="43.974304468558195" lon="11.288201668517912"><ele>223.5</ele><time>2026-04-25T12:08:04.973Z</time></trkpt><trkpt lat="43.97416089654869" lon="11.288245151088285"><ele>223.0</ele><time>2026-04-25T12:08:05.973Z</time></trkpt><trkpt lat="43.97403165729748" lon="11.288294661305592"><ele>222.5</ele><time>2026-04-25T12:08:06.973Z</time></trkpt><trkpt lat="43.97391186787001" lon="11.288333556409487"><ele>222.0</ele><time>2026-04-25T12:08:07.973Z</time></trkpt><trkpt lat="43.97379424666714" lon="11.288376239793092"><ele>222.0</ele><time>2026-04-25T12:08:08.973Z</time></trkpt><trkpt lat="43.97369206654804" lon="11.288419503682313"><ele>222.0</ele><time>2026-04-25T12:08:09.973Z</time></trkpt><trkpt lat="43.973603547242966" lon="11.288462075944539"><ele>222.0</ele><time>2026-04-25T12:08:10.973Z</time></trkpt><trkpt lat="43.97352732826255" lon="11.288494470686356"><ele>222.0</ele><time>2026-04-25T12:08:11.973Z</time></trkpt><trkpt lat="43.97345718920809" lon="11.288520524009883"><ele>222.0</ele><time>2026-04-25T12:08:12.973Z</time></trkpt><trkpt lat="43.97338174660504" lon="11.288533231085525"><ele>222.0</ele><time>2026-04-25T12:08:13.973Z</time></trkpt><trkpt lat="43.97331527774672" lon="11.288527443130915"><ele>222.6</ele><time>2026-04-25T12:08:14.973Z</time></trkpt><trkpt lat="43.97322604141879" lon="11.288483380902475"><ele>223.2</ele><time>2026-04-25T12:08:15.973Z</time></trkpt><trkpt lat="43.973133684252744" lon="11.288462205086946"><ele>223.8</ele><time>2026-04-25T12:08:16.973Z</time></trkpt><trkpt lat="43.97303656744641" lon="11.288479308417237"><ele>224.4</ele><time>2026-04-25T12:08:17.973Z</time></trkpt><trkpt lat="43.97295744699448" lon="11.288539050311579"><ele>225.0</ele><time>2026-04-25T12:08:18.973Z</time></trkpt><trkpt lat="43.9728900907571" lon="11.288627702047256"><ele>225.0</ele><time>2026-04-25T12:08:19.973Z</time></trkpt><trkpt lat="43.972844563077025" lon="11.288754508428909"><ele>225.0</ele><time>2026-04-25T12:08:20.973Z</time></trkpt><trkpt lat="43.97282906096079" lon="11.288898583190614"><ele>225.0</ele><time>2026-04-25T12:08:21.973Z</time></trkpt><trkpt lat="43.97283313787674" lon="11.289027933023114"><ele>225.0</ele><time>2026-04-25T12:08:22.973Z</time></trkpt><trkpt lat="43.97265102682536" lon="11.289136151857905"><ele>224.0</ele><time>2026-04-25T12:08:23.973Z</time></trkpt><trkpt lat="43.97252689602923" lon="11.28923364220627"><ele>223.0</ele><time>2026-04-25T12:08:24.973Z</time></trkpt><trkpt lat="43.97238518598104" lon="11.28935135697472"><ele>222.0</ele><time>2026-04-25T12:08:25.973Z</time></trkpt><trkpt lat="43.972249236587615" lon="11.289470397366923"><ele>222.0</ele><time>2026-04-25T12:08:26.973Z</time></trkpt><trkpt lat="43.9721179813918" lon="11.28958083936199"><ele>222.0</ele><time>2026-04-25T12:08:27.973Z</time></trkpt><trkpt lat="43.97198737400002" lon="11.289693347283357"><ele>222.0</ele><time>2026-04-25T12:08:28.973Z</time></trkpt><trkpt lat="43.97185716289446" lon="11.289806772375293"><ele>222.0</ele><time>2026-04-25T12:08:29.973Z</time></trkpt><trkpt lat="43.97173128899683" lon="11.289916744713919"><ele>222.0</ele><time>2026-04-25T12:08:30.973Z</time></trkpt><trkpt lat="43.971611775752095" lon="11.290022952431501"><ele>222.0</ele><time>2026-04-25T12:08:31.973Z</time></trkpt><trkpt lat="43.97149556826054" lon="11.290127988494143"><ele>222.0</ele><time>2026-04-25T12:08:32.974Z</time></trkpt><trkpt lat="43.971374182083075" lon="11.290235322851577"><ele>222.0</ele><time>2026-04-25T12:08:33.974Z</time></trkpt><trkpt lat="43.97125375458018" lon="11.290344965638416"><ele>222.0</ele><time>2026-04-25T12:08:34.974Z</time></trkpt><trkpt lat="43.97113459425167" lon="11.29044880909682"><ele>222.0</ele><time>2026-04-25T12:08:35.974Z</time></trkpt><trkpt lat="43.971014766548805" lon="11.2905538310066"><ele>222.0</ele><time>2026-04-25T12:08:36.974Z</time></trkpt><trkpt lat="43.97090483508061" lon="11.2906557098333"><ele>222.25</ele><time>2026-04-25T12:08:37.974Z</time></trkpt><trkpt lat="43.97079495060869" lon="11.290755897663383"><ele>222.5</ele><time>2026-04-25T12:08:38.974Z</time></trkpt><trkpt lat="43.9706861885872" lon="11.290858383423965"><ele>222.75</ele><time>2026-04-25T12:08:39.974Z</time></trkpt><trkpt lat="43.97056619461467" lon="11.290960769648466"><ele>223.0</ele><time>2026-04-25T12:08:40.975Z</time></trkpt><trkpt lat="43.97044792864468" lon="11.291063870179968"><ele>223.0</ele><time>2026-04-25T12:08:41.975Z</time></trkpt><trkpt lat="43.970330590574314" lon="11.291166718919074"><ele>223.0</ele><time>2026-04-25T12:08:42.975Z</time></trkpt><trkpt lat="43.970208041634216" lon="11.291273944783125"><ele>223.0</ele><time>2026-04-25T12:08:43.974Z</time></trkpt><trkpt lat="43.97008295661636" lon="11.291384486709807"><ele>223.0</ele><time>2026-04-25T12:08:44.974Z</time></trkpt><trkpt lat="43.96995511699276" lon="11.291495612223795"><ele>223.33333333333331</ele><time>2026-04-25T12:08:45.974Z</time></trkpt><trkpt lat="43.96983439620375" lon="11.291607579180468"><ele>223.66666666666669</ele><time>2026-04-25T12:08:46.974Z</time></trkpt><trkpt lat="43.969705689728606" lon="11.291723991358596"><ele>224.0</ele><time>2026-04-25T12:08:47.975Z</time></trkpt><trkpt lat="43.96956997484869" lon="11.291844560909642"><ele>224.0</ele><time>2026-04-25T12:08:48.975Z</time></trkpt><trkpt lat="43.969435935660435" lon="11.29196628718163"><ele>224.0</ele><time>2026-04-25T12:08:49.974Z</time></trkpt><trkpt lat="43.96930987148198" lon="11.292079100507625"><ele>224.0</ele><time>2026-04-25T12:08:50.975Z</time></trkpt><trkpt lat="43.96918439008606" lon="11.292192144014408"><ele>224.0</ele><time>2026-04-25T12:08:51.975Z</time></trkpt><trkpt lat="43.96905817875019" lon="11.292302187926193"><ele>224.0</ele><time>2026-04-25T12:08:52.975Z</time></trkpt><trkpt lat="43.9689268131249" lon="11.292417029468307"><ele>224.0</ele><time>2026-04-25T12:08:53.974Z</time></trkpt><trkpt lat="43.96879961165496" lon="11.292530957267989"><ele>224.0</ele><time>2026-04-25T12:08:54.974Z</time></trkpt><trkpt lat="43.96867708888943" lon="11.29264417752335"><ele>224.0</ele><time>2026-04-25T12:08:55.974Z</time></trkpt><trkpt lat="43.96856068656122" lon="11.292746244179517"><ele>224.0</ele><time>2026-04-25T12:08:56.974Z</time></trkpt><trkpt lat="43.9684463985086" lon="11.292846097401299"><ele>224.0</ele><time>2026-04-25T12:08:57.974Z</time></trkpt><trkpt lat="43.968329714028386" lon="11.292940137000112"><ele>224.25</ele><time>2026-04-25T12:08:58.974Z</time></trkpt><trkpt lat="43.96821031712154" lon="11.293037463478978"><ele>224.5</ele><time>2026-04-25T12:08:59.974Z</time></trkpt><trkpt lat="43.96809122663867" lon="11.29314013207657"><ele>224.75</ele><time>2026-04-25T12:09:00.974Z</time></trkpt><trkpt lat="43.96796197403451" lon="11.29325483672574"><ele>225.0</ele><time>2026-04-25T12:09:01.974Z</time></trkpt><trkpt lat="43.967835877630534" lon="11.293368457674497"><ele>225.0</ele><time>2026-04-25T12:09:02.974Z</time></trkpt><trkpt lat="43.96770117881968" lon="11.293490491935836"><ele>225.0</ele><time>2026-04-25T12:09:03.974Z</time></trkpt><trkpt lat="43.967569299931604" lon="11.293613675634562"><ele>225.0</ele><time>2026-04-25T12:09:04.974Z</time></trkpt><trkpt lat="43.96743649281313" lon="11.293733223719038"><ele>225.33333333333331</ele><time>2026-04-25T12:09:05.974Z</time></trkpt><trkpt lat="43.96730021481669" lon="11.293853421963052"><ele>225.66666666666666</ele><time>2026-04-25T12:09:06.974Z</time></trkpt><trkpt lat="43.96716623019573" lon="11.29397162686348"><ele>226.0</ele><time>2026-04-25T12:09:07.974Z</time></trkpt><trkpt lat="43.96703070014887" lon="11.294086793451646"><ele>226.33333333333331</ele><time>2026-04-25T12:09:08.974Z</time></trkpt><trkpt lat="43.966896922906216" lon="11.294204346361955"><ele>226.66666666666669</ele><time>2026-04-25T12:09:09.974Z</time></trkpt><trkpt lat="43.96676585968274" lon="11.294320825728581"><ele>227.0</ele><time>2026-04-25T12:09:10.974Z</time></trkpt><trkpt lat="43.966632204164746" lon="11.294442960921085"><ele>227.0</ele><time>2026-04-25T12:09:11.974Z</time></trkpt><trkpt lat="43.96649997297619" lon="11.29455954983803"><ele>227.0</ele><time>2026-04-25T12:09:12.974Z</time></trkpt><trkpt lat="43.96636588389287" lon="11.294682756033541"><ele>227.0</ele><time>2026-04-25T12:09:13.974Z</time></trkpt><trkpt lat="43.96623615585958" lon="11.294799972676023"><ele>227.0</ele><time>2026-04-25T12:09:14.974Z</time></trkpt><trkpt lat="43.96610018639775" lon="11.29492571938261"><ele>227.0</ele><time>2026-04-25T12:09:15.974Z</time></trkpt><trkpt lat="43.96598068192055" lon="11.295029851193936"><ele>227.0</ele><time>2026-04-25T12:09:16.974Z</time></trkpt><trkpt lat="43.96587217952379" lon="11.29513045086"><ele>227.0</ele><time>2026-04-25T12:09:17.974Z</time></trkpt><trkpt lat="43.96576781616878" lon="11.295225998880197"><ele>227.25</ele><time>2026-04-25T12:09:18.974Z</time></trkpt><trkpt lat="43.965658231314194" lon="11.29531942093391"><ele>227.5</ele><time>2026-04-25T12:09:19.974Z</time></trkpt><trkpt lat="43.965539528516274" lon="11.295415539850513"><ele>227.75</ele><time>2026-04-25T12:09:20.975Z</time></trkpt><trkpt lat="43.965428937414465" lon="11.295516228529655"><ele>228.0</ele><time>2026-04-25T12:09:21.975Z</time></trkpt><trkpt lat="43.96533055128319" lon="11.295622318334024"><ele>227.60000000000002</ele><time>2026-04-25T12:09:22.975Z</time></trkpt><trkpt lat="43.96523653709494" lon="11.295725490598477"><ele>227.20000000000002</ele><time>2026-04-25T12:09:23.975Z</time></trkpt><trkpt lat="43.96514620622055" lon="11.295819337806087"><ele>226.8</ele><time>2026-04-25T12:09:24.975Z</time></trkpt><trkpt lat="43.96506118171237" lon="11.295908381678064"><ele>226.4</ele><time>2026-04-25T12:09:25.975Z</time></trkpt><trkpt lat="43.9649813896035" lon="11.29599304158956"><ele>226.0</ele><time>2026-04-25T12:09:26.975Z</time></trkpt><trkpt lat="43.96491206894933" lon="11.296080794433028"><ele>225.8</ele><time>2026-04-25T12:09:27.975Z</time></trkpt><trkpt lat="43.964853675578816" lon="11.296176484946871"><ele>225.60000000000002</ele><time>2026-04-25T12:09:28.975Z</time></trkpt><trkpt lat="43.96481950510912" lon="11.296299126126764"><ele>225.4</ele><time>2026-04-25T12:09:29.975Z</time></trkpt><trkpt lat="43.964800955062294" lon="11.29645722293172"><ele>225.2</ele><time>2026-04-25T12:09:30.975Z</time></trkpt><trkpt lat="43.964796805607754" lon="11.296641454773612"><ele>225.0</ele><time>2026-04-25T12:09:31.975Z</time></trkpt><trkpt lat="43.96480994632394" lon="11.296830198898341"><ele>225.0</ele><time>2026-04-25T12:09:32.975Z</time></trkpt><trkpt lat="43.9648236928685" lon="11.29703618195246"><ele>225.0</ele><time>2026-04-25T12:09:33.975Z</time></trkpt><trkpt lat="43.964834972754666" lon="11.297250844403662"><ele>225.0</ele><time>2026-04-25T12:09:34.975Z</time></trkpt><trkpt lat="43.96484705045031" lon="11.297471749442833"><ele>224.0</ele><time>2026-04-25T12:09:35.975Z</time></trkpt><trkpt lat="43.96485597040778" lon="11.297690058891147"><ele>223.0</ele><time>2026-04-25T12:09:36.975Z</time></trkpt><trkpt lat="43.96486852571576" lon="11.29790306576451"><ele>222.0</ele><time>2026-04-25T12:09:37.975Z</time></trkpt><trkpt lat="43.96487753103442" lon="11.29810898408382"><ele>221.25</ele><time>2026-04-25T12:09:38.975Z</time></trkpt><trkpt lat="43.96488860858287" lon="11.298309439631602"><ele>220.5</ele><time>2026-04-25T12:09:39.975Z</time></trkpt><trkpt lat="43.96490121895045" lon="11.298509553198192"><ele>219.75</ele><time>2026-04-25T12:09:40.975Z</time></trkpt><trkpt lat="43.964914882515224" lon="11.298705350941585"><ele>219.0</ele><time>2026-04-25T12:09:41.975Z</time></trkpt><trkpt lat="43.96492556184182" lon="11.2988955430314"><ele>218.5</ele><time>2026-04-25T12:09:42.975Z</time></trkpt><trkpt lat="43.964933386746274" lon="11.29907690284817"><ele>218.0</ele><time>2026-04-25T12:09:43.975Z</time></trkpt><trkpt lat="43.96492669819653" lon="11.29924589761806"><ele>217.5</ele><time>2026-04-25T12:09:44.975Z</time></trkpt><trkpt lat="43.96489026815708" lon="11.299404152582953"><ele>217.0</ele><time>2026-04-25T12:09:45.975Z</time></trkpt><trkpt lat="43.96482590016997" lon="11.299548210203378"><ele>217.0</ele><time>2026-04-25T12:09:46.975Z</time></trkpt><trkpt lat="43.96472998441585" lon="11.29971482442609"><ele>217.0</ele><time>2026-04-25T12:09:47.975Z</time></trkpt><trkpt lat="43.964618716971685" lon="11.299882946111707"><ele>217.0</ele><time>2026-04-25T12:09:48.975Z</time></trkpt><trkpt lat="43.96450434789712" lon="11.300038235305758"><ele>217.25</ele><time>2026-04-25T12:09:49.975Z</time></trkpt><trkpt lat="43.964395113376995" lon="11.300190749952248"><ele>217.5</ele><time>2026-04-25T12:09:50.975Z</time></trkpt><trkpt lat="43.964293923634436" lon="11.300328464772633"><ele>217.75</ele><time>2026-04-25T12:09:51.975Z</time></trkpt><trkpt lat="43.96419108654741" lon="11.300455174937198"><ele>218.0</ele><time>2026-04-25T12:09:52.975Z</time></trkpt><trkpt lat="43.96407677319806" lon="11.300581433920673"><ele>217.25</ele><time>2026-04-25T12:09:53.975Z</time></trkpt><trkpt lat="43.96397135619313" lon="11.300700358652167"><ele>216.5</ele><time>2026-04-25T12:09:54.975Z</time></trkpt><trkpt lat="43.963866592678905" lon="11.300831319440256"><ele>215.75</ele><time>2026-04-25T12:09:55.975Z</time></trkpt><trkpt lat="43.9637548405703" lon="11.30097298848622"><ele>215.0</ele><time>2026-04-25T12:09:56.975Z</time></trkpt><trkpt lat="43.9636450178535" lon="11.301111987492996"><ele>215.0</ele><time>2026-04-25T12:09:57.975Z</time></trkpt><trkpt lat="43.963540111488165" lon="11.301237153043107"><ele>215.0</ele><time>2026-04-25T12:09:58.975Z</time></trkpt><trkpt lat="43.96344538750003" lon="11.301364667710244"><ele>215.0</ele><time>2026-04-25T12:09:59.975Z</time></trkpt><trkpt lat="43.963358717367626" lon="11.301482280050536"><ele>215.0</ele><time>2026-04-25T12:10:00.975Z</time></trkpt><trkpt lat="43.9632684335916" lon="11.301595332254239"><ele>215.0</ele><time>2026-04-25T12:10:01.975Z</time></trkpt><trkpt lat="43.963173084696045" lon="11.301689727791443"><ele>215.0</ele><time>2026-04-25T12:10:02.975Z</time></trkpt><trkpt lat="43.96307065906296" lon="11.301758680657475"><ele>215.0</ele><time>2026-04-25T12:10:03.975Z</time></trkpt><trkpt lat="43.9629597117963" lon="11.3017846143204"><ele>215.0</ele><time>2026-04-25T12:10:04.975Z</time></trkpt><trkpt lat="43.96284793025084" lon="11.301808110545796"><ele>215.0</ele><time>2026-04-25T12:10:05.975Z</time></trkpt><trkpt lat="43.9627457325212" lon="11.301820149994267"><ele>215.0</ele><time>2026-04-25T12:10:06.975Z</time></trkpt><trkpt lat="43.96263713750126" lon="11.301834254148986"><ele>215.0</ele><time>2026-04-25T12:10:07.975Z</time></trkpt><trkpt lat="43.962529423835065" lon="11.301848052201668"><ele>215.0</ele><time>2026-04-25T12:10:08.975Z</time></trkpt><trkpt lat="43.96242220018746" lon="11.3018643081619"><ele>215.0</ele><time>2026-04-25T12:10:09.975Z</time></trkpt><trkpt lat="43.962319954212674" lon="11.301895618076848"><ele>215.2</ele><time>2026-04-25T12:10:10.975Z</time></trkpt><trkpt lat="43.962227021730975" lon="11.301955601147815"><ele>215.4</ele><time>2026-04-25T12:10:11.975Z</time></trkpt><trkpt lat="43.9621360911784" lon="11.302037986300173"><ele>215.60000000000002</ele><time>2026-04-25T12:10:12.975Z</time></trkpt><trkpt lat="43.96204823668731" lon="11.302136882658939"><ele>215.8</ele><time>2026-04-25T12:10:13.975Z</time></trkpt><trkpt lat="43.961967099290476" lon="11.302258512101144"><ele>216.0</ele><time>2026-04-25T12:10:14.975Z</time></trkpt><trkpt lat="43.9618922924729" lon="11.302395698644322"><ele>215.75</ele><time>2026-04-25T12:10:15.975Z</time></trkpt><trkpt lat="43.96181820201304" lon="11.30253254445716"><ele>215.5</ele><time>2026-04-25T12:10:16.975Z</time></trkpt><trkpt lat="43.96175060427992" lon="11.302669810800912"><ele>215.25</ele><time>2026-04-25T12:10:17.975Z</time></trkpt><trkpt lat="43.96167681245003" lon="11.30280784257704"><ele>215.0</ele><time>2026-04-25T12:10:18.975Z</time></trkpt><trkpt lat="43.961587273010196" lon="11.302952766058663"><ele>214.5</ele><time>2026-04-25T12:10:19.975Z</time></trkpt><trkpt lat="43.961496230509844" lon="11.303098580987909"><ele>214.0</ele><time>2026-04-25T12:10:20.975Z</time></trkpt><trkpt lat="43.96140794915346" lon="11.30325024427845"><ele>213.5</ele><time>2026-04-25T12:10:21.975Z</time></trkpt><trkpt lat="43.961310379168594" lon="11.303414010954562"><ele>213.0</ele><time>2026-04-25T12:10:22.975Z</time></trkpt><trkpt lat="43.96120307963126" lon="11.303608073433075"><ele>213.0</ele><time>2026-04-25T12:10:23.975Z</time></trkpt><trkpt lat="43.96109761824072" lon="11.303811351750559"><ele>213.0</ele><time>2026-04-25T12:10:24.975Z</time></trkpt><trkpt lat="43.96097660748837" lon="11.30403174762466"><ele>213.0</ele><time>2026-04-25T12:10:25.975Z</time></trkpt><trkpt lat="43.96085450073545" lon="11.30425408806515"><ele>213.0</ele><time>2026-04-25T12:10:26.975Z</time></trkpt><trkpt lat="43.960731023947815" lon="11.30448157742368"><ele>213.0</ele><time>2026-04-25T12:10:27.975Z</time></trkpt><trkpt lat="43.96060863692537" lon="11.304692666239093"><ele>213.0</ele><time>2026-04-25T12:10:28.975Z</time></trkpt><trkpt lat="43.96046587327252" lon="11.304872110673896"><ele>215.0</ele><time>2026-04-25T12:10:29.975Z</time></trkpt><trkpt lat="43.96030645776959" lon="11.305032479296166"><ele>217.0</ele><time>2026-04-25T12:10:30.975Z</time></trkpt><trkpt lat="43.96015474424777" lon="11.305175080292921"><ele>219.0</ele><time>2026-04-25T12:10:31.975Z</time></trkpt><trkpt lat="43.960004544957464" lon="11.305296648215137"><ele>219.33333333333331</ele><time>2026-04-25T12:10:32.975Z</time></trkpt><trkpt lat="43.9598510567909" lon="11.305404406456585"><ele>219.66666666666666</ele><time>2026-04-25T12:10:33.975Z</time></trkpt><trkpt lat="43.95968845237539" lon="11.305471840525643"><ele>220.0</ele><time>2026-04-25T12:10:34.975Z</time></trkpt><trkpt lat="43.95952926835235" lon="11.305559652974013"><ele>222.0</ele><time>2026-04-25T12:10:35.975Z</time></trkpt><trkpt lat="43.959382400512744" lon="11.30563401096062"><ele>224.0</ele><time>2026-04-25T12:10:36.975Z</time></trkpt><trkpt lat="43.95923356099534" lon="11.305706593304418"><ele>226.0</ele><time>2026-04-25T12:10:37.975Z</time></trkpt><trkpt lat="43.959087657296706" lon="11.305773235777133"><ele>226.0</ele><time>2026-04-25T12:10:38.975Z</time></trkpt><trkpt lat="43.95893448943664" lon="11.3058428652062"><ele>226.0</ele><time>2026-04-25T12:10:39.975Z</time></trkpt><trkpt lat="43.95877334789752" lon="11.30590469643767"><ele>226.0</ele><time>2026-04-25T12:10:40.975Z</time></trkpt><trkpt lat="43.95860360935533" lon="11.305943899247213"><ele>226.0</ele><time>2026-04-25T12:10:41.975Z</time></trkpt><trkpt lat="43.95843153128778" lon="11.3059650866276"><ele>226.0</ele><time>2026-04-25T12:10:42.975Z</time></trkpt><trkpt lat="43.958241774467325" lon="11.30599598163326"><ele>226.0</ele><time>2026-04-25T12:10:43.975Z</time></trkpt><trkpt lat="43.95804980204334" lon="11.306024525670596"><ele>228.0</ele><time>2026-04-25T12:10:44.975Z</time></trkpt><trkpt lat="43.957843639900354" lon="11.306042899643396"><ele>230.0</ele><time>2026-04-25T12:10:45.975Z</time></trkpt><trkpt lat="43.95763489740673" lon="11.30605115330828"><ele>232.0</ele><time>2026-04-25T12:10:46.976Z</time></trkpt><trkpt lat="43.957435616447796" lon="11.306068711094206"><ele>232.33333333333331</ele><time>2026-04-25T12:10:47.976Z</time></trkpt><trkpt lat="43.95725617456143" lon="11.306088449563205"><ele>232.66666666666669</ele><time>2026-04-25T12:10:48.976Z</time></trkpt><trkpt lat="43.95708025020371" lon="11.306105558439851"><ele>233.0</ele><time>2026-04-25T12:10:49.975Z</time></trkpt><trkpt lat="43.95690547639893" lon="11.306125205650432"><ele>233.0</ele><time>2026-04-25T12:10:50.976Z</time></trkpt><trkpt lat="43.95673753009899" lon="11.30614458175654"><ele>233.0</ele><time>2026-04-25T12:10:51.976Z</time></trkpt><trkpt lat="43.956573439862225" lon="11.306157441614102"><ele>233.0</ele><time>2026-04-25T12:10:52.976Z</time></trkpt><trkpt lat="43.95641790931635" lon="11.306149646804263"><ele>234.66666666666669</ele><time>2026-04-25T12:10:53.975Z</time></trkpt><trkpt lat="43.95625496705115" lon="11.30611857638324"><ele>236.33333333333331</ele><time>2026-04-25T12:10:54.975Z</time></trkpt><trkpt lat="43.95609194053089" lon="11.306047452189398"><ele>238.0</ele><time>2026-04-25T12:10:55.976Z</time></trkpt><trkpt lat="43.95593971844247" lon="11.305954127873537"><ele>241.0</ele><time>2026-04-25T12:10:56.976Z</time></trkpt><trkpt lat="43.955802590282744" lon="11.305855999399622"><ele>244.0</ele><time>2026-04-25T12:10:57.976Z</time></trkpt><trkpt lat="43.955682017293604" lon="11.305773889148997"><ele>247.0</ele><time>2026-04-25T12:10:58.975Z</time></trkpt><trkpt lat="43.95556641786395" lon="11.305729715524542"><ele>250.0</ele><time>2026-04-25T12:10:59.975Z</time></trkpt><trkpt lat="43.955453058867825" lon="11.305724273092633"><ele>250.0</ele><time>2026-04-25T12:11:00.975Z</time></trkpt><trkpt lat="43.955321543685564" lon="11.305763768212108"><ele>250.0</ele><time>2026-04-25T12:11:01.975Z</time></trkpt><trkpt lat="43.955187913365904" lon="11.305830623419984"><ele>250.0</ele><time>2026-04-25T12:11:02.975Z</time></trkpt><trkpt lat="43.955048163364715" lon="11.305898250037453"><ele>250.0</ele><time>2026-04-25T12:11:03.975Z</time></trkpt><trkpt lat="43.95490376654847" lon="11.305973412027825"><ele>252.0</ele><time>2026-04-25T12:11:04.975Z</time></trkpt><trkpt lat="43.95475254736002" lon="11.306050146376052"><ele>254.0</ele><time>2026-04-25T12:11:05.975Z</time></trkpt><trkpt lat="43.95461244317555" lon="11.306122478055766"><ele>256.0</ele><time>2026-04-25T12:11:06.975Z</time></trkpt><trkpt lat="43.954465208391184" lon="11.306200583285552"><ele>256.0</ele><time>2026-04-25T12:11:07.975Z</time></trkpt><trkpt lat="43.954315457246544" lon="11.306270934034037"><ele>256.0</ele><time>2026-04-25T12:11:08.975Z</time></trkpt><trkpt lat="43.95415521289511" lon="11.306316901778155"><ele>256.0</ele><time>2026-04-25T12:11:09.975Z</time></trkpt><trkpt lat="43.95399516325204" lon="11.306340176752029"><ele>255.66666666666666</ele><time>2026-04-25T12:11:10.975Z</time></trkpt><trkpt lat="43.95383786127887" lon="11.306362738430312"><ele>255.33333333333331</ele><time>2026-04-25T12:11:11.975Z</time></trkpt><trkpt lat="43.95368379126482" lon="11.306353281702716"><ele>255.0</ele><time>2026-04-25T12:11:12.975Z</time></trkpt><trkpt lat="43.953536643573145" lon="11.306376777925355"><ele>254.33333333333331</ele><time>2026-04-25T12:11:13.975Z</time></trkpt><trkpt lat="43.95338720107986" lon="11.306435760829116"><ele>253.66666666666666</ele><time>2026-04-25T12:11:14.975Z</time></trkpt><trkpt lat="43.95323742055656" lon="11.30654390437758"><ele>253.0</ele><time>2026-04-25T12:11:15.975Z</time></trkpt><trkpt lat="43.95308235883176" lon="11.306657449948151"><ele>253.0</ele><time>2026-04-25T12:11:16.975Z</time></trkpt><trkpt lat="43.95292470569181" lon="11.306777954720609"><ele>253.0</ele><time>2026-04-25T12:11:17.975Z</time></trkpt><trkpt lat="43.9527739477554" lon="11.306898483010562"><ele>253.0</ele><time>2026-04-25T12:11:18.975Z</time></trkpt><trkpt lat="43.95262079589865" lon="11.307017137356711"><ele>249.66666666666666</ele><time>2026-04-25T12:11:19.975Z</time></trkpt><trkpt lat="43.95247198113337" lon="11.307141371709962"><ele>246.33333333333331</ele><time>2026-04-25T12:11:20.975Z</time></trkpt><trkpt lat="43.95234346542561" lon="11.307254855995524"><ele>243.0</ele><time>2026-04-25T12:11:21.975Z</time></trkpt><trkpt lat="43.95224290032555" lon="11.307371910203736"><ele>242.5</ele><time>2026-04-25T12:11:22.975Z</time></trkpt><trkpt lat="43.952156645497396" lon="11.307501578437781"><ele>242.0</ele><time>2026-04-25T12:11:23.975Z</time></trkpt><trkpt lat="43.95208052306222" lon="11.307644513742966"><ele>241.5</ele><time>2026-04-25T12:11:24.975Z</time></trkpt><trkpt lat="43.95204454148955" lon="11.307802215056967"><ele>241.0</ele><time>2026-04-25T12:11:25.975Z</time></trkpt><trkpt lat="43.95201978946225" lon="11.307991481845498"><ele>241.0</ele><time>2026-04-25T12:11:26.976Z</time></trkpt><trkpt lat="43.95203574462903" lon="11.308207654783173"><ele>241.0</ele><time>2026-04-25T12:11:27.976Z</time></trkpt><trkpt lat="43.952070512967055" lon="11.308438519077853"><ele>241.0</ele><time>2026-04-25T12:11:28.976Z</time></trkpt><trkpt lat="43.95211496709281" lon="11.308678294330985"><ele>239.66666666666666</ele><time>2026-04-25T12:11:29.976Z</time></trkpt><trkpt lat="43.9521528519608" lon="11.308940677136864"><ele>238.33333333333331</ele><time>2026-04-25T12:11:30.976Z</time></trkpt><trkpt lat="43.95219222831063" lon="11.309139494507681"><ele>237.0</ele><time>2026-04-25T12:11:31.976Z</time></trkpt><trkpt lat="43.95223486439377" lon="11.309350822466547"><ele>237.0</ele><time>2026-04-25T12:11:32.976Z</time></trkpt><trkpt lat="43.95227393619246" lon="11.309561495427353"><ele>237.0</ele><time>2026-04-25T12:11:33.976Z</time></trkpt><trkpt lat="43.95230834487304" lon="11.309738295634803"><ele>237.0</ele><time>2026-04-25T12:11:34.976Z</time></trkpt><trkpt lat="43.95233395385549" lon="11.309927489853917"><ele>237.0</ele><time>2026-04-25T12:11:35.976Z</time></trkpt><trkpt lat="43.95236473738968" lon="11.310100103074573"><ele>235.39999999999998</ele><time>2026-04-25T12:11:36.976Z</time></trkpt><trkpt lat="43.952393081087145" lon="11.310246062903108"><ele>233.79999999999998</ele><time>2026-04-25T12:11:37.976Z</time></trkpt><trkpt lat="43.95241544214444" lon="11.310392944522745"><ele>232.2</ele><time>2026-04-25T12:11:38.976Z</time></trkpt><trkpt lat="43.95243579049103" lon="11.31052765950896"><ele>230.6</ele><time>2026-04-25T12:11:39.976Z</time></trkpt><trkpt lat="43.95244767737486" lon="11.310651038123678"><ele>229.0</ele><time>2026-04-25T12:11:40.976Z</time></trkpt><trkpt lat="43.95244317241116" lon="11.310778787264775"><ele>229.0</ele><time>2026-04-25T12:11:41.976Z</time></trkpt><trkpt lat="43.95241423105183" lon="11.310905229904463"><ele>228.99999999999997</ele><time>2026-04-25T12:11:42.976Z</time></trkpt><trkpt lat="43.95236794987076" lon="11.311027434558756"><ele>228.99999999999997</ele><time>2026-04-25T12:11:43.976Z</time></trkpt><trkpt lat="43.952340461280166" lon="11.311149053861886"><ele>229.0</ele><time>2026-04-25T12:11:44.976Z</time></trkpt><trkpt lat="43.95233734839222" lon="11.31128384588765"><ele>229.0</ele><time>2026-04-25T12:11:45.976Z</time></trkpt><trkpt lat="43.95236816288509" lon="11.311412982703175"><ele>228.49999999999997</ele><time>2026-04-25T12:11:46.976Z</time></trkpt><trkpt lat="43.952421766087404" lon="11.311503218545118"><ele>228.0</ele><time>2026-04-25T12:11:47.976Z</time></trkpt><trkpt lat="43.95248684823317" lon="11.31156608138037"><ele>227.5</ele><time>2026-04-25T12:11:48.976Z</time></trkpt><trkpt lat="43.9525555174248" lon="11.311615613116373"><ele>227.0</ele><time>2026-04-25T12:11:49.976Z</time></trkpt><trkpt lat="43.95262315892972" lon="11.311664486693832"><ele>226.49999999999997</ele><time>2026-04-25T12:11:50.976Z</time></trkpt><trkpt lat="43.95266632469864" lon="11.311801872904155"><ele>226.0</ele><time>2026-04-25T12:11:51.976Z</time></trkpt><trkpt lat="43.95270404330233" lon="11.31195474984576"><ele>225.5</ele><time>2026-04-25T12:11:52.976Z</time></trkpt><trkpt lat="43.95273779677172" lon="11.312148402288189"><ele>225.0</ele><time>2026-04-25T12:11:53.976Z</time></trkpt><trkpt lat="43.95276686408735" lon="11.312352315203356"><ele>224.5</ele><time>2026-04-25T12:11:54.976Z</time></trkpt><trkpt lat="43.95279976025054" lon="11.312561499861411"><ele>224.0</ele><time>2026-04-25T12:11:55.976Z</time></trkpt><trkpt lat="43.95283433784644" lon="11.312754345758336"><ele>222.75</ele><time>2026-04-25T12:11:56.976Z</time></trkpt><trkpt lat="43.95286810963826" lon="11.312937814938083"><ele>221.5</ele><time>2026-04-25T12:11:57.976Z</time></trkpt><trkpt lat="43.95290165785525" lon="11.313126217163072"><ele>220.25</ele><time>2026-04-25T12:11:58.976Z</time></trkpt><trkpt lat="43.95294431480562" lon="11.313315140345233"><ele>219.0</ele><time>2026-04-25T12:11:59.976Z</time></trkpt><trkpt lat="43.95300173761108" lon="11.313505734020403"><ele>219.0</ele><time>2026-04-25T12:12:00.976Z</time></trkpt><trkpt lat="43.95307678800004" lon="11.31369079160683"><ele>219.0</ele><time>2026-04-25T12:12:01.976Z</time></trkpt><trkpt lat="43.95316344560852" lon="11.313872156576041"><ele>219.0</ele><time>2026-04-25T12:12:02.976Z</time></trkpt><trkpt lat="43.953269725415346" lon="11.314053630390102"><ele>219.33333333333331</ele><time>2026-04-25T12:12:03.976Z</time></trkpt><trkpt lat="43.95339938266114" lon="11.314225135215876"><ele>219.66666666666666</ele><time>2026-04-25T12:12:04.976Z</time></trkpt><trkpt lat="43.95354648797927" lon="11.314396254742284"><ele>220.0</ele><time>2026-04-25T12:12:05.976Z</time></trkpt><trkpt lat="43.95370087598424" lon="11.314580476281723"><ele>226.0</ele><time>2026-04-25T12:12:06.976Z</time></trkpt><trkpt lat="43.95387149788973" lon="11.314771834774112"><ele>232.0</ele><time>2026-04-25T12:12:07.976Z</time></trkpt><trkpt lat="43.95403612740864" lon="11.314953752815743"><ele>238.0</ele><time>2026-04-25T12:12:08.976Z</time></trkpt><trkpt lat="43.95420060194023" lon="11.315145027006846"><ele>236.0</ele><time>2026-04-25T12:12:09.976Z</time></trkpt><trkpt lat="43.95437558065889" lon="11.315340598549376"><ele>234.0</ele><time>2026-04-25T12:12:10.976Z</time></trkpt><trkpt lat="43.95456077612279" lon="11.31555360268465"><ele>247.0</ele><time>2026-04-25T12:12:11.976Z</time></trkpt><trkpt lat="43.954754945989585" lon="11.315778630179151"><ele>260.0</ele><time>2026-04-25T12:12:12.976Z</time></trkpt><trkpt lat="43.95494080806345" lon="11.315994082200804"><ele>247.0</ele><time>2026-04-25T12:12:13.976Z</time></trkpt><trkpt lat="43.955115627225425" lon="11.316203304479359"><ele>234.0</ele><time>2026-04-25T12:12:14.976Z</time></trkpt><trkpt lat="43.955297729132596" lon="11.316437906938141"><ele>233.33333333333331</ele><time>2026-04-25T12:12:16.114Z</time></trkpt><trkpt lat="43.955443327839944" lon="11.316600032512923"><ele>232.66666666666666</ele><time>2026-04-25T12:12:17.113Z</time></trkpt><trkpt lat="43.955588157921326" lon="11.316765557974795"><ele>232.0</ele><time>2026-04-25T12:12:18.113Z</time></trkpt><trkpt lat="43.9556907096219" lon="11.317017888484836"><ele>232.0</ele><time>2026-04-25T12:12:19.976Z</time></trkpt><trkpt lat="43.955809347319494" lon="11.317199952055523"><ele>232.0</ele><time>2026-04-25T12:12:20.976Z</time></trkpt><trkpt lat="43.95595939474066" lon="11.317400213243122"><ele>232.0</ele><time>2026-04-25T12:12:21.976Z</time></trkpt><trkpt lat="43.95604567258017" lon="11.317617672310845"><ele>227.33333333333331</ele><time>2026-04-25T12:12:22.976Z</time></trkpt><trkpt lat="43.9561293001675" lon="11.317857045911506"><ele>222.66666666666669</ele><time>2026-04-25T12:12:23.976Z</time></trkpt><trkpt lat="43.95617267440937" lon="11.318106590186474"><ele>218.0</ele><time>2026-04-25T12:12:24.976Z</time></trkpt><trkpt lat="43.95619666654866" lon="11.318362628898162"><ele>218.0</ele><time>2026-04-25T12:12:25.976Z</time></trkpt><trkpt lat="43.95618464244521" lon="11.318634885339195"><ele>218.0</ele><time>2026-04-25T12:12:26.976Z</time></trkpt><trkpt lat="43.95615571888127" lon="11.318907692841474"><ele>218.0</ele><time>2026-04-25T12:12:27.976Z</time></trkpt><trkpt lat="43.956113147271644" lon="11.319198314009256"><ele>217.5</ele><time>2026-04-25T12:12:28.976Z</time></trkpt><trkpt lat="43.95606379071692" lon="11.319505307797707"><ele>217.0</ele><time>2026-04-25T12:12:29.976Z</time></trkpt><trkpt lat="43.956020928125334" lon="11.319819470218315"><ele>214.5</ele><time>2026-04-25T12:12:30.976Z</time></trkpt><trkpt lat="43.955968721456145" lon="11.320152532434474"><ele>212.0</ele><time>2026-04-25T12:12:31.976Z</time></trkpt><trkpt lat="43.95591138075495" lon="11.320498075965507"><ele>217.0</ele><time>2026-04-25T12:12:32.976Z</time></trkpt><trkpt lat="43.95586140033381" lon="11.32080941865441"><ele>222.0</ele><time>2026-04-25T12:12:33.976Z</time></trkpt><trkpt lat="43.95581265920237" lon="11.321111350730371"><ele>222.0</ele><time>2026-04-25T12:12:34.976Z</time></trkpt><trkpt lat="43.955772813993505" lon="11.32139400162624"><ele>222.0</ele><time>2026-04-25T12:12:35.976Z</time></trkpt><trkpt lat="43.95573527699491" lon="11.321651460399167"><ele>222.0</ele><time>2026-04-25T12:12:36.976Z</time></trkpt><trkpt lat="43.955695107333966" lon="11.321902833268569"><ele>223.0</ele><time>2026-04-25T12:12:37.976Z</time></trkpt><trkpt lat="43.95566007655856" lon="11.322135637392378"><ele>224.0</ele><time>2026-04-25T12:12:38.976Z</time></trkpt><trkpt lat="43.95562459525328" lon="11.322361031883029"><ele>225.0</ele><time>2026-04-25T12:12:39.976Z</time></trkpt><trkpt lat="43.9555958904104" lon="11.322581338219845"><ele>225.66666666666669</ele><time>2026-04-25T12:12:40.976Z</time></trkpt><trkpt lat="43.9555621559314" lon="11.322795881728434"><ele>226.33333333333334</ele><time>2026-04-25T12:12:41.976Z</time></trkpt><trkpt lat="43.955534067556" lon="11.323006575498464"><ele>227.0</ele><time>2026-04-25T12:12:42.976Z</time></trkpt><trkpt lat="43.955513941359655" lon="11.32323608228144"><ele>227.0</ele><time>2026-04-25T12:12:43.976Z</time></trkpt><trkpt lat="43.955515347272865" lon="11.323494022278377"><ele>227.0</ele><time>2026-04-25T12:12:44.976Z</time></trkpt><trkpt lat="43.95553998356965" lon="11.323771183343752"><ele>227.0</ele><time>2026-04-25T12:12:45.976Z</time></trkpt><trkpt lat="43.95557144873335" lon="11.32403467479847"><ele>225.66666666666669</ele><time>2026-04-25T12:12:46.976Z</time></trkpt><trkpt lat="43.95560373145323" lon="11.32432367832764"><ele>224.33333333333331</ele><time>2026-04-25T12:12:47.976Z</time></trkpt><trkpt lat="43.95563173213982" lon="11.32458405786375"><ele>223.0</ele><time>2026-04-25T12:12:48.976Z</time></trkpt><trkpt lat="43.95565535755037" lon="11.324841365599095"><ele>222.0</ele><time>2026-04-25T12:12:49.976Z</time></trkpt><trkpt lat="43.95568082931789" lon="11.325097352402143"><ele>221.0</ele><time>2026-04-25T12:12:50.976Z</time></trkpt><trkpt lat="43.95571959006576" lon="11.325334494009521"><ele>220.0</ele><time>2026-04-25T12:12:51.976Z</time></trkpt><trkpt lat="43.9557469121111" lon="11.325575319423793"><ele>218.33333333333331</ele><time>2026-04-25T12:12:52.976Z</time></trkpt><trkpt lat="43.95577444299305" lon="11.325811008664624"><ele>216.66666666666669</ele><time>2026-04-25T12:12:53.976Z</time></trkpt><trkpt lat="43.95579610168061" lon="11.326040639507802"><ele>215.0</ele><time>2026-04-25T12:12:54.976Z</time></trkpt><trkpt lat="43.95580939472998" lon="11.32626513999921"><ele>214.0</ele><time>2026-04-25T12:12:55.976Z</time></trkpt><trkpt lat="43.955811383281464" lon="11.326488398635014"><ele>213.0</ele><time>2026-04-25T12:12:56.976Z</time></trkpt><trkpt lat="43.95580200670939" lon="11.32671067738152"><ele>212.0</ele><time>2026-04-25T12:12:57.976Z</time></trkpt><trkpt lat="43.95578640024865" lon="11.326943876693505"><ele>212.0</ele><time>2026-04-25T12:12:58.977Z</time></trkpt><trkpt lat="43.955762263990025" lon="11.327177098788763"><ele>212.0</ele><time>2026-04-25T12:12:59.976Z</time></trkpt><trkpt lat="43.955725101298185" lon="11.327419223011317"><ele>212.0</ele><time>2026-04-25T12:13:00.976Z</time></trkpt><trkpt lat="43.9556801021935" lon="11.327654036725622"><ele>211.0</ele><time>2026-04-25T12:13:01.976Z</time></trkpt><trkpt lat="43.95561963506846" lon="11.327903857031435"><ele>210.0</ele><time>2026-04-25T12:13:02.977Z</time></trkpt><trkpt lat="43.955549119523305" lon="11.328152101789646"><ele>209.0</ele><time>2026-04-25T12:13:03.977Z</time></trkpt><trkpt lat="43.95546600136584" lon="11.32840365388158"><ele>208.33333333333334</ele><time>2026-04-25T12:13:04.976Z</time></trkpt><trkpt lat="43.95538625231612" lon="11.328644000591662"><ele>207.66666666666669</ele><time>2026-04-25T12:13:05.977Z</time></trkpt><trkpt lat="43.95531709262507" lon="11.328876476327594"><ele>207.0</ele><time>2026-04-25T12:13:06.977Z</time></trkpt><trkpt lat="43.955247871651586" lon="11.329113786789165"><ele>206.33333333333331</ele><time>2026-04-25T12:13:07.977Z</time></trkpt><trkpt lat="43.95517112629312" lon="11.329350395693893"><ele>205.66666666666666</ele><time>2026-04-25T12:13:08.977Z</time></trkpt><trkpt lat="43.955086712710695" lon="11.329582401485137"><ele>205.0</ele><time>2026-04-25T12:13:09.977Z</time></trkpt><trkpt lat="43.954990434085445" lon="11.329807475253862"><ele>205.0</ele><time>2026-04-25T12:13:10.977Z</time></trkpt><trkpt lat="43.95488835820874" lon="11.330022395119585"><ele>205.0</ele><time>2026-04-25T12:13:11.977Z</time></trkpt><trkpt lat="43.954774312483906" lon="11.330229305225178"><ele>205.0</ele><time>2026-04-25T12:13:12.977Z</time></trkpt><trkpt lat="43.95465381322007" lon="11.330429547372143"><ele>203.33333333333331</ele><time>2026-04-25T12:13:13.977Z</time></trkpt><trkpt lat="43.954529781635806" lon="11.330639323777078"><ele>201.66666666666669</ele><time>2026-04-25T12:13:14.977Z</time></trkpt><trkpt lat="43.95440485423996" lon="11.330851739059435"><ele>200.0</ele><time>2026-04-25T12:13:15.977Z</time></trkpt><trkpt lat="43.95427639279983" lon="11.331062603128927"><ele>201.33333333333334</ele><time>2026-04-25T12:13:16.977Z</time></trkpt><trkpt lat="43.954148351369184" lon="11.331291999256852"><ele>202.66666666666669</ele><time>2026-04-25T12:13:17.977Z</time></trkpt><trkpt lat="43.95402318596094" lon="11.331520454092828"><ele>204.0</ele><time>2026-04-25T12:13:18.977Z</time></trkpt><trkpt lat="43.95388361974439" lon="11.33173593189074"><ele>204.0</ele><time>2026-04-25T12:13:19.977Z</time></trkpt><trkpt lat="43.953771114754666" lon="11.33197271701393"><ele>204.0</ele><time>2026-04-25T12:13:20.977Z</time></trkpt><trkpt lat="43.95366800556598" lon="11.332229129285686"><ele>204.0</ele><time>2026-04-25T12:13:21.977Z</time></trkpt><trkpt lat="43.95357723143155" lon="11.332500946512555"><ele>204.5</ele><time>2026-04-25T12:13:22.977Z</time></trkpt><trkpt lat="43.9534924881497" lon="11.332789302927635"><ele>205.0</ele><time>2026-04-25T12:13:23.977Z</time></trkpt><trkpt lat="43.95341560230028" lon="11.33308415034793"><ele>207.0</ele><time>2026-04-25T12:13:24.977Z</time></trkpt><trkpt lat="43.95333817024826" lon="11.33338501084332"><ele>209.0</ele><time>2026-04-25T12:13:25.977Z</time></trkpt><trkpt lat="43.95325950034738" lon="11.333677524503791"><ele>209.33333333333334</ele><time>2026-04-25T12:13:26.977Z</time></trkpt><trkpt lat="43.9531815931519" lon="11.333957124405838"><ele>209.66666666666669</ele><time>2026-04-25T12:13:27.977Z</time></trkpt><trkpt lat="43.953110772099855" lon="11.334224021188346"><ele>210.0</ele><time>2026-04-25T12:13:28.977Z</time></trkpt><trkpt lat="43.95304379790332" lon="11.33448071234144"><ele>210.66666666666669</ele><time>2026-04-25T12:13:29.977Z</time></trkpt><trkpt lat="43.95297501331277" lon="11.334728596157555"><ele>211.33333333333334</ele><time>2026-04-25T12:13:30.977Z</time></trkpt><trkpt lat="43.95290135009633" lon="11.334978846505644"><ele>212.0</ele><time>2026-04-25T12:13:31.977Z</time></trkpt><trkpt lat="43.95282291394681" lon="11.335226991237137"><ele>212.0</ele><time>2026-04-25T12:13:32.977Z</time></trkpt><trkpt lat="43.952737504167104" lon="11.335469394259624"><ele>212.0</ele><time>2026-04-25T12:13:33.977Z</time></trkpt><trkpt lat="43.95263774843363" lon="11.335706472259407"><ele>212.0</ele><time>2026-04-25T12:13:34.977Z</time></trkpt><trkpt lat="43.95253042505037" lon="11.335949006130377"><ele>212.33333333333334</ele><time>2026-04-25T12:13:35.977Z</time></trkpt><trkpt lat="43.95242431156208" lon="11.336197121358447"><ele>212.66666666666669</ele><time>2026-04-25T12:13:36.977Z</time></trkpt><trkpt lat="43.95231500801756" lon="11.3364474947628"><ele>213.0</ele><time>2026-04-25T12:13:37.977Z</time></trkpt><trkpt lat="43.95220176311845" lon="11.336698989677613"><ele>213.0</ele><time>2026-04-25T12:13:38.977Z</time></trkpt><trkpt lat="43.95209249510219" lon="11.336956090981985"><ele>213.0</ele><time>2026-04-25T12:13:39.977Z</time></trkpt><trkpt lat="43.95199065164317" lon="11.337198184474797"><ele>213.0</ele><time>2026-04-25T12:13:40.977Z</time></trkpt><trkpt lat="43.95189552906584" lon="11.337428381047433"><ele>213.0</ele><time>2026-04-25T12:13:41.977Z</time></trkpt><trkpt lat="43.951795097094454" lon="11.337649362826657"><ele>213.0</ele><time>2026-04-25T12:13:42.977Z</time></trkpt><trkpt lat="43.951700307264026" lon="11.337855912511955"><ele>213.0</ele><time>2026-04-25T12:13:43.977Z</time></trkpt><trkpt lat="43.95160553623841" lon="11.338054078138558"><ele>213.33333333333331</ele><time>2026-04-25T12:13:44.977Z</time></trkpt><trkpt lat="43.95152335879077" lon="11.338250604482011"><ele>213.66666666666666</ele><time>2026-04-25T12:13:45.977Z</time></trkpt><trkpt lat="43.951438554210704" lon="11.338443904224347"><ele>214.0</ele><time>2026-04-25T12:13:46.977Z</time></trkpt><trkpt lat="43.95135701161129" lon="11.338636376041611"><ele>214.0</ele><time>2026-04-25T12:13:47.977Z</time></trkpt><trkpt lat="43.95126588500354" lon="11.338839005056284"><ele>214.0</ele><time>2026-04-25T12:13:48.977Z</time></trkpt><trkpt lat="43.951163695378604" lon="11.339043185397351"><ele>214.0</ele><time>2026-04-25T12:13:49.977Z</time></trkpt><trkpt lat="43.95104874278486" lon="11.339247728413936"><ele>214.33333333333331</ele><time>2026-04-25T12:13:50.977Z</time></trkpt><trkpt lat="43.95091945704696" lon="11.339444176934121"><ele>214.66666666666669</ele><time>2026-04-25T12:13:51.977Z</time></trkpt><trkpt lat="43.9507804737571" lon="11.339634789768912"><ele>215.0</ele><time>2026-04-25T12:13:52.977Z</time></trkpt><trkpt lat="43.95063672823183" lon="11.33981884798258"><ele>212.66666666666669</ele><time>2026-04-25T12:13:53.977Z</time></trkpt><trkpt lat="43.95048563677295" lon="11.34000679110888"><ele>210.33333333333331</ele><time>2026-04-25T12:13:54.977Z</time></trkpt><trkpt lat="43.950341973257146" lon="11.340192067470216"><ele>208.0</ele><time>2026-04-25T12:13:55.977Z</time></trkpt><trkpt lat="43.950198317406354" lon="11.340383497042039"><ele>208.66666666666666</ele><time>2026-04-25T12:13:56.977Z</time></trkpt><trkpt lat="43.95006128684411" lon="11.340581896750976"><ele>209.33333333333331</ele><time>2026-04-25T12:13:57.977Z</time></trkpt><trkpt lat="43.94993873197915" lon="11.340788317128252"><ele>210.0</ele><time>2026-04-25T12:13:58.977Z</time></trkpt><trkpt lat="43.949825056930585" lon="11.341001247305188"><ele>210.0</ele><time>2026-04-25T12:13:59.977Z</time></trkpt><trkpt lat="43.949727958438636" lon="11.341228094766173"><ele>210.0</ele><time>2026-04-25T12:14:00.977Z</time></trkpt><trkpt lat="43.949642712763705" lon="11.341467980510128"><ele>210.0</ele><time>2026-04-25T12:14:01.977Z</time></trkpt><trkpt lat="43.9495703742437" lon="11.341713401608201"><ele>211.66666666666669</ele><time>2026-04-25T12:14:02.977Z</time></trkpt><trkpt lat="43.94950978158237" lon="11.341964193541896"><ele>213.33333333333334</ele><time>2026-04-25T12:14:03.977Z</time></trkpt><trkpt lat="43.949450716403184" lon="11.342228408539338"><ele>215.0</ele><time>2026-04-25T12:14:04.977Z</time></trkpt><trkpt lat="43.94939530438316" lon="11.342470643862093"><ele>215.33333333333334</ele><time>2026-04-25T12:14:05.977Z</time></trkpt><trkpt lat="43.949335858724226" lon="11.342693855442421"><ele>215.66666666666669</ele><time>2026-04-25T12:14:06.977Z</time></trkpt><trkpt lat="43.949274846376845" lon="11.342900644042912"><ele>216.0</ele><time>2026-04-25T12:14:07.977Z</time></trkpt><trkpt lat="43.94921807215223" lon="11.3430975985925"><ele>216.0</ele><time>2026-04-25T12:14:08.977Z</time></trkpt><trkpt lat="43.94915047997539" lon="11.343296952682088"><ele>216.0</ele><time>2026-04-25T12:14:09.977Z</time></trkpt><trkpt lat="43.94907031332685" lon="11.343488952360541"><ele>216.0</ele><time>2026-04-25T12:14:10.977Z</time></trkpt><trkpt lat="43.948971713813556" lon="11.343692204275577"><ele>215.66666666666669</ele><time>2026-04-25T12:14:11.977Z</time></trkpt><trkpt lat="43.94885651724713" lon="11.34389310369396"><ele>215.33333333333334</ele><time>2026-04-25T12:14:12.977Z</time></trkpt><trkpt lat="43.94872943526758" lon="11.344091859033647"><ele>215.0</ele><time>2026-04-25T12:14:13.977Z</time></trkpt><trkpt lat="43.94859733059002" lon="11.344281089983976"><ele>215.0</ele><time>2026-04-25T12:14:14.977Z</time></trkpt><trkpt lat="43.948466084409645" lon="11.344464038657378"><ele>215.0</ele><time>2026-04-25T12:14:15.977Z</time></trkpt><trkpt lat="43.94833714577548" lon="11.344640697329787"><ele>215.0</ele><time>2026-04-25T12:14:16.977Z</time></trkpt><trkpt lat="43.94821052644349" lon="11.344822095732775"><ele>215.66666666666669</ele><time>2026-04-25T12:14:17.977Z</time></trkpt><trkpt lat="43.94809407920682" lon="11.344999743972192"><ele>216.33333333333331</ele><time>2026-04-25T12:14:18.977Z</time></trkpt><trkpt lat="43.94797921230443" lon="11.345178071216488"><ele>217.0</ele><time>2026-04-25T12:14:19.977Z</time></trkpt><trkpt lat="43.94787739096499" lon="11.3453692052592"><ele>216.66666666666666</ele><time>2026-04-25T12:14:20.977Z</time></trkpt><trkpt lat="43.94778807533486" lon="11.34557708537124"><ele>216.33333333333331</ele><time>2026-04-25T12:14:21.977Z</time></trkpt><trkpt lat="43.94771319469687" lon="11.345801798127816"><ele>216.0</ele><time>2026-04-25T12:14:22.977Z</time></trkpt><trkpt lat="43.94764433742816" lon="11.346032158069288"><ele>216.0</ele><time>2026-04-25T12:14:23.977Z</time></trkpt><trkpt lat="43.947582849231324" lon="11.346267432100543"><ele>216.0</ele><time>2026-04-25T12:14:24.977Z</time></trkpt><trkpt lat="43.947537838240954" lon="11.346500360488168"><ele>216.0</ele><time>2026-04-25T12:14:25.977Z</time></trkpt><trkpt lat="43.94749126828557" lon="11.346738202115466"><ele>216.0</ele><time>2026-04-25T12:14:26.977Z</time></trkpt><trkpt lat="43.947448479967434" lon="11.346983533498664"><ele>216.0</ele><time>2026-04-25T12:14:27.977Z</time></trkpt><trkpt lat="43.947404622695665" lon="11.34724089869194"><ele>216.0</ele><time>2026-04-25T12:14:28.977Z</time></trkpt><trkpt lat="43.94736110438651" lon="11.347505605364823"><ele>216.0</ele><time>2026-04-25T12:14:29.977Z</time></trkpt><trkpt lat="43.9473115841597" lon="11.347778877299387"><ele>216.0</ele><time>2026-04-25T12:14:30.977Z</time></trkpt><trkpt lat="43.94726872137026" lon="11.348062560780924"><ele>216.0</ele><time>2026-04-25T12:14:31.977Z</time></trkpt><trkpt lat="43.94721951583219" lon="11.348356439424625"><ele>214.66666666666669</ele><time>2026-04-25T12:14:32.977Z</time></trkpt><trkpt lat="43.947171213942575" lon="11.348653628874306"><ele>213.33333333333334</ele><time>2026-04-25T12:14:33.977Z</time></trkpt><trkpt lat="43.947120128593845" lon="11.348949853072439"><ele>212.0</ele><time>2026-04-25T12:14:34.976Z</time></trkpt><trkpt lat="43.947069053753445" lon="11.349233762784765"><ele>211.33333333333334</ele><time>2026-04-25T12:14:35.976Z</time></trkpt><trkpt lat="43.947026066236404" lon="11.349522709855016"><ele>210.66666666666669</ele><time>2026-04-25T12:14:36.976Z</time></trkpt><trkpt lat="43.94697873166564" lon="11.34981083630237"><ele>210.0</ele><time>2026-04-25T12:14:37.976Z</time></trkpt><trkpt lat="43.94692358442472" lon="11.350115514759826"><ele>209.66666666666669</ele><time>2026-04-25T12:14:38.976Z</time></trkpt><trkpt lat="43.94687097297735" lon="11.350408671282496"><ele>209.33333333333334</ele><time>2026-04-25T12:14:39.976Z</time></trkpt><trkpt lat="43.94682335204771" lon="11.350714723075543"><ele>209.0</ele><time>2026-04-25T12:14:40.976Z</time></trkpt><trkpt lat="43.94677406529881" lon="11.351019943601619"><ele>207.5</ele><time>2026-04-25T12:14:41.976Z</time></trkpt><trkpt lat="43.946718226101375" lon="11.351329531269208"><ele>206.0</ele><time>2026-04-25T12:14:42.976Z</time></trkpt><trkpt lat="43.94667065661979" lon="11.351633715088889"><ele>206.0</ele><time>2026-04-25T12:14:43.976Z</time></trkpt><trkpt lat="43.946620184599254" lon="11.3519424037521"><ele>206.0</ele><time>2026-04-25T12:14:44.976Z</time></trkpt><trkpt lat="43.94656636307779" lon="11.35223721844415"><ele>206.0</ele><time>2026-04-25T12:14:45.976Z</time></trkpt><trkpt lat="43.94652132643803" lon="11.3525195920168"><ele>205.66666666666669</ele><time>2026-04-25T12:14:46.976Z</time></trkpt><trkpt lat="43.94646693210718" lon="11.352801707777271"><ele>205.33333333333331</ele><time>2026-04-25T12:14:47.976Z</time></trkpt><trkpt lat="43.946422570455084" lon="11.353081466693318"><ele>205.0</ele><time>2026-04-25T12:14:48.976Z</time></trkpt><trkpt lat="43.946384861797206" lon="11.353367420892448"><ele>204.33333333333331</ele><time>2026-04-25T12:14:49.976Z</time></trkpt><trkpt lat="43.94634322539496" lon="11.353657143168085"><ele>203.66666666666669</ele><time>2026-04-25T12:14:50.976Z</time></trkpt><trkpt lat="43.94630848600395" lon="11.353950767617054"><ele>203.0</ele><time>2026-04-25T12:14:51.976Z</time></trkpt><trkpt lat="43.94628297974338" lon="11.35423303737831"><ele>201.66666666666669</ele><time>2026-04-25T12:14:52.976Z</time></trkpt><trkpt lat="43.946248983702915" lon="11.354528981589997"><ele>200.33333333333331</ele><time>2026-04-25T12:14:53.976Z</time></trkpt><trkpt lat="43.946220653825485" lon="11.354807660432787"><ele>199.0</ele><time>2026-04-25T12:14:54.976Z</time></trkpt><trkpt lat="43.94619842894552" lon="11.355078651932446"><ele>198.66666666666666</ele><time>2026-04-25T12:14:55.976Z</time></trkpt><trkpt lat="43.946177566460335" lon="11.355344334826132"><ele>198.33333333333331</ele><time>2026-04-25T12:14:56.976Z</time></trkpt><trkpt lat="43.946160183148656" lon="11.35560903121676"><ele>198.0</ele><time>2026-04-25T12:14:57.976Z</time></trkpt><trkpt lat="43.94614077302586" lon="11.355873283347815"><ele>198.0</ele><time>2026-04-25T12:14:58.976Z</time></trkpt><trkpt lat="43.946120822040776" lon="11.356127759440566"><ele>198.0</ele><time>2026-04-25T12:14:59.977Z</time></trkpt><trkpt lat="43.94609693831259" lon="11.35636753445354"><ele>198.0</ele><time>2026-04-25T12:15:00.977Z</time></trkpt><trkpt lat="43.946074396095185" lon="11.356591085055685"><ele>198.33333333333331</ele><time>2026-04-25T12:15:01.976Z</time></trkpt><trkpt lat="43.94605571362205" lon="11.356814382950416"><ele>198.66666666666666</ele><time>2026-04-25T12:15:02.976Z</time></trkpt><trkpt lat="43.946049723755074" lon="11.357042227472478"><ele>199.0</ele><time>2026-04-25T12:15:03.976Z</time></trkpt><trkpt lat="43.94605584090507" lon="11.357276425711573"><ele>199.5</ele><time>2026-04-25T12:15:04.976Z</time></trkpt><trkpt lat="43.946068665290646" lon="11.357496539492214"><ele>200.0</ele><time>2026-04-25T12:15:05.976Z</time></trkpt><trkpt lat="43.946091682422924" lon="11.357700883807686"><ele>200.5</ele><time>2026-04-25T12:15:06.976Z</time></trkpt><trkpt lat="43.94611966528569" lon="11.357889404359126"><ele>201.0</ele><time>2026-04-25T12:15:07.976Z</time></trkpt><trkpt lat="43.946146992773606" lon="11.358071174868119"><ele>201.75</ele><time>2026-04-25T12:15:08.976Z</time></trkpt><trkpt lat="43.94617839917206" lon="11.358247310392654"><ele>202.5</ele><time>2026-04-25T12:15:09.976Z</time></trkpt><trkpt lat="43.94619941235011" lon="11.358426629153621"><ele>203.25</ele><time>2026-04-25T12:15:10.976Z</time></trkpt><trkpt lat="43.94620811947796" lon="11.358579649415143"><ele>204.0</ele><time>2026-04-25T12:15:11.976Z</time></trkpt><trkpt lat="43.946188160073234" lon="11.358698922728879"><ele>204.0</ele><time>2026-04-25T12:15:12.976Z</time></trkpt><trkpt lat="43.946149550033276" lon="11.358793527179664"><ele>204.0</ele><time>2026-04-25T12:15:13.976Z</time></trkpt><trkpt lat="43.94608809931483" lon="11.35887852232988"><ele>204.0</ele><time>2026-04-25T12:15:14.976Z</time></trkpt><trkpt lat="43.946017787710744" lon="11.358987059613435"><ele>204.0</ele><time>2026-04-25T12:15:15.976Z</time></trkpt><trkpt lat="43.94595882874856" lon="11.35912952414845"><ele>204.0</ele><time>2026-04-25T12:15:16.976Z</time></trkpt><trkpt lat="43.945922875783204" lon="11.359286151599697"><ele>205.0</ele><time>2026-04-25T12:15:17.976Z</time></trkpt><trkpt lat="43.945829025995344" lon="11.3594235677285"><ele>206.0</ele><time>2026-04-25T12:15:18.976Z</time></trkpt><trkpt lat="43.945734751190706" lon="11.359554189906566"><ele>207.0</ele><time>2026-04-25T12:15:19.976Z</time></trkpt><trkpt lat="43.94562166415502" lon="11.35967673008535"><ele>208.0</ele><time>2026-04-25T12:15:20.976Z</time></trkpt><trkpt lat="43.94550713333826" lon="11.359792233954899"><ele>208.0</ele><time>2026-04-25T12:15:21.976Z</time></trkpt><trkpt lat="43.94539231697819" lon="11.359898252480031"><ele>208.0</ele><time>2026-04-25T12:15:22.976Z</time></trkpt><trkpt lat="43.94527308406324" lon="11.359990534595255"><ele>208.0</ele><time>2026-04-25T12:15:23.976Z</time></trkpt><trkpt lat="43.94516758844101" lon="11.360076477569782"><ele>208.0</ele><time>2026-04-25T12:15:24.976Z</time></trkpt><trkpt lat="43.945058044646174" lon="11.360147883509097"><ele>210.2</ele><time>2026-04-25T12:15:25.976Z</time></trkpt><trkpt lat="43.944950914672745" lon="11.36021274483982"><ele>212.4</ele><time>2026-04-25T12:15:26.976Z</time></trkpt><trkpt lat="43.94484822157853" lon="11.360257972445357"><ele>214.59999999999997</ele><time>2026-04-25T12:15:27.976Z</time></trkpt><trkpt lat="43.94475367308479" lon="11.360306088874303"><ele>216.79999999999998</ele><time>2026-04-25T12:15:28.976Z</time></trkpt><trkpt lat="43.944677158946114" lon="11.360331333312079"><ele>219.0</ele><time>2026-04-25T12:15:29.976Z</time></trkpt><trkpt lat="43.94460750782211" lon="11.360318152213353"><ele>219.0</ele><time>2026-04-25T12:15:30.976Z</time></trkpt><trkpt lat="43.94452813279161" lon="11.360307032827963"><ele>218.99999999999997</ele><time>2026-04-25T12:15:31.976Z</time></trkpt><trkpt lat="43.944487650567545" lon="11.360220021040432"><ele>218.99999999999997</ele><time>2026-04-25T12:15:32.976Z</time></trkpt><trkpt lat="43.94442401519958" lon="11.360127488947189"><ele>219.0</ele><time>2026-04-25T12:15:33.976Z</time></trkpt><trkpt lat="43.944338526785444" lon="11.360014135617826"><ele>219.0</ele><time>2026-04-25T12:15:34.976Z</time></trkpt><trkpt lat="43.94422869397983" lon="11.359907559037964"><ele>217.33333333333331</ele><time>2026-04-25T12:15:35.976Z</time></trkpt><trkpt lat="43.94412682574244" lon="11.35974864782988"><ele>215.66666666666666</ele><time>2026-04-25T12:15:36.976Z</time></trkpt><trkpt lat="43.94400379049149" lon="11.359599579869736"><ele>214.0</ele><time>2026-04-25T12:15:37.976Z</time></trkpt><trkpt lat="43.94387843353582" lon="11.359462926302111"><ele>224.0</ele><time>2026-04-25T12:15:38.976Z</time></trkpt><trkpt lat="43.94374554251144" lon="11.359332497450385"><ele>234.0</ele><time>2026-04-25T12:15:39.976Z</time></trkpt><trkpt lat="43.94360242256716" lon="11.359223067315966"><ele>244.0</ele><time>2026-04-25T12:15:40.976Z</time></trkpt><trkpt lat="43.943466984293465" lon="11.359100040553109"><ele>240.0</ele><time>2026-04-25T12:15:41.976Z</time></trkpt><trkpt lat="43.94333054297792" lon="11.358992523203321"><ele>236.0</ele><time>2026-04-25T12:15:42.976Z</time></trkpt><trkpt lat="43.943195617087696" lon="11.358897716073347"><ele>232.0</ele><time>2026-04-25T12:15:43.976Z</time></trkpt><trkpt lat="43.94307326020455" lon="11.358806208098871"><ele>228.0</ele><time>2026-04-25T12:15:44.976Z</time></trkpt><trkpt lat="43.942948910677096" lon="11.358722940127087"><ele>228.0</ele><time>2026-04-25T12:15:45.976Z</time></trkpt><trkpt lat="43.94283711787441" lon="11.358641710649572"><ele>228.0</ele><time>2026-04-25T12:15:46.976Z</time></trkpt><trkpt lat="43.94270538287038" lon="11.35853624435648"><ele>228.0</ele><time>2026-04-25T12:15:47.976Z</time></trkpt><trkpt lat="43.94259539039781" lon="11.358390775845699"><ele>228.0</ele><time>2026-04-25T12:15:48.976Z</time></trkpt><trkpt lat="43.942479015670806" lon="11.358210432193495"><ele>221.66666666666669</ele><time>2026-04-25T12:15:49.976Z</time></trkpt><trkpt lat="43.94235918021692" lon="11.3580100074844"><ele>215.33333333333334</ele><time>2026-04-25T12:15:50.976Z</time></trkpt><trkpt lat="43.94223544440205" lon="11.357816835330794"><ele>209.0</ele><time>2026-04-25T12:15:51.976Z</time></trkpt><trkpt lat="43.94210745017384" lon="11.357632478724577"><ele>209.0</ele><time>2026-04-25T12:15:52.976Z</time></trkpt><trkpt lat="43.94198705808879" lon="11.357441369099938"><ele>209.0</ele><time>2026-04-25T12:15:53.976Z</time></trkpt><trkpt lat="43.94186432187341" lon="11.357250614935843"><ele>209.0</ele><time>2026-04-25T12:15:54.976Z</time></trkpt><trkpt lat="43.94174606979896" lon="11.35705959339045"><ele>208.66666666666669</ele><time>2026-04-25T12:15:55.976Z</time></trkpt><trkpt lat="43.94161368674939" lon="11.356865187745823"><ele>208.33333333333331</ele><time>2026-04-25T12:15:56.976Z</time></trkpt><trkpt lat="43.94148469682154" lon="11.356661084087474"><ele>208.0</ele><time>2026-04-25T12:15:57.976Z</time></trkpt><trkpt lat="43.941353731682845" lon="11.356452684169428"><ele>209.33333333333331</ele><time>2026-04-25T12:15:58.976Z</time></trkpt><trkpt lat="43.941223504136424" lon="11.356237616697111"><ele>210.66666666666669</ele><time>2026-04-25T12:15:59.976Z</time></trkpt><trkpt lat="43.941116858559774" lon="11.356021029876992"><ele>212.0</ele><time>2026-04-25T12:16:00.976Z</time></trkpt><trkpt lat="43.94099504255872" lon="11.35583931502308"><ele>212.0</ele><time>2026-04-25T12:16:01.976Z</time></trkpt><trkpt lat="43.94090114353056" lon="11.355638723442166"><ele>212.0</ele><time>2026-04-25T12:16:02.976Z</time></trkpt><trkpt lat="43.94080946034159" lon="11.355462870850896"><ele>212.0</ele><time>2026-04-25T12:16:03.976Z</time></trkpt><trkpt lat="43.940713989551995" lon="11.355259571328562"><ele>213.33333333333334</ele><time>2026-04-25T12:16:04.976Z</time></trkpt><trkpt lat="43.9406300917396" lon="11.355041831205549"><ele>214.66666666666669</ele><time>2026-04-25T12:16:05.976Z</time></trkpt><trkpt lat="43.94055754156777" lon="11.354803338280867"><ele>216.0</ele><time>2026-04-25T12:16:06.976Z</time></trkpt><trkpt lat="43.940491800283816" lon="11.354544921204562"><ele>217.33333333333331</ele><time>2026-04-25T12:16:07.976Z</time></trkpt><trkpt lat="43.940413315384454" lon="11.354283827235877"><ele>218.66666666666666</ele><time>2026-04-25T12:16:08.976Z</time></trkpt><trkpt lat="43.940352502830414" lon="11.3540130416003"><ele>220.0</ele><time>2026-04-25T12:16:09.976Z</time></trkpt><trkpt lat="43.9402922573978" lon="11.353751951386336"><ele>221.66666666666666</ele><time>2026-04-25T12:16:10.976Z</time></trkpt><trkpt lat="43.94025281539646" lon="11.353507169023825"><ele>223.33333333333331</ele><time>2026-04-25T12:16:11.976Z</time></trkpt><trkpt lat="43.94019109109414" lon="11.353302699515199"><ele>225.0</ele><time>2026-04-25T12:16:12.977Z</time></trkpt><trkpt lat="43.940173193298946" lon="11.353096351752427"><ele>228.0</ele><time>2026-04-25T12:16:13.977Z</time></trkpt><trkpt lat="43.9401589820136" lon="11.352901506778537"><ele>231.0</ele><time>2026-04-25T12:16:14.977Z</time></trkpt><trkpt lat="43.940163600477014" lon="11.352695020722617"><ele>234.0</ele><time>2026-04-25T12:16:15.977Z</time></trkpt><trkpt lat="43.94019032802275" lon="11.352466792112077"><ele>234.0</ele><time>2026-04-25T12:16:16.977Z</time></trkpt><trkpt lat="43.9402468440597" lon="11.352244858257185"><ele>234.0</ele><time>2026-04-25T12:16:17.977Z</time></trkpt><trkpt lat="43.940300064206575" lon="11.352038634188762"><ele>234.0</ele><time>2026-04-25T12:16:18.977Z</time></trkpt><trkpt lat="43.94034053474145" lon="11.351839530659786"><ele>236.25</ele><time>2026-04-25T12:16:19.977Z</time></trkpt><trkpt lat="43.94036576292328" lon="11.351649769672353"><ele>238.5</ele><time>2026-04-25T12:16:20.977Z</time></trkpt><trkpt lat="43.94035924140683" lon="11.351456079709074"><ele>240.75</ele><time>2026-04-25T12:16:21.977Z</time></trkpt><trkpt lat="43.94034011194384" lon="11.351253793527482"><ele>243.0</ele><time>2026-04-25T12:16:22.977Z</time></trkpt><trkpt lat="43.940306059031876" lon="11.35103790157333"><ele>245.33333333333331</ele><time>2026-04-25T12:16:23.977Z</time></trkpt><trkpt lat="43.94026870606972" lon="11.350809902288017"><ele>247.66666666666666</ele><time>2026-04-25T12:16:24.977Z</time></trkpt><trkpt lat="43.94024303177132" lon="11.350587093793788"><ele>250.0</ele><time>2026-04-25T12:16:25.977Z</time></trkpt><trkpt lat="43.94022166160499" lon="11.350380813249005"><ele>250.0</ele><time>2026-04-25T12:16:26.977Z</time></trkpt><trkpt lat="43.940199643187" lon="11.350173578217063"><ele>250.0</ele><time>2026-04-25T12:16:27.977Z</time></trkpt><trkpt lat="43.94018456750739" lon="11.34996372758178"><ele>250.0</ele><time>2026-04-25T12:16:28.977Z</time></trkpt><trkpt lat="43.94017270618923" lon="11.349758801494906"><ele>249.66666666666666</ele><time>2026-04-25T12:16:29.977Z</time></trkpt><trkpt lat="43.940151050634995" lon="11.349533219509485"><ele>249.33333333333331</ele><time>2026-04-25T12:16:30.977Z</time></trkpt><trkpt lat="43.940118796610456" lon="11.349304914123286"><ele>249.0</ele><time>2026-04-25T12:16:31.977Z</time></trkpt><trkpt lat="43.940081490904184" lon="11.349068594082103"><ele>241.33333333333331</ele><time>2026-04-25T12:16:32.977Z</time></trkpt><trkpt lat="43.94003937427789" lon="11.348849472405572"><ele>233.66666666666666</ele><time>2026-04-25T12:16:33.977Z</time></trkpt><trkpt lat="43.939998666016585" lon="11.34864128263257"><ele>226.0</ele><time>2026-04-25T12:16:34.977Z</time></trkpt><trkpt lat="43.939966175755416" lon="11.348441639592318"><ele>226.0</ele><time>2026-04-25T12:16:35.977Z</time></trkpt><trkpt lat="43.939942231491614" lon="11.3482231359709"><ele>226.0</ele><time>2026-04-25T12:16:36.977Z</time></trkpt><trkpt lat="43.93992533047873" lon="11.347997519412631"><ele>226.0</ele><time>2026-04-25T12:16:37.977Z</time></trkpt><trkpt lat="43.93991874070648" lon="11.3477738041331"><ele>226.25</ele><time>2026-04-25T12:16:38.977Z</time></trkpt><trkpt lat="43.93991135500959" lon="11.3475668336653"><ele>226.5</ele><time>2026-04-25T12:16:39.977Z</time></trkpt><trkpt lat="43.93989973251667" lon="11.347367354707321"><ele>226.75</ele><time>2026-04-25T12:16:40.977Z</time></trkpt><trkpt lat="43.939891753956935" lon="11.347165924808587"><ele>227.0</ele><time>2026-04-25T12:16:41.977Z</time></trkpt><trkpt lat="43.93987187394559" lon="11.346982109209566"><ele>228.75</ele><time>2026-04-25T12:16:42.977Z</time></trkpt><trkpt lat="43.939832005427036" lon="11.346811923181741"><ele>230.5</ele><time>2026-04-25T12:16:43.977Z</time></trkpt><trkpt lat="43.93976692164753" lon="11.346652688425683"><ele>232.25</ele><time>2026-04-25T12:16:44.977Z</time></trkpt><trkpt lat="43.93967471707273" lon="11.34650661929602"><ele>234.0</ele><time>2026-04-25T12:16:45.977Z</time></trkpt><trkpt lat="43.93953725216555" lon="11.346396853302474"><ele>233.0</ele><time>2026-04-25T12:16:46.977Z</time></trkpt><trkpt lat="43.93940347076025" lon="11.346263724860231"><ele>232.0</ele><time>2026-04-25T12:16:47.977Z</time></trkpt><trkpt lat="43.93924167913073" lon="11.346180328393865"><ele>231.0</ele><time>2026-04-25T12:16:48.977Z</time></trkpt><trkpt lat="43.9390787330942" lon="11.346053658016773"><ele>231.0</ele><time>2026-04-25T12:16:49.977Z</time></trkpt><trkpt lat="43.93893737376212" lon="11.3459018480731"><ele>231.0</ele><time>2026-04-25T12:16:50.977Z</time></trkpt><trkpt lat="43.938796431586105" lon="11.345776213540121"><ele>231.0</ele><time>2026-04-25T12:16:51.977Z</time></trkpt><trkpt lat="43.93865542356559" lon="11.34566462175347"><ele>231.0</ele><time>2026-04-25T12:16:52.977Z</time></trkpt><trkpt lat="43.93848861448205" lon="11.345584571734898"><ele>231.0</ele><time>2026-04-25T12:16:53.977Z</time></trkpt><trkpt lat="43.93831211474289" lon="11.345547036111777"><ele>231.0</ele><time>2026-04-25T12:16:54.977Z</time></trkpt><trkpt lat="43.938122995405756" lon="11.345460436101114"><ele>232.0</ele><time>2026-04-25T12:16:55.977Z</time></trkpt><trkpt lat="43.937937162644175" lon="11.345416117399004"><ele>233.0</ele><time>2026-04-25T12:16:56.977Z</time></trkpt><trkpt lat="43.93776724069438" lon="11.345349184531242"><ele>234.0</ele><time>2026-04-25T12:16:57.977Z</time></trkpt><trkpt lat="43.93760614899919" lon="11.345278746984366"><ele>231.66666666666669</ele><time>2026-04-25T12:16:58.977Z</time></trkpt><trkpt lat="43.937446819120005" lon="11.34520717723597"><ele>229.33333333333334</ele><time>2026-04-25T12:16:59.977Z</time></trkpt><trkpt lat="43.9373034922896" lon="11.345136576159778"><ele>227.0</ele><time>2026-04-25T12:17:00.977Z</time></trkpt><trkpt lat="43.93716059956753" lon="11.345084383269626"><ele>227.0</ele><time>2026-04-25T12:17:01.977Z</time></trkpt><trkpt lat="43.93702521293917" lon="11.345027532671022"><ele>227.0</ele><time>2026-04-25T12:17:02.977Z</time></trkpt><trkpt lat="43.9368919749938" lon="11.344974135436983"><ele>227.0</ele><time>2026-04-25T12:17:03.977Z</time></trkpt><trkpt lat="43.93676184605904" lon="11.34495498457609"><ele>227.0</ele><time>2026-04-25T12:17:04.977Z</time></trkpt><trkpt lat="43.93662820897181" lon="11.34498913002187"><ele>225.75</ele><time>2026-04-25T12:17:05.977Z</time></trkpt><trkpt lat="43.93649370481807" lon="11.34505443734766"><ele>224.5</ele><time>2026-04-25T12:17:06.977Z</time></trkpt><trkpt lat="43.93636490455041" lon="11.345115025947528"><ele>223.25</ele><time>2026-04-25T12:17:07.977Z</time></trkpt><trkpt lat="43.93625333219555" lon="11.345178797820486"><ele>222.0</ele><time>2026-04-25T12:17:08.977Z</time></trkpt><trkpt lat="43.93615913971001" lon="11.345244219028723"><ele>222.0</ele><time>2026-04-25T12:17:09.977Z</time></trkpt><trkpt lat="43.93608812365698" lon="11.345299602747719"><ele>222.0</ele><time>2026-04-25T12:17:10.977Z</time></trkpt><trkpt lat="43.935993973862026" lon="11.345364722719383"><ele>222.0</ele><time>2026-04-25T12:17:12.977Z</time></trkpt><trkpt lat="43.93593356283891" lon="11.345418063131955"><ele>222.0</ele><time>2026-04-25T12:17:15.977Z</time></trkpt><trkpt lat="43.935859675418726" lon="11.345537424654308"><ele>222.0</ele><time>2026-04-25T12:18:42.977Z</time></trkpt><trkpt lat="43.935814127593325" lon="11.345618048197718"><ele>222.0</ele><time>2026-04-25T12:18:43.977Z</time></trkpt><trkpt lat="43.93577072900402" lon="11.345720967045372"><ele>222.8</ele><time>2026-04-25T12:18:44.977Z</time></trkpt><trkpt lat="43.935738137718836" lon="11.34582589914028"><ele>223.6</ele><time>2026-04-25T12:18:45.977Z</time></trkpt><trkpt lat="43.9357084019303" lon="11.345929315330856"><ele>224.40000000000003</ele><time>2026-04-25T12:18:46.977Z</time></trkpt><trkpt lat="43.93567506497591" lon="11.346050563315995"><ele>225.20000000000002</ele><time>2026-04-25T12:18:47.977Z</time></trkpt><trkpt lat="43.935646733496554" lon="11.346178652815857"><ele>226.0</ele><time>2026-04-25T12:18:48.977Z</time></trkpt><trkpt lat="43.935619386602774" lon="11.346319851009994"><ele>226.20000000000002</ele><time>2026-04-25T12:18:49.977Z</time></trkpt><trkpt lat="43.93559857148296" lon="11.346440785208332"><ele>226.40000000000003</ele><time>2026-04-25T12:18:50.977Z</time></trkpt><trkpt lat="43.93557923087236" lon="11.34657211969716"><ele>226.6</ele><time>2026-04-25T12:18:51.977Z</time></trkpt><trkpt lat="43.935572605286225" lon="11.34673032413421"><ele>226.8</ele><time>2026-04-25T12:18:52.977Z</time></trkpt><trkpt lat="43.93556170663465" lon="11.346895652277452"><ele>227.0</ele><time>2026-04-25T12:18:53.977Z</time></trkpt><trkpt lat="43.935558371883545" lon="11.347056032937472"><ele>227.0</ele><time>2026-04-25T12:18:54.977Z</time></trkpt><trkpt lat="43.935552364994294" lon="11.34721051290782"><ele>227.0</ele><time>2026-04-25T12:18:55.977Z</time></trkpt><trkpt lat="43.93554075733775" lon="11.347375404493821"><ele>227.0</ele><time>2026-04-25T12:18:56.977Z</time></trkpt><trkpt lat="43.935530135302386" lon="11.347527868170104"><ele>227.0</ele><time>2026-04-25T12:18:57.977Z</time></trkpt><trkpt lat="43.93549533306209" lon="11.347672138088098"><ele>227.0</ele><time>2026-04-25T12:18:58.978Z</time></trkpt><trkpt lat="43.93545772846561" lon="11.347813364354323"><ele>227.0</ele><time>2026-04-25T12:18:59.978Z</time></trkpt><trkpt lat="43.93540931381037" lon="11.347953011053642"><ele>227.0</ele><time>2026-04-25T12:19:00.978Z</time></trkpt><trkpt lat="43.935354441714516" lon="11.348101855439818"><ele>227.0</ele><time>2026-04-25T12:19:01.978Z</time></trkpt><trkpt lat="43.93532197026211" lon="11.348268302170398"><ele>226.8</ele><time>2026-04-25T12:19:02.978Z</time></trkpt><trkpt lat="43.93528900203819" lon="11.348419763796148"><ele>226.6</ele><time>2026-04-25T12:19:03.978Z</time></trkpt><trkpt lat="43.93527674442696" lon="11.348569577452391"><ele>226.40000000000003</ele><time>2026-04-25T12:19:04.978Z</time></trkpt><trkpt lat="43.935261364327516" lon="11.348693088042758"><ele>226.20000000000002</ele><time>2026-04-25T12:19:05.978Z</time></trkpt><trkpt lat="43.935240150831255" lon="11.348816726274741"><ele>226.0</ele><time>2026-04-25T12:19:06.978Z</time></trkpt><trkpt lat="43.9352114450479" lon="11.348938173841155"><ele>226.0</ele><time>2026-04-25T12:19:07.978Z</time></trkpt><trkpt lat="43.935159422899034" lon="11.349044496955859"><ele>226.00000000000003</ele><time>2026-04-25T12:19:08.978Z</time></trkpt><trkpt lat="43.935097796361354" lon="11.349135488079758"><ele>226.00000000000003</ele><time>2026-04-25T12:19:09.978Z</time></trkpt><trkpt lat="43.93502447573249" lon="11.349180840208867"><ele>226.0</ele><time>2026-04-25T12:19:10.977Z</time></trkpt><trkpt lat="43.93493251876908" lon="11.349188065265102"><ele>226.0</ele><time>2026-04-25T12:19:11.977Z</time></trkpt><trkpt lat="43.93482784964211" lon="11.34916171052162"><ele>227.5</ele><time>2026-04-25T12:19:12.978Z</time></trkpt><trkpt lat="43.93470735485614" lon="11.349079851957931"><ele>229.0</ele><time>2026-04-25T12:19:13.978Z</time></trkpt><trkpt lat="43.934574529436254" lon="11.34900710886658"><ele>230.5</ele><time>2026-04-25T12:19:14.978Z</time></trkpt><trkpt lat="43.93443159433573" lon="11.348917929087945"><ele>232.0</ele><time>2026-04-25T12:19:15.978Z</time></trkpt><trkpt lat="43.934292454737474" lon="11.348818474635527"><ele>236.5</ele><time>2026-04-25T12:19:16.978Z</time></trkpt><trkpt lat="43.93416682882217" lon="11.348725265138437"><ele>241.0</ele><time>2026-04-25T12:19:17.978Z</time></trkpt><trkpt lat="43.934050182956156" lon="11.348641166169005"><ele>245.5</ele><time>2026-04-25T12:19:18.977Z</time></trkpt><trkpt lat="43.93391910360429" lon="11.348584978504059"><ele>250.0</ele><time>2026-04-25T12:19:19.977Z</time></trkpt><trkpt lat="43.93379176275345" lon="11.348554803690202"><ele>250.0</ele><time>2026-04-25T12:19:20.977Z</time></trkpt><trkpt lat="43.93365415344097" lon="11.34855062990548"><ele>250.0</ele><time>2026-04-25T12:19:21.977Z</time></trkpt><trkpt lat="43.933519225856024" lon="11.34857066447779"><ele>250.0</ele><time>2026-04-25T12:19:22.978Z</time></trkpt><trkpt lat="43.9333678478776" lon="11.348602642423462"><ele>250.0</ele><time>2026-04-25T12:19:23.978Z</time></trkpt><trkpt lat="43.93323225426164" lon="11.348704742857654"><ele>246.33333333333331</ele><time>2026-04-25T12:19:24.978Z</time></trkpt><trkpt lat="43.933092167775015" lon="11.348798625294094"><ele>242.66666666666669</ele><time>2026-04-25T12:19:25.978Z</time></trkpt><trkpt lat="43.932951011074024" lon="11.348914098790626"><ele>239.0</ele><time>2026-04-25T12:19:26.978Z</time></trkpt><trkpt lat="43.93281725872735" lon="11.349052275565585"><ele>238.0</ele><time>2026-04-25T12:19:27.978Z</time></trkpt><trkpt lat="43.932676883634414" lon="11.349237725475213"><ele>237.0</ele><time>2026-04-25T12:19:28.978Z</time></trkpt><trkpt lat="43.93253147946294" lon="11.349422331148698"><ele>236.0</ele><time>2026-04-25T12:19:29.978Z</time></trkpt><trkpt lat="43.93239787003147" lon="11.34959127715728"><ele>235.5</ele><time>2026-04-25T12:19:30.978Z</time></trkpt><trkpt lat="43.932278223128336" lon="11.349746753823608"><ele>235.0</ele><time>2026-04-25T12:19:31.978Z</time></trkpt><trkpt lat="43.93217438084844" lon="11.349889477671203"><ele>234.5</ele><time>2026-04-25T12:19:32.978Z</time></trkpt><trkpt lat="43.93207740575436" lon="11.350021720035283"><ele>234.0</ele><time>2026-04-25T12:19:33.978Z</time></trkpt><trkpt lat="43.93198571827057" lon="11.350152116855462"><ele>234.0</ele><time>2026-04-25T12:19:34.978Z</time></trkpt><trkpt lat="43.93187574062145" lon="11.350255670222504"><ele>234.0</ele><time>2026-04-25T12:19:35.978Z</time></trkpt><trkpt lat="43.93177846923818" lon="11.350375541533218"><ele>234.0</ele><time>2026-04-25T12:19:36.978Z</time></trkpt><trkpt lat="43.93168311033238" lon="11.350492092837401"><ele>234.0</ele><time>2026-04-25T12:19:37.978Z</time></trkpt><trkpt lat="43.93157903251642" lon="11.35059098015622"><ele>235.25</ele><time>2026-04-25T12:19:38.978Z</time></trkpt><trkpt lat="43.93146568942313" lon="11.350661966647925"><ele>236.5</ele><time>2026-04-25T12:19:39.978Z</time></trkpt><trkpt lat="43.93134030073355" lon="11.350693371214108"><ele>237.75</ele><time>2026-04-25T12:19:40.978Z</time></trkpt><trkpt lat="43.93119794853477" lon="11.350670690373066"><ele>239.0</ele><time>2026-04-25T12:19:41.978Z</time></trkpt><trkpt lat="43.93105024578714" lon="11.350676335655148"><ele>240.0</ele><time>2026-04-25T12:19:42.978Z</time></trkpt><trkpt lat="43.93088691276292" lon="11.35065689863286"><ele>241.0</ele><time>2026-04-25T12:19:43.978Z</time></trkpt><trkpt lat="43.93072475429922" lon="11.350630448633614"><ele>242.0</ele><time>2026-04-25T12:19:44.978Z</time></trkpt><trkpt lat="43.93056868172073" lon="11.350556382940443"><ele>248.66666666666669</ele><time>2026-04-25T12:19:45.978Z</time></trkpt><trkpt lat="43.930415822389996" lon="11.3504747130143"><ele>255.33333333333331</ele><time>2026-04-25T12:19:46.978Z</time></trkpt><trkpt lat="43.93025799874315" lon="11.350382877569375"><ele>262.0</ele><time>2026-04-25T12:19:47.978Z</time></trkpt><trkpt lat="43.93009456305303" lon="11.350329182570277"><ele>262.66666666666663</ele><time>2026-04-25T12:19:48.978Z</time></trkpt><trkpt lat="43.92992318723474" lon="11.35030909435146"><ele>263.3333333333333</ele><time>2026-04-25T12:19:49.978Z</time></trkpt><trkpt lat="43.92975867555045" lon="11.350298680080806"><ele>264.0</ele><time>2026-04-25T12:19:50.978Z</time></trkpt><trkpt lat="43.92959969532118" lon="11.350289284303743"><ele>264.0</ele><time>2026-04-25T12:19:51.978Z</time></trkpt><trkpt lat="43.92945242059725" lon="11.35028338600749"><ele>264.0</ele><time>2026-04-25T12:19:52.978Z</time></trkpt><trkpt lat="43.92930478187218" lon="11.350284228207748"><ele>264.0</ele><time>2026-04-25T12:19:53.978Z</time></trkpt><trkpt lat="43.92916144511233" lon="11.350263383698152"><ele>264.0</ele><time>2026-04-25T12:19:54.978Z</time></trkpt><trkpt lat="43.92901887041083" lon="11.350254957534593"><ele>260.3333333333333</ele><time>2026-04-25T12:19:55.978Z</time></trkpt><trkpt lat="43.928862004357924" lon="11.350447601818939"><ele>256.66666666666663</ele><time>2026-04-25T12:19:56.978Z</time></trkpt><trkpt lat="43.92870926701254" lon="11.350577887393735"><ele>253.0</ele><time>2026-04-25T12:19:57.978Z</time></trkpt><trkpt lat="43.9285449227042" lon="11.350698060718974"><ele>248.0</ele><time>2026-04-25T12:19:58.978Z</time></trkpt><trkpt lat="43.92839002463275" lon="11.35080298028113"><ele>243.0</ele><time>2026-04-25T12:19:59.978Z</time></trkpt><trkpt lat="43.92824196153593" lon="11.350894362274165"><ele>238.0</ele><time>2026-04-25T12:20:00.978Z</time></trkpt><trkpt lat="43.92808900830732" lon="11.35098744030048"><ele>238.0</ele><time>2026-04-25T12:20:01.978Z</time></trkpt><trkpt lat="43.92792987090529" lon="11.351059957714916"><ele>238.0</ele><time>2026-04-25T12:20:02.978Z</time></trkpt><trkpt lat="43.9277682082132" lon="11.351123756437973"><ele>238.0</ele><time>2026-04-25T12:20:03.978Z</time></trkpt><trkpt lat="43.927592344804275" lon="11.351164496427305"><ele>239.0</ele><time>2026-04-25T12:20:04.978Z</time></trkpt><trkpt lat="43.92741467374506" lon="11.351187820657639"><ele>240.0</ele><time>2026-04-25T12:20:05.978Z</time></trkpt><trkpt lat="43.927222931224165" lon="11.351196913200374"><ele>241.0</ele><time>2026-04-25T12:20:06.978Z</time></trkpt><trkpt lat="43.927031220227214" lon="11.351209038482315"><ele>241.0</ele><time>2026-04-25T12:20:07.978Z</time></trkpt><trkpt lat="43.926838461330576" lon="11.351225466733416"><ele>241.0</ele><time>2026-04-25T12:20:08.978Z</time></trkpt><trkpt lat="43.926655525863794" lon="11.351240566102026"><ele>241.0</ele><time>2026-04-25T12:20:09.978Z</time></trkpt><trkpt lat="43.92648901992984" lon="11.351253847059533"><ele>241.0</ele><time>2026-04-25T12:20:10.978Z</time></trkpt><trkpt lat="43.926333088579135" lon="11.351271105559608"><ele>241.0</ele><time>2026-04-25T12:20:11.978Z</time></trkpt><trkpt lat="43.92618673939677" lon="11.351271487697582"><ele>241.0</ele><time>2026-04-25T12:20:12.978Z</time></trkpt><trkpt lat="43.92604481573908" lon="11.351244574627716"><ele>241.0</ele><time>2026-04-25T12:20:13.978Z</time></trkpt><trkpt lat="43.92590008326209" lon="11.351182115124356"><ele>241.0</ele><time>2026-04-25T12:20:14.978Z</time></trkpt><trkpt lat="43.92575392211755" lon="11.351088325025112"><ele>241.0</ele><time>2026-04-25T12:20:15.978Z</time></trkpt><trkpt lat="43.9256006464264" lon="11.350966870396887"><ele>241.0</ele><time>2026-04-25T12:20:16.978Z</time></trkpt><trkpt lat="43.925448765339524" lon="11.350827752002301"><ele>241.0</ele><time>2026-04-25T12:20:17.978Z</time></trkpt><trkpt lat="43.92529378943701" lon="11.35068146916195"><ele>241.0</ele><time>2026-04-25T12:20:18.978Z</time></trkpt><trkpt lat="43.92514804630141" lon="11.350553792910622"><ele>241.0</ele><time>2026-04-25T12:20:19.978Z</time></trkpt><trkpt lat="43.92500858147252" lon="11.35043132673427"><ele>244.0</ele><time>2026-04-25T12:20:20.978Z</time></trkpt><trkpt lat="43.924404972362076" lon="11.349677840266455"><ele>244.0</ele><time>2026-04-25T12:20:25.978Z</time></trkpt><trkpt lat="43.92428751357161" lon="11.349502525171934"><ele>244.0</ele><time>2026-04-25T12:20:26.978Z</time></trkpt><trkpt lat="43.924184690981185" lon="11.349356463467249"><ele>244.0</ele><time>2026-04-25T12:20:27.978Z</time></trkpt><trkpt lat="43.92409728900279" lon="11.34923713361096"><ele>244.0</ele><time>2026-04-25T12:20:28.978Z</time></trkpt><trkpt lat="43.92401231953266" lon="11.349144660649008"><ele>243.79999999999998</ele><time>2026-04-25T12:20:29.978Z</time></trkpt><trkpt lat="43.92392386477814" lon="11.349088834726423"><ele>243.59999999999997</ele><time>2026-04-25T12:20:30.978Z</time></trkpt><trkpt lat="43.92384036520921" lon="11.349084927573363"><ele>243.4</ele><time>2026-04-25T12:20:31.978Z</time></trkpt><trkpt lat="43.923754165172454" lon="11.349128951795361"><ele>243.2</ele><time>2026-04-25T12:20:32.978Z</time></trkpt><trkpt lat="43.923670223068385" lon="11.349228894371775"><ele>243.0</ele><time>2026-04-25T12:20:33.978Z</time></trkpt><trkpt lat="43.923583790575265" lon="11.349350767587913"><ele>243.0</ele><time>2026-04-25T12:20:34.978Z</time></trkpt><trkpt lat="43.923481981851694" lon="11.34947468089301"><ele>243.0</ele><time>2026-04-25T12:20:35.978Z</time></trkpt><trkpt lat="43.92335411080362" lon="11.34959549800597"><ele>243.0</ele><time>2026-04-25T12:20:36.978Z</time></trkpt><trkpt lat="43.923203186320144" lon="11.349698848987744"><ele>245.33333333333331</ele><time>2026-04-25T12:20:37.978Z</time></trkpt><trkpt lat="43.92304727217371" lon="11.349779873629767"><ele>247.66666666666666</ele><time>2026-04-25T12:20:38.978Z</time></trkpt><trkpt lat="43.922906227747" lon="11.349844203177852"><ele>250.0</ele><time>2026-04-25T12:20:39.978Z</time></trkpt><trkpt lat="43.92277418442786" lon="11.349891575214839"><ele>250.0</ele><time>2026-04-25T12:20:40.978Z</time></trkpt><trkpt lat="43.92265058884089" lon="11.349907445958632"><ele>250.0</ele><time>2026-04-25T12:20:41.978Z</time></trkpt><trkpt lat="43.922526850632096" lon="11.349899109791728"><ele>250.0</ele><time>2026-04-25T12:20:42.978Z</time></trkpt><trkpt lat="43.922396030659144" lon="11.349851866761545"><ele>250.0</ele><time>2026-04-25T12:20:43.978Z</time></trkpt><trkpt lat="43.92226087632378" lon="11.34979667528946"><ele>250.75</ele><time>2026-04-25T12:20:44.978Z</time></trkpt><trkpt lat="43.92212212635154" lon="11.34976087169887"><ele>251.5</ele><time>2026-04-25T12:20:45.978Z</time></trkpt><trkpt lat="43.92198049873174" lon="11.349753528191684"><ele>252.25</ele><time>2026-04-25T12:20:46.978Z</time></trkpt><trkpt lat="43.92184529274851" lon="11.349781153427308"><ele>253.0</ele><time>2026-04-25T12:20:47.978Z</time></trkpt><trkpt lat="43.921712157343926" lon="11.349846199123558"><ele>253.0</ele><time>2026-04-25T12:20:48.978Z</time></trkpt><trkpt lat="43.92157678930437" lon="11.349933306303996"><ele>253.0</ele><time>2026-04-25T12:20:49.978Z</time></trkpt><trkpt lat="43.9214315810495" lon="11.3500276388122"><ele>253.0</ele><time>2026-04-25T12:20:50.978Z</time></trkpt><trkpt lat="43.92128228368384" lon="11.350119203006642"><ele>253.0</ele><time>2026-04-25T12:20:51.978Z</time></trkpt><trkpt lat="43.921137850364474" lon="11.350202591058258"><ele>253.0</ele><time>2026-04-25T12:20:52.978Z</time></trkpt><trkpt lat="43.92099513096814" lon="11.350292697670257"><ele>253.0</ele><time>2026-04-25T12:20:53.978Z</time></trkpt><trkpt lat="43.92085493988095" lon="11.350385086961484"><ele>253.5</ele><time>2026-04-25T12:20:54.978Z</time></trkpt><trkpt lat="43.92073096989302" lon="11.350476870677035"><ele>254.0</ele><time>2026-04-25T12:20:55.978Z</time></trkpt><trkpt lat="43.920614929630595" lon="11.350572568760374"><ele>254.5</ele><time>2026-04-25T12:20:56.978Z</time></trkpt><trkpt lat="43.92050927392465" lon="11.350689315071888"><ele>255.0</ele><time>2026-04-25T12:20:57.978Z</time></trkpt><trkpt lat="43.920416054235766" lon="11.350823254670962"><ele>255.0</ele><time>2026-04-25T12:20:58.978Z</time></trkpt><trkpt lat="43.92033731370763" lon="11.350988879101555"><ele>255.0</ele><time>2026-04-25T12:20:59.978Z</time></trkpt><trkpt lat="43.92027342253803" lon="11.351196405856449"><ele>255.0</ele><time>2026-04-25T12:21:00.978Z</time></trkpt><trkpt lat="43.920209564570634" lon="11.351406442562803"><ele>255.75</ele><time>2026-04-25T12:21:01.978Z</time></trkpt><trkpt lat="43.920154058404506" lon="11.351610500716749"><ele>256.5</ele><time>2026-04-25T12:21:02.978Z</time></trkpt><trkpt lat="43.92011190684761" lon="11.351789016112686"><ele>257.25</ele><time>2026-04-25T12:21:03.978Z</time></trkpt><trkpt lat="43.92006752982753" lon="11.35196340121707"><ele>258.0</ele><time>2026-04-25T12:21:04.978Z</time></trkpt><trkpt lat="43.92000491161882" lon="11.352141086127988"><ele>259.6666666666667</ele><time>2026-04-25T12:21:05.978Z</time></trkpt><trkpt lat="43.919946988144666" lon="11.35234832427467"><ele>261.33333333333337</ele><time>2026-04-25T12:21:06.978Z</time></trkpt><trkpt lat="43.91986711269594" lon="11.352540432586183"><ele>263.0</ele><time>2026-04-25T12:21:07.978Z</time></trkpt><trkpt lat="43.91978697835913" lon="11.35271627884385"><ele>263.0</ele><time>2026-04-25T12:21:08.978Z</time></trkpt><trkpt lat="43.91970257222891" lon="11.352879317491428"><ele>263.0</ele><time>2026-04-25T12:21:09.978Z</time></trkpt><trkpt lat="43.919611167198944" lon="11.353027273110216"><ele>263.0</ele><time>2026-04-25T12:21:10.978Z</time></trkpt><trkpt lat="43.919523505719205" lon="11.353146642716801"><ele>263.0</ele><time>2026-04-25T12:21:11.978Z</time></trkpt><trkpt lat="43.919434009890246" lon="11.353247694986115"><ele>262.75</ele><time>2026-04-25T12:21:12.978Z</time></trkpt><trkpt lat="43.919325602084335" lon="11.353331058898874"><ele>262.5</ele><time>2026-04-25T12:21:13.978Z</time></trkpt><trkpt lat="43.919202176651744" lon="11.353378728603767"><ele>262.25</ele><time>2026-04-25T12:21:14.978Z</time></trkpt><trkpt lat="43.91906781178976" lon="11.35340015476503"><ele>262.0</ele><time>2026-04-25T12:21:15.978Z</time></trkpt><trkpt lat="43.918921240454814" lon="11.353374844860388"><ele>262.0</ele><time>2026-04-25T12:21:16.978Z</time></trkpt><trkpt lat="43.9187564714852" lon="11.353358259694524"><ele>262.0</ele><time>2026-04-25T12:21:17.978Z</time></trkpt><trkpt lat="43.91858419703588" lon="11.353349763658953"><ele>262.0</ele><time>2026-04-25T12:21:18.978Z</time></trkpt><trkpt lat="43.91839988148375" lon="11.3533357245103"><ele>262.3333333333333</ele><time>2026-04-25T12:21:19.978Z</time></trkpt><trkpt lat="43.91820599854086" lon="11.35332061348768"><ele>262.6666666666667</ele><time>2026-04-25T12:21:20.978Z</time></trkpt><trkpt lat="43.91801115222122" lon="11.353297534893027"><ele>263.0</ele><time>2026-04-25T12:21:21.978Z</time></trkpt><trkpt lat="43.917829028037204" lon="11.35328036410513"><ele>263.0</ele><time>2026-04-25T12:21:22.978Z</time></trkpt><trkpt lat="43.917663246097305" lon="11.35326148914453"><ele>263.0</ele><time>2026-04-25T12:21:23.978Z</time></trkpt><trkpt lat="43.91750756953886" lon="11.353250680731545"><ele>263.0</ele><time>2026-04-25T12:21:24.979Z</time></trkpt><trkpt lat="43.91736206101413" lon="11.353234963937203"><ele>264.5</ele><time>2026-04-25T12:21:25.978Z</time></trkpt><trkpt lat="43.917229959624635" lon="11.353206214940371"><ele>266.0</ele><time>2026-04-25T12:21:26.978Z</time></trkpt><trkpt lat="43.91710250419581" lon="11.353137546160347"><ele>267.5</ele><time>2026-04-25T12:21:27.979Z</time></trkpt><trkpt lat="43.9169861197417" lon="11.353015271298098"><ele>269.0</ele><time>2026-04-25T12:21:28.978Z</time></trkpt><trkpt lat="43.916843354301605" lon="11.352913155768082"><ele>271.75</ele><time>2026-04-25T12:21:29.978Z</time></trkpt><trkpt lat="43.91672247486751" lon="11.35278990083052"><ele>274.5</ele><time>2026-04-25T12:21:30.978Z</time></trkpt><trkpt lat="43.91660469135906" lon="11.352705487757326"><ele>277.25</ele><time>2026-04-25T12:21:31.978Z</time></trkpt><trkpt lat="43.91647539249433" lon="11.352638286320298"><ele>280.0</ele><time>2026-04-25T12:21:32.978Z</time></trkpt><trkpt lat="43.91632650904533" lon="11.3526178688619"><ele>280.0</ele><time>2026-04-25T12:21:33.978Z</time></trkpt><trkpt lat="43.91616261247606" lon="11.352650686669135"><ele>280.0</ele><time>2026-04-25T12:21:34.978Z</time></trkpt><trkpt lat="43.916007836313135" lon="11.352715977212666"><ele>280.0</ele><time>2026-04-25T12:21:35.978Z</time></trkpt><trkpt lat="43.915836444200124" lon="11.352789367982615"><ele>277.66666666666663</ele><time>2026-04-25T12:21:36.978Z</time></trkpt><trkpt lat="43.91565960984829" lon="11.35286362908739"><ele>275.3333333333333</ele><time>2026-04-25T12:21:37.978Z</time></trkpt><trkpt lat="43.915483811459644" lon="11.352935378558936"><ele>273.0</ele><time>2026-04-25T12:21:38.978Z</time></trkpt><trkpt lat="43.91531016783092" lon="11.353005523794828"><ele>272.3333333333333</ele><time>2026-04-25T12:21:39.978Z</time></trkpt><trkpt lat="43.91514500305404" lon="11.353068808301808"><ele>271.66666666666663</ele><time>2026-04-25T12:21:40.978Z</time></trkpt><trkpt lat="43.914997048636884" lon="11.3531239001942"><ele>271.0</ele><time>2026-04-25T12:21:41.978Z</time></trkpt><trkpt lat="43.9148605082895" lon="11.353174274074485"><ele>271.0</ele><time>2026-04-25T12:21:42.978Z</time></trkpt><trkpt lat="43.91473102857249" lon="11.353218787840799"><ele>271.0</ele><time>2026-04-25T12:21:43.978Z</time></trkpt><trkpt lat="43.9146089746151" lon="11.353240013629033"><ele>271.0</ele><time>2026-04-25T12:21:44.978Z</time></trkpt><trkpt lat="43.91448324931429" lon="11.353203937081812"><ele>271.0</ele><time>2026-04-25T12:21:45.978Z</time></trkpt><trkpt lat="43.91433865571501" lon="11.353156477250469"><ele>272.3333333333333</ele><time>2026-04-25T12:21:46.978Z</time></trkpt><trkpt lat="43.91417272467445" lon="11.353137534593921"><ele>273.6666666666667</ele><time>2026-04-25T12:21:47.978Z</time></trkpt><trkpt lat="43.91400132662889" lon="11.353169102636663"><ele>275.0</ele><time>2026-04-25T12:21:48.978Z</time></trkpt><trkpt lat="43.91384199150095" lon="11.353222946472645"><ele>275.0</ele><time>2026-04-25T12:21:49.978Z</time></trkpt><trkpt lat="43.9136930948436" lon="11.35327299080996"><ele>275.0</ele><time>2026-04-25T12:21:50.978Z</time></trkpt><trkpt lat="43.91354114984441" lon="11.35330067662348"><ele>275.0</ele><time>2026-04-25T12:21:51.978Z</time></trkpt><trkpt lat="43.913374223956986" lon="11.353282440749124"><ele>274.0</ele><time>2026-04-25T12:21:52.978Z</time></trkpt><trkpt lat="43.913190287412014" lon="11.353247894937626"><ele>273.0</ele><time>2026-04-25T12:21:53.978Z</time></trkpt><trkpt lat="43.912996213764664" lon="11.353211025752207"><ele>272.0</ele><time>2026-04-25T12:21:54.978Z</time></trkpt><trkpt lat="43.912813893411965" lon="11.353194474773284"><ele>272.0</ele><time>2026-04-25T12:21:55.978Z</time></trkpt><trkpt lat="43.912626716098224" lon="11.353206752939823"><ele>272.0</ele><time>2026-04-25T12:21:56.978Z</time></trkpt><trkpt lat="43.912431990839806" lon="11.3532635753275"><ele>272.0</ele><time>2026-04-25T12:21:57.978Z</time></trkpt><trkpt lat="43.91223720281199" lon="11.353344812415934"><ele>273.6666666666667</ele><time>2026-04-25T12:21:58.978Z</time></trkpt><trkpt lat="43.91204251614511" lon="11.353429997454635"><ele>275.3333333333333</ele><time>2026-04-25T12:21:59.978Z</time></trkpt><trkpt lat="43.91186465211814" lon="11.353511044338001"><ele>277.0</ele><time>2026-04-25T12:22:00.978Z</time></trkpt><trkpt lat="43.91170015826026" lon="11.353583356634447"><ele>277.0</ele><time>2026-04-25T12:22:01.978Z</time></trkpt><trkpt lat="43.91154031720933" lon="11.353653623536362"><ele>277.0</ele><time>2026-04-25T12:22:02.978Z</time></trkpt><trkpt lat="43.91138667194887" lon="11.353721166683446"><ele>277.0</ele><time>2026-04-25T12:22:03.978Z</time></trkpt><trkpt lat="43.91125198408108" lon="11.353811397558477"><ele>277.0</ele><time>2026-04-25T12:22:04.978Z</time></trkpt><trkpt lat="43.91111226874546" lon="11.353860258999715"><ele>277.0</ele><time>2026-04-25T12:22:05.978Z</time></trkpt><trkpt lat="43.91095763885123" lon="11.3538914634299"><ele>277.0</ele><time>2026-04-25T12:22:06.978Z</time></trkpt><trkpt lat="43.910798061507215" lon="11.353898302609117"><ele>276.3333333333333</ele><time>2026-04-25T12:22:07.978Z</time></trkpt><trkpt lat="43.910619617406105" lon="11.353872518640616"><ele>275.6666666666667</ele><time>2026-04-25T12:22:08.978Z</time></trkpt><trkpt lat="43.9104507043999" lon="11.353795487765597"><ele>275.0</ele><time>2026-04-25T12:22:09.978Z</time></trkpt><trkpt lat="43.910258155260536" lon="11.35373548048092"><ele>278.33333333333337</ele><time>2026-04-25T12:22:10.978Z</time></trkpt><trkpt lat="43.91007508640443" lon="11.353634467293459"><ele>281.6666666666667</ele><time>2026-04-25T12:22:11.978Z</time></trkpt><trkpt lat="43.90987367647039" lon="11.353549019486854"><ele>285.0</ele><time>2026-04-25T12:22:12.978Z</time></trkpt><trkpt lat="43.909675104536525" lon="11.353482825694593"><ele>283.5</ele><time>2026-04-25T12:22:13.978Z</time></trkpt><trkpt lat="43.90945485998227" lon="11.35346089449949"><ele>282.0</ele><time>2026-04-25T12:22:14.978Z</time></trkpt><trkpt lat="43.90922203835993" lon="11.3534264714704"><ele>282.0</ele><time>2026-04-25T12:22:15.978Z</time></trkpt><trkpt lat="43.90899242479979" lon="11.353421472645042"><ele>282.0</ele><time>2026-04-25T12:22:16.978Z</time></trkpt><trkpt lat="43.90876371668323" lon="11.353423908088219"><ele>282.0</ele><time>2026-04-25T12:22:17.978Z</time></trkpt><trkpt lat="43.90854773478161" lon="11.353424051041307"><ele>282.0</ele><time>2026-04-25T12:22:18.978Z</time></trkpt><trkpt lat="43.90835095566145" lon="11.353422493423096"><ele>282.0</ele><time>2026-04-25T12:22:19.978Z</time></trkpt><trkpt lat="43.908160161192654" lon="11.353422947886035"><ele>282.3333333333333</ele><time>2026-04-25T12:22:20.978Z</time></trkpt><trkpt lat="43.90797318868886" lon="11.35342349854526"><ele>282.66666666666663</ele><time>2026-04-25T12:22:21.978Z</time></trkpt><trkpt lat="43.90779417097207" lon="11.353421193594011"><ele>283.0</ele><time>2026-04-25T12:22:22.978Z</time></trkpt><trkpt lat="43.90760779576913" lon="11.353423429560113"><ele>284.3333333333333</ele><time>2026-04-25T12:22:23.978Z</time></trkpt><trkpt lat="43.907429291969635" lon="11.353423670940055"><ele>285.6666666666667</ele><time>2026-04-25T12:22:24.978Z</time></trkpt><trkpt lat="43.90726255868794" lon="11.353423670158447"><ele>287.0</ele><time>2026-04-25T12:22:25.978Z</time></trkpt><trkpt lat="43.907103868406246" lon="11.353423670160062"><ele>287.0</ele><time>2026-04-25T12:22:26.978Z</time></trkpt><trkpt lat="43.90695757175837" lon="11.353423160719219"><ele>287.0</ele><time>2026-04-25T12:22:27.978Z</time></trkpt><trkpt lat="43.906816248320155" lon="11.35342264628212"><ele>287.0</ele><time>2026-04-25T12:22:28.978Z</time></trkpt><trkpt lat="43.9066749929914" lon="11.35342213208868"><ele>287.0</ele><time>2026-04-25T12:22:29.978Z</time></trkpt><trkpt lat="43.90653109838706" lon="11.35345758403051"><ele>287.0</ele><time>2026-04-25T12:22:30.978Z</time></trkpt><trkpt lat="43.906376276272795" lon="11.353465367345834"><ele>287.0</ele><time>2026-04-25T12:22:31.978Z</time></trkpt><trkpt lat="43.906214973941715" lon="11.353525244524386"><ele>287.0</ele><time>2026-04-25T12:22:32.978Z</time></trkpt><trkpt lat="43.90606336768906" lon="11.353633763043371"><ele>287.0</ele><time>2026-04-25T12:22:33.978Z</time></trkpt><trkpt lat="43.9059222838797" lon="11.353748628010177"><ele>287.0</ele><time>2026-04-25T12:22:34.978Z</time></trkpt><trkpt lat="43.90580175685953" lon="11.353875156160306"><ele>287.0</ele><time>2026-04-25T12:22:35.978Z</time></trkpt><trkpt lat="43.90569538554107" lon="11.354019926997797"><ele>289.0</ele><time>2026-04-25T12:22:36.978Z</time></trkpt><trkpt lat="43.9055989311576" lon="11.354189815211633"><ele>291.0</ele><time>2026-04-25T12:22:37.978Z</time></trkpt><trkpt lat="43.90551551301833" lon="11.354373635148978"><ele>293.0</ele><time>2026-04-25T12:22:38.978Z</time></trkpt><trkpt lat="43.90545216681083" lon="11.354584158683737"><ele>293.0</ele><time>2026-04-25T12:22:39.978Z</time></trkpt><trkpt lat="43.905393900730445" lon="11.354798338286633"><ele>293.0</ele><time>2026-04-25T12:22:40.978Z</time></trkpt><trkpt lat="43.9053364726087" lon="11.355011374445604"><ele>293.0</ele><time>2026-04-25T12:22:41.978Z</time></trkpt><trkpt lat="43.90528206557357" lon="11.355197451583827"><ele>293.0</ele><time>2026-04-25T12:22:42.977Z</time></trkpt><trkpt lat="43.90521602361794" lon="11.355363446218874"><ele>293.0</ele><time>2026-04-25T12:22:43.977Z</time></trkpt><trkpt lat="43.90514507011368" lon="11.35553358585943"><ele>293.0</ele><time>2026-04-25T12:22:44.977Z</time></trkpt><trkpt lat="43.90508960906372" lon="11.355689611036821"><ele>293.0</ele><time>2026-04-25T12:22:45.977Z</time></trkpt><trkpt lat="43.90503386701872" lon="11.355833719924735"><ele>294.2</ele><time>2026-04-25T12:22:46.977Z</time></trkpt><trkpt lat="43.904984123157696" lon="11.355966372937417"><ele>295.4</ele><time>2026-04-25T12:22:47.977Z</time></trkpt><trkpt lat="43.904936580124485" lon="11.356090617275305"><ele>296.59999999999997</ele><time>2026-04-25T12:22:48.977Z</time></trkpt><trkpt lat="43.90487948938156" lon="11.356217657150903"><ele>297.8</ele><time>2026-04-25T12:22:49.977Z</time></trkpt><trkpt lat="43.90479968414276" lon="11.356338866810958"><ele>299.0</ele><time>2026-04-25T12:22:50.977Z</time></trkpt><trkpt lat="43.904705079461145" lon="11.356443635912829"><ele>299.0</ele><time>2026-04-25T12:22:51.976Z</time></trkpt><trkpt lat="43.904599363430435" lon="11.356532427461548"><ele>299.0</ele><time>2026-04-25T12:22:52.976Z</time></trkpt><trkpt lat="43.904480734451035" lon="11.356613419806012"><ele>299.0</ele><time>2026-04-25T12:22:53.976Z</time></trkpt><trkpt lat="43.90435368784714" lon="11.35669509845653"><ele>299.0</ele><time>2026-04-25T12:22:54.976Z</time></trkpt><trkpt lat="43.9042239323725" lon="11.356776317797754"><ele>299.5</ele><time>2026-04-25T12:22:55.976Z</time></trkpt><trkpt lat="43.90409902920203" lon="11.356839864602344"><ele>300.0</ele><time>2026-04-25T12:22:56.976Z</time></trkpt><trkpt lat="43.90397189508622" lon="11.356875138070626"><ele>300.5</ele><time>2026-04-25T12:22:57.976Z</time></trkpt><trkpt lat="43.90383319714315" lon="11.356870260431382"><ele>301.0</ele><time>2026-04-25T12:22:58.976Z</time></trkpt><trkpt lat="43.903687507992906" lon="11.356841211521703"><ele>301.0</ele><time>2026-04-25T12:22:59.976Z</time></trkpt><trkpt lat="43.90353788279242" lon="11.356783850157699"><ele>301.0</ele><time>2026-04-25T12:23:00.976Z</time></trkpt><trkpt lat="43.90339819163343" lon="11.356655359891864"><ele>301.0</ele><time>2026-04-25T12:23:01.976Z</time></trkpt><trkpt lat="43.90325190243067" lon="11.356533539598265"><ele>302.3333333333333</ele><time>2026-04-25T12:23:02.976Z</time></trkpt><trkpt lat="43.90310209557105" lon="11.35643096986763"><ele>303.6666666666667</ele><time>2026-04-25T12:23:03.976Z</time></trkpt><trkpt lat="43.902946435618574" lon="11.356374015872472"><ele>305.0</ele><time>2026-04-25T12:23:04.976Z</time></trkpt><trkpt lat="43.90280129455755" lon="11.356313229438204"><ele>307.6666666666667</ele><time>2026-04-25T12:23:05.976Z</time></trkpt><trkpt lat="43.902645830817214" lon="11.356274466283232"><ele>310.3333333333333</ele><time>2026-04-25T12:23:06.976Z</time></trkpt><trkpt lat="43.902485686493904" lon="11.356270539202194"><ele>313.0</ele><time>2026-04-25T12:23:07.976Z</time></trkpt><trkpt lat="43.90230910150204" lon="11.356311715740055"><ele>311.3333333333333</ele><time>2026-04-25T12:23:08.976Z</time></trkpt><trkpt lat="43.90213729014092" lon="11.356333230384204"><ele>309.6666666666667</ele><time>2026-04-25T12:23:09.976Z</time></trkpt><trkpt lat="43.90194700386355" lon="11.356386077810349"><ele>308.0</ele><time>2026-04-25T12:23:10.976Z</time></trkpt><trkpt lat="43.90179705103949" lon="11.356426379320949"><ele>310.5</ele><time>2026-04-25T12:23:11.976Z</time></trkpt><trkpt lat="43.90164531877932" lon="11.356460865259056"><ele>313.0</ele><time>2026-04-25T12:23:12.976Z</time></trkpt><trkpt lat="43.90150431978122" lon="11.356480841659854"><ele>315.5</ele><time>2026-04-25T12:23:13.976Z</time></trkpt><trkpt lat="43.901379714587335" lon="11.35647879913682"><ele>318.0</ele><time>2026-04-25T12:23:14.975Z</time></trkpt><trkpt lat="43.90126087695739" lon="11.356479143916996"><ele>318.0</ele><time>2026-04-25T12:23:15.975Z</time></trkpt><trkpt lat="43.901143573073334" lon="11.3565094392181"><ele>318.0</ele><time>2026-04-25T12:23:16.975Z</time></trkpt><trkpt lat="43.901033316251436" lon="11.35661008818002"><ele>318.0</ele><time>2026-04-25T12:23:17.975Z</time></trkpt><trkpt lat="43.90094732912849" lon="11.35669597670513"><ele>318.0</ele><time>2026-04-25T12:23:18.975Z</time></trkpt><trkpt lat="43.90083197411261" lon="11.356814605513941"><ele>320.75</ele><time>2026-04-25T12:23:19.975Z</time></trkpt><trkpt lat="43.90070682920653" lon="11.356880046367506"><ele>323.5</ele><time>2026-04-25T12:23:20.975Z</time></trkpt><trkpt lat="43.90056952336413" lon="11.356922810814734"><ele>326.25</ele><time>2026-04-25T12:23:21.976Z</time></trkpt><trkpt lat="43.90041558901262" lon="11.356967527687125"><ele>329.0</ele><time>2026-04-25T12:23:22.976Z</time></trkpt><trkpt lat="43.90024856200618" lon="11.35701604793648"><ele>329.0</ele><time>2026-04-25T12:23:23.976Z</time></trkpt><trkpt lat="43.90008979735584" lon="11.357067678333873"><ele>329.0</ele><time>2026-04-25T12:23:24.976Z</time></trkpt><trkpt lat="43.89994799093792" lon="11.35713782527381"><ele>329.0</ele><time>2026-04-25T12:23:25.976Z</time></trkpt><trkpt lat="43.8998224666289" lon="11.357245082780466"><ele>327.6666666666667</ele><time>2026-04-25T12:23:26.976Z</time></trkpt><trkpt lat="43.89971463784978" lon="11.357382273084744"><ele>326.3333333333333</ele><time>2026-04-25T12:23:27.976Z</time></trkpt><trkpt lat="43.89963573326109" lon="11.35756181072933"><ele>325.0</ele><time>2026-04-25T12:23:28.976Z</time></trkpt><trkpt lat="43.899545117695745" lon="11.357748904711114"><ele>325.0</ele><time>2026-04-25T12:23:29.976Z</time></trkpt><trkpt lat="43.899449897252225" lon="11.35794931622806"><ele>325.0</ele><time>2026-04-25T12:23:30.976Z</time></trkpt><trkpt lat="43.89934693890371" lon="11.358162124401016"><ele>325.0</ele><time>2026-04-25T12:23:31.976Z</time></trkpt><trkpt lat="43.89924705221414" lon="11.358379946633269"><ele>326.0</ele><time>2026-04-25T12:23:32.976Z</time></trkpt><trkpt lat="43.899149196925066" lon="11.358588232577036"><ele>327.0</ele><time>2026-04-25T12:23:33.976Z</time></trkpt><trkpt lat="43.899063716178965" lon="11.358777197438945"><ele>328.0</ele><time>2026-04-25T12:23:34.976Z</time></trkpt><trkpt lat="43.89898063275293" lon="11.358946192054333"><ele>328.0</ele><time>2026-04-25T12:23:35.976Z</time></trkpt><trkpt lat="43.89889476003924" lon="11.359092615963272"><ele>328.0</ele><time>2026-04-25T12:23:36.976Z</time></trkpt><trkpt lat="43.898796295248395" lon="11.359215768186631"><ele>328.0</ele><time>2026-04-25T12:23:37.976Z</time></trkpt><trkpt lat="43.89865972776461" lon="11.359295305088095"><ele>328.0</ele><time>2026-04-25T12:23:38.976Z</time></trkpt><trkpt lat="43.89852074501583" lon="11.359403916989274"><ele>330.75</ele><time>2026-04-25T12:23:39.976Z</time></trkpt><trkpt lat="43.89837886131348" lon="11.359486610767364"><ele>333.5</ele><time>2026-04-25T12:23:40.976Z</time></trkpt><trkpt lat="43.898249985370626" lon="11.35955480700415"><ele>336.25</ele><time>2026-04-25T12:23:41.976Z</time></trkpt><trkpt lat="43.898135821253696" lon="11.359611593038984"><ele>339.0</ele><time>2026-04-25T12:23:42.976Z</time></trkpt><trkpt lat="43.89802073071161" lon="11.359646534781323"><ele>339.0</ele><time>2026-04-25T12:23:43.976Z</time></trkpt><trkpt lat="43.8979079599507" lon="11.359654288698644"><ele>339.0</ele><time>2026-04-25T12:23:44.976Z</time></trkpt><trkpt lat="43.897780406509746" lon="11.359621440434736"><ele>339.0</ele><time>2026-04-25T12:23:45.976Z</time></trkpt><trkpt lat="43.897654665286495" lon="11.359554388666371"><ele>339.0</ele><time>2026-04-25T12:23:46.976Z</time></trkpt><trkpt lat="43.89753904879425" lon="11.359419570397941"><ele>340.3333333333333</ele><time>2026-04-25T12:23:47.976Z</time></trkpt><trkpt lat="43.89741163588618" lon="11.359292904347441"><ele>341.66666666666663</ele><time>2026-04-25T12:23:48.976Z</time></trkpt><trkpt lat="43.89727695447273" lon="11.359158957465002"><ele>343.0</ele><time>2026-04-25T12:23:49.976Z</time></trkpt><trkpt lat="43.89715543727588" lon="11.35903761253111"><ele>343.0</ele><time>2026-04-25T12:23:50.976Z</time></trkpt><trkpt lat="43.897044673861735" lon="11.358929346707678"><ele>343.0</ele><time>2026-04-25T12:23:51.976Z</time></trkpt><trkpt lat="43.89695783808569" lon="11.358839005281638"><ele>343.0</ele><time>2026-04-25T12:23:52.976Z</time></trkpt><trkpt lat="43.89690009406379" lon="11.358769073642735"><ele>343.0</ele><time>2026-04-25T12:23:53.976Z</time></trkpt><trkpt lat="43.89686300407537" lon="11.358698248231548"><ele>343.0</ele><time>2026-04-25T12:23:54.976Z</time></trkpt><trkpt lat="43.89688317324165" lon="11.358547547763987"><ele>344.4</ele><time>2026-04-25T12:23:56.976Z</time></trkpt><trkpt lat="43.89695647943089" lon="11.358499781015809"><ele>345.79999999999995</ele><time>2026-04-25T12:23:57.976Z</time></trkpt><trkpt lat="43.89705003332797" lon="11.35848272834084"><ele>347.2</ele><time>2026-04-25T12:23:58.976Z</time></trkpt><trkpt lat="43.897161863678924" lon="11.358492869085401"><ele>348.6</ele><time>2026-04-25T12:23:59.976Z</time></trkpt><trkpt lat="43.89728960713042" lon="11.35851716832173"><ele>350.0</ele><time>2026-04-25T12:24:00.976Z</time></trkpt><trkpt lat="43.897423187765526" lon="11.358527194058347"><ele>350.0</ele><time>2026-04-25T12:24:01.976Z</time></trkpt><trkpt lat="43.8975618163508" lon="11.358505843589677"><ele>350.0</ele><time>2026-04-25T12:24:02.976Z</time></trkpt><trkpt lat="43.8976826814594" lon="11.358470084895272"><ele>350.0</ele><time>2026-04-25T12:24:03.976Z</time></trkpt><trkpt lat="43.897797795127595" lon="11.358409883156405"><ele>350.0</ele><time>2026-04-25T12:24:04.976Z</time></trkpt><trkpt lat="43.89790158396149" lon="11.358329684098255"><ele>350.25</ele><time>2026-04-25T12:24:05.976Z</time></trkpt><trkpt lat="43.89799034263997" lon="11.358223410108014"><ele>350.5</ele><time>2026-04-25T12:24:06.976Z</time></trkpt><trkpt lat="43.89806148345755" lon="11.358086777597691"><ele>350.75</ele><time>2026-04-25T12:24:07.976Z</time></trkpt><trkpt lat="43.89811711342933" lon="11.3579211814437"><ele>351.0</ele><time>2026-04-25T12:24:08.976Z</time></trkpt><trkpt lat="43.89815281542127" lon="11.357712225420102"><ele>351.0</ele><time>2026-04-25T12:24:09.976Z</time></trkpt><trkpt lat="43.89818053183337" lon="11.357500584372659"><ele>351.0</ele><time>2026-04-25T12:24:10.976Z</time></trkpt><trkpt lat="43.898199887923155" lon="11.357310610516185"><ele>351.0</ele><time>2026-04-25T12:24:11.976Z</time></trkpt><trkpt lat="43.898201606130314" lon="11.357155383961981"><ele>351.0</ele><time>2026-04-25T12:24:12.976Z</time></trkpt><trkpt lat="43.89818058429067" lon="11.357008970115709"><ele>352.0</ele><time>2026-04-25T12:24:13.976Z</time></trkpt><trkpt lat="43.89816694262854" lon="11.356859194658634"><ele>353.0</ele><time>2026-04-25T12:24:14.976Z</time></trkpt><trkpt lat="43.898119020434486" lon="11.356725892826685"><ele>354.0</ele><time>2026-04-25T12:24:15.976Z</time></trkpt><trkpt lat="43.89804787391182" lon="11.356613702325918"><ele>355.0</ele><time>2026-04-25T12:24:16.976Z</time></trkpt><trkpt lat="43.897956831783354" lon="11.356525024003558"><ele>356.0</ele><time>2026-04-25T12:24:17.976Z</time></trkpt><trkpt lat="43.89783842185904" lon="11.35648244398102"><ele>356.0</ele><time>2026-04-25T12:24:18.976Z</time></trkpt><trkpt lat="43.89771489685029" lon="11.356404286809376"><ele>356.0</ele><time>2026-04-25T12:24:19.976Z</time></trkpt><trkpt lat="43.89755256125604" lon="11.356402242552864"><ele>356.0</ele><time>2026-04-25T12:24:20.977Z</time></trkpt><trkpt lat="43.8973823949853" lon="11.356432980661642"><ele>358.6666666666667</ele><time>2026-04-25T12:24:21.977Z</time></trkpt><trkpt lat="43.89719600526511" lon="11.356482988276854"><ele>361.3333333333333</ele><time>2026-04-25T12:24:22.977Z</time></trkpt><trkpt lat="43.89699872862303" lon="11.356540228260757"><ele>364.0</ele><time>2026-04-25T12:24:23.977Z</time></trkpt><trkpt lat="43.89682027405015" lon="11.356592006843409"><ele>366.3333333333333</ele><time>2026-04-25T12:24:24.977Z</time></trkpt><trkpt lat="43.89665743835093" lon="11.356639253708348"><ele>368.6666666666667</ele><time>2026-04-25T12:24:25.977Z</time></trkpt><trkpt lat="43.89650727241811" lon="11.3566828247697"><ele>371.0</ele><time>2026-04-25T12:24:26.977Z</time></trkpt><trkpt lat="43.89636007380513" lon="11.35672708601677"><ele>371.0</ele><time>2026-04-25T12:24:27.977Z</time></trkpt><trkpt lat="43.89622034286138" lon="11.356798732235967"><ele>371.0</ele><time>2026-04-25T12:24:28.977Z</time></trkpt><trkpt lat="43.89607738476266" lon="11.356837183598593"><ele>371.0</ele><time>2026-04-25T12:24:29.977Z</time></trkpt><trkpt lat="43.89593574840254" lon="11.356880342018854"><ele>371.0</ele><time>2026-04-25T12:24:30.977Z</time></trkpt><trkpt lat="43.89579533359782" lon="11.356885219755966"><ele>372.75</ele><time>2026-04-25T12:24:31.977Z</time></trkpt><trkpt lat="43.895660564985704" lon="11.356862035353005"><ele>374.5</ele><time>2026-04-25T12:24:32.977Z</time></trkpt><trkpt lat="43.89552171052192" lon="11.356822068418841"><ele>376.25</ele><time>2026-04-25T12:24:33.977Z</time></trkpt><trkpt lat="43.89538229017" lon="11.356788701512883"><ele>378.0</ele><time>2026-04-25T12:24:34.977Z</time></trkpt><trkpt lat="43.895242295180346" lon="11.356794092846243"><ele>378.0</ele><time>2026-04-25T12:24:35.977Z</time></trkpt><trkpt lat="43.89511222948866" lon="11.356839017837789"><ele>378.0</ele><time>2026-04-25T12:24:36.977Z</time></trkpt><trkpt lat="43.89500068193556" lon="11.356862606821544"><ele>378.0</ele><time>2026-04-25T12:24:37.977Z</time></trkpt><trkpt lat="43.89490471073598" lon="11.356916998494004"><ele>378.0</ele><time>2026-04-25T12:24:38.977Z</time></trkpt><trkpt lat="43.894816771521754" lon="11.35692258577044"><ele>378.0</ele><time>2026-04-25T12:24:39.977Z</time></trkpt><trkpt lat="43.894735585500854" lon="11.356881985731292"><ele>378.75</ele><time>2026-04-25T12:24:40.977Z</time></trkpt><trkpt lat="43.89465769300427" lon="11.356792311292454"><ele>379.5</ele><time>2026-04-25T12:24:41.977Z</time></trkpt><trkpt lat="43.894588279663125" lon="11.35666298982863"><ele>380.25</ele><time>2026-04-25T12:24:42.977Z</time></trkpt><trkpt lat="43.894494049911806" lon="11.356520563130772"><ele>381.0</ele><time>2026-04-25T12:24:43.977Z</time></trkpt><trkpt lat="43.89439436250849" lon="11.356376741975517"><ele>383.75</ele><time>2026-04-25T12:24:44.977Z</time></trkpt><trkpt lat="43.89429679372656" lon="11.356215792039329"><ele>386.5</ele><time>2026-04-25T12:24:45.977Z</time></trkpt><trkpt lat="43.89417798175328" lon="11.35607918537838"><ele>389.25</ele><time>2026-04-25T12:24:46.977Z</time></trkpt><trkpt lat="43.894079643565895" lon="11.35595415623315"><ele>392.0</ele><time>2026-04-25T12:24:47.977Z</time></trkpt><trkpt lat="43.8939932509946" lon="11.355821203575903"><ele>392.0</ele><time>2026-04-25T12:24:48.977Z</time></trkpt><trkpt lat="43.89391686941277" lon="11.355680871627225"><ele>392.0</ele><time>2026-04-25T12:24:49.977Z</time></trkpt><trkpt lat="43.893856280395966" lon="11.355532195045262"><ele>392.0</ele><time>2026-04-25T12:24:50.977Z</time></trkpt><trkpt lat="43.8937928031034" lon="11.355384711674896"><ele>392.0</ele><time>2026-04-25T12:24:51.977Z</time></trkpt><trkpt lat="43.89371480622825" lon="11.355260989210036"><ele>394.75</ele><time>2026-04-25T12:24:52.977Z</time></trkpt><trkpt lat="43.89362951597263" lon="11.355164716912215"><ele>397.5</ele><time>2026-04-25T12:24:53.977Z</time></trkpt><trkpt lat="43.89352925028039" lon="11.355097822994853"><ele>400.25</ele><time>2026-04-25T12:24:54.977Z</time></trkpt><trkpt lat="43.89342535065497" lon="11.355066789749447"><ele>403.0</ele><time>2026-04-25T12:24:55.977Z</time></trkpt><trkpt lat="43.893298988029514" lon="11.355069406526399"><ele>403.0</ele><time>2026-04-25T12:24:56.977Z</time></trkpt><trkpt lat="43.89315941071759" lon="11.355082154152782"><ele>403.0</ele><time>2026-04-25T12:24:57.977Z</time></trkpt><trkpt lat="43.89300238404" lon="11.355073198002108"><ele>403.0</ele><time>2026-04-25T12:24:58.977Z</time></trkpt><trkpt lat="43.892841384560136" lon="11.355098794230678"><ele>403.0</ele><time>2026-04-25T12:24:59.977Z</time></trkpt><trkpt lat="43.89267814872669" lon="11.355140544915239"><ele>403.0</ele><time>2026-04-25T12:25:00.977Z</time></trkpt><trkpt lat="43.89252234767641" lon="11.355178573011953"><ele>403.0</ele><time>2026-04-25T12:25:01.977Z</time></trkpt><trkpt lat="43.892378194056896" lon="11.355209165030493"><ele>407.5</ele><time>2026-04-25T12:25:02.977Z</time></trkpt><trkpt lat="43.89224369817658" lon="11.355250240235987"><ele>412.0</ele><time>2026-04-25T12:25:03.977Z</time></trkpt><trkpt lat="43.89210190610297" lon="11.355269857563663"><ele>416.5</ele><time>2026-04-25T12:25:04.977Z</time></trkpt><trkpt lat="43.89195879635614" lon="11.355261176227511"><ele>421.0</ele><time>2026-04-25T12:25:05.977Z</time></trkpt><trkpt lat="43.89181681337083" lon="11.355254016857321"><ele>419.75</ele><time>2026-04-25T12:25:06.977Z</time></trkpt><trkpt lat="43.89167686094262" lon="11.355241767592036"><ele>418.5</ele><time>2026-04-25T12:25:07.977Z</time></trkpt><trkpt lat="43.89155466132702" lon="11.355187731609771"><ele>417.25</ele><time>2026-04-25T12:25:08.977Z</time></trkpt><trkpt lat="43.891447717006876" lon="11.35510595585455"><ele>416.0</ele><time>2026-04-25T12:25:09.977Z</time></trkpt><trkpt lat="43.89135138096187" lon="11.354996376555397"><ele>416.0</ele><time>2026-04-25T12:25:10.977Z</time></trkpt><trkpt lat="43.891271908509694" lon="11.354847351751399"><ele>416.0</ele><time>2026-04-25T12:25:11.977Z</time></trkpt><trkpt lat="43.891202790843835" lon="11.354666942020398"><ele>416.0</ele><time>2026-04-25T12:25:12.977Z</time></trkpt><trkpt lat="43.891149895659964" lon="11.354477270588657"><ele>416.0</ele><time>2026-04-25T12:25:13.977Z</time></trkpt><trkpt lat="43.89110672976703" lon="11.354292271151829"><ele>421.0</ele><time>2026-04-25T12:25:14.977Z</time></trkpt><trkpt lat="43.89105171270159" lon="11.354118499051536"><ele>426.0</ele><time>2026-04-25T12:25:15.977Z</time></trkpt><trkpt lat="43.89102489719469" lon="11.353973164390426"><ele>431.0</ele><time>2026-04-25T12:25:16.977Z</time></trkpt><trkpt lat="43.890993947239735" lon="11.353856268442112"><ele>436.0</ele><time>2026-04-25T12:25:17.977Z</time></trkpt><trkpt lat="43.89085769989173" lon="11.353768069539603"><ele>439.33333333333337</ele><time>2026-04-25T12:25:18.977Z</time></trkpt><trkpt lat="43.89072856761927" lon="11.353703780924356"><ele>442.66666666666663</ele><time>2026-04-25T12:25:19.977Z</time></trkpt><trkpt lat="43.89058535537082" lon="11.353665911484107"><ele>446.0</ele><time>2026-04-25T12:25:20.977Z</time></trkpt><trkpt lat="43.89041906356667" lon="11.353649446925349"><ele>446.0</ele><time>2026-04-25T12:25:21.977Z</time></trkpt><trkpt lat="43.890262915820955" lon="11.353631526337514"><ele>446.0</ele><time>2026-04-25T12:25:22.977Z</time></trkpt><trkpt lat="43.89010897157671" lon="11.353613128155954"><ele>446.0</ele><time>2026-04-25T12:25:23.977Z</time></trkpt><trkpt lat="43.88997387453644" lon="11.35356771277479"><ele>443.75</ele><time>2026-04-25T12:25:24.977Z</time></trkpt><trkpt lat="43.88985377379688" lon="11.353494937148955"><ele>441.5</ele><time>2026-04-25T12:25:25.977Z</time></trkpt><trkpt lat="43.8897373414712" lon="11.353400097124945"><ele>439.25</ele><time>2026-04-25T12:25:26.977Z</time></trkpt><trkpt lat="43.889627334862695" lon="11.353285384932109"><ele>437.0</ele><time>2026-04-25T12:25:27.977Z</time></trkpt><trkpt lat="43.889499180546444" lon="11.353173121557301"><ele>437.0</ele><time>2026-04-25T12:25:28.977Z</time></trkpt><trkpt lat="43.889367281428456" lon="11.353059891900019"><ele>437.0</ele><time>2026-04-25T12:25:29.977Z</time></trkpt><trkpt lat="43.88923370815816" lon="11.352931057452462"><ele>437.0</ele><time>2026-04-25T12:25:30.976Z</time></trkpt><trkpt lat="43.88910682376831" lon="11.352768173094363"><ele>441.3333333333333</ele><time>2026-04-25T12:25:31.976Z</time></trkpt><trkpt lat="43.888986809644315" lon="11.352599270927714"><ele>445.66666666666663</ele><time>2026-04-25T12:25:32.977Z</time></trkpt><trkpt lat="43.88889173718719" lon="11.352441714142305"><ele>450.0</ele><time>2026-04-25T12:25:33.977Z</time></trkpt><trkpt lat="43.88880954486383" lon="11.352300885502684"><ele>453.75</ele><time>2026-04-25T12:25:34.977Z</time></trkpt><trkpt lat="43.88871334559839" lon="11.352168242622321"><ele>457.5</ele><time>2026-04-25T12:25:35.977Z</time></trkpt><trkpt lat="43.88860125922436" lon="11.352046450527054"><ele>461.25</ele><time>2026-04-25T12:25:36.977Z</time></trkpt><trkpt lat="43.888478195641376" lon="11.351938760831864"><ele>465.0</ele><time>2026-04-25T12:25:37.977Z</time></trkpt><trkpt lat="43.88834937882556" lon="11.351858474617746"><ele>465.0</ele><time>2026-04-25T12:25:38.977Z</time></trkpt><trkpt lat="43.88822761115293" lon="11.351787700891768"><ele>465.0</ele><time>2026-04-25T12:25:39.977Z</time></trkpt><trkpt lat="43.8880919180536" lon="11.35174602945964"><ele>465.0</ele><time>2026-04-25T12:25:40.977Z</time></trkpt><trkpt lat="43.887942832996465" lon="11.351746210017852"><ele>465.0</ele><time>2026-04-25T12:25:41.977Z</time></trkpt><trkpt lat="43.8877801913473" lon="11.351776151564682"><ele>465.0</ele><time>2026-04-25T12:25:42.977Z</time></trkpt><trkpt lat="43.887618793349205" lon="11.351833904480069"><ele>465.0</ele><time>2026-04-25T12:25:43.977Z</time></trkpt><trkpt lat="43.88746047774868" lon="11.351893581420049"><ele>465.0</ele><time>2026-04-25T12:25:44.977Z</time></trkpt><trkpt lat="43.887321062569704" lon="11.351934360731143"><ele>462.75</ele><time>2026-04-25T12:25:45.977Z</time></trkpt><trkpt lat="43.88718689674069" lon="11.351972422468297"><ele>460.5</ele><time>2026-04-25T12:25:46.977Z</time></trkpt><trkpt lat="43.88707136390172" lon="11.351979816706876"><ele>458.25</ele><time>2026-04-25T12:25:47.977Z</time></trkpt><trkpt lat="43.886966399631355" lon="11.351964464855016"><ele>456.0</ele><time>2026-04-25T12:25:48.977Z</time></trkpt><trkpt lat="43.886862403477224" lon="11.35192109776426"><ele>453.25</ele><time>2026-04-25T12:25:49.977Z</time></trkpt><trkpt lat="43.88675632056371" lon="11.351843596473868"><ele>450.5</ele><time>2026-04-25T12:25:50.977Z</time></trkpt><trkpt lat="43.88665347139603" lon="11.351733499235316"><ele>447.75</ele><time>2026-04-25T12:25:51.977Z</time></trkpt><trkpt lat="43.88650909902771" lon="11.351630342137396"><ele>445.0</ele><time>2026-04-25T12:25:52.977Z</time></trkpt><trkpt lat="43.88636610618703" lon="11.35154110609346"><ele>445.0</ele><time>2026-04-25T12:25:53.977Z</time></trkpt><trkpt lat="43.88621050998462" lon="11.35145236242829"><ele>445.0</ele><time>2026-04-25T12:25:54.977Z</time></trkpt><trkpt lat="43.886047020065526" lon="11.351384481300514"><ele>445.0</ele><time>2026-04-25T12:25:55.977Z</time></trkpt><trkpt lat="43.88589186001419" lon="11.35132567311525"><ele>446.33333333333337</ele><time>2026-04-25T12:25:56.977Z</time></trkpt><trkpt lat="43.885743307215414" lon="11.35126246367566"><ele>447.66666666666663</ele><time>2026-04-25T12:25:57.977Z</time></trkpt><trkpt lat="43.88558959866624" lon="11.351203582414906"><ele>449.0</ele><time>2026-04-25T12:25:58.977Z</time></trkpt><trkpt lat="43.88544663766702" lon="11.351127876474811"><ele>449.0</ele><time>2026-04-25T12:25:59.977Z</time></trkpt><trkpt lat="43.88530397928751" lon="11.351056164967416"><ele>449.0</ele><time>2026-04-25T12:26:00.977Z</time></trkpt><trkpt lat="43.885160880073336" lon="11.35099315183437"><ele>449.0</ele><time>2026-04-25T12:26:01.977Z</time></trkpt><trkpt lat="43.88502215916369" lon="11.350929842181412"><ele>449.0</ele><time>2026-04-25T12:26:02.977Z</time></trkpt><trkpt lat="43.88489589840583" lon="11.350871154686386"><ele>449.79999999999995</ele><time>2026-04-25T12:26:03.977Z</time></trkpt><trkpt lat="43.884786729972284" lon="11.350803270753286"><ele>450.59999999999997</ele><time>2026-04-25T12:26:04.977Z</time></trkpt><trkpt lat="43.88469397874244" lon="11.350716880765214"><ele>451.4</ele><time>2026-04-25T12:26:05.977Z</time></trkpt><trkpt lat="43.884611732174065" lon="11.350630936818547"><ele>452.2</ele><time>2026-04-25T12:26:06.977Z</time></trkpt><trkpt lat="43.88453065472908" lon="11.35053472712548"><ele>453.0</ele><time>2026-04-25T12:26:07.977Z</time></trkpt><trkpt lat="43.88443616117402" lon="11.35042665753991"><ele>453.0</ele><time>2026-04-25T12:26:08.977Z</time></trkpt><trkpt lat="43.88433917205651" lon="11.35030750768643"><ele>453.0</ele><time>2026-04-25T12:26:09.978Z</time></trkpt><trkpt lat="43.884237219891794" lon="11.350182218260798"><ele>453.0</ele><time>2026-04-25T12:26:10.978Z</time></trkpt><trkpt lat="43.884127007715236" lon="11.350057245745871"><ele>453.0</ele><time>2026-04-25T12:26:11.978Z</time></trkpt><trkpt lat="43.8840146383975" lon="11.349921365006214"><ele>454.66666666666663</ele><time>2026-04-25T12:26:12.978Z</time></trkpt><trkpt lat="43.88390080323607" lon="11.349784180086477"><ele>456.3333333333333</ele><time>2026-04-25T12:26:13.978Z</time></trkpt><trkpt lat="43.88376568317446" lon="11.349677052373833"><ele>458.0</ele><time>2026-04-25T12:26:14.978Z</time></trkpt><trkpt lat="43.883605603961996" lon="11.3495922574354"><ele>458.0</ele><time>2026-04-25T12:26:15.978Z</time></trkpt><trkpt lat="43.88343656592493" lon="11.349546285311295"><ele>458.0</ele><time>2026-04-25T12:26:16.978Z</time></trkpt><trkpt lat="43.88326851365955" lon="11.349506582272378"><ele>458.0</ele><time>2026-04-25T12:26:17.978Z</time></trkpt><trkpt lat="43.88311692663717" lon="11.349473854954068"><ele>457.25</ele><time>2026-04-25T12:26:18.978Z</time></trkpt><trkpt lat="43.88297219274932" lon="11.349442697630579"><ele>456.5</ele><time>2026-04-25T12:26:19.978Z</time></trkpt><trkpt lat="43.88284035255889" lon="11.349419213983285"><ele>455.75</ele><time>2026-04-25T12:26:20.978Z</time></trkpt><trkpt lat="43.88272041610034" lon="11.349374522646883"><ele>455.0</ele><time>2026-04-25T12:26:21.978Z</time></trkpt><trkpt lat="43.882617493179886" lon="11.34930870583846"><ele>454.25</ele><time>2026-04-25T12:26:22.978Z</time></trkpt><trkpt lat="43.88251504895931" lon="11.349208361199812"><ele>453.5</ele><time>2026-04-25T12:26:23.978Z</time></trkpt><trkpt lat="43.88240828904562" lon="11.34907156612397"><ele>452.75</ele><time>2026-04-25T12:26:24.978Z</time></trkpt><trkpt lat="43.8822978120696" lon="11.348909950443351"><ele>452.0</ele><time>2026-04-25T12:26:25.978Z</time></trkpt><trkpt lat="43.88217916964505" lon="11.348734662973497"><ele>454.75</ele><time>2026-04-25T12:26:26.978Z</time></trkpt><trkpt lat="43.88207581498058" lon="11.34856620078425"><ele>457.5</ele><time>2026-04-25T12:26:27.978Z</time></trkpt><trkpt lat="43.882005826743395" lon="11.348399047675398"><ele>460.25</ele><time>2026-04-25T12:26:28.978Z</time></trkpt><trkpt lat="43.881968502201026" lon="11.34823341278735"><ele>463.0</ele><time>2026-04-25T12:26:29.978Z</time></trkpt><trkpt lat="43.88195596559075" lon="11.348050891741144"><ele>465.0</ele><time>2026-04-25T12:26:30.978Z</time></trkpt><trkpt lat="43.88196189532714" lon="11.347854228581314"><ele>467.0</ele><time>2026-04-25T12:26:31.978Z</time></trkpt><trkpt lat="43.881947457613364" lon="11.347649838349758"><ele>469.0</ele><time>2026-04-25T12:26:32.978Z</time></trkpt><trkpt lat="43.88191470863959" lon="11.347449385453338"><ele>471.0</ele><time>2026-04-25T12:26:33.978Z</time></trkpt><trkpt lat="43.88185346840461" lon="11.347278984164832"><ele>473.33333333333337</ele><time>2026-04-25T12:26:34.978Z</time></trkpt><trkpt lat="43.88175536969613" lon="11.347120786648912"><ele>475.6666666666667</ele><time>2026-04-25T12:26:35.978Z</time></trkpt><trkpt lat="43.88161501452191" lon="11.34698015165949"><ele>478.0</ele><time>2026-04-25T12:26:36.978Z</time></trkpt><trkpt lat="43.8814546006546" lon="11.346860535585884"><ele>478.0</ele><time>2026-04-25T12:26:37.978Z</time></trkpt><trkpt lat="43.88128655731108" lon="11.346731977567208"><ele>478.0</ele><time>2026-04-25T12:26:38.978Z</time></trkpt><trkpt lat="43.88110110410751" lon="11.346612958497522"><ele>478.0</ele><time>2026-04-25T12:26:39.978Z</time></trkpt><trkpt lat="43.880921243345476" lon="11.346527505789364"><ele>479.6666666666667</ele><time>2026-04-25T12:26:40.978Z</time></trkpt><trkpt lat="43.88075204524313" lon="11.346472081183855"><ele>481.33333333333337</ele><time>2026-04-25T12:26:41.978Z</time></trkpt><trkpt lat="43.880592028674684" lon="11.34642288523242"><ele>483.0</ele><time>2026-04-25T12:26:42.978Z</time></trkpt><trkpt lat="43.880449083819585" lon="11.346365152841114"><ele>483.0</ele><time>2026-04-25T12:26:43.978Z</time></trkpt><trkpt lat="43.88030904497576" lon="11.346260583599815"><ele>483.0</ele><time>2026-04-25T12:26:44.978Z</time></trkpt><trkpt lat="43.880162421710565" lon="11.34612143452031"><ele>483.0</ele><time>2026-04-25T12:26:45.978Z</time></trkpt><trkpt lat="43.88001504508182" lon="11.34595197177532"><ele>482.66666666666663</ele><time>2026-04-25T12:26:46.978Z</time></trkpt><trkpt lat="43.879866993889785" lon="11.345769696886592"><ele>482.3333333333333</ele><time>2026-04-25T12:26:47.978Z</time></trkpt><trkpt lat="43.879725506313136" lon="11.345580292774816"><ele>482.0</ele><time>2026-04-25T12:26:48.978Z</time></trkpt><trkpt lat="43.879597265100415" lon="11.345359470483238"><ele>482.0</ele><time>2026-04-25T12:26:49.978Z</time></trkpt><trkpt lat="43.8794903820732" lon="11.345127073723843"><ele>482.0</ele><time>2026-04-25T12:26:50.978Z</time></trkpt><trkpt lat="43.87939475368599" lon="11.344913019210459"><ele>482.0</ele><time>2026-04-25T12:26:51.978Z</time></trkpt><trkpt lat="43.87930793592898" lon="11.344726443246739"><ele>482.25</ele><time>2026-04-25T12:26:52.978Z</time></trkpt><trkpt lat="43.879226856889794" lon="11.344578779659674"><ele>482.5</ele><time>2026-04-25T12:26:53.978Z</time></trkpt><trkpt lat="43.87913501046937" lon="11.344469179190975"><ele>482.75</ele><time>2026-04-25T12:26:54.978Z</time></trkpt><trkpt lat="43.879013229673824" lon="11.344397773442447"><ele>483.0</ele><time>2026-04-25T12:26:55.978Z</time></trkpt><trkpt lat="43.878865570622565" lon="11.344357745362853"><ele>483.0</ele><time>2026-04-25T12:26:56.978Z</time></trkpt><trkpt lat="43.87870090563584" lon="11.344361749783339"><ele>483.0</ele><time>2026-04-25T12:26:57.978Z</time></trkpt><trkpt lat="43.878536071369425" lon="11.344389833445804"><ele>483.0</ele><time>2026-04-25T12:26:58.978Z</time></trkpt><trkpt lat="43.87838113783516" lon="11.34439133415706"><ele>483.0</ele><time>2026-04-25T12:26:59.978Z</time></trkpt><trkpt lat="43.878223456664664" lon="11.344348579220478"><ele>483.0</ele><time>2026-04-25T12:27:00.978Z</time></trkpt><trkpt lat="43.87805272008775" lon="11.344279624451826"><ele>483.0</ele><time>2026-04-25T12:27:01.978Z</time></trkpt><trkpt lat="43.87786488007507" lon="11.344207181480877"><ele>483.0</ele><time>2026-04-25T12:27:02.978Z</time></trkpt><trkpt lat="43.87766286248496" lon="11.34413204195821"><ele>483.0</ele><time>2026-04-25T12:27:03.978Z</time></trkpt><trkpt lat="43.877459939690326" lon="11.34407011903413"><ele>483.0</ele><time>2026-04-25T12:27:04.978Z</time></trkpt><trkpt lat="43.87725119988792" lon="11.34403351660283"><ele>482.66666666666663</ele><time>2026-04-25T12:27:05.978Z</time></trkpt><trkpt lat="43.87705557875642" lon="11.344009811796933"><ele>482.3333333333333</ele><time>2026-04-25T12:27:06.978Z</time></trkpt><trkpt lat="43.87687078117219" lon="11.344002848514654"><ele>482.0</ele><time>2026-04-25T12:27:07.978Z</time></trkpt><trkpt lat="43.87669311526476" lon="11.34400718963518"><ele>482.0</ele><time>2026-04-25T12:27:08.978Z</time></trkpt><trkpt lat="43.876513811689335" lon="11.34399688235324"><ele>482.0</ele><time>2026-04-25T12:27:09.978Z</time></trkpt><trkpt lat="43.87634362115606" lon="11.343973609753496"><ele>482.0</ele><time>2026-04-25T12:27:10.978Z</time></trkpt><trkpt lat="43.8761764167788" lon="11.343916708345633"><ele>484.3333333333333</ele><time>2026-04-25T12:27:11.978Z</time></trkpt><trkpt lat="43.876003363875896" lon="11.343821840468971"><ele>486.66666666666663</ele><time>2026-04-25T12:27:12.978Z</time></trkpt><trkpt lat="43.87582925532233" lon="11.343699731417722"><ele>489.0</ele><time>2026-04-25T12:27:13.978Z</time></trkpt><trkpt lat="43.875650405024544" lon="11.343574281245704"><ele>489.0</ele><time>2026-04-25T12:27:14.978Z</time></trkpt><trkpt lat="43.87548354090984" lon="11.34346039089489"><ele>489.0</ele><time>2026-04-25T12:27:15.978Z</time></trkpt><trkpt lat="43.875332400051484" lon="11.343354768627904"><ele>489.0</ele><time>2026-04-25T12:27:16.978Z</time></trkpt><trkpt lat="43.87519420230584" lon="11.343260887702789"><ele>488.66666666666663</ele><time>2026-04-25T12:27:17.978Z</time></trkpt><trkpt lat="43.87505822554811" lon="11.343186870658819"><ele>488.3333333333333</ele><time>2026-04-25T12:27:18.978Z</time></trkpt><trkpt lat="43.874912331355326" lon="11.343149605918425"><ele>488.0</ele><time>2026-04-25T12:27:19.978Z</time></trkpt><trkpt lat="43.874756906880016" lon="11.343141649691091"><ele>488.0</ele><time>2026-04-25T12:27:20.978Z</time></trkpt><trkpt lat="43.87459590471297" lon="11.343155451071729"><ele>488.0</ele><time>2026-04-25T12:27:21.978Z</time></trkpt><trkpt lat="43.874429448467666" lon="11.343185535135856"><ele>488.0</ele><time>2026-04-25T12:27:22.978Z</time></trkpt><trkpt lat="43.87425868437223" lon="11.343222788405999"><ele>489.3333333333333</ele><time>2026-04-25T12:27:23.978Z</time></trkpt><trkpt lat="43.874088251490754" lon="11.343251270730464"><ele>490.66666666666663</ele><time>2026-04-25T12:27:24.978Z</time></trkpt><trkpt lat="43.87392813770027" lon="11.34326657884261"><ele>492.0</ele><time>2026-04-25T12:27:25.978Z</time></trkpt><trkpt lat="43.87378506258286" lon="11.343279437493784"><ele>492.0</ele><time>2026-04-25T12:27:26.978Z</time></trkpt><trkpt lat="43.87364632782991" lon="11.343297793256264"><ele>492.0</ele><time>2026-04-25T12:27:27.978Z</time></trkpt><trkpt lat="43.87351064415311" lon="11.343336480070109"><ele>492.0</ele><time>2026-04-25T12:27:28.978Z</time></trkpt><trkpt lat="43.873380984718736" lon="11.343406714379423"><ele>492.0</ele><time>2026-04-25T12:27:29.978Z</time></trkpt><trkpt lat="43.87327003109163" lon="11.343503759978937"><ele>492.75</ele><time>2026-04-25T12:27:30.978Z</time></trkpt><trkpt lat="43.8731785974547" lon="11.34359680172966"><ele>493.5</ele><time>2026-04-25T12:27:31.978Z</time></trkpt><trkpt lat="43.873078169915495" lon="11.343704959692658"><ele>494.25</ele><time>2026-04-25T12:27:32.978Z</time></trkpt><trkpt lat="43.8729618025719" lon="11.343802578966667"><ele>495.0</ele><time>2026-04-25T12:27:33.978Z</time></trkpt><trkpt lat="43.872860611301356" lon="11.343880175553007"><ele>495.0</ele><time>2026-04-25T12:27:34.978Z</time></trkpt><trkpt lat="43.87274931086426" lon="11.34394358559095"><ele>495.0</ele><time>2026-04-25T12:27:35.978Z</time></trkpt><trkpt lat="43.8726419837344" lon="11.344003351471644"><ele>495.0</ele><time>2026-04-25T12:27:36.979Z</time></trkpt><trkpt lat="43.87254439129238" lon="11.344061972008385"><ele>495.0</ele><time>2026-04-25T12:27:37.979Z</time></trkpt><trkpt lat="43.87243930757565" lon="11.344120905383948"><ele>495.0</ele><time>2026-04-25T12:27:38.978Z</time></trkpt><trkpt lat="43.872329829713124" lon="11.344172576506462"><ele>495.0</ele><time>2026-04-25T12:27:39.978Z</time></trkpt><trkpt lat="43.872197952216425" lon="11.344213467883701"><ele>495.0</ele><time>2026-04-25T12:27:40.978Z</time></trkpt><trkpt lat="43.87207473530264" lon="11.34423984396882"><ele>495.0</ele><time>2026-04-25T12:27:41.978Z</time></trkpt><trkpt lat="43.87193154325945" lon="11.34424886392929"><ele>495.0</ele><time>2026-04-25T12:27:42.978Z</time></trkpt><trkpt lat="43.87177375502242" lon="11.344236129437835"><ele>495.0</ele><time>2026-04-25T12:27:43.978Z</time></trkpt><trkpt lat="43.87159365876999" lon="11.34420135062292"><ele>495.0</ele><time>2026-04-25T12:27:44.978Z</time></trkpt><trkpt lat="43.87140151460459" lon="11.344152514027325"><ele>497.0</ele><time>2026-04-25T12:27:45.978Z</time></trkpt><trkpt lat="43.87121482581208" lon="11.344123789847881"><ele>499.0</ele><time>2026-04-25T12:27:46.978Z</time></trkpt><trkpt lat="43.87104361788852" lon="11.344118349333476"><ele>501.0</ele><time>2026-04-25T12:27:47.978Z</time></trkpt><trkpt lat="43.870878925007425" lon="11.34414172579102"><ele>501.66666666666663</ele><time>2026-04-25T12:27:48.978Z</time></trkpt><trkpt lat="43.87071057783969" lon="11.344186318016916"><ele>502.3333333333333</ele><time>2026-04-25T12:27:49.978Z</time></trkpt><trkpt lat="43.87054574378913" lon="11.344225767245414"><ele>503.0</ele><time>2026-04-25T12:27:50.978Z</time></trkpt><trkpt lat="43.87039113380977" lon="11.344249871795784"><ele>503.0</ele><time>2026-04-25T12:27:51.978Z</time></trkpt><trkpt lat="43.87024279547767" lon="11.344248310017887"><ele>503.0</ele><time>2026-04-25T12:27:52.978Z</time></trkpt><trkpt lat="43.870093709126365" lon="11.344212834718224"><ele>503.0</ele><time>2026-04-25T12:27:53.978Z</time></trkpt><trkpt lat="43.869950153075095" lon="11.344136752701072"><ele>503.66666666666663</ele><time>2026-04-25T12:27:54.978Z</time></trkpt><trkpt lat="43.869806496739685" lon="11.34403275454889"><ele>504.33333333333337</ele><time>2026-04-25T12:27:55.978Z</time></trkpt><trkpt lat="43.86965439598975" lon="11.343943345468452"><ele>505.0</ele><time>2026-04-25T12:27:56.978Z</time></trkpt><trkpt lat="43.86950049319403" lon="11.343861291877205"><ele>508.33333333333337</ele><time>2026-04-25T12:27:57.978Z</time></trkpt><trkpt lat="43.86933469584024" lon="11.343812414106585"><ele>511.66666666666663</ele><time>2026-04-25T12:27:58.978Z</time></trkpt><trkpt lat="43.86915425026476" lon="11.343789513352494"><ele>515.0</ele><time>2026-04-25T12:27:59.978Z</time></trkpt><trkpt lat="43.868959476877635" lon="11.34379872001731"><ele>515.0</ele><time>2026-04-25T12:28:00.978Z</time></trkpt><trkpt lat="43.86876407718146" lon="11.343823876285448"><ele>515.0</ele><time>2026-04-25T12:28:01.978Z</time></trkpt><trkpt lat="43.86858500548291" lon="11.343848147363918"><ele>515.0</ele><time>2026-04-25T12:28:02.978Z</time></trkpt><trkpt lat="43.86842101657599" lon="11.343863752762653"><ele>517.0</ele><time>2026-04-25T12:28:03.978Z</time></trkpt><trkpt lat="43.86828240070381" lon="11.343871507200456"><ele>519.0</ele><time>2026-04-25T12:28:04.978Z</time></trkpt><trkpt lat="43.868172003052536" lon="11.343853185537537"><ele>521.0</ele><time>2026-04-25T12:28:05.978Z</time></trkpt><trkpt lat="43.86807793358715" lon="11.343814535949605"><ele>523.0</ele><time>2026-04-25T12:28:06.978Z</time></trkpt><trkpt lat="43.86798792272134" lon="11.343748343992775"><ele>523.0</ele><time>2026-04-25T12:28:07.978Z</time></trkpt><trkpt lat="43.867895059647125" lon="11.343656832390463"><ele>523.0</ele><time>2026-04-25T12:28:08.978Z</time></trkpt><trkpt lat="43.86780723000089" lon="11.34354143304137"><ele>523.0</ele><time>2026-04-25T12:28:09.978Z</time></trkpt><trkpt lat="43.867712491177485" lon="11.343416182781201"><ele>523.0</ele><time>2026-04-25T12:28:10.978Z</time></trkpt><trkpt lat="43.86759760235066" lon="11.343293631230281"><ele>521.6666666666667</ele><time>2026-04-25T12:28:11.978Z</time></trkpt><trkpt lat="43.86747298547894" lon="11.343179232182322"><ele>520.3333333333334</ele><time>2026-04-25T12:28:12.978Z</time></trkpt><trkpt lat="43.867340467877995" lon="11.343069398151894"><ele>519.0</ele><time>2026-04-25T12:28:13.978Z</time></trkpt><trkpt lat="43.867217465199765" lon="11.342958261655344"><ele>521.6666666666666</ele><time>2026-04-25T12:28:14.978Z</time></trkpt><trkpt lat="43.86709183365136" lon="11.342845457526572"><ele>524.3333333333333</ele><time>2026-04-25T12:28:15.978Z</time></trkpt><trkpt lat="43.866960015398824" lon="11.342732422215455"><ele>527.0</ele><time>2026-04-25T12:28:16.978Z</time></trkpt><trkpt lat="43.86682233801763" lon="11.342609673190205"><ele>526.0</ele><time>2026-04-25T12:28:17.978Z</time></trkpt><trkpt lat="43.86668324268105" lon="11.342485948974076"><ele>525.0</ele><time>2026-04-25T12:28:18.978Z</time></trkpt><trkpt lat="43.86653872182309" lon="11.342357496817588"><ele>524.0</ele><time>2026-04-25T12:28:19.978Z</time></trkpt><trkpt lat="43.86638931654021" lon="11.342224497680029"><ele>526.0</ele><time>2026-04-25T12:28:20.978Z</time></trkpt><trkpt lat="43.866243331288686" lon="11.342095415670077"><ele>528.0</ele><time>2026-04-25T12:28:21.978Z</time></trkpt><trkpt lat="43.866103866621415" lon="11.341969066446067"><ele>530.0</ele><time>2026-04-25T12:28:22.978Z</time></trkpt><trkpt lat="43.86597459130036" lon="11.34184484762185"><ele>529.0</ele><time>2026-04-25T12:28:23.978Z</time></trkpt><trkpt lat="43.86585781246292" lon="11.341727637313555"><ele>528.0</ele><time>2026-04-25T12:28:24.978Z</time></trkpt><trkpt lat="43.865755217069974" lon="11.341616542560566"><ele>527.0</ele><time>2026-04-25T12:28:25.978Z</time></trkpt><trkpt lat="43.86565893283131" lon="11.341472482982947"><ele>526.0</ele><time>2026-04-25T12:28:26.978Z</time></trkpt><trkpt lat="43.865560589660774" lon="11.341364121165595"><ele>526.0</ele><time>2026-04-25T12:28:27.978Z</time></trkpt><trkpt lat="43.86548210650442" lon="11.34123378751899"><ele>526.0</ele><time>2026-04-25T12:28:28.978Z</time></trkpt><trkpt lat="43.86541678620205" lon="11.341087803452798"><ele>526.0</ele><time>2026-04-25T12:28:29.978Z</time></trkpt><trkpt lat="43.86533487008807" lon="11.340964235358976"><ele>526.0</ele><time>2026-04-25T12:28:30.978Z</time></trkpt><trkpt lat="43.86528249830495" lon="11.34081862899397"><ele>526.0</ele><time>2026-04-25T12:28:31.978Z</time></trkpt><trkpt lat="43.86519662463361" lon="11.340698284147688"><ele>526.0</ele><time>2026-04-25T12:28:32.978Z</time></trkpt><trkpt lat="43.86509459425315" lon="11.34060543819156"><ele>526.0</ele><time>2026-04-25T12:28:33.978Z</time></trkpt><trkpt lat="43.864955528163065" lon="11.3405435187381"><ele>526.0</ele><time>2026-04-25T12:28:34.978Z</time></trkpt><trkpt lat="43.864838302533116" lon="11.340498316400977"><ele>523.0</ele><time>2026-04-25T12:28:35.978Z</time></trkpt><trkpt lat="43.86471461126332" lon="11.340453975260832"><ele>520.0</ele><time>2026-04-25T12:28:36.978Z</time></trkpt><trkpt lat="43.864604024498334" lon="11.340380018060511"><ele>517.0</ele><time>2026-04-25T12:28:37.978Z</time></trkpt><trkpt lat="43.864482287010944" lon="11.340320415409051"><ele>514.0</ele><time>2026-04-25T12:28:38.978Z</time></trkpt><trkpt lat="43.86436794272407" lon="11.340265537710536"><ele>513.2</ele><time>2026-04-25T12:28:39.978Z</time></trkpt><trkpt lat="43.864253120193816" lon="11.340219094918776"><ele>512.4</ele><time>2026-04-25T12:28:40.978Z</time></trkpt><trkpt lat="43.864137621865254" lon="11.340184677743935"><ele>511.6</ele><time>2026-04-25T12:28:41.978Z</time></trkpt><trkpt lat="43.864033173407066" lon="11.340150006312411"><ele>510.8</ele><time>2026-04-25T12:28:42.978Z</time></trkpt><trkpt lat="43.86394069045023" lon="11.340116994263942"><ele>510.0</ele><time>2026-04-25T12:28:43.978Z</time></trkpt><trkpt lat="43.86384160998242" lon="11.340087575257769"><ele>510.0</ele><time>2026-04-25T12:28:44.978Z</time></trkpt><trkpt lat="43.863750900261394" lon="11.340066473766804"><ele>510.0</ele><time>2026-04-25T12:28:45.978Z</time></trkpt><trkpt lat="43.86366356436086" lon="11.340039382012831"><ele>510.0</ele><time>2026-04-25T12:28:46.978Z</time></trkpt><trkpt lat="43.86356994759646" lon="11.340010532041566"><ele>510.0</ele><time>2026-04-25T12:28:47.978Z</time></trkpt><trkpt lat="43.863493270141674" lon="11.339983536437979"><ele>510.0</ele><time>2026-04-25T12:28:48.978Z</time></trkpt><trkpt lat="43.86342909165292" lon="11.339955569108719"><ele>510.0</ele><time>2026-04-25T12:28:49.978Z</time></trkpt><trkpt lat="43.86336375013108" lon="11.339939090459515"><ele>508.8</ele><time>2026-04-25T12:28:50.978Z</time></trkpt><trkpt lat="43.86330827108075" lon="11.339895058650834"><ele>507.6</ele><time>2026-04-25T12:28:51.978Z</time></trkpt><trkpt lat="43.86318436634714" lon="11.340022589609456"><ele>506.4</ele><time>2026-04-25T12:28:53.978Z</time></trkpt><trkpt lat="43.863136029709025" lon="11.340093056406095"><ele>505.2</ele><time>2026-04-25T12:28:54.978Z</time></trkpt><trkpt lat="43.8630941534689" lon="11.340182013740476"><ele>504.0</ele><time>2026-04-25T12:28:55.978Z</time></trkpt><trkpt lat="43.86305003379972" lon="11.340292293257273"><ele>504.0</ele><time>2026-04-25T12:28:56.978Z</time></trkpt><trkpt lat="43.8630097490049" lon="11.340393452889558"><ele>504.0</ele><time>2026-04-25T12:28:57.978Z</time></trkpt><trkpt lat="43.86296467643215" lon="11.340513832306732"><ele>504.0</ele><time>2026-04-25T12:28:59.978Z</time></trkpt><trkpt lat="43.862919408128775" lon="11.340613975047091"><ele>504.0</ele><time>2026-04-25T12:29:01.978Z</time></trkpt><trkpt lat="43.86286164741021" lon="11.340721005294666"><ele>504.0</ele><time>2026-04-25T12:29:03.978Z</time></trkpt><trkpt lat="43.86279038721491" lon="11.340838239555843"><ele>503.6666666666667</ele><time>2026-04-25T12:29:05.978Z</time></trkpt><trkpt lat="43.86273952790759" lon="11.34091718689182"><ele>503.33333333333337</ele><time>2026-04-25T12:29:06.978Z</time></trkpt><trkpt lat="43.86267667465198" lon="11.34099032435038"><ele>503.0</ele><time>2026-04-25T12:29:07.978Z</time></trkpt><trkpt lat="43.86260279871167" lon="11.341037555979277"><ele>502.6666666666667</ele><time>2026-04-25T12:29:08.978Z</time></trkpt><trkpt lat="43.86253541932148" lon="11.341088050074013"><ele>502.33333333333337</ele><time>2026-04-25T12:29:09.978Z</time></trkpt><trkpt lat="43.86245251037529" lon="11.341130747594262"><ele>502.0</ele><time>2026-04-25T12:29:10.978Z</time></trkpt><trkpt lat="43.86237655892035" lon="11.341148557596403"><ele>500.83333333333337</ele><time>2026-04-25T12:29:11.978Z</time></trkpt><trkpt lat="43.86228507318721" lon="11.341144921458412"><ele>499.6666666666667</ele><time>2026-04-25T12:29:12.978Z</time></trkpt><trkpt lat="43.86219665557495" lon="11.34114156851667"><ele>498.5</ele><time>2026-04-25T12:29:13.978Z</time></trkpt><trkpt lat="43.86211572520459" lon="11.341127174271401"><ele>497.33333333333337</ele><time>2026-04-25T12:29:14.978Z</time></trkpt><trkpt lat="43.86204506555885" lon="11.341101045336403"><ele>496.1666666666667</ele><time>2026-04-25T12:29:15.978Z</time></trkpt><trkpt lat="43.86193600024514" lon="11.341122087074883"><ele>495.0</ele><time>2026-04-25T12:29:17.978Z</time></trkpt><trkpt lat="43.86187301029872" lon="11.341199574324223"><ele>495.0</ele><time>2026-04-25T12:29:19.978Z</time></trkpt><trkpt lat="43.86183300074054" lon="11.341369240213455"><ele>495.0</ele><time>2026-04-25T12:29:21.978Z</time></trkpt><trkpt lat="43.86183921429021" lon="11.3414817931722"><ele>495.0</ele><time>2026-04-25T12:29:22.978Z</time></trkpt><trkpt lat="43.86183745752602" lon="11.34160769974332"><ele>495.0</ele><time>2026-04-25T12:29:23.978Z</time></trkpt><trkpt lat="43.86187726071469" lon="11.34172470153855"><ele>495.0</ele><time>2026-04-25T12:29:24.978Z</time></trkpt><trkpt lat="43.86193051417421" lon="11.341842774643045"><ele>496.75</ele><time>2026-04-25T12:29:25.978Z</time></trkpt><trkpt lat="43.861984637568895" lon="11.34197196102892"><ele>498.5</ele><time>2026-04-25T12:29:26.978Z</time></trkpt><trkpt lat="43.86206906386512" lon="11.34210869508757"><ele>500.25</ele><time>2026-04-25T12:29:27.979Z</time></trkpt><trkpt lat="43.8621874938371" lon="11.342291472800534"><ele>502.0</ele><time>2026-04-25T12:29:28.979Z</time></trkpt><trkpt lat="43.86229103102137" lon="11.342475105432504"><ele>504.6666666666667</ele><time>2026-04-25T12:29:29.979Z</time></trkpt><trkpt lat="43.86239032673546" lon="11.3426524290403"><ele>507.33333333333337</ele><time>2026-04-25T12:29:30.979Z</time></trkpt><trkpt lat="43.86249701872057" lon="11.342815251703339"><ele>510.0</ele><time>2026-04-25T12:29:31.979Z</time></trkpt><trkpt lat="43.86258245994268" lon="11.342975472464945"><ele>514.6666666666666</ele><time>2026-04-25T12:29:32.979Z</time></trkpt><trkpt lat="43.86265312152815" lon="11.343152993462066"><ele>519.3333333333333</ele><time>2026-04-25T12:29:33.979Z</time></trkpt><trkpt lat="43.86270539312796" lon="11.343372507180609"><ele>524.0</ele><time>2026-04-25T12:29:34.979Z</time></trkpt><trkpt lat="43.862745952477155" lon="11.343604106262505"><ele>524.0</ele><time>2026-04-25T12:29:35.979Z</time></trkpt><trkpt lat="43.86279443314891" lon="11.343850504499398"><ele>524.0</ele><time>2026-04-25T12:29:36.979Z</time></trkpt><trkpt lat="43.862842583751785" lon="11.344076838835333"><ele>524.0</ele><time>2026-04-25T12:29:37.979Z</time></trkpt><trkpt lat="43.862896935233394" lon="11.34429144042919"><ele>525.0</ele><time>2026-04-25T12:29:38.979Z</time></trkpt><trkpt lat="43.862981049951244" lon="11.344511790609559"><ele>526.0</ele><time>2026-04-25T12:29:39.979Z</time></trkpt><trkpt lat="43.86307161593776" lon="11.344699903795151"><ele>527.0</ele><time>2026-04-25T12:29:40.979Z</time></trkpt><trkpt lat="43.86317877718226" lon="11.344883694431926"><ele>527.0</ele><time>2026-04-25T12:29:41.979Z</time></trkpt><trkpt lat="43.86328452478893" lon="11.345097891837499"><ele>527.0</ele><time>2026-04-25T12:29:42.979Z</time></trkpt><trkpt lat="43.86338114687854" lon="11.345298337735494"><ele>527.0</ele><time>2026-04-25T12:29:43.979Z</time></trkpt><trkpt lat="43.86347520525124" lon="11.345469314390513"><ele>527.75</ele><time>2026-04-25T12:29:44.98Z</time></trkpt><trkpt lat="43.86355804376959" lon="11.34563640475566"><ele>528.5</ele><time>2026-04-25T12:29:45.98Z</time></trkpt><trkpt lat="43.86364202515513" lon="11.345782759417396"><ele>529.25</ele><time>2026-04-25T12:29:46.98Z</time></trkpt><trkpt lat="43.863696349821154" lon="11.345940306232665"><ele>530.0</ele><time>2026-04-25T12:29:47.979Z</time></trkpt><trkpt lat="43.86374536156365" lon="11.346116737938887"><ele>530.0</ele><time>2026-04-25T12:29:48.979Z</time></trkpt><trkpt lat="43.86377148027816" lon="11.34631643726082"><ele>530.0</ele><time>2026-04-25T12:29:49.979Z</time></trkpt><trkpt lat="43.863784810933026" lon="11.346537991411015"><ele>530.0</ele><time>2026-04-25T12:29:50.979Z</time></trkpt><trkpt lat="43.86378597874532" lon="11.346780358166097"><ele>531.6666666666666</ele><time>2026-04-25T12:29:51.979Z</time></trkpt><trkpt lat="43.863793610001835" lon="11.34702822479905"><ele>533.3333333333334</ele><time>2026-04-25T12:29:52.979Z</time></trkpt><trkpt lat="43.86380165107918" lon="11.347248606839337"><ele>535.0</ele><time>2026-04-25T12:29:53.979Z</time></trkpt><trkpt lat="43.86378921585445" lon="11.347455816919297"><ele>536.25</ele><time>2026-04-25T12:29:54.979Z</time></trkpt><trkpt lat="43.86377753098239" lon="11.347654868602488"><ele>537.5</ele><time>2026-04-25T12:29:55.979Z</time></trkpt><trkpt lat="43.863751208222155" lon="11.347838512264017"><ele>538.75</ele><time>2026-04-25T12:29:56.979Z</time></trkpt><trkpt lat="43.86370091611848" lon="11.34801627401864"><ele>540.0</ele><time>2026-04-25T12:29:57.979Z</time></trkpt><trkpt lat="43.863638569204156" lon="11.348192990355473"><ele>539.5</ele><time>2026-04-25T12:29:58.979Z</time></trkpt><trkpt lat="43.86357898704023" lon="11.34837058666633"><ele>539.0</ele><time>2026-04-25T12:29:59.979Z</time></trkpt><trkpt lat="43.86351879816285" lon="11.348552330269186"><ele>538.5</ele><time>2026-04-25T12:30:00.979Z</time></trkpt><trkpt lat="43.86346110293465" lon="11.348726758624794"><ele>538.0</ele><time>2026-04-25T12:30:01.979Z</time></trkpt><trkpt lat="43.86340202746916" lon="11.348904447993577"><ele>538.0</ele><time>2026-04-25T12:30:02.979Z</time></trkpt><trkpt lat="43.86333774770264" lon="11.349078902585942"><ele>538.0</ele><time>2026-04-25T12:30:03.979Z</time></trkpt><trkpt lat="43.86327473580219" lon="11.349270752067683"><ele>538.0</ele><time>2026-04-25T12:30:04.979Z</time></trkpt><trkpt lat="43.86320954871546" lon="11.349455542762607"><ele>538.0</ele><time>2026-04-25T12:30:05.979Z</time></trkpt><trkpt lat="43.86314060162839" lon="11.349646947620835"><ele>537.6666666666667</ele><time>2026-04-25T12:30:06.979Z</time></trkpt><trkpt lat="43.86307117944672" lon="11.349831878685292"><ele>537.3333333333334</ele><time>2026-04-25T12:30:07.979Z</time></trkpt><trkpt lat="43.86300082558763" lon="11.350018901962972"><ele>537.0</ele><time>2026-04-25T12:30:08.979Z</time></trkpt><trkpt lat="43.86293318259026" lon="11.350208046658333"><ele>537.0</ele><time>2026-04-25T12:30:09.979Z</time></trkpt><trkpt lat="43.862865028262775" lon="11.350398734297656"><ele>537.0</ele><time>2026-04-25T12:30:10.979Z</time></trkpt><trkpt lat="43.86280022196224" lon="11.350584341845988"><ele>537.0</ele><time>2026-04-25T12:30:11.98Z</time></trkpt><trkpt lat="43.862729140019106" lon="11.35077912715228"><ele>537.3333333333334</ele><time>2026-04-25T12:30:12.98Z</time></trkpt><trkpt lat="43.86266135458923" lon="11.350971818571217"><ele>537.6666666666667</ele><time>2026-04-25T12:30:13.98Z</time></trkpt><trkpt lat="43.86258842618367" lon="11.351158517401776"><ele>538.0</ele><time>2026-04-25T12:30:14.98Z</time></trkpt><trkpt lat="43.862501749907004" lon="11.351331732434534"><ele>531.3333333333334</ele><time>2026-04-25T12:30:15.98Z</time></trkpt><trkpt lat="43.86240711512955" lon="11.351488322958906"><ele>524.6666666666666</ele><time>2026-04-25T12:30:16.98Z</time></trkpt><trkpt lat="43.862302221391154" lon="11.351634938208983"><ele>518.0</ele><time>2026-04-25T12:30:17.98Z</time></trkpt><trkpt lat="43.86217760246998" lon="11.35176515081075"><ele>518.0</ele><time>2026-04-25T12:30:18.98Z</time></trkpt><trkpt lat="43.86205402343483" lon="11.351897453856495"><ele>518.0</ele><time>2026-04-25T12:30:19.98Z</time></trkpt><trkpt lat="43.86192895324295" lon="11.35203471257931"><ele>518.0</ele><time>2026-04-25T12:30:20.98Z</time></trkpt><trkpt lat="43.8618081499035" lon="11.352171125902869"><ele>513.6666666666666</ele><time>2026-04-25T12:30:21.98Z</time></trkpt><trkpt lat="43.86168163348247" lon="11.352305414578787"><ele>509.33333333333337</ele><time>2026-04-25T12:30:22.98Z</time></trkpt><trkpt lat="43.86155852655614" lon="11.35244625030856"><ele>505.0</ele><time>2026-04-25T12:30:23.98Z</time></trkpt><trkpt lat="43.86143146644168" lon="11.352580521474144"><ele>505.0</ele><time>2026-04-25T12:30:24.98Z</time></trkpt><trkpt lat="43.861314072351874" lon="11.352718993611965"><ele>505.0</ele><time>2026-04-25T12:30:25.98Z</time></trkpt><trkpt lat="43.861203639172686" lon="11.352851125857251"><ele>505.0</ele><time>2026-04-25T12:30:26.98Z</time></trkpt><trkpt lat="43.861098699194876" lon="11.352984321972215"><ele>505.0</ele><time>2026-04-25T12:30:27.98Z</time></trkpt><trkpt lat="43.86100234138246" lon="11.35313104302008"><ele>499.6666666666667</ele><time>2026-04-25T12:30:28.979Z</time></trkpt><trkpt lat="43.860915155178084" lon="11.353318220412714"><ele>494.33333333333337</ele><time>2026-04-25T12:30:29.979Z</time></trkpt><trkpt lat="43.86083855031302" lon="11.353508728331919"><ele>489.0</ele><time>2026-04-25T12:30:30.979Z</time></trkpt><trkpt lat="43.86075623965149" lon="11.353714831697774"><ele>489.33333333333337</ele><time>2026-04-25T12:30:31.979Z</time></trkpt><trkpt lat="43.86066798520762" lon="11.353917358212085"><ele>489.6666666666667</ele><time>2026-04-25T12:30:32.979Z</time></trkpt><trkpt lat="43.860582119402004" lon="11.354118869064157"><ele>490.0</ele><time>2026-04-25T12:30:33.979Z</time></trkpt><trkpt lat="43.86049900224318" lon="11.354316130937404"><ele>490.0</ele><time>2026-04-25T12:30:34.979Z</time></trkpt><trkpt lat="43.86040775961447" lon="11.354527240721408"><ele>490.0</ele><time>2026-04-25T12:30:35.979Z</time></trkpt><trkpt lat="43.8603298631391" lon="11.354728550351583"><ele>490.0</ele><time>2026-04-25T12:30:36.979Z</time></trkpt><trkpt lat="43.86024409510415" lon="11.35493304853609"><ele>489.0</ele><time>2026-04-25T12:30:37.979Z</time></trkpt><trkpt lat="43.86016052358976" lon="11.355138624150198"><ele>488.0</ele><time>2026-04-25T12:30:38.979Z</time></trkpt><trkpt lat="43.86007286975784" lon="11.355338548049366"><ele>487.0</ele><time>2026-04-25T12:30:39.979Z</time></trkpt><trkpt lat="43.8599828726945" lon="11.355542036736278"><ele>482.0</ele><time>2026-04-25T12:30:40.979Z</time></trkpt><trkpt lat="43.85990329286555" lon="11.355751417865857"><ele>477.0</ele><time>2026-04-25T12:30:41.979Z</time></trkpt><trkpt lat="43.859809356916024" lon="11.355935627804024"><ele>472.0</ele><time>2026-04-25T12:30:42.979Z</time></trkpt><trkpt lat="43.85972722433581" lon="11.356132027248103"><ele>472.0</ele><time>2026-04-25T12:30:43.979Z</time></trkpt><trkpt lat="43.85965022647171" lon="11.356335968072178"><ele>472.0</ele><time>2026-04-25T12:30:44.979Z</time></trkpt><trkpt lat="43.85957263668999" lon="11.356516966196693"><ele>472.0</ele><time>2026-04-25T12:30:45.979Z</time></trkpt><trkpt lat="43.85947426843475" lon="11.356675629046364"><ele>472.6666666666667</ele><time>2026-04-25T12:30:46.979Z</time></trkpt><trkpt lat="43.85936589798972" lon="11.356826496177671"><ele>473.33333333333337</ele><time>2026-04-25T12:30:47.979Z</time></trkpt><trkpt lat="43.85924921067848" lon="11.356956352713075"><ele>474.0</ele><time>2026-04-25T12:30:48.979Z</time></trkpt><trkpt lat="43.859121268895585" lon="11.357089377629986"><ele>470.75</ele><time>2026-04-25T12:30:49.979Z</time></trkpt><trkpt lat="43.858993162681344" lon="11.35721725793819"><ele>467.5</ele><time>2026-04-25T12:30:50.979Z</time></trkpt><trkpt lat="43.858876606053755" lon="11.357332594521132"><ele>464.25</ele><time>2026-04-25T12:30:51.979Z</time></trkpt><trkpt lat="43.858761305938486" lon="11.357458727585708"><ele>461.0</ele><time>2026-04-25T12:30:52.979Z</time></trkpt><trkpt lat="43.85865649965385" lon="11.35760227576917"><ele>461.0</ele><time>2026-04-25T12:30:53.979Z</time></trkpt><trkpt lat="43.85855136639008" lon="11.3577595176435"><ele>461.0</ele><time>2026-04-25T12:30:54.979Z</time></trkpt><trkpt lat="43.858473617313244" lon="11.357936336535671"><ele>461.0</ele><time>2026-04-25T12:30:55.979Z</time></trkpt><trkpt lat="43.85840766243584" lon="11.358114124904496"><ele>461.0</ele><time>2026-04-25T12:30:56.979Z</time></trkpt><trkpt lat="43.85834255923856" lon="11.358280609273828"><ele>455.75</ele><time>2026-04-25T12:30:57.979Z</time></trkpt><trkpt lat="43.85828748692361" lon="11.35844200378462"><ele>450.5</ele><time>2026-04-25T12:30:58.979Z</time></trkpt><trkpt lat="43.85824376443875" lon="11.358595689419245"><ele>445.25</ele><time>2026-04-25T12:30:59.979Z</time></trkpt><trkpt lat="43.85821432999473" lon="11.35877054938833"><ele>440.0</ele><time>2026-04-25T12:31:00.979Z</time></trkpt><trkpt lat="43.85820350897351" lon="11.358951099887374"><ele>439.25</ele><time>2026-04-25T12:31:01.979Z</time></trkpt><trkpt lat="43.85821007593971" lon="11.35914874554013"><ele>438.5</ele><time>2026-04-25T12:31:02.979Z</time></trkpt><trkpt lat="43.85822316722631" lon="11.359338572984491"><ele>437.75</ele><time>2026-04-25T12:31:03.979Z</time></trkpt><trkpt lat="43.85822635427466" lon="11.359525909489609"><ele>437.0</ele><time>2026-04-25T12:31:04.979Z</time></trkpt><trkpt lat="43.85821482390401" lon="11.359699123149715"><ele>436.75</ele><time>2026-04-25T12:31:05.979Z</time></trkpt><trkpt lat="43.85818601890122" lon="11.359875132880212"><ele>436.5</ele><time>2026-04-25T12:31:06.979Z</time></trkpt><trkpt lat="43.858121597843585" lon="11.360053886612567"><ele>436.25</ele><time>2026-04-25T12:31:07.979Z</time></trkpt><trkpt lat="43.858046881124096" lon="11.360241648924902"><ele>436.0</ele><time>2026-04-25T12:31:08.979Z</time></trkpt><trkpt lat="43.85797668819848" lon="11.360440801973"><ele>439.33333333333337</ele><time>2026-04-25T12:31:09.979Z</time></trkpt><trkpt lat="43.85789805631587" lon="11.360628932336214"><ele>442.66666666666663</ele><time>2026-04-25T12:31:10.979Z</time></trkpt><trkpt lat="43.85783111899866" lon="11.360833314557485"><ele>446.0</ele><time>2026-04-25T12:31:11.979Z</time></trkpt><trkpt lat="43.85774739338926" lon="11.361023164018972"><ele>446.0</ele><time>2026-04-25T12:31:12.979Z</time></trkpt><trkpt lat="43.85767816137999" lon="11.361213285287517"><ele>446.0</ele><time>2026-04-25T12:31:13.979Z</time></trkpt><trkpt lat="43.85760918147909" lon="11.361406005701815"><ele>446.0</ele><time>2026-04-25T12:31:14.979Z</time></trkpt><trkpt lat="43.857540601189726" lon="11.361595893301086"><ele>437.0</ele><time>2026-04-25T12:31:15.979Z</time></trkpt><trkpt lat="43.85748067707189" lon="11.361793776282829"><ele>428.0</ele><time>2026-04-25T12:31:16.979Z</time></trkpt><trkpt lat="43.85739979249577" lon="11.361982064098147"><ele>419.0</ele><time>2026-04-25T12:31:17.979Z</time></trkpt><trkpt lat="43.85732429676832" lon="11.362163444038469"><ele>418.0</ele><time>2026-04-25T12:31:18.979Z</time></trkpt><trkpt lat="43.857248428018195" lon="11.362340648750413"><ele>417.0</ele><time>2026-04-25T12:31:19.979Z</time></trkpt><trkpt lat="43.85716867018075" lon="11.362509614153367"><ele>416.0</ele><time>2026-04-25T12:31:20.979Z</time></trkpt><trkpt lat="43.857089500393926" lon="11.36268335371196"><ele>415.0</ele><time>2026-04-25T12:31:21.979Z</time></trkpt><trkpt lat="43.856999752091106" lon="11.362858318581292"><ele>415.0</ele><time>2026-04-25T12:31:22.979Z</time></trkpt><trkpt lat="43.85691224928722" lon="11.363027617226152"><ele>415.0</ele><time>2026-04-25T12:31:23.979Z</time></trkpt><trkpt lat="43.85681670832453" lon="11.363197287960213"><ele>415.0</ele><time>2026-04-25T12:31:24.979Z</time></trkpt><trkpt lat="43.85673349529455" lon="11.36336532806441"><ele>411.33333333333337</ele><time>2026-04-25T12:31:25.979Z</time></trkpt><trkpt lat="43.856640890593" lon="11.363543438935624"><ele>407.66666666666663</ele><time>2026-04-25T12:31:26.979Z</time></trkpt><trkpt lat="43.85655905045608" lon="11.363712519109795"><ele>404.0</ele><time>2026-04-25T12:31:27.979Z</time></trkpt><trkpt lat="43.85647566181638" lon="11.363885481630106"><ele>404.0</ele><time>2026-04-25T12:31:28.979Z</time></trkpt><trkpt lat="43.85639381198188" lon="11.364050412837049"><ele>404.0</ele><time>2026-04-25T12:31:29.979Z</time></trkpt><trkpt lat="43.85630697175693" lon="11.364218426612169"><ele>404.0</ele><time>2026-04-25T12:31:30.979Z</time></trkpt><trkpt lat="43.856221813059975" lon="11.364391005277133"><ele>404.0</ele><time>2026-04-25T12:31:31.979Z</time></trkpt><trkpt lat="43.85613298397596" lon="11.364560309983633"><ele>404.0</ele><time>2026-04-25T12:31:32.979Z</time></trkpt><trkpt lat="43.85606370790696" lon="11.364717059341599"><ele>404.0</ele><time>2026-04-25T12:31:33.979Z</time></trkpt><trkpt lat="43.85600889127611" lon="11.364866815620942"><ele>404.0</ele><time>2026-04-25T12:31:34.979Z</time></trkpt><trkpt lat="43.85597387612192" lon="11.365005124061327"><ele>404.0</ele><time>2026-04-25T12:31:35.979Z</time></trkpt><trkpt lat="43.855969645060476" lon="11.365160952814533"><ele>404.0</ele><time>2026-04-25T12:31:36.979Z</time></trkpt><trkpt lat="43.85598436238356" lon="11.365332564979802"><ele>404.0</ele><time>2026-04-25T12:31:37.979Z</time></trkpt><trkpt lat="43.85601965611502" lon="11.365492575239992"><ele>404.0</ele><time>2026-04-25T12:31:38.979Z</time></trkpt><trkpt lat="43.85606942191313" lon="11.365662847258978"><ele>404.0</ele><time>2026-04-25T12:31:39.979Z</time></trkpt><trkpt lat="43.856114683246986" lon="11.365859649651888"><ele>402.0</ele><time>2026-04-25T12:31:40.979Z</time></trkpt><trkpt lat="43.85615828621889" lon="11.366044140876836"><ele>400.0</ele><time>2026-04-25T12:31:41.979Z</time></trkpt><trkpt lat="43.85619962560523" lon="11.366200609123922"><ele>398.0</ele><time>2026-04-25T12:31:42.979Z</time></trkpt><trkpt lat="43.856249078183986" lon="11.366376427701187"><ele>396.0</ele><time>2026-04-25T12:31:43.98Z</time></trkpt><trkpt lat="43.856274817452025" lon="11.366536470169976"><ele>395.75</ele><time>2026-04-25T12:31:44.979Z</time></trkpt><trkpt lat="43.85629155862375" lon="11.36667626298581"><ele>395.5</ele><time>2026-04-25T12:31:45.979Z</time></trkpt><trkpt lat="43.85628937239821" lon="11.366829607029507"><ele>395.25</ele><time>2026-04-25T12:31:46.979Z</time></trkpt><trkpt lat="43.85625325016385" lon="11.366999837216781"><ele>395.0</ele><time>2026-04-25T12:31:47.98Z</time></trkpt><trkpt lat="43.85618044697859" lon="11.367137738588651"><ele>397.3333333333333</ele><time>2026-04-25T12:31:48.98Z</time></trkpt><trkpt lat="43.85608003309805" lon="11.367269943086985"><ele>399.66666666666663</ele><time>2026-04-25T12:31:49.979Z</time></trkpt><trkpt lat="43.855950720193974" lon="11.367375671389908"><ele>402.0</ele><time>2026-04-25T12:31:50.98Z</time></trkpt><trkpt lat="43.855814114513954" lon="11.367497000929953"><ele>392.6666666666667</ele><time>2026-04-25T12:31:51.98Z</time></trkpt><trkpt lat="43.855675230829966" lon="11.367612422920057"><ele>383.33333333333337</ele><time>2026-04-25T12:31:52.98Z</time></trkpt><trkpt lat="43.85554423289754" lon="11.367728066744627"><ele>374.0</ele><time>2026-04-25T12:31:53.979Z</time></trkpt><trkpt lat="43.855413267612114" lon="11.367825601721771"><ele>374.0</ele><time>2026-04-25T12:31:54.979Z</time></trkpt><trkpt lat="43.855283990324125" lon="11.367913635638883"><ele>374.0</ele><time>2026-04-25T12:31:55.98Z</time></trkpt><trkpt lat="43.85514752305994" lon="11.36798864539993"><ele>374.0</ele><time>2026-04-25T12:31:56.979Z</time></trkpt><trkpt lat="43.85500750609765" lon="11.368047434011256"><ele>374.0</ele><time>2026-04-25T12:31:57.979Z</time></trkpt><trkpt lat="43.8548632729104" lon="11.368104548384267"><ele>371.0</ele><time>2026-04-25T12:31:58.979Z</time></trkpt><trkpt lat="43.85472741417912" lon="11.368158962093275"><ele>368.0</ele><time>2026-04-25T12:31:59.979Z</time></trkpt><trkpt lat="43.85458779733761" lon="11.368209996369579"><ele>365.0</ele><time>2026-04-25T12:32:00.979Z</time></trkpt><trkpt lat="43.854452757180404" lon="11.368247512973522"><ele>362.0</ele><time>2026-04-25T12:32:01.979Z</time></trkpt><trkpt lat="43.8543196532155" lon="11.368264318594948"><ele>358.5</ele><time>2026-04-25T12:32:02.979Z</time></trkpt><trkpt lat="43.85418056074983" lon="11.36825819440399"><ele>355.0</ele><time>2026-04-25T12:32:03.979Z</time></trkpt><trkpt lat="43.85404902960548" lon="11.368182043772421"><ele>351.5</ele><time>2026-04-25T12:32:04.979Z</time></trkpt><trkpt lat="43.853914368131065" lon="11.368102803454143"><ele>348.0</ele><time>2026-04-25T12:32:05.979Z</time></trkpt><trkpt lat="43.853766116327485" lon="11.368015165914311"><ele>347.6666666666667</ele><time>2026-04-25T12:32:06.979Z</time></trkpt><trkpt lat="43.853610511189274" lon="11.367923181547464"><ele>347.33333333333337</ele><time>2026-04-25T12:32:07.979Z</time></trkpt><trkpt lat="43.853458613539786" lon="11.367833309326468"><ele>347.0</ele><time>2026-04-25T12:32:08.979Z</time></trkpt><trkpt lat="43.853305651805556" lon="11.367742734831856"><ele>344.33333333333337</ele><time>2026-04-25T12:32:09.979Z</time></trkpt><trkpt lat="43.85315173103898" lon="11.367651653630622"><ele>341.6666666666667</ele><time>2026-04-25T12:32:10.979Z</time></trkpt><trkpt lat="43.853004638570845" lon="11.367564673386896"><ele>339.0</ele><time>2026-04-25T12:32:11.979Z</time></trkpt><trkpt lat="43.85285174286001" lon="11.367474670556696"><ele>339.0</ele><time>2026-04-25T12:32:12.979Z</time></trkpt><trkpt lat="43.852700306693364" lon="11.367385706138213"><ele>339.0</ele><time>2026-04-25T12:32:13.979Z</time></trkpt><trkpt lat="43.8525465062929" lon="11.367317788633454"><ele>339.0</ele><time>2026-04-25T12:32:14.979Z</time></trkpt><trkpt lat="43.852405646122605" lon="11.367221535989053"><ele>338.75</ele><time>2026-04-25T12:32:15.979Z</time></trkpt><trkpt lat="43.85227277957225" lon="11.367147312433561"><ele>338.5</ele><time>2026-04-25T12:32:16.979Z</time></trkpt><trkpt lat="43.852155450413065" lon="11.367086485307919"><ele>338.25</ele><time>2026-04-25T12:32:17.979Z</time></trkpt><trkpt lat="43.85204587984549" lon="11.367049216573067"><ele>338.0</ele><time>2026-04-25T12:32:18.979Z</time></trkpt><trkpt lat="43.85192599915784" lon="11.367040542880346"><ele>338.0</ele><time>2026-04-25T12:32:19.979Z</time></trkpt><trkpt lat="43.851809484661416" lon="11.36707104210646"><ele>338.0</ele><time>2026-04-25T12:32:20.979Z</time></trkpt><trkpt lat="43.85170426211298" lon="11.3671329286054"><ele>338.0</ele><time>2026-04-25T12:32:21.979Z</time></trkpt><trkpt lat="43.85161467741893" lon="11.367229022894808"><ele>338.0</ele><time>2026-04-25T12:32:22.979Z</time></trkpt><trkpt lat="43.85153445203037" lon="11.36736484506267"><ele>333.25</ele><time>2026-04-25T12:32:23.979Z</time></trkpt><trkpt lat="43.85147421311427" lon="11.367531115495595"><ele>328.5</ele><time>2026-04-25T12:32:24.979Z</time></trkpt><trkpt lat="43.851421348896636" lon="11.367701680647386"><ele>323.75</ele><time>2026-04-25T12:32:25.979Z</time></trkpt><trkpt lat="43.85136482010294" lon="11.367871039958848"><ele>319.0</ele><time>2026-04-25T12:32:26.979Z</time></trkpt><trkpt lat="43.85130334198783" lon="11.368036428126763"><ele>318.25</ele><time>2026-04-25T12:32:27.979Z</time></trkpt><trkpt lat="43.851241734430495" lon="11.368201334431673"><ele>317.5</ele><time>2026-04-25T12:32:28.979Z</time></trkpt><trkpt lat="43.85118388772083" lon="11.368368933724136"><ele>316.75</ele><time>2026-04-25T12:32:29.979Z</time></trkpt><trkpt lat="43.851124036241735" lon="11.368523233078848"><ele>316.0</ele><time>2026-04-25T12:32:30.979Z</time></trkpt><trkpt lat="43.8510548426014" lon="11.36866132987879"><ele>316.0</ele><time>2026-04-25T12:32:31.979Z</time></trkpt><trkpt lat="43.850971821999025" lon="11.368792090989942"><ele>316.0</ele><time>2026-04-25T12:32:32.979Z</time></trkpt><trkpt lat="43.8508786227809" lon="11.36889844994466"><ele>316.0</ele><time>2026-04-25T12:32:33.979Z</time></trkpt><trkpt lat="43.850770920440816" lon="11.368984207465585"><ele>316.0</ele><time>2026-04-25T12:32:34.979Z</time></trkpt><trkpt lat="43.850641175915484" lon="11.36904568721909"><ele>314.5</ele><time>2026-04-25T12:32:35.979Z</time></trkpt><trkpt lat="43.85049879885646" lon="11.369105809505747"><ele>313.0</ele><time>2026-04-25T12:32:36.979Z</time></trkpt><trkpt lat="43.85035316758859" lon="11.369165894751049"><ele>311.5</ele><time>2026-04-25T12:32:37.979Z</time></trkpt><trkpt lat="43.850214868737304" lon="11.369219181367406"><ele>310.0</ele><time>2026-04-25T12:32:38.979Z</time></trkpt><trkpt lat="43.85007717022757" lon="11.369269033795288"><ele>307.75</ele><time>2026-04-25T12:32:39.979Z</time></trkpt><trkpt lat="43.84994636684328" lon="11.369322876472406"><ele>305.5</ele><time>2026-04-25T12:32:40.98Z</time></trkpt><trkpt lat="43.84980637861651" lon="11.369374811071433"><ele>303.25</ele><time>2026-04-25T12:32:41.98Z</time></trkpt><trkpt lat="43.849666229413366" lon="11.369429695147256"><ele>301.0</ele><time>2026-04-25T12:32:42.98Z</time></trkpt><trkpt lat="43.84952761831109" lon="11.369480684230927"><ele>301.0</ele><time>2026-04-25T12:32:43.98Z</time></trkpt><trkpt lat="43.849393192119635" lon="11.369530597945818"><ele>301.0</ele><time>2026-04-25T12:32:44.98Z</time></trkpt><trkpt lat="43.849261061950514" lon="11.369578619173488"><ele>301.0</ele><time>2026-04-25T12:32:45.98Z</time></trkpt><trkpt lat="43.8491298129287" lon="11.36962286986539"><ele>301.0</ele><time>2026-04-25T12:32:46.98Z</time></trkpt><trkpt lat="43.84900164102534" lon="11.369673402987816"><ele>300.0</ele><time>2026-04-25T12:32:47.98Z</time></trkpt><trkpt lat="43.84888395408926" lon="11.369746275269016"><ele>299.0</ele><time>2026-04-25T12:32:48.98Z</time></trkpt><trkpt lat="43.84877212351148" lon="11.369826271328309"><ele>298.0</ele><time>2026-04-25T12:32:49.98Z</time></trkpt><trkpt lat="43.84867468534055" lon="11.369936940734268"><ele>297.0</ele><time>2026-04-25T12:32:50.98Z</time></trkpt><trkpt lat="43.8485744441288" lon="11.370074642637615"><ele>297.0</ele><time>2026-04-25T12:32:51.98Z</time></trkpt><trkpt lat="43.84847512691753" lon="11.370222655823488"><ele>297.0</ele><time>2026-04-25T12:32:52.98Z</time></trkpt><trkpt lat="43.84838297565165" lon="11.37034955530752"><ele>297.0</ele><time>2026-04-25T12:32:53.98Z</time></trkpt><trkpt lat="43.848297828423604" lon="11.370484667441389"><ele>297.0</ele><time>2026-04-25T12:32:54.98Z</time></trkpt><trkpt lat="43.84821606475481" lon="11.370643265618437"><ele>294.5</ele><time>2026-04-25T12:32:55.98Z</time></trkpt><trkpt lat="43.84813342915436" lon="11.370782288785056"><ele>292.0</ele><time>2026-04-25T12:32:56.98Z</time></trkpt><trkpt lat="43.848089692582604" lon="11.370938444095202"><ele>289.5</ele><time>2026-04-25T12:32:57.98Z</time></trkpt><trkpt lat="43.84806179982445" lon="11.371106672779298"><ele>287.0</ele><time>2026-04-25T12:32:58.98Z</time></trkpt><trkpt lat="43.84805204528285" lon="11.371301232349502"><ele>285.25</ele><time>2026-04-25T12:32:59.98Z</time></trkpt><trkpt lat="43.8480557613658" lon="11.371512786607957"><ele>283.5</ele><time>2026-04-25T12:33:00.98Z</time></trkpt><trkpt lat="43.84804353731391" lon="11.371704219146292"><ele>281.75</ele><time>2026-04-25T12:33:01.98Z</time></trkpt><trkpt lat="43.848019100392335" lon="11.371901417664635"><ele>280.0</ele><time>2026-04-25T12:33:02.98Z</time></trkpt><trkpt lat="43.84801172280538" lon="11.372086649858964"><ele>277.75</ele><time>2026-04-25T12:33:03.98Z</time></trkpt><trkpt lat="43.84800439679305" lon="11.372270587098935"><ele>275.5</ele><time>2026-04-25T12:33:04.98Z</time></trkpt><trkpt lat="43.84799764231085" lon="11.372440174813178"><ele>273.25</ele><time>2026-04-25T12:33:05.98Z</time></trkpt><trkpt lat="43.847994511562455" lon="11.372620688587615"><ele>271.0</ele><time>2026-04-25T12:33:06.98Z</time></trkpt><trkpt lat="43.84801021721237" lon="11.372799282666971"><ele>271.0</ele><time>2026-04-25T12:33:07.98Z</time></trkpt><trkpt lat="43.84805139952337" lon="11.372972452674418"><ele>271.0</ele><time>2026-04-25T12:33:08.98Z</time></trkpt><trkpt lat="43.84810390517974" lon="11.373153657937666"><ele>271.0</ele><time>2026-04-25T12:33:09.98Z</time></trkpt><trkpt lat="43.84815477200536" lon="11.37331895897206"><ele>271.0</ele><time>2026-04-25T12:33:10.98Z</time></trkpt><trkpt lat="43.848195628994446" lon="11.37345579905007"><ele>269.6</ele><time>2026-04-25T12:33:11.98Z</time></trkpt><trkpt lat="43.848223492789145" lon="11.373580000158801"><ele>268.20000000000005</ele><time>2026-04-25T12:33:12.98Z</time></trkpt><trkpt lat="43.84823637611249" lon="11.373697331074162"><ele>266.79999999999995</ele><time>2026-04-25T12:33:13.98Z</time></trkpt><trkpt lat="43.84821626238622" lon="11.373820666930271"><ele>265.4</ele><time>2026-04-25T12:33:14.98Z</time></trkpt><trkpt lat="43.84817209614492" lon="11.373952394580748"><ele>264.0</ele><time>2026-04-25T12:33:15.98Z</time></trkpt><trkpt lat="43.84807858319278" lon="11.37403989816805"><ele>263.5</ele><time>2026-04-25T12:33:16.98Z</time></trkpt><trkpt lat="43.84796670523366" lon="11.374064850715845"><ele>263.0</ele><time>2026-04-25T12:33:17.98Z</time></trkpt><trkpt lat="43.84784907669959" lon="11.37405486970914"><ele>262.5</ele><time>2026-04-25T12:33:18.98Z</time></trkpt><trkpt lat="43.84771945010587" lon="11.374060187505666"><ele>262.0</ele><time>2026-04-25T12:33:19.98Z</time></trkpt><trkpt lat="43.847599243057964" lon="11.374046279751264"><ele>261.0</ele><time>2026-04-25T12:33:20.98Z</time></trkpt><trkpt lat="43.84747752913621" lon="11.374038278260352"><ele>260.0</ele><time>2026-04-25T12:33:21.98Z</time></trkpt><trkpt lat="43.8473486404629" lon="11.374019950076761"><ele>259.0</ele><time>2026-04-25T12:33:22.98Z</time></trkpt><trkpt lat="43.84722902003418" lon="11.374000149611447"><ele>258.0</ele><time>2026-04-25T12:33:23.98Z</time></trkpt><trkpt lat="43.84710253064428" lon="11.37397619058842"><ele>258.0</ele><time>2026-04-25T12:33:24.98Z</time></trkpt><trkpt lat="43.846977700858815" lon="11.373927045944946"><ele>258.0</ele><time>2026-04-25T12:33:25.98Z</time></trkpt><trkpt lat="43.84685730751604" lon="11.373838326743291"><ele>258.0</ele><time>2026-04-25T12:33:26.98Z</time></trkpt><trkpt lat="43.84674785525193" lon="11.373722331778707"><ele>258.0</ele><time>2026-04-25T12:33:27.98Z</time></trkpt><trkpt lat="43.846655892543666" lon="11.373595111055565"><ele>257.5</ele><time>2026-04-25T12:33:28.98Z</time></trkpt><trkpt lat="43.84658021078114" lon="11.373470044874017"><ele>257.0</ele><time>2026-04-25T12:33:29.98Z</time></trkpt><trkpt lat="43.8464836034355" lon="11.37339342795147"><ele>256.5</ele><time>2026-04-25T12:33:30.98Z</time></trkpt><trkpt lat="43.846366578227496" lon="11.373386666582055"><ele>256.0</ele><time>2026-04-25T12:33:31.98Z</time></trkpt><trkpt lat="43.846244702207905" lon="11.373379576211224"><ele>256.0</ele><time>2026-04-25T12:33:32.98Z</time></trkpt><trkpt lat="43.84611369680614" lon="11.373403771282694"><ele>256.0</ele><time>2026-04-25T12:33:33.98Z</time></trkpt><trkpt lat="43.84598373287638" lon="11.373450019334559"><ele>256.0</ele><time>2026-04-25T12:33:34.98Z</time></trkpt><trkpt lat="43.84584479633211" lon="11.373510725780351"><ele>256.0</ele><time>2026-04-25T12:33:35.98Z</time></trkpt><trkpt lat="43.84571349868542" lon="11.373616591928727"><ele>252.33333333333331</ele><time>2026-04-25T12:33:36.98Z</time></trkpt><trkpt lat="43.8455914626642" lon="11.373746211825692"><ele>248.66666666666669</ele><time>2026-04-25T12:33:37.98Z</time></trkpt><trkpt lat="43.845462740912765" lon="11.373854388468438"><ele>245.0</ele><time>2026-04-25T12:33:38.98Z</time></trkpt><trkpt lat="43.84533401798881" lon="11.373962770864567"><ele>243.33333333333334</ele><time>2026-04-25T12:33:39.98Z</time></trkpt><trkpt lat="43.84518941231513" lon="11.374050050631588"><ele>241.66666666666669</ele><time>2026-04-25T12:33:40.98Z</time></trkpt><trkpt lat="43.84503050173406" lon="11.374121029198314"><ele>240.0</ele><time>2026-04-25T12:33:41.98Z</time></trkpt><trkpt lat="43.84487103916355" lon="11.374169655695363"><ele>235.66666666666669</ele><time>2026-04-25T12:33:42.98Z</time></trkpt><trkpt lat="43.84470986233514" lon="11.374220234449721"><ele>231.33333333333334</ele><time>2026-04-25T12:33:43.98Z</time></trkpt><trkpt lat="43.84455076936784" lon="11.374270258575349"><ele>227.0</ele><time>2026-04-25T12:33:44.98Z</time></trkpt><trkpt lat="43.84440092664669" lon="11.374321449622169"><ele>223.66666666666669</ele><time>2026-04-25T12:33:45.98Z</time></trkpt><trkpt lat="43.84424687759671" lon="11.374376514841845"><ele>220.33333333333331</ele><time>2026-04-25T12:33:46.98Z</time></trkpt><trkpt lat="43.844089830397785" lon="11.374426464505182"><ele>217.0</ele><time>2026-04-25T12:33:47.98Z</time></trkpt><trkpt lat="43.84393642648409" lon="11.37445554464025"><ele>217.0</ele><time>2026-04-25T12:33:48.98Z</time></trkpt><trkpt lat="43.84377965630698" lon="11.37451480523927"><ele>217.0</ele><time>2026-04-25T12:33:49.98Z</time></trkpt><trkpt lat="43.8436262488033" lon="11.374562087016027"><ele>217.0</ele><time>2026-04-25T12:33:50.98Z</time></trkpt><trkpt lat="43.843474367674816" lon="11.37460826184709"><ele>215.33333333333331</ele><time>2026-04-25T12:33:51.98Z</time></trkpt><trkpt lat="43.84332379847037" lon="11.374654330086116"><ele>213.66666666666669</ele><time>2026-04-25T12:33:52.981Z</time></trkpt><trkpt lat="43.84317523592805" lon="11.374705821496248"><ele>212.0</ele><time>2026-04-25T12:33:53.981Z</time></trkpt><trkpt lat="43.84302407707581" lon="11.374764713095209"><ele>212.0</ele><time>2026-04-25T12:33:54.981Z</time></trkpt><trkpt lat="43.84286923016472" lon="11.374813431255472"><ele>212.0</ele><time>2026-04-25T12:33:55.98Z</time></trkpt><trkpt lat="43.84271714524233" lon="11.374860343637597"><ele>212.0</ele><time>2026-04-25T12:33:56.98Z</time></trkpt><trkpt lat="43.84256250553448" lon="11.374917018656111"><ele>207.66666666666669</ele><time>2026-04-25T12:33:57.98Z</time></trkpt><trkpt lat="43.84241061210803" lon="11.374974286759155"><ele>203.33333333333331</ele><time>2026-04-25T12:33:58.981Z</time></trkpt><trkpt lat="43.84226449900299" lon="11.375059301807745"><ele>199.0</ele><time>2026-04-25T12:33:59.981Z</time></trkpt><trkpt lat="43.84211962153499" lon="11.375163970574404"><ele>199.0</ele><time>2026-04-25T12:34:00.981Z</time></trkpt><trkpt lat="43.84198813475122" lon="11.375285187453521"><ele>199.0</ele><time>2026-04-25T12:34:01.98Z</time></trkpt><trkpt lat="43.841861019617966" lon="11.375415393935402"><ele>199.0</ele><time>2026-04-25T12:34:02.98Z</time></trkpt><trkpt lat="43.8417419112418" lon="11.375552859953526"><ele>195.66666666666666</ele><time>2026-04-25T12:34:03.98Z</time></trkpt><trkpt lat="43.84162257694305" lon="11.375687515105199"><ele>192.33333333333331</ele><time>2026-04-25T12:34:04.98Z</time></trkpt><trkpt lat="43.8414965583725" lon="11.375837131576944"><ele>189.0</ele><time>2026-04-25T12:34:05.98Z</time></trkpt><trkpt lat="43.84137872407938" lon="11.376006907687463"><ele>189.0</ele><time>2026-04-25T12:34:06.98Z</time></trkpt><trkpt lat="43.841251900092345" lon="11.376180173057564"><ele>189.0</ele><time>2026-04-25T12:34:07.98Z</time></trkpt><trkpt lat="43.841124666213325" lon="11.376358728160056"><ele>189.0</ele><time>2026-04-25T12:34:08.98Z</time></trkpt><trkpt lat="43.841002814375656" lon="11.376552639915694"><ele>186.66666666666666</ele><time>2026-04-25T12:34:09.98Z</time></trkpt><trkpt lat="43.84088945398043" lon="11.376740676713835"><ele>184.33333333333331</ele><time>2026-04-25T12:34:10.98Z</time></trkpt><trkpt lat="43.84077400003716" lon="11.376917233920123"><ele>182.0</ele><time>2026-04-25T12:34:11.98Z</time></trkpt><trkpt lat="43.84066090058126" lon="11.377097917263029"><ele>181.33333333333331</ele><time>2026-04-25T12:34:12.98Z</time></trkpt><trkpt lat="43.840548354285836" lon="11.377284398579572"><ele>180.66666666666666</ele><time>2026-04-25T12:34:13.98Z</time></trkpt><trkpt lat="43.840448836992195" lon="11.37743974210428"><ele>180.0</ele><time>2026-04-25T12:34:14.98Z</time></trkpt><trkpt lat="43.840339077267764" lon="11.377571179026194"><ele>180.0</ele><time>2026-04-25T12:34:15.98Z</time></trkpt><trkpt lat="43.84023762486911" lon="11.377679181560652"><ele>180.0</ele><time>2026-04-25T12:34:16.98Z</time></trkpt><trkpt lat="43.84010120553369" lon="11.377760953312931"><ele>180.0</ele><time>2026-04-25T12:34:17.98Z</time></trkpt><trkpt lat="43.83995343269436" lon="11.377804444101372"><ele>180.0</ele><time>2026-04-25T12:34:18.98Z</time></trkpt><trkpt lat="43.839796917908316" lon="11.377839338097418"><ele>178.33333333333334</ele><time>2026-04-25T12:34:19.98Z</time></trkpt><trkpt lat="43.83964316607871" lon="11.37786135636784"><ele>176.66666666666669</ele><time>2026-04-25T12:34:20.98Z</time></trkpt><trkpt lat="43.839496051661385" lon="11.377924700025936"><ele>175.0</ele><time>2026-04-25T12:34:21.98Z</time></trkpt><trkpt lat="43.83935926624382" lon="11.378041996104447"><ele>174.0</ele><time>2026-04-25T12:34:22.98Z</time></trkpt><trkpt lat="43.839213027185366" lon="11.378156682490301"><ele>173.0</ele><time>2026-04-25T12:34:23.98Z</time></trkpt><trkpt lat="43.8390751394251" lon="11.378260115259748"><ele>172.0</ele><time>2026-04-25T12:34:24.98Z</time></trkpt><trkpt lat="43.838942455371374" lon="11.378382015716406"><ele>172.0</ele><time>2026-04-25T12:34:25.98Z</time></trkpt><trkpt lat="43.838818513185565" lon="11.378534440289705"><ele>172.0</ele><time>2026-04-25T12:34:26.98Z</time></trkpt><trkpt lat="43.838686476660335" lon="11.378695522691883"><ele>172.0</ele><time>2026-04-25T12:34:27.98Z</time></trkpt><trkpt lat="43.838562865461455" lon="11.378858548198885"><ele>170.33333333333334</ele><time>2026-04-25T12:34:28.98Z</time></trkpt><trkpt lat="43.83843634112425" lon="11.379028612219193"><ele>168.66666666666666</ele><time>2026-04-25T12:34:29.98Z</time></trkpt><trkpt lat="43.83831047665181" lon="11.379198737605247"><ele>167.0</ele><time>2026-04-25T12:34:30.98Z</time></trkpt><trkpt lat="43.83819604609081" lon="11.379360958527725"><ele>167.0</ele><time>2026-04-25T12:34:31.98Z</time></trkpt><trkpt lat="43.83807880734609" lon="11.37951953311622"><ele>167.0</ele><time>2026-04-25T12:34:32.98Z</time></trkpt><trkpt lat="43.83796523254553" lon="11.379656349922682"><ele>167.0</ele><time>2026-04-25T12:34:33.98Z</time></trkpt><trkpt lat="43.83782437219055" lon="11.379799673268353"><ele>168.0</ele><time>2026-04-25T12:34:34.98Z</time></trkpt><trkpt lat="43.83768497707937" lon="11.379923272999307"><ele>169.0</ele><time>2026-04-25T12:34:35.98Z</time></trkpt><trkpt lat="43.83752875712761" lon="11.380038122234879"><ele>170.0</ele><time>2026-04-25T12:34:36.98Z</time></trkpt><trkpt lat="43.837370619580646" lon="11.380150028376272"><ele>168.0</ele><time>2026-04-25T12:34:37.98Z</time></trkpt><trkpt lat="43.83720887501031" lon="11.380260786557935"><ele>166.0</ele><time>2026-04-25T12:34:38.98Z</time></trkpt><trkpt lat="43.83704790638698" lon="11.380372687720197"><ele>164.0</ele><time>2026-04-25T12:34:39.98Z</time></trkpt><trkpt lat="43.83689323171139" lon="11.380493657940873"><ele>163.66666666666666</ele><time>2026-04-25T12:34:40.98Z</time></trkpt><trkpt lat="43.83674070389834" lon="11.38060809343629"><ele>163.33333333333334</ele><time>2026-04-25T12:34:41.98Z</time></trkpt><trkpt lat="43.836587076110995" lon="11.380715886578544"><ele>163.0</ele><time>2026-04-25T12:34:42.98Z</time></trkpt><trkpt lat="43.83643457679034" lon="11.380829155965834"><ele>163.0</ele><time>2026-04-25T12:34:43.98Z</time></trkpt><trkpt lat="43.83627299020138" lon="11.380944949750115"><ele>163.0</ele><time>2026-04-25T12:34:44.98Z</time></trkpt><trkpt lat="43.83611164211479" lon="11.381057993859661"><ele>163.0</ele><time>2026-04-25T12:34:45.98Z</time></trkpt><trkpt lat="43.83595134557956" lon="11.381170959080087"><ele>163.33333333333334</ele><time>2026-04-25T12:34:46.98Z</time></trkpt><trkpt lat="43.83579381910216" lon="11.381287010478415"><ele>163.66666666666666</ele><time>2026-04-25T12:34:47.98Z</time></trkpt><trkpt lat="43.83564269990774" lon="11.381402608638957"><ele>164.0</ele><time>2026-04-25T12:34:48.98Z</time></trkpt><trkpt lat="43.83548635929852" lon="11.381489372457814"><ele>164.0</ele><time>2026-04-25T12:34:49.98Z</time></trkpt><trkpt lat="43.83533685804687" lon="11.381586683662873"><ele>164.0</ele><time>2026-04-25T12:34:50.98Z</time></trkpt><trkpt lat="43.8351759116479" lon="11.381670066891818"><ele>164.0</ele><time>2026-04-25T12:34:51.98Z</time></trkpt><trkpt lat="43.83500541153315" lon="11.381732335366207"><ele>162.0</ele><time>2026-04-25T12:34:52.98Z</time></trkpt><trkpt lat="43.83482962030156" lon="11.381786521455803"><ele>160.0</ele><time>2026-04-25T12:34:53.98Z</time></trkpt><trkpt lat="43.83464876710779" lon="11.381843618052372"><ele>158.0</ele><time>2026-04-25T12:34:54.98Z</time></trkpt><trkpt lat="43.83446699359091" lon="11.381905696218713"><ele>157.33333333333331</ele><time>2026-04-25T12:34:55.98Z</time></trkpt><trkpt lat="43.83430102067264" lon="11.381963249233415"><ele>156.66666666666666</ele><time>2026-04-25T12:34:56.981Z</time></trkpt><trkpt lat="43.83413566019116" lon="11.382023523366321"><ele>156.0</ele><time>2026-04-25T12:34:57.981Z</time></trkpt><trkpt lat="43.833970287073576" lon="11.38207284404812"><ele>156.0</ele><time>2026-04-25T12:34:58.981Z</time></trkpt><trkpt lat="43.833794847691124" lon="11.3821379846905"><ele>156.0</ele><time>2026-04-25T12:34:59.981Z</time></trkpt><trkpt lat="43.83364446233295" lon="11.38219597214077"><ele>156.0</ele><time>2026-04-25T12:35:00.981Z</time></trkpt><trkpt lat="43.83349330709668" lon="11.382247398482258"><ele>158.25</ele><time>2026-04-25T12:35:01.981Z</time></trkpt><trkpt lat="43.833346496728936" lon="11.382299945179062"><ele>160.5</ele><time>2026-04-25T12:35:02.981Z</time></trkpt><trkpt lat="43.83320004128641" lon="11.382318507748925"><ele>162.75</ele><time>2026-04-25T12:35:03.981Z</time></trkpt><trkpt lat="43.83305645077431" lon="11.382302694263581"><ele>165.0</ele><time>2026-04-25T12:35:04.981Z</time></trkpt><trkpt lat="43.832916940013966" lon="11.382232148439565"><ele>162.0</ele><time>2026-04-25T12:35:05.981Z</time></trkpt><trkpt lat="43.83277481354853" lon="11.382169171587533"><ele>159.0</ele><time>2026-04-25T12:35:06.981Z</time></trkpt><trkpt lat="43.832634297150506" lon="11.382103958425576"><ele>156.0</ele><time>2026-04-25T12:35:07.981Z</time></trkpt><trkpt lat="43.83249422022627" lon="11.382042665597474"><ele>153.0</ele><time>2026-04-25T12:35:08.981Z</time></trkpt><trkpt lat="43.83236388346444" lon="11.381986980880418"><ele>152.33333333333334</ele><time>2026-04-25T12:35:09.981Z</time></trkpt><trkpt lat="43.8322256949985" lon="11.381950295755006"><ele>151.66666666666669</ele><time>2026-04-25T12:35:10.981Z</time></trkpt><trkpt lat="43.83207286079845" lon="11.381956445433392"><ele>151.0</ele><time>2026-04-25T12:35:11.981Z</time></trkpt><trkpt lat="43.83192328642905" lon="11.38202481744527"><ele>150.33333333333334</ele><time>2026-04-25T12:35:12.981Z</time></trkpt><trkpt lat="43.831767933138856" lon="11.382079891745422"><ele>149.66666666666666</ele><time>2026-04-25T12:35:13.981Z</time></trkpt><trkpt lat="43.83160203597463" lon="11.382118920043103"><ele>149.0</ele><time>2026-04-25T12:35:14.981Z</time></trkpt><trkpt lat="43.83142423514929" lon="11.382183485022429"><ele>149.0</ele><time>2026-04-25T12:35:15.981Z</time></trkpt><trkpt lat="43.83123488566082" lon="11.382252765438123"><ele>149.0</ele><time>2026-04-25T12:35:16.981Z</time></trkpt><trkpt lat="43.83104878037888" lon="11.382319950748087"><ele>149.0</ele><time>2026-04-25T12:35:17.981Z</time></trkpt><trkpt lat="43.83087022725718" lon="11.382382365399993"><ele>149.0</ele><time>2026-04-25T12:35:18.981Z</time></trkpt><trkpt lat="43.8306942435344" lon="11.382443881955592"><ele>149.0</ele><time>2026-04-25T12:35:19.981Z</time></trkpt><trkpt lat="43.83052043606157" lon="11.382504637752715"><ele>149.0</ele><time>2026-04-25T12:35:20.981Z</time></trkpt><trkpt lat="43.830346227148546" lon="11.382565707174768"><ele>149.0</ele><time>2026-04-25T12:35:21.981Z</time></trkpt><trkpt lat="43.83018140708072" lon="11.382623636905171"><ele>149.0</ele><time>2026-04-25T12:35:22.981Z</time></trkpt><trkpt lat="43.83001853923965" lon="11.382681369578394"><ele>149.0</ele><time>2026-04-25T12:35:23.981Z</time></trkpt><trkpt lat="43.829862787956245" lon="11.382740488982753"><ele>148.0</ele><time>2026-04-25T12:35:24.981Z</time></trkpt><trkpt lat="43.829703771255886" lon="11.38280111629371"><ele>147.0</ele><time>2026-04-25T12:35:25.981Z</time></trkpt><trkpt lat="43.829544753678434" lon="11.382869504927001"><ele>146.0</ele><time>2026-04-25T12:35:26.981Z</time></trkpt><trkpt lat="43.829386347343856" lon="11.382943819623415"><ele>145.33333333333331</ele><time>2026-04-25T12:35:27.981Z</time></trkpt><trkpt lat="43.82924331742326" lon="11.383036996164286"><ele>144.66666666666666</ele><time>2026-04-25T12:35:28.981Z</time></trkpt><trkpt lat="43.82909954780024" lon="11.383107103315947"><ele>144.0</ele><time>2026-04-25T12:35:29.981Z</time></trkpt><trkpt lat="43.82896837197465" lon="11.383204399540688"><ele>144.0</ele><time>2026-04-25T12:35:30.981Z</time></trkpt><trkpt lat="43.8288478349798" lon="11.383328839729181"><ele>144.0</ele><time>2026-04-25T12:35:31.981Z</time></trkpt><trkpt lat="43.82873085398498" lon="11.38349197214569"><ele>144.0</ele><time>2026-04-25T12:35:32.981Z</time></trkpt><trkpt lat="43.82861643368363" lon="11.38368205980069"><ele>145.66666666666666</ele><time>2026-04-25T12:35:33.981Z</time></trkpt><trkpt lat="43.8285005345034" lon="11.383885558687615"><ele>147.33333333333331</ele><time>2026-04-25T12:35:34.981Z</time></trkpt><trkpt lat="43.82837533893312" lon="11.38410371948586"><ele>149.0</ele><time>2026-04-25T12:35:35.981Z</time></trkpt><trkpt lat="43.82824549066418" lon="11.384325913864064"><ele>147.66666666666666</ele><time>2026-04-25T12:35:36.981Z</time></trkpt><trkpt lat="43.828120446523464" lon="11.384552068069558"><ele>146.33333333333334</ele><time>2026-04-25T12:35:37.981Z</time></trkpt><trkpt lat="43.82799356275886" lon="11.384778265805654"><ele>145.0</ele><time>2026-04-25T12:35:38.981Z</time></trkpt><trkpt lat="43.827866870725394" lon="11.384999692704957"><ele>145.0</ele><time>2026-04-25T12:35:39.981Z</time></trkpt><trkpt lat="43.82774086862839" lon="11.385218902198414"><ele>145.0</ele><time>2026-04-25T12:35:40.981Z</time></trkpt><trkpt lat="43.82762014505552" lon="11.385430347753898"><ele>145.0</ele><time>2026-04-25T12:35:41.981Z</time></trkpt><trkpt lat="43.82750223674327" lon="11.385632876944625"><ele>142.33333333333334</ele><time>2026-04-25T12:35:42.981Z</time></trkpt><trkpt lat="43.8273943251291" lon="11.385821110135366"><ele>139.66666666666666</ele><time>2026-04-25T12:35:43.981Z</time></trkpt><trkpt lat="43.82728927109485" lon="11.38600259553938"><ele>137.0</ele><time>2026-04-25T12:35:44.981Z</time></trkpt><trkpt lat="43.827183983913194" lon="11.386187911529479"><ele>139.33333333333331</ele><time>2026-04-25T12:35:45.981Z</time></trkpt><trkpt lat="43.827074748797926" lon="11.386375601412745"><ele>141.66666666666666</ele><time>2026-04-25T12:35:46.981Z</time></trkpt><trkpt lat="43.82696808532227" lon="11.386566009466833"><ele>144.0</ele><time>2026-04-25T12:35:47.981Z</time></trkpt><trkpt lat="43.82686308774871" lon="11.386757747738589"><ele>142.0</ele><time>2026-04-25T12:35:48.981Z</time></trkpt><trkpt lat="43.826759352051155" lon="11.386937089531102"><ele>140.0</ele><time>2026-04-25T12:35:49.981Z</time></trkpt><trkpt lat="43.82665756799006" lon="11.38711111862366"><ele>138.0</ele><time>2026-04-25T12:35:50.981Z</time></trkpt><trkpt lat="43.82656631122668" lon="11.387279418110422"><ele>138.0</ele><time>2026-04-25T12:35:51.981Z</time></trkpt><trkpt lat="43.82646146015273" lon="11.387451795530264"><ele>138.0</ele><time>2026-04-25T12:35:52.981Z</time></trkpt><trkpt lat="43.82636506201736" lon="11.387616691333356"><ele>138.0</ele><time>2026-04-25T12:35:53.981Z</time></trkpt><trkpt lat="43.82627307986578" lon="11.387783254863459"><ele>138.0</ele><time>2026-04-25T12:35:54.981Z</time></trkpt><trkpt lat="43.8261821219481" lon="11.387959976430889"><ele>138.0</ele><time>2026-04-25T12:35:55.981Z</time></trkpt><trkpt lat="43.82608386883064" lon="11.388133046870067"><ele>138.0</ele><time>2026-04-25T12:35:56.981Z</time></trkpt><trkpt lat="43.82599098623175" lon="11.388305639901393"><ele>135.0</ele><time>2026-04-25T12:35:57.981Z</time></trkpt><trkpt lat="43.825895349225256" lon="11.388493021157315"><ele>132.0</ele><time>2026-04-25T12:35:58.982Z</time></trkpt><trkpt lat="43.825795212139504" lon="11.38866327148085"><ele>129.0</ele><time>2026-04-25T12:35:59.982Z</time></trkpt><trkpt lat="43.82570160128226" lon="11.38883286820963"><ele>128.33333333333334</ele><time>2026-04-25T12:36:00.982Z</time></trkpt><trkpt lat="43.82561113343852" lon="11.388994707010964"><ele>127.66666666666667</ele><time>2026-04-25T12:36:01.982Z</time></trkpt><trkpt lat="43.82551112590461" lon="11.389149341841625"><ele>127.0</ele><time>2026-04-25T12:36:02.982Z</time></trkpt><trkpt lat="43.825396688557994" lon="11.38929851448623"><ele>127.0</ele><time>2026-04-25T12:36:03.982Z</time></trkpt><trkpt lat="43.825275563758325" lon="11.389411596362223"><ele>127.0</ele><time>2026-04-25T12:36:04.982Z</time></trkpt><trkpt lat="43.82513498662044" lon="11.389523862520074"><ele>127.0</ele><time>2026-04-25T12:36:05.981Z</time></trkpt><trkpt lat="43.82501018648528" lon="11.389640151183139"><ele>126.33333333333334</ele><time>2026-04-25T12:36:06.981Z</time></trkpt><trkpt lat="43.824881201326825" lon="11.389765993047586"><ele>125.66666666666666</ele><time>2026-04-25T12:36:07.982Z</time></trkpt><trkpt lat="43.824758055524605" lon="11.389894087356272"><ele>125.0</ele><time>2026-04-25T12:36:08.981Z</time></trkpt><trkpt lat="43.82462888004182" lon="11.390013416341898"><ele>125.0</ele><time>2026-04-25T12:36:09.981Z</time></trkpt><trkpt lat="43.82450600963465" lon="11.390126362844562"><ele>125.0</ele><time>2026-04-25T12:36:10.981Z</time></trkpt><trkpt lat="43.824386158467604" lon="11.390253687365082"><ele>125.0</ele><time>2026-04-25T12:36:11.981Z</time></trkpt><trkpt lat="43.82427382503017" lon="11.390395666736943"><ele>126.0</ele><time>2026-04-25T12:36:12.981Z</time></trkpt><trkpt lat="43.82415727662537" lon="11.390538232943705"><ele>127.0</ele><time>2026-04-25T12:36:13.981Z</time></trkpt><trkpt lat="43.82402845052513" lon="11.390682162969567"><ele>128.0</ele><time>2026-04-25T12:36:14.981Z</time></trkpt><trkpt lat="43.823904697155804" lon="11.390822057002948"><ele>128.0</ele><time>2026-04-25T12:36:15.981Z</time></trkpt><trkpt lat="43.82377012108121" lon="11.390947156178857"><ele>128.0</ele><time>2026-04-25T12:36:16.981Z</time></trkpt><trkpt lat="43.823652831840036" lon="11.391097124764748"><ele>128.0</ele><time>2026-04-25T12:36:17.981Z</time></trkpt><trkpt lat="43.82353564053283" lon="11.391225266857468"><ele>127.5</ele><time>2026-04-25T12:36:18.981Z</time></trkpt><trkpt lat="43.823408114093944" lon="11.391313943414158"><ele>127.0</ele><time>2026-04-25T12:36:19.981Z</time></trkpt><trkpt lat="43.823274720809685" lon="11.391384940633571"><ele>126.5</ele><time>2026-04-25T12:36:20.981Z</time></trkpt><trkpt lat="43.823124961835994" lon="11.391439685799437"><ele>126.0</ele><time>2026-04-25T12:36:21.981Z</time></trkpt><trkpt lat="43.822971968976645" lon="11.391489351167792"><ele>125.0</ele><time>2026-04-25T12:36:22.981Z</time></trkpt><trkpt lat="43.82281519611689" lon="11.391567675667416"><ele>124.0</ele><time>2026-04-25T12:36:23.981Z</time></trkpt><trkpt lat="43.822654121349586" lon="11.391621417908844"><ele>123.0</ele><time>2026-04-25T12:36:24.981Z</time></trkpt><trkpt lat="43.82251126973355" lon="11.391731753360087"><ele>122.0</ele><time>2026-04-25T12:36:25.981Z</time></trkpt><trkpt lat="43.822387703848015" lon="11.391847478311899"><ele>121.0</ele><time>2026-04-25T12:36:26.981Z</time></trkpt><trkpt lat="43.82226203178059" lon="11.391954441514475"><ele>120.0</ele><time>2026-04-25T12:36:27.981Z</time></trkpt><trkpt lat="43.822127729965786" lon="11.392045825341581"><ele>119.0</ele><time>2026-04-25T12:36:28.981Z</time></trkpt><trkpt lat="43.8219894160273" lon="11.392121691633696"><ele>119.66666666666666</ele><time>2026-04-25T12:36:29.981Z</time></trkpt><trkpt lat="43.82184732483321" lon="11.392189519040496"><ele>120.33333333333334</ele><time>2026-04-25T12:36:30.981Z</time></trkpt><trkpt lat="43.821703981923065" lon="11.392253915670342"><ele>121.0</ele><time>2026-04-25T12:36:31.981Z</time></trkpt><trkpt lat="43.82155992817146" lon="11.392314339480622"><ele>119.66666666666667</ele><time>2026-04-25T12:36:32.981Z</time></trkpt><trkpt lat="43.82140955570214" lon="11.392367082695877"><ele>118.33333333333334</ele><time>2026-04-25T12:36:33.981Z</time></trkpt><trkpt lat="43.82126621998364" lon="11.39237360796071"><ele>117.0</ele><time>2026-04-25T12:36:34.981Z</time></trkpt><trkpt lat="43.82111287785999" lon="11.392364540826511"><ele>116.66666666666666</ele><time>2026-04-25T12:36:35.981Z</time></trkpt><trkpt lat="43.82095071557622" lon="11.392354777676605"><ele>116.33333333333333</ele><time>2026-04-25T12:36:36.981Z</time></trkpt><trkpt lat="43.8207782418383" lon="11.392362196982203"><ele>116.0</ele><time>2026-04-25T12:36:37.981Z</time></trkpt><trkpt lat="43.82059948632594" lon="11.392410895658521"><ele>116.0</ele><time>2026-04-25T12:36:38.981Z</time></trkpt><trkpt lat="43.82042061646527" lon="11.392416625986801"><ele>116.0</ele><time>2026-04-25T12:36:39.981Z</time></trkpt><trkpt lat="43.82025471892327" lon="11.392464255686921"><ele>116.0</ele><time>2026-04-25T12:36:40.981Z</time></trkpt><trkpt lat="43.82009474786592" lon="11.392490029847481"><ele>115.66666666666666</ele><time>2026-04-25T12:36:41.981Z</time></trkpt><trkpt lat="43.81993182901211" lon="11.392492091802911"><ele>115.33333333333334</ele><time>2026-04-25T12:36:42.981Z</time></trkpt><trkpt lat="43.81977372821056" lon="11.392517271140292"><ele>115.0</ele><time>2026-04-25T12:36:43.981Z</time></trkpt><trkpt lat="43.81961851626771" lon="11.392544644865092"><ele>115.0</ele><time>2026-04-25T12:36:44.981Z</time></trkpt><trkpt lat="43.81946931221238" lon="11.392580360817723"><ele>115.0</ele><time>2026-04-25T12:36:45.981Z</time></trkpt><trkpt lat="43.81932533202251" lon="11.392630299308989"><ele>115.0</ele><time>2026-04-25T12:36:46.981Z</time></trkpt><trkpt lat="43.81917742027616" lon="11.392705087450278"><ele>115.33333333333334</ele><time>2026-04-25T12:36:47.981Z</time></trkpt><trkpt lat="43.81903302560368" lon="11.392813009794061"><ele>115.66666666666666</ele><time>2026-04-25T12:36:48.981Z</time></trkpt><trkpt lat="43.818897482756064" lon="11.392937472202735"><ele>116.0</ele><time>2026-04-25T12:36:49.981Z</time></trkpt><trkpt lat="43.8187801685902" lon="11.393081857642837"><ele>116.0</ele><time>2026-04-25T12:36:50.981Z</time></trkpt><trkpt lat="43.81864636400835" lon="11.393190676366425"><ele>116.0</ele><time>2026-04-25T12:36:51.981Z</time></trkpt><trkpt lat="43.81852087711107" lon="11.393316397660705"><ele>116.0</ele><time>2026-04-25T12:36:52.981Z</time></trkpt><trkpt lat="43.81840579744386" lon="11.393435447138202"><ele>115.25</ele><time>2026-04-25T12:36:53.981Z</time></trkpt><trkpt lat="43.81829582020742" lon="11.393549909960006"><ele>114.5</ele><time>2026-04-25T12:36:54.981Z</time></trkpt><trkpt lat="43.8181953550883" lon="11.393659658453968"><ele>113.75</ele><time>2026-04-25T12:36:55.981Z</time></trkpt><trkpt lat="43.81809274780832" lon="11.39375609541964"><ele>113.0</ele><time>2026-04-25T12:36:56.981Z</time></trkpt><trkpt lat="43.81797580844134" lon="11.393831499464353"><ele>114.0</ele><time>2026-04-25T12:36:57.981Z</time></trkpt><trkpt lat="43.81784694505976" lon="11.393870166779918"><ele>115.0</ele><time>2026-04-25T12:36:58.981Z</time></trkpt><trkpt lat="43.81770411254321" lon="11.393885131580179"><ele>116.0</ele><time>2026-04-25T12:36:59.981Z</time></trkpt><trkpt lat="43.817538499617676" lon="11.393893139444438"><ele>117.0</ele><time>2026-04-25T12:37:00.981Z</time></trkpt><trkpt lat="43.81737868902468" lon="11.39392247612314"><ele>117.0</ele><time>2026-04-25T12:37:01.981Z</time></trkpt><trkpt lat="43.817235143025954" lon="11.393910192981926"><ele>117.0</ele><time>2026-04-25T12:37:02.981Z</time></trkpt><trkpt lat="43.8170945035826" lon="11.393920193189773"><ele>117.0</ele><time>2026-04-25T12:37:03.982Z</time></trkpt><trkpt lat="43.81695389351899" lon="11.393941265676709"><ele>117.0</ele><time>2026-04-25T12:37:04.982Z</time></trkpt><trkpt lat="43.81682075410454" lon="11.393982298923433"><ele>116.5</ele><time>2026-04-25T12:37:05.982Z</time></trkpt><trkpt lat="43.816705525495216" lon="11.394074529914912"><ele>116.0</ele><time>2026-04-25T12:37:06.982Z</time></trkpt><trkpt lat="43.81658039763403" lon="11.394155273430968"><ele>115.5</ele><time>2026-04-25T12:37:07.982Z</time></trkpt><trkpt lat="43.81645979175675" lon="11.394264957169582"><ele>115.0</ele><time>2026-04-25T12:37:08.982Z</time></trkpt><trkpt lat="43.81633151265662" lon="11.394388780017582"><ele>115.0</ele><time>2026-04-25T12:37:09.982Z</time></trkpt><trkpt lat="43.816177565877545" lon="11.394514449321772"><ele>115.0</ele><time>2026-04-25T12:37:10.982Z</time></trkpt><trkpt lat="43.8160423435232" lon="11.394645462013724"><ele>115.0</ele><time>2026-04-25T12:37:11.982Z</time></trkpt><trkpt lat="43.81589737270874" lon="11.394784085883924"><ele>114.33333333333334</ele><time>2026-04-25T12:37:12.982Z</time></trkpt><trkpt lat="43.815752389329155" lon="11.394930265403827"><ele>113.66666666666666</ele><time>2026-04-25T12:37:13.982Z</time></trkpt><trkpt lat="43.8156141401731" lon="11.395080530574868"><ele>113.0</ele><time>2026-04-25T12:37:14.982Z</time></trkpt><trkpt lat="43.81545793629137" lon="11.395219025714804"><ele>113.0</ele><time>2026-04-25T12:37:15.982Z</time></trkpt><trkpt lat="43.81531889012598" lon="11.395383189104537"><ele>113.0</ele><time>2026-04-25T12:37:16.982Z</time></trkpt><trkpt lat="43.81518119335324" lon="11.395529008133092"><ele>113.0</ele><time>2026-04-25T12:37:17.982Z</time></trkpt><trkpt lat="43.815036906412395" lon="11.395672680172032"><ele>112.33333333333333</ele><time>2026-04-25T12:37:18.982Z</time></trkpt><trkpt lat="43.81490110814017" lon="11.395811897618547"><ele>111.66666666666666</ele><time>2026-04-25T12:37:19.982Z</time></trkpt><trkpt lat="43.814766249293044" lon="11.395946232124825"><ele>111.0</ele><time>2026-04-25T12:37:20.982Z</time></trkpt><trkpt lat="43.814636531287604" lon="11.396085365023696"><ele>111.0</ele><time>2026-04-25T12:37:21.982Z</time></trkpt><trkpt lat="43.81450276599768" lon="11.39622567966423"><ele>111.0</ele><time>2026-04-25T12:37:22.982Z</time></trkpt><trkpt lat="43.814368522556336" lon="11.396360648945388"><ele>111.0</ele><time>2026-04-25T12:37:23.982Z</time></trkpt><trkpt lat="43.814237585983854" lon="11.396492127588559"><ele>110.66666666666666</ele><time>2026-04-25T12:37:24.982Z</time></trkpt><trkpt lat="43.81410678243771" lon="11.396620934564345"><ele>110.33333333333333</ele><time>2026-04-25T12:37:25.982Z</time></trkpt><trkpt lat="43.813966470865864" lon="11.396740802465196"><ele>110.0</ele><time>2026-04-25T12:37:26.982Z</time></trkpt><trkpt lat="43.81383758538118" lon="11.396878799556614"><ele>110.0</ele><time>2026-04-25T12:37:27.982Z</time></trkpt><trkpt lat="43.8137190240097" lon="11.397003577453283"><ele>110.0</ele><time>2026-04-25T12:37:28.982Z</time></trkpt><trkpt lat="43.81357640904787" lon="11.39712758258116"><ele>110.0</ele><time>2026-04-25T12:37:29.982Z</time></trkpt><trkpt lat="43.81343367832714" lon="11.397255792402895"><ele>108.66666666666666</ele><time>2026-04-25T12:37:30.982Z</time></trkpt><trkpt lat="43.8132873131932" lon="11.397392818910802"><ele>107.33333333333334</ele><time>2026-04-25T12:37:31.982Z</time></trkpt><trkpt lat="43.813145312419756" lon="11.397519136790779"><ele>106.0</ele><time>2026-04-25T12:37:32.982Z</time></trkpt><trkpt lat="43.813000992485804" lon="11.39763543473329"><ele>106.0</ele><time>2026-04-25T12:37:33.982Z</time></trkpt><trkpt lat="43.812838020466806" lon="11.397728841934837"><ele>106.0</ele><time>2026-04-25T12:37:34.982Z</time></trkpt><trkpt lat="43.81267248453706" lon="11.397799120626651"><ele>106.0</ele><time>2026-04-25T12:37:35.982Z</time></trkpt><trkpt lat="43.8125051843539" lon="11.397866802648494"><ele>108.66666666666667</ele><time>2026-04-25T12:37:36.982Z</time></trkpt><trkpt lat="43.8123369747792" lon="11.397905915558175"><ele>111.33333333333334</ele><time>2026-04-25T12:37:37.982Z</time></trkpt><trkpt lat="43.81216579632303" lon="11.397928009404396"><ele>114.0</ele><time>2026-04-25T12:37:38.982Z</time></trkpt><trkpt lat="43.811984981790566" lon="11.397908956907523"><ele>115.33333333333334</ele><time>2026-04-25T12:37:39.982Z</time></trkpt><trkpt lat="43.81180145129976" lon="11.39788666395622"><ele>116.66666666666667</ele><time>2026-04-25T12:37:40.982Z</time></trkpt><trkpt lat="43.81161807808883" lon="11.397865196141515"><ele>118.0</ele><time>2026-04-25T12:37:41.982Z</time></trkpt><trkpt lat="43.81143553804145" lon="11.397846195858577"><ele>118.0</ele><time>2026-04-25T12:37:42.982Z</time></trkpt><trkpt lat="43.8112550489943" lon="11.39782271945654"><ele>118.0</ele><time>2026-04-25T12:37:43.982Z</time></trkpt><trkpt lat="43.81107490088389" lon="11.397803972441883"><ele>118.0</ele><time>2026-04-25T12:37:44.982Z</time></trkpt><trkpt lat="43.810909224898076" lon="11.397773286114994"><ele>115.66666666666667</ele><time>2026-04-25T12:37:45.982Z</time></trkpt><trkpt lat="43.810745834293805" lon="11.39774272808509"><ele>113.33333333333334</ele><time>2026-04-25T12:37:46.982Z</time></trkpt><trkpt lat="43.8105811381538" lon="11.397694242465192"><ele>111.0</ele><time>2026-04-25T12:37:47.982Z</time></trkpt><trkpt lat="43.81042281425589" lon="11.397617532997366"><ele>111.0</ele><time>2026-04-25T12:37:48.982Z</time></trkpt><trkpt lat="43.81026631953287" lon="11.397520816484109"><ele>111.0</ele><time>2026-04-25T12:37:49.982Z</time></trkpt><trkpt lat="43.81013876249291" lon="11.397379191312247"><ele>111.0</ele><time>2026-04-25T12:37:50.982Z</time></trkpt><trkpt lat="43.81002210135079" lon="11.397221502254641"><ele>110.0</ele><time>2026-04-25T12:37:51.982Z</time></trkpt><trkpt lat="43.809914345829235" lon="11.397049413186515"><ele>109.0</ele><time>2026-04-25T12:37:52.982Z</time></trkpt><trkpt lat="43.80983029137383" lon="11.396843726897803"><ele>108.0</ele><time>2026-04-25T12:37:53.982Z</time></trkpt><trkpt lat="43.809765764095054" lon="11.396618907023623"><ele>108.0</ele><time>2026-04-25T12:37:54.982Z</time></trkpt><trkpt lat="43.80972118910156" lon="11.396381948660453"><ele>108.0</ele><time>2026-04-25T12:37:55.982Z</time></trkpt><trkpt lat="43.80968705712412" lon="11.396132697103456"><ele>108.0</ele><time>2026-04-25T12:37:56.982Z</time></trkpt><trkpt lat="43.809650295522104" lon="11.39588737397084"><ele>109.33333333333334</ele><time>2026-04-25T12:37:57.982Z</time></trkpt><trkpt lat="43.80960844658443" lon="11.395643119640857"><ele>110.66666666666667</ele><time>2026-04-25T12:37:58.982Z</time></trkpt><trkpt lat="43.8095682458209" lon="11.395398663423576"><ele>112.0</ele><time>2026-04-25T12:37:59.982Z</time></trkpt><trkpt lat="43.80951651468712" lon="11.395159132556987"><ele>109.66666666666667</ele><time>2026-04-25T12:38:00.982Z</time></trkpt><trkpt lat="43.809457264713" lon="11.394928738569124"><ele>107.33333333333334</ele><time>2026-04-25T12:38:01.983Z</time></trkpt><trkpt lat="43.8093746301144" lon="11.39470364927797"><ele>105.0</ele><time>2026-04-25T12:38:02.982Z</time></trkpt><trkpt lat="43.809288014660765" lon="11.39448402973597"><ele>105.0</ele><time>2026-04-25T12:38:03.982Z</time></trkpt><trkpt lat="43.8091853717322" lon="11.394284797358715"><ele>105.0</ele><time>2026-04-25T12:38:04.983Z</time></trkpt><trkpt lat="43.80907160773846" lon="11.394093518284668"><ele>105.0</ele><time>2026-04-25T12:38:05.983Z</time></trkpt><trkpt lat="43.80895006168431" lon="11.39390633635801"><ele>109.0</ele><time>2026-04-25T12:38:06.983Z</time></trkpt><trkpt lat="43.808822459300835" lon="11.393734987566347"><ele>113.0</ele><time>2026-04-25T12:38:07.983Z</time></trkpt><trkpt lat="43.80869001478149" lon="11.393571731615578"><ele>117.0</ele><time>2026-04-25T12:38:08.983Z</time></trkpt><trkpt lat="43.80855666284995" lon="11.393412581573639"><ele>111.0</ele><time>2026-04-25T12:38:09.983Z</time></trkpt><trkpt lat="43.80842831301313" lon="11.393266991746708"><ele>105.0</ele><time>2026-04-25T12:38:10.982Z</time></trkpt><trkpt lat="43.80830145928216" lon="11.393134560115659"><ele>99.0</ele><time>2026-04-25T12:38:11.983Z</time></trkpt><trkpt lat="43.808166430888576" lon="11.393014679737194"><ele>102.0</ele><time>2026-04-25T12:38:12.983Z</time></trkpt><trkpt lat="43.808015031287205" lon="11.392929224700572"><ele>105.0</ele><time>2026-04-25T12:38:13.983Z</time></trkpt><trkpt lat="43.807850011998276" lon="11.39287742750661"><ele>108.0</ele><time>2026-04-25T12:38:14.983Z</time></trkpt><trkpt lat="43.80766907648179" lon="11.392873673570582"><ele>109.33333333333334</ele><time>2026-04-25T12:38:15.983Z</time></trkpt><trkpt lat="43.80749598311296" lon="11.392887255921996"><ele>110.66666666666667</ele><time>2026-04-25T12:38:16.983Z</time></trkpt><trkpt lat="43.80732353232036" lon="11.392914253789804"><ele>112.0</ele><time>2026-04-25T12:38:17.983Z</time></trkpt><trkpt lat="43.80715678415666" lon="11.392949537487063"><ele>112.0</ele><time>2026-04-25T12:38:18.983Z</time></trkpt><trkpt lat="43.806987630512026" lon="11.392964094001217"><ele>112.0</ele><time>2026-04-25T12:38:19.983Z</time></trkpt><trkpt lat="43.806821557249606" lon="11.39295763612811"><ele>112.0</ele><time>2026-04-25T12:38:20.983Z</time></trkpt><trkpt lat="43.80665222963573" lon="11.392929327595242"><ele>112.33333333333334</ele><time>2026-04-25T12:38:21.983Z</time></trkpt><trkpt lat="43.8064795274883" lon="11.39288356585202"><ele>112.66666666666666</ele><time>2026-04-25T12:38:22.983Z</time></trkpt><trkpt lat="43.80630521028922" lon="11.392826288400032"><ele>113.0</ele><time>2026-04-25T12:38:23.983Z</time></trkpt><trkpt lat="43.80612621178194" lon="11.392773015822508"><ele>110.33333333333333</ele><time>2026-04-25T12:38:24.983Z</time></trkpt><trkpt lat="43.805953246463645" lon="11.392729673280124"><ele>107.66666666666666</ele><time>2026-04-25T12:38:25.983Z</time></trkpt><trkpt lat="43.80578631169221" lon="11.392682375691061"><ele>105.0</ele><time>2026-04-25T12:38:26.983Z</time></trkpt><trkpt lat="43.80562508226217" lon="11.392634251125964"><ele>105.0</ele><time>2026-04-25T12:38:27.983Z</time></trkpt><trkpt lat="43.80546466266254" lon="11.39256738463714"><ele>105.0</ele><time>2026-04-25T12:38:28.983Z</time></trkpt><trkpt lat="43.805310128848355" lon="11.39246532274599"><ele>105.0</ele><time>2026-04-25T12:38:29.983Z</time></trkpt><trkpt lat="43.805154236057476" lon="11.392365592082735"><ele>104.33333333333334</ele><time>2026-04-25T12:38:30.983Z</time></trkpt><trkpt lat="43.80500580615465" lon="11.392247001900582"><ele>103.66666666666667</ele><time>2026-04-25T12:38:31.982Z</time></trkpt><trkpt lat="43.80485245463154" lon="11.392115012683652"><ele>103.0</ele><time>2026-04-25T12:38:32.982Z</time></trkpt><trkpt lat="43.80470057141226" lon="11.391981186010218"><ele>103.0</ele><time>2026-04-25T12:38:33.982Z</time></trkpt><trkpt lat="43.80454841511889" lon="11.391842172343624"><ele>103.0</ele><time>2026-04-25T12:38:34.982Z</time></trkpt><trkpt lat="43.80439503126898" lon="11.391703535330766"><ele>103.0</ele><time>2026-04-25T12:38:35.982Z</time></trkpt><trkpt lat="43.80424600218717" lon="11.391570534942726"><ele>100.33333333333334</ele><time>2026-04-25T12:38:36.982Z</time></trkpt><trkpt lat="43.80409959761382" lon="11.391442836125716"><ele>97.66666666666667</ele><time>2026-04-25T12:38:37.981Z</time></trkpt><trkpt lat="43.80395413733606" lon="11.391317254121626"><ele>95.0</ele><time>2026-04-25T12:38:38.981Z</time></trkpt><trkpt lat="43.80381960559239" lon="11.391204155197215"><ele>95.0</ele><time>2026-04-25T12:38:39.981Z</time></trkpt><trkpt lat="43.80368213974683" lon="11.391096000855885"><ele>95.0</ele><time>2026-04-25T12:38:40.981Z</time></trkpt><trkpt lat="43.80353535960937" lon="11.391009606343934"><ele>95.0</ele><time>2026-04-25T12:38:41.981Z</time></trkpt><trkpt lat="43.80339612883864" lon="11.39094994825545"><ele>93.33333333333334</ele><time>2026-04-25T12:38:42.981Z</time></trkpt><trkpt lat="43.803251579540145" lon="11.390906244906963"><ele>91.66666666666667</ele><time>2026-04-25T12:38:43.981Z</time></trkpt><trkpt lat="43.803095686356215" lon="11.39088526452863"><ele>90.0</ele><time>2026-04-25T12:38:44.981Z</time></trkpt><trkpt lat="43.80293906592914" lon="11.39088158263168"><ele>90.0</ele><time>2026-04-25T12:38:45.981Z</time></trkpt><trkpt lat="43.80280603196936" lon="11.39089051942633"><ele>90.0</ele><time>2026-04-25T12:38:46.981Z</time></trkpt><trkpt lat="43.80268787432289" lon="11.390904590975342"><ele>90.0</ele><time>2026-04-25T12:38:47.981Z</time></trkpt><trkpt lat="43.80258526191014" lon="11.390920016754663"><ele>90.0</ele><time>2026-04-25T12:38:48.981Z</time></trkpt><trkpt lat="43.80249287386623" lon="11.390924141108805"><ele>90.0</ele><time>2026-04-25T12:38:49.98Z</time></trkpt><trkpt lat="43.80241332013889" lon="11.390892947601634"><ele>90.0</ele><time>2026-04-25T12:38:50.98Z</time></trkpt><trkpt lat="43.80236868610532" lon="11.39082000172621"><ele>90.0</ele><time>2026-04-25T12:38:51.98Z</time></trkpt><trkpt lat="43.8023009371656" lon="11.390731992615317"><ele>90.0</ele><time>2026-04-25T12:38:52.98Z</time></trkpt><trkpt lat="43.802229791515146" lon="11.390639943379433"><ele>90.0</ele><time>2026-04-25T12:38:53.98Z</time></trkpt><trkpt lat="43.802140298684" lon="11.390530709376653"><ele>90.0</ele><time>2026-04-25T12:38:54.98Z</time></trkpt><trkpt lat="43.80203358453244" lon="11.390419601372924"><ele>90.0</ele><time>2026-04-25T12:38:55.98Z</time></trkpt><trkpt lat="43.80191282832686" lon="11.390309832302878"><ele>90.0</ele><time>2026-04-25T12:38:56.98Z</time></trkpt><trkpt lat="43.80179269464597" lon="11.390209791017474"><ele>90.0</ele><time>2026-04-25T12:38:57.98Z</time></trkpt><trkpt lat="43.80168648280199" lon="11.390126812507724"><ele>90.0</ele><time>2026-04-25T12:38:58.98Z</time></trkpt><trkpt lat="43.80158229513443" lon="11.390046973446445"><ele>90.6</ele><time>2026-04-25T12:38:59.98Z</time></trkpt><trkpt lat="43.801480498331514" lon="11.389971618898235"><ele>91.2</ele><time>2026-04-25T12:39:00.98Z</time></trkpt><trkpt lat="43.80138588213067" lon="11.389908627474284"><ele>91.80000000000001</ele><time>2026-04-25T12:39:01.98Z</time></trkpt><trkpt lat="43.80128417037935" lon="11.389872229990344"><ele>92.4</ele><time>2026-04-25T12:39:02.98Z</time></trkpt><trkpt lat="43.80117168857147" lon="11.389871311246509"><ele>93.0</ele><time>2026-04-25T12:39:03.98Z</time></trkpt><trkpt lat="43.80105557378339" lon="11.389910304635883"><ele>93.5</ele><time>2026-04-25T12:39:04.98Z</time></trkpt><trkpt lat="43.80093753097558" lon="11.389984683572294"><ele>94.0</ele><time>2026-04-25T12:39:05.98Z</time></trkpt><trkpt lat="43.80083058434066" lon="11.390109894148713"><ele>94.5</ele><time>2026-04-25T12:39:06.98Z</time></trkpt><trkpt lat="43.8007185502942" lon="11.390207251372743"><ele>95.0</ele><time>2026-04-25T12:39:07.98Z</time></trkpt><trkpt lat="43.80060792728954" lon="11.390321760322497"><ele>95.0</ele><time>2026-04-25T12:39:08.98Z</time></trkpt><trkpt lat="43.800508015908676" lon="11.39041680159556"><ele>95.0</ele><time>2026-04-25T12:39:09.98Z</time></trkpt><trkpt lat="43.80041332669607" lon="11.390512649968667"><ele>95.0</ele><time>2026-04-25T12:39:10.98Z</time></trkpt><trkpt lat="43.80029442408871" lon="11.390559090972186"><ele>95.0</ele><time>2026-04-25T12:39:11.98Z</time></trkpt><trkpt lat="43.800169827569356" lon="11.39059712221624"><ele>96.0</ele><time>2026-04-25T12:39:12.98Z</time></trkpt><trkpt lat="43.800037003260265" lon="11.390616776298055"><ele>97.0</ele><time>2026-04-25T12:39:13.98Z</time></trkpt><trkpt lat="43.79989919903057" lon="11.390626159049717"><ele>98.0</ele><time>2026-04-25T12:39:14.98Z</time></trkpt><trkpt lat="43.79975690596994" lon="11.390619952790683"><ele>99.0</ele><time>2026-04-25T12:39:15.98Z</time></trkpt><trkpt lat="43.79962950252439" lon="11.390594123376088"><ele>99.0</ele><time>2026-04-25T12:39:16.98Z</time></trkpt><trkpt lat="43.799503227543674" lon="11.39054464676571"><ele>99.0</ele><time>2026-04-25T12:39:17.98Z</time></trkpt><trkpt lat="43.79937126482788" lon="11.390480699129528"><ele>99.0</ele><time>2026-04-25T12:39:18.98Z</time></trkpt><trkpt lat="43.79924887811657" lon="11.390415385530254"><ele>99.0</ele><time>2026-04-25T12:39:19.98Z</time></trkpt><trkpt lat="43.79911352331094" lon="11.390364763027058"><ele>94.75</ele><time>2026-04-25T12:39:20.98Z</time></trkpt><trkpt lat="43.798989727134185" lon="11.39026358101928"><ele>90.5</ele><time>2026-04-25T12:39:21.98Z</time></trkpt><trkpt lat="43.79887026504345" lon="11.39017068380497"><ele>86.25</ele><time>2026-04-25T12:39:22.98Z</time></trkpt><trkpt lat="43.79876295013837" lon="11.39007120975809"><ele>82.0</ele><time>2026-04-25T12:39:23.98Z</time></trkpt><trkpt lat="43.798647445752444" lon="11.389987706769567"><ele>82.0</ele><time>2026-04-25T12:39:24.98Z</time></trkpt><trkpt lat="43.79853144526466" lon="11.389911155031779"><ele>82.0</ele><time>2026-04-25T12:39:25.98Z</time></trkpt><trkpt lat="43.79841732997254" lon="11.389842879223876"><ele>82.0</ele><time>2026-04-25T12:39:26.98Z</time></trkpt><trkpt lat="43.79830575018198" lon="11.389788642642129"><ele>82.0</ele><time>2026-04-25T12:39:27.98Z</time></trkpt><trkpt lat="43.798186933838686" lon="11.389754409209102"><ele>82.19999999999999</ele><time>2026-04-25T12:39:28.98Z</time></trkpt><trkpt lat="43.79808395249638" lon="11.389750624138472"><ele>82.4</ele><time>2026-04-25T12:39:29.98Z</time></trkpt><trkpt lat="43.79797563492158" lon="11.389742687403722"><ele>82.6</ele><time>2026-04-25T12:39:30.98Z</time></trkpt><trkpt lat="43.797863533347055" lon="11.389730697082516"><ele>82.80000000000001</ele><time>2026-04-25T12:39:31.98Z</time></trkpt><trkpt lat="43.79774705283331" lon="11.389714518190587"><ele>83.0</ele><time>2026-04-25T12:39:32.98Z</time></trkpt><trkpt lat="43.79764580047392" lon="11.389699529142337"><ele>82.60000000000001</ele><time>2026-04-25T12:39:33.98Z</time></trkpt><trkpt lat="43.79754639595452" lon="11.389689756518418"><ele>82.2</ele><time>2026-04-25T12:39:34.98Z</time></trkpt><trkpt lat="43.797449025011936" lon="11.389678125992125"><ele>81.8</ele><time>2026-04-25T12:39:35.98Z</time></trkpt><trkpt lat="43.79735211745442" lon="11.389662500882134"><ele>81.4</ele><time>2026-04-25T12:39:36.98Z</time></trkpt><trkpt lat="43.797250332477276" lon="11.389638452173271"><ele>81.0</ele><time>2026-04-25T12:39:37.98Z</time></trkpt><trkpt lat="43.79714359992629" lon="11.38961908404099"><ele>80.39999999999999</ele><time>2026-04-25T12:39:38.98Z</time></trkpt><trkpt lat="43.7970348608012" lon="11.389600713072252"><ele>79.8</ele><time>2026-04-25T12:39:39.98Z</time></trkpt><trkpt lat="43.79694067172366" lon="11.389557086485997"><ele>79.19999999999999</ele><time>2026-04-25T12:39:40.98Z</time></trkpt><trkpt lat="43.796839345469074" lon="11.389516250308766"><ele>78.6</ele><time>2026-04-25T12:39:41.98Z</time></trkpt><trkpt lat="43.7967289663364" lon="11.389477459132337"><ele>78.0</ele><time>2026-04-25T12:39:42.98Z</time></trkpt><trkpt lat="43.796624828505564" lon="11.38946422956522"><ele>78.0</ele><time>2026-04-25T12:39:43.98Z</time></trkpt><trkpt lat="43.796515182366676" lon="11.3895428371367"><ele>78.0</ele><time>2026-04-25T12:39:44.98Z</time></trkpt><trkpt lat="43.79641950732579" lon="11.389509232349704"><ele>78.0</ele><time>2026-04-25T12:39:45.98Z</time></trkpt><trkpt lat="43.79631861186343" lon="11.389503051617194"><ele>78.0</ele><time>2026-04-25T12:39:46.98Z</time></trkpt><trkpt lat="43.79621605163846" lon="11.38949192857066"><ele>78.0</ele><time>2026-04-25T12:39:47.98Z</time></trkpt><trkpt lat="43.796109919492956" lon="11.389490269543332"><ele>78.0</ele><time>2026-04-25T12:39:48.98Z</time></trkpt><trkpt lat="43.796008904630995" lon="11.389510256638511"><ele>78.0</ele><time>2026-04-25T12:39:49.98Z</time></trkpt><trkpt lat="43.795901727746234" lon="11.389540366769186"><ele>78.0</ele><time>2026-04-25T12:39:50.98Z</time></trkpt><trkpt lat="43.79578678187447" lon="11.389565552643202"><ele>78.0</ele><time>2026-04-25T12:39:51.98Z</time></trkpt><trkpt lat="43.79567712642758" lon="11.38959406629458"><ele>78.0</ele><time>2026-04-25T12:39:52.98Z</time></trkpt><trkpt lat="43.79558310943195" lon="11.389615074410358"><ele>78.0</ele><time>2026-04-25T12:39:53.98Z</time></trkpt><trkpt lat="43.795490303102405" lon="11.389644606310991"><ele>78.0</ele><time>2026-04-25T12:39:54.98Z</time></trkpt><trkpt lat="43.79537497979658" lon="11.389668846008222"><ele>78.0</ele><time>2026-04-25T12:39:55.98Z</time></trkpt><trkpt lat="43.7952525179388" lon="11.389717292589179"><ele>78.0</ele><time>2026-04-25T12:39:56.98Z</time></trkpt><trkpt lat="43.79514048104328" lon="11.389742990857826"><ele>77.8</ele><time>2026-04-25T12:39:57.98Z</time></trkpt><trkpt lat="43.79503944898577" lon="11.389776557692096"><ele>77.6</ele><time>2026-04-25T12:39:58.98Z</time></trkpt><trkpt lat="43.794939163241516" lon="11.389805029762217"><ele>77.4</ele><time>2026-04-25T12:39:59.98Z</time></trkpt><trkpt lat="43.79483134646432" lon="11.389838525987994"><ele>77.2</ele><time>2026-04-25T12:40:00.98Z</time></trkpt><trkpt lat="43.79473219787449" lon="11.389874042651478"><ele>77.0</ele><time>2026-04-25T12:40:01.98Z</time></trkpt><trkpt lat="43.79462527844796" lon="11.389908933989778"><ele>77.0</ele><time>2026-04-25T12:40:02.98Z</time></trkpt><trkpt lat="43.794505091116854" lon="11.389956236741153"><ele>77.0</ele><time>2026-04-25T12:40:03.98Z</time></trkpt><trkpt lat="43.79437801948089" lon="11.390004610847136"><ele>77.0</ele><time>2026-04-25T12:40:04.98Z</time></trkpt><trkpt lat="43.79425727044697" lon="11.39004136749803"><ele>77.0</ele><time>2026-04-25T12:40:05.98Z</time></trkpt><trkpt lat="43.79413959783098" lon="11.390078961037032"><ele>77.0</ele><time>2026-04-25T12:40:06.98Z</time></trkpt><trkpt lat="43.79403447533199" lon="11.390103273276225"><ele>77.0</ele><time>2026-04-25T12:40:07.98Z</time></trkpt><trkpt lat="43.793934900484324" lon="11.39011976590598"><ele>77.0</ele><time>2026-04-25T12:40:08.979Z</time></trkpt><trkpt lat="43.79383548541825" lon="11.390123888030198"><ele>77.0</ele><time>2026-04-25T12:40:09.979Z</time></trkpt><trkpt lat="43.793738827221006" lon="11.390105421042483"><ele>77.0</ele><time>2026-04-25T12:40:10.98Z</time></trkpt><trkpt lat="43.79364848398227" lon="11.39006965470675"><ele>77.0</ele><time>2026-04-25T12:40:11.979Z</time></trkpt><trkpt lat="43.79357227486608" lon="11.390000923400722"><ele>77.0</ele><time>2026-04-25T12:40:12.979Z</time></trkpt><trkpt lat="43.793495087828155" lon="11.389941818045058"><ele>77.0</ele><time>2026-04-25T12:40:13.98Z</time></trkpt><trkpt lat="43.793419885236126" lon="11.389895137784993"><ele>77.0</ele><time>2026-04-25T12:40:14.98Z</time></trkpt><trkpt lat="43.79335197803282" lon="11.389853676188679"><ele>77.0</ele><time>2026-04-25T12:40:15.98Z</time></trkpt><trkpt lat="43.79328709475731" lon="11.389808663516918"><ele>77.0</ele><time>2026-04-25T12:40:16.979Z</time></trkpt><trkpt lat="43.79318739058554" lon="11.38975323142091"><ele>76.8</ele><time>2026-04-25T12:40:18.98Z</time></trkpt><trkpt lat="43.79309624823548" lon="11.389690299549828"><ele>76.6</ele><time>2026-04-25T12:40:20.98Z</time></trkpt><trkpt lat="43.79302830240292" lon="11.389663983357408"><ele>76.39999999999999</ele><time>2026-04-25T12:40:24.98Z</time></trkpt><trkpt lat="43.79293131984798" lon="11.389648065086643"><ele>76.2</ele><time>2026-04-25T12:40:53.98Z</time></trkpt><trkpt lat="43.79280244229907" lon="11.389584226667587"><ele>76.0</ele><time>2026-04-25T12:40:55.98Z</time></trkpt><trkpt lat="43.79269061384683" lon="11.389598982412942"><ele>76.0</ele><time>2026-04-25T12:40:57.98Z</time></trkpt><trkpt lat="43.792621426557254" lon="11.389648691834013"><ele>76.0</ele><time>2026-04-25T12:40:58.98Z</time></trkpt><trkpt lat="43.79255428646825" lon="11.389716072768605"><ele>76.0</ele><time>2026-04-25T12:40:59.98Z</time></trkpt><trkpt lat="43.79247119881308" lon="11.389814435149454"><ele>76.0</ele><time>2026-04-25T12:41:00.98Z</time></trkpt><trkpt lat="43.79240476068077" lon="11.389915464803867"><ele>76.0</ele><time>2026-04-25T12:41:01.98Z</time></trkpt><trkpt lat="43.79233593985942" lon="11.390017840212927"><ele>76.0</ele><time>2026-04-25T12:41:02.98Z</time></trkpt><trkpt lat="43.79227156848742" lon="11.39012600247779"><ele>76.0</ele><time>2026-04-25T12:41:03.98Z</time></trkpt><trkpt lat="43.79219817830238" lon="11.39024374717471"><ele>76.0</ele><time>2026-04-25T12:41:04.98Z</time></trkpt><trkpt lat="43.79211498792348" lon="11.390377963479768"><ele>76.0</ele><time>2026-04-25T12:41:05.98Z</time></trkpt><trkpt lat="43.79202001185225" lon="11.39049340785137"><ele>75.75</ele><time>2026-04-25T12:41:06.98Z</time></trkpt><trkpt lat="43.791916068914915" lon="11.39060488085909"><ele>75.5</ele><time>2026-04-25T12:41:07.98Z</time></trkpt><trkpt lat="43.79181140479577" lon="11.390704172750851"><ele>75.25</ele><time>2026-04-25T12:41:08.98Z</time></trkpt><trkpt lat="43.791721801729786" lon="11.390798145046357"><ele>75.0</ele><time>2026-04-25T12:41:09.98Z</time></trkpt><trkpt lat="43.791641207468324" lon="11.390896319356983"><ele>75.0</ele><time>2026-04-25T12:41:10.98Z</time></trkpt><trkpt lat="43.79157480797907" lon="11.390992558729321"><ele>75.0</ele><time>2026-04-25T12:41:11.98Z</time></trkpt><trkpt lat="43.79149283118966" lon="11.391091430830425"><ele>75.0</ele><time>2026-04-25T12:41:12.98Z</time></trkpt><trkpt lat="43.791417844618884" lon="11.391188994088159"><ele>75.0</ele><time>2026-04-25T12:41:13.98Z</time></trkpt><trkpt lat="43.7913516750343" lon="11.391305591764032"><ele>75.0</ele><time>2026-04-25T12:41:14.98Z</time></trkpt><trkpt lat="43.79129484033163" lon="11.391440158311294"><ele>75.5</ele><time>2026-04-25T12:41:15.98Z</time></trkpt><trkpt lat="43.79128649380921" lon="11.391618544601899"><ele>76.0</ele><time>2026-04-25T12:41:16.98Z</time></trkpt><trkpt lat="43.79128063931868" lon="11.391807029472872"><ele>76.5</ele><time>2026-04-25T12:41:17.98Z</time></trkpt><trkpt lat="43.79128610799917" lon="11.391976564463109"><ele>77.0</ele><time>2026-04-25T12:41:18.98Z</time></trkpt><trkpt lat="43.791275942862114" lon="11.392121040804525"><ele>77.4</ele><time>2026-04-25T12:41:19.98Z</time></trkpt><trkpt lat="43.791264364584656" lon="11.392253423962584"><ele>77.80000000000001</ele><time>2026-04-25T12:41:20.98Z</time></trkpt><trkpt lat="43.79123243763595" lon="11.392377733738392"><ele>78.2</ele><time>2026-04-25T12:41:21.98Z</time></trkpt><trkpt lat="43.7911680366521" lon="11.392467876460314"><ele>78.60000000000001</ele><time>2026-04-25T12:41:22.98Z</time></trkpt><trkpt lat="43.791101958909266" lon="11.392556642152904"><ele>79.0</ele><time>2026-04-25T12:41:23.98Z</time></trkpt><trkpt lat="43.791013326380146" lon="11.392622353605315"><ele>78.25</ele><time>2026-04-25T12:41:24.98Z</time></trkpt><trkpt lat="43.7908978372555" lon="11.392656110125776"><ele>77.5</ele><time>2026-04-25T12:41:25.98Z</time></trkpt><trkpt lat="43.79076914073238" lon="11.392675006367208"><ele>76.75</ele><time>2026-04-25T12:41:26.98Z</time></trkpt><trkpt lat="43.790655900062674" lon="11.392704464036099"><ele>76.0</ele><time>2026-04-25T12:41:27.98Z</time></trkpt><trkpt lat="43.79054955673647" lon="11.392747849218441"><ele>76.0</ele><time>2026-04-25T12:41:28.98Z</time></trkpt><trkpt lat="43.790454114660044" lon="11.392782008387686"><ele>76.0</ele><time>2026-04-25T12:41:29.98Z</time></trkpt><trkpt lat="43.79035764435513" lon="11.392822210803132"><ele>76.0</ele><time>2026-04-25T12:41:30.98Z</time></trkpt><trkpt lat="43.7902531920125" lon="11.39289511418811"><ele>76.0</ele><time>2026-04-25T12:41:31.98Z</time></trkpt><trkpt lat="43.790158591374954" lon="11.392970923109843"><ele>76.0</ele><time>2026-04-25T12:41:32.98Z</time></trkpt><trkpt lat="43.7900468306481" lon="11.393086236665129"><ele>76.75</ele><time>2026-04-25T12:41:33.98Z</time></trkpt><trkpt lat="43.789942998872704" lon="11.39321529447798"><ele>77.5</ele><time>2026-04-25T12:41:34.98Z</time></trkpt><trkpt lat="43.789849134210854" lon="11.393346260891331"><ele>78.25</ele><time>2026-04-25T12:41:35.98Z</time></trkpt><trkpt lat="43.78975576381951" lon="11.393470555558398"><ele>79.0</ele><time>2026-04-25T12:41:36.98Z</time></trkpt><trkpt lat="43.78966219782766" lon="11.393554869794972"><ele>79.0</ele><time>2026-04-25T12:41:37.98Z</time></trkpt><trkpt lat="43.78957669353309" lon="11.39363693820878"><ele>79.0</ele><time>2026-04-25T12:41:38.98Z</time></trkpt><trkpt lat="43.78945866574466" lon="11.393683769418308"><ele>79.0</ele><time>2026-04-25T12:41:39.98Z</time></trkpt><trkpt lat="43.78936762151103" lon="11.39375112461571"><ele>79.0</ele><time>2026-04-25T12:41:40.98Z</time></trkpt><trkpt lat="43.78927723076457" lon="11.393817477899079"><ele>79.0</ele><time>2026-04-25T12:41:41.98Z</time></trkpt><trkpt lat="43.78917728203474" lon="11.393884584676242"><ele>78.75</ele><time>2026-04-25T12:41:42.98Z</time></trkpt><trkpt lat="43.78907999607116" lon="11.393972067931779"><ele>78.5</ele><time>2026-04-25T12:41:43.98Z</time></trkpt><trkpt lat="43.78896970305552" lon="11.394053248175172"><ele>78.25</ele><time>2026-04-25T12:41:44.98Z</time></trkpt><trkpt lat="43.78885305900893" lon="11.394142464096996"><ele>78.0</ele><time>2026-04-25T12:41:45.98Z</time></trkpt><trkpt lat="43.788744771773715" lon="11.39422517067809"><ele>78.0</ele><time>2026-04-25T12:41:46.98Z</time></trkpt><trkpt lat="43.78864468862842" lon="11.394299791486215"><ele>78.0</ele><time>2026-04-25T12:41:47.98Z</time></trkpt><trkpt lat="43.788568342832704" lon="11.394361477938048"><ele>78.0</ele><time>2026-04-25T12:41:48.98Z</time></trkpt><trkpt lat="43.78851156899128" lon="11.394400466278471"><ele>78.0</ele><time>2026-04-25T12:41:50.98Z</time></trkpt><trkpt lat="43.788329271308044" lon="11.394531573208539"><ele>78.0</ele><time>2026-04-25T12:42:20.98Z</time></trkpt><trkpt lat="43.7882527673026" lon="11.394586832184972"><ele>78.0</ele><time>2026-04-25T12:42:21.98Z</time></trkpt><trkpt lat="43.788172915759915" lon="11.394644568770135"><ele>78.0</ele><time>2026-04-25T12:42:22.98Z</time></trkpt><trkpt lat="43.78808378684032" lon="11.394706908783624"><ele>78.0</ele><time>2026-04-25T12:42:23.981Z</time></trkpt><trkpt lat="43.7879779584537" lon="11.394780928898237"><ele>78.0</ele><time>2026-04-25T12:42:24.981Z</time></trkpt><trkpt lat="43.78786996404759" lon="11.394856459025288"><ele>78.0</ele><time>2026-04-25T12:42:25.98Z</time></trkpt><trkpt lat="43.787762164966175" lon="11.39493404259563"><ele>78.0</ele><time>2026-04-25T12:42:26.981Z</time></trkpt><trkpt lat="43.787656451706845" lon="11.395023858978568"><ele>78.0</ele><time>2026-04-25T12:42:27.981Z</time></trkpt><trkpt lat="43.78756661758741" lon="11.395142341693598"><ele>78.0</ele><time>2026-04-25T12:42:28.981Z</time></trkpt><trkpt lat="43.78749306514762" lon="11.395288231057133"><ele>78.0</ele><time>2026-04-25T12:42:29.981Z</time></trkpt><trkpt lat="43.787421154292126" lon="11.39544365023142"><ele>78.0</ele><time>2026-04-25T12:42:30.981Z</time></trkpt><trkpt lat="43.787349219267355" lon="11.395611846186338"><ele>78.0</ele><time>2026-04-25T12:42:31.981Z</time></trkpt><trkpt lat="43.787277778615625" lon="11.395795108507006"><ele>78.0</ele><time>2026-04-25T12:42:32.981Z</time></trkpt><trkpt lat="43.78720156199312" lon="11.3959916577815"><ele>78.0</ele><time>2026-04-25T12:42:33.981Z</time></trkpt><trkpt lat="43.7871392766018" lon="11.396167303835114"><ele>78.0</ele><time>2026-04-25T12:42:34.981Z</time></trkpt><trkpt lat="43.78703661866418" lon="11.396330872361515"><ele>78.0</ele><time>2026-04-25T12:42:35.981Z</time></trkpt><trkpt lat="43.78697078472369" lon="11.396520867568226"><ele>78.0</ele><time>2026-04-25T12:42:36.981Z</time></trkpt><trkpt lat="43.7868992453943" lon="11.396686603057434"><ele>78.0</ele><time>2026-04-25T12:42:37.981Z</time></trkpt><trkpt lat="43.786837635518715" lon="11.3968330161468"><ele>78.0</ele><time>2026-04-25T12:42:38.981Z</time></trkpt><trkpt lat="43.78677827390308" lon="11.396973113389429"><ele>78.0</ele><time>2026-04-25T12:42:39.981Z</time></trkpt><trkpt lat="43.78671757275216" lon="11.397113695510582"><ele>77.8</ele><time>2026-04-25T12:42:40.981Z</time></trkpt><trkpt lat="43.7866663347967" lon="11.397237080961473"><ele>77.6</ele><time>2026-04-25T12:42:41.981Z</time></trkpt><trkpt lat="43.78661717223625" lon="11.397354415602651"><ele>77.4</ele><time>2026-04-25T12:42:42.981Z</time></trkpt><trkpt lat="43.78656147085524" lon="11.397473674646545"><ele>77.2</ele><time>2026-04-25T12:42:43.981Z</time></trkpt><trkpt lat="43.78650492616325" lon="11.39756038221238"><ele>77.0</ele><time>2026-04-25T12:42:44.981Z</time></trkpt><trkpt lat="43.78644113899353" lon="11.397624317694978"><ele>77.0</ele><time>2026-04-25T12:42:45.981Z</time></trkpt><trkpt lat="43.78636852484721" lon="11.39768396965935"><ele>77.0</ele><time>2026-04-25T12:42:46.981Z</time></trkpt><trkpt lat="43.78631891645734" lon="11.397740094789588"><ele>77.0</ele><time>2026-04-25T12:42:47.981Z</time></trkpt><trkpt lat="43.78625763648542" lon="11.397805805779461"><ele>77.0</ele><time>2026-04-25T12:42:48.981Z</time></trkpt><trkpt lat="43.78621692371092" lon="11.39789136486801"><ele>77.0</ele><time>2026-04-25T12:42:49.981Z</time></trkpt><trkpt lat="43.78620522317336" lon="11.39797825917916"><ele>77.0</ele><time>2026-04-25T12:42:50.981Z</time></trkpt><trkpt lat="43.78620397585747" lon="11.398095071583558"><ele>77.0</ele><time>2026-04-25T12:42:51.981Z</time></trkpt><trkpt lat="43.78620925161795" lon="11.39822883186473"><ele>77.5</ele><time>2026-04-25T12:42:52.981Z</time></trkpt><trkpt lat="43.78620629323962" lon="11.398384758848762"><ele>78.0</ele><time>2026-04-25T12:42:53.981Z</time></trkpt><trkpt lat="43.78615776875189" lon="11.398560150346622"><ele>78.5</ele><time>2026-04-25T12:42:54.981Z</time></trkpt><trkpt lat="43.7860706256185" lon="11.39873074475625"><ele>79.0</ele><time>2026-04-25T12:42:55.981Z</time></trkpt><trkpt lat="43.78597994728156" lon="11.39892847522858"><ele>79.0</ele><time>2026-04-25T12:42:56.981Z</time></trkpt><trkpt lat="43.785888969061105" lon="11.399119771539521"><ele>79.0</ele><time>2026-04-25T12:42:57.981Z</time></trkpt><trkpt lat="43.78581291915513" lon="11.39929937842459"><ele>79.0</ele><time>2026-04-25T12:42:58.981Z</time></trkpt><trkpt lat="43.78574587131306" lon="11.399461609972946"><ele>79.0</ele><time>2026-04-25T12:42:59.981Z</time></trkpt><trkpt lat="43.7856766153447" lon="11.399595366359822"><ele>79.0</ele><time>2026-04-25T12:43:00.981Z</time></trkpt><trkpt lat="43.78560516426254" lon="11.399729766440457"><ele>79.0</ele><time>2026-04-25T12:43:01.981Z</time></trkpt><trkpt lat="43.785538750005706" lon="11.399859529500233"><ele>79.0</ele><time>2026-04-25T12:43:02.981Z</time></trkpt><trkpt lat="43.7854793603331" lon="11.400000760598601"><ele>79.75</ele><time>2026-04-25T12:43:03.981Z</time></trkpt><trkpt lat="43.785403261178985" lon="11.400143896506071"><ele>80.5</ele><time>2026-04-25T12:43:04.981Z</time></trkpt><trkpt lat="43.78533595684826" lon="11.40028744854561"><ele>81.25</ele><time>2026-04-25T12:43:05.981Z</time></trkpt><trkpt lat="43.78527976207424" lon="11.400435547521205"><ele>82.0</ele><time>2026-04-25T12:43:06.981Z</time></trkpt><trkpt lat="43.78521369421987" lon="11.400592967431374"><ele>82.25</ele><time>2026-04-25T12:43:07.981Z</time></trkpt><trkpt lat="43.7851453967906" lon="11.400748481627154"><ele>82.5</ele><time>2026-04-25T12:43:08.981Z</time></trkpt><trkpt lat="43.78505902162878" lon="11.400905940477257"><ele>82.75</ele><time>2026-04-25T12:43:09.981Z</time></trkpt><trkpt lat="43.78497482558837" lon="11.401069538784059"><ele>83.0</ele><time>2026-04-25T12:43:10.981Z</time></trkpt><trkpt lat="43.78490095261698" lon="11.40124856992609"><ele>83.0</ele><time>2026-04-25T12:43:11.981Z</time></trkpt><trkpt lat="43.784824570564986" lon="11.401423353321343"><ele>83.0</ele><time>2026-04-25T12:43:12.981Z</time></trkpt><trkpt lat="43.78474890369261" lon="11.401587359776862"><ele>83.0</ele><time>2026-04-25T12:43:13.981Z</time></trkpt><trkpt lat="43.784682756246646" lon="11.401757208314276"><ele>83.0</ele><time>2026-04-25T12:43:14.981Z</time></trkpt><trkpt lat="43.784619883630675" lon="11.401930672995254"><ele>83.0</ele><time>2026-04-25T12:43:15.981Z</time></trkpt><trkpt lat="43.78454872597843" lon="11.402095422844168"><ele>83.0</ele><time>2026-04-25T12:43:16.981Z</time></trkpt><trkpt lat="43.784477651106904" lon="11.402242273486685"><ele>83.0</ele><time>2026-04-25T12:43:17.981Z</time></trkpt><trkpt lat="43.78440937392181" lon="11.40239614946749"><ele>83.0</ele><time>2026-04-25T12:43:18.981Z</time></trkpt><trkpt lat="43.78432969605651" lon="11.402559266220464"><ele>82.75</ele><time>2026-04-25T12:43:19.981Z</time></trkpt><trkpt lat="43.78424779600931" lon="11.402724128221676"><ele>82.5</ele><time>2026-04-25T12:43:20.981Z</time></trkpt><trkpt lat="43.78416697583862" lon="11.40289014353772"><ele>82.25</ele><time>2026-04-25T12:43:21.981Z</time></trkpt><trkpt lat="43.784085680309566" lon="11.403048832262213"><ele>82.0</ele><time>2026-04-25T12:43:22.981Z</time></trkpt><trkpt lat="43.78399754474111" lon="11.403201366276141"><ele>82.5</ele><time>2026-04-25T12:43:23.981Z</time></trkpt><trkpt lat="43.783908660582185" lon="11.40335811057205"><ele>83.0</ele><time>2026-04-25T12:43:24.981Z</time></trkpt><trkpt lat="43.78380800292417" lon="11.403511023233001"><ele>83.5</ele><time>2026-04-25T12:43:25.981Z</time></trkpt><trkpt lat="43.783719028766605" lon="11.403674667736746"><ele>84.0</ele><time>2026-04-25T12:43:26.981Z</time></trkpt><trkpt lat="43.783621753254124" lon="11.403841282859103"><ele>84.0</ele><time>2026-04-25T12:43:27.981Z</time></trkpt><trkpt lat="43.783530071533654" lon="11.40400308536223"><ele>84.0</ele><time>2026-04-25T12:43:28.981Z</time></trkpt><trkpt lat="43.78343963866655" lon="11.404179481596907"><ele>84.0</ele><time>2026-04-25T12:43:29.981Z</time></trkpt><trkpt lat="43.78335490758258" lon="11.404364703268408"><ele>83.66666666666667</ele><time>2026-04-25T12:43:30.981Z</time></trkpt><trkpt lat="43.78328026092938" lon="11.404560233876689"><ele>83.33333333333334</ele><time>2026-04-25T12:43:31.981Z</time></trkpt><trkpt lat="43.783194373151574" lon="11.404741468834759"><ele>83.0</ele><time>2026-04-25T12:43:32.981Z</time></trkpt><trkpt lat="43.78311729413112" lon="11.404921128458136"><ele>83.25</ele><time>2026-04-25T12:43:33.981Z</time></trkpt><trkpt lat="43.78304707317804" lon="11.40509433506778"><ele>83.5</ele><time>2026-04-25T12:43:34.981Z</time></trkpt><trkpt lat="43.7829681868958" lon="11.405269282162347"><ele>83.75</ele><time>2026-04-25T12:43:35.981Z</time></trkpt><trkpt lat="43.782878660426725" lon="11.405430748916398"><ele>84.0</ele><time>2026-04-25T12:43:36.981Z</time></trkpt><trkpt lat="43.78278999107005" lon="11.405591691997031"><ele>84.0</ele><time>2026-04-25T12:43:37.981Z</time></trkpt><trkpt lat="43.78270551543521" lon="11.405766352235242"><ele>84.0</ele><time>2026-04-25T12:43:38.981Z</time></trkpt><trkpt lat="43.78261494763718" lon="11.405948976739062"><ele>84.0</ele><time>2026-04-25T12:43:39.981Z</time></trkpt><trkpt lat="43.782513863777204" lon="11.406127650260482"><ele>83.66666666666667</ele><time>2026-04-25T12:43:40.981Z</time></trkpt><trkpt lat="43.782410885226774" lon="11.406288747856895"><ele>83.33333333333334</ele><time>2026-04-25T12:43:41.981Z</time></trkpt><trkpt lat="43.782301394839536" lon="11.406421949241397"><ele>83.0</ele><time>2026-04-25T12:43:42.981Z</time></trkpt><trkpt lat="43.78216209652416" lon="11.40653867316883"><ele>83.0</ele><time>2026-04-25T12:43:43.981Z</time></trkpt><trkpt lat="43.78199850969119" lon="11.406614806309689"><ele>83.0</ele><time>2026-04-25T12:43:44.981Z</time></trkpt><trkpt lat="43.781842322086696" lon="11.406733784724773"><ele>83.0</ele><time>2026-04-25T12:43:45.981Z</time></trkpt><trkpt lat="43.781659269095485" lon="11.406828760734289"><ele>83.0</ele><time>2026-04-25T12:43:46.981Z</time></trkpt><trkpt lat="43.781499582842706" lon="11.406939277711572"><ele>83.0</ele><time>2026-04-25T12:43:47.981Z</time></trkpt><trkpt lat="43.78133417620027" lon="11.407063750344928"><ele>83.0</ele><time>2026-04-25T12:43:48.981Z</time></trkpt><trkpt lat="43.7811832777014" lon="11.407194664243164"><ele>83.0</ele><time>2026-04-25T12:43:49.981Z</time></trkpt><trkpt lat="43.781037212113894" lon="11.407328713932039"><ele>83.0</ele><time>2026-04-25T12:43:50.981Z</time></trkpt><trkpt lat="43.78089670856766" lon="11.407457659320203"><ele>83.0</ele><time>2026-04-25T12:43:51.981Z</time></trkpt><trkpt lat="43.78079380878183" lon="11.407577793064721"><ele>83.0</ele><time>2026-04-25T12:43:52.981Z</time></trkpt><trkpt lat="43.78068623922861" lon="11.407651674954199"><ele>83.0</ele><time>2026-04-25T12:43:53.981Z</time></trkpt><trkpt lat="43.78059038900714" lon="11.407740241137839"><ele>83.0</ele><time>2026-04-25T12:43:54.981Z</time></trkpt><trkpt lat="43.780491505070906" lon="11.407831610530534"><ele>83.0</ele><time>2026-04-25T12:43:55.981Z</time></trkpt><trkpt lat="43.78038891842117" lon="11.407926401193327"><ele>83.25</ele><time>2026-04-25T12:43:56.981Z</time></trkpt><trkpt lat="43.78028909675754" lon="11.408018636827398"><ele>83.5</ele><time>2026-04-25T12:43:57.981Z</time></trkpt><trkpt lat="43.780188063067804" lon="11.408111992636911"><ele>83.75</ele><time>2026-04-25T12:43:58.981Z</time></trkpt><trkpt lat="43.780074227547736" lon="11.408218127409834"><ele>84.0</ele><time>2026-04-25T12:43:59.981Z</time></trkpt><trkpt lat="43.7799610405112" lon="11.40832446225212"><ele>84.0</ele><time>2026-04-25T12:44:00.981Z</time></trkpt><trkpt lat="43.779842942286756" lon="11.408437793247554"><ele>84.0</ele><time>2026-04-25T12:44:01.981Z</time></trkpt><trkpt lat="43.779739033672655" lon="11.408574405939461"><ele>84.0</ele><time>2026-04-25T12:44:02.981Z</time></trkpt><trkpt lat="43.779649181598735" lon="11.408741930726576"><ele>84.0</ele><time>2026-04-25T12:44:03.981Z</time></trkpt><trkpt lat="43.77959628039421" lon="11.408944794321878"><ele>84.0</ele><time>2026-04-25T12:44:04.981Z</time></trkpt><trkpt lat="43.77953424247414" lon="11.40914482710586"><ele>84.0</ele><time>2026-04-25T12:44:05.981Z</time></trkpt><trkpt lat="43.77947625563057" lon="11.40934699545144"><ele>84.0</ele><time>2026-04-25T12:44:06.981Z</time></trkpt><trkpt lat="43.77940995115592" lon="11.409546855440965"><ele>82.0</ele><time>2026-04-25T12:44:07.981Z</time></trkpt><trkpt lat="43.77933777869238" lon="11.4097492855773"><ele>80.0</ele><time>2026-04-25T12:44:08.981Z</time></trkpt><trkpt lat="43.77925791374767" lon="11.409948998605458"><ele>78.0</ele><time>2026-04-25T12:44:09.981Z</time></trkpt><trkpt lat="43.77917018786862" lon="11.410151663445149"><ele>78.0</ele><time>2026-04-25T12:44:10.981Z</time></trkpt><trkpt lat="43.77905896687451" lon="11.410341437153823"><ele>78.0</ele><time>2026-04-25T12:44:11.981Z</time></trkpt><trkpt lat="43.77892743217824" lon="11.410536114785153"><ele>78.0</ele><time>2026-04-25T12:44:12.981Z</time></trkpt><trkpt lat="43.77878487607761" lon="11.410753722791387"><ele>78.0</ele><time>2026-04-25T12:44:13.981Z</time></trkpt><trkpt lat="43.77863876810502" lon="11.410982943085534"><ele>78.0</ele><time>2026-04-25T12:44:14.981Z</time></trkpt><trkpt lat="43.7784809808855" lon="11.411204050028799"><ele>78.0</ele><time>2026-04-25T12:44:15.981Z</time></trkpt><trkpt lat="43.77834212914324" lon="11.411440107985582"><ele>79.33333333333333</ele><time>2026-04-25T12:44:16.981Z</time></trkpt><trkpt lat="43.778215840330766" lon="11.411663617321633"><ele>80.66666666666666</ele><time>2026-04-25T12:44:17.981Z</time></trkpt><trkpt lat="43.77809967273081" lon="11.411871788545362"><ele>82.0</ele><time>2026-04-25T12:44:18.981Z</time></trkpt><trkpt lat="43.777994909045255" lon="11.41205984912679"><ele>88.66666666666666</ele><time>2026-04-25T12:44:19.981Z</time></trkpt><trkpt lat="43.77788764742232" lon="11.412252393682488"><ele>95.33333333333333</ele><time>2026-04-25T12:44:20.981Z</time></trkpt><trkpt lat="43.77778593251694" lon="11.41243660008141"><ele>102.0</ele><time>2026-04-25T12:44:21.981Z</time></trkpt><trkpt lat="43.77768587437875" lon="11.412617894924974"><ele>97.33333333333333</ele><time>2026-04-25T12:44:22.981Z</time></trkpt><trkpt lat="43.77758733122316" lon="11.41279936278784"><ele>92.66666666666666</ele><time>2026-04-25T12:44:23.981Z</time></trkpt><trkpt lat="43.77750298863934" lon="11.41299898658652"><ele>88.0</ele><time>2026-04-25T12:44:24.981Z</time></trkpt><trkpt lat="43.77740334688394" lon="11.413187350949402"><ele>88.0</ele><time>2026-04-25T12:44:25.981Z</time></trkpt><trkpt lat="43.77731631662205" lon="11.413389167403565"><ele>88.0</ele><time>2026-04-25T12:44:26.981Z</time></trkpt><trkpt lat="43.77722602108899" lon="11.413594386985206"><ele>88.0</ele><time>2026-04-25T12:44:27.981Z</time></trkpt><trkpt lat="43.7771371217972" lon="11.413811032624277"><ele>91.66666666666666</ele><time>2026-04-25T12:44:28.981Z</time></trkpt><trkpt lat="43.77705395657923" lon="11.414012068237211"><ele>95.33333333333333</ele><time>2026-04-25T12:44:29.981Z</time></trkpt><trkpt lat="43.7769780776353" lon="11.414218496140329"><ele>99.0</ele><time>2026-04-25T12:44:30.98Z</time></trkpt><trkpt lat="43.77689211763828" lon="11.4144209332054"><ele>95.0</ele><time>2026-04-25T12:44:31.981Z</time></trkpt><trkpt lat="43.77682412651552" lon="11.414608642916372"><ele>91.0</ele><time>2026-04-25T12:44:32.981Z</time></trkpt><trkpt lat="43.77675589694132" lon="11.414788796427631"><ele>87.0</ele><time>2026-04-25T12:44:33.981Z</time></trkpt><trkpt lat="43.77669026139364" lon="11.414972528187043"><ele>83.0</ele><time>2026-04-25T12:44:34.981Z</time></trkpt><trkpt lat="43.7766147502553" lon="11.415144772351967"><ele>83.0</ele><time>2026-04-25T12:44:35.981Z</time></trkpt><trkpt lat="43.77654067214023" lon="11.415290069162"><ele>83.0</ele><time>2026-04-25T12:44:36.981Z</time></trkpt><trkpt lat="43.77645371353103" lon="11.415431131440702"><ele>83.0</ele><time>2026-04-25T12:44:37.981Z</time></trkpt><trkpt lat="43.776357801108354" lon="11.415569545783587"><ele>83.0</ele><time>2026-04-25T12:44:38.981Z</time></trkpt><trkpt lat="43.77625832547151" lon="11.415693303193734"><ele>83.25</ele><time>2026-04-25T12:44:39.981Z</time></trkpt><trkpt lat="43.776145939259244" lon="11.415810870084792"><ele>83.5</ele><time>2026-04-25T12:44:40.981Z</time></trkpt><trkpt lat="43.77602498586159" lon="11.415917409826621"><ele>83.75</ele><time>2026-04-25T12:44:41.981Z</time></trkpt><trkpt lat="43.775896240464476" lon="11.416017697178663"><ele>84.0</ele><time>2026-04-25T12:44:42.981Z</time></trkpt><trkpt lat="43.77574991833478" lon="11.416079519167871"><ele>83.25</ele><time>2026-04-25T12:44:43.981Z</time></trkpt><trkpt lat="43.775620609724406" lon="11.41616398219838"><ele>82.5</ele><time>2026-04-25T12:44:44.981Z</time></trkpt><trkpt lat="43.7754950399707" lon="11.416234442522446"><ele>81.75</ele><time>2026-04-25T12:44:45.981Z</time></trkpt><trkpt lat="43.775368698804314" lon="11.416298271459743"><ele>81.0</ele><time>2026-04-25T12:44:46.981Z</time></trkpt><trkpt lat="43.77525278501083" lon="11.416361138192634"><ele>81.19999999999999</ele><time>2026-04-25T12:44:47.981Z</time></trkpt><trkpt lat="43.77513568797483" lon="11.416404151346871"><ele>81.39999999999999</ele><time>2026-04-25T12:44:48.981Z</time></trkpt><trkpt lat="43.775024819990584" lon="11.416418667279462"><ele>81.6</ele><time>2026-04-25T12:44:49.981Z</time></trkpt><trkpt lat="43.774927588747246" lon="11.416416039802053"><ele>81.8</ele><time>2026-04-25T12:44:50.981Z</time></trkpt><trkpt lat="43.77484842465086" lon="11.416385632882125"><ele>82.0</ele><time>2026-04-25T12:44:51.981Z</time></trkpt><trkpt lat="43.774784444451306" lon="11.416359108110855"><ele>81.66666666666666</ele><time>2026-04-25T12:44:52.981Z</time></trkpt><trkpt lat="43.77470361815613" lon="11.41631399111167"><ele>81.33333333333333</ele><time>2026-04-25T12:44:54.981Z</time></trkpt><trkpt lat="43.77461412485654" lon="11.416253101908486"><ele>81.0</ele><time>2026-04-25T12:44:56.981Z</time></trkpt><trkpt lat="43.77455346044112" lon="11.41619644532009"><ele>80.66666666666667</ele><time>2026-04-25T12:44:57.981Z</time></trkpt><trkpt lat="43.774518244107234" lon="11.41608507124767"><ele>80.33333333333334</ele><time>2026-04-25T12:44:58.981Z</time></trkpt><trkpt lat="43.77446327022533" lon="11.415977064689617"><ele>80.0</ele><time>2026-04-25T12:44:59.981Z</time></trkpt><trkpt lat="43.774414800025994" lon="11.415855489251259"><ele>80.0</ele><time>2026-04-25T12:45:00.981Z</time></trkpt><trkpt lat="43.77438778917616" lon="11.415703177786947"><ele>80.0</ele><time>2026-04-25T12:45:01.981Z</time></trkpt><trkpt lat="43.77435912303283" lon="11.415538097319107"><ele>80.0</ele><time>2026-04-25T12:45:02.981Z</time></trkpt><trkpt lat="43.77437083298946" lon="11.415339194844762"><ele>80.0</ele><time>2026-04-25T12:45:03.981Z</time></trkpt><trkpt lat="43.77435043659912" lon="11.41511930938006"><ele>79.33333333333334</ele><time>2026-04-25T12:45:04.981Z</time></trkpt><trkpt lat="43.77432888603637" lon="11.41488804649743"><ele>78.66666666666667</ele><time>2026-04-25T12:45:05.981Z</time></trkpt><trkpt lat="43.77430644280184" lon="11.414648298955534"><ele>78.0</ele><time>2026-04-25T12:45:06.981Z</time></trkpt><trkpt lat="43.77428545398234" lon="11.41442629797293"><ele>78.0</ele><time>2026-04-25T12:45:07.981Z</time></trkpt><trkpt lat="43.774264696861486" lon="11.414206747716117"><ele>78.0</ele><time>2026-04-25T12:45:08.981Z</time></trkpt><trkpt lat="43.774245778523415" lon="11.414006823864089"><ele>78.0</ele><time>2026-04-25T12:45:09.981Z</time></trkpt><trkpt lat="43.77422804107702" lon="11.413821335177344"><ele>78.0</ele><time>2026-04-25T12:45:10.981Z</time></trkpt><trkpt lat="43.77420977282437" lon="11.413630295687748"><ele>78.0</ele><time>2026-04-25T12:45:11.981Z</time></trkpt><trkpt lat="43.77419210397082" lon="11.413445524413781"><ele>78.0</ele><time>2026-04-25T12:45:12.981Z</time></trkpt><trkpt lat="43.77416122372504" lon="11.413287422442162"><ele>78.0</ele><time>2026-04-25T12:45:13.981Z</time></trkpt><trkpt lat="43.774175376554794" lon="11.4131373233835"><ele>78.0</ele><time>2026-04-25T12:45:14.981Z</time></trkpt><trkpt lat="43.7741799903057" lon="11.413002468462237"><ele>78.16666666666667</ele><time>2026-04-25T12:45:15.981Z</time></trkpt><trkpt lat="43.77417289296461" lon="11.412868622445723"><ele>78.33333333333333</ele><time>2026-04-25T12:45:16.981Z</time></trkpt><trkpt lat="43.7741723720828" lon="11.412758075317248"><ele>78.5</ele><time>2026-04-25T12:45:17.981Z</time></trkpt><trkpt lat="43.77417523318341" lon="11.412659092282128"><ele>78.66666666666666</ele><time>2026-04-25T12:45:18.981Z</time></trkpt><trkpt lat="43.77416912796034" lon="11.412568406417813"><ele>78.83333333333333</ele><time>2026-04-25T12:45:19.981Z</time></trkpt><trkpt lat="43.77417417178045" lon="11.412437937310054"><ele>79.0</ele><time>2026-04-25T12:45:21.981Z</time></trkpt><trkpt lat="43.773998627094564" lon="11.41240523154144"><ele>79.0</ele><time>2026-04-25T12:45:23.981Z</time></trkpt><trkpt lat="43.77393237100629" lon="11.412479635649616"><ele>79.0</ele><time>2026-04-25T12:45:24.981Z</time></trkpt><trkpt lat="43.77385251799559" lon="11.412550298655876"><ele>79.0</ele><time>2026-04-25T12:45:25.981Z</time></trkpt><trkpt lat="43.77372920103157" lon="11.412586544899437"><ele>79.0</ele><time>2026-04-25T12:45:26.981Z</time></trkpt><trkpt lat="43.77361310890837" lon="11.412666121203888"><ele>79.0</ele><time>2026-04-25T12:45:27.981Z</time></trkpt><trkpt lat="43.773502295482814" lon="11.412743637084038"><ele>79.25</ele><time>2026-04-25T12:45:28.981Z</time></trkpt><trkpt lat="43.77338453938556" lon="11.412835937045218"><ele>79.5</ele><time>2026-04-25T12:45:29.981Z</time></trkpt><trkpt lat="43.77327472850059" lon="11.412938059641263"><ele>79.75</ele><time>2026-04-25T12:45:30.981Z</time></trkpt><trkpt lat="43.77318920982962" lon="11.413085721563505"><ele>80.0</ele><time>2026-04-25T12:45:31.981Z</time></trkpt><trkpt lat="43.77309646457468" lon="11.413248679331524"><ele>80.0</ele><time>2026-04-25T12:45:32.981Z</time></trkpt><trkpt lat="43.77299834673953" lon="11.413452913535327"><ele>80.0</ele><time>2026-04-25T12:45:33.981Z</time></trkpt><trkpt lat="43.7729186241704" lon="11.413631186754177"><ele>80.0</ele><time>2026-04-25T12:45:34.981Z</time></trkpt><trkpt lat="43.772851171170956" lon="11.413801581825112"><ele>79.5</ele><time>2026-04-25T12:45:35.981Z</time></trkpt><trkpt lat="43.772777313949774" lon="11.413958654741895"><ele>79.0</ele><time>2026-04-25T12:45:36.981Z</time></trkpt><trkpt lat="43.77269100695561" lon="11.41409902322681"><ele>78.5</ele><time>2026-04-25T12:45:37.981Z</time></trkpt><trkpt lat="43.772592192016674" lon="11.414225398415441"><ele>78.0</ele><time>2026-04-25T12:45:38.981Z</time></trkpt><trkpt lat="43.7724992168124" lon="11.414342124754004"><ele>78.0</ele><time>2026-04-25T12:45:39.981Z</time></trkpt><trkpt lat="43.77239267141038" lon="11.414455162536497"><ele>78.0</ele><time>2026-04-25T12:45:40.981Z</time></trkpt><trkpt lat="43.77231663057993" lon="11.414618388849215"><ele>78.0</ele><time>2026-04-25T12:45:41.981Z</time></trkpt><trkpt lat="43.77227251565918" lon="11.414817558285495"><ele>78.0</ele><time>2026-04-25T12:45:42.981Z</time></trkpt><trkpt lat="43.77221419987803" lon="11.41501478474189"><ele>77.33333333333333</ele><time>2026-04-25T12:45:43.981Z</time></trkpt><trkpt lat="43.77216568502403" lon="11.4152234517642"><ele>76.66666666666666</ele><time>2026-04-25T12:45:44.981Z</time></trkpt><trkpt lat="43.77210544102976" lon="11.415440591272796"><ele>76.0</ele><time>2026-04-25T12:45:45.981Z</time></trkpt><trkpt lat="43.7720503511137" lon="11.415668085325441"><ele>76.0</ele><time>2026-04-25T12:45:46.981Z</time></trkpt><trkpt lat="43.77199879183776" lon="11.415913605485667"><ele>76.0</ele><time>2026-04-25T12:45:47.981Z</time></trkpt><trkpt lat="43.77193778258213" lon="11.416132102882745"><ele>76.0</ele><time>2026-04-25T12:45:48.981Z</time></trkpt><trkpt lat="43.771858358375965" lon="11.416352229441637"><ele>77.0</ele><time>2026-04-25T12:45:49.981Z</time></trkpt><trkpt lat="43.77177504859246" lon="11.416568569804044"><ele>78.0</ele><time>2026-04-25T12:45:50.981Z</time></trkpt><trkpt lat="43.7716993553643" lon="11.416789114453058"><ele>79.0</ele><time>2026-04-25T12:45:51.981Z</time></trkpt><trkpt lat="43.77161822117615" lon="11.417018312482723"><ele>79.0</ele><time>2026-04-25T12:45:52.981Z</time></trkpt><trkpt lat="43.77153701355053" lon="11.417262094017104"><ele>79.0</ele><time>2026-04-25T12:45:53.981Z</time></trkpt><trkpt lat="43.77145801248772" lon="11.41749272725675"><ele>79.0</ele><time>2026-04-25T12:45:54.981Z</time></trkpt><trkpt lat="43.77138095980981" lon="11.417740921004231"><ele>78.66666666666666</ele><time>2026-04-25T12:45:55.981Z</time></trkpt><trkpt lat="43.771309216820896" lon="11.417998983014012"><ele>78.33333333333333</ele><time>2026-04-25T12:45:56.981Z</time></trkpt><trkpt lat="43.77122927157142" lon="11.418278818435141"><ele>78.0</ele><time>2026-04-25T12:45:57.981Z</time></trkpt><trkpt lat="43.771152955841146" lon="11.41854663378835"><ele>78.0</ele><time>2026-04-25T12:45:58.981Z</time></trkpt><trkpt lat="43.77109197391768" lon="11.418798222916692"><ele>78.0</ele><time>2026-04-25T12:45:59.981Z</time></trkpt><trkpt lat="43.77103085316961" lon="11.419041331898347"><ele>78.0</ele><time>2026-04-25T12:46:00.981Z</time></trkpt><trkpt lat="43.77097114177905" lon="11.419271328427099"><ele>78.33333333333333</ele><time>2026-04-25T12:46:01.981Z</time></trkpt><trkpt lat="43.770913608479816" lon="11.419491490133767"><ele>78.66666666666666</ele><time>2026-04-25T12:46:02.981Z</time></trkpt><trkpt lat="43.77085605524215" lon="11.419695999319021"><ele>79.0</ele><time>2026-04-25T12:46:03.981Z</time></trkpt><trkpt lat="43.77080608198659" lon="11.419896298537283"><ele>78.5</ele><time>2026-04-25T12:46:04.981Z</time></trkpt><trkpt lat="43.770758818460656" lon="11.420079825877309"><ele>78.0</ele><time>2026-04-25T12:46:05.981Z</time></trkpt><trkpt lat="43.77072042236568" lon="11.42026190324922"><ele>77.5</ele><time>2026-04-25T12:46:06.981Z</time></trkpt><trkpt lat="43.77067693710056" lon="11.420448058499794"><ele>77.0</ele><time>2026-04-25T12:46:07.981Z</time></trkpt><trkpt lat="43.77062776536218" lon="11.420635872119506"><ele>77.0</ele><time>2026-04-25T12:46:08.981Z</time></trkpt><trkpt lat="43.770583698827416" lon="11.420813197467497"><ele>77.0</ele><time>2026-04-25T12:46:09.981Z</time></trkpt><trkpt lat="43.77054457966878" lon="11.42097886664873"><ele>77.0</ele><time>2026-04-25T12:46:10.981Z</time></trkpt><trkpt lat="43.77051088500434" lon="11.421136096930386"><ele>77.0</ele><time>2026-04-25T12:46:11.981Z</time></trkpt><trkpt lat="43.7704824085163" lon="11.421292722707172"><ele>77.0</ele><time>2026-04-25T12:46:12.981Z</time></trkpt><trkpt lat="43.77045941992541" lon="11.421437977399304"><ele>77.0</ele><time>2026-04-25T12:46:13.981Z</time></trkpt><trkpt lat="43.770435672817754" lon="11.421585236024352"><ele>77.0</ele><time>2026-04-25T12:46:14.981Z</time></trkpt><trkpt lat="43.770400197663314" lon="11.421709939453242"><ele>77.0</ele><time>2026-04-25T12:46:15.981Z</time></trkpt><trkpt lat="43.77038018929129" lon="11.42181313528995"><ele>77.0</ele><time>2026-04-25T12:46:16.981Z</time></trkpt><trkpt lat="43.77036807475114" lon="11.42191575258503"><ele>77.0</ele><time>2026-04-25T12:46:17.981Z</time></trkpt><trkpt lat="43.77035417080082" lon="11.422007679615506"><ele>77.0</ele><time>2026-04-25T12:46:18.981Z</time></trkpt><trkpt lat="43.77033977857746" lon="11.422097655869484"><ele>77.0</ele><time>2026-04-25T12:46:19.981Z</time></trkpt><trkpt lat="43.77033197967875" lon="11.422187021207439"><ele>77.0</ele><time>2026-04-25T12:46:20.981Z</time></trkpt><trkpt lat="43.77031743697083" lon="11.422279673312362"><ele>77.0</ele><time>2026-04-25T12:46:21.981Z</time></trkpt><trkpt lat="43.7703036045495" lon="11.422382019218704"><ele>77.0</ele><time>2026-04-25T12:46:22.98Z</time></trkpt><trkpt lat="43.77026739796743" lon="11.422489096828983"><ele>77.0</ele><time>2026-04-25T12:46:23.98Z</time></trkpt><trkpt lat="43.77023336192686" lon="11.42260189045979"><ele>78.0</ele><time>2026-04-25T12:46:24.98Z</time></trkpt><trkpt lat="43.77017638406975" lon="11.422738986571092"><ele>79.0</ele><time>2026-04-25T12:46:25.98Z</time></trkpt><trkpt lat="43.77010873380737" lon="11.422864350879925"><ele>80.0</ele><time>2026-04-25T12:46:26.98Z</time></trkpt><trkpt lat="43.77007256338252" lon="11.422970335402775"><ele>81.0</ele><time>2026-04-25T12:46:27.98Z</time></trkpt><trkpt lat="43.770039175962566" lon="11.42308048806608"><ele>82.0</ele><time>2026-04-25T12:46:28.981Z</time></trkpt><trkpt lat="43.77000439489941" lon="11.423182585459955"><ele>82.0</ele><time>2026-04-25T12:46:29.981Z</time></trkpt><trkpt lat="43.76996504756333" lon="11.423298932255838"><ele>82.0</ele><time>2026-04-25T12:46:30.98Z</time></trkpt><trkpt lat="43.76992861433163" lon="11.423418701107034"><ele>82.0</ele><time>2026-04-25T12:46:31.98Z</time></trkpt><trkpt lat="43.76988249982792" lon="11.423548555992882"><ele>82.0</ele><time>2026-04-25T12:46:32.98Z</time></trkpt><trkpt lat="43.76984613644666" lon="11.423664960096588"><ele>82.0</ele><time>2026-04-25T12:46:33.98Z</time></trkpt><trkpt lat="43.76980850161922" lon="11.423764851378449"><ele>81.75</ele><time>2026-04-25T12:46:34.98Z</time></trkpt><trkpt lat="43.769770934466386" lon="11.423912004239883"><ele>81.5</ele><time>2026-04-25T12:46:36.98Z</time></trkpt><trkpt lat="43.76971232692267" lon="11.424112230175666"><ele>81.25</ele><time>2026-04-25T12:46:38.98Z</time></trkpt><trkpt lat="43.7696485327604" lon="11.424288573494874"><ele>81.0</ele><time>2026-04-25T12:46:39.98Z</time></trkpt><trkpt lat="43.76957971601136" lon="11.424459444494335"><ele>81.0</ele><time>2026-04-25T12:46:40.98Z</time></trkpt><trkpt lat="43.769516252840525" lon="11.424623483191676"><ele>81.0</ele><time>2026-04-25T12:46:41.98Z</time></trkpt><trkpt lat="43.769438198914074" lon="11.42479005824309"><ele>81.0</ele><time>2026-04-25T12:46:42.98Z</time></trkpt><trkpt lat="43.769338544018275" lon="11.424943295852358"><ele>81.0</ele><time>2026-04-25T12:46:43.98Z</time></trkpt><trkpt lat="43.769221167541254" lon="11.42507511583641"><ele>81.25</ele><time>2026-04-25T12:46:44.98Z</time></trkpt><trkpt lat="43.76909559712877" lon="11.425190397766103"><ele>81.5</ele><time>2026-04-25T12:46:45.98Z</time></trkpt><trkpt lat="43.7689683735876" lon="11.42528681741295"><ele>81.75</ele><time>2026-04-25T12:46:46.98Z</time></trkpt><trkpt lat="43.76881954823021" lon="11.425308893673614"><ele>82.0</ele><time>2026-04-25T12:46:47.98Z</time></trkpt><trkpt lat="43.768691870070384" lon="11.425346647984743"><ele>82.0</ele><time>2026-04-25T12:46:48.98Z</time></trkpt><trkpt lat="43.7685797181415" lon="11.425375509920421"><ele>82.0</ele><time>2026-04-25T12:46:49.98Z</time></trkpt><trkpt lat="43.76847608587557" lon="11.425402148163965"><ele>82.0</ele><time>2026-04-25T12:46:50.98Z</time></trkpt><trkpt lat="43.768400691478114" lon="11.425598605299786"><ele>82.0</ele><time>2026-04-25T12:46:51.98Z</time></trkpt><trkpt lat="43.7683602826246" lon="11.425771594508898"><ele>82.0</ele><time>2026-04-25T12:46:52.98Z</time></trkpt><trkpt lat="43.768290076476276" lon="11.425901841704063"><ele>82.0</ele><time>2026-04-25T12:46:53.98Z</time></trkpt><trkpt lat="43.768264700880366" lon="11.426087776502452"><ele>82.0</ele><time>2026-04-25T12:46:54.98Z</time></trkpt><trkpt lat="43.76829080821641" lon="11.426272241505659"><ele>82.0</ele><time>2026-04-25T12:46:55.98Z</time></trkpt><trkpt lat="43.76830426658051" lon="11.426447413846809"><ele>82.5</ele><time>2026-04-25T12:46:56.98Z</time></trkpt><trkpt lat="43.76829584065746" lon="11.426621558624209"><ele>83.0</ele><time>2026-04-25T12:46:57.98Z</time></trkpt><trkpt lat="43.768261653987494" lon="11.426782365949068"><ele>83.5</ele><time>2026-04-25T12:46:58.98Z</time></trkpt><trkpt lat="43.76819676328883" lon="11.426927766810701"><ele>84.0</ele><time>2026-04-25T12:46:59.98Z</time></trkpt><trkpt lat="43.76811824418096" lon="11.427063401123814"><ele>86.25</ele><time>2026-04-25T12:47:00.98Z</time></trkpt><trkpt lat="43.768021690067826" lon="11.42716776639152"><ele>88.5</ele><time>2026-04-25T12:47:01.98Z</time></trkpt><trkpt lat="43.767889413411915" lon="11.427236856978757"><ele>90.75</ele><time>2026-04-25T12:47:02.98Z</time></trkpt><trkpt lat="43.76775193950726" lon="11.427292379331435"><ele>93.0</ele><time>2026-04-25T12:47:03.98Z</time></trkpt><trkpt lat="43.76761000226781" lon="11.427323888908244"><ele>94.5</ele><time>2026-04-25T12:47:04.98Z</time></trkpt><trkpt lat="43.7674808532504" lon="11.427389344324169"><ele>96.0</ele><time>2026-04-25T12:47:05.98Z</time></trkpt><trkpt lat="43.76734337070976" lon="11.427423571211973"><ele>97.5</ele><time>2026-04-25T12:47:06.98Z</time></trkpt><trkpt lat="43.7672251349997" lon="11.42744615213521"><ele>99.0</ele><time>2026-04-25T12:47:07.98Z</time></trkpt><trkpt lat="43.76710869616805" lon="11.427438389926651"><ele>99.0</ele><time>2026-04-25T12:47:08.98Z</time></trkpt><trkpt lat="43.76700014151454" lon="11.427378577626369"><ele>99.0</ele><time>2026-04-25T12:47:09.98Z</time></trkpt><trkpt lat="43.76688852221357" lon="11.427321140441853"><ele>99.0</ele><time>2026-04-25T12:47:10.98Z</time></trkpt><trkpt lat="43.76680068198082" lon="11.427215347073282"><ele>99.0</ele><time>2026-04-25T12:47:11.98Z</time></trkpt><trkpt lat="43.766732092606176" lon="11.427082715012542"><ele>97.5</ele><time>2026-04-25T12:47:12.98Z</time></trkpt><trkpt lat="43.76668311649162" lon="11.426926691370417"><ele>96.0</ele><time>2026-04-25T12:47:13.98Z</time></trkpt><trkpt lat="43.766651157034374" lon="11.426766398365464"><ele>94.5</ele><time>2026-04-25T12:47:14.98Z</time></trkpt><trkpt lat="43.76659528678058" lon="11.426622033543797"><ele>93.0</ele><time>2026-04-25T12:47:15.98Z</time></trkpt><trkpt lat="43.76653795193022" lon="11.42650316562505"><ele>93.0</ele><time>2026-04-25T12:47:16.98Z</time></trkpt><trkpt lat="43.766444752452" lon="11.426396503035221"><ele>93.0</ele><time>2026-04-25T12:47:17.98Z</time></trkpt><trkpt lat="43.76635089846494" lon="11.426320934806336"><ele>93.0</ele><time>2026-04-25T12:47:18.98Z</time></trkpt><trkpt lat="43.76622968554983" lon="11.426280247983987"><ele>93.0</ele><time>2026-04-25T12:47:19.98Z</time></trkpt><trkpt lat="43.766084796419676" lon="11.426286188220883"><ele>92.25</ele><time>2026-04-25T12:47:20.98Z</time></trkpt><trkpt lat="43.76595510627166" lon="11.42628546608539"><ele>91.5</ele><time>2026-04-25T12:47:21.98Z</time></trkpt><trkpt lat="43.76583757300979" lon="11.426270121225016"><ele>90.75</ele><time>2026-04-25T12:47:22.98Z</time></trkpt><trkpt lat="43.76573232240388" lon="11.426231538334372"><ele>90.0</ele><time>2026-04-25T12:47:23.98Z</time></trkpt><trkpt lat="43.765628729518745" lon="11.4261679002845"><ele>90.0</ele><time>2026-04-25T12:47:24.98Z</time></trkpt><trkpt lat="43.765518845775155" lon="11.426095413624822"><ele>90.0</ele><time>2026-04-25T12:47:25.98Z</time></trkpt><trkpt lat="43.76540433318481" lon="11.426026161107359"><ele>90.0</ele><time>2026-04-25T12:47:26.98Z</time></trkpt><trkpt lat="43.76528353304672" lon="11.425980880543705"><ele>90.0</ele><time>2026-04-25T12:47:27.98Z</time></trkpt><trkpt lat="43.76515257983792" lon="11.426007717025687"><ele>90.25</ele><time>2026-04-25T12:47:28.98Z</time></trkpt><trkpt lat="43.76503009223671" lon="11.426046649252399"><ele>90.5</ele><time>2026-04-25T12:47:29.98Z</time></trkpt><trkpt lat="43.764916991863466" lon="11.426141482680823"><ele>90.75</ele><time>2026-04-25T12:47:30.98Z</time></trkpt><trkpt lat="43.76479445721872" lon="11.426264737821517"><ele>91.0</ele><time>2026-04-25T12:47:31.98Z</time></trkpt><trkpt lat="43.764659704710674" lon="11.426390184765916"><ele>93.33333333333333</ele><time>2026-04-25T12:47:32.98Z</time></trkpt><trkpt lat="43.76450941837413" lon="11.426536198781879"><ele>95.66666666666666</ele><time>2026-04-25T12:47:33.98Z</time></trkpt><trkpt lat="43.76434782685092" lon="11.426670170588064"><ele>98.0</ele><time>2026-04-25T12:47:34.98Z</time></trkpt><trkpt lat="43.76416131261601" lon="11.426784024859893"><ele>98.0</ele><time>2026-04-25T12:47:35.98Z</time></trkpt><trkpt lat="43.76397237957424" lon="11.426897050622754"><ele>98.0</ele><time>2026-04-25T12:47:36.98Z</time></trkpt><trkpt lat="43.76378550807365" lon="11.427000735710482"><ele>98.0</ele><time>2026-04-25T12:47:37.98Z</time></trkpt><trkpt lat="43.763610638521214" lon="11.427103956916877"><ele>102.33333333333333</ele><time>2026-04-25T12:47:38.98Z</time></trkpt><trkpt lat="43.76345152585799" lon="11.427195641851077"><ele>106.66666666666666</ele><time>2026-04-25T12:47:39.98Z</time></trkpt><trkpt lat="43.76331471798291" lon="11.427271121993961"><ele>111.0</ele><time>2026-04-25T12:47:40.98Z</time></trkpt><trkpt lat="43.763183951523274" lon="11.427330548350893"><ele>111.0</ele><time>2026-04-25T12:47:41.98Z</time></trkpt><trkpt lat="43.76304628250243" lon="11.42734803407787"><ele>111.0</ele><time>2026-04-25T12:47:42.98Z</time></trkpt><trkpt lat="43.762901157058955" lon="11.427313305770669"><ele>111.0</ele><time>2026-04-25T12:47:43.98Z</time></trkpt><trkpt lat="43.762747644205575" lon="11.427257160663446"><ele>111.0</ele><time>2026-04-25T12:47:44.98Z</time></trkpt><trkpt lat="43.7626039248143" lon="11.427202071699963"><ele>110.75</ele><time>2026-04-25T12:47:45.98Z</time></trkpt><trkpt lat="43.76247671528202" lon="11.427157864304531"><ele>110.5</ele><time>2026-04-25T12:47:46.98Z</time></trkpt><trkpt lat="43.7623476933462" lon="11.427163161560996"><ele>110.25</ele><time>2026-04-25T12:47:47.98Z</time></trkpt><trkpt lat="43.762227078951554" lon="11.427204135798236"><ele>110.0</ele><time>2026-04-25T12:47:48.98Z</time></trkpt><trkpt lat="43.76211043284695" lon="11.427295568462466"><ele>110.0</ele><time>2026-04-25T12:47:49.98Z</time></trkpt><trkpt lat="43.76200872529675" lon="11.427448669877544"><ele>110.0</ele><time>2026-04-25T12:47:50.98Z</time></trkpt><trkpt lat="43.76188650061851" lon="11.427594527195113"><ele>110.0</ele><time>2026-04-25T12:47:51.98Z</time></trkpt><trkpt lat="43.76176356214102" lon="11.427768964147962"><ele>110.33333333333333</ele><time>2026-04-25T12:47:52.98Z</time></trkpt><trkpt lat="43.761631526543276" lon="11.427955835828495"><ele>110.66666666666666</ele><time>2026-04-25T12:47:53.98Z</time></trkpt><trkpt lat="43.76149202704338" lon="11.428151567953346"><ele>111.0</ele><time>2026-04-25T12:47:54.98Z</time></trkpt><trkpt lat="43.761351589678206" lon="11.42834376312413"><ele>113.66666666666666</ele><time>2026-04-25T12:47:55.98Z</time></trkpt><trkpt lat="43.76121086214405" lon="11.428520855333739"><ele>116.33333333333333</ele><time>2026-04-25T12:47:56.98Z</time></trkpt><trkpt lat="43.76105899069646" lon="11.42869154134535"><ele>119.0</ele><time>2026-04-25T12:47:57.98Z</time></trkpt><trkpt lat="43.76090027815281" lon="11.428857441701293"><ele>122.33333333333333</ele><time>2026-04-25T12:47:58.98Z</time></trkpt><trkpt lat="43.76073520044912" lon="11.429022922923814"><ele>125.66666666666666</ele><time>2026-04-25T12:47:59.98Z</time></trkpt><trkpt lat="43.76058603030783" lon="11.42917436656613"><ele>129.0</ele><time>2026-04-25T12:48:00.98Z</time></trkpt><trkpt lat="43.76045390418768" lon="11.429309069705434"><ele>129.0</ele><time>2026-04-25T12:48:01.98Z</time></trkpt><trkpt lat="43.760334013884446" lon="11.429432887513544"><ele>129.0</ele><time>2026-04-25T12:48:02.98Z</time></trkpt><trkpt lat="43.7602326932806" lon="11.42955438022284"><ele>129.0</ele><time>2026-04-25T12:48:03.98Z</time></trkpt><trkpt lat="43.76015387454674" lon="11.429705763915198"><ele>129.0</ele><time>2026-04-25T12:48:04.98Z</time></trkpt><trkpt lat="43.760102819471285" lon="11.429893592904364"><ele>129.25</ele><time>2026-04-25T12:48:05.98Z</time></trkpt><trkpt lat="43.760069867546136" lon="11.430091015337004"><ele>129.5</ele><time>2026-04-25T12:48:06.98Z</time></trkpt><trkpt lat="43.760020264113535" lon="11.430288846046823"><ele>129.75</ele><time>2026-04-25T12:48:07.98Z</time></trkpt><trkpt lat="43.759979567754534" lon="11.430479416617908"><ele>130.0</ele><time>2026-04-25T12:48:08.98Z</time></trkpt><trkpt lat="43.75990385481093" lon="11.430648311021997"><ele>133.0</ele><time>2026-04-25T12:48:09.98Z</time></trkpt><trkpt lat="43.75979803682786" lon="11.430796820608457"><ele>136.0</ele><time>2026-04-25T12:48:10.98Z</time></trkpt><trkpt lat="43.75966521203402" lon="11.43091710392041"><ele>139.0</ele><time>2026-04-25T12:48:11.98Z</time></trkpt><trkpt lat="43.759522050666895" lon="11.431027419318932"><ele>136.66666666666669</ele><time>2026-04-25T12:48:12.98Z</time></trkpt><trkpt lat="43.75936462722631" lon="11.43115460557893"><ele>134.33333333333334</ele><time>2026-04-25T12:48:13.98Z</time></trkpt><trkpt lat="43.75921031219255" lon="11.431282549337622"><ele>132.0</ele><time>2026-04-25T12:48:14.98Z</time></trkpt><trkpt lat="43.75906855471773" lon="11.431400860651369"><ele>135.75</ele><time>2026-04-25T12:48:15.98Z</time></trkpt><trkpt lat="43.758951674968024" lon="11.431526227184717"><ele>139.5</ele><time>2026-04-25T12:48:16.98Z</time></trkpt><trkpt lat="43.75884782598308" lon="11.431628335542603"><ele>143.25</ele><time>2026-04-25T12:48:17.98Z</time></trkpt><trkpt lat="43.75875328680273" lon="11.431725260488248"><ele>147.0</ele><time>2026-04-25T12:48:18.98Z</time></trkpt><trkpt lat="43.75870880899434" lon="11.431878416648678"><ele>147.0</ele><time>2026-04-25T12:48:19.98Z</time></trkpt><trkpt lat="43.75868048321669" lon="11.432049754393224"><ele>147.0</ele><time>2026-04-25T12:48:20.98Z</time></trkpt><trkpt lat="43.75867692917249" lon="11.432242449929253"><ele>147.0</ele><time>2026-04-25T12:48:21.98Z</time></trkpt><trkpt lat="43.75866160177085" lon="11.432459741865738"><ele>147.0</ele><time>2026-04-25T12:48:22.98Z</time></trkpt><trkpt lat="43.75866048669588" lon="11.432701019817987"><ele>150.33333333333334</ele><time>2026-04-25T12:48:23.98Z</time></trkpt><trkpt lat="43.75866064178678" lon="11.432940129548326"><ele>153.66666666666669</ele><time>2026-04-25T12:48:24.98Z</time></trkpt><trkpt lat="43.75867028868385" lon="11.433160813090106"><ele>157.0</ele><time>2026-04-25T12:48:25.98Z</time></trkpt><trkpt lat="43.75866724164406" lon="11.433353560193282"><ele>157.0</ele><time>2026-04-25T12:48:26.98Z</time></trkpt><trkpt lat="43.75866493063163" lon="11.433511180869615"><ele>157.0</ele><time>2026-04-25T12:48:27.98Z</time></trkpt><trkpt lat="43.75867500432374" lon="11.433632099904516"><ele>157.0</ele><time>2026-04-25T12:48:28.98Z</time></trkpt><trkpt lat="43.75869014947852" lon="11.433735273687699"><ele>157.0</ele><time>2026-04-25T12:48:29.98Z</time></trkpt><trkpt lat="43.758742222849925" lon="11.433819714058151"><ele>157.0</ele><time>2026-04-25T12:48:30.98Z</time></trkpt><trkpt lat="43.75881698535002" lon="11.433861063266212"><ele>157.0</ele><time>2026-04-25T12:48:31.98Z</time></trkpt><trkpt lat="43.75889469338222" lon="11.433865558809975"><ele>157.0</ele><time>2026-04-25T12:48:32.98Z</time></trkpt><trkpt lat="43.758981171436695" lon="11.433824848433304"><ele>157.0</ele><time>2026-04-25T12:48:33.98Z</time></trkpt><trkpt lat="43.75906771088593" lon="11.433735777069264"><ele>157.0</ele><time>2026-04-25T12:48:34.98Z</time></trkpt><trkpt lat="43.75915202751727" lon="11.43362489696709"><ele>157.0</ele><time>2026-04-25T12:48:35.98Z</time></trkpt><trkpt lat="43.75925363355705" lon="11.43350111939607"><ele>159.0</ele><time>2026-04-25T12:48:36.981Z</time></trkpt><trkpt lat="43.75937370549962" lon="11.433369207363736"><ele>161.0</ele><time>2026-04-25T12:48:37.98Z</time></trkpt><trkpt lat="43.759499488168736" lon="11.433252028855657"><ele>163.0</ele><time>2026-04-25T12:48:38.98Z</time></trkpt><trkpt lat="43.75962211579983" lon="11.433176579372029"><ele>165.0</ele><time>2026-04-25T12:48:39.981Z</time></trkpt><trkpt lat="43.75975023510805" lon="11.433156835043837"><ele>165.0</ele><time>2026-04-25T12:48:40.981Z</time></trkpt><trkpt lat="43.759871502793715" lon="11.433187351303065"><ele>165.0</ele><time>2026-04-25T12:48:41.981Z</time></trkpt><trkpt lat="43.75998362741919" lon="11.433253116850256"><ele>165.0</ele><time>2026-04-25T12:48:42.98Z</time></trkpt><trkpt lat="43.76005401602358" lon="11.433374407439649"><ele>165.0</ele><time>2026-04-25T12:48:43.981Z</time></trkpt><trkpt lat="43.76009207884228" lon="11.433537972630015"><ele>165.0</ele><time>2026-04-25T12:48:44.981Z</time></trkpt><trkpt lat="43.76012531410861" lon="11.433717487331643"><ele>165.0</ele><time>2026-04-25T12:48:45.981Z</time></trkpt><trkpt lat="43.76014582841758" lon="11.433923886051943"><ele>165.0</ele><time>2026-04-25T12:48:46.981Z</time></trkpt><trkpt lat="43.760171146039056" lon="11.434121909187523"><ele>165.0</ele><time>2026-04-25T12:48:47.981Z</time></trkpt><trkpt lat="43.760200881185106" lon="11.434304160502199"><ele>165.75</ele><time>2026-04-25T12:48:48.981Z</time></trkpt><trkpt lat="43.76018951043303" lon="11.43448847872236"><ele>166.5</ele><time>2026-04-25T12:48:49.981Z</time></trkpt><trkpt lat="43.76014301460131" lon="11.434691715277605"><ele>167.25</ele><time>2026-04-25T12:48:50.981Z</time></trkpt><trkpt lat="43.760059661090075" lon="11.43487859729841"><ele>168.0</ele><time>2026-04-25T12:48:51.981Z</time></trkpt><trkpt lat="43.75995867973057" lon="11.435083092695946"><ele>169.66666666666666</ele><time>2026-04-25T12:48:52.981Z</time></trkpt><trkpt lat="43.75986229011601" lon="11.43530310132228"><ele>171.33333333333331</ele><time>2026-04-25T12:48:53.981Z</time></trkpt><trkpt lat="43.75978252825493" lon="11.435539003196022"><ele>173.0</ele><time>2026-04-25T12:48:54.981Z</time></trkpt><trkpt lat="43.75972607314426" lon="11.435771321802937"><ele>175.33333333333331</ele><time>2026-04-25T12:48:55.981Z</time></trkpt><trkpt lat="43.75968656332288" lon="11.435999610809626"><ele>177.66666666666666</ele><time>2026-04-25T12:48:56.981Z</time></trkpt><trkpt lat="43.75968018629812" lon="11.43621195787276"><ele>180.0</ele><time>2026-04-25T12:48:57.981Z</time></trkpt><trkpt lat="43.759696315263525" lon="11.436434004308895"><ele>180.66666666666666</ele><time>2026-04-25T12:48:58.981Z</time></trkpt><trkpt lat="43.759739133226155" lon="11.436675118092378"><ele>181.33333333333331</ele><time>2026-04-25T12:48:59.981Z</time></trkpt><trkpt lat="43.75979244600918" lon="11.436916155346273"><ele>182.0</ele><time>2026-04-25T12:49:00.981Z</time></trkpt><trkpt lat="43.75985533777367" lon="11.43714475657458"><ele>183.0</ele><time>2026-04-25T12:49:01.981Z</time></trkpt><trkpt lat="43.75990679842987" lon="11.437341151789248"><ele>184.0</ele><time>2026-04-25T12:49:02.981Z</time></trkpt><trkpt lat="43.75994515310779" lon="11.437531290261713"><ele>185.0</ele><time>2026-04-25T12:49:03.981Z</time></trkpt><trkpt lat="43.759948825010966" lon="11.437707553204742"><ele>186.0</ele><time>2026-04-25T12:49:04.981Z</time></trkpt><trkpt lat="43.759910008935535" lon="11.437876661849172"><ele>188.5</ele><time>2026-04-25T12:49:05.981Z</time></trkpt><trkpt lat="43.7598300812181" lon="11.438016408428748"><ele>191.0</ele><time>2026-04-25T12:49:06.981Z</time></trkpt><trkpt lat="43.75973954069558" lon="11.438170631291323"><ele>193.5</ele><time>2026-04-25T12:49:07.981Z</time></trkpt><trkpt lat="43.75964757642598" lon="11.438329431094317"><ele>196.0</ele><time>2026-04-25T12:49:08.981Z</time></trkpt><trkpt lat="43.75958016024488" lon="11.43852509968247"><ele>196.0</ele><time>2026-04-25T12:49:09.981Z</time></trkpt><trkpt lat="43.759560913855495" lon="11.438763660490745"><ele>196.0</ele><time>2026-04-25T12:49:10.981Z</time></trkpt><trkpt lat="43.75953998655395" lon="11.43900501076758"><ele>196.0</ele><time>2026-04-25T12:49:11.981Z</time></trkpt><trkpt lat="43.75952008593631" lon="11.43925980993724"><ele>199.66666666666666</ele><time>2026-04-25T12:49:12.981Z</time></trkpt><trkpt lat="43.759492493554355" lon="11.439529860477506"><ele>203.33333333333331</ele><time>2026-04-25T12:49:13.981Z</time></trkpt><trkpt lat="43.75947017704063" lon="11.439810639700994"><ele>207.0</ele><time>2026-04-25T12:49:14.981Z</time></trkpt><trkpt lat="43.75944925301725" lon="11.440091900216682"><ele>209.33333333333331</ele><time>2026-04-25T12:49:15.981Z</time></trkpt><trkpt lat="43.75942820370623" lon="11.44034982535465"><ele>211.66666666666666</ele><time>2026-04-25T12:49:16.981Z</time></trkpt><trkpt lat="43.759392213700785" lon="11.440576971081176"><ele>214.0</ele><time>2026-04-25T12:49:17.981Z</time></trkpt><trkpt lat="43.75938515318364" lon="11.440785351343743"><ele>213.79999999999998</ele><time>2026-04-25T12:49:18.981Z</time></trkpt><trkpt lat="43.759345858805645" lon="11.440943862799562"><ele>213.59999999999997</ele><time>2026-04-25T12:49:19.981Z</time></trkpt><trkpt lat="43.75928949206886" lon="11.441056664158433"><ele>213.4</ele><time>2026-04-25T12:49:20.981Z</time></trkpt><trkpt lat="43.75920116016047" lon="11.441146484820704"><ele>213.2</ele><time>2026-04-25T12:49:21.981Z</time></trkpt><trkpt lat="43.75909037024759" lon="11.44117977315142"><ele>213.0</ele><time>2026-04-25T12:49:22.981Z</time></trkpt><trkpt lat="43.75895403657913" lon="11.441200456595961"><ele>213.0</ele><time>2026-04-25T12:49:23.981Z</time></trkpt><trkpt lat="43.75882224284886" lon="11.441216360169953"><ele>213.0</ele><time>2026-04-25T12:49:24.981Z</time></trkpt><trkpt lat="43.758705448151645" lon="11.441236298567038"><ele>213.0</ele><time>2026-04-25T12:49:25.981Z</time></trkpt><trkpt lat="43.7586038829422" lon="11.441286182297775"><ele>213.0</ele><time>2026-04-25T12:49:26.981Z</time></trkpt><trkpt lat="43.758511937703695" lon="11.44139640889215"><ele>215.5</ele><time>2026-04-25T12:49:27.981Z</time></trkpt><trkpt lat="43.758431133713124" lon="11.441532845065835"><ele>218.0</ele><time>2026-04-25T12:49:28.981Z</time></trkpt><trkpt lat="43.75836231874836" lon="11.441694921695245"><ele>220.5</ele><time>2026-04-25T12:49:29.981Z</time></trkpt><trkpt lat="43.758289322262186" lon="11.441869243627414"><ele>223.0</ele><time>2026-04-25T12:49:30.981Z</time></trkpt><trkpt lat="43.758207316912475" lon="11.442048859486087"><ele>225.0</ele><time>2026-04-25T12:49:31.981Z</time></trkpt><trkpt lat="43.75810496212316" lon="11.442231753311741"><ele>227.0</ele><time>2026-04-25T12:49:32.981Z</time></trkpt><trkpt lat="43.75798394032712" lon="11.44240211004991"><ele>229.0</ele><time>2026-04-25T12:49:33.981Z</time></trkpt><trkpt lat="43.75786733321841" lon="11.442541511152074"><ele>229.0</ele><time>2026-04-25T12:49:34.981Z</time></trkpt><trkpt lat="43.75776872925333" lon="11.442679708759231"><ele>229.0</ele><time>2026-04-25T12:49:35.981Z</time></trkpt><trkpt lat="43.75766519085941" lon="11.442783413310408"><ele>229.0</ele><time>2026-04-25T12:49:36.981Z</time></trkpt><trkpt lat="43.75761996076687" lon="11.44290210946504"><ele>229.0</ele><time>2026-04-25T12:49:37.981Z</time></trkpt><trkpt lat="43.757595960317964" lon="11.443028941339344"><ele>230.25</ele><time>2026-04-25T12:49:38.981Z</time></trkpt><trkpt lat="43.75761063578043" lon="11.443171257159218"><ele>231.5</ele><time>2026-04-25T12:49:39.981Z</time></trkpt><trkpt lat="43.757653530842354" lon="11.443306976879594"><ele>232.75</ele><time>2026-04-25T12:49:40.981Z</time></trkpt><trkpt lat="43.75771991067541" lon="11.443455576958012"><ele>234.0</ele><time>2026-04-25T12:49:41.981Z</time></trkpt><trkpt lat="43.7577861733612" lon="11.44361684074512"><ele>237.0</ele><time>2026-04-25T12:49:42.981Z</time></trkpt><trkpt lat="43.75785183580853" lon="11.443803357868113"><ele>240.0</ele><time>2026-04-25T12:49:43.981Z</time></trkpt><trkpt lat="43.75791152923541" lon="11.444007246970328"><ele>243.0</ele><time>2026-04-25T12:49:44.981Z</time></trkpt><trkpt lat="43.75797621370628" lon="11.444232664460158"><ele>243.0</ele><time>2026-04-25T12:49:45.981Z</time></trkpt><trkpt lat="43.75804070175494" lon="11.444460464721425"><ele>243.0</ele><time>2026-04-25T12:49:46.981Z</time></trkpt><trkpt lat="43.75809675631858" lon="11.444672143844578"><ele>243.0</ele><time>2026-04-25T12:49:47.981Z</time></trkpt><trkpt lat="43.7581579212886" lon="11.444842367817264"><ele>246.0</ele><time>2026-04-25T12:49:48.981Z</time></trkpt><trkpt lat="43.7582445431627" lon="11.445000579076943"><ele>249.0</ele><time>2026-04-25T12:49:49.981Z</time></trkpt><trkpt lat="43.7583492804292" lon="11.445158833028797"><ele>252.0</ele><time>2026-04-25T12:49:50.981Z</time></trkpt><trkpt lat="43.758475748705216" lon="11.445309565723566"><ele>255.33333333333331</ele><time>2026-04-25T12:49:51.981Z</time></trkpt><trkpt lat="43.75860326220925" lon="11.445465267174596"><ele>258.66666666666663</ele><time>2026-04-25T12:49:52.981Z</time></trkpt><trkpt lat="43.75870986796343" lon="11.445610908143179"><ele>262.0</ele><time>2026-04-25T12:49:53.981Z</time></trkpt><trkpt lat="43.75882252605172" lon="11.445731478345042"><ele>262.0</ele><time>2026-04-25T12:49:54.981Z</time></trkpt><trkpt lat="43.75891589029852" lon="11.445850661029535"><ele>262.0</ele><time>2026-04-25T12:49:55.981Z</time></trkpt><trkpt lat="43.75899127427827" lon="11.445968030230114"><ele>262.0</ele><time>2026-04-25T12:49:56.981Z</time></trkpt><trkpt lat="43.759051638536256" lon="11.446086582530512"><ele>262.0</ele><time>2026-04-25T12:49:57.981Z</time></trkpt><trkpt lat="43.75909438847473" lon="11.446228821279693"><ele>263.5</ele><time>2026-04-25T12:49:58.981Z</time></trkpt><trkpt lat="43.75910928934282" lon="11.446386092353192"><ele>265.0</ele><time>2026-04-25T12:49:59.981Z</time></trkpt><trkpt lat="43.75908686777564" lon="11.446541206576791"><ele>266.5</ele><time>2026-04-25T12:50:00.981Z</time></trkpt><trkpt lat="43.75904719658339" lon="11.446706237891293"><ele>268.0</ele><time>2026-04-25T12:50:01.981Z</time></trkpt><trkpt lat="43.758988499016354" lon="11.446859292437376"><ele>268.0</ele><time>2026-04-25T12:50:02.981Z</time></trkpt><trkpt lat="43.75889319876105" lon="11.44697801752943"><ele>268.0</ele><time>2026-04-25T12:50:03.981Z</time></trkpt><trkpt lat="43.75879663352465" lon="11.447099246645166"><ele>268.0</ele><time>2026-04-25T12:50:04.981Z</time></trkpt><trkpt lat="43.75868973499069" lon="11.447215089999426"><ele>268.0</ele><time>2026-04-25T12:50:05.981Z</time></trkpt><trkpt lat="43.75856455237256" lon="11.447342220158964"><ele>272.0</ele><time>2026-04-25T12:50:06.981Z</time></trkpt><trkpt lat="43.758425548326315" lon="11.44747587776797"><ele>276.0</ele><time>2026-04-25T12:50:07.981Z</time></trkpt><trkpt lat="43.75828039483208" lon="11.447614726664968"><ele>280.0</ele><time>2026-04-25T12:50:08.981Z</time></trkpt><trkpt lat="43.75814829077991" lon="11.44774733814383"><ele>280.0</ele><time>2026-04-25T12:50:09.981Z</time></trkpt><trkpt lat="43.75802532716211" lon="11.447883576009032"><ele>280.0</ele><time>2026-04-25T12:50:10.981Z</time></trkpt><trkpt lat="43.75792041335571" lon="11.448035338588777"><ele>280.0</ele><time>2026-04-25T12:50:11.981Z</time></trkpt><trkpt lat="43.757812373977934" lon="11.448174541140556"><ele>280.0</ele><time>2026-04-25T12:50:12.981Z</time></trkpt><trkpt lat="43.75771540947456" lon="11.448315127385383"><ele>280.0</ele><time>2026-04-25T12:50:13.981Z</time></trkpt><trkpt lat="43.7576262798355" lon="11.448453382980759"><ele>280.0</ele><time>2026-04-25T12:50:14.981Z</time></trkpt><trkpt lat="43.75754128568552" lon="11.4485909173923"><ele>280.0</ele><time>2026-04-25T12:50:15.981Z</time></trkpt><trkpt lat="43.757452294397915" lon="11.44871827478197"><ele>279.0</ele><time>2026-04-25T12:50:16.981Z</time></trkpt><trkpt lat="43.757347089176044" lon="11.448836063155705"><ele>278.0</ele><time>2026-04-25T12:50:17.981Z</time></trkpt><trkpt lat="43.75724569549893" lon="11.448954094096388"><ele>277.0</ele><time>2026-04-25T12:50:18.981Z</time></trkpt><trkpt lat="43.75713330224837" lon="11.449064078902955"><ele>276.0</ele><time>2026-04-25T12:50:19.981Z</time></trkpt><trkpt lat="43.757019708302806" lon="11.449164803730055"><ele>276.0</ele><time>2026-04-25T12:50:20.981Z</time></trkpt><trkpt lat="43.756909356215644" lon="11.449262442139743"><ele>276.0</ele><time>2026-04-25T12:50:21.981Z</time></trkpt><trkpt lat="43.75678965449052" lon="11.44933073231687"><ele>276.0</ele><time>2026-04-25T12:50:22.981Z</time></trkpt><trkpt lat="43.75667316633323" lon="11.449417572986151"><ele>276.0</ele><time>2026-04-25T12:50:23.981Z</time></trkpt><trkpt lat="43.756553464951196" lon="11.449508881583467"><ele>274.3333333333333</ele><time>2026-04-25T12:50:24.981Z</time></trkpt><trkpt lat="43.756427627112416" lon="11.449604871089306"><ele>272.66666666666663</ele><time>2026-04-25T12:50:25.981Z</time></trkpt><trkpt lat="43.75628095842061" lon="11.449716240071796"><ele>271.0</ele><time>2026-04-25T12:50:26.981Z</time></trkpt><trkpt lat="43.75612693215593" lon="11.44983256921321"><ele>269.0</ele><time>2026-04-25T12:50:27.981Z</time></trkpt><trkpt lat="43.75597326271836" lon="11.449944940413843"><ele>267.0</ele><time>2026-04-25T12:50:28.981Z</time></trkpt><trkpt lat="43.7558293699694" lon="11.450063343080743"><ele>265.0</ele><time>2026-04-25T12:50:29.981Z</time></trkpt><trkpt lat="43.75567526509589" lon="11.450150750476189"><ele>265.0</ele><time>2026-04-25T12:50:30.981Z</time></trkpt><trkpt lat="43.75550421518243" lon="11.450207417709548"><ele>265.0</ele><time>2026-04-25T12:50:31.981Z</time></trkpt><trkpt lat="43.755346900852224" lon="11.450288354013503"><ele>265.0</ele><time>2026-04-25T12:50:32.981Z</time></trkpt><trkpt lat="43.75519329646295" lon="11.450329213432973"><ele>265.75</ele><time>2026-04-25T12:50:33.981Z</time></trkpt><trkpt lat="43.755049516994745" lon="11.450328386934086"><ele>266.5</ele><time>2026-04-25T12:50:34.981Z</time></trkpt><trkpt lat="43.75491470708679" lon="11.450298173969136"><ele>267.25</ele><time>2026-04-25T12:50:35.981Z</time></trkpt><trkpt lat="43.75479454387318" lon="11.450195333727462"><ele>268.0</ele><time>2026-04-25T12:50:36.98Z</time></trkpt><trkpt lat="43.75467686403328" lon="11.450057411500625"><ele>268.0</ele><time>2026-04-25T12:50:37.981Z</time></trkpt><trkpt lat="43.75456057391434" lon="11.449924100235009"><ele>268.0</ele><time>2026-04-25T12:50:38.981Z</time></trkpt><trkpt lat="43.75443465522388" lon="11.449817174236692"><ele>268.0</ele><time>2026-04-25T12:50:39.981Z</time></trkpt><trkpt lat="43.754290790457894" lon="11.44973031581332"><ele>267.0</ele><time>2026-04-25T12:50:40.981Z</time></trkpt><trkpt lat="43.75413419387843" lon="11.449670750575603"><ele>266.0</ele><time>2026-04-25T12:50:41.981Z</time></trkpt><trkpt lat="43.754004972183864" lon="11.449579430417078"><ele>265.0</ele><time>2026-04-25T12:50:42.981Z</time></trkpt><trkpt lat="43.75387535537909" lon="11.44951476949308"><ele>264.0</ele><time>2026-04-25T12:50:43.981Z</time></trkpt><trkpt lat="43.753750548885954" lon="11.449471582789453"><ele>264.0</ele><time>2026-04-25T12:50:44.981Z</time></trkpt><trkpt lat="43.75361173198256" lon="11.449511470329941"><ele>264.0</ele><time>2026-04-25T12:50:45.98Z</time></trkpt><trkpt lat="43.75347397930916" lon="11.44955654113315"><ele>264.0</ele><time>2026-04-25T12:50:46.981Z</time></trkpt><trkpt lat="43.7533336824649" lon="11.449632819271127"><ele>264.0</ele><time>2026-04-25T12:50:47.981Z</time></trkpt><trkpt lat="43.75317492352988" lon="11.44971143869608"><ele>265.6666666666667</ele><time>2026-04-25T12:50:48.98Z</time></trkpt><trkpt lat="43.75300873451016" lon="11.449806312505379"><ele>267.33333333333337</ele><time>2026-04-25T12:50:49.981Z</time></trkpt><trkpt lat="43.75282616204452" lon="11.449891792712828"><ele>269.0</ele><time>2026-04-25T12:50:50.981Z</time></trkpt><trkpt lat="43.75263576544434" lon="11.449962461967228"><ele>269.0</ele><time>2026-04-25T12:50:51.981Z</time></trkpt><trkpt lat="43.752458032019625" lon="11.450017619084369"><ele>269.0</ele><time>2026-04-25T12:50:52.981Z</time></trkpt><trkpt lat="43.75229361875022" lon="11.450071759097447"><ele>269.0</ele><time>2026-04-25T12:50:53.981Z</time></trkpt><trkpt lat="43.7521285354501" lon="11.450125201691252"><ele>269.0</ele><time>2026-04-25T12:50:54.981Z</time></trkpt><trkpt lat="43.751954338752974" lon="11.450156007203828"><ele>269.0</ele><time>2026-04-25T12:50:55.981Z</time></trkpt><trkpt lat="43.751768188361176" lon="11.450149523983281"><ele>269.0</ele><time>2026-04-25T12:50:56.981Z</time></trkpt><trkpt lat="43.75157675203235" lon="11.450130035860802"><ele>268.0</ele><time>2026-04-25T12:50:57.981Z</time></trkpt><trkpt lat="43.75138970603211" lon="11.450102298033144"><ele>267.0</ele><time>2026-04-25T12:50:58.981Z</time></trkpt><trkpt lat="43.751213250882486" lon="11.450060822903009"><ele>266.0</ele><time>2026-04-25T12:50:59.981Z</time></trkpt><trkpt lat="43.75103691813607" lon="11.450000770155517"><ele>266.0</ele><time>2026-04-25T12:51:00.981Z</time></trkpt><trkpt lat="43.75085869006261" lon="11.44993613159116"><ele>266.0</ele><time>2026-04-25T12:51:01.981Z</time></trkpt><trkpt lat="43.750660554072006" lon="11.449914330462168"><ele>266.0</ele><time>2026-04-25T12:51:02.981Z</time></trkpt><trkpt lat="43.750459051273964" lon="11.449887102649523"><ele>266.0</ele><time>2026-04-25T12:51:03.981Z</time></trkpt><trkpt lat="43.75026565074601" lon="11.449871252218818"><ele>266.0</ele><time>2026-04-25T12:51:04.981Z</time></trkpt><trkpt lat="43.750061220816974" lon="11.449848388985266"><ele>266.0</ele><time>2026-04-25T12:51:05.981Z</time></trkpt><trkpt lat="43.74987135904112" lon="11.449806034257916"><ele>264.33333333333337</ele><time>2026-04-25T12:51:06.981Z</time></trkpt><trkpt lat="43.749688854572916" lon="11.44978421450259"><ele>262.6666666666667</ele><time>2026-04-25T12:51:07.981Z</time></trkpt><trkpt lat="43.74951550979743" lon="11.449758053935131"><ele>261.0</ele><time>2026-04-25T12:51:08.981Z</time></trkpt><trkpt lat="43.74933994642567" lon="11.449726245394118"><ele>260.6666666666667</ele><time>2026-04-25T12:51:09.981Z</time></trkpt><trkpt lat="43.74916597909272" lon="11.449639119249827"><ele>260.33333333333337</ele><time>2026-04-25T12:51:10.981Z</time></trkpt><trkpt lat="43.74899780934932" lon="11.449524512672008"><ele>260.0</ele><time>2026-04-25T12:51:11.981Z</time></trkpt><trkpt lat="43.74884747691385" lon="11.449393554914682"><ele>261.33333333333337</ele><time>2026-04-25T12:51:12.981Z</time></trkpt><trkpt lat="43.74871855653364" lon="11.449243934643984"><ele>262.6666666666667</ele><time>2026-04-25T12:51:13.981Z</time></trkpt><trkpt lat="43.74856815204093" lon="11.449154002137522"><ele>264.0</ele><time>2026-04-25T12:51:14.981Z</time></trkpt><trkpt lat="43.748416095789324" lon="11.449043907200943"><ele>264.0</ele><time>2026-04-25T12:51:15.981Z</time></trkpt><trkpt lat="43.74825054883795" lon="11.448947208031441"><ele>264.0</ele><time>2026-04-25T12:51:16.981Z</time></trkpt><trkpt lat="43.74806905613486" lon="11.448868570910278"><ele>264.0</ele><time>2026-04-25T12:51:17.981Z</time></trkpt><trkpt lat="43.74790004188364" lon="11.448812066765345"><ele>262.6666666666667</ele><time>2026-04-25T12:51:18.981Z</time></trkpt><trkpt lat="43.74773257500478" lon="11.448762383621487"><ele>261.33333333333337</ele><time>2026-04-25T12:51:19.981Z</time></trkpt><trkpt lat="43.74758843595364" lon="11.448718529915228"><ele>260.0</ele><time>2026-04-25T12:51:20.981Z</time></trkpt><trkpt lat="43.74744183448579" lon="11.448645978099355"><ele>260.0</ele><time>2026-04-25T12:51:21.981Z</time></trkpt><trkpt lat="43.74729215509542" lon="11.448544213771564"><ele>260.0</ele><time>2026-04-25T12:51:22.981Z</time></trkpt><trkpt lat="43.74717445618384" lon="11.44839732490283"><ele>260.0</ele><time>2026-04-25T12:51:23.981Z</time></trkpt><trkpt lat="43.747078735750684" lon="11.448251987912542"><ele>260.0</ele><time>2026-04-25T12:51:24.981Z</time></trkpt><trkpt lat="43.746999748182496" lon="11.448088911670753"><ele>260.0</ele><time>2026-04-25T12:51:25.981Z</time></trkpt><trkpt lat="43.746926002574604" lon="11.447921167501683"><ele>260.0</ele><time>2026-04-25T12:51:26.981Z</time></trkpt><trkpt lat="43.74688170451719" lon="11.447712465679153"><ele>260.0</ele><time>2026-04-25T12:51:27.981Z</time></trkpt><trkpt lat="43.74684435960961" lon="11.447478790384013"><ele>261.5</ele><time>2026-04-25T12:51:28.981Z</time></trkpt><trkpt lat="43.746816257951004" lon="11.447266106094768"><ele>263.0</ele><time>2026-04-25T12:51:29.981Z</time></trkpt><trkpt lat="43.74679028766243" lon="11.44707580710053"><ele>264.5</ele><time>2026-04-25T12:51:30.981Z</time></trkpt><trkpt lat="43.746763489246135" lon="11.446890517519519"><ele>266.0</ele><time>2026-04-25T12:51:31.981Z</time></trkpt><trkpt lat="43.74673970317513" lon="11.44671802595055"><ele>266.0</ele><time>2026-04-25T12:51:32.981Z</time></trkpt><trkpt lat="43.74671005563518" lon="11.446544246254323"><ele>266.0</ele><time>2026-04-25T12:51:33.981Z</time></trkpt><trkpt lat="43.74665884487401" lon="11.446373038605424"><ele>266.0</ele><time>2026-04-25T12:51:34.981Z</time></trkpt><trkpt lat="43.74657023129196" lon="11.446223134985425"><ele>266.0</ele><time>2026-04-25T12:51:35.981Z</time></trkpt><trkpt lat="43.746474919091064" lon="11.44609105085923"><ele>265.33333333333337</ele><time>2026-04-25T12:51:36.981Z</time></trkpt><trkpt lat="43.74632672727392" lon="11.44600722276223"><ele>264.6666666666667</ele><time>2026-04-25T12:51:37.981Z</time></trkpt><trkpt lat="43.74617273925079" lon="11.445939711538175"><ele>264.0</ele><time>2026-04-25T12:51:38.981Z</time></trkpt><trkpt lat="43.746007584471336" lon="11.445868536360825"><ele>264.0</ele><time>2026-04-25T12:51:39.981Z</time></trkpt><trkpt lat="43.74584210069634" lon="11.445778997490196"><ele>264.0</ele><time>2026-04-25T12:51:40.981Z</time></trkpt><trkpt lat="43.74569552253521" lon="11.445709779569404"><ele>264.0</ele><time>2026-04-25T12:51:41.981Z</time></trkpt><trkpt lat="43.74556510382841" lon="11.44562271335681"><ele>264.0</ele><time>2026-04-25T12:51:42.982Z</time></trkpt><trkpt lat="43.745452377220914" lon="11.445513673374702"><ele>264.0</ele><time>2026-04-25T12:51:43.982Z</time></trkpt><trkpt lat="43.74535125092059" lon="11.4454107265719"><ele>264.0</ele><time>2026-04-25T12:51:44.982Z</time></trkpt><trkpt lat="43.745257278683916" lon="11.445295287469277"><ele>264.0</ele><time>2026-04-25T12:51:45.982Z</time></trkpt><trkpt lat="43.74516708737899" lon="11.445173186951294"><ele>263.75</ele><time>2026-04-25T12:51:46.982Z</time></trkpt><trkpt lat="43.74507332019544" lon="11.445039772444884"><ele>263.5</ele><time>2026-04-25T12:51:47.982Z</time></trkpt><trkpt lat="43.74497437205726" lon="11.444873819375596"><ele>263.25</ele><time>2026-04-25T12:51:48.982Z</time></trkpt><trkpt lat="43.744865156660374" lon="11.444722206050205"><ele>263.0</ele><time>2026-04-25T12:51:49.982Z</time></trkpt><trkpt lat="43.74475742437096" lon="11.444587362030397"><ele>263.0</ele><time>2026-04-25T12:51:50.982Z</time></trkpt><trkpt lat="43.74463872363064" lon="11.444476914661724"><ele>263.0</ele><time>2026-04-25T12:51:51.982Z</time></trkpt><trkpt lat="43.74451561031826" lon="11.44438782394289"><ele>263.0</ele><time>2026-04-25T12:51:52.982Z</time></trkpt><trkpt lat="43.74438669890267" lon="11.444317556947906"><ele>263.0</ele><time>2026-04-25T12:51:53.982Z</time></trkpt><trkpt lat="43.74426809075684" lon="11.444261614054819"><ele>261.25</ele><time>2026-04-25T12:51:54.982Z</time></trkpt><trkpt lat="43.74414907350635" lon="11.444211100923878"><ele>259.5</ele><time>2026-04-25T12:51:55.982Z</time></trkpt><trkpt lat="43.744040368031065" lon="11.44416813937688"><ele>257.75</ele><time>2026-04-25T12:51:56.982Z</time></trkpt><trkpt lat="43.743936969309814" lon="11.444092322207137"><ele>256.0</ele><time>2026-04-25T12:51:57.982Z</time></trkpt><trkpt lat="43.74384814811539" lon="11.444041021637476"><ele>256.0</ele><time>2026-04-25T12:51:58.982Z</time></trkpt><trkpt lat="43.74374355190826" lon="11.443991107235705"><ele>256.0</ele><time>2026-04-25T12:51:59.982Z</time></trkpt><trkpt lat="43.743611395912275" lon="11.443944350462617"><ele>256.0</ele><time>2026-04-25T12:52:00.982Z</time></trkpt><trkpt lat="43.743465348772894" lon="11.443878898510468"><ele>256.0</ele><time>2026-04-25T12:52:01.982Z</time></trkpt><trkpt lat="43.74330305311538" lon="11.443809091535732"><ele>256.66666666666663</ele><time>2026-04-25T12:52:02.982Z</time></trkpt><trkpt lat="43.74312032291485" lon="11.443728987234387"><ele>257.3333333333333</ele><time>2026-04-25T12:52:03.982Z</time></trkpt><trkpt lat="43.742933477244435" lon="11.443645646592183"><ele>258.0</ele><time>2026-04-25T12:52:04.982Z</time></trkpt><trkpt lat="43.742743792623244" lon="11.443574719929284"><ele>259.6666666666667</ele><time>2026-04-25T12:52:05.982Z</time></trkpt><trkpt lat="43.74256175045137" lon="11.443486622133266"><ele>261.33333333333337</ele><time>2026-04-25T12:52:06.982Z</time></trkpt><trkpt lat="43.74237762597311" lon="11.443395311582375"><ele>263.0</ele><time>2026-04-25T12:52:07.982Z</time></trkpt><trkpt lat="43.74220082516821" lon="11.44331497316852"><ele>263.0</ele><time>2026-04-25T12:52:08.982Z</time></trkpt><trkpt lat="43.74202717773205" lon="11.443234650759235"><ele>263.0</ele><time>2026-04-25T12:52:09.982Z</time></trkpt><trkpt lat="43.74184880823322" lon="11.443147842656375"><ele>263.0</ele><time>2026-04-25T12:52:10.982Z</time></trkpt><trkpt lat="43.741664986603155" lon="11.443035352133528"><ele>263.33333333333337</ele><time>2026-04-25T12:52:11.982Z</time></trkpt><trkpt lat="43.74146606213276" lon="11.44292503072551"><ele>263.6666666666667</ele><time>2026-04-25T12:52:12.982Z</time></trkpt><trkpt lat="43.74125826508261" lon="11.442809788704784"><ele>264.0</ele><time>2026-04-25T12:52:13.982Z</time></trkpt><trkpt lat="43.741046654852774" lon="11.442690077468507"><ele>262.0</ele><time>2026-04-25T12:52:14.982Z</time></trkpt><trkpt lat="43.740843072443845" lon="11.442574292697627"><ele>260.0</ele><time>2026-04-25T12:52:15.982Z</time></trkpt><trkpt lat="43.74064709035753" lon="11.442476111852903"><ele>258.0</ele><time>2026-04-25T12:52:16.982Z</time></trkpt><trkpt lat="43.74046403038896" lon="11.442331246313687"><ele>258.0</ele><time>2026-04-25T12:52:17.982Z</time></trkpt><trkpt lat="43.74028310541594" lon="11.442180536859562"><ele>258.0</ele><time>2026-04-25T12:52:18.982Z</time></trkpt><trkpt lat="43.74011164555873" lon="11.44201130217649"><ele>258.0</ele><time>2026-04-25T12:52:19.982Z</time></trkpt><trkpt lat="43.739939961921394" lon="11.441832711644961"><ele>258.6666666666667</ele><time>2026-04-25T12:52:20.982Z</time></trkpt><trkpt lat="43.73976449000039" lon="11.441652714811687"><ele>259.33333333333337</ele><time>2026-04-25T12:52:21.982Z</time></trkpt><trkpt lat="43.73958368580927" lon="11.441472776419443"><ele>260.0</ele><time>2026-04-25T12:52:22.982Z</time></trkpt><trkpt lat="43.73940439941716" lon="11.441289131794951"><ele>261.0</ele><time>2026-04-25T12:52:23.982Z</time></trkpt><trkpt lat="43.73922301290942" lon="11.441108072647182"><ele>262.0</ele><time>2026-04-25T12:52:24.982Z</time></trkpt><trkpt lat="43.73906862197293" lon="11.4409295246639"><ele>263.0</ele><time>2026-04-25T12:52:25.982Z</time></trkpt><trkpt lat="43.73889630816822" lon="11.440761930037596"><ele>263.0</ele><time>2026-04-25T12:52:26.982Z</time></trkpt><trkpt lat="43.738731945463115" lon="11.440595866487683"><ele>263.0</ele><time>2026-04-25T12:52:27.982Z</time></trkpt><trkpt lat="43.738569316775674" lon="11.44043854583007"><ele>263.0</ele><time>2026-04-25T12:52:28.982Z</time></trkpt><trkpt lat="43.738412177203756" lon="11.44028410570053"><ele>263.6666666666667</ele><time>2026-04-25T12:52:29.982Z</time></trkpt><trkpt lat="43.73825736449197" lon="11.440125844516807"><ele>264.3333333333333</ele><time>2026-04-25T12:52:30.982Z</time></trkpt><trkpt lat="43.73810569805529" lon="11.439978086761576"><ele>265.0</ele><time>2026-04-25T12:52:31.982Z</time></trkpt><trkpt lat="43.73796624760063" lon="11.439838184348595"><ele>265.0</ele><time>2026-04-25T12:52:32.982Z</time></trkpt><trkpt lat="43.737823814965886" lon="11.43969080527078"><ele>265.0</ele><time>2026-04-25T12:52:33.982Z</time></trkpt><trkpt lat="43.73768718754776" lon="11.43951914654288"><ele>265.0</ele><time>2026-04-25T12:52:34.982Z</time></trkpt><trkpt lat="43.73755993524169" lon="11.439328206485346"><ele>264.3333333333333</ele><time>2026-04-25T12:52:35.982Z</time></trkpt><trkpt lat="43.737445390657584" lon="11.439109166729123"><ele>263.6666666666667</ele><time>2026-04-25T12:52:36.982Z</time></trkpt><trkpt lat="43.73733890691674" lon="11.438879877994317"><ele>263.0</ele><time>2026-04-25T12:52:37.982Z</time></trkpt><trkpt lat="43.73723002332981" lon="11.438660147243585"><ele>263.0</ele><time>2026-04-25T12:52:38.982Z</time></trkpt><trkpt lat="43.737117984964975" lon="11.4384618576551"><ele>263.0</ele><time>2026-04-25T12:52:39.982Z</time></trkpt><trkpt lat="43.73698138071222" lon="11.438294115291445"><ele>263.0</ele><time>2026-04-25T12:52:40.982Z</time></trkpt><trkpt lat="43.73682151843403" lon="11.438140868351487"><ele>262.6666666666667</ele><time>2026-04-25T12:52:41.982Z</time></trkpt><trkpt lat="43.7366567633149" lon="11.437983468808559"><ele>262.3333333333333</ele><time>2026-04-25T12:52:42.982Z</time></trkpt><trkpt lat="43.73648267196593" lon="11.437822905652661"><ele>262.0</ele><time>2026-04-25T12:52:43.981Z</time></trkpt><trkpt lat="43.736318405873455" lon="11.437668383927091"><ele>261.66666666666663</ele><time>2026-04-25T12:52:44.981Z</time></trkpt><trkpt lat="43.73614910733286" lon="11.43749686810949"><ele>261.3333333333333</ele><time>2026-04-25T12:52:45.981Z</time></trkpt><trkpt lat="43.73597838482306" lon="11.437338224134455"><ele>261.0</ele><time>2026-04-25T12:52:46.981Z</time></trkpt><trkpt lat="43.73582316009212" lon="11.437182283144983"><ele>262.3333333333333</ele><time>2026-04-25T12:52:47.981Z</time></trkpt><trkpt lat="43.73568357220278" lon="11.437028205367275"><ele>263.66666666666663</ele><time>2026-04-25T12:52:48.981Z</time></trkpt><trkpt lat="43.73554234331414" lon="11.436867936604799"><ele>265.0</ele><time>2026-04-25T12:52:49.982Z</time></trkpt><trkpt lat="43.73541978560479" lon="11.436698299532999"><ele>265.0</ele><time>2026-04-25T12:52:50.982Z</time></trkpt><trkpt lat="43.73530070708754" lon="11.43653708449662"><ele>265.0</ele><time>2026-04-25T12:52:51.982Z</time></trkpt><trkpt lat="43.7351541764456" lon="11.436391891114168"><ele>265.0</ele><time>2026-04-25T12:52:52.981Z</time></trkpt><trkpt lat="43.73500257666076" lon="11.436275594214472"><ele>265.66666666666663</ele><time>2026-04-25T12:52:53.981Z</time></trkpt><trkpt lat="43.73486483293556" lon="11.436194343673561"><ele>266.3333333333333</ele><time>2026-04-25T12:52:54.982Z</time></trkpt><trkpt lat="43.73470721436138" lon="11.436119352811208"><ele>267.0</ele><time>2026-04-25T12:52:55.981Z</time></trkpt><trkpt lat="43.734535260463296" lon="11.436092193578126"><ele>267.6666666666667</ele><time>2026-04-25T12:52:56.981Z</time></trkpt><trkpt lat="43.73434193717475" lon="11.436113505326254"><ele>268.33333333333337</ele><time>2026-04-25T12:52:57.981Z</time></trkpt><trkpt lat="43.734155174180835" lon="11.436131883429027"><ele>269.0</ele><time>2026-04-25T12:52:58.981Z</time></trkpt><trkpt lat="43.733963062945286" lon="11.436151661828875"><ele>269.0</ele><time>2026-04-25T12:52:59.981Z</time></trkpt><trkpt lat="43.733784127539806" lon="11.436169802525939"><ele>269.0</ele><time>2026-04-25T12:53:00.981Z</time></trkpt><trkpt lat="43.733616937385484" lon="11.436150107638383"><ele>269.0</ele><time>2026-04-25T12:53:01.981Z</time></trkpt><trkpt lat="43.7334403200722" lon="11.436167184615483"><ele>268.6666666666667</ele><time>2026-04-25T12:53:02.981Z</time></trkpt><trkpt lat="43.73326730199938" lon="11.43618290662105"><ele>268.3333333333333</ele><time>2026-04-25T12:53:03.981Z</time></trkpt><trkpt lat="43.733103815267675" lon="11.436186770504952"><ele>268.0</ele><time>2026-04-25T12:53:04.981Z</time></trkpt><trkpt lat="43.73295170845372" lon="11.436196318087184"><ele>268.0</ele><time>2026-04-25T12:53:05.981Z</time></trkpt><trkpt lat="43.73281118914515" lon="11.436210051760687"><ele>268.0</ele><time>2026-04-25T12:53:06.981Z</time></trkpt><trkpt lat="43.73268229679289" lon="11.43622820377068"><ele>268.0</ele><time>2026-04-25T12:53:07.981Z</time></trkpt><trkpt lat="43.732564046160284" lon="11.43626359895283"><ele>268.0</ele><time>2026-04-25T12:53:08.981Z</time></trkpt><trkpt lat="43.73245266491445" lon="11.436324133477324"><ele>266.5</ele><time>2026-04-25T12:53:09.981Z</time></trkpt><trkpt lat="43.73234643047229" lon="11.436415917717754"><ele>265.0</ele><time>2026-04-25T12:53:10.981Z</time></trkpt><trkpt lat="43.73224680312981" lon="11.436535685785456"><ele>263.5</ele><time>2026-04-25T12:53:11.981Z</time></trkpt><trkpt lat="43.732168709639346" lon="11.436684421488206"><ele>262.0</ele><time>2026-04-25T12:53:12.981Z</time></trkpt><trkpt lat="43.73210033473873" lon="11.436845921363215"><ele>262.0</ele><time>2026-04-25T12:53:13.981Z</time></trkpt><trkpt lat="43.73208160507636" lon="11.437046647838319"><ele>262.0</ele><time>2026-04-25T12:53:14.981Z</time></trkpt><trkpt lat="43.732094983203" lon="11.437265020913715"><ele>262.0</ele><time>2026-04-25T12:53:15.981Z</time></trkpt><trkpt lat="43.732118779189776" lon="11.437495104465308"><ele>262.3333333333333</ele><time>2026-04-25T12:53:16.981Z</time></trkpt><trkpt lat="43.7321609229176" lon="11.437734194264182"><ele>262.6666666666667</ele><time>2026-04-25T12:53:17.981Z</time></trkpt><trkpt lat="43.73217773543267" lon="11.43799928111232"><ele>263.0</ele><time>2026-04-25T12:53:18.981Z</time></trkpt><trkpt lat="43.732201096616244" lon="11.438285805264352"><ele>263.0</ele><time>2026-04-25T12:53:19.981Z</time></trkpt><trkpt lat="43.732225560557396" lon="11.438583357096057"><ele>263.0</ele><time>2026-04-25T12:53:20.981Z</time></trkpt><trkpt lat="43.73222472281765" lon="11.438869039941787"><ele>263.0</ele><time>2026-04-25T12:53:21.981Z</time></trkpt><trkpt lat="43.73223946858666" lon="11.439127780300671"><ele>264.33333333333337</ele><time>2026-04-25T12:53:22.981Z</time></trkpt><trkpt lat="43.73225431960338" lon="11.439376762734248"><ele>265.6666666666667</ele><time>2026-04-25T12:53:23.981Z</time></trkpt><trkpt lat="43.73226741258136" lon="11.43959627115958"><ele>267.0</ele><time>2026-04-25T12:53:24.981Z</time></trkpt><trkpt lat="43.73227995068903" lon="11.439805154000863"><ele>268.5</ele><time>2026-04-25T12:53:25.981Z</time></trkpt><trkpt lat="43.732308679278276" lon="11.439992121878714"><ele>270.0</ele><time>2026-04-25T12:53:26.981Z</time></trkpt><trkpt lat="43.73231937286858" lon="11.440171545537167"><ele>271.5</ele><time>2026-04-25T12:53:27.981Z</time></trkpt><trkpt lat="43.73232105116691" lon="11.440322758647357"><ele>273.0</ele><time>2026-04-25T12:53:28.981Z</time></trkpt><trkpt lat="43.73231482359792" lon="11.440445056214568"><ele>273.0</ele><time>2026-04-25T12:53:29.981Z</time></trkpt><trkpt lat="43.73228010335539" lon="11.440519517675456"><ele>273.0</ele><time>2026-04-25T12:53:30.981Z</time></trkpt><trkpt lat="43.73222458033114" lon="11.440567812087949"><ele>273.0</ele><time>2026-04-25T12:53:31.981Z</time></trkpt><trkpt lat="43.732155202211494" lon="11.440566300457089"><ele>273.0</ele><time>2026-04-25T12:53:32.981Z</time></trkpt><trkpt lat="43.73209901898834" lon="11.440480203941688"><ele>273.0</ele><time>2026-04-25T12:53:33.981Z</time></trkpt><trkpt lat="43.7320275182592" lon="11.440405302428001"><ele>273.0</ele><time>2026-04-25T12:53:34.981Z</time></trkpt><trkpt lat="43.73193452401002" lon="11.440324154923594"><ele>276.0</ele><time>2026-04-25T12:53:35.981Z</time></trkpt><trkpt lat="43.73184643749989" lon="11.440201480451211"><ele>279.0</ele><time>2026-04-25T12:53:36.981Z</time></trkpt><trkpt lat="43.73174483226117" lon="11.440048257949048"><ele>282.0</ele><time>2026-04-25T12:53:37.981Z</time></trkpt><trkpt lat="43.73165981916845" lon="11.439873098523254"><ele>285.0</ele><time>2026-04-25T12:53:38.981Z</time></trkpt><trkpt lat="43.73156622034331" lon="11.439679396206532"><ele>284.5</ele><time>2026-04-25T12:53:39.981Z</time></trkpt><trkpt lat="43.731490207426894" lon="11.439515638127455"><ele>284.0</ele><time>2026-04-25T12:53:40.981Z</time></trkpt><trkpt lat="43.73140422079223" lon="11.43937060257578"><ele>283.5</ele><time>2026-04-25T12:53:41.981Z</time></trkpt><trkpt lat="43.73131367528581" lon="11.43926483951369"><ele>283.0</ele><time>2026-04-25T12:53:42.981Z</time></trkpt><trkpt lat="43.731212400718874" lon="11.43917887612427"><ele>283.0</ele><time>2026-04-25T12:53:43.981Z</time></trkpt><trkpt lat="43.73110122562036" lon="11.439097650269513"><ele>283.0</ele><time>2026-04-25T12:53:44.981Z</time></trkpt><trkpt lat="43.730966999849926" lon="11.43907176956298"><ele>283.0</ele><time>2026-04-25T12:53:45.981Z</time></trkpt><trkpt lat="43.73081582835594" lon="11.439131789360852"><ele>283.0</ele><time>2026-04-25T12:53:46.981Z</time></trkpt><trkpt lat="43.73066973337014" lon="11.439174907562291"><ele>283.3333333333333</ele><time>2026-04-25T12:53:47.981Z</time></trkpt><trkpt lat="43.73050413003514" lon="11.439264581846349"><ele>283.6666666666667</ele><time>2026-04-25T12:53:48.981Z</time></trkpt><trkpt lat="43.7303196093279" lon="11.439381824647644"><ele>284.0</ele><time>2026-04-25T12:53:49.981Z</time></trkpt><trkpt lat="43.73012579323089" lon="11.439484006270721"><ele>284.0</ele><time>2026-04-25T12:53:50.981Z</time></trkpt><trkpt lat="43.729951918484566" lon="11.43963273439324"><ele>284.0</ele><time>2026-04-25T12:53:51.981Z</time></trkpt><trkpt lat="43.72978482747451" lon="11.439785084091291"><ele>284.0</ele><time>2026-04-25T12:53:52.981Z</time></trkpt><trkpt lat="43.72963726497723" lon="11.439942765106123"><ele>282.0</ele><time>2026-04-25T12:53:53.981Z</time></trkpt><trkpt lat="43.72946438805618" lon="11.440060760805496"><ele>280.0</ele><time>2026-04-25T12:53:54.981Z</time></trkpt><trkpt lat="43.72930894859305" lon="11.440184341690653"><ele>278.0</ele><time>2026-04-25T12:53:55.981Z</time></trkpt><trkpt lat="43.729156178345825" lon="11.440315893629345"><ele>278.0</ele><time>2026-04-25T12:53:56.981Z</time></trkpt><trkpt lat="43.72900397617126" lon="11.440433495257588"><ele>278.0</ele><time>2026-04-25T12:53:57.981Z</time></trkpt><trkpt lat="43.72885231636946" lon="11.440531763492762"><ele>278.0</ele><time>2026-04-25T12:53:58.981Z</time></trkpt><trkpt lat="43.72869875262765" lon="11.440614278301236"><ele>276.0</ele><time>2026-04-25T12:53:59.981Z</time></trkpt><trkpt lat="43.72853927799584" lon="11.4406779039622"><ele>274.0</ele><time>2026-04-25T12:54:00.981Z</time></trkpt><trkpt lat="43.72838609194423" lon="11.440735476987316"><ele>272.0</ele><time>2026-04-25T12:54:01.981Z</time></trkpt><trkpt lat="43.72823164756589" lon="11.44077163896138"><ele>272.0</ele><time>2026-04-25T12:54:02.981Z</time></trkpt><trkpt lat="43.7280653472721" lon="11.440795769644453"><ele>272.0</ele><time>2026-04-25T12:54:03.981Z</time></trkpt><trkpt lat="43.72788955491305" lon="11.440807493637188"><ele>272.0</ele><time>2026-04-25T12:54:04.981Z</time></trkpt><trkpt lat="43.72771431749621" lon="11.440814470321019"><ele>271.33333333333337</ele><time>2026-04-25T12:54:05.981Z</time></trkpt><trkpt lat="43.72753294121173" lon="11.44084057858615"><ele>270.6666666666667</ele><time>2026-04-25T12:54:06.981Z</time></trkpt><trkpt lat="43.72737380595925" lon="11.440853848797406"><ele>270.0</ele><time>2026-04-25T12:54:07.981Z</time></trkpt><trkpt lat="43.72721614656483" lon="11.440875971972474"><ele>270.0</ele><time>2026-04-25T12:54:08.981Z</time></trkpt><trkpt lat="43.7270609575926" lon="11.440890359607"><ele>270.0</ele><time>2026-04-25T12:54:09.981Z</time></trkpt><trkpt lat="43.726912665620304" lon="11.44091117333725"><ele>270.0</ele><time>2026-04-25T12:54:10.981Z</time></trkpt><trkpt lat="43.72677125014819" lon="11.440942770181985"><ele>270.0</ele><time>2026-04-25T12:54:11.981Z</time></trkpt><trkpt lat="43.726634630517474" lon="11.440997750225124"><ele>270.0</ele><time>2026-04-25T12:54:12.981Z</time></trkpt><trkpt lat="43.72649932066787" lon="11.44108664973427"><ele>270.0</ele><time>2026-04-25T12:54:13.981Z</time></trkpt><trkpt lat="43.72637541158628" lon="11.441213043152112"><ele>270.0</ele><time>2026-04-25T12:54:14.981Z</time></trkpt><trkpt lat="43.726262517006894" lon="11.441365559295441"><ele>268.3333333333333</ele><time>2026-04-25T12:54:15.981Z</time></trkpt><trkpt lat="43.726170129519936" lon="11.441531391481021"><ele>266.66666666666663</ele><time>2026-04-25T12:54:16.981Z</time></trkpt><trkpt lat="43.726095451781504" lon="11.44171656006835"><ele>265.0</ele><time>2026-04-25T12:54:17.981Z</time></trkpt><trkpt lat="43.72604397277612" lon="11.441908828416137"><ele>265.0</ele><time>2026-04-25T12:54:18.981Z</time></trkpt><trkpt lat="43.72602064959356" lon="11.442110075578288"><ele>265.0</ele><time>2026-04-25T12:54:19.981Z</time></trkpt><trkpt lat="43.72601533818677" lon="11.442320142917133"><ele>265.0</ele><time>2026-04-25T12:54:20.981Z</time></trkpt><trkpt lat="43.726015287475406" lon="11.442528048887619"><ele>265.0</ele><time>2026-04-25T12:54:21.981Z</time></trkpt><trkpt lat="43.726025523837485" lon="11.44273554960018"><ele>263.0</ele><time>2026-04-25T12:54:22.982Z</time></trkpt><trkpt lat="43.72603240977884" lon="11.442942403234117"><ele>261.0</ele><time>2026-04-25T12:54:23.982Z</time></trkpt><trkpt lat="43.72603519320765" lon="11.44315562922983"><ele>259.0</ele><time>2026-04-25T12:54:24.982Z</time></trkpt><trkpt lat="43.72603531170889" lon="11.443361538971477"><ele>256.66666666666663</ele><time>2026-04-25T12:54:25.982Z</time></trkpt><trkpt lat="43.72603745775227" lon="11.44356755062234"><ele>254.33333333333331</ele><time>2026-04-25T12:54:26.982Z</time></trkpt><trkpt lat="43.72603927347079" lon="11.443775055822323"><ele>252.0</ele><time>2026-04-25T12:54:27.981Z</time></trkpt><trkpt lat="43.72602469906362" lon="11.44398355668964"><ele>250.75</ele><time>2026-04-25T12:54:28.981Z</time></trkpt><trkpt lat="43.72600193243776" lon="11.444186666877656"><ele>249.5</ele><time>2026-04-25T12:54:29.981Z</time></trkpt><trkpt lat="43.72596522320515" lon="11.444375602098905"><ele>248.25</ele><time>2026-04-25T12:54:30.981Z</time></trkpt><trkpt lat="43.72591036419278" lon="11.444546649193608"><ele>247.0</ele><time>2026-04-25T12:54:31.98Z</time></trkpt><trkpt lat="43.725840055432855" lon="11.444709611366608"><ele>245.25</ele><time>2026-04-25T12:54:32.98Z</time></trkpt><trkpt lat="43.72574759044029" lon="11.444863289727571"><ele>243.5</ele><time>2026-04-25T12:54:33.98Z</time></trkpt><trkpt lat="43.72563306574853" lon="11.444993384481323"><ele>241.75</ele><time>2026-04-25T12:54:34.98Z</time></trkpt><trkpt lat="43.72549830593536" lon="11.445102881801452"><ele>240.0</ele><time>2026-04-25T12:54:35.98Z</time></trkpt><trkpt lat="43.72535464733023" lon="11.445186925989447"><ele>239.33333333333331</ele><time>2026-04-25T12:54:36.979Z</time></trkpt><trkpt lat="43.72519837574087" lon="11.445251451644602"><ele>238.66666666666666</ele><time>2026-04-25T12:54:37.979Z</time></trkpt><trkpt lat="43.72504062267637" lon="11.445313689614267"><ele>238.0</ele><time>2026-04-25T12:54:38.979Z</time></trkpt><trkpt lat="43.724876680577296" lon="11.445347513695134"><ele>238.0</ele><time>2026-04-25T12:54:39.979Z</time></trkpt><trkpt lat="43.72472845163777" lon="11.44539968482363"><ele>238.0</ele><time>2026-04-25T12:54:40.979Z</time></trkpt><trkpt lat="43.724575040477106" lon="11.44544697709303"><ele>238.0</ele><time>2026-04-25T12:54:41.979Z</time></trkpt><trkpt lat="43.72442212329849" lon="11.445485518221822"><ele>232.0</ele><time>2026-04-25T12:54:42.979Z</time></trkpt><trkpt lat="43.72426166347576" lon="11.445530045866608"><ele>226.0</ele><time>2026-04-25T12:54:43.978Z</time></trkpt><trkpt lat="43.724093575084304" lon="11.445532949024843"><ele>220.0</ele><time>2026-04-25T12:54:44.978Z</time></trkpt><trkpt lat="43.723927143532016" lon="11.445527619931049"><ele>220.0</ele><time>2026-04-25T12:54:45.978Z</time></trkpt><trkpt lat="43.72375504129223" lon="11.445512242704734"><ele>220.0</ele><time>2026-04-25T12:54:46.978Z</time></trkpt><trkpt lat="43.72357773088107" lon="11.445495047756399"><ele>220.0</ele><time>2026-04-25T12:54:47.978Z</time></trkpt><trkpt lat="43.723402092333394" lon="11.445479347469796"><ele>222.33333333333331</ele><time>2026-04-25T12:54:48.978Z</time></trkpt><trkpt lat="43.72322740014401" lon="11.44544165412126"><ele>224.66666666666669</ele><time>2026-04-25T12:54:49.978Z</time></trkpt><trkpt lat="43.72305053018109" lon="11.445431734159103"><ele>227.0</ele><time>2026-04-25T12:54:50.978Z</time></trkpt><trkpt lat="43.72287054963811" lon="11.445430640682648"><ele>226.0</ele><time>2026-04-25T12:54:51.978Z</time></trkpt><trkpt lat="43.722690191857566" lon="11.445461494351825"><ele>225.0</ele><time>2026-04-25T12:54:52.978Z</time></trkpt><trkpt lat="43.722515128585805" lon="11.445474087705078"><ele>224.0</ele><time>2026-04-25T12:54:53.978Z</time></trkpt><trkpt lat="43.72233353040086" lon="11.445486338458267"><ele>218.66666666666669</ele><time>2026-04-25T12:54:54.978Z</time></trkpt><trkpt lat="43.722157173570906" lon="11.445504941445737"><ele>213.33333333333331</ele><time>2026-04-25T12:54:55.978Z</time></trkpt><trkpt lat="43.721983481990975" lon="11.445513840934854"><ele>208.0</ele><time>2026-04-25T12:54:56.977Z</time></trkpt><trkpt lat="43.72181474036392" lon="11.445512561480674"><ele>209.0</ele><time>2026-04-25T12:54:57.978Z</time></trkpt><trkpt lat="43.72165080730022" lon="11.44550114258929"><ele>210.0</ele><time>2026-04-25T12:54:58.978Z</time></trkpt><trkpt lat="43.72149021666923" lon="11.445478120619113"><ele>211.0</ele><time>2026-04-25T12:54:59.978Z</time></trkpt><trkpt lat="43.72133226679897" lon="11.445428932113536"><ele>211.0</ele><time>2026-04-25T12:55:00.978Z</time></trkpt><trkpt lat="43.7211844898229" lon="11.445334720027821"><ele>211.0</ele><time>2026-04-25T12:55:01.977Z</time></trkpt><trkpt lat="43.72104897830992" lon="11.44526431550221"><ele>211.0</ele><time>2026-04-25T12:55:02.977Z</time></trkpt><trkpt lat="43.72091753946791" lon="11.44519550328631"><ele>211.0</ele><time>2026-04-25T12:55:03.977Z</time></trkpt><trkpt lat="43.720783813642036" lon="11.44513849317576"><ele>204.0</ele><time>2026-04-25T12:55:04.977Z</time></trkpt><trkpt lat="43.72063889053712" lon="11.445101516525167"><ele>197.0</ele><time>2026-04-25T12:55:05.977Z</time></trkpt><trkpt lat="43.720484402288186" lon="11.445092751711869"><ele>190.0</ele><time>2026-04-25T12:55:06.977Z</time></trkpt><trkpt lat="43.7203256513091" lon="11.445119333656976"><ele>187.66666666666669</ele><time>2026-04-25T12:55:07.977Z</time></trkpt><trkpt lat="43.720160934950194" lon="11.44518539918786"><ele>185.33333333333334</ele><time>2026-04-25T12:55:08.977Z</time></trkpt><trkpt lat="43.72002308254661" lon="11.44527894633904"><ele>183.0</ele><time>2026-04-25T12:55:09.977Z</time></trkpt><trkpt lat="43.719897155776096" lon="11.445419520193376"><ele>178.66666666666666</ele><time>2026-04-25T12:55:10.977Z</time></trkpt><trkpt lat="43.71979631636782" lon="11.445604228757066"><ele>174.33333333333331</ele><time>2026-04-25T12:55:11.977Z</time></trkpt><trkpt lat="43.71969627602041" lon="11.445806325347979"><ele>170.0</ele><time>2026-04-25T12:55:12.977Z</time></trkpt><trkpt lat="43.71960426403791" lon="11.446042342001975"><ele>170.0</ele><time>2026-04-25T12:55:13.977Z</time></trkpt><trkpt lat="43.71952460502189" lon="11.446258560622523"><ele>170.0</ele><time>2026-04-25T12:55:14.977Z</time></trkpt><trkpt lat="43.71944172059721" lon="11.446482098793668"><ele>170.0</ele><time>2026-04-25T12:55:15.977Z</time></trkpt><trkpt lat="43.719377573115445" lon="11.446704774145882"><ele>170.33333333333331</ele><time>2026-04-25T12:55:16.977Z</time></trkpt><trkpt lat="43.719302350538385" lon="11.446907672851717"><ele>170.66666666666666</ele><time>2026-04-25T12:55:17.977Z</time></trkpt><trkpt lat="43.719233198963884" lon="11.447118812071965"><ele>171.0</ele><time>2026-04-25T12:55:18.977Z</time></trkpt><trkpt lat="43.719153760348725" lon="11.447318485023052"><ele>167.66666666666666</ele><time>2026-04-25T12:55:19.977Z</time></trkpt><trkpt lat="43.71908791038987" lon="11.447523456903593"><ele>164.33333333333331</ele><time>2026-04-25T12:55:20.977Z</time></trkpt><trkpt lat="43.71903546357493" lon="11.447738606859039"><ele>161.0</ele><time>2026-04-25T12:55:21.977Z</time></trkpt><trkpt lat="43.71896491313155" lon="11.44792881133101"><ele>156.66666666666666</ele><time>2026-04-25T12:55:22.977Z</time></trkpt><trkpt lat="43.718885615993194" lon="11.448111803732445"><ele>152.33333333333334</ele><time>2026-04-25T12:55:23.977Z</time></trkpt><trkpt lat="43.71880670780972" lon="11.44829186770301"><ele>148.0</ele><time>2026-04-25T12:55:24.977Z</time></trkpt><trkpt lat="43.71870465638877" lon="11.448451355953303"><ele>148.0</ele><time>2026-04-25T12:55:25.977Z</time></trkpt><trkpt lat="43.71857788491956" lon="11.448574365881493"><ele>148.0</ele><time>2026-04-25T12:55:26.977Z</time></trkpt><trkpt lat="43.71843536700652" lon="11.448665188519735"><ele>148.0</ele><time>2026-04-25T12:55:27.977Z</time></trkpt><trkpt lat="43.71826071798364" lon="11.44873251820923"><ele>145.0</ele><time>2026-04-25T12:55:28.977Z</time></trkpt><trkpt lat="43.718051703059274" lon="11.44880160253764"><ele>142.0</ele><time>2026-04-25T12:55:29.977Z</time></trkpt><trkpt lat="43.717860242788326" lon="11.448898445024463"><ele>139.0</ele><time>2026-04-25T12:55:30.977Z</time></trkpt><trkpt lat="43.71767165250692" lon="11.448988919685512"><ele>139.0</ele><time>2026-04-25T12:55:31.977Z</time></trkpt><trkpt lat="43.71750365926711" lon="11.44906880009401"><ele>139.0</ele><time>2026-04-25T12:55:32.977Z</time></trkpt><trkpt lat="43.71733800790844" lon="11.449138838814138"><ele>139.0</ele><time>2026-04-25T12:55:33.977Z</time></trkpt><trkpt lat="43.7171724734505" lon="11.44920605748774"><ele>139.0</ele><time>2026-04-25T12:55:34.977Z</time></trkpt><trkpt lat="43.717003855162886" lon="11.449253863670652"><ele>139.0</ele><time>2026-04-25T12:55:35.977Z</time></trkpt><trkpt lat="43.71682365152811" lon="11.449283753228016"><ele>139.0</ele><time>2026-04-25T12:55:36.977Z</time></trkpt><trkpt lat="43.71663361753586" lon="11.4492989570707"><ele>138.33333333333334</ele><time>2026-04-25T12:55:37.977Z</time></trkpt><trkpt lat="43.71642850289419" lon="11.449310988448502"><ele>137.66666666666666</ele><time>2026-04-25T12:55:38.977Z</time></trkpt><trkpt lat="43.71621569103796" lon="11.449323416900741"><ele>137.0</ele><time>2026-04-25T12:55:39.977Z</time></trkpt><trkpt lat="43.715997326689845" lon="11.449343753141656"><ele>132.0</ele><time>2026-04-25T12:55:40.977Z</time></trkpt><trkpt lat="43.71577193921236" lon="11.449363795021789"><ele>127.0</ele><time>2026-04-25T12:55:41.977Z</time></trkpt><trkpt lat="43.715540029199545" lon="11.449383172977948"><ele>127.0</ele><time>2026-04-25T12:55:42.977Z</time></trkpt><trkpt lat="43.71530440704357" lon="11.449402892599219"><ele>127.0</ele><time>2026-04-25T12:55:43.977Z</time></trkpt><trkpt lat="43.71506282536418" lon="11.44942137614766"><ele>125.0</ele><time>2026-04-25T12:55:44.977Z</time></trkpt><trkpt lat="43.714823577421484" lon="11.449434125713985"><ele>123.0</ele><time>2026-04-25T12:55:45.977Z</time></trkpt><trkpt lat="43.71459388539038" lon="11.449454029095705"><ele>124.33333333333334</ele><time>2026-04-25T12:55:46.977Z</time></trkpt><trkpt lat="43.71437397182567" lon="11.449447721767303"><ele>125.66666666666667</ele><time>2026-04-25T12:55:47.977Z</time></trkpt><trkpt lat="43.71416590620168" lon="11.44946352683163"><ele>127.0</ele><time>2026-04-25T12:55:48.977Z</time></trkpt><trkpt lat="43.71396356549079" lon="11.449497034682055"><ele>127.0</ele><time>2026-04-25T12:55:49.977Z</time></trkpt><trkpt lat="43.71376468821866" lon="11.44950695224302"><ele>127.0</ele><time>2026-04-25T12:55:50.977Z</time></trkpt><trkpt lat="43.71357133832065" lon="11.449480806753353"><ele>127.0</ele><time>2026-04-25T12:55:51.977Z</time></trkpt><trkpt lat="43.713382112437074" lon="11.4494913751448"><ele>128.0</ele><time>2026-04-25T12:55:52.977Z</time></trkpt><trkpt lat="43.7131983385856" lon="11.449457737736068"><ele>129.0</ele><time>2026-04-25T12:55:53.977Z</time></trkpt><trkpt lat="43.713016941039484" lon="11.449400387591389"><ele>130.0</ele><time>2026-04-25T12:55:54.977Z</time></trkpt><trkpt lat="43.71285640332178" lon="11.449324000003601"><ele>129.0</ele><time>2026-04-25T12:55:55.977Z</time></trkpt><trkpt lat="43.712724822625525" lon="11.44920492601232"><ele>128.0</ele><time>2026-04-25T12:55:56.977Z</time></trkpt><trkpt lat="43.71260294927866" lon="11.449117814460406"><ele>127.0</ele><time>2026-04-25T12:55:57.977Z</time></trkpt><trkpt lat="43.71249121681564" lon="11.449040947262594"><ele>126.0</ele><time>2026-04-25T12:55:58.977Z</time></trkpt><trkpt lat="43.7123782196113" lon="11.448980538995134"><ele>126.0</ele><time>2026-04-25T12:55:59.977Z</time></trkpt><trkpt lat="43.71226534312795" lon="11.448926294294138"><ele>126.0</ele><time>2026-04-25T12:56:00.977Z</time></trkpt><trkpt lat="43.71214151464809" lon="11.44888582283486"><ele>126.0</ele><time>2026-04-25T12:56:01.977Z</time></trkpt><trkpt lat="43.712014114887" lon="11.448885244846917"><ele>126.0</ele><time>2026-04-25T12:56:02.977Z</time></trkpt><trkpt lat="43.711887390905034" lon="11.44890621938373"><ele>124.75</ele><time>2026-04-25T12:56:03.977Z</time></trkpt><trkpt lat="43.71176555367628" lon="11.44895531894487"><ele>123.5</ele><time>2026-04-25T12:56:04.977Z</time></trkpt><trkpt lat="43.711649605502245" lon="11.449032253590019"><ele>122.25</ele><time>2026-04-25T12:56:05.977Z</time></trkpt><trkpt lat="43.71155109680254" lon="11.449135125866333"><ele>121.0</ele><time>2026-04-25T12:56:06.977Z</time></trkpt><trkpt lat="43.71146329123422" lon="11.449258830575538"><ele>121.0</ele><time>2026-04-25T12:56:07.977Z</time></trkpt><trkpt lat="43.711384695083844" lon="11.449388695808468"><ele>121.0</ele><time>2026-04-25T12:56:08.977Z</time></trkpt><trkpt lat="43.71131889940485" lon="11.449532233051078"><ele>121.0</ele><time>2026-04-25T12:56:09.977Z</time></trkpt><trkpt lat="43.71127698841895" lon="11.449681866302235"><ele>121.0</ele><time>2026-04-25T12:56:10.977Z</time></trkpt><trkpt lat="43.71121534642212" lon="11.449808860946238"><ele>120.0</ele><time>2026-04-25T12:56:11.977Z</time></trkpt><trkpt lat="43.711163495420664" lon="11.4499340259349"><ele>119.0</ele><time>2026-04-25T12:56:12.977Z</time></trkpt><trkpt lat="43.71111318267346" lon="11.450074784101146"><ele>118.0</ele><time>2026-04-25T12:56:13.977Z</time></trkpt><trkpt lat="43.711049217141856" lon="11.450177098125472"><ele>117.0</ele><time>2026-04-25T12:56:14.977Z</time></trkpt><trkpt lat="43.710999294709275" lon="11.45029549788477"><ele>116.0</ele><time>2026-04-25T12:56:15.977Z</time></trkpt><trkpt lat="43.710928305630986" lon="11.450425409004174"><ele>114.75</ele><time>2026-04-25T12:56:16.977Z</time></trkpt><trkpt lat="43.71083140132388" lon="11.450466002117217"><ele>113.5</ele><time>2026-04-25T12:56:17.977Z</time></trkpt><trkpt lat="43.71073119683714" lon="11.450535970468811"><ele>112.25</ele><time>2026-04-25T12:56:18.977Z</time></trkpt><trkpt lat="43.71062372613893" lon="11.450616236368862"><ele>111.0</ele><time>2026-04-25T12:56:19.977Z</time></trkpt><trkpt lat="43.71048821886286" lon="11.450630022404269"><ele>111.0</ele><time>2026-04-25T12:56:20.977Z</time></trkpt><trkpt lat="43.71036184367173" lon="11.450641507366912"><ele>111.0</ele><time>2026-04-25T12:56:21.977Z</time></trkpt><trkpt lat="43.71023355496447" lon="11.45061024486228"><ele>111.0</ele><time>2026-04-25T12:56:22.977Z</time></trkpt><trkpt lat="43.71010531256609" lon="11.450588849841862"><ele>111.0</ele><time>2026-04-25T12:56:23.977Z</time></trkpt><trkpt lat="43.709974264372725" lon="11.45050744091162"><ele>111.33333333333334</ele><time>2026-04-25T12:56:24.977Z</time></trkpt><trkpt lat="43.70983157168271" lon="11.450390037623581"><ele>111.66666666666667</ele><time>2026-04-25T12:56:25.977Z</time></trkpt><trkpt lat="43.709683663716284" lon="11.450246769693578"><ele>112.0</ele><time>2026-04-25T12:56:26.977Z</time></trkpt><trkpt lat="43.70952511756833" lon="11.450114076025889"><ele>111.33333333333334</ele><time>2026-04-25T12:56:27.977Z</time></trkpt><trkpt lat="43.709352673490415" lon="11.449977389746245"><ele>110.66666666666666</ele><time>2026-04-25T12:56:28.977Z</time></trkpt><trkpt lat="43.709184315406176" lon="11.449856980737804"><ele>110.0</ele><time>2026-04-25T12:56:29.977Z</time></trkpt><trkpt lat="43.70901909219862" lon="11.449729087628228"><ele>110.0</ele><time>2026-04-25T12:56:30.977Z</time></trkpt><trkpt lat="43.708845852457856" lon="11.449643061767938"><ele>110.0</ele><time>2026-04-25T12:56:31.977Z</time></trkpt><trkpt lat="43.70867057357087" lon="11.449577740065502"><ele>110.0</ele><time>2026-04-25T12:56:32.977Z</time></trkpt><trkpt lat="43.70849103384265" lon="11.449534589704353"><ele>111.33333333333333</ele><time>2026-04-25T12:56:33.977Z</time></trkpt><trkpt lat="43.70831540882129" lon="11.449491422700513"><ele>112.66666666666666</ele><time>2026-04-25T12:56:34.977Z</time></trkpt><trkpt lat="43.708135361503246" lon="11.449474767679314"><ele>114.0</ele><time>2026-04-25T12:56:35.977Z</time></trkpt><trkpt lat="43.70795274958631" lon="11.44947353198351"><ele>114.0</ele><time>2026-04-25T12:56:36.977Z</time></trkpt><trkpt lat="43.707761387860344" lon="11.449451585682171"><ele>114.0</ele><time>2026-04-25T12:56:37.977Z</time></trkpt><trkpt lat="43.70755912501072" lon="11.449431141692907"><ele>114.0</ele><time>2026-04-25T12:56:38.977Z</time></trkpt><trkpt lat="43.7073485371626" lon="11.449415956980731"><ele>114.33333333333334</ele><time>2026-04-25T12:56:39.977Z</time></trkpt><trkpt lat="43.7071307987873" lon="11.449398537472252"><ele>114.66666666666667</ele><time>2026-04-25T12:56:40.977Z</time></trkpt><trkpt lat="43.70691420120787" lon="11.449372860187786"><ele>115.0</ele><time>2026-04-25T12:56:41.977Z</time></trkpt><trkpt lat="43.70670969119329" lon="11.449359810956244"><ele>115.0</ele><time>2026-04-25T12:56:42.977Z</time></trkpt><trkpt lat="43.70651605945933" lon="11.449343863739823"><ele>115.0</ele><time>2026-04-25T12:56:43.977Z</time></trkpt><trkpt lat="43.7063248387345" lon="11.449333188420049"><ele>115.0</ele><time>2026-04-25T12:56:44.977Z</time></trkpt><trkpt lat="43.706129235272684" lon="11.449319806473197"><ele>113.66666666666667</ele><time>2026-04-25T12:56:45.977Z</time></trkpt><trkpt lat="43.7059343699227" lon="11.449384718163204"><ele>112.33333333333334</ele><time>2026-04-25T12:56:46.977Z</time></trkpt><trkpt lat="43.705737829907285" lon="11.449438443302274"><ele>111.0</ele><time>2026-04-25T12:56:47.977Z</time></trkpt><trkpt lat="43.705550832094474" lon="11.449492388236258"><ele>111.0</ele><time>2026-04-25T12:56:48.977Z</time></trkpt><trkpt lat="43.70537237695154" lon="11.44953838083474"><ele>111.0</ele><time>2026-04-25T12:56:49.977Z</time></trkpt><trkpt lat="43.70519790467004" lon="11.449586269688103"><ele>111.0</ele><time>2026-04-25T12:56:50.977Z</time></trkpt><trkpt lat="43.705034199130694" lon="11.449639315858546"><ele>110.0</ele><time>2026-04-25T12:56:51.977Z</time></trkpt><trkpt lat="43.70487666213381" lon="11.449685656981494"><ele>109.0</ele><time>2026-04-25T12:56:52.977Z</time></trkpt><trkpt lat="43.70472189466703" lon="11.449729701236746"><ele>108.0</ele><time>2026-04-25T12:56:53.977Z</time></trkpt><trkpt lat="43.704569428968945" lon="11.449766228170983"><ele>108.66666666666666</ele><time>2026-04-25T12:56:54.978Z</time></trkpt><trkpt lat="43.704408532426505" lon="11.449786647827395"><ele>109.33333333333333</ele><time>2026-04-25T12:56:55.977Z</time></trkpt><trkpt lat="43.70423902192545" lon="11.449786895414839"><ele>110.0</ele><time>2026-04-25T12:56:56.977Z</time></trkpt><trkpt lat="43.7040687542989" lon="11.449760894066152"><ele>110.0</ele><time>2026-04-25T12:56:57.978Z</time></trkpt><trkpt lat="43.703886019962425" lon="11.449731434120999"><ele>110.0</ele><time>2026-04-25T12:56:58.977Z</time></trkpt><trkpt lat="43.70370736542748" lon="11.449686184378963"><ele>110.0</ele><time>2026-04-25T12:56:59.977Z</time></trkpt><trkpt lat="43.70352459233221" lon="11.449629862534232"><ele>110.66666666666666</ele><time>2026-04-25T12:57:00.977Z</time></trkpt><trkpt lat="43.70334140501936" lon="11.449566827477373"><ele>111.33333333333334</ele><time>2026-04-25T12:57:01.977Z</time></trkpt><trkpt lat="43.703155648028954" lon="11.449513184057249"><ele>112.0</ele><time>2026-04-25T12:57:02.977Z</time></trkpt><trkpt lat="43.702966882119455" lon="11.449460437312302"><ele>112.0</ele><time>2026-04-25T12:57:03.977Z</time></trkpt><trkpt lat="43.70277807308066" lon="11.449401998445506"><ele>112.0</ele><time>2026-04-25T12:57:04.978Z</time></trkpt><trkpt lat="43.70259144705527" lon="11.449351218772232"><ele>112.0</ele><time>2026-04-25T12:57:05.978Z</time></trkpt><trkpt lat="43.702418167016226" lon="11.449307327790077"><ele>112.0</ele><time>2026-04-25T12:57:06.978Z</time></trkpt><trkpt lat="43.70225428922301" lon="11.449256655629274"><ele>112.0</ele><time>2026-04-25T12:57:07.977Z</time></trkpt><trkpt lat="43.70209697724347" lon="11.449208743913319"><ele>112.0</ele><time>2026-04-25T12:57:08.977Z</time></trkpt><trkpt lat="43.701945651737894" lon="11.449167634816094"><ele>111.66666666666667</ele><time>2026-04-25T12:57:09.977Z</time></trkpt><trkpt lat="43.7017996748851" lon="11.449127088198885"><ele>111.33333333333334</ele><time>2026-04-25T12:57:10.977Z</time></trkpt><trkpt lat="43.70164765673567" lon="11.449082018720814"><ele>111.0</ele><time>2026-04-25T12:57:11.977Z</time></trkpt><trkpt lat="43.70149283030618" lon="11.449023488160075"><ele>111.0</ele><time>2026-04-25T12:57:12.977Z</time></trkpt><trkpt lat="43.701336130898675" lon="11.44902267658851"><ele>111.0</ele><time>2026-04-25T12:57:13.977Z</time></trkpt><trkpt lat="43.70118695108697" lon="11.448994762712214"><ele>111.0</ele><time>2026-04-25T12:57:14.977Z</time></trkpt><trkpt lat="43.701040988903834" lon="11.449032274193645"><ele>111.0</ele><time>2026-04-25T12:57:15.977Z</time></trkpt><trkpt lat="43.700894983385744" lon="11.44907517631315"><ele>111.0</ele><time>2026-04-25T12:57:16.977Z</time></trkpt><trkpt lat="43.70073300578377" lon="11.449161350548119"><ele>111.0</ele><time>2026-04-25T12:57:17.977Z</time></trkpt><trkpt lat="43.7005701327356" lon="11.449275873453333"><ele>111.0</ele><time>2026-04-25T12:57:18.977Z</time></trkpt><trkpt lat="43.70041198415785" lon="11.449401237314452"><ele>111.0</ele><time>2026-04-25T12:57:19.977Z</time></trkpt><trkpt lat="43.700240179345236" lon="11.449496658978397"><ele>111.0</ele><time>2026-04-25T12:57:20.977Z</time></trkpt><trkpt lat="43.70007076316461" lon="11.44961075168612"><ele>111.0</ele><time>2026-04-25T12:57:21.977Z</time></trkpt><trkpt lat="43.699895457044" lon="11.449717510850588"><ele>111.0</ele><time>2026-04-25T12:57:22.977Z</time></trkpt><trkpt lat="43.699720855416864" lon="11.449804423200057"><ele>111.0</ele><time>2026-04-25T12:57:23.977Z</time></trkpt><trkpt lat="43.699547905908474" lon="11.44986884450881"><ele>112.0</ele><time>2026-04-25T12:57:24.977Z</time></trkpt><trkpt lat="43.69937636171224" lon="11.449925262196937"><ele>113.0</ele><time>2026-04-25T12:57:25.977Z</time></trkpt><trkpt lat="43.69920047681307" lon="11.449958824057079"><ele>114.0</ele><time>2026-04-25T12:57:26.977Z</time></trkpt><trkpt lat="43.69902461582886" lon="11.449973960562243"><ele>114.0</ele><time>2026-04-25T12:57:27.977Z</time></trkpt><trkpt lat="43.69885046525204" lon="11.449979805079792"><ele>114.0</ele><time>2026-04-25T12:57:28.977Z</time></trkpt><trkpt lat="43.69867209043712" lon="11.449980125849617"><ele>114.0</ele><time>2026-04-25T12:57:29.977Z</time></trkpt><trkpt lat="43.698494571603504" lon="11.449964611940894"><ele>114.66666666666666</ele><time>2026-04-25T12:57:30.977Z</time></trkpt><trkpt lat="43.698313960922675" lon="11.449949339437296"><ele>115.33333333333333</ele><time>2026-04-25T12:57:31.977Z</time></trkpt><trkpt lat="43.69814909208596" lon="11.449936695151084"><ele>116.0</ele><time>2026-04-25T12:57:32.977Z</time></trkpt><trkpt lat="43.69799247579987" lon="11.449929348737772"><ele>116.0</ele><time>2026-04-25T12:57:33.977Z</time></trkpt><trkpt lat="43.69783510574879" lon="11.449942857409596"><ele>116.0</ele><time>2026-04-25T12:57:34.977Z</time></trkpt><trkpt lat="43.69767386795118" lon="11.4499976089413"><ele>116.0</ele><time>2026-04-25T12:57:35.977Z</time></trkpt><trkpt lat="43.69750926041076" lon="11.450080315739726"><ele>117.0</ele><time>2026-04-25T12:57:36.977Z</time></trkpt><trkpt lat="43.69733971274921" lon="11.450181916538646"><ele>118.0</ele><time>2026-04-25T12:57:37.977Z</time></trkpt><trkpt lat="43.69717386007827" lon="11.450292415747006"><ele>119.0</ele><time>2026-04-25T12:57:38.977Z</time></trkpt><trkpt lat="43.69702093119947" lon="11.450405740106754"><ele>118.33333333333333</ele><time>2026-04-25T12:57:39.977Z</time></trkpt><trkpt lat="43.69687312703932" lon="11.450532255774174"><ele>117.66666666666666</ele><time>2026-04-25T12:57:40.977Z</time></trkpt><trkpt lat="43.69673295229474" lon="11.450675874343714"><ele>117.0</ele><time>2026-04-25T12:57:41.977Z</time></trkpt><trkpt lat="43.696603959020834" lon="11.45080723710729"><ele>117.0</ele><time>2026-04-25T12:57:42.977Z</time></trkpt><trkpt lat="43.69646246892632" lon="11.450927175949614"><ele>117.0</ele><time>2026-04-25T12:57:43.977Z</time></trkpt><trkpt lat="43.69630811679607" lon="11.451037849685756"><ele>117.0</ele><time>2026-04-25T12:57:44.977Z</time></trkpt><trkpt lat="43.6961347372126" lon="11.451130081535252"><ele>118.0</ele><time>2026-04-25T12:57:45.977Z</time></trkpt><trkpt lat="43.69594865341476" lon="11.451202950873586"><ele>119.0</ele><time>2026-04-25T12:57:46.977Z</time></trkpt><trkpt lat="43.695744525938174" lon="11.451266958274505"><ele>120.0</ele><time>2026-04-25T12:57:47.977Z</time></trkpt><trkpt lat="43.695542094684676" lon="11.451328923592053"><ele>118.66666666666666</ele><time>2026-04-25T12:57:48.977Z</time></trkpt><trkpt lat="43.69535435132567" lon="11.451387454118509"><ele>117.33333333333333</ele><time>2026-04-25T12:57:49.977Z</time></trkpt><trkpt lat="43.6951711980963" lon="11.451448164545004"><ele>116.0</ele><time>2026-04-25T12:57:50.977Z</time></trkpt><trkpt lat="43.69499650984155" lon="11.45151275918803"><ele>116.0</ele><time>2026-04-25T12:57:51.977Z</time></trkpt><trkpt lat="43.6948276295335" lon="11.451564554105595"><ele>116.0</ele><time>2026-04-25T12:57:52.977Z</time></trkpt><trkpt lat="43.6946664372488" lon="11.451614902521774"><ele>116.0</ele><time>2026-04-25T12:57:53.977Z</time></trkpt><trkpt lat="43.69451259703145" lon="11.451660499021365"><ele>116.0</ele><time>2026-04-25T12:57:54.977Z</time></trkpt><trkpt lat="43.694362081653246" lon="11.451689924815398"><ele>116.0</ele><time>2026-04-25T12:57:55.977Z</time></trkpt><trkpt lat="43.69421343722727" lon="11.451694828557287"><ele>116.0</ele><time>2026-04-25T12:57:56.977Z</time></trkpt><trkpt lat="43.69405436677914" lon="11.451692753237483"><ele>116.0</ele><time>2026-04-25T12:57:57.977Z</time></trkpt><trkpt lat="43.693885030370815" lon="11.451675170458879"><ele>116.0</ele><time>2026-04-25T12:57:58.977Z</time></trkpt><trkpt lat="43.693704887455894" lon="11.451658045831415"><ele>116.0</ele><time>2026-04-25T12:57:59.977Z</time></trkpt><trkpt lat="43.69350484230637" lon="11.451659915410268"><ele>115.33333333333333</ele><time>2026-04-25T12:58:00.977Z</time></trkpt><trkpt lat="43.69330412701379" lon="11.451673787602886"><ele>114.66666666666666</ele><time>2026-04-25T12:58:01.977Z</time></trkpt><trkpt lat="43.69310988629435" lon="11.451665595148958"><ele>114.0</ele><time>2026-04-25T12:58:02.977Z</time></trkpt><trkpt lat="43.69292633374308" lon="11.451702767230168"><ele>113.33333333333334</ele><time>2026-04-25T12:58:03.977Z</time></trkpt><trkpt lat="43.69274893476464" lon="11.451715364606903"><ele>112.66666666666667</ele><time>2026-04-25T12:58:04.977Z</time></trkpt><trkpt lat="43.692573455512935" lon="11.451709953376545"><ele>112.0</ele><time>2026-04-25T12:58:05.977Z</time></trkpt><trkpt lat="43.69239978287983" lon="11.451731360973268"><ele>112.0</ele><time>2026-04-25T12:58:06.977Z</time></trkpt><trkpt lat="43.692232686933075" lon="11.451750384968326"><ele>112.0</ele><time>2026-04-25T12:58:07.977Z</time></trkpt><trkpt lat="43.69207333025231" lon="11.451773731759056"><ele>112.0</ele><time>2026-04-25T12:58:08.977Z</time></trkpt><trkpt lat="43.691920014369366" lon="11.451802034040375"><ele>112.25</ele><time>2026-04-25T12:58:09.977Z</time></trkpt><trkpt lat="43.69177110038416" lon="11.451811957790431"><ele>112.5</ele><time>2026-04-25T12:58:10.977Z</time></trkpt><trkpt lat="43.69163633093244" lon="11.451875802785922"><ele>112.75</ele><time>2026-04-25T12:58:11.977Z</time></trkpt><trkpt lat="43.691487645693776" lon="11.4519167179164"><ele>113.0</ele><time>2026-04-25T12:58:12.977Z</time></trkpt><trkpt lat="43.69134521332969" lon="11.451989116378792"><ele>113.0</ele><time>2026-04-25T12:58:13.978Z</time></trkpt><trkpt lat="43.69122809659943" lon="11.452111238618528"><ele>113.0</ele><time>2026-04-25T12:58:14.978Z</time></trkpt><trkpt lat="43.6911102673348" lon="11.452200220373957"><ele>113.0</ele><time>2026-04-25T12:58:15.978Z</time></trkpt><trkpt lat="43.69099801898122" lon="11.452284881080391"><ele>113.0</ele><time>2026-04-25T12:58:16.978Z</time></trkpt><trkpt lat="43.69088757823822" lon="11.452358846352567"><ele>112.66666666666666</ele><time>2026-04-25T12:58:17.978Z</time></trkpt><trkpt lat="43.69078679345509" lon="11.452415579733762"><ele>112.33333333333333</ele><time>2026-04-25T12:58:18.978Z</time></trkpt><trkpt lat="43.690692320027765" lon="11.452439610246417"><ele>112.0</ele><time>2026-04-25T12:58:19.978Z</time></trkpt><trkpt lat="43.690604214385175" lon="11.452441063391555"><ele>111.66666666666666</ele><time>2026-04-25T12:58:20.978Z</time></trkpt><trkpt lat="43.690526434890295" lon="11.45246325898217"><ele>111.33333333333333</ele><time>2026-04-25T12:58:21.978Z</time></trkpt><trkpt lat="43.69045869900826" lon="11.45248016804993"><ele>111.0</ele><time>2026-04-25T12:58:22.978Z</time></trkpt><trkpt lat="43.69042635205356" lon="11.452569046302411"><ele>111.0</ele><time>2026-04-25T12:58:23.978Z</time></trkpt><trkpt lat="43.69041556872555" lon="11.452662687887944"><ele>111.0</ele><time>2026-04-25T12:58:24.978Z</time></trkpt><trkpt lat="43.6904326321802" lon="11.452771371739644"><ele>111.0</ele><time>2026-04-25T12:58:25.978Z</time></trkpt><trkpt lat="43.69048040553129" lon="11.452885211718744"><ele>111.0</ele><time>2026-04-25T12:58:26.978Z</time></trkpt><trkpt lat="43.69047079751809" lon="11.453047239872687"><ele>111.0</ele><time>2026-04-25T12:58:27.978Z</time></trkpt><trkpt lat="43.690471756070515" lon="11.453214700449038"><ele>111.0</ele><time>2026-04-25T12:58:28.978Z</time></trkpt><trkpt lat="43.6904377490403" lon="11.453404816320987"><ele>111.0</ele><time>2026-04-25T12:58:29.978Z</time></trkpt><trkpt lat="43.69038360357168" lon="11.453618590536012"><ele>111.0</ele><time>2026-04-25T12:58:30.978Z</time></trkpt><trkpt lat="43.69032809477381" lon="11.453841136517914"><ele>111.0</ele><time>2026-04-25T12:58:31.978Z</time></trkpt><trkpt lat="43.69027846104747" lon="11.454065457472769"><ele>111.0</ele><time>2026-04-25T12:58:32.978Z</time></trkpt><trkpt lat="43.69023211518416" lon="11.454294025749888"><ele>111.0</ele><time>2026-04-25T12:58:33.978Z</time></trkpt><trkpt lat="43.690176215026476" lon="11.4545477704599"><ele>110.0</ele><time>2026-04-25T12:58:34.978Z</time></trkpt><trkpt lat="43.69011328047028" lon="11.454824460507636"><ele>109.0</ele><time>2026-04-25T12:58:35.978Z</time></trkpt><trkpt lat="43.690055033056666" lon="11.455092858576183"><ele>108.0</ele><time>2026-04-25T12:58:36.978Z</time></trkpt><trkpt lat="43.69000721547888" lon="11.455333943506792"><ele>107.33333333333334</ele><time>2026-04-25T12:58:37.978Z</time></trkpt><trkpt lat="43.68995807620147" lon="11.455564457430924"><ele>106.66666666666667</ele><time>2026-04-25T12:58:38.978Z</time></trkpt><trkpt lat="43.689901250043185" lon="11.455780614562464"><ele>106.0</ele><time>2026-04-25T12:58:39.978Z</time></trkpt><trkpt lat="43.68984661542946" lon="11.45604505627712"><ele>106.66666666666667</ele><time>2026-04-25T12:58:40.978Z</time></trkpt><trkpt lat="43.689776792236856" lon="11.456299496214026"><ele>107.33333333333334</ele><time>2026-04-25T12:58:41.978Z</time></trkpt><trkpt lat="43.6897257686535" lon="11.45655775121188"><ele>108.0</ele><time>2026-04-25T12:58:42.978Z</time></trkpt><trkpt lat="43.68966788807229" lon="11.456823838804613"><ele>108.0</ele><time>2026-04-25T12:58:43.978Z</time></trkpt><trkpt lat="43.6896178907394" lon="11.457076352848215"><ele>108.0</ele><time>2026-04-25T12:58:44.978Z</time></trkpt><trkpt lat="43.68956882847571" lon="11.45732775389815"><ele>108.0</ele><time>2026-04-25T12:58:45.978Z</time></trkpt><trkpt lat="43.68952137973842" lon="11.457561696518539"><ele>108.33333333333334</ele><time>2026-04-25T12:58:46.978Z</time></trkpt><trkpt lat="43.68947427659981" lon="11.45779099540667"><ele>108.66666666666667</ele><time>2026-04-25T12:58:47.978Z</time></trkpt><trkpt lat="43.689431154028135" lon="11.458001516193493"><ele>109.0</ele><time>2026-04-25T12:58:48.978Z</time></trkpt><trkpt lat="43.68938856530714" lon="11.458210975596261"><ele>109.0</ele><time>2026-04-25T12:58:49.978Z</time></trkpt><trkpt lat="43.68934276590439" lon="11.458408191747411"><ele>109.0</ele><time>2026-04-25T12:58:50.978Z</time></trkpt><trkpt lat="43.689299286076945" lon="11.458599876093796"><ele>109.0</ele><time>2026-04-25T12:58:51.978Z</time></trkpt><trkpt lat="43.68925813124118" lon="11.45877923781298"><ele>109.0</ele><time>2026-04-25T12:58:52.978Z</time></trkpt><trkpt lat="43.689222873254565" lon="11.45894546987691"><ele>109.33333333333334</ele><time>2026-04-25T12:58:53.978Z</time></trkpt><trkpt lat="43.68919291024628" lon="11.459084821957498"><ele>109.66666666666667</ele><time>2026-04-25T12:58:54.978Z</time></trkpt><trkpt lat="43.68916293677495" lon="11.459193200473011"><ele>110.0</ele><time>2026-04-25T12:58:55.978Z</time></trkpt><trkpt lat="43.68914611914015" lon="11.459277135497365"><ele>110.33333333333334</ele><time>2026-04-25T12:58:56.978Z</time></trkpt><trkpt lat="43.68907371814563" lon="11.459351365769168"><ele>110.66666666666667</ele><time>2026-04-25T12:58:59.978Z</time></trkpt><trkpt lat="43.68899165559212" lon="11.459428825376968"><ele>111.0</ele><time>2026-04-25T12:59:02.978Z</time></trkpt><trkpt lat="43.688950946523654" lon="11.45950669374972"><ele>111.0</ele><time>2026-04-25T12:59:03.979Z</time></trkpt><trkpt lat="43.68890020101779" lon="11.459612986751253"><ele>111.0</ele><time>2026-04-25T12:59:04.978Z</time></trkpt><trkpt lat="43.68886544785394" lon="11.459721623621482"><ele>111.0</ele><time>2026-04-25T12:59:05.978Z</time></trkpt><trkpt lat="43.68886358200746" lon="11.459836675651012"><ele>111.0</ele><time>2026-04-25T12:59:06.978Z</time></trkpt><trkpt lat="43.688661153870825" lon="11.459841425462754"><ele>113.75</ele><time>2026-04-25T12:59:07.979Z</time></trkpt><trkpt lat="43.68853153749048" lon="11.459901813770504"><ele>116.5</ele><time>2026-04-25T12:59:08.979Z</time></trkpt><trkpt lat="43.688413230805644" lon="11.459975145396669"><ele>119.25</ele><time>2026-04-25T12:59:09.979Z</time></trkpt><trkpt lat="43.688309417067344" lon="11.46001279768414"><ele>122.0</ele><time>2026-04-25T12:59:10.978Z</time></trkpt><trkpt lat="43.68820833259135" lon="11.460048230641217"><ele>122.0</ele><time>2026-04-25T12:59:11.978Z</time></trkpt><trkpt lat="43.688113255185186" lon="11.460085536740651"><ele>121.99999999999999</ele><time>2026-04-25T12:59:12.979Z</time></trkpt><trkpt lat="43.68802199159192" lon="11.460132797873253"><ele>121.99999999999999</ele><time>2026-04-25T12:59:13.979Z</time></trkpt><trkpt lat="43.68792640336873" lon="11.460215651880468"><ele>122.0</ele><time>2026-04-25T12:59:14.979Z</time></trkpt><trkpt lat="43.687831468666886" lon="11.460332411123327"><ele>122.0</ele><time>2026-04-25T12:59:15.979Z</time></trkpt><trkpt lat="43.687764854631176" lon="11.46047781934692"><ele>122.5</ele><time>2026-04-25T12:59:16.979Z</time></trkpt><trkpt lat="43.68772064910072" lon="11.46066371198451"><ele>123.0</ele><time>2026-04-25T12:59:17.979Z</time></trkpt><trkpt lat="43.687667986467076" lon="11.460831847298925"><ele>123.5</ele><time>2026-04-25T12:59:18.979Z</time></trkpt><trkpt lat="43.68757852076111" lon="11.46096883498533"><ele>124.0</ele><time>2026-04-25T12:59:19.979Z</time></trkpt><trkpt lat="43.68748082990865" lon="11.46104687078085"><ele>124.0</ele><time>2026-04-25T12:59:20.979Z</time></trkpt><trkpt lat="43.68735393699966" lon="11.461075690855926"><ele>124.0</ele><time>2026-04-25T12:59:21.979Z</time></trkpt><trkpt lat="43.68721726053406" lon="11.461106651359692"><ele>124.0</ele><time>2026-04-25T12:59:22.979Z</time></trkpt><trkpt lat="43.687073988892344" lon="11.46114707549703"><ele>124.0</ele><time>2026-04-25T12:59:23.979Z</time></trkpt><trkpt lat="43.68694888741756" lon="11.461204096369864"><ele>122.75</ele><time>2026-04-25T12:59:24.979Z</time></trkpt><trkpt lat="43.68683405584363" lon="11.461253510225234"><ele>121.5</ele><time>2026-04-25T12:59:25.979Z</time></trkpt><trkpt lat="43.686713271833625" lon="11.461324150292096"><ele>120.25</ele><time>2026-04-25T12:59:26.979Z</time></trkpt><trkpt lat="43.68661183415446" lon="11.46142142989442"><ele>119.0</ele><time>2026-04-25T12:59:27.979Z</time></trkpt><trkpt lat="43.68652526135623" lon="11.461552933567951"><ele>121.75</ele><time>2026-04-25T12:59:28.979Z</time></trkpt><trkpt lat="43.686445487307516" lon="11.46172003792106"><ele>124.5</ele><time>2026-04-25T12:59:29.979Z</time></trkpt><trkpt lat="43.686369617720004" lon="11.461850238821354"><ele>127.25</ele><time>2026-04-25T12:59:30.979Z</time></trkpt><trkpt lat="43.68629517336417" lon="11.46201366925393"><ele>130.0</ele><time>2026-04-25T12:59:31.979Z</time></trkpt><trkpt lat="43.686214869479095" lon="11.462157028183807"><ele>130.5</ele><time>2026-04-25T12:59:32.979Z</time></trkpt><trkpt lat="43.68611179381652" lon="11.462289189097723"><ele>131.0</ele><time>2026-04-25T12:59:33.979Z</time></trkpt><trkpt lat="43.686005826664335" lon="11.462419286245334"><ele>131.5</ele><time>2026-04-25T12:59:34.979Z</time></trkpt><trkpt lat="43.685896259091535" lon="11.462546822902059"><ele>132.0</ele><time>2026-04-25T12:59:35.979Z</time></trkpt><trkpt lat="43.68576904111132" lon="11.462653543923215"><ele>132.0</ele><time>2026-04-25T12:59:36.979Z</time></trkpt><trkpt lat="43.68565607563984" lon="11.462780274933046"><ele>132.0</ele><time>2026-04-25T12:59:37.979Z</time></trkpt><trkpt lat="43.68555045250605" lon="11.462901768934481"><ele>132.0</ele><time>2026-04-25T12:59:38.979Z</time></trkpt><trkpt lat="43.68544226923578" lon="11.46301665695823"><ele>132.0</ele><time>2026-04-25T12:59:39.979Z</time></trkpt><trkpt lat="43.68533702394062" lon="11.46313463684952"><ele>132.75</ele><time>2026-04-25T12:59:40.979Z</time></trkpt><trkpt lat="43.68522340503227" lon="11.463267516580409"><ele>133.5</ele><time>2026-04-25T12:59:41.979Z</time></trkpt><trkpt lat="43.68511825849552" lon="11.463391995362949"><ele>134.25</ele><time>2026-04-25T12:59:42.979Z</time></trkpt><trkpt lat="43.684993973467385" lon="11.46349922077617"><ele>135.0</ele><time>2026-04-25T12:59:43.979Z</time></trkpt><trkpt lat="43.6848569893171" lon="11.4635959792746"><ele>135.0</ele><time>2026-04-25T12:59:44.979Z</time></trkpt><trkpt lat="43.68470257194975" lon="11.4636786451775"><ele>135.0</ele><time>2026-04-25T12:59:45.979Z</time></trkpt><trkpt lat="43.68452696603586" lon="11.463740281790367"><ele>135.0</ele><time>2026-04-25T12:59:46.979Z</time></trkpt><trkpt lat="43.68432716162595" lon="11.463784600377119"><ele>140.0</ele><time>2026-04-25T12:59:47.979Z</time></trkpt><trkpt lat="43.684105636968525" lon="11.463812694641806"><ele>145.0</ele><time>2026-04-25T12:59:48.979Z</time></trkpt><trkpt lat="43.683888993347615" lon="11.463831896481294"><ele>150.0</ele><time>2026-04-25T12:59:49.979Z</time></trkpt><trkpt lat="43.68368097598975" lon="11.46384502643009"><ele>151.0</ele><time>2026-04-25T12:59:50.979Z</time></trkpt><trkpt lat="43.683485623561864" lon="11.463858911074968"><ele>152.0</ele><time>2026-04-25T12:59:51.979Z</time></trkpt><trkpt lat="43.683308635714916" lon="11.463872950689403"><ele>153.0</ele><time>2026-04-25T12:59:52.979Z</time></trkpt><trkpt lat="43.683132967052416" lon="11.463882452999135"><ele>153.0</ele><time>2026-04-25T12:59:53.979Z</time></trkpt><trkpt lat="43.6829572865211" lon="11.46389987729005"><ele>153.0</ele><time>2026-04-25T12:59:54.979Z</time></trkpt><trkpt lat="43.68278191694816" lon="11.463918365070604"><ele>153.0</ele><time>2026-04-25T12:59:55.979Z</time></trkpt><trkpt lat="43.68261763388166" lon="11.463931862478262"><ele>152.66666666666666</ele><time>2026-04-25T12:59:56.979Z</time></trkpt><trkpt lat="43.68245188229162" lon="11.463937073493186"><ele>152.33333333333331</ele><time>2026-04-25T12:59:57.979Z</time></trkpt><trkpt lat="43.6822884819726" lon="11.46395706345315"><ele>152.0</ele><time>2026-04-25T12:59:58.979Z</time></trkpt><trkpt lat="43.68211289944594" lon="11.46392793925658"><ele>152.0</ele><time>2026-04-25T12:59:59.979Z</time></trkpt><trkpt lat="43.6819462310342" lon="11.463947732310672"><ele>152.0</ele><time>2026-04-25T13:00:00.979Z</time></trkpt><trkpt lat="43.68177887141413" lon="11.463984595106046"><ele>152.0</ele><time>2026-04-25T13:00:01.979Z</time></trkpt><trkpt lat="43.68160551528357" lon="11.464056399955547"><ele>152.66666666666666</ele><time>2026-04-25T13:00:02.979Z</time></trkpt><trkpt lat="43.681433567634244" lon="11.464146036388287"><ele>153.33333333333334</ele><time>2026-04-25T13:00:03.979Z</time></trkpt><trkpt lat="43.681277727553955" lon="11.464239014414717"><ele>154.0</ele><time>2026-04-25T13:00:04.979Z</time></trkpt><trkpt lat="43.68113706397409" lon="11.464328598272216"><ele>154.5</ele><time>2026-04-25T13:00:05.979Z</time></trkpt><trkpt lat="43.681006324725985" lon="11.464412108367538"><ele>155.0</ele><time>2026-04-25T13:00:06.979Z</time></trkpt><trkpt lat="43.680874378024306" lon="11.464483776578069"><ele>155.5</ele><time>2026-04-25T13:00:07.979Z</time></trkpt><trkpt lat="43.68076090891083" lon="11.464540989392574"><ele>156.0</ele><time>2026-04-25T13:00:08.979Z</time></trkpt><trkpt lat="43.68064840132331" lon="11.464585356677835"><ele>157.5</ele><time>2026-04-25T13:00:09.979Z</time></trkpt><trkpt lat="43.68052506135473" lon="11.464616647428231"><ele>159.0</ele><time>2026-04-25T13:00:10.979Z</time></trkpt><trkpt lat="43.680400181574356" lon="11.464624606510466"><ele>160.5</ele><time>2026-04-25T13:00:11.979Z</time></trkpt><trkpt lat="43.68026085840796" lon="11.464595926476107"><ele>162.0</ele><time>2026-04-25T13:00:12.979Z</time></trkpt><trkpt lat="43.68015932644736" lon="11.4644971911884"><ele>163.75</ele><time>2026-04-25T13:00:13.979Z</time></trkpt><trkpt lat="43.68006752729933" lon="11.464378248849345"><ele>165.5</ele><time>2026-04-25T13:00:14.979Z</time></trkpt><trkpt lat="43.67996374480396" lon="11.464238686830463"><ele>167.25</ele><time>2026-04-25T13:00:15.979Z</time></trkpt><trkpt lat="43.679862425562796" lon="11.464098572696235"><ele>169.0</ele><time>2026-04-25T13:00:16.979Z</time></trkpt><trkpt lat="43.679757814319075" lon="11.463954483010026"><ele>169.0</ele><time>2026-04-25T13:00:17.979Z</time></trkpt><trkpt lat="43.67964613074718" lon="11.463810134608751"><ele>169.0</ele><time>2026-04-25T13:00:18.979Z</time></trkpt><trkpt lat="43.679541363154364" lon="11.46366636224914"><ele>169.0</ele><time>2026-04-25T13:00:19.979Z</time></trkpt><trkpt lat="43.67943573558007" lon="11.463524013400757"><ele>169.0</ele><time>2026-04-25T13:00:20.979Z</time></trkpt><trkpt lat="43.67934718741352" lon="11.463351778745169"><ele>169.66666666666669</ele><time>2026-04-25T13:00:21.979Z</time></trkpt><trkpt lat="43.67927413156519" lon="11.463146480971417"><ele>170.33333333333334</ele><time>2026-04-25T13:00:22.979Z</time></trkpt><trkpt lat="43.67921016518794" lon="11.462951994603653"><ele>171.0</ele><time>2026-04-25T13:00:23.979Z</time></trkpt><trkpt lat="43.679178234802315" lon="11.462776047638629"><ele>171.0</ele><time>2026-04-25T13:00:24.979Z</time></trkpt><trkpt lat="43.67911825569425" lon="11.462631150192268"><ele>171.0</ele><time>2026-04-25T13:00:25.979Z</time></trkpt><trkpt lat="43.679058278280024" lon="11.462510284005615"><ele>171.0</ele><time>2026-04-25T13:00:26.979Z</time></trkpt><trkpt lat="43.67898130565831" lon="11.462431336989079"><ele>171.0</ele><time>2026-04-25T13:00:27.979Z</time></trkpt><trkpt lat="43.67888649531523" lon="11.462390282316184"><ele>171.0</ele><time>2026-04-25T13:00:28.979Z</time></trkpt><trkpt lat="43.67877554622589" lon="11.46236825694851"><ele>171.0</ele><time>2026-04-25T13:00:29.979Z</time></trkpt><trkpt lat="43.678680831571654" lon="11.462427288454494"><ele>171.0</ele><time>2026-04-25T13:00:30.979Z</time></trkpt><trkpt lat="43.678597548143564" lon="11.462523474078093"><ele>171.0</ele><time>2026-04-25T13:00:31.979Z</time></trkpt><trkpt lat="43.67853437098215" lon="11.462658341853995"><ele>171.0</ele><time>2026-04-25T13:00:32.979Z</time></trkpt><trkpt lat="43.67847447599365" lon="11.46282861415703"><ele>172.25</ele><time>2026-04-25T13:00:33.979Z</time></trkpt><trkpt lat="43.67840331921969" lon="11.463002291702956"><ele>173.5</ele><time>2026-04-25T13:00:34.979Z</time></trkpt><trkpt lat="43.67836513751107" lon="11.463189914457269"><ele>174.75</ele><time>2026-04-25T13:00:35.979Z</time></trkpt><trkpt lat="43.678298805539164" lon="11.463332038282552"><ele>176.0</ele><time>2026-04-25T13:00:36.979Z</time></trkpt><trkpt lat="43.67824714905327" lon="11.463453148122863"><ele>176.0</ele><time>2026-04-25T13:00:37.979Z</time></trkpt><trkpt lat="43.67819472854787" lon="11.463572549124775"><ele>176.0</ele><time>2026-04-25T13:00:38.979Z</time></trkpt><trkpt lat="43.67809952969037" lon="11.463657638099038"><ele>176.0</ele><time>2026-04-25T13:00:39.979Z</time></trkpt><trkpt lat="43.67799413658572" lon="11.463674432079316"><ele>176.0</ele><time>2026-04-25T13:00:40.979Z</time></trkpt><trkpt lat="43.67788583654149" lon="11.463667637490454"><ele>176.0</ele><time>2026-04-25T13:00:41.979Z</time></trkpt><trkpt lat="43.67779320003423" lon="11.463638996980952"><ele>176.20000000000002</ele><time>2026-04-25T13:00:42.979Z</time></trkpt><trkpt lat="43.67771862617944" lon="11.463595782674762"><ele>176.4</ele><time>2026-04-25T13:00:43.979Z</time></trkpt><trkpt lat="43.677659725692564" lon="11.46351764048992"><ele>176.6</ele><time>2026-04-25T13:00:44.979Z</time></trkpt><trkpt lat="43.67760677348715" lon="11.46340969490735"><ele>176.8</ele><time>2026-04-25T13:00:45.979Z</time></trkpt><trkpt lat="43.67759565188199" lon="11.463253562845768"><ele>177.0</ele><time>2026-04-25T13:00:46.979Z</time></trkpt><trkpt lat="43.67759296906473" lon="11.46306948281932"><ele>176.66666666666666</ele><time>2026-04-25T13:00:47.979Z</time></trkpt><trkpt lat="43.677592453638695" lon="11.462863241858713"><ele>176.33333333333331</ele><time>2026-04-25T13:00:48.979Z</time></trkpt><trkpt lat="43.67758099642072" lon="11.462637104007767"><ele>176.0</ele><time>2026-04-25T13:00:49.979Z</time></trkpt><trkpt lat="43.67757741297911" lon="11.46240984024682"><ele>176.0</ele><time>2026-04-25T13:00:50.979Z</time></trkpt><trkpt lat="43.67756552436411" lon="11.462184995760706"><ele>176.0</ele><time>2026-04-25T13:00:51.979Z</time></trkpt><trkpt lat="43.67754712437272" lon="11.461951551801985"><ele>176.0</ele><time>2026-04-25T13:00:52.979Z</time></trkpt><trkpt lat="43.67752365905937" lon="11.46172218267496"><ele>176.0</ele><time>2026-04-25T13:00:53.979Z</time></trkpt><trkpt lat="43.67749904408105" lon="11.461513869479155"><ele>176.0</ele><time>2026-04-25T13:00:54.979Z</time></trkpt><trkpt lat="43.6774727788908" lon="11.46131902964984"><ele>176.0</ele><time>2026-04-25T13:00:55.979Z</time></trkpt><trkpt lat="43.677443241340484" lon="11.461140443401227"><ele>176.0</ele><time>2026-04-25T13:00:56.979Z</time></trkpt><trkpt lat="43.67739758507231" lon="11.460964098695529"><ele>175.25</ele><time>2026-04-25T13:00:57.979Z</time></trkpt><trkpt lat="43.67733616746309" lon="11.460792051101526"><ele>174.5</ele><time>2026-04-25T13:00:58.979Z</time></trkpt><trkpt lat="43.67726516530581" lon="11.460617923480275"><ele>173.75</ele><time>2026-04-25T13:00:59.979Z</time></trkpt><trkpt lat="43.67719208742558" lon="11.460457800770861"><ele>173.0</ele><time>2026-04-25T13:01:00.979Z</time></trkpt><trkpt lat="43.67712459414324" lon="11.460315757334675"><ele>174.60000000000002</ele><time>2026-04-25T13:01:01.979Z</time></trkpt><trkpt lat="43.67704796845792" lon="11.460184998928145"><ele>176.20000000000002</ele><time>2026-04-25T13:01:02.979Z</time></trkpt><trkpt lat="43.676974009719885" lon="11.460101177859022"><ele>177.8</ele><time>2026-04-25T13:01:03.979Z</time></trkpt><trkpt lat="43.6768997892223" lon="11.460022569390402"><ele>179.4</ele><time>2026-04-25T13:01:04.979Z</time></trkpt><trkpt lat="43.67680924217898" lon="11.460008497979462"><ele>181.0</ele><time>2026-04-25T13:01:05.979Z</time></trkpt><trkpt lat="43.676710016384334" lon="11.460080026430628"><ele>181.0</ele><time>2026-04-25T13:01:06.979Z</time></trkpt><trkpt lat="43.676601569349835" lon="11.46015979969155"><ele>181.0</ele><time>2026-04-25T13:01:07.979Z</time></trkpt><trkpt lat="43.67648533304217" lon="11.460239473393601"><ele>181.0</ele><time>2026-04-25T13:01:08.979Z</time></trkpt><trkpt lat="43.676368387256524" lon="11.460330618030609"><ele>181.0</ele><time>2026-04-25T13:01:09.979Z</time></trkpt><trkpt lat="43.67626139022451" lon="11.460396030210786"><ele>181.0</ele><time>2026-04-25T13:01:10.979Z</time></trkpt><trkpt lat="43.67614982526653" lon="11.460435271016163"><ele>181.0</ele><time>2026-04-25T13:01:11.979Z</time></trkpt><trkpt lat="43.67603659863994" lon="11.460415514334402"><ele>181.0</ele><time>2026-04-25T13:01:12.979Z</time></trkpt><trkpt lat="43.67592567178284" lon="11.460314144888592"><ele>181.0</ele><time>2026-04-25T13:01:13.979Z</time></trkpt><trkpt lat="43.67580160034522" lon="11.460220846727367"><ele>181.5</ele><time>2026-04-25T13:01:14.979Z</time></trkpt><trkpt lat="43.67569222994187" lon="11.460161189247472"><ele>182.0</ele><time>2026-04-25T13:01:15.979Z</time></trkpt><trkpt lat="43.675577213100716" lon="11.46013558809633"><ele>182.5</ele><time>2026-04-25T13:01:16.979Z</time></trkpt><trkpt lat="43.67544941486502" lon="11.460135520055724"><ele>183.0</ele><time>2026-04-25T13:01:17.979Z</time></trkpt><trkpt lat="43.6753155841279" lon="11.46017856700594"><ele>183.75</ele><time>2026-04-25T13:01:18.979Z</time></trkpt><trkpt lat="43.67517892910086" lon="11.460256512350673"><ele>184.5</ele><time>2026-04-25T13:01:19.979Z</time></trkpt><trkpt lat="43.67504396665712" lon="11.460327364651139"><ele>185.25</ele><time>2026-04-25T13:01:20.979Z</time></trkpt><trkpt lat="43.674919767532295" lon="11.460342875579093"><ele>186.0</ele><time>2026-04-25T13:01:21.979Z</time></trkpt><trkpt lat="43.67480706348433" lon="11.460299369563176"><ele>186.0</ele><time>2026-04-25T13:01:22.979Z</time></trkpt><trkpt lat="43.67471820532794" lon="11.460207760022024"><ele>186.0</ele><time>2026-04-25T13:01:23.979Z</time></trkpt><trkpt lat="43.674660732892754" lon="11.460087845790614"><ele>186.0</ele><time>2026-04-25T13:01:24.979Z</time></trkpt><trkpt lat="43.67463125991266" lon="11.459935093363736"><ele>186.0</ele><time>2026-04-25T13:01:25.979Z</time></trkpt><trkpt lat="43.674615610051056" lon="11.459778996317088"><ele>186.0</ele><time>2026-04-25T13:01:26.979Z</time></trkpt><trkpt lat="43.67458121224256" lon="11.459613113193704"><ele>186.75</ele><time>2026-04-25T13:01:27.979Z</time></trkpt><trkpt lat="43.674527032642324" lon="11.459452420153514"><ele>187.5</ele><time>2026-04-25T13:01:28.979Z</time></trkpt><trkpt lat="43.67444821481425" lon="11.459300551765446"><ele>188.25</ele><time>2026-04-25T13:01:29.979Z</time></trkpt><trkpt lat="43.67434880816704" lon="11.45915113800635"><ele>189.0</ele><time>2026-04-25T13:01:30.979Z</time></trkpt><trkpt lat="43.67422553340497" lon="11.45901874185221"><ele>189.0</ele><time>2026-04-25T13:01:31.979Z</time></trkpt><trkpt lat="43.67410071948551" lon="11.458904967449284"><ele>189.0</ele><time>2026-04-25T13:01:32.979Z</time></trkpt><trkpt lat="43.67398600536239" lon="11.458796159157943"><ele>189.0</ele><time>2026-04-25T13:01:33.979Z</time></trkpt><trkpt lat="43.67387160791824" lon="11.458700416462406"><ele>189.0</ele><time>2026-04-25T13:01:34.979Z</time></trkpt><trkpt lat="43.673755769719904" lon="11.458585071932156"><ele>189.0</ele><time>2026-04-25T13:01:35.979Z</time></trkpt><trkpt lat="43.67365355498571" lon="11.458470731618286"><ele>189.0</ele><time>2026-04-25T13:01:36.979Z</time></trkpt><trkpt lat="43.673559018487026" lon="11.45832739521858"><ele>189.0</ele><time>2026-04-25T13:01:37.979Z</time></trkpt><trkpt lat="43.6734749173632" lon="11.458203005217284"><ele>189.0</ele><time>2026-04-25T13:01:38.979Z</time></trkpt><trkpt lat="43.673388596531815" lon="11.458071187042544"><ele>188.5</ele><time>2026-04-25T13:01:39.979Z</time></trkpt><trkpt lat="43.673294825560994" lon="11.4579481431571"><ele>188.0</ele><time>2026-04-25T13:01:40.979Z</time></trkpt><trkpt lat="43.67321046428161" lon="11.457868529453203"><ele>187.5</ele><time>2026-04-25T13:01:41.979Z</time></trkpt><trkpt lat="43.673124965653734" lon="11.457789034017656"><ele>187.0</ele><time>2026-04-25T13:01:42.979Z</time></trkpt><trkpt lat="43.673008769589686" lon="11.457764195706066"><ele>187.0</ele><time>2026-04-25T13:01:43.979Z</time></trkpt><trkpt lat="43.67290535609138" lon="11.457794162969595"><ele>187.0</ele><time>2026-04-25T13:01:44.979Z</time></trkpt><trkpt lat="43.67280784576661" lon="11.457847191259567"><ele>187.0</ele><time>2026-04-25T13:01:45.979Z</time></trkpt><trkpt lat="43.6727318317272" lon="11.457954313701919"><ele>187.0</ele><time>2026-04-25T13:01:46.979Z</time></trkpt><trkpt lat="43.67269656298825" lon="11.458094276588646"><ele>187.0</ele><time>2026-04-25T13:01:47.979Z</time></trkpt><trkpt lat="43.672665610912226" lon="11.458245887831128"><ele>185.0</ele><time>2026-04-25T13:01:48.979Z</time></trkpt><trkpt lat="43.6726619441499" lon="11.45843273291306"><ele>183.0</ele><time>2026-04-25T13:01:49.979Z</time></trkpt><trkpt lat="43.672683113396594" lon="11.45861977516644"><ele>181.0</ele><time>2026-04-25T13:01:50.979Z</time></trkpt><trkpt lat="43.67270730660132" lon="11.458808905626082"><ele>179.0</ele><time>2026-04-25T13:01:51.979Z</time></trkpt><trkpt lat="43.672739137451565" lon="11.458986757635062"><ele>181.25</ele><time>2026-04-25T13:01:52.979Z</time></trkpt><trkpt lat="43.67278058185175" lon="11.459163302023088"><ele>183.5</ele><time>2026-04-25T13:01:53.979Z</time></trkpt><trkpt lat="43.67282487939635" lon="11.459317644345568"><ele>185.75</ele><time>2026-04-25T13:01:54.979Z</time></trkpt><trkpt lat="43.672884121837335" lon="11.459465306682926"><ele>188.0</ele><time>2026-04-25T13:01:55.979Z</time></trkpt><trkpt lat="43.67297103350893" lon="11.459599531094918"><ele>184.5</ele><time>2026-04-25T13:01:56.979Z</time></trkpt><trkpt lat="43.67307682800491" lon="11.459719181801523"><ele>181.0</ele><time>2026-04-25T13:01:57.979Z</time></trkpt><trkpt lat="43.67317579956411" lon="11.45983873947357"><ele>177.5</ele><time>2026-04-25T13:01:58.979Z</time></trkpt><trkpt lat="43.673279676539636" lon="11.459946648756963"><ele>174.0</ele><time>2026-04-25T13:01:59.979Z</time></trkpt><trkpt lat="43.673379769491724" lon="11.460051716782864"><ele>174.0</ele><time>2026-04-25T13:02:00.979Z</time></trkpt><trkpt lat="43.673462787312886" lon="11.4601762582087"><ele>174.0</ele><time>2026-04-25T13:02:01.979Z</time></trkpt><trkpt lat="43.673543097554436" lon="11.460316528277362"><ele>174.0</ele><time>2026-04-25T13:02:02.979Z</time></trkpt><trkpt lat="43.67357810354884" lon="11.460475230935337"><ele>174.0</ele><time>2026-04-25T13:02:03.979Z</time></trkpt><trkpt lat="43.6736077936936" lon="11.46062903519656"><ele>172.0</ele><time>2026-04-25T13:02:04.979Z</time></trkpt><trkpt lat="43.67362679002665" lon="11.460781687295576"><ele>170.0</ele><time>2026-04-25T13:02:05.979Z</time></trkpt><trkpt lat="43.673615149458705" lon="11.460941860832694"><ele>168.0</ele><time>2026-04-25T13:02:06.979Z</time></trkpt><trkpt lat="43.673573554505246" lon="11.461087973664412"><ele>166.0</ele><time>2026-04-25T13:02:07.979Z</time></trkpt><trkpt lat="43.67351652498664" lon="11.461243266077702"><ele>165.5</ele><time>2026-04-25T13:02:08.979Z</time></trkpt><trkpt lat="43.67345522087896" lon="11.46138807201042"><ele>165.0</ele><time>2026-04-25T13:02:09.979Z</time></trkpt><trkpt lat="43.673379270801924" lon="11.461525185696052"><ele>164.5</ele><time>2026-04-25T13:02:10.979Z</time></trkpt><trkpt lat="43.67328507276654" lon="11.46164875587013"><ele>164.0</ele><time>2026-04-25T13:02:11.979Z</time></trkpt><trkpt lat="43.67316706118742" lon="11.46171046257732"><ele>164.0</ele><time>2026-04-25T13:02:12.979Z</time></trkpt><trkpt lat="43.67304858060753" lon="11.46174969615454"><ele>164.0</ele><time>2026-04-25T13:02:13.979Z</time></trkpt><trkpt lat="43.672928223050874" lon="11.461784949418417"><ele>164.0</ele><time>2026-04-25T13:02:14.979Z</time></trkpt><trkpt lat="43.672809025218555" lon="11.461822772426684"><ele>164.0</ele><time>2026-04-25T13:02:15.979Z</time></trkpt><trkpt lat="43.67268315396357" lon="11.461875703456789"><ele>162.0</ele><time>2026-04-25T13:02:16.978Z</time></trkpt><trkpt lat="43.67255692929912" lon="11.461973938938318"><ele>160.0</ele><time>2026-04-25T13:02:17.978Z</time></trkpt><trkpt lat="43.67243463535161" lon="11.462071386118815"><ele>158.0</ele><time>2026-04-25T13:02:18.978Z</time></trkpt><trkpt lat="43.6723154218596" lon="11.462197380124493"><ele>156.0</ele><time>2026-04-25T13:02:19.978Z</time></trkpt><trkpt lat="43.672202926641155" lon="11.462305089902609"><ele>156.0</ele><time>2026-04-25T13:02:20.978Z</time></trkpt><trkpt lat="43.67208788234885" lon="11.462407237429273"><ele>156.0</ele><time>2026-04-25T13:02:21.978Z</time></trkpt><trkpt lat="43.67196660957394" lon="11.462496334653999"><ele>156.0</ele><time>2026-04-25T13:02:22.978Z</time></trkpt><trkpt lat="43.671841397069706" lon="11.462574515566832"><ele>156.0</ele><time>2026-04-25T13:02:23.978Z</time></trkpt><trkpt lat="43.671710681007625" lon="11.462605939118696"><ele>154.5</ele><time>2026-04-25T13:02:24.978Z</time></trkpt><trkpt lat="43.67158311645369" lon="11.462604091117147"><ele>153.0</ele><time>2026-04-25T13:02:25.978Z</time></trkpt><trkpt lat="43.67144582361095" lon="11.462560811858365"><ele>151.5</ele><time>2026-04-25T13:02:26.978Z</time></trkpt><trkpt lat="43.671313471004" lon="11.462503309573341"><ele>150.0</ele><time>2026-04-25T13:02:27.978Z</time></trkpt><trkpt lat="43.67117565907687" lon="11.462426085880283"><ele>150.25</ele><time>2026-04-25T13:02:28.978Z</time></trkpt><trkpt lat="43.67104098775387" lon="11.462341949287694"><ele>150.5</ele><time>2026-04-25T13:02:29.978Z</time></trkpt><trkpt lat="43.670933008962486" lon="11.462238360708046"><ele>150.75</ele><time>2026-04-25T13:02:30.978Z</time></trkpt><trkpt lat="43.670810898543344" lon="11.46216596398425"><ele>151.0</ele><time>2026-04-25T13:02:31.978Z</time></trkpt><trkpt lat="43.67069513982359" lon="11.46209021692971"><ele>148.75</ele><time>2026-04-25T13:02:32.978Z</time></trkpt><trkpt lat="43.67057588493695" lon="11.462018295363515"><ele>146.5</ele><time>2026-04-25T13:02:33.978Z</time></trkpt><trkpt lat="43.67046232013442" lon="11.46194947240606"><ele>144.25</ele><time>2026-04-25T13:02:34.978Z</time></trkpt><trkpt lat="43.6703492625168" lon="11.461885436143987"><ele>142.0</ele><time>2026-04-25T13:02:35.978Z</time></trkpt><trkpt lat="43.67023128834256" lon="11.461820745222289"><ele>141.75</ele><time>2026-04-25T13:02:36.978Z</time></trkpt><trkpt lat="43.67012090338601" lon="11.461746941585094"><ele>141.5</ele><time>2026-04-25T13:02:37.978Z</time></trkpt><trkpt lat="43.67000737681588" lon="11.461673751427673"><ele>141.25</ele><time>2026-04-25T13:02:38.978Z</time></trkpt><trkpt lat="43.66987800182221" lon="11.461603298140751"><ele>141.0</ele><time>2026-04-25T13:02:39.978Z</time></trkpt><trkpt lat="43.66973839965861" lon="11.461548087459283"><ele>141.0</ele><time>2026-04-25T13:02:40.978Z</time></trkpt><trkpt lat="43.669584571133534" lon="11.4615324352106"><ele>141.0</ele><time>2026-04-25T13:02:41.978Z</time></trkpt><trkpt lat="43.66941421479154" lon="11.461551378467838"><ele>141.0</ele><time>2026-04-25T13:02:42.978Z</time></trkpt><trkpt lat="43.6692435553769" lon="11.461588343665184"><ele>139.33333333333334</ele><time>2026-04-25T13:02:43.978Z</time></trkpt><trkpt lat="43.66908176564977" lon="11.461650608445932"><ele>137.66666666666669</ele><time>2026-04-25T13:02:44.978Z</time></trkpt><trkpt lat="43.66893025973451" lon="11.46174950801783"><ele>136.0</ele><time>2026-04-25T13:02:45.978Z</time></trkpt><trkpt lat="43.66879419188963" lon="11.461870511520393"><ele>136.0</ele><time>2026-04-25T13:02:46.978Z</time></trkpt><trkpt lat="43.66866362882301" lon="11.462004630289712"><ele>136.0</ele><time>2026-04-25T13:02:47.978Z</time></trkpt><trkpt lat="43.66854237948375" lon="11.462137507297134"><ele>136.0</ele><time>2026-04-25T13:02:48.978Z</time></trkpt><trkpt lat="43.66842321083751" lon="11.462244681231619"><ele>133.75</ele><time>2026-04-25T13:02:49.978Z</time></trkpt><trkpt lat="43.66829602966922" lon="11.462328513736852"><ele>131.5</ele><time>2026-04-25T13:02:50.978Z</time></trkpt><trkpt lat="43.66816754512768" lon="11.462389174605192"><ele>129.25</ele><time>2026-04-25T13:02:51.978Z</time></trkpt><trkpt lat="43.66803307228343" lon="11.462421822576347"><ele>127.0</ele><time>2026-04-25T13:02:52.978Z</time></trkpt><trkpt lat="43.667897460026005" lon="11.4624302119653"><ele>126.5</ele><time>2026-04-25T13:02:53.978Z</time></trkpt><trkpt lat="43.667754015479964" lon="11.462428900672268"><ele>126.0</ele><time>2026-04-25T13:02:54.978Z</time></trkpt><trkpt lat="43.66761491189696" lon="11.462381478539942"><ele>125.5</ele><time>2026-04-25T13:02:55.978Z</time></trkpt><trkpt lat="43.66748246249125" lon="11.462312222281103"><ele>125.0</ele><time>2026-04-25T13:02:56.978Z</time></trkpt><trkpt lat="43.66735536439182" lon="11.462218664253204"><ele>125.0</ele><time>2026-04-25T13:02:57.978Z</time></trkpt><trkpt lat="43.667237708827116" lon="11.462117691781812"><ele>125.0</ele><time>2026-04-25T13:02:58.978Z</time></trkpt><trkpt lat="43.66712159589" lon="11.462014392451342"><ele>125.0</ele><time>2026-04-25T13:02:59.978Z</time></trkpt><trkpt lat="43.66700431960565" lon="11.461913547589218"><ele>125.0</ele><time>2026-04-25T13:03:00.978Z</time></trkpt><trkpt lat="43.66688832400957" lon="11.461818550067912"><ele>127.75</ele><time>2026-04-25T13:03:01.978Z</time></trkpt><trkpt lat="43.66676482619443" lon="11.461710039998879"><ele>130.5</ele><time>2026-04-25T13:03:02.978Z</time></trkpt><trkpt lat="43.66664078623844" lon="11.461592470537704"><ele>133.25</ele><time>2026-04-25T13:03:03.978Z</time></trkpt><trkpt lat="43.66652200284669" lon="11.461483393970314"><ele>136.0</ele><time>2026-04-25T13:03:04.978Z</time></trkpt><trkpt lat="43.66640566505736" lon="11.461380626238533"><ele>136.25</ele><time>2026-04-25T13:03:05.978Z</time></trkpt><trkpt lat="43.666297318814976" lon="11.461265704672684"><ele>136.5</ele><time>2026-04-25T13:03:06.978Z</time></trkpt><trkpt lat="43.66620422194359" lon="11.461142709692"><ele>136.75</ele><time>2026-04-25T13:03:07.978Z</time></trkpt><trkpt lat="43.666129482054444" lon="11.461021064964989"><ele>137.0</ele><time>2026-04-25T13:03:08.978Z</time></trkpt><trkpt lat="43.66606454387643" lon="11.460897090468798"><ele>138.0</ele><time>2026-04-25T13:03:09.978Z</time></trkpt><trkpt lat="43.66601194632038" lon="11.460798323119334"><ele>139.0</ele><time>2026-04-25T13:03:10.978Z</time></trkpt><trkpt lat="43.66596839091163" lon="11.460719709330016"><ele>140.0</ele><time>2026-04-25T13:03:11.978Z</time></trkpt><trkpt lat="43.66589062381299" lon="11.460607170177454"><ele>141.0</ele><time>2026-04-25T13:03:13.979Z</time></trkpt><trkpt lat="43.6658253399535" lon="11.460532533897583"><ele>142.0</ele><time>2026-04-25T13:03:15.978Z</time></trkpt><trkpt lat="43.66575689508926" lon="11.460452473192644"><ele>143.0</ele><time>2026-04-25T13:03:17.978Z</time></trkpt><trkpt lat="43.6656852650495" lon="11.460356006254587"><ele>143.0</ele><time>2026-04-25T13:03:19.979Z</time></trkpt><trkpt lat="43.665620487669365" lon="11.460230572059077"><ele>143.0</ele><time>2026-04-25T13:03:21.979Z</time></trkpt><trkpt lat="43.66558621094009" lon="11.460142586716538"><ele>143.0</ele><time>2026-04-25T13:03:22.979Z</time></trkpt><trkpt lat="43.66556658828321" lon="11.460043041622336"><ele>143.0</ele><time>2026-04-25T13:03:23.979Z</time></trkpt><trkpt lat="43.6655625295892" lon="11.459926660393567"><ele>143.0</ele><time>2026-04-25T13:03:24.979Z</time></trkpt><trkpt lat="43.665579788003306" lon="11.459798803217513"><ele>143.0</ele><time>2026-04-25T13:03:25.978Z</time></trkpt><trkpt lat="43.66559011823887" lon="11.459664685405835"><ele>142.4</ele><time>2026-04-25T13:03:26.978Z</time></trkpt><trkpt lat="43.66559162724379" lon="11.459521121530312"><ele>141.8</ele><time>2026-04-25T13:03:27.978Z</time></trkpt><trkpt lat="43.66557188369589" lon="11.459374776528351"><ele>141.2</ele><time>2026-04-25T13:03:28.978Z</time></trkpt><trkpt lat="43.6655453064292" lon="11.459252692412733"><ele>140.6</ele><time>2026-04-25T13:03:29.978Z</time></trkpt><trkpt lat="43.665519112462924" lon="11.459160606370503"><ele>140.0</ele><time>2026-04-25T13:03:30.978Z</time></trkpt><trkpt lat="43.66548141875404" lon="11.45902546003153"><ele>140.0</ele><time>2026-04-25T13:03:32.978Z</time></trkpt><trkpt lat="43.66545060937739" lon="11.458912459846538"><ele>140.0</ele><time>2026-04-25T13:03:34.978Z</time></trkpt><trkpt lat="43.66542373096296" lon="11.458804746730953"><ele>140.0</ele><time>2026-04-25T13:03:36.978Z</time></trkpt><trkpt lat="43.66537778693686" lon="11.458647184451374"><ele>140.0</ele><time>2026-04-25T13:03:38.978Z</time></trkpt><trkpt lat="43.665354570264256" lon="11.458563710607976"><ele>140.0</ele><time>2026-04-25T13:03:39.978Z</time></trkpt><trkpt lat="43.66533138857293" lon="11.458466068844862"><ele>140.0</ele><time>2026-04-25T13:03:40.978Z</time></trkpt><trkpt lat="43.665302708654515" lon="11.458359059580893"><ele>140.0</ele><time>2026-04-25T13:03:41.978Z</time></trkpt><trkpt lat="43.66526680251994" lon="11.458237306076763"><ele>140.0</ele><time>2026-04-25T13:03:42.978Z</time></trkpt><trkpt lat="43.6652354627911" lon="11.458122562476815"><ele>140.0</ele><time>2026-04-25T13:03:43.978Z</time></trkpt><trkpt lat="43.66520450848956" lon="11.458005197365376"><ele>140.0</ele><time>2026-04-25T13:03:44.978Z</time></trkpt><trkpt lat="43.66515873142927" lon="11.45787050410436"><ele>140.0</ele><time>2026-04-25T13:03:45.978Z</time></trkpt><trkpt lat="43.665126030155506" lon="11.457734318023556"><ele>140.0</ele><time>2026-04-25T13:03:46.978Z</time></trkpt><trkpt lat="43.665092623286874" lon="11.457606931938782"><ele>140.0</ele><time>2026-04-25T13:03:47.978Z</time></trkpt><trkpt lat="43.66505704601099" lon="11.457472118059357"><ele>140.0</ele><time>2026-04-25T13:03:48.978Z</time></trkpt><trkpt lat="43.665013899510214" lon="11.45733944926049"><ele>140.0</ele><time>2026-04-25T13:03:49.978Z</time></trkpt><trkpt lat="43.6649834999654" lon="11.457225642005165"><ele>140.0</ele><time>2026-04-25T13:03:50.978Z</time></trkpt><trkpt lat="43.664959179889955" lon="11.457118145979646"><ele>140.2</ele><time>2026-04-25T13:03:51.979Z</time></trkpt><trkpt lat="43.66494013842587" lon="11.457014955133076"><ele>140.4</ele><time>2026-04-25T13:03:52.979Z</time></trkpt><trkpt lat="43.66492894368877" lon="11.456872913823975"><ele>140.6</ele><time>2026-04-25T13:03:54.979Z</time></trkpt><trkpt lat="43.66488437813135" lon="11.456796533307868"><ele>140.8</ele><time>2026-04-25T13:06:22.979Z</time></trkpt><trkpt lat="43.66482513502146" lon="11.45664709982729"><ele>141.0</ele><time>2026-04-25T13:06:24.979Z</time></trkpt><trkpt lat="43.664788731088144" lon="11.45654929188872"><ele>141.0</ele><time>2026-04-25T13:06:25.979Z</time></trkpt><trkpt lat="43.6647551254308" lon="11.45644329858895"><ele>141.0</ele><time>2026-04-25T13:06:26.979Z</time></trkpt><trkpt lat="43.66473833976804" lon="11.456318035766344"><ele>141.0</ele><time>2026-04-25T13:06:27.979Z</time></trkpt><trkpt lat="43.66470377364751" lon="11.456192229176839"><ele>141.0</ele><time>2026-04-25T13:06:28.979Z</time></trkpt><trkpt lat="43.66466709915852" lon="11.456060279643083"><ele>141.0</ele><time>2026-04-25T13:06:29.979Z</time></trkpt><trkpt lat="43.664635429755904" lon="11.455948680581503"><ele>141.0</ele><time>2026-04-25T13:06:30.979Z</time></trkpt><trkpt lat="43.6646056752115" lon="11.455844533985356"><ele>141.0</ele><time>2026-04-25T13:06:31.979Z</time></trkpt><trkpt lat="43.6645783382803" lon="11.455747239824799"><ele>141.0</ele><time>2026-04-25T13:06:32.979Z</time></trkpt><trkpt lat="43.664554114858554" lon="11.4556593014435"><ele>141.0</ele><time>2026-04-25T13:06:33.979Z</time></trkpt><trkpt lat="43.66451787195895" lon="11.455571766585848"><ele>141.0</ele><time>2026-04-25T13:06:34.979Z</time></trkpt><trkpt lat="43.66449513917969" lon="11.455482400512533"><ele>141.0</ele><time>2026-04-25T13:06:35.979Z</time></trkpt><trkpt lat="43.66442498046405" lon="11.45542987665702"><ele>141.0</ele><time>2026-04-25T13:06:36.979Z</time></trkpt><trkpt lat="43.6643175762649" lon="11.455384181402577"><ele>140.83333333333334</ele><time>2026-04-25T13:06:38.979Z</time></trkpt><trkpt lat="43.664257231952476" lon="11.455428182331339"><ele>140.66666666666666</ele><time>2026-04-25T13:06:39.979Z</time></trkpt><trkpt lat="43.66421542309968" lon="11.455498788507965"><ele>140.5</ele><time>2026-04-25T13:06:40.979Z</time></trkpt><trkpt lat="43.66418302966696" lon="11.455588897413788"><ele>140.33333333333331</ele><time>2026-04-25T13:06:41.979Z</time></trkpt><trkpt lat="43.66417768708915" lon="11.45570260253908"><ele>140.16666666666666</ele><time>2026-04-25T13:06:42.979Z</time></trkpt><trkpt lat="43.66416991826962" lon="11.455840913616242"><ele>140.0</ele><time>2026-04-25T13:06:43.979Z</time></trkpt><trkpt lat="43.664144471288516" lon="11.455988396903294"><ele>140.0</ele><time>2026-04-25T13:06:44.979Z</time></trkpt><trkpt lat="43.66410014953624" lon="11.456151940774927"><ele>140.0</ele><time>2026-04-25T13:06:45.979Z</time></trkpt><trkpt lat="43.664058774017356" lon="11.456309151974189"><ele>140.0</ele><time>2026-04-25T13:06:46.979Z</time></trkpt><trkpt lat="43.664022115488834" lon="11.456456598367703"><ele>140.0</ele><time>2026-04-25T13:06:47.979Z</time></trkpt><trkpt lat="43.66398351651266" lon="11.456609146527999"><ele>139.8</ele><time>2026-04-25T13:06:48.979Z</time></trkpt><trkpt lat="43.66394012659769" lon="11.456746026450508"><ele>139.6</ele><time>2026-04-25T13:06:49.979Z</time></trkpt><trkpt lat="43.66389355890059" lon="11.456877941102126"><ele>139.4</ele><time>2026-04-25T13:06:50.979Z</time></trkpt><trkpt lat="43.66384998442932" lon="11.457004960720475"><ele>139.2</ele><time>2026-04-25T13:06:51.979Z</time></trkpt><trkpt lat="43.663804945636706" lon="11.457133054493932"><ele>139.0</ele><time>2026-04-25T13:06:52.979Z</time></trkpt><trkpt lat="43.66377919625776" lon="11.457264225668197"><ele>139.0</ele><time>2026-04-25T13:06:53.979Z</time></trkpt><trkpt lat="43.6638661468322" lon="11.457395540821711"><ele>139.0</ele><time>2026-04-25T13:06:54.979Z</time></trkpt><trkpt lat="43.66385518979379" lon="11.457490709525539"><ele>139.0</ele><time>2026-04-25T13:06:55.979Z</time></trkpt><trkpt lat="43.66384424624509" lon="11.457585761465968"><ele>139.0</ele><time>2026-04-25T13:06:56.979Z</time></trkpt><trkpt lat="43.663832374076534" lon="11.457678267966294"><ele>139.0</ele><time>2026-04-25T13:06:57.979Z</time></trkpt><trkpt lat="43.66380975912937" lon="11.457839010467817"><ele>139.0</ele><time>2026-04-25T13:06:59.979Z</time></trkpt><trkpt lat="43.66378399148974" lon="11.457960988897746"><ele>139.0</ele><time>2026-04-25T13:07:00.979Z</time></trkpt><trkpt lat="43.66378996557666" lon="11.45813478562605"><ele>139.0</ele><time>2026-04-25T13:07:01.979Z</time></trkpt><trkpt lat="43.66377180222323" lon="11.458311183645018"><ele>139.0</ele><time>2026-04-25T13:07:02.979Z</time></trkpt><trkpt lat="43.66374214824554" lon="11.458499879360025"><ele>139.0</ele><time>2026-04-25T13:07:03.979Z</time></trkpt><trkpt lat="43.663708552118734" lon="11.458689210188465"><ele>139.0</ele><time>2026-04-25T13:07:04.979Z</time></trkpt><trkpt lat="43.663666773393814" lon="11.458881666643155"><ele>139.0</ele><time>2026-04-25T13:07:05.979Z</time></trkpt><trkpt lat="43.663623314451804" lon="11.459066735197721"><ele>139.0</ele><time>2026-04-25T13:07:06.979Z</time></trkpt><trkpt lat="43.663574606865694" lon="11.459236566024742"><ele>138.75</ele><time>2026-04-25T13:07:07.979Z</time></trkpt><trkpt lat="43.66352337765609" lon="11.4594036246658"><ele>138.5</ele><time>2026-04-25T13:07:08.979Z</time></trkpt><trkpt lat="43.663453414450835" lon="11.459576117390508"><ele>138.25</ele><time>2026-04-25T13:07:09.979Z</time></trkpt><trkpt lat="43.663367633849695" lon="11.45975636599425"><ele>138.0</ele><time>2026-04-25T13:07:10.979Z</time></trkpt><trkpt lat="43.663264467419566" lon="11.45993774296147"><ele>138.0</ele><time>2026-04-25T13:07:11.979Z</time></trkpt><trkpt lat="43.663119417610524" lon="11.460094004286779"><ele>138.0</ele><time>2026-04-25T13:07:12.979Z</time></trkpt><trkpt lat="43.662985781911395" lon="11.460260724678964"><ele>138.0</ele><time>2026-04-25T13:07:13.979Z</time></trkpt><trkpt lat="43.66284034442117" lon="11.460415171106943"><ele>138.0</ele><time>2026-04-25T13:07:14.979Z</time></trkpt><trkpt lat="43.66267553019118" lon="11.460565576310012"><ele>138.0</ele><time>2026-04-25T13:07:15.979Z</time></trkpt><trkpt lat="43.662525370048066" lon="11.460735753196694"><ele>138.0</ele><time>2026-04-25T13:07:16.979Z</time></trkpt><trkpt lat="43.662369558141656" lon="11.46087721543913"><ele>138.0</ele><time>2026-04-25T13:07:17.979Z</time></trkpt><trkpt lat="43.662212921535236" lon="11.461040129440699"><ele>138.0</ele><time>2026-04-25T13:07:18.979Z</time></trkpt><trkpt lat="43.66205554865974" lon="11.461201001939207"><ele>138.0</ele><time>2026-04-25T13:07:19.979Z</time></trkpt><trkpt lat="43.661872599493215" lon="11.461375063652602"><ele>135.5</ele><time>2026-04-25T13:07:20.979Z</time></trkpt><trkpt lat="43.661674324597435" lon="11.461558945691984"><ele>133.0</ele><time>2026-04-25T13:07:21.979Z</time></trkpt><trkpt lat="43.6614654436356" lon="11.461738646691618"><ele>133.0</ele><time>2026-04-25T13:07:22.979Z</time></trkpt><trkpt lat="43.661263929491646" lon="11.461916314447862"><ele>133.0</ele><time>2026-04-25T13:07:23.979Z</time></trkpt><trkpt lat="43.661054169953054" lon="11.462089521177203"><ele>130.5</ele><time>2026-04-25T13:07:24.979Z</time></trkpt><trkpt lat="43.66083676752983" lon="11.46226367476532"><ele>128.0</ele><time>2026-04-25T13:07:25.979Z</time></trkpt><trkpt lat="43.66061960998014" lon="11.462438129001976"><ele>128.0</ele><time>2026-04-25T13:07:26.979Z</time></trkpt><trkpt lat="43.66040879904019" lon="11.462622717491469"><ele>128.0</ele><time>2026-04-25T13:07:27.979Z</time></trkpt><trkpt lat="43.660196868702855" lon="11.46280777915449"><ele>129.5</ele><time>2026-04-25T13:07:28.979Z</time></trkpt><trkpt lat="43.65997681712562" lon="11.462995362300576"><ele>131.0</ele><time>2026-04-25T13:07:29.979Z</time></trkpt><trkpt lat="43.65976080459367" lon="11.463186145034744"><ele>131.0</ele><time>2026-04-25T13:07:30.979Z</time></trkpt><trkpt lat="43.659546591747905" lon="11.463377543481398"><ele>131.0</ele><time>2026-04-25T13:07:31.979Z</time></trkpt><trkpt lat="43.659329660405824" lon="11.463568581263605"><ele>133.0</ele><time>2026-04-25T13:07:32.979Z</time></trkpt><trkpt lat="43.659112279566145" lon="11.463755567884407"><ele>135.0</ele><time>2026-04-25T13:07:33.979Z</time></trkpt><trkpt lat="43.65889411885639" lon="11.463940333053985"><ele>135.0</ele><time>2026-04-25T13:07:34.979Z</time></trkpt><trkpt lat="43.65867325077137" lon="11.464118797306947"><ele>135.0</ele><time>2026-04-25T13:07:35.979Z</time></trkpt><trkpt lat="43.65844843179955" lon="11.464286967707498"><ele>129.5</ele><time>2026-04-25T13:07:36.979Z</time></trkpt><trkpt lat="43.65821872493951" lon="11.464442470599383"><ele>124.0</ele><time>2026-04-25T13:07:37.979Z</time></trkpt><trkpt lat="43.657984316525386" lon="11.464586891738533"><ele>130.0</ele><time>2026-04-25T13:07:38.979Z</time></trkpt><trkpt lat="43.65774737336529" lon="11.464722471514138"><ele>136.0</ele><time>2026-04-25T13:07:39.979Z</time></trkpt><trkpt lat="43.65750782374621" lon="11.464846381420555"><ele>136.0</ele><time>2026-04-25T13:07:40.979Z</time></trkpt><trkpt lat="43.657266570941644" lon="11.464959736614189"><ele>136.0</ele><time>2026-04-25T13:07:41.979Z</time></trkpt><trkpt lat="43.65702206111829" lon="11.465058611752005"><ele>135.5</ele><time>2026-04-25T13:07:42.979Z</time></trkpt><trkpt lat="43.656774904172856" lon="11.465148229058524"><ele>135.0</ele><time>2026-04-25T13:07:43.979Z</time></trkpt><trkpt lat="43.65652842158115" lon="11.465223649784798"><ele>135.0</ele><time>2026-04-25T13:07:44.979Z</time></trkpt><trkpt lat="43.65628129221093" lon="11.465286908671343"><ele>135.0</ele><time>2026-04-25T13:07:45.979Z</time></trkpt><trkpt lat="43.656033101339446" lon="11.465341297451486"><ele>132.0</ele><time>2026-04-25T13:07:46.979Z</time></trkpt><trkpt lat="43.655787155039555" lon="11.465375353942989"><ele>129.0</ele><time>2026-04-25T13:07:47.979Z</time></trkpt><trkpt lat="43.6555472954734" lon="11.465396392184388"><ele>129.0</ele><time>2026-04-25T13:07:48.979Z</time></trkpt><trkpt lat="43.65531825837248" lon="11.465406026169605"><ele>129.0</ele><time>2026-04-25T13:07:49.979Z</time></trkpt><trkpt lat="43.655099592263866" lon="11.465405883733807"><ele>129.0</ele><time>2026-04-25T13:07:50.979Z</time></trkpt><trkpt lat="43.65488444655112" lon="11.465408438924753"><ele>128.66666666666666</ele><time>2026-04-25T13:07:51.979Z</time></trkpt><trkpt lat="43.65467447006894" lon="11.465405940113008"><ele>128.33333333333331</ele><time>2026-04-25T13:07:52.979Z</time></trkpt><trkpt lat="43.65446979302936" lon="11.465403769105452"><ele>128.0</ele><time>2026-04-25T13:07:53.979Z</time></trkpt><trkpt lat="43.65427246222291" lon="11.465408450334658"><ele>128.66666666666666</ele><time>2026-04-25T13:07:54.979Z</time></trkpt><trkpt lat="43.65409067259808" lon="11.465412183929615"><ele>129.33333333333334</ele><time>2026-04-25T13:07:55.979Z</time></trkpt><trkpt lat="43.65390460374703" lon="11.465414633783876"><ele>130.0</ele><time>2026-04-25T13:07:56.979Z</time></trkpt><trkpt lat="43.65372785905071" lon="11.465416280373281"><ele>130.66666666666669</ele><time>2026-04-25T13:07:57.979Z</time></trkpt><trkpt lat="43.6535567159372" lon="11.46541709858037"><ele>131.33333333333334</ele><time>2026-04-25T13:07:58.979Z</time></trkpt><trkpt lat="43.65339241806709" lon="11.465419088370739"><ele>132.0</ele><time>2026-04-25T13:07:59.979Z</time></trkpt><trkpt lat="43.653235712829364" lon="11.465424139052335"><ele>132.0</ele><time>2026-04-25T13:08:00.979Z</time></trkpt><trkpt lat="43.65308449480284" lon="11.46542188306377"><ele>132.0</ele><time>2026-04-25T13:08:01.979Z</time></trkpt><trkpt lat="43.65294099711612" lon="11.46541477131505"><ele>132.0</ele><time>2026-04-25T13:08:02.979Z</time></trkpt><trkpt lat="43.652801575589535" lon="11.465400246502655"><ele>132.0</ele><time>2026-04-25T13:08:03.979Z</time></trkpt><trkpt lat="43.65266594763344" lon="11.46537150498582"><ele>132.75</ele><time>2026-04-25T13:08:04.979Z</time></trkpt><trkpt lat="43.6525332293193" lon="11.465333878664373"><ele>133.5</ele><time>2026-04-25T13:08:05.979Z</time></trkpt><trkpt lat="43.65240415170442" lon="11.465276570219512"><ele>134.25</ele><time>2026-04-25T13:08:06.979Z</time></trkpt><trkpt lat="43.65228481861982" lon="11.465199821864193"><ele>135.0</ele><time>2026-04-25T13:08:07.979Z</time></trkpt><trkpt lat="43.65217886600477" lon="11.46511296255027"><ele>135.0</ele><time>2026-04-25T13:08:08.979Z</time></trkpt><trkpt lat="43.65208254860984" lon="11.465025798345572"><ele>135.0</ele><time>2026-04-25T13:08:09.979Z</time></trkpt><trkpt lat="43.65198877597962" lon="11.464951005269324"><ele>135.0</ele><time>2026-04-25T13:08:10.979Z</time></trkpt><trkpt lat="43.65190404854137" lon="11.464892341909307"><ele>135.0</ele><time>2026-04-25T13:08:11.979Z</time></trkpt><trkpt lat="43.6518073943397" lon="11.464834439634183"><ele>135.0</ele><time>2026-04-25T13:08:12.979Z</time></trkpt><trkpt lat="43.65171279517028" lon="11.464787637507182"><ele>135.66666666666666</ele><time>2026-04-25T13:08:13.979Z</time></trkpt><trkpt lat="43.651620557989816" lon="11.46475062905069"><ele>136.33333333333334</ele><time>2026-04-25T13:08:14.979Z</time></trkpt><trkpt lat="43.65153251275463" lon="11.464731980021538"><ele>137.0</ele><time>2026-04-25T13:08:15.979Z</time></trkpt><trkpt lat="43.65144338617068" lon="11.46472045713495"><ele>137.66666666666669</ele><time>2026-04-25T13:08:16.979Z</time></trkpt><trkpt lat="43.6513610092427" lon="11.464720030467808"><ele>138.33333333333334</ele><time>2026-04-25T13:08:17.979Z</time></trkpt><trkpt lat="43.65128143139743" lon="11.464719119416488"><ele>139.0</ele><time>2026-04-25T13:08:18.979Z</time></trkpt><trkpt lat="43.651206186848505" lon="11.464714803331173"><ele>139.0</ele><time>2026-04-25T13:08:19.979Z</time></trkpt><trkpt lat="43.65113436356564" lon="11.464684758750206"><ele>139.0</ele><time>2026-04-25T13:08:20.979Z</time></trkpt><trkpt lat="43.651076123119054" lon="11.46463900659831"><ele>139.0</ele><time>2026-04-25T13:08:21.979Z</time></trkpt><trkpt lat="43.65102372341551" lon="11.464573668776323"><ele>139.0</ele><time>2026-04-25T13:08:22.979Z</time></trkpt><trkpt lat="43.65098642142488" lon="11.464494009624222"><ele>139.0</ele><time>2026-04-25T13:08:23.979Z</time></trkpt><trkpt lat="43.650975755780074" lon="11.464319106229729"><ele>139.0</ele><time>2026-04-25T13:08:25.979Z</time></trkpt><trkpt lat="43.65098643215567" lon="11.464229904628189"><ele>139.0</ele><time>2026-04-25T13:08:26.979Z</time></trkpt><trkpt lat="43.650970104704435" lon="11.464088466777183"><ele>139.0</ele><time>2026-04-25T13:08:28.979Z</time></trkpt><trkpt lat="43.65087434906645" lon="11.464035817506824"><ele>139.0</ele><time>2026-04-25T13:08:30.979Z</time></trkpt><trkpt lat="43.6508002349517" lon="11.464045835315297"><ele>139.0</ele><time>2026-04-25T13:08:31.979Z</time></trkpt><trkpt lat="43.650733550810145" lon="11.464063561891932"><ele>139.0</ele><time>2026-04-25T13:08:32.979Z</time></trkpt><trkpt lat="43.65062717093731" lon="11.464090919507083"><ele>139.0</ele><time>2026-04-25T13:08:34.979Z</time></trkpt><trkpt lat="43.650527145442744" lon="11.464087268029365"><ele>139.0</ele><time>2026-04-25T13:08:36.979Z</time></trkpt><trkpt lat="43.65044134130371" lon="11.464081739650839"><ele>139.0</ele><time>2026-04-25T13:08:38.979Z</time></trkpt><trkpt lat="43.65037825576146" lon="11.46406571357452"><ele>139.0</ele><time>2026-04-25T13:08:40.979Z</time></trkpt><trkpt lat="43.65038945568093" lon="11.46397540374101"><ele>139.0</ele><time>2026-04-25T13:12:23.976Z</time></trkpt><trkpt lat="43.65035299024579" lon="11.464080378629156"><ele>139.0</ele><time>2026-04-25T13:19:52.979Z</time></trkpt><trkpt lat="43.65037288202957" lon="11.463996626766349"><ele>139.0</ele><time>2026-04-25T13:20:57.979Z</time></trkpt><trkpt lat="43.65033978628795" lon="11.464073237296533"><ele>139.0</ele><time>2026-04-25T13:23:05.979Z</time></trkpt><trkpt lat="43.65028736254381" lon="11.46416945811753"><ele>139.0</ele><time>2026-04-25T13:23:07.979Z</time></trkpt><trkpt lat="43.650309626356346" lon="11.464263155146474"><ele>139.0</ele><time>2026-04-25T13:23:08.979Z</time></trkpt><trkpt lat="43.650332514565804" lon="11.464371350898803"><ele>139.0</ele><time>2026-04-25T13:23:09.979Z</time></trkpt><trkpt lat="43.65035997395027" lon="11.464496342650568"><ele>139.0</ele><time>2026-04-25T13:23:11.979Z</time></trkpt><trkpt lat="43.65038394909123" lon="11.464587003512646"><ele>139.0</ele><time>2026-04-25T13:23:14.979Z</time></trkpt><trkpt lat="43.65047032226505" lon="11.464593270937993"><ele>139.0</ele><time>2026-04-25T13:23:16.979Z</time></trkpt><trkpt lat="43.65055297372898" lon="11.46457211805328"><ele>139.0</ele><time>2026-04-25T13:23:18.979Z</time></trkpt><trkpt lat="43.6506546165014" lon="11.464563910249364"><ele>139.0</ele><time>2026-04-25T13:23:20.979Z</time></trkpt><trkpt lat="43.65074958043335" lon="11.464559791814171"><ele>139.0</ele><time>2026-04-25T13:23:22.979Z</time></trkpt><trkpt lat="43.650820484221626" lon="11.464530874486464"><ele>139.0</ele><time>2026-04-25T13:23:24.979Z</time></trkpt><trkpt lat="43.650842109881744" lon="11.464412054484496"><ele>139.0</ele><time>2026-04-25T13:23:26.979Z</time></trkpt><trkpt lat="43.650826581034345" lon="11.46428324363918"><ele>139.0</ele><time>2026-04-25T13:23:28.979Z</time></trkpt><trkpt lat="43.65082160041663" lon="11.464170366389647"><ele>139.0</ele><time>2026-04-25T13:23:30.979Z</time></trkpt><trkpt lat="43.650881477719544" lon="11.464076244254612"><ele>139.0</ele><time>2026-04-25T13:23:32.979Z</time></trkpt><trkpt lat="43.65097644381513" lon="11.463979673091103"><ele>139.0</ele><time>2026-04-25T13:23:34.979Z</time></trkpt><trkpt lat="43.65099060563427" lon="11.46389411531328"><ele>139.0</ele><time>2026-04-25T13:23:35.979Z</time></trkpt><trkpt lat="43.65098654224958" lon="11.463773224251696"><ele>138.66666666666669</ele><time>2026-04-25T13:23:36.979Z</time></trkpt><trkpt lat="43.65097183726589" lon="11.463668366034984"><ele>138.33333333333334</ele><time>2026-04-25T13:23:37.979Z</time></trkpt><trkpt lat="43.65096849470377" lon="11.463552120169592"><ele>138.0</ele><time>2026-04-25T13:23:38.979Z</time></trkpt><trkpt lat="43.65095907075144" lon="11.463432365988783"><ele>137.66666666666666</ele><time>2026-04-25T13:23:39.979Z</time></trkpt><trkpt lat="43.65093734240233" lon="11.463330706036174"><ele>137.33333333333331</ele><time>2026-04-25T13:23:40.979Z</time></trkpt><trkpt lat="43.650905115959475" lon="11.463247754857685"><ele>137.0</ele><time>2026-04-25T13:23:41.979Z</time></trkpt><trkpt lat="43.650841842800105" lon="11.463190774512737"><ele>137.0</ele><time>2026-04-25T13:23:42.979Z</time></trkpt><trkpt lat="43.65076627492896" lon="11.463162649867638"><ele>137.0</ele><time>2026-04-25T13:23:43.979Z</time></trkpt><trkpt lat="43.65066784955051" lon="11.463160061637938"><ele>137.0</ele><time>2026-04-25T13:23:44.979Z</time></trkpt><trkpt lat="43.650559923762856" lon="11.463161275544687"><ele>137.0</ele><time>2026-04-25T13:23:45.979Z</time></trkpt><trkpt lat="43.65045000342257" lon="11.463158196840794"><ele>137.0</ele><time>2026-04-25T13:23:46.979Z</time></trkpt><trkpt lat="43.65035071181745" lon="11.46316001376429"><ele>136.83333333333331</ele><time>2026-04-25T13:23:47.979Z</time></trkpt><trkpt lat="43.65026488090661" lon="11.463180271830215"><ele>136.66666666666666</ele><time>2026-04-25T13:23:48.979Z</time></trkpt><trkpt lat="43.65019537878823" lon="11.463211461878549"><ele>136.5</ele><time>2026-04-25T13:23:49.979Z</time></trkpt><trkpt lat="43.65013344831823" lon="11.463262433656885"><ele>136.33333333333334</ele><time>2026-04-25T13:23:50.979Z</time></trkpt><trkpt lat="43.65006674893353" lon="11.463344537806291"><ele>136.16666666666669</ele><time>2026-04-25T13:23:51.979Z</time></trkpt><trkpt lat="43.65001801374437" lon="11.463436366288802"><ele>136.0</ele><time>2026-04-25T13:23:52.979Z</time></trkpt><trkpt lat="43.64996054708056" lon="11.463548831427854"><ele>136.0</ele><time>2026-04-25T13:23:53.979Z</time></trkpt><trkpt lat="43.64990238072724" lon="11.46364687688005"><ele>136.0</ele><time>2026-04-25T13:23:54.979Z</time></trkpt><trkpt lat="43.649849919958754" lon="11.463729344231982"><ele>136.0</ele><time>2026-04-25T13:23:55.979Z</time></trkpt><trkpt lat="43.64981326464756" lon="11.463815662856462"><ele>136.0</ele><time>2026-04-25T13:23:56.979Z</time></trkpt><trkpt lat="43.64977848563893" lon="11.463915668389276"><ele>136.0</ele><time>2026-04-25T13:23:57.978Z</time></trkpt><trkpt lat="43.64975032004069" lon="11.464015283118625"><ele>136.0</ele><time>2026-04-25T13:23:58.977Z</time></trkpt><trkpt lat="43.649735140592156" lon="11.46410458806387"><ele>136.2</ele><time>2026-04-25T13:23:59.977Z</time></trkpt><trkpt lat="43.64973566274627" lon="11.464233986224844"><ele>136.39999999999998</ele><time>2026-04-25T13:24:00.978Z</time></trkpt><trkpt lat="43.64971900840337" lon="11.464368106852655"><ele>136.6</ele><time>2026-04-25T13:24:01.978Z</time></trkpt><trkpt lat="43.64969813148863" lon="11.464493282331315"><ele>136.79999999999998</ele><time>2026-04-25T13:24:02.978Z</time></trkpt><trkpt lat="43.64966735973834" lon="11.464612072493473"><ele>137.0</ele><time>2026-04-25T13:24:03.978Z</time></trkpt><trkpt lat="43.649627833657895" lon="11.464732665338254"><ele>136.6</ele><time>2026-04-25T13:24:04.977Z</time></trkpt><trkpt lat="43.64959250711062" lon="11.46485772147934"><ele>136.2</ele><time>2026-04-25T13:24:05.977Z</time></trkpt><trkpt lat="43.649563362912936" lon="11.464978742028768"><ele>135.8</ele><time>2026-04-25T13:24:06.978Z</time></trkpt><trkpt lat="43.649513762350075" lon="11.465100366412408"><ele>135.4</ele><time>2026-04-25T13:24:07.977Z</time></trkpt><trkpt lat="43.64944329200782" lon="11.465214416798386"><ele>135.0</ele><time>2026-04-25T13:24:08.977Z</time></trkpt><trkpt lat="43.64935380934747" lon="11.465323500336329"><ele>133.5</ele><time>2026-04-25T13:24:09.978Z</time></trkpt><trkpt lat="43.64926291129756" lon="11.465407607845169"><ele>132.0</ele><time>2026-04-25T13:24:10.977Z</time></trkpt><trkpt lat="43.649153052742925" lon="11.465479716432746"><ele>130.5</ele><time>2026-04-25T13:24:11.977Z</time></trkpt><trkpt lat="43.649022490289404" lon="11.465510681752528"><ele>129.0</ele><time>2026-04-25T13:24:12.977Z</time></trkpt><trkpt lat="43.64886630468968" lon="11.465533562339195"><ele>129.0</ele><time>2026-04-25T13:24:13.977Z</time></trkpt><trkpt lat="43.64869503455666" lon="11.46554524972186"><ele>129.0</ele><time>2026-04-25T13:24:14.977Z</time></trkpt><trkpt lat="43.64852756060562" lon="11.465554519638935"><ele>129.0</ele><time>2026-04-25T13:24:15.977Z</time></trkpt><trkpt lat="43.64834651589714" lon="11.465565526495165"><ele>128.33333333333334</ele><time>2026-04-25T13:24:16.977Z</time></trkpt><trkpt lat="43.648147770844325" lon="11.465574792203734"><ele>127.66666666666667</ele><time>2026-04-25T13:24:17.977Z</time></trkpt><trkpt lat="43.6479451996074" lon="11.465582095253936"><ele>127.0</ele><time>2026-04-25T13:24:18.977Z</time></trkpt><trkpt lat="43.647750307540186" lon="11.46559146510496"><ele>127.0</ele><time>2026-04-25T13:24:19.977Z</time></trkpt><trkpt lat="43.647543191750984" lon="11.465601262462373"><ele>127.0</ele><time>2026-04-25T13:24:20.977Z</time></trkpt><trkpt lat="43.64732776766458" lon="11.465605804243653"><ele>127.0</ele><time>2026-04-25T13:24:21.977Z</time></trkpt><trkpt lat="43.647107369024084" lon="11.465612477224182"><ele>127.0</ele><time>2026-04-25T13:24:22.977Z</time></trkpt><trkpt lat="43.64688086093504" lon="11.465618260082534"><ele>127.0</ele><time>2026-04-25T13:24:23.977Z</time></trkpt><trkpt lat="43.6466478816535" lon="11.465620920251416"><ele>127.0</ele><time>2026-04-25T13:24:24.977Z</time></trkpt><trkpt lat="43.646411856752756" lon="11.46562716914965"><ele>127.0</ele><time>2026-04-25T13:24:25.977Z</time></trkpt><trkpt lat="43.646172059810986" lon="11.46563465227857"><ele>127.5</ele><time>2026-04-25T13:24:26.977Z</time></trkpt><trkpt lat="43.6459316774301" lon="11.465644148846666"><ele>128.0</ele><time>2026-04-25T13:24:27.977Z</time></trkpt><trkpt lat="43.64570257230188" lon="11.465654965042386"><ele>128.0</ele><time>2026-04-25T13:24:28.977Z</time></trkpt><trkpt lat="43.64546923659695" lon="11.465662530371201"><ele>128.0</ele><time>2026-04-25T13:24:29.977Z</time></trkpt><trkpt lat="43.64523545793061" lon="11.465669688902635"><ele>127.0</ele><time>2026-04-25T13:24:30.977Z</time></trkpt><trkpt lat="43.64500167354734" lon="11.465675619146344"><ele>126.0</ele><time>2026-04-25T13:24:31.977Z</time></trkpt><trkpt lat="43.64476561456285" lon="11.465680094874212"><ele>126.0</ele><time>2026-04-25T13:24:32.977Z</time></trkpt><trkpt lat="43.644526287031425" lon="11.465685154532785"><ele>126.0</ele><time>2026-04-25T13:24:33.977Z</time></trkpt><trkpt lat="43.644285334984914" lon="11.465690693108401"><ele>126.0</ele><time>2026-04-25T13:24:34.977Z</time></trkpt><trkpt lat="43.64404382468382" lon="11.465693377227675"><ele>126.0</ele><time>2026-04-25T13:24:35.977Z</time></trkpt><trkpt lat="43.64379842356196" lon="11.46569697012211"><ele>126.0</ele><time>2026-04-25T13:24:36.977Z</time></trkpt><trkpt lat="43.643553875930095" lon="11.465703824206363"><ele>126.0</ele><time>2026-04-25T13:24:37.977Z</time></trkpt><trkpt lat="43.64330829443" lon="11.465708964797203"><ele>126.0</ele><time>2026-04-25T13:24:38.977Z</time></trkpt><trkpt lat="43.643060488053024" lon="11.46571293392283"><ele>126.0</ele><time>2026-04-25T13:24:39.977Z</time></trkpt><trkpt lat="43.64281295796064" lon="11.465715079571137"><ele>125.5</ele><time>2026-04-25T13:24:40.977Z</time></trkpt><trkpt lat="43.64256462700056" lon="11.465718894558078"><ele>125.0</ele><time>2026-04-25T13:24:41.977Z</time></trkpt><trkpt lat="43.64231519117676" lon="11.465723127319706"><ele>125.0</ele><time>2026-04-25T13:24:42.977Z</time></trkpt><trkpt lat="43.64206445343923" lon="11.465727583757783"><ele>125.0</ele><time>2026-04-25T13:24:43.977Z</time></trkpt><trkpt lat="43.64181549510045" lon="11.465734953582135"><ele>124.5</ele><time>2026-04-25T13:24:44.977Z</time></trkpt><trkpt lat="43.64156355345277" lon="11.465743412018684"><ele>124.0</ele><time>2026-04-25T13:24:45.977Z</time></trkpt><trkpt lat="43.64131040357545" lon="11.4657495622837"><ele>124.5</ele><time>2026-04-25T13:24:46.977Z</time></trkpt><trkpt lat="43.641055460559265" lon="11.465757003953337"><ele>125.0</ele><time>2026-04-25T13:24:47.977Z</time></trkpt><trkpt lat="43.640800759852866" lon="11.465767876994395"><ele>125.0</ele><time>2026-04-25T13:24:48.977Z</time></trkpt><trkpt lat="43.64054572133884" lon="11.465779472109789"><ele>125.0</ele><time>2026-04-25T13:24:49.977Z</time></trkpt><trkpt lat="43.64028936191612" lon="11.465791222558861"><ele>124.5</ele><time>2026-04-25T13:24:50.977Z</time></trkpt><trkpt lat="43.64003348979434" lon="11.465797029387225"><ele>124.0</ele><time>2026-04-25T13:24:51.977Z</time></trkpt><trkpt lat="43.63977925591305" lon="11.465801285689617"><ele>124.0</ele><time>2026-04-25T13:24:52.977Z</time></trkpt><trkpt lat="43.6395365984596" lon="11.465806588131043"><ele>124.0</ele><time>2026-04-25T13:24:53.977Z</time></trkpt><trkpt lat="43.63929451726613" lon="11.465816586957652"><ele>122.5</ele><time>2026-04-25T13:24:54.977Z</time></trkpt><trkpt lat="43.639050846367745" lon="11.46583140686498"><ele>121.0</ele><time>2026-04-25T13:24:55.977Z</time></trkpt><trkpt lat="43.63880502520911" lon="11.465855938268623"><ele>120.0</ele><time>2026-04-25T13:24:56.977Z</time></trkpt><trkpt lat="43.63856505800164" lon="11.465895616074862"><ele>119.0</ele><time>2026-04-25T13:24:57.977Z</time></trkpt><trkpt lat="43.638325233298794" lon="11.465954937382543"><ele>119.0</ele><time>2026-04-25T13:24:58.977Z</time></trkpt><trkpt lat="43.638085787418945" lon="11.466025997820156"><ele>119.0</ele><time>2026-04-25T13:24:59.977Z</time></trkpt><trkpt lat="43.63785222447526" lon="11.466110263905245"><ele>119.5</ele><time>2026-04-25T13:25:00.977Z</time></trkpt><trkpt lat="43.63762525613234" lon="11.4662187867543"><ele>120.0</ele><time>2026-04-25T13:25:01.977Z</time></trkpt><trkpt lat="43.637399647485026" lon="11.466340396828622"><ele>120.0</ele><time>2026-04-25T13:25:02.977Z</time></trkpt><trkpt lat="43.63717631424444" lon="11.466471400996559"><ele>120.0</ele><time>2026-04-25T13:25:03.977Z</time></trkpt><trkpt lat="43.63695561074865" lon="11.466616243965937"><ele>120.5</ele><time>2026-04-25T13:25:04.977Z</time></trkpt><trkpt lat="43.6367393270913" lon="11.466775017498739"><ele>121.0</ele><time>2026-04-25T13:25:05.977Z</time></trkpt><trkpt lat="43.63651955043957" lon="11.46694774941612"><ele>120.5</ele><time>2026-04-25T13:25:06.977Z</time></trkpt><trkpt lat="43.63630812491437" lon="11.467138059825205"><ele>120.0</ele><time>2026-04-25T13:25:07.977Z</time></trkpt><trkpt lat="43.63610256949479" lon="11.467342467964345"><ele>120.0</ele><time>2026-04-25T13:25:08.977Z</time></trkpt><trkpt lat="43.63589731350361" lon="11.467555242399389"><ele>120.0</ele><time>2026-04-25T13:25:09.977Z</time></trkpt><trkpt lat="43.63569518332431" lon="11.46777295234157"><ele>120.0</ele><time>2026-04-25T13:25:10.977Z</time></trkpt><trkpt lat="43.6354949203567" lon="11.467993946270767"><ele>120.0</ele><time>2026-04-25T13:25:11.977Z</time></trkpt><trkpt lat="43.63528739411804" lon="11.468220022705978"><ele>120.0</ele><time>2026-04-25T13:25:12.977Z</time></trkpt><trkpt lat="43.63508338168904" lon="11.468444719732164"><ele>120.0</ele><time>2026-04-25T13:25:13.977Z</time></trkpt><trkpt lat="43.63487833454626" lon="11.468670076072932"><ele>121.5</ele><time>2026-04-25T13:25:14.977Z</time></trkpt><trkpt lat="43.634673345999346" lon="11.46889406616002"><ele>123.0</ele><time>2026-04-25T13:25:15.977Z</time></trkpt><trkpt lat="43.63447299615533" lon="11.469116773726133"><ele>122.5</ele><time>2026-04-25T13:25:16.977Z</time></trkpt><trkpt lat="43.63427175757517" lon="11.469339920632672"><ele>122.0</ele><time>2026-04-25T13:25:17.977Z</time></trkpt><trkpt lat="43.63407343186122" lon="11.46956375041849"><ele>123.5</ele><time>2026-04-25T13:25:18.977Z</time></trkpt><trkpt lat="43.63387497788629" lon="11.469785166591647"><ele>125.0</ele><time>2026-04-25T13:25:19.977Z</time></trkpt><trkpt lat="43.63367606115653" lon="11.47000569741771"><ele>124.5</ele><time>2026-04-25T13:25:20.977Z</time></trkpt><trkpt lat="43.63347576536458" lon="11.47022638923083"><ele>124.0</ele><time>2026-04-25T13:25:21.977Z</time></trkpt><trkpt lat="43.63327525411999" lon="11.47044741086358"><ele>124.0</ele><time>2026-04-25T13:25:22.977Z</time></trkpt><trkpt lat="43.63307707940344" lon="11.470666159221171"><ele>124.0</ele><time>2026-04-25T13:25:23.977Z</time></trkpt><trkpt lat="43.63287656928895" lon="11.47088268586862"><ele>123.5</ele><time>2026-04-25T13:25:24.977Z</time></trkpt><trkpt lat="43.632676884089314" lon="11.471100850774967"><ele>123.0</ele><time>2026-04-25T13:25:25.977Z</time></trkpt><trkpt lat="43.63247661495521" lon="11.471315835013993"><ele>123.0</ele><time>2026-04-25T13:25:26.977Z</time></trkpt><trkpt lat="43.632278743960036" lon="11.471530289278244"><ele>123.0</ele><time>2026-04-25T13:25:27.977Z</time></trkpt><trkpt lat="43.63208112265439" lon="11.471746512647057"><ele>123.0</ele><time>2026-04-25T13:25:28.977Z</time></trkpt><trkpt lat="43.63188331056568" lon="11.471961045197464"><ele>123.0</ele><time>2026-04-25T13:25:29.977Z</time></trkpt><trkpt lat="43.631684749682144" lon="11.472176796104028"><ele>123.0</ele><time>2026-04-25T13:25:30.977Z</time></trkpt><trkpt lat="43.63148651113167" lon="11.472393215130758"><ele>123.0</ele><time>2026-04-25T13:25:31.977Z</time></trkpt><trkpt lat="43.63128792262135" lon="11.472609641668429"><ele>123.0</ele><time>2026-04-25T13:25:32.977Z</time></trkpt><trkpt lat="43.631090268225485" lon="11.472823082442668"><ele>123.0</ele><time>2026-04-25T13:25:33.977Z</time></trkpt><trkpt lat="43.63089081734284" lon="11.473042047671107"><ele>123.0</ele><time>2026-04-25T13:25:34.977Z</time></trkpt><trkpt lat="43.63068968039127" lon="11.473258761190023"><ele>123.0</ele><time>2026-04-25T13:25:35.977Z</time></trkpt><trkpt lat="43.630490413719976" lon="11.473478939829972"><ele>123.5</ele><time>2026-04-25T13:25:36.977Z</time></trkpt><trkpt lat="43.6302909293763" lon="11.473698516776093"><ele>124.0</ele><time>2026-04-25T13:25:37.977Z</time></trkpt><trkpt lat="43.63009106403166" lon="11.473920272753137"><ele>124.5</ele><time>2026-04-25T13:25:38.977Z</time></trkpt><trkpt lat="43.629891991785904" lon="11.47414013580791"><ele>125.0</ele><time>2026-04-25T13:25:39.977Z</time></trkpt><trkpt lat="43.629695707722554" lon="11.474358588078257"><ele>125.0</ele><time>2026-04-25T13:25:40.977Z</time></trkpt><trkpt lat="43.62950002209176" lon="11.474577405058968"><ele>125.0</ele><time>2026-04-25T13:25:41.977Z</time></trkpt><trkpt lat="43.62930291276098" lon="11.474796993368894"><ele>124.5</ele><time>2026-04-25T13:25:42.977Z</time></trkpt><trkpt lat="43.62910428386449" lon="11.47501819315762"><ele>124.0</ele><time>2026-04-25T13:25:43.977Z</time></trkpt><trkpt lat="43.62890463323722" lon="11.475241478933889"><ele>124.0</ele><time>2026-04-25T13:25:44.977Z</time></trkpt><trkpt lat="43.6287059311087" lon="11.475465260211411"><ele>124.0</ele><time>2026-04-25T13:25:45.977Z</time></trkpt><trkpt lat="43.62850484102603" lon="11.475686786420136"><ele>123.5</ele><time>2026-04-25T13:25:46.977Z</time></trkpt><trkpt lat="43.628304930666644" lon="11.475903964300846"><ele>123.0</ele><time>2026-04-25T13:25:47.977Z</time></trkpt><trkpt lat="43.6281054406041" lon="11.47612194233073"><ele>124.0</ele><time>2026-04-25T13:25:48.977Z</time></trkpt><trkpt lat="43.62790600770045" lon="11.476341679029524"><ele>125.0</ele><time>2026-04-25T13:25:49.977Z</time></trkpt><trkpt lat="43.627704575633196" lon="11.47656482368638"><ele>125.0</ele><time>2026-04-25T13:25:50.977Z</time></trkpt><trkpt lat="43.627505835081394" lon="11.476784954159783"><ele>125.0</ele><time>2026-04-25T13:25:51.977Z</time></trkpt><trkpt lat="43.627304990344776" lon="11.477004489429147"><ele>125.0</ele><time>2026-04-25T13:25:52.977Z</time></trkpt><trkpt lat="43.62710467438325" lon="11.477221823466415"><ele>125.0</ele><time>2026-04-25T13:25:53.977Z</time></trkpt><trkpt lat="43.62690424190231" lon="11.477439194810396"><ele>124.5</ele><time>2026-04-25T13:25:54.977Z</time></trkpt><trkpt lat="43.62670206043425" lon="11.477656980833174"><ele>124.0</ele><time>2026-04-25T13:25:55.977Z</time></trkpt><trkpt lat="43.62650093294509" lon="11.4778763363447"><ele>124.0</ele><time>2026-04-25T13:25:56.977Z</time></trkpt><trkpt lat="43.62630239666877" lon="11.47809387303842"><ele>124.0</ele><time>2026-04-25T13:25:57.977Z</time></trkpt><trkpt lat="43.62610305802393" lon="11.478311318723998"><ele>124.0</ele><time>2026-04-25T13:25:58.977Z</time></trkpt><trkpt lat="43.62590250728341" lon="11.47852709457789"><ele>124.0</ele><time>2026-04-25T13:25:59.977Z</time></trkpt><trkpt lat="43.62570337792853" lon="11.478746282977966"><ele>124.0</ele><time>2026-04-25T13:26:00.977Z</time></trkpt><trkpt lat="43.62550579710751" lon="11.478964727820498"><ele>124.0</ele><time>2026-04-25T13:26:01.977Z</time></trkpt><trkpt lat="43.62530838270756" lon="11.479182198379085"><ele>124.0</ele><time>2026-04-25T13:26:02.977Z</time></trkpt><trkpt lat="43.62510852297125" lon="11.47939977093484"><ele>124.0</ele><time>2026-04-25T13:26:03.975Z</time></trkpt><trkpt lat="43.624905060533386" lon="11.479624845814222"><ele>124.5</ele><time>2026-04-25T13:26:04.975Z</time></trkpt><trkpt lat="43.6246984522212" lon="11.47985044317119"><ele>125.0</ele><time>2026-04-25T13:26:05.975Z</time></trkpt><trkpt lat="43.62449043010608" lon="11.480079300693506"><ele>125.5</ele><time>2026-04-25T13:26:06.975Z</time></trkpt><trkpt lat="43.62428269366521" lon="11.480308757451539"><ele>126.0</ele><time>2026-04-25T13:26:07.975Z</time></trkpt><trkpt lat="43.62407639122241" lon="11.480540032896881"><ele>126.0</ele><time>2026-04-25T13:26:08.975Z</time></trkpt><trkpt lat="43.62387021840597" lon="11.48076869640886"><ele>126.0</ele><time>2026-04-25T13:26:09.976Z</time></trkpt><trkpt lat="43.62366250303872" lon="11.480996797718566"><ele>126.0</ele><time>2026-04-25T13:26:10.976Z</time></trkpt><trkpt lat="43.623456916980494" lon="11.481225016360245"><ele>126.0</ele><time>2026-04-25T13:26:11.976Z</time></trkpt><trkpt lat="43.623250238827616" lon="11.481449625274163"><ele>126.0</ele><time>2026-04-25T13:26:12.976Z</time></trkpt><trkpt lat="43.623042958652654" lon="11.481678076089311"><ele>126.0</ele><time>2026-04-25T13:26:13.975Z</time></trkpt><trkpt lat="43.6228393417556" lon="11.481905775351779"><ele>125.5</ele><time>2026-04-25T13:26:14.975Z</time></trkpt><trkpt lat="43.62263408623449" lon="11.482130756240924"><ele>125.0</ele><time>2026-04-25T13:26:15.976Z</time></trkpt><trkpt lat="43.62242499555009" lon="11.482352203763329"><ele>125.0</ele><time>2026-04-25T13:26:16.975Z</time></trkpt><trkpt lat="43.622214896666435" lon="11.482569602894376"><ele>125.0</ele><time>2026-04-25T13:26:17.975Z</time></trkpt><trkpt lat="43.622004107091094" lon="11.482780411137714"><ele>124.5</ele><time>2026-04-25T13:26:18.975Z</time></trkpt><trkpt lat="43.621794079676135" lon="11.482987805266792"><ele>124.0</ele><time>2026-04-25T13:26:19.975Z</time></trkpt><trkpt lat="43.62158337833791" lon="11.4831929638972"><ele>124.0</ele><time>2026-04-25T13:26:20.975Z</time></trkpt><trkpt lat="43.62136839198477" lon="11.48339784422372"><ele>124.0</ele><time>2026-04-25T13:26:21.975Z</time></trkpt><trkpt lat="43.62115554904249" lon="11.483600585523893"><ele>124.0</ele><time>2026-04-25T13:26:22.975Z</time></trkpt><trkpt lat="43.62094184413392" lon="11.483799214121001"><ele>124.0</ele><time>2026-04-25T13:26:23.975Z</time></trkpt><trkpt lat="43.62073111501427" lon="11.483987999181053"><ele>124.0</ele><time>2026-04-25T13:26:24.975Z</time></trkpt><trkpt lat="43.620518702639366" lon="11.484177582093249"><ele>124.0</ele><time>2026-04-25T13:26:25.975Z</time></trkpt><trkpt lat="43.620298879320806" lon="11.484368039959364"><ele>124.0</ele><time>2026-04-25T13:26:26.975Z</time></trkpt><trkpt lat="43.62007679657829" lon="11.48456445372563"><ele>124.0</ele><time>2026-04-25T13:26:27.975Z</time></trkpt><trkpt lat="43.619853343860655" lon="11.484765401195213"><ele>124.0</ele><time>2026-04-25T13:26:28.975Z</time></trkpt><trkpt lat="43.619626542420015" lon="11.484969889520134"><ele>124.0</ele><time>2026-04-25T13:26:29.975Z</time></trkpt><trkpt lat="43.61939614641077" lon="11.485175378823799"><ele>124.0</ele><time>2026-04-25T13:26:30.975Z</time></trkpt><trkpt lat="43.6191637873884" lon="11.485378355066175"><ele>124.0</ele><time>2026-04-25T13:26:31.975Z</time></trkpt><trkpt lat="43.618930568033186" lon="11.485576490062138"><ele>124.0</ele><time>2026-04-25T13:26:32.975Z</time></trkpt><trkpt lat="43.61869500244777" lon="11.485771396572853"><ele>124.0</ele><time>2026-04-25T13:26:33.975Z</time></trkpt><trkpt lat="43.6184624598813" lon="11.485968295874676"><ele>124.5</ele><time>2026-04-25T13:26:34.975Z</time></trkpt><trkpt lat="43.61823020692903" lon="11.486163818976177"><ele>125.0</ele><time>2026-04-25T13:26:35.975Z</time></trkpt><trkpt lat="43.61799823259133" lon="11.48636026239072"><ele>124.5</ele><time>2026-04-25T13:26:36.975Z</time></trkpt><trkpt lat="43.617765034286975" lon="11.486563137959314"><ele>124.0</ele><time>2026-04-25T13:26:37.975Z</time></trkpt><trkpt lat="43.617536502868965" lon="11.486762773454815"><ele>124.0</ele><time>2026-04-25T13:26:38.975Z</time></trkpt><trkpt lat="43.617309787777685" lon="11.486964347456297"><ele>124.0</ele><time>2026-04-25T13:26:39.975Z</time></trkpt><trkpt lat="43.61708556551278" lon="11.48716348820728"><ele>124.5</ele><time>2026-04-25T13:26:40.975Z</time></trkpt><trkpt lat="43.616859616319914" lon="11.487364629981386"><ele>125.0</ele><time>2026-04-25T13:26:41.975Z</time></trkpt><trkpt lat="43.61663448070624" lon="11.487564573465404"><ele>125.0</ele><time>2026-04-25T13:26:42.975Z</time></trkpt><trkpt lat="43.61641138603065" lon="11.487762092050207"><ele>125.0</ele><time>2026-04-25T13:26:43.975Z</time></trkpt><trkpt lat="43.61618998171482" lon="11.487957487220699"><ele>125.5</ele><time>2026-04-25T13:26:44.975Z</time></trkpt><trkpt lat="43.615969552208746" lon="11.488149766203021"><ele>126.0</ele><time>2026-04-25T13:26:45.975Z</time></trkpt><trkpt lat="43.61575038681014" lon="11.488342106024936"><ele>126.0</ele><time>2026-04-25T13:26:46.975Z</time></trkpt><trkpt lat="43.61552919813196" lon="11.488540278079915"><ele>126.0</ele><time>2026-04-25T13:26:47.975Z</time></trkpt><trkpt lat="43.615310113110475" lon="11.48873611789311"><ele>125.0</ele><time>2026-04-25T13:26:48.975Z</time></trkpt><trkpt lat="43.61509010548465" lon="11.488934000347257"><ele>124.0</ele><time>2026-04-25T13:26:49.975Z</time></trkpt><trkpt lat="43.61487193136089" lon="11.489126779215965"><ele>124.0</ele><time>2026-04-25T13:26:50.975Z</time></trkpt><trkpt lat="43.61465247785656" lon="11.489322954113234"><ele>124.0</ele><time>2026-04-25T13:26:51.975Z</time></trkpt><trkpt lat="43.61443361716208" lon="11.489516066638089"><ele>124.0</ele><time>2026-04-25T13:26:52.975Z</time></trkpt><trkpt lat="43.614218935118515" lon="11.489707329504785"><ele>124.0</ele><time>2026-04-25T13:26:53.975Z</time></trkpt><trkpt lat="43.61400102252" lon="11.489899479656804"><ele>124.0</ele><time>2026-04-25T13:26:54.975Z</time></trkpt><trkpt lat="43.61378568972528" lon="11.490089666352665"><ele>124.0</ele><time>2026-04-25T13:26:55.975Z</time></trkpt><trkpt lat="43.61357185626629" lon="11.490280379779849"><ele>125.0</ele><time>2026-04-25T13:26:56.975Z</time></trkpt><trkpt lat="43.61335596517059" lon="11.490470467888096"><ele>126.0</ele><time>2026-04-25T13:26:57.975Z</time></trkpt><trkpt lat="43.61313992089302" lon="11.490658401845241"><ele>126.0</ele><time>2026-04-25T13:26:58.975Z</time></trkpt><trkpt lat="43.612924594800326" lon="11.490846833525444"><ele>126.0</ele><time>2026-04-25T13:26:59.975Z</time></trkpt><trkpt lat="43.61270987389816" lon="11.491034561078397"><ele>126.0</ele><time>2026-04-25T13:27:00.975Z</time></trkpt><trkpt lat="43.612495786712344" lon="11.491222605922037"><ele>126.0</ele><time>2026-04-25T13:27:01.975Z</time></trkpt><trkpt lat="43.61228390234891" lon="11.49141080092261"><ele>126.0</ele><time>2026-04-25T13:27:02.975Z</time></trkpt><trkpt lat="43.61207432534395" lon="11.49160048936479"><ele>126.0</ele><time>2026-04-25T13:27:03.975Z</time></trkpt><trkpt lat="43.6118636009872" lon="11.491791237254445"><ele>125.5</ele><time>2026-04-25T13:27:04.975Z</time></trkpt><trkpt lat="43.61165182251398" lon="11.491977803680165"><ele>125.0</ele><time>2026-04-25T13:27:05.975Z</time></trkpt><trkpt lat="43.61143850153606" lon="11.49216224984794"><ele>125.0</ele><time>2026-04-25T13:27:06.975Z</time></trkpt><trkpt lat="43.611228567827226" lon="11.492347204811697"><ele>125.0</ele><time>2026-04-25T13:27:07.975Z</time></trkpt><trkpt lat="43.611016877055825" lon="11.492533730864421"><ele>124.0</ele><time>2026-04-25T13:27:08.975Z</time></trkpt><trkpt lat="43.6108036643792" lon="11.49272426493907"><ele>123.0</ele><time>2026-04-25T13:27:09.975Z</time></trkpt><trkpt lat="43.61059215456892" lon="11.492906947276351"><ele>123.5</ele><time>2026-04-25T13:27:10.975Z</time></trkpt><trkpt lat="43.610385786487825" lon="11.493090514634932"><ele>124.0</ele><time>2026-04-25T13:27:11.975Z</time></trkpt><trkpt lat="43.61017764513915" lon="11.493274070564215"><ele>124.0</ele><time>2026-04-25T13:27:12.975Z</time></trkpt><trkpt lat="43.609970153674475" lon="11.493458247073134"><ele>124.0</ele><time>2026-04-25T13:27:13.975Z</time></trkpt><trkpt lat="43.6097633106718" lon="11.493641801032972"><ele>124.0</ele><time>2026-04-25T13:27:14.975Z</time></trkpt><trkpt lat="43.60955678128204" lon="11.493818143816332"><ele>124.0</ele><time>2026-04-25T13:27:15.975Z</time></trkpt><trkpt lat="43.60934919280475" lon="11.493993172700309"><ele>124.0</ele><time>2026-04-25T13:27:16.975Z</time></trkpt><trkpt lat="43.60914072457023" lon="11.494179055505827"><ele>124.0</ele><time>2026-04-25T13:27:17.975Z</time></trkpt><trkpt lat="43.60893574322581" lon="11.494360212063233"><ele>124.0</ele><time>2026-04-25T13:27:18.975Z</time></trkpt><trkpt lat="43.60873074942258" lon="11.494539288957426"><ele>124.0</ele><time>2026-04-25T13:27:19.975Z</time></trkpt><trkpt lat="43.60852892724203" lon="11.494719964583558"><ele>124.5</ele><time>2026-04-25T13:27:20.975Z</time></trkpt><trkpt lat="43.60832822982645" lon="11.494901896532681"><ele>125.0</ele><time>2026-04-25T13:27:21.975Z</time></trkpt><trkpt lat="43.60812547379246" lon="11.495079263857091"><ele>125.0</ele><time>2026-04-25T13:27:22.975Z</time></trkpt><trkpt lat="43.60792521698293" lon="11.495258279465032"><ele>125.0</ele><time>2026-04-25T13:27:23.975Z</time></trkpt><trkpt lat="43.60772557138763" lon="11.495440718027682"><ele>125.0</ele><time>2026-04-25T13:27:24.975Z</time></trkpt><trkpt lat="43.607522493953724" lon="11.49562001453849"><ele>125.0</ele><time>2026-04-25T13:27:25.975Z</time></trkpt><trkpt lat="43.60732275458057" lon="11.495798232943175"><ele>125.0</ele><time>2026-04-25T13:27:26.975Z</time></trkpt><trkpt lat="43.60712118813567" lon="11.495977938951008"><ele>125.0</ele><time>2026-04-25T13:27:27.975Z</time></trkpt><trkpt lat="43.606919246756" lon="11.496156119861602"><ele>125.5</ele><time>2026-04-25T13:27:28.975Z</time></trkpt><trkpt lat="43.60671682558087" lon="11.496332301572561"><ele>126.0</ele><time>2026-04-25T13:27:29.975Z</time></trkpt><trkpt lat="43.60651593969434" lon="11.49651129630282"><ele>126.0</ele><time>2026-04-25T13:27:30.975Z</time></trkpt><trkpt lat="43.60631388677839" lon="11.496691191573957"><ele>126.0</ele><time>2026-04-25T13:27:31.975Z</time></trkpt><trkpt lat="43.60611191982886" lon="11.496870925726554"><ele>126.0</ele><time>2026-04-25T13:27:32.975Z</time></trkpt><trkpt lat="43.605911465868914" lon="11.497050759880608"><ele>126.0</ele><time>2026-04-25T13:27:33.975Z</time></trkpt><trkpt lat="43.605708019363455" lon="11.49722937728338"><ele>126.0</ele><time>2026-04-25T13:27:34.975Z</time></trkpt><trkpt lat="43.6055046637006" lon="11.497406944247956"><ele>126.0</ele><time>2026-04-25T13:27:35.975Z</time></trkpt><trkpt lat="43.60530435235876" lon="11.497583486053063"><ele>126.5</ele><time>2026-04-25T13:27:36.975Z</time></trkpt><trkpt lat="43.605102098548485" lon="11.497765032382796"><ele>127.0</ele><time>2026-04-25T13:27:37.975Z</time></trkpt><trkpt lat="43.604899981259045" lon="11.497946108836906"><ele>127.0</ele><time>2026-04-25T13:27:38.975Z</time></trkpt><trkpt lat="43.604698602658125" lon="11.498128116586576"><ele>127.0</ele><time>2026-04-25T13:27:39.975Z</time></trkpt><trkpt lat="43.60449514348454" lon="11.498309987219535"><ele>125.5</ele><time>2026-04-25T13:27:40.975Z</time></trkpt><trkpt lat="43.604290034425745" lon="11.498490925107896"><ele>124.0</ele><time>2026-04-25T13:27:41.975Z</time></trkpt><trkpt lat="43.60408352934631" lon="11.498673610056334"><ele>125.5</ele><time>2026-04-25T13:27:42.975Z</time></trkpt><trkpt lat="43.60387458119088" lon="11.498855266817452"><ele>127.0</ele><time>2026-04-25T13:27:43.975Z</time></trkpt><trkpt lat="43.60366575516752" lon="11.499033982616327"><ele>126.5</ele><time>2026-04-25T13:27:44.975Z</time></trkpt><trkpt lat="43.60345521015912" lon="11.499213720593316"><ele>126.0</ele><time>2026-04-25T13:27:45.975Z</time></trkpt><trkpt lat="43.60324632983527" lon="11.49939585561625"><ele>126.0</ele><time>2026-04-25T13:27:46.975Z</time></trkpt><trkpt lat="43.60303664552269" lon="11.4995793707223"><ele>126.0</ele><time>2026-04-25T13:27:47.975Z</time></trkpt><trkpt lat="43.60282589072983" lon="11.499763110870404"><ele>125.0</ele><time>2026-04-25T13:27:48.975Z</time></trkpt><trkpt lat="43.6026120020939" lon="11.499950589091592"><ele>124.0</ele><time>2026-04-25T13:27:49.975Z</time></trkpt><trkpt lat="43.602400518171045" lon="11.500139165929678"><ele>124.0</ele><time>2026-04-25T13:27:50.975Z</time></trkpt><trkpt lat="43.60218855462458" lon="11.500331408410585"><ele>124.0</ele><time>2026-04-25T13:27:51.975Z</time></trkpt><trkpt lat="43.60197920265222" lon="11.500525698482484"><ele>123.5</ele><time>2026-04-25T13:27:52.975Z</time></trkpt><trkpt lat="43.60177067252308" lon="11.500723211730286"><ele>123.0</ele><time>2026-04-25T13:27:53.975Z</time></trkpt><trkpt lat="43.60156205329175" lon="11.500923687236549"><ele>123.0</ele><time>2026-04-25T13:27:54.975Z</time></trkpt><trkpt lat="43.601352603946026" lon="11.501122848067084"><ele>123.0</ele><time>2026-04-25T13:27:55.975Z</time></trkpt><trkpt lat="43.60114286421181" lon="11.501325255537235"><ele>124.0</ele><time>2026-04-25T13:27:56.975Z</time></trkpt><trkpt lat="43.60093471171504" lon="11.501528702550289"><ele>125.0</ele><time>2026-04-25T13:27:57.975Z</time></trkpt><trkpt lat="43.6007282071837" lon="11.501733190717411"><ele>125.0</ele><time>2026-04-25T13:27:58.975Z</time></trkpt><trkpt lat="43.60052452329745" lon="11.501940911707658"><ele>125.0</ele><time>2026-04-25T13:27:59.975Z</time></trkpt><trkpt lat="43.60032189484666" lon="11.502149228592442"><ele>124.5</ele><time>2026-04-25T13:28:00.975Z</time></trkpt><trkpt lat="43.60012001530315" lon="11.50236126042056"><ele>124.0</ele><time>2026-04-25T13:28:01.975Z</time></trkpt><trkpt lat="43.599921570550165" lon="11.502574508012941"><ele>124.0</ele><time>2026-04-25T13:28:02.975Z</time></trkpt><trkpt lat="43.59972317161189" lon="11.502790031961794"><ele>124.0</ele><time>2026-04-25T13:28:03.975Z</time></trkpt><trkpt lat="43.599528926392765" lon="11.503006784759574"><ele>124.5</ele><time>2026-04-25T13:28:04.975Z</time></trkpt><trkpt lat="43.59933211034207" lon="11.50322523452897"><ele>125.0</ele><time>2026-04-25T13:28:05.975Z</time></trkpt><trkpt lat="43.59913646633941" lon="11.503440366878737"><ele>125.0</ele><time>2026-04-25T13:28:06.975Z</time></trkpt><trkpt lat="43.59893902732048" lon="11.503655585756865"><ele>125.0</ele><time>2026-04-25T13:28:07.975Z</time></trkpt><trkpt lat="43.59874124244248" lon="11.503873064959569"><ele>125.5</ele><time>2026-04-25T13:28:08.975Z</time></trkpt><trkpt lat="43.59854650341327" lon="11.504085134863013"><ele>126.0</ele><time>2026-04-25T13:28:09.974Z</time></trkpt><trkpt lat="43.59835315726411" lon="11.50430058467743"><ele>126.0</ele><time>2026-04-25T13:28:10.974Z</time></trkpt><trkpt lat="43.598158537296484" lon="11.504514769882853"><ele>126.0</ele><time>2026-04-25T13:28:11.974Z</time></trkpt><trkpt lat="43.597967373635825" lon="11.504725098987215"><ele>126.5</ele><time>2026-04-25T13:28:12.973Z</time></trkpt><trkpt lat="43.59777538490839" lon="11.504933335575233"><ele>127.0</ele><time>2026-04-25T13:28:13.974Z</time></trkpt><trkpt lat="43.59758450465624" lon="11.505143099209434"><ele>127.0</ele><time>2026-04-25T13:28:14.974Z</time></trkpt><trkpt lat="43.597390703592076" lon="11.5053601300048"><ele>127.0</ele><time>2026-04-25T13:28:15.973Z</time></trkpt><trkpt lat="43.59719564269612" lon="11.505564868818905"><ele>126.5</ele><time>2026-04-25T13:28:16.974Z</time></trkpt><trkpt lat="43.59700245722912" lon="11.505779092663943"><ele>126.0</ele><time>2026-04-25T13:28:17.974Z</time></trkpt><trkpt lat="43.59681128907511" lon="11.505994353506471"><ele>126.0</ele><time>2026-04-25T13:28:18.973Z</time></trkpt><trkpt lat="43.596616949702046" lon="11.506208591503833"><ele>126.0</ele><time>2026-04-25T13:28:19.973Z</time></trkpt><trkpt lat="43.59642309067816" lon="11.506419374766043"><ele>126.0</ele><time>2026-04-25T13:28:20.973Z</time></trkpt><trkpt lat="43.59622800947176" lon="11.50663141296174"><ele>126.0</ele><time>2026-04-25T13:28:21.974Z</time></trkpt><trkpt lat="43.59603586075925" lon="11.50684301139593"><ele>126.0</ele><time>2026-04-25T13:28:22.974Z</time></trkpt><trkpt lat="43.595846919364895" lon="11.507055706842428"><ele>126.0</ele><time>2026-04-25T13:28:23.974Z</time></trkpt><trkpt lat="43.59565687256638" lon="11.50726719242341"><ele>126.0</ele><time>2026-04-25T13:28:24.974Z</time></trkpt><trkpt lat="43.59546719953367" lon="11.507476216282026"><ele>126.0</ele><time>2026-04-25T13:28:25.974Z</time></trkpt><trkpt lat="43.595278376209386" lon="11.507685715192487"><ele>126.0</ele><time>2026-04-25T13:28:26.974Z</time></trkpt><trkpt lat="43.595087356645465" lon="11.507889432994178"><ele>126.0</ele><time>2026-04-25T13:28:27.974Z</time></trkpt><trkpt lat="43.59489905422988" lon="11.508098794563447"><ele>128.0</ele><time>2026-04-25T13:28:28.974Z</time></trkpt><trkpt lat="43.59470984491627" lon="11.508307622134096"><ele>130.0</ele><time>2026-04-25T13:28:29.974Z</time></trkpt><trkpt lat="43.59451911734795" lon="11.508519017716264"><ele>129.5</ele><time>2026-04-25T13:28:30.974Z</time></trkpt><trkpt lat="43.59433094217033" lon="11.508728532493528"><ele>129.0</ele><time>2026-04-25T13:28:31.974Z</time></trkpt><trkpt lat="43.59413942552185" lon="11.508938675376202"><ele>129.0</ele><time>2026-04-25T13:28:32.974Z</time></trkpt><trkpt lat="43.593947354011334" lon="11.509146567633417"><ele>129.0</ele><time>2026-04-25T13:28:33.974Z</time></trkpt><trkpt lat="43.59375608595665" lon="11.509355675858352"><ele>129.0</ele><time>2026-04-25T13:28:34.974Z</time></trkpt><trkpt lat="43.59356374302793" lon="11.509565743960962"><ele>129.0</ele><time>2026-04-25T13:28:35.974Z</time></trkpt><trkpt lat="43.59337286998084" lon="11.509775715899499"><ele>129.0</ele><time>2026-04-25T13:28:36.974Z</time></trkpt><trkpt lat="43.593179662041905" lon="11.509989402453947"><ele>129.0</ele><time>2026-04-25T13:28:37.974Z</time></trkpt><trkpt lat="43.59298491454295" lon="11.510204219380268"><ele>128.5</ele><time>2026-04-25T13:28:38.974Z</time></trkpt><trkpt lat="43.592788965556" lon="11.510417843466383"><ele>128.0</ele><time>2026-04-25T13:28:39.974Z</time></trkpt><trkpt lat="43.59259143925266" lon="11.510632678923336"><ele>128.0</ele><time>2026-04-25T13:28:40.974Z</time></trkpt><trkpt lat="43.59239371659235" lon="11.510848777332907"><ele>128.0</ele><time>2026-04-25T13:28:41.974Z</time></trkpt><trkpt lat="43.59219682085116" lon="11.511066742061058"><ele>128.0</ele><time>2026-04-25T13:28:42.974Z</time></trkpt><trkpt lat="43.592002498857475" lon="11.511284441547918"><ele>128.0</ele><time>2026-04-25T13:28:43.974Z</time></trkpt><trkpt lat="43.59180705512417" lon="11.511503424477182"><ele>128.0</ele><time>2026-04-25T13:28:44.974Z</time></trkpt><trkpt lat="43.59161062487268" lon="11.511721867910383"><ele>128.0</ele><time>2026-04-25T13:28:45.974Z</time></trkpt><trkpt lat="43.59141323069853" lon="11.51193888701447"><ele>128.0</ele><time>2026-04-25T13:28:46.974Z</time></trkpt><trkpt lat="43.591218735119476" lon="11.51215257457632"><ele>128.0</ele><time>2026-04-25T13:28:47.974Z</time></trkpt><trkpt lat="43.59102129145042" lon="11.512366126308274"><ele>128.0</ele><time>2026-04-25T13:28:48.974Z</time></trkpt><trkpt lat="43.59082651673862" lon="11.512579317017389"><ele>128.0</ele><time>2026-04-25T13:28:49.974Z</time></trkpt><trkpt lat="43.590632329547915" lon="11.51279537626527"><ele>128.5</ele><time>2026-04-25T13:28:50.974Z</time></trkpt><trkpt lat="43.59044178356731" lon="11.513006406887737"><ele>129.0</ele><time>2026-04-25T13:28:51.974Z</time></trkpt><trkpt lat="43.59025083009411" lon="11.513213882843658"><ele>129.0</ele><time>2026-04-25T13:28:52.974Z</time></trkpt><trkpt lat="43.59005765087478" lon="11.51342375565046"><ele>129.0</ele><time>2026-04-25T13:28:53.974Z</time></trkpt><trkpt lat="43.589860996746985" lon="11.51363783687404"><ele>129.0</ele><time>2026-04-25T13:28:54.974Z</time></trkpt><trkpt lat="43.58966215103807" lon="11.513857130443377"><ele>129.0</ele><time>2026-04-25T13:28:55.974Z</time></trkpt><trkpt lat="43.58946387362892" lon="11.514078238637913"><ele>129.0</ele><time>2026-04-25T13:28:56.974Z</time></trkpt><trkpt lat="43.58926129208269" lon="11.514300108415908"><ele>129.0</ele><time>2026-04-25T13:28:57.974Z</time></trkpt><trkpt lat="43.58905823622714" lon="11.514521707258696"><ele>129.5</ele><time>2026-04-25T13:28:58.974Z</time></trkpt><trkpt lat="43.588855379762" lon="11.514745392471731"><ele>130.0</ele><time>2026-04-25T13:28:59.974Z</time></trkpt><trkpt lat="43.58865185153243" lon="11.514970667911687"><ele>130.0</ele><time>2026-04-25T13:29:00.974Z</time></trkpt><trkpt lat="43.588448767463056" lon="11.515195805740003"><ele>130.0</ele><time>2026-04-25T13:29:01.974Z</time></trkpt><trkpt lat="43.58824534825755" lon="11.515418743815625"><ele>130.5</ele><time>2026-04-25T13:29:02.974Z</time></trkpt><trkpt lat="43.58804268159503" lon="11.515639595569885"><ele>131.0</ele><time>2026-04-25T13:29:03.974Z</time></trkpt><trkpt lat="43.58784074101874" lon="11.515860761080404"><ele>131.0</ele><time>2026-04-25T13:29:04.974Z</time></trkpt><trkpt lat="43.587639945100634" lon="11.516080428202706"><ele>131.0</ele><time>2026-04-25T13:29:05.974Z</time></trkpt><trkpt lat="43.58744309367766" lon="11.516295500036392"><ele>131.0</ele><time>2026-04-25T13:29:06.974Z</time></trkpt><trkpt lat="43.58724549281545" lon="11.516515651866214"><ele>131.0</ele><time>2026-04-25T13:29:07.974Z</time></trkpt><trkpt lat="43.58704827119473" lon="11.516731655108986"><ele>130.0</ele><time>2026-04-25T13:29:08.974Z</time></trkpt><trkpt lat="43.586851537944725" lon="11.516943548251524"><ele>129.0</ele><time>2026-04-25T13:29:09.974Z</time></trkpt><trkpt lat="43.58665631627851" lon="11.517157663587467"><ele>129.0</ele><time>2026-04-25T13:29:10.974Z</time></trkpt><trkpt lat="43.5864614527677" lon="11.51737215539849"><ele>129.0</ele><time>2026-04-25T13:29:11.974Z</time></trkpt><trkpt lat="43.58626711479442" lon="11.517587669196919"><ele>129.5</ele><time>2026-04-25T13:29:12.974Z</time></trkpt><trkpt lat="43.586070407999806" lon="11.517806591750192"><ele>130.0</ele><time>2026-04-25T13:29:13.974Z</time></trkpt><trkpt lat="43.585877104783" lon="11.518026475958983"><ele>130.0</ele><time>2026-04-25T13:29:14.974Z</time></trkpt><trkpt lat="43.585680943502304" lon="11.518240992659663"><ele>130.0</ele><time>2026-04-25T13:29:15.974Z</time></trkpt><trkpt lat="43.58548282446108" lon="11.518455247312009"><ele>130.0</ele><time>2026-04-25T13:29:16.974Z</time></trkpt><trkpt lat="43.58528684701106" lon="11.518665529789866"><ele>130.0</ele><time>2026-04-25T13:29:17.974Z</time></trkpt><trkpt lat="43.58509081301299" lon="11.518874689989824"><ele>130.0</ele><time>2026-04-25T13:29:18.974Z</time></trkpt><trkpt lat="43.58489628936221" lon="11.519086634712961"><ele>130.0</ele><time>2026-04-25T13:29:19.974Z</time></trkpt><trkpt lat="43.584706912327526" lon="11.519299298416543"><ele>130.0</ele><time>2026-04-25T13:29:20.974Z</time></trkpt><trkpt lat="43.584516380865644" lon="11.519512789979489"><ele>130.0</ele><time>2026-04-25T13:29:21.974Z</time></trkpt><trkpt lat="43.58432444109872" lon="11.51972393785414"><ele>130.0</ele><time>2026-04-25T13:29:22.974Z</time></trkpt><trkpt lat="43.58413539498174" lon="11.519931646150438"><ele>130.0</ele><time>2026-04-25T13:29:23.974Z</time></trkpt><trkpt lat="43.58394716164187" lon="11.520137346772815"><ele>130.0</ele><time>2026-04-25T13:29:24.974Z</time></trkpt><trkpt lat="43.58376067709325" lon="11.520340222986519"><ele>130.0</ele><time>2026-04-25T13:29:25.974Z</time></trkpt><trkpt lat="43.58357262271173" lon="11.520545862167397"><ele>129.0</ele><time>2026-04-25T13:29:26.974Z</time></trkpt><trkpt lat="43.58338694150612" lon="11.520754118496964"><ele>128.0</ele><time>2026-04-25T13:29:27.974Z</time></trkpt><trkpt lat="43.58320351365695" lon="11.520963682730137"><ele>128.0</ele><time>2026-04-25T13:29:28.974Z</time></trkpt><trkpt lat="43.58302518928687" lon="11.521179175940402"><ele>128.0</ele><time>2026-04-25T13:29:29.974Z</time></trkpt><trkpt lat="43.58285236209508" lon="11.52140178438587"><ele>128.5</ele><time>2026-04-25T13:29:30.974Z</time></trkpt><trkpt lat="43.58268463731376" lon="11.521633010239587"><ele>129.0</ele><time>2026-04-25T13:29:31.974Z</time></trkpt><trkpt lat="43.582517974984015" lon="11.52186813803926"><ele>128.5</ele><time>2026-04-25T13:29:32.974Z</time></trkpt><trkpt lat="43.58235853367469" lon="11.52211145839889"><ele>128.0</ele><time>2026-04-25T13:29:33.974Z</time></trkpt><trkpt lat="43.582202392937575" lon="11.522363020278025"><ele>128.0</ele><time>2026-04-25T13:29:34.974Z</time></trkpt><trkpt lat="43.582053632939434" lon="11.522626021129648"><ele>128.0</ele><time>2026-04-25T13:29:35.974Z</time></trkpt><trkpt lat="43.58191149320991" lon="11.522899182974413"><ele>129.0</ele><time>2026-04-25T13:29:36.974Z</time></trkpt><trkpt lat="43.58177403236682" lon="11.523179807268303"><ele>130.0</ele><time>2026-04-25T13:29:37.974Z</time></trkpt><trkpt lat="43.58164106938802" lon="11.523467816141249"><ele>129.5</ele><time>2026-04-25T13:29:38.974Z</time></trkpt><trkpt lat="43.581515108491516" lon="11.523764699992864"><ele>129.0</ele><time>2026-04-25T13:29:39.974Z</time></trkpt><trkpt lat="43.581394861063416" lon="11.524067110681024"><ele>129.0</ele><time>2026-04-25T13:29:40.974Z</time></trkpt><trkpt lat="43.58128376048063" lon="11.524374818043487"><ele>129.0</ele><time>2026-04-25T13:29:41.974Z</time></trkpt><trkpt lat="43.581177426974946" lon="11.524687732622892"><ele>129.0</ele><time>2026-04-25T13:29:42.974Z</time></trkpt><trkpt lat="43.58107718272348" lon="11.525005692478354"><ele>129.0</ele><time>2026-04-25T13:29:43.974Z</time></trkpt><trkpt lat="43.58098091316045" lon="11.525325653516498"><ele>129.5</ele><time>2026-04-25T13:29:44.974Z</time></trkpt><trkpt lat="43.58088710217963" lon="11.525645192368126"><ele>130.0</ele><time>2026-04-25T13:29:45.974Z</time></trkpt><trkpt lat="43.58079168352144" lon="11.525964181125788"><ele>130.0</ele><time>2026-04-25T13:29:46.974Z</time></trkpt><trkpt lat="43.58069218415463" lon="11.526280705509954"><ele>130.0</ele><time>2026-04-25T13:29:47.974Z</time></trkpt><trkpt lat="43.580592190082484" lon="11.526595675562206"><ele>130.0</ele><time>2026-04-25T13:29:48.974Z</time></trkpt><trkpt lat="43.580491394389014" lon="11.526909996515103"><ele>130.0</ele><time>2026-04-25T13:29:49.974Z</time></trkpt><trkpt lat="43.580392078484" lon="11.527223074250921"><ele>128.5</ele><time>2026-04-25T13:29:50.974Z</time></trkpt><trkpt lat="43.58029102851388" lon="11.52753700056394"><ele>127.0</ele><time>2026-04-25T13:29:51.974Z</time></trkpt><trkpt lat="43.58018712234535" lon="11.527848666021004"><ele>128.5</ele><time>2026-04-25T13:29:52.974Z</time></trkpt><trkpt lat="43.580079007213726" lon="11.52815607526696"><ele>130.0</ele><time>2026-04-25T13:29:53.974Z</time></trkpt><trkpt lat="43.57996245698428" lon="11.528455090898394"><ele>130.0</ele><time>2026-04-25T13:29:54.974Z</time></trkpt><trkpt lat="43.57983933261255" lon="11.528748409243518"><ele>130.0</ele><time>2026-04-25T13:29:55.974Z</time></trkpt><trkpt lat="43.579710625573625" lon="11.529039704476453"><ele>130.0</ele><time>2026-04-25T13:29:56.974Z</time></trkpt><trkpt lat="43.57957948376307" lon="11.529325481480425"><ele>130.0</ele><time>2026-04-25T13:29:57.974Z</time></trkpt><trkpt lat="43.57944653088138" lon="11.529603288029522"><ele>130.0</ele><time>2026-04-25T13:29:58.974Z</time></trkpt><trkpt lat="43.57931332366378" lon="11.529875737549192"><ele>130.0</ele><time>2026-04-25T13:29:59.974Z</time></trkpt><trkpt lat="43.57918149322478" lon="11.530145048819637"><ele>131.0</ele><time>2026-04-25T13:30:00.974Z</time></trkpt><trkpt lat="43.579043432300125" lon="11.530406166889685"><ele>132.0</ele><time>2026-04-25T13:30:01.974Z</time></trkpt><trkpt lat="43.57890118740773" lon="11.530659429342677"><ele>132.0</ele><time>2026-04-25T13:30:02.974Z</time></trkpt><trkpt lat="43.5787555722563" lon="11.530904094553515"><ele>132.0</ele><time>2026-04-25T13:30:03.974Z</time></trkpt><trkpt lat="43.57860942506645" lon="11.531143267450778"><ele>132.0</ele><time>2026-04-25T13:30:04.974Z</time></trkpt><trkpt lat="43.57846181518252" lon="11.531374540479716"><ele>132.0</ele><time>2026-04-25T13:30:05.974Z</time></trkpt><trkpt lat="43.57830993602049" lon="11.531599904275188"><ele>132.0</ele><time>2026-04-25T13:30:06.974Z</time></trkpt><trkpt lat="43.578155388207946" lon="11.531823629730466"><ele>132.0</ele><time>2026-04-25T13:30:07.974Z</time></trkpt><trkpt lat="43.57800012963454" lon="11.532048960531217"><ele>132.0</ele><time>2026-04-25T13:30:08.974Z</time></trkpt><trkpt lat="43.577843326409116" lon="11.532274353872761"><ele>132.5</ele><time>2026-04-25T13:30:09.974Z</time></trkpt><trkpt lat="43.57768477455694" lon="11.532504315895272"><ele>133.0</ele><time>2026-04-25T13:30:10.974Z</time></trkpt><trkpt lat="43.57752751767311" lon="11.532732693556031"><ele>134.0</ele><time>2026-04-25T13:30:11.974Z</time></trkpt><trkpt lat="43.577369541674244" lon="11.532962067858472"><ele>135.0</ele><time>2026-04-25T13:30:12.974Z</time></trkpt><trkpt lat="43.57721045172897" lon="11.533195144628285"><ele>135.0</ele><time>2026-04-25T13:30:13.974Z</time></trkpt><trkpt lat="43.57705143807496" lon="11.53342861968327"><ele>135.0</ele><time>2026-04-25T13:30:14.974Z</time></trkpt><trkpt lat="43.57689245765959" lon="11.533663903565694"><ele>135.0</ele><time>2026-04-25T13:30:15.971Z</time></trkpt><trkpt lat="43.5767309804723" lon="11.533902082435034"><ele>135.0</ele><time>2026-04-25T13:30:16.971Z</time></trkpt><trkpt lat="43.57657003370388" lon="11.534137075194446"><ele>135.0</ele><time>2026-04-25T13:30:17.971Z</time></trkpt><trkpt lat="43.57640757533436" lon="11.534375553676167"><ele>135.0</ele><time>2026-04-25T13:30:18.971Z</time></trkpt><trkpt lat="43.576242458864016" lon="11.534613884377372"><ele>134.0</ele><time>2026-04-25T13:30:19.971Z</time></trkpt><trkpt lat="43.57608096705469" lon="11.534851540012719"><ele>133.0</ele><time>2026-04-25T13:30:20.971Z</time></trkpt><trkpt lat="43.57591767963404" lon="11.53508902053802"><ele>133.0</ele><time>2026-04-25T13:30:21.971Z</time></trkpt><trkpt lat="43.575751083259455" lon="11.535322237007767"><ele>133.0</ele><time>2026-04-25T13:30:22.971Z</time></trkpt><trkpt lat="43.57558614457964" lon="11.535564779864671"><ele>133.5</ele><time>2026-04-25T13:30:23.971Z</time></trkpt><trkpt lat="43.57541708150255" lon="11.535801546634145"><ele>134.0</ele><time>2026-04-25T13:30:24.971Z</time></trkpt><trkpt lat="43.57525381097413" lon="11.536043702175638"><ele>135.0</ele><time>2026-04-25T13:30:25.971Z</time></trkpt><trkpt lat="43.57508945885859" lon="11.536286502847805"><ele>136.0</ele><time>2026-04-25T13:30:26.971Z</time></trkpt><trkpt lat="43.57492378002524" lon="11.536522042500541"><ele>136.0</ele><time>2026-04-25T13:30:27.971Z</time></trkpt><trkpt lat="43.574758892567594" lon="11.536758876375679"><ele>136.0</ele><time>2026-04-25T13:30:28.971Z</time></trkpt><trkpt lat="43.574589592228065" lon="11.536995367880921"><ele>135.5</ele><time>2026-04-25T13:30:29.971Z</time></trkpt><trkpt lat="43.574421614965715" lon="11.537233629889808"><ele>135.0</ele><time>2026-04-25T13:30:30.971Z</time></trkpt><trkpt lat="43.57425437601851" lon="11.537474686118921"><ele>135.0</ele><time>2026-04-25T13:30:31.971Z</time></trkpt><trkpt lat="43.57408919838706" lon="11.53771412821878"><ele>135.0</ele><time>2026-04-25T13:30:32.971Z</time></trkpt><trkpt lat="43.57391985128299" lon="11.537949425555485"><ele>135.5</ele><time>2026-04-25T13:30:33.971Z</time></trkpt><trkpt lat="43.57375095813473" lon="11.538179386165675"><ele>136.0</ele><time>2026-04-25T13:30:34.971Z</time></trkpt><trkpt lat="43.57358262916478" lon="11.538406649227728"><ele>135.5</ele><time>2026-04-25T13:30:35.971Z</time></trkpt><trkpt lat="43.573411522707495" lon="11.538631309287732"><ele>135.0</ele><time>2026-04-25T13:30:36.971Z</time></trkpt><trkpt lat="43.573240873943824" lon="11.53885172887118"><ele>135.0</ele><time>2026-04-25T13:30:37.971Z</time></trkpt><trkpt lat="43.57306936336514" lon="11.539067666318113"><ele>135.0</ele><time>2026-04-25T13:30:38.971Z</time></trkpt><trkpt lat="43.57289692307606" lon="11.539279007671214"><ele>135.5</ele><time>2026-04-25T13:30:39.971Z</time></trkpt><trkpt lat="43.57272257275072" lon="11.53948624041595"><ele>136.0</ele><time>2026-04-25T13:30:40.971Z</time></trkpt><trkpt lat="43.57254547951361" lon="11.539690313147773"><ele>136.0</ele><time>2026-04-25T13:30:41.971Z</time></trkpt><trkpt lat="43.57236830893584" lon="11.53989067614166"><ele>136.0</ele><time>2026-04-25T13:30:42.971Z</time></trkpt><trkpt lat="43.57219041361539" lon="11.540087476043192"><ele>135.5</ele><time>2026-04-25T13:30:43.971Z</time></trkpt><trkpt lat="43.57200962591413" lon="11.540281209666857"><ele>135.0</ele><time>2026-04-25T13:30:44.971Z</time></trkpt><trkpt lat="43.57182675646156" lon="11.540465568215389"><ele>136.5</ele><time>2026-04-25T13:30:45.971Z</time></trkpt><trkpt lat="43.571641076049" lon="11.54064825299104"><ele>138.0</ele><time>2026-04-25T13:30:46.971Z</time></trkpt><trkpt lat="43.57145367896751" lon="11.540826050842323"><ele>138.0</ele><time>2026-04-25T13:30:47.971Z</time></trkpt><trkpt lat="43.571267223456424" lon="11.540993707373904"><ele>138.0</ele><time>2026-04-25T13:30:48.971Z</time></trkpt><trkpt lat="43.57107775596418" lon="11.541157072964456"><ele>138.0</ele><time>2026-04-25T13:30:49.971Z</time></trkpt><trkpt lat="43.570886071944685" lon="11.541312832395178"><ele>138.0</ele><time>2026-04-25T13:30:50.971Z</time></trkpt><trkpt lat="43.5706910478666" lon="11.54146351849537"><ele>138.0</ele><time>2026-04-25T13:30:51.971Z</time></trkpt><trkpt lat="43.57049340635584" lon="11.541612315436524"><ele>138.0</ele><time>2026-04-25T13:30:52.971Z</time></trkpt><trkpt lat="43.5702907946821" lon="11.54175477245558"><ele>137.0</ele><time>2026-04-25T13:30:53.971Z</time></trkpt><trkpt lat="43.570082144984106" lon="11.541887504485711"><ele>136.0</ele><time>2026-04-25T13:30:54.971Z</time></trkpt><trkpt lat="43.56986936551726" lon="11.542009573010292"><ele>136.0</ele><time>2026-04-25T13:30:55.971Z</time></trkpt><trkpt lat="43.56965323809379" lon="11.542122205573223"><ele>136.0</ele><time>2026-04-25T13:30:56.971Z</time></trkpt><trkpt lat="43.5694321580617" lon="11.542230462706954"><ele>136.0</ele><time>2026-04-25T13:30:57.971Z</time></trkpt><trkpt lat="43.56920752342654" lon="11.542328352666434"><ele>136.0</ele><time>2026-04-25T13:30:58.971Z</time></trkpt><trkpt lat="43.5689784937076" lon="11.542415797781729"><ele>136.0</ele><time>2026-04-25T13:30:59.971Z</time></trkpt><trkpt lat="43.56874911421859" lon="11.542492835095356"><ele>136.0</ele><time>2026-04-25T13:31:00.971Z</time></trkpt><trkpt lat="43.568516950023344" lon="11.542558749605506"><ele>136.5</ele><time>2026-04-25T13:31:01.971Z</time></trkpt><trkpt lat="43.56828330571506" lon="11.542613998795643"><ele>137.0</ele><time>2026-04-25T13:31:02.971Z</time></trkpt><trkpt lat="43.56804906648434" lon="11.542659186874076"><ele>136.5</ele><time>2026-04-25T13:31:03.971Z</time></trkpt><trkpt lat="43.567814837559716" lon="11.542691994802627"><ele>136.0</ele><time>2026-04-25T13:31:04.971Z</time></trkpt><trkpt lat="43.56757872536897" lon="11.542717636304163"><ele>136.0</ele><time>2026-04-25T13:31:05.971Z</time></trkpt><trkpt lat="43.567342901832866" lon="11.542731662985146"><ele>136.0</ele><time>2026-04-25T13:31:06.971Z</time></trkpt><trkpt lat="43.56710832773373" lon="11.542736387354164"><ele>136.0</ele><time>2026-04-25T13:31:07.971Z</time></trkpt><trkpt lat="43.56687630394776" lon="11.542731914052784"><ele>136.0</ele><time>2026-04-25T13:31:08.971Z</time></trkpt><trkpt lat="43.56664606928838" lon="11.542722995563482"><ele>136.0</ele><time>2026-04-25T13:31:09.971Z</time></trkpt><trkpt lat="43.56641852977602" lon="11.542707792452903"><ele>136.0</ele><time>2026-04-25T13:31:10.971Z</time></trkpt><trkpt lat="43.56619018653899" lon="11.54268731235896"><ele>136.0</ele><time>2026-04-25T13:31:11.971Z</time></trkpt><trkpt lat="43.56596354776641" lon="11.542666557750104"><ele>136.0</ele><time>2026-04-25T13:31:12.971Z</time></trkpt><trkpt lat="43.56573619533404" lon="11.542642589426206"><ele>136.0</ele><time>2026-04-25T13:31:13.971Z</time></trkpt><trkpt lat="43.56550952840452" lon="11.54261891609453"><ele>136.0</ele><time>2026-04-25T13:31:14.971Z</time></trkpt><trkpt lat="43.56528214300228" lon="11.542596286374748"><ele>135.5</ele><time>2026-04-25T13:31:15.971Z</time></trkpt><trkpt lat="43.565053631327906" lon="11.542571964225784"><ele>135.0</ele><time>2026-04-25T13:31:16.971Z</time></trkpt><trkpt lat="43.56482418718564" lon="11.54254388617366"><ele>135.0</ele><time>2026-04-25T13:31:17.971Z</time></trkpt><trkpt lat="43.56459727664075" lon="11.54251709166574"><ele>135.0</ele><time>2026-04-25T13:31:18.971Z</time></trkpt><trkpt lat="43.56437009371336" lon="11.54248890782275"><ele>135.0</ele><time>2026-04-25T13:31:19.971Z</time></trkpt><trkpt lat="43.56414191214159" lon="11.542458275448356"><ele>135.0</ele><time>2026-04-25T13:31:20.971Z</time></trkpt><trkpt lat="43.56391423161259" lon="11.542428629078966"><ele>135.5</ele><time>2026-04-25T13:31:21.971Z</time></trkpt><trkpt lat="43.563683914060974" lon="11.542401632230046"><ele>136.0</ele><time>2026-04-25T13:31:22.971Z</time></trkpt><trkpt lat="43.5634534607883" lon="11.542377225840339"><ele>136.0</ele><time>2026-04-25T13:31:23.971Z</time></trkpt><trkpt lat="43.563220601693374" lon="11.542350894306955"><ele>136.0</ele><time>2026-04-25T13:31:24.971Z</time></trkpt><trkpt lat="43.56299404093584" lon="11.542324843883524"><ele>135.5</ele><time>2026-04-25T13:31:25.971Z</time></trkpt><trkpt lat="43.562765256890046" lon="11.542300951575838"><ele>135.0</ele><time>2026-04-25T13:31:26.971Z</time></trkpt><trkpt lat="43.562534978943084" lon="11.542275207666737"><ele>135.0</ele><time>2026-04-25T13:31:27.971Z</time></trkpt><trkpt lat="43.56230828342727" lon="11.542249737748039"><ele>135.0</ele><time>2026-04-25T13:31:28.971Z</time></trkpt><trkpt lat="43.56207963595911" lon="11.542225518742502"><ele>135.0</ele><time>2026-04-25T13:31:29.971Z</time></trkpt><trkpt lat="43.5618499820932" lon="11.542200878371283"><ele>135.0</ele><time>2026-04-25T13:31:30.971Z</time></trkpt><trkpt lat="43.5616198133237" lon="11.542175688091337"><ele>135.0</ele><time>2026-04-25T13:31:31.971Z</time></trkpt><trkpt lat="43.561389962594234" lon="11.542147436769957"><ele>135.0</ele><time>2026-04-25T13:31:32.971Z</time></trkpt><trkpt lat="43.56116469864562" lon="11.542124187683592"><ele>134.5</ele><time>2026-04-25T13:31:33.971Z</time></trkpt><trkpt lat="43.56093604923418" lon="11.54210394969112"><ele>134.0</ele><time>2026-04-25T13:31:34.971Z</time></trkpt><trkpt lat="43.56070463388848" lon="11.542074854046747"><ele>134.0</ele><time>2026-04-25T13:31:35.971Z</time></trkpt><trkpt lat="43.56048021072163" lon="11.542045343321547"><ele>134.0</ele><time>2026-04-25T13:31:36.971Z</time></trkpt><trkpt lat="43.5602626843924" lon="11.542025273272495"><ele>134.0</ele><time>2026-04-25T13:31:37.971Z</time></trkpt><trkpt lat="43.56004849208769" lon="11.542015714662943"><ele>134.66666666666666</ele><time>2026-04-25T13:31:38.971Z</time></trkpt><trkpt lat="43.5598333019893" lon="11.542013192614824"><ele>135.33333333333334</ele><time>2026-04-25T13:31:39.971Z</time></trkpt><trkpt lat="43.55962034846184" lon="11.542033087934803"><ele>136.0</ele><time>2026-04-25T13:31:40.971Z</time></trkpt><trkpt lat="43.55940343487199" lon="11.5420679163321"><ele>136.33333333333334</ele><time>2026-04-25T13:31:41.971Z</time></trkpt><trkpt lat="43.559182841058686" lon="11.542126896638214"><ele>136.66666666666666</ele><time>2026-04-25T13:31:42.971Z</time></trkpt><trkpt lat="43.55896972902229" lon="11.542205712427497"><ele>137.0</ele><time>2026-04-25T13:31:43.971Z</time></trkpt><trkpt lat="43.55875453839907" lon="11.5422994291423"><ele>136.5</ele><time>2026-04-25T13:31:44.971Z</time></trkpt><trkpt lat="43.558538688354695" lon="11.542412147375012"><ele>136.0</ele><time>2026-04-25T13:31:45.971Z</time></trkpt><trkpt lat="43.558326510455686" lon="11.542543831745448"><ele>136.0</ele><time>2026-04-25T13:31:46.971Z</time></trkpt><trkpt lat="43.55812054825778" lon="11.542694121550433"><ele>136.0</ele><time>2026-04-25T13:31:47.971Z</time></trkpt><trkpt lat="43.5579244265723" lon="11.542862688756742"><ele>136.5</ele><time>2026-04-25T13:31:48.971Z</time></trkpt><trkpt lat="43.55773604518673" lon="11.543048931076504"><ele>137.0</ele><time>2026-04-25T13:31:49.971Z</time></trkpt><trkpt lat="43.5575550898918" lon="11.543251962020973"><ele>137.0</ele><time>2026-04-25T13:31:50.971Z</time></trkpt><trkpt lat="43.55738575517679" lon="11.543469296530317"><ele>137.0</ele><time>2026-04-25T13:31:51.971Z</time></trkpt><trkpt lat="43.557219852982215" lon="11.543699279546077"><ele>137.5</ele><time>2026-04-25T13:31:52.971Z</time></trkpt><trkpt lat="43.55706016950564" lon="11.543934179249876"><ele>138.0</ele><time>2026-04-25T13:31:53.971Z</time></trkpt><trkpt lat="43.55690057648961" lon="11.54417099069141"><ele>138.0</ele><time>2026-04-25T13:31:54.971Z</time></trkpt><trkpt lat="43.55673902041836" lon="11.544404104853434"><ele>138.0</ele><time>2026-04-25T13:31:55.971Z</time></trkpt><trkpt lat="43.556571056895166" lon="11.544639277832218"><ele>139.5</ele><time>2026-04-25T13:31:56.971Z</time></trkpt><trkpt lat="43.556404306491075" lon="11.544875204144102"><ele>141.0</ele><time>2026-04-25T13:31:57.971Z</time></trkpt><trkpt lat="43.55623850858544" lon="11.545115590129512"><ele>139.5</ele><time>2026-04-25T13:31:58.971Z</time></trkpt><trkpt lat="43.55607834378862" lon="11.545361029128163"><ele>138.0</ele><time>2026-04-25T13:31:59.971Z</time></trkpt><trkpt lat="43.55591987335515" lon="11.54560952016741"><ele>138.0</ele><time>2026-04-25T13:32:00.971Z</time></trkpt><trkpt lat="43.55576232658798" lon="11.545864981357964"><ele>138.0</ele><time>2026-04-25T13:32:01.971Z</time></trkpt><trkpt lat="43.555609019865486" lon="11.546126545893271"><ele>137.0</ele><time>2026-04-25T13:32:02.971Z</time></trkpt><trkpt lat="43.5554593754734" lon="11.546390963663033"><ele>136.0</ele><time>2026-04-25T13:32:03.971Z</time></trkpt><trkpt lat="43.555313104902446" lon="11.546659271378848"><ele>136.0</ele><time>2026-04-25T13:32:04.971Z</time></trkpt><trkpt lat="43.55517003246156" lon="11.546935337888689"><ele>136.0</ele><time>2026-04-25T13:32:05.971Z</time></trkpt><trkpt lat="43.55502668375108" lon="11.547212002323256"><ele>136.0</ele><time>2026-04-25T13:32:06.971Z</time></trkpt><trkpt lat="43.55488113557808" lon="11.547487547782577"><ele>136.0</ele><time>2026-04-25T13:32:07.971Z</time></trkpt><trkpt lat="43.55473520806978" lon="11.547762327791396"><ele>136.5</ele><time>2026-04-25T13:32:08.971Z</time></trkpt><trkpt lat="43.55458986260748" lon="11.548040607538505"><ele>137.0</ele><time>2026-04-25T13:32:09.971Z</time></trkpt><trkpt lat="43.55444484401832" lon="11.548316979493258"><ele>135.5</ele><time>2026-04-25T13:32:10.971Z</time></trkpt><trkpt lat="43.55429503787178" lon="11.548592655235757"><ele>134.0</ele><time>2026-04-25T13:32:11.971Z</time></trkpt><trkpt lat="43.55414877996248" lon="11.548870491118278"><ele>134.0</ele><time>2026-04-25T13:32:12.971Z</time></trkpt><trkpt lat="43.55400081649193" lon="11.549147545506253"><ele>134.0</ele><time>2026-04-25T13:32:13.971Z</time></trkpt><trkpt lat="43.55385325867081" lon="11.549420638864849"><ele>134.0</ele><time>2026-04-25T13:32:14.971Z</time></trkpt><trkpt lat="43.55370456208289" lon="11.549690124551708"><ele>134.0</ele><time>2026-04-25T13:32:15.971Z</time></trkpt><trkpt lat="43.55355179766066" lon="11.549958985066846"><ele>134.0</ele><time>2026-04-25T13:32:16.971Z</time></trkpt><trkpt lat="43.553398243465125" lon="11.55022623534266"><ele>134.0</ele><time>2026-04-25T13:32:17.971Z</time></trkpt><trkpt lat="43.5532447261566" lon="11.550493620185957"><ele>135.0</ele><time>2026-04-25T13:32:18.971Z</time></trkpt><trkpt lat="43.553089159197924" lon="11.550755860936762"><ele>136.0</ele><time>2026-04-25T13:32:19.971Z</time></trkpt><trkpt lat="43.55293062350193" lon="11.551015955337636"><ele>135.5</ele><time>2026-04-25T13:32:20.971Z</time></trkpt><trkpt lat="43.55277110079824" lon="11.551269807584891"><ele>135.0</ele><time>2026-04-25T13:32:21.968Z</time></trkpt><trkpt lat="43.55260769018588" lon="11.55151890617547"><ele>135.0</ele><time>2026-04-25T13:32:22.969Z</time></trkpt><trkpt lat="43.5524434417412" lon="11.551765389419097"><ele>135.0</ele><time>2026-04-25T13:32:23.969Z</time></trkpt><trkpt lat="43.5522773441164" lon="11.552012884567818"><ele>135.0</ele><time>2026-04-25T13:32:24.968Z</time></trkpt><trkpt lat="43.55211196153866" lon="11.552255401496009"><ele>135.0</ele><time>2026-04-25T13:32:25.969Z</time></trkpt><trkpt lat="43.551947749153115" lon="11.552498888602795"><ele>135.0</ele><time>2026-04-25T13:32:26.969Z</time></trkpt><trkpt lat="43.55178404803518" lon="11.552740655643781"><ele>135.0</ele><time>2026-04-25T13:32:27.969Z</time></trkpt><trkpt lat="43.55162026379042" lon="11.552977972037183"><ele>136.5</ele><time>2026-04-25T13:32:28.968Z</time></trkpt><trkpt lat="43.551456357552134" lon="11.553215289555867"><ele>138.0</ele><time>2026-04-25T13:32:29.968Z</time></trkpt><trkpt lat="43.55129132535521" lon="11.553450240846457"><ele>138.0</ele><time>2026-04-25T13:32:30.968Z</time></trkpt><trkpt lat="43.55112815784203" lon="11.5536876799512"><ele>138.0</ele><time>2026-04-25T13:32:31.969Z</time></trkpt><trkpt lat="43.55096724951205" lon="11.55392961675376"><ele>138.0</ele><time>2026-04-25T13:32:32.969Z</time></trkpt><trkpt lat="43.550801816215696" lon="11.554164905899764"><ele>138.0</ele><time>2026-04-25T13:32:33.969Z</time></trkpt><trkpt lat="43.55063742160333" lon="11.554400319665088"><ele>138.0</ele><time>2026-04-25T13:32:34.968Z</time></trkpt><trkpt lat="43.550474792305835" lon="11.5546358740327"><ele>138.0</ele><time>2026-04-25T13:32:35.968Z</time></trkpt><trkpt lat="43.5503145054051" lon="11.554880509116392"><ele>138.0</ele><time>2026-04-25T13:32:36.968Z</time></trkpt><trkpt lat="43.55015270332106" lon="11.555112616683893"><ele>138.0</ele><time>2026-04-25T13:32:37.968Z</time></trkpt><trkpt lat="43.549994849534265" lon="11.555351124907085"><ele>137.5</ele><time>2026-04-25T13:32:38.968Z</time></trkpt><trkpt lat="43.54983361755815" lon="11.555580913751463"><ele>137.0</ele><time>2026-04-25T13:32:39.968Z</time></trkpt><trkpt lat="43.54967269967991" lon="11.555814722215155"><ele>137.0</ele><time>2026-04-25T13:32:40.968Z</time></trkpt><trkpt lat="43.54951303283221" lon="11.556052402157182"><ele>137.0</ele><time>2026-04-25T13:32:41.968Z</time></trkpt><trkpt lat="43.549353074744175" lon="11.556285856462225"><ele>137.5</ele><time>2026-04-25T13:32:42.968Z</time></trkpt><trkpt lat="43.549193026680925" lon="11.5565164750112"><ele>138.0</ele><time>2026-04-25T13:32:43.968Z</time></trkpt><trkpt lat="43.549032380732676" lon="11.556752738855902"><ele>138.0</ele><time>2026-04-25T13:32:44.968Z</time></trkpt><trkpt lat="43.54887275238478" lon="11.556987106855495"><ele>138.0</ele><time>2026-04-25T13:32:45.968Z</time></trkpt><trkpt lat="43.54871346106723" lon="11.55722167107383"><ele>138.5</ele><time>2026-04-25T13:32:46.968Z</time></trkpt><trkpt lat="43.548552039774314" lon="11.557455344405003"><ele>139.0</ele><time>2026-04-25T13:32:47.968Z</time></trkpt><trkpt lat="43.548387133708545" lon="11.557688249162958"><ele>140.0</ele><time>2026-04-25T13:32:48.968Z</time></trkpt><trkpt lat="43.54822528045393" lon="11.557925068205169"><ele>141.0</ele><time>2026-04-25T13:32:49.968Z</time></trkpt><trkpt lat="43.548062733316435" lon="11.558162263849658"><ele>141.0</ele><time>2026-04-25T13:32:50.968Z</time></trkpt><trkpt lat="43.54790097887517" lon="11.55839868688018"><ele>141.0</ele><time>2026-04-25T13:32:51.968Z</time></trkpt><trkpt lat="43.54774052245928" lon="11.558638818544098"><ele>140.0</ele><time>2026-04-25T13:32:52.968Z</time></trkpt><trkpt lat="43.54758255754926" lon="11.55887930030574"><ele>139.0</ele><time>2026-04-25T13:32:53.968Z</time></trkpt><trkpt lat="43.547421059915415" lon="11.559110085288678"><ele>139.0</ele><time>2026-04-25T13:32:54.968Z</time></trkpt><trkpt lat="43.547256107784435" lon="11.559345730118897"><ele>139.0</ele><time>2026-04-25T13:32:55.968Z</time></trkpt><trkpt lat="43.54709346239991" lon="11.559583463374189"><ele>138.5</ele><time>2026-04-25T13:32:56.968Z</time></trkpt><trkpt lat="43.546929763797955" lon="11.559817279766378"><ele>138.0</ele><time>2026-04-25T13:32:57.968Z</time></trkpt><trkpt lat="43.54676785914461" lon="11.560053956362337"><ele>138.0</ele><time>2026-04-25T13:32:58.968Z</time></trkpt><trkpt lat="43.54660886314167" lon="11.560284758385206"><ele>138.0</ele><time>2026-04-25T13:32:59.968Z</time></trkpt><trkpt lat="43.54644743758725" lon="11.560519533797361"><ele>138.0</ele><time>2026-04-25T13:33:00.968Z</time></trkpt><trkpt lat="43.54628719565115" lon="11.560756543882926"><ele>138.0</ele><time>2026-04-25T13:33:01.968Z</time></trkpt><trkpt lat="43.54612596763179" lon="11.56099345101691"><ele>137.5</ele><time>2026-04-25T13:33:02.968Z</time></trkpt><trkpt lat="43.54596445967843" lon="11.561231612387903"><ele>137.0</ele><time>2026-04-25T13:33:03.968Z</time></trkpt><trkpt lat="43.54580279424102" lon="11.561467898736193"><ele>137.0</ele><time>2026-04-25T13:33:04.968Z</time></trkpt><trkpt lat="43.54564273380449" lon="11.561700652596993"><ele>137.0</ele><time>2026-04-25T13:33:05.968Z</time></trkpt><trkpt lat="43.54548376089653" lon="11.561934469556922"><ele>138.0</ele><time>2026-04-25T13:33:06.968Z</time></trkpt><trkpt lat="43.545325642586754" lon="11.562167991760703"><ele>139.0</ele><time>2026-04-25T13:33:07.968Z</time></trkpt><trkpt lat="43.545164766571126" lon="11.562399414488317"><ele>139.0</ele><time>2026-04-25T13:33:08.968Z</time></trkpt><trkpt lat="43.54500583338345" lon="11.562632341948461"><ele>139.0</ele><time>2026-04-25T13:33:09.968Z</time></trkpt><trkpt lat="43.54484809154551" lon="11.562867303269439"><ele>139.0</ele><time>2026-04-25T13:33:10.968Z</time></trkpt><trkpt lat="43.54468834660156" lon="11.563101207784882"><ele>139.0</ele><time>2026-04-25T13:33:11.968Z</time></trkpt><trkpt lat="43.54452859951384" lon="11.563329994231374"><ele>139.0</ele><time>2026-04-25T13:33:12.968Z</time></trkpt><trkpt lat="43.54436951577466" lon="11.56355804326318"><ele>139.0</ele><time>2026-04-25T13:33:13.968Z</time></trkpt><trkpt lat="43.54421031926427" lon="11.563787274402175"><ele>139.5</ele><time>2026-04-25T13:33:14.968Z</time></trkpt><trkpt lat="43.54405104423683" lon="11.564018864882557"><ele>140.0</ele><time>2026-04-25T13:33:15.968Z</time></trkpt><trkpt lat="43.54389171251656" lon="11.564249691643283"><ele>140.0</ele><time>2026-04-25T13:33:16.968Z</time></trkpt><trkpt lat="43.54373427119845" lon="11.564480187495757"><ele>140.0</ele><time>2026-04-25T13:33:17.968Z</time></trkpt><trkpt lat="43.5435751472721" lon="11.564709298187001"><ele>139.0</ele><time>2026-04-25T13:33:18.968Z</time></trkpt><trkpt lat="43.543416157939795" lon="11.564940658645698"><ele>138.0</ele><time>2026-04-25T13:33:19.968Z</time></trkpt><trkpt lat="43.54326096420611" lon="11.56517199006204"><ele>137.0</ele><time>2026-04-25T13:33:20.968Z</time></trkpt><trkpt lat="43.54310371881901" lon="11.565401951111413"><ele>136.0</ele><time>2026-04-25T13:33:21.968Z</time></trkpt><trkpt lat="43.5429427843235" lon="11.565628578094755"><ele>136.5</ele><time>2026-04-25T13:33:22.968Z</time></trkpt><trkpt lat="43.54278072725102" lon="11.565855845406904"><ele>137.0</ele><time>2026-04-25T13:33:23.968Z</time></trkpt><trkpt lat="43.542618711846025" lon="11.566087064036374"><ele>137.5</ele><time>2026-04-25T13:33:24.968Z</time></trkpt><trkpt lat="43.54245793021858" lon="11.566320499944426"><ele>138.0</ele><time>2026-04-25T13:33:25.968Z</time></trkpt><trkpt lat="43.54229743784153" lon="11.5665539529492"><ele>138.0</ele><time>2026-04-25T13:33:26.968Z</time></trkpt><trkpt lat="43.542139200055836" lon="11.566789289914746"><ele>138.0</ele><time>2026-04-25T13:33:27.968Z</time></trkpt><trkpt lat="43.54197913213598" lon="11.567026507396513"><ele>139.5</ele><time>2026-04-25T13:33:28.968Z</time></trkpt><trkpt lat="43.541817291808115" lon="11.567262341388096"><ele>141.0</ele><time>2026-04-25T13:33:29.968Z</time></trkpt><trkpt lat="43.54165393405676" lon="11.567498709793115"><ele>141.0</ele><time>2026-04-25T13:33:30.968Z</time></trkpt><trkpt lat="43.54148972440895" lon="11.567732735314877"><ele>141.0</ele><time>2026-04-25T13:33:31.968Z</time></trkpt><trkpt lat="43.541323440765304" lon="11.56797445603191"><ele>139.5</ele><time>2026-04-25T13:33:32.968Z</time></trkpt><trkpt lat="43.541159142518374" lon="11.568213172105061"><ele>138.0</ele><time>2026-04-25T13:33:33.968Z</time></trkpt><trkpt lat="43.540991718423214" lon="11.568452168660372"><ele>139.5</ele><time>2026-04-25T13:33:34.968Z</time></trkpt><trkpt lat="43.54082873694829" lon="11.568694452630556"><ele>141.0</ele><time>2026-04-25T13:33:35.968Z</time></trkpt><trkpt lat="43.54066544006314" lon="11.56893814297006"><ele>141.0</ele><time>2026-04-25T13:33:36.968Z</time></trkpt><trkpt lat="43.54049803443035" lon="11.56917438375212"><ele>141.0</ele><time>2026-04-25T13:33:37.968Z</time></trkpt><trkpt lat="43.5403316353575" lon="11.569416896161513"><ele>140.5</ele><time>2026-04-25T13:33:38.968Z</time></trkpt><trkpt lat="43.540164303570414" lon="11.5696627665111"><ele>140.0</ele><time>2026-04-25T13:33:39.968Z</time></trkpt><trkpt lat="43.54000251214478" lon="11.569909473051906"><ele>140.0</ele><time>2026-04-25T13:33:40.968Z</time></trkpt><trkpt lat="43.53983872367268" lon="11.57015087359187"><ele>140.0</ele><time>2026-04-25T13:33:41.968Z</time></trkpt><trkpt lat="43.539673986751694" lon="11.570396185417025"><ele>139.0</ele><time>2026-04-25T13:33:42.968Z</time></trkpt><trkpt lat="43.53951370775186" lon="11.570642978244223"><ele>138.0</ele><time>2026-04-25T13:33:43.968Z</time></trkpt><trkpt lat="43.5393520326323" lon="11.570896355962006"><ele>138.0</ele><time>2026-04-25T13:33:44.968Z</time></trkpt><trkpt lat="43.53919252483945" lon="11.571148964616121"><ele>138.0</ele><time>2026-04-25T13:33:45.968Z</time></trkpt><trkpt lat="43.53902922858054" lon="11.571402100812277"><ele>138.5</ele><time>2026-04-25T13:33:46.968Z</time></trkpt><trkpt lat="43.538868496571865" lon="11.571663057369761"><ele>139.0</ele><time>2026-04-25T13:33:47.968Z</time></trkpt><trkpt lat="43.538708281387585" lon="11.571923978646842"><ele>140.5</ele><time>2026-04-25T13:33:48.968Z</time></trkpt><trkpt lat="43.538546572659506" lon="11.572184466501955"><ele>142.0</ele><time>2026-04-25T13:33:49.968Z</time></trkpt><trkpt lat="43.53838891260409" lon="11.572447722489414"><ele>142.0</ele><time>2026-04-25T13:33:50.968Z</time></trkpt><trkpt lat="43.53823180134313" lon="11.572713773248045"><ele>142.0</ele><time>2026-04-25T13:33:51.968Z</time></trkpt><trkpt lat="43.5380774166552" lon="11.572981651209124"><ele>142.0</ele><time>2026-04-25T13:33:52.968Z</time></trkpt><trkpt lat="43.53792537664598" lon="11.573249404050788"><ele>142.0</ele><time>2026-04-25T13:33:53.968Z</time></trkpt><trkpt lat="43.53777423811096" lon="11.573517903496098"><ele>142.5</ele><time>2026-04-25T13:33:54.968Z</time></trkpt><trkpt lat="43.53762380766227" lon="11.57378964324756"><ele>143.0</ele><time>2026-04-25T13:33:55.968Z</time></trkpt><trkpt lat="43.53747263047465" lon="11.574059910037919"><ele>143.0</ele><time>2026-04-25T13:33:56.968Z</time></trkpt><trkpt lat="43.53732231457141" lon="11.57433160297869"><ele>143.0</ele><time>2026-04-25T13:33:57.968Z</time></trkpt><trkpt lat="43.53717247685873" lon="11.574604126427007"><ele>143.0</ele><time>2026-04-25T13:33:58.968Z</time></trkpt><trkpt lat="43.53702040635511" lon="11.574875153517937"><ele>143.0</ele><time>2026-04-25T13:33:59.968Z</time></trkpt><trkpt lat="43.53687028894873" lon="11.57514627595439"><ele>142.0</ele><time>2026-04-25T13:34:00.968Z</time></trkpt><trkpt lat="43.53672113002041" lon="11.575415348684155"><ele>141.0</ele><time>2026-04-25T13:34:01.968Z</time></trkpt><trkpt lat="43.536571769628125" lon="11.575687100434532"><ele>141.0</ele><time>2026-04-25T13:34:02.968Z</time></trkpt><trkpt lat="43.53642175407114" lon="11.57595763119613"><ele>141.0</ele><time>2026-04-25T13:34:03.968Z</time></trkpt><trkpt lat="43.5362733993953" lon="11.576229781956455"><ele>141.0</ele><time>2026-04-25T13:34:04.968Z</time></trkpt><trkpt lat="43.536123384838184" lon="11.576502645230693"><ele>141.0</ele><time>2026-04-25T13:34:05.968Z</time></trkpt><trkpt lat="43.535973724713116" lon="11.576769852699865"><ele>141.0</ele><time>2026-04-25T13:34:06.968Z</time></trkpt><trkpt lat="43.535825579720616" lon="11.577038951209905"><ele>141.0</ele><time>2026-04-25T13:34:07.968Z</time></trkpt><trkpt lat="43.53567650904254" lon="11.57730556806271"><ele>141.0</ele><time>2026-04-25T13:34:08.968Z</time></trkpt><trkpt lat="43.53552615498858" lon="11.577573640699802"><ele>141.0</ele><time>2026-04-25T13:34:09.968Z</time></trkpt><trkpt lat="43.535377030838525" lon="11.577842732392405"><ele>140.5</ele><time>2026-04-25T13:34:10.968Z</time></trkpt><trkpt lat="43.5352284362484" lon="11.578110812919139"><ele>140.0</ele><time>2026-04-25T13:34:11.969Z</time></trkpt><trkpt lat="43.53507856587512" lon="11.578380567286239"><ele>140.0</ele><time>2026-04-25T13:34:12.969Z</time></trkpt><trkpt lat="43.53492798333506" lon="11.578648611441105"><ele>140.0</ele><time>2026-04-25T13:34:13.969Z</time></trkpt><trkpt lat="43.53477915815782" lon="11.57892005084905"><ele>140.5</ele><time>2026-04-25T13:34:14.969Z</time></trkpt><trkpt lat="43.53463153580013" lon="11.579189447070235"><ele>141.0</ele><time>2026-04-25T13:34:15.969Z</time></trkpt><trkpt lat="43.534483662569365" lon="11.579460166859928"><ele>142.5</ele><time>2026-04-25T13:34:16.969Z</time></trkpt><trkpt lat="43.534334365727965" lon="11.579729349394945"><ele>144.0</ele><time>2026-04-25T13:34:17.969Z</time></trkpt><trkpt lat="43.53418564469787" lon="11.579996854285598"><ele>144.0</ele><time>2026-04-25T13:34:18.969Z</time></trkpt><trkpt lat="43.53403783768633" lon="11.580268441218594"><ele>144.0</ele><time>2026-04-25T13:34:19.969Z</time></trkpt><trkpt lat="43.5338900823556" lon="11.580539025412946"><ele>143.5</ele><time>2026-04-25T13:34:20.969Z</time></trkpt><trkpt lat="43.53374228704928" lon="11.580809274751164"><ele>143.0</ele><time>2026-04-25T13:34:21.969Z</time></trkpt><trkpt lat="43.53359191985078" lon="11.581077241000708"><ele>142.0</ele><time>2026-04-25T13:34:22.969Z</time></trkpt><trkpt lat="43.5334428787541" lon="11.58134517585386"><ele>141.0</ele><time>2026-04-25T13:34:23.969Z</time></trkpt><trkpt lat="43.533291233205524" lon="11.58161237123224"><ele>141.0</ele><time>2026-04-25T13:34:24.969Z</time></trkpt><trkpt lat="43.533140879714416" lon="11.581878295140017"><ele>141.0</ele><time>2026-04-25T13:34:25.969Z</time></trkpt><trkpt lat="43.53299233712143" lon="11.582145899612101"><ele>141.0</ele><time>2026-04-25T13:34:26.969Z</time></trkpt><trkpt lat="43.53284379392888" lon="11.582414345651394"><ele>141.0</ele><time>2026-04-25T13:34:27.967Z</time></trkpt><trkpt lat="43.53269474649639" lon="11.582684446614902"><ele>142.0</ele><time>2026-04-25T13:34:28.966Z</time></trkpt><trkpt lat="43.53254485937259" lon="11.582953317828581"><ele>143.0</ele><time>2026-04-25T13:34:29.966Z</time></trkpt><trkpt lat="43.532393899638286" lon="11.583220136647803"><ele>143.0</ele><time>2026-04-25T13:34:30.967Z</time></trkpt><trkpt lat="43.53224200848998" lon="11.583484873220137"><ele>143.0</ele><time>2026-04-25T13:34:31.966Z</time></trkpt><trkpt lat="43.53209293213868" lon="11.583747245894452"><ele>141.5</ele><time>2026-04-25T13:34:32.966Z</time></trkpt><trkpt lat="43.531947165341045" lon="11.584008781317984"><ele>140.0</ele><time>2026-04-25T13:34:33.966Z</time></trkpt><trkpt lat="43.53180090587313" lon="11.58427248848652"><ele>142.0</ele><time>2026-04-25T13:34:34.966Z</time></trkpt><trkpt lat="43.53165559564687" lon="11.58453740791964"><ele>144.0</ele><time>2026-04-25T13:34:35.966Z</time></trkpt><trkpt lat="43.53151175714604" lon="11.584807319889906"><ele>144.0</ele><time>2026-04-25T13:34:36.966Z</time></trkpt><trkpt lat="43.53136323891803" lon="11.585070981950079"><ele>144.0</ele><time>2026-04-25T13:34:37.967Z</time></trkpt><trkpt lat="43.53121544469496" lon="11.585333922136615"><ele>143.5</ele><time>2026-04-25T13:34:38.967Z</time></trkpt><trkpt lat="43.53106771920772" lon="11.58559943879891"><ele>143.0</ele><time>2026-04-25T13:34:39.967Z</time></trkpt><trkpt lat="43.53091727217331" lon="11.585863408394639"><ele>143.0</ele><time>2026-04-25T13:34:40.967Z</time></trkpt><trkpt lat="43.53076785778788" lon="11.58612960775649"><ele>143.0</ele><time>2026-04-25T13:34:41.967Z</time></trkpt><trkpt lat="43.530620661803376" lon="11.58639616592227"><ele>143.0</ele><time>2026-04-25T13:34:42.967Z</time></trkpt><trkpt lat="43.53047269391817" lon="11.586658135472451"><ele>143.0</ele><time>2026-04-25T13:34:43.967Z</time></trkpt><trkpt lat="43.53032874414011" lon="11.586927273762576"><ele>144.0</ele><time>2026-04-25T13:34:44.967Z</time></trkpt><trkpt lat="43.530181015910046" lon="11.587203466168514"><ele>145.0</ele><time>2026-04-25T13:34:45.967Z</time></trkpt><trkpt lat="43.53003366287378" lon="11.587470255115884"><ele>145.0</ele><time>2026-04-25T13:34:46.967Z</time></trkpt><trkpt lat="43.529879541584634" lon="11.587742496046316"><ele>145.0</ele><time>2026-04-25T13:34:47.967Z</time></trkpt><trkpt lat="43.52972451788155" lon="11.58801368839396"><ele>145.0</ele><time>2026-04-25T13:34:48.967Z</time></trkpt><trkpt lat="43.52957116411845" lon="11.58828657242415"><ele>145.0</ele><time>2026-04-25T13:34:49.967Z</time></trkpt><trkpt lat="43.52941676000888" lon="11.588560569234918"><ele>145.5</ele><time>2026-04-25T13:34:50.967Z</time></trkpt><trkpt lat="43.5292630603681" lon="11.588834927417183"><ele>146.0</ele><time>2026-04-25T13:34:51.967Z</time></trkpt><trkpt lat="43.52910764592103" lon="11.589115103722614"><ele>146.0</ele><time>2026-04-25T13:34:52.967Z</time></trkpt><trkpt lat="43.52895396155148" lon="11.589392673433672"><ele>146.0</ele><time>2026-04-25T13:34:53.967Z</time></trkpt><trkpt lat="43.5287999008938" lon="11.58966876609102"><ele>143.5</ele><time>2026-04-25T13:34:54.967Z</time></trkpt><trkpt lat="43.5286436132032" lon="11.589949167548937"><ele>141.0</ele><time>2026-04-25T13:34:55.967Z</time></trkpt><trkpt lat="43.52848786765597" lon="11.590228917260287"><ele>142.0</ele><time>2026-04-25T13:34:56.967Z</time></trkpt><trkpt lat="43.52833393580925" lon="11.590507447455163"><ele>143.0</ele><time>2026-04-25T13:34:57.967Z</time></trkpt><trkpt lat="43.52817931072983" lon="11.590786120245756"><ele>143.0</ele><time>2026-04-25T13:34:58.967Z</time></trkpt><trkpt lat="43.528026263196246" lon="11.591063093978748"><ele>143.0</ele><time>2026-04-25T13:34:59.967Z</time></trkpt><trkpt lat="43.527871595217306" lon="11.591341058479005"><ele>143.5</ele><time>2026-04-25T13:35:00.967Z</time></trkpt><trkpt lat="43.52771796837654" lon="11.591617489785154"><ele>144.0</ele><time>2026-04-25T13:35:01.967Z</time></trkpt><trkpt lat="43.527565525924985" lon="11.591893363890362"><ele>145.0</ele><time>2026-04-25T13:35:02.967Z</time></trkpt><trkpt lat="43.52741491943634" lon="11.592164868613686"><ele>146.0</ele><time>2026-04-25T13:35:03.967Z</time></trkpt><trkpt lat="43.52726382249924" lon="11.592438389902282"><ele>146.0</ele><time>2026-04-25T13:35:04.967Z</time></trkpt><trkpt lat="43.52711360317045" lon="11.592709824646315"><ele>146.0</ele><time>2026-04-25T13:35:05.967Z</time></trkpt><trkpt lat="43.526961595953296" lon="11.592977719724033"><ele>145.5</ele><time>2026-04-25T13:35:06.967Z</time></trkpt><trkpt lat="43.526809091855924" lon="11.593246504159328"><ele>145.0</ele><time>2026-04-25T13:35:07.967Z</time></trkpt><trkpt lat="43.526657757244685" lon="11.59352151321072"><ele>145.5</ele><time>2026-04-25T13:35:08.967Z</time></trkpt><trkpt lat="43.52650415739737" lon="11.593791538962607"><ele>146.0</ele><time>2026-04-25T13:35:09.967Z</time></trkpt><trkpt lat="43.52635316720446" lon="11.594063230690555"><ele>145.5</ele><time>2026-04-25T13:35:10.967Z</time></trkpt><trkpt lat="43.526203275067324" lon="11.594332580157852"><ele>145.0</ele><time>2026-04-25T13:35:11.967Z</time></trkpt><trkpt lat="43.52605607961009" lon="11.594603625103266"><ele>145.0</ele><time>2026-04-25T13:35:12.967Z</time></trkpt><trkpt lat="43.52591005634106" lon="11.59487056445318"><ele>145.0</ele><time>2026-04-25T13:35:13.967Z</time></trkpt><trkpt lat="43.52576151535729" lon="11.595142367096493"><ele>145.0</ele><time>2026-04-25T13:35:14.967Z</time></trkpt><trkpt lat="43.52561367444889" lon="11.595413427735354"><ele>145.0</ele><time>2026-04-25T13:35:15.967Z</time></trkpt><trkpt lat="43.5254670759485" lon="11.595686009088062"><ele>145.0</ele><time>2026-04-25T13:35:16.967Z</time></trkpt><trkpt lat="43.525318739525275" lon="11.595960669184466"><ele>145.0</ele><time>2026-04-25T13:35:17.967Z</time></trkpt><trkpt lat="43.5251710184462" lon="11.596236638116968"><ele>145.0</ele><time>2026-04-25T13:35:18.967Z</time></trkpt><trkpt lat="43.52502178529932" lon="11.596512134844554"><ele>145.0</ele><time>2026-04-25T13:35:19.967Z</time></trkpt><trkpt lat="43.524869484288196" lon="11.596787597458373"><ele>144.0</ele><time>2026-04-25T13:35:20.967Z</time></trkpt><trkpt lat="43.524714389703654" lon="11.59706122766796"><ele>143.0</ele><time>2026-04-25T13:35:21.967Z</time></trkpt><trkpt lat="43.52455915820456" lon="11.597333931816877"><ele>143.0</ele><time>2026-04-25T13:35:22.967Z</time></trkpt><trkpt lat="43.52440174122816" lon="11.59760754679085"><ele>143.0</ele><time>2026-04-25T13:35:23.967Z</time></trkpt><trkpt lat="43.52424425242618" lon="11.597884247113338"><ele>145.0</ele><time>2026-04-25T13:35:24.967Z</time></trkpt><trkpt lat="43.524088670151436" lon="11.598159801775662"><ele>147.0</ele><time>2026-04-25T13:35:25.967Z</time></trkpt><trkpt lat="43.52393174695577" lon="11.598436574142596"><ele>146.0</ele><time>2026-04-25T13:35:26.967Z</time></trkpt><trkpt lat="43.523774907170235" lon="11.59871318378221"><ele>145.0</ele><time>2026-04-25T13:35:27.967Z</time></trkpt><trkpt lat="43.52361933643488" lon="11.598990390436947"><ele>144.5</ele><time>2026-04-25T13:35:28.967Z</time></trkpt><trkpt lat="43.523463720981376" lon="11.59926851764324"><ele>144.0</ele><time>2026-04-25T13:35:29.967Z</time></trkpt><trkpt lat="43.5233047213339" lon="11.599550083652389"><ele>145.5</ele><time>2026-04-25T13:35:30.967Z</time></trkpt><trkpt lat="43.52314316251769" lon="11.59982975206688"><ele>147.0</ele><time>2026-04-25T13:35:31.967Z</time></trkpt><trkpt lat="43.52297846503719" lon="11.600109825111556"><ele>146.0</ele><time>2026-04-25T13:35:32.967Z</time></trkpt><trkpt lat="43.522812627588124" lon="11.600389311351211"><ele>145.0</ele><time>2026-04-25T13:35:33.967Z</time></trkpt><trkpt lat="43.52264921532868" lon="11.600667732030058"><ele>145.0</ele><time>2026-04-25T13:35:34.967Z</time></trkpt><trkpt lat="43.5224845515405" lon="11.60094205793014"><ele>145.0</ele><time>2026-04-25T13:35:35.967Z</time></trkpt><trkpt lat="43.52231720294326" lon="11.601219934054672"><ele>146.0</ele><time>2026-04-25T13:35:36.967Z</time></trkpt><trkpt lat="43.52215159476903" lon="11.601497528161852"><ele>147.0</ele><time>2026-04-25T13:35:37.967Z</time></trkpt><trkpt lat="43.52198490045008" lon="11.601774912307048"><ele>146.0</ele><time>2026-04-25T13:35:38.967Z</time></trkpt><trkpt lat="43.52181815742618" lon="11.602053704236896"><ele>145.0</ele><time>2026-04-25T13:35:39.967Z</time></trkpt><trkpt lat="43.521651910730206" lon="11.602333352866374"><ele>145.0</ele><time>2026-04-25T13:35:40.967Z</time></trkpt><trkpt lat="43.5214855619852" lon="11.60260522714257"><ele>145.0</ele><time>2026-04-25T13:35:41.967Z</time></trkpt><trkpt lat="43.5213200976952" lon="11.602878290501721"><ele>146.5</ele><time>2026-04-25T13:35:42.967Z</time></trkpt><trkpt lat="43.52115478454268" lon="11.603152009213668"><ele>148.0</ele><time>2026-04-25T13:35:43.967Z</time></trkpt><trkpt lat="43.52099217449216" lon="11.603424971816457"><ele>148.0</ele><time>2026-04-25T13:35:44.967Z</time></trkpt><trkpt lat="43.52083053122008" lon="11.603698162424589"><ele>148.0</ele><time>2026-04-25T13:35:45.967Z</time></trkpt><trkpt lat="43.520668891652676" lon="11.60396960049432"><ele>148.0</ele><time>2026-04-25T13:35:46.967Z</time></trkpt><trkpt lat="43.52050390772793" lon="11.604239989770997"><ele>148.0</ele><time>2026-04-25T13:35:47.967Z</time></trkpt><trkpt lat="43.5203387886177" lon="11.604508663917738"><ele>147.5</ele><time>2026-04-25T13:35:48.967Z</time></trkpt><trkpt lat="43.52017139590166" lon="11.604783810090208"><ele>147.0</ele><time>2026-04-25T13:35:49.967Z</time></trkpt><trkpt lat="43.520004432809515" lon="11.605057768763418"><ele>148.0</ele><time>2026-04-25T13:35:50.967Z</time></trkpt><trkpt lat="43.5198367331165" lon="11.605338095590897"><ele>149.0</ele><time>2026-04-25T13:35:51.967Z</time></trkpt><trkpt lat="43.51966987395025" lon="11.605618152440043"><ele>149.0</ele><time>2026-04-25T13:35:52.967Z</time></trkpt><trkpt lat="43.51950340474605" lon="11.605896984700015"><ele>149.0</ele><time>2026-04-25T13:35:53.967Z</time></trkpt><trkpt lat="43.519337618164975" lon="11.606179984010556"><ele>149.0</ele><time>2026-04-25T13:35:54.967Z</time></trkpt><trkpt lat="43.5191709566235" lon="11.606459669528208"><ele>149.0</ele><time>2026-04-25T13:35:55.967Z</time></trkpt><trkpt lat="43.51900110818366" lon="11.606740216966022"><ele>148.0</ele><time>2026-04-25T13:35:56.967Z</time></trkpt><trkpt lat="43.518833413274756" lon="11.607022722051143"><ele>147.0</ele><time>2026-04-25T13:35:57.967Z</time></trkpt><trkpt lat="43.518663922347066" lon="11.607306558222875"><ele>147.0</ele><time>2026-04-25T13:35:58.967Z</time></trkpt><trkpt lat="43.51849343437782" lon="11.607594224438548"><ele>147.0</ele><time>2026-04-25T13:35:59.967Z</time></trkpt><trkpt lat="43.518324198206685" lon="11.607877096039221"><ele>148.5</ele><time>2026-04-25T13:36:00.967Z</time></trkpt><trkpt lat="43.5181554685905" lon="11.60815810876512"><ele>150.0</ele><time>2026-04-25T13:36:01.967Z</time></trkpt><trkpt lat="43.5179833865595" lon="11.608437768614579"><ele>150.5</ele><time>2026-04-25T13:36:02.967Z</time></trkpt><trkpt lat="43.51781484487038" lon="11.608714871704967"><ele>151.0</ele><time>2026-04-25T13:36:03.967Z</time></trkpt><trkpt lat="43.517646176916635" lon="11.608992225988903"><ele>151.0</ele><time>2026-04-25T13:36:04.967Z</time></trkpt><trkpt lat="43.517479716444704" lon="11.60927313603196"><ele>151.0</ele><time>2026-04-25T13:36:05.967Z</time></trkpt><trkpt lat="43.51731641787814" lon="11.609554902612944"><ele>152.0</ele><time>2026-04-25T13:36:06.967Z</time></trkpt><trkpt lat="43.51715501565789" lon="11.609837343485554"><ele>153.0</ele><time>2026-04-25T13:36:07.967Z</time></trkpt><trkpt lat="43.51699676097938" lon="11.61012231925911"><ele>152.0</ele><time>2026-04-25T13:36:08.967Z</time></trkpt><trkpt lat="43.51684274127884" lon="11.610410853211794"><ele>151.0</ele><time>2026-04-25T13:36:09.967Z</time></trkpt><trkpt lat="43.5166962090051" lon="11.610702328356679"><ele>151.0</ele><time>2026-04-25T13:36:10.967Z</time></trkpt><trkpt lat="43.51655329595454" lon="11.610995859861383"><ele>151.0</ele><time>2026-04-25T13:36:11.967Z</time></trkpt><trkpt lat="43.51641351106573" lon="11.61129401568034"><ele>152.0</ele><time>2026-04-25T13:36:12.967Z</time></trkpt><trkpt lat="43.516279143870776" lon="11.611598164202086"><ele>153.0</ele><time>2026-04-25T13:36:13.967Z</time></trkpt><trkpt lat="43.516153425401356" lon="11.611902784191187"><ele>150.5</ele><time>2026-04-25T13:36:14.967Z</time></trkpt><trkpt lat="43.51603019186361" lon="11.61221150424039"><ele>148.0</ele><time>2026-04-25T13:36:15.967Z</time></trkpt><trkpt lat="43.51591198088857" lon="11.61252426298373"><ele>149.0</ele><time>2026-04-25T13:36:16.967Z</time></trkpt><trkpt lat="43.51579722312826" lon="11.612838083706537"><ele>150.0</ele><time>2026-04-25T13:36:17.967Z</time></trkpt><trkpt lat="43.51568720255989" lon="11.613153665766342"><ele>150.0</ele><time>2026-04-25T13:36:18.967Z</time></trkpt><trkpt lat="43.51558567556171" lon="11.613465602663146"><ele>150.0</ele><time>2026-04-25T13:36:19.967Z</time></trkpt><trkpt lat="43.51548671181061" lon="11.613773584031792"><ele>148.0</ele><time>2026-04-25T13:36:20.967Z</time></trkpt><trkpt lat="43.515395501117595" lon="11.614086896117946"><ele>146.0</ele><time>2026-04-25T13:36:21.967Z</time></trkpt><trkpt lat="43.515309457868184" lon="11.61440697315649"><ele>146.5</ele><time>2026-04-25T13:36:22.967Z</time></trkpt><trkpt lat="43.515229098162415" lon="11.614735751713397"><ele>147.0</ele><time>2026-04-25T13:36:23.967Z</time></trkpt><trkpt lat="43.51515337995801" lon="11.615071898231127"><ele>147.0</ele><time>2026-04-25T13:36:24.967Z</time></trkpt><trkpt lat="43.51507870469931" lon="11.615412898530044"><ele>147.0</ele><time>2026-04-25T13:36:25.967Z</time></trkpt><trkpt lat="43.5150099863579" lon="11.615760859495792"><ele>147.0</ele><time>2026-04-25T13:36:26.967Z</time></trkpt><trkpt lat="43.51494555508331" lon="11.616117725771282"><ele>147.0</ele><time>2026-04-25T13:36:27.967Z</time></trkpt><trkpt lat="43.51488469376201" lon="11.616477407493395"><ele>148.5</ele><time>2026-04-25T13:36:28.967Z</time></trkpt><trkpt lat="43.514828044081725" lon="11.616839750779144"><ele>150.0</ele><time>2026-04-25T13:36:29.967Z</time></trkpt><trkpt lat="43.5147778097249" lon="11.617202731978898"><ele>152.0</ele><time>2026-04-25T13:36:30.967Z</time></trkpt><trkpt lat="43.51473427132389" lon="11.617565776316823"><ele>154.0</ele><time>2026-04-25T13:36:31.967Z</time></trkpt><trkpt lat="43.51469933499479" lon="11.617925180624923"><ele>154.5</ele><time>2026-04-25T13:36:32.967Z</time></trkpt><trkpt lat="43.514671084635985" lon="11.618286519501922"><ele>155.0</ele><time>2026-04-25T13:36:33.965Z</time></trkpt><trkpt lat="43.51464752861269" lon="11.618647270431639"><ele>154.5</ele><time>2026-04-25T13:36:34.965Z</time></trkpt><trkpt lat="43.51462955705305" lon="11.619005207371634"><ele>154.0</ele><time>2026-04-25T13:36:35.965Z</time></trkpt><trkpt lat="43.514615225918895" lon="11.619360178478855"><ele>154.0</ele><time>2026-04-25T13:36:36.965Z</time></trkpt><trkpt lat="43.51460088769573" lon="11.619709779214702"><ele>154.0</ele><time>2026-04-25T13:36:37.965Z</time></trkpt><trkpt lat="43.51458826513435" lon="11.62004757782832"><ele>155.5</ele><time>2026-04-25T13:36:38.965Z</time></trkpt><trkpt lat="43.51457690227969" lon="11.620372958031433"><ele>157.0</ele><time>2026-04-25T13:36:39.965Z</time></trkpt><trkpt lat="43.51456584568216" lon="11.620697276339499"><ele>151.5</ele><time>2026-04-25T13:36:40.964Z</time></trkpt><trkpt lat="43.51455363871596" lon="11.6210190378835"><ele>146.0</ele><time>2026-04-25T13:36:41.964Z</time></trkpt><trkpt lat="43.514538133744836" lon="11.621339179231265"><ele>145.5</ele><time>2026-04-25T13:36:42.965Z</time></trkpt><trkpt lat="43.51451739684947" lon="11.62165909793676"><ele>145.0</ele><time>2026-04-25T13:36:43.965Z</time></trkpt><trkpt lat="43.514501303937756" lon="11.621975298917036"><ele>145.0</ele><time>2026-04-25T13:36:44.965Z</time></trkpt><trkpt lat="43.51448667178021" lon="11.62228766656206"><ele>145.0</ele><time>2026-04-25T13:36:45.964Z</time></trkpt><trkpt lat="43.514474286625514" lon="11.622603720864367"><ele>145.5</ele><time>2026-04-25T13:36:46.964Z</time></trkpt><trkpt lat="43.51446215054254" lon="11.622917329289868"><ele>146.0</ele><time>2026-04-25T13:36:47.964Z</time></trkpt><trkpt lat="43.51444415620201" lon="11.623231010248244"><ele>146.0</ele><time>2026-04-25T13:36:48.964Z</time></trkpt><trkpt lat="43.51443215087442" lon="11.62354074852439"><ele>146.0</ele><time>2026-04-25T13:36:49.964Z</time></trkpt><trkpt lat="43.514419357606805" lon="11.623851057629015"><ele>146.0</ele><time>2026-04-25T13:36:50.964Z</time></trkpt><trkpt lat="43.51440412747168" lon="11.624162617116102"><ele>146.0</ele><time>2026-04-25T13:36:51.964Z</time></trkpt><trkpt lat="43.51439111615951" lon="11.624469234043945"><ele>146.0</ele><time>2026-04-25T13:36:52.964Z</time></trkpt><trkpt lat="43.51437245196248" lon="11.624779738063504"><ele>146.0</ele><time>2026-04-25T13:36:53.964Z</time></trkpt><trkpt lat="43.51436068335399" lon="11.625092591016063"><ele>146.0</ele><time>2026-04-25T13:36:54.964Z</time></trkpt><trkpt lat="43.51434791482377" lon="11.625414397280776"><ele>146.0</ele><time>2026-04-25T13:36:55.964Z</time></trkpt><trkpt lat="43.51433239643544" lon="11.625742745267129"><ele>146.0</ele><time>2026-04-25T13:36:56.964Z</time></trkpt><trkpt lat="43.51432028365146" lon="11.62607559338116"><ele>148.5</ele><time>2026-04-25T13:36:57.964Z</time></trkpt><trkpt lat="43.514305983448075" lon="11.626408940156454"><ele>151.0</ele><time>2026-04-25T13:36:58.964Z</time></trkpt><trkpt lat="43.51428993174676" lon="11.626742965408077"><ele>155.5</ele><time>2026-04-25T13:36:59.964Z</time></trkpt><trkpt lat="43.51427556415397" lon="11.627074861337112"><ele>160.0</ele><time>2026-04-25T13:37:00.964Z</time></trkpt><trkpt lat="43.51425971478572" lon="11.62740146897199"><ele>160.0</ele><time>2026-04-25T13:37:01.964Z</time></trkpt><trkpt lat="43.51424713416034" lon="11.627727191141672"><ele>160.0</ele><time>2026-04-25T13:37:02.964Z</time></trkpt><trkpt lat="43.51424094507043" lon="11.628052535658387"><ele>164.0</ele><time>2026-04-25T13:37:03.964Z</time></trkpt><trkpt lat="43.51424904810859" lon="11.62837508749493"><ele>168.0</ele><time>2026-04-25T13:37:04.964Z</time></trkpt><trkpt lat="43.514276380497535" lon="11.62870383280514"><ele>171.5</ele><time>2026-04-25T13:37:05.964Z</time></trkpt><trkpt lat="43.51431816039918" lon="11.629035472106233"><ele>175.0</ele><time>2026-04-25T13:37:06.964Z</time></trkpt><trkpt lat="43.51438065606435" lon="11.62936886068944"><ele>176.5</ele><time>2026-04-25T13:37:07.964Z</time></trkpt><trkpt lat="43.514465279198376" lon="11.629692244709586"><ele>178.0</ele><time>2026-04-25T13:37:08.964Z</time></trkpt><trkpt lat="43.514561564394434" lon="11.63001208461425"><ele>184.5</ele><time>2026-04-25T13:37:09.964Z</time></trkpt><trkpt lat="43.514656919151975" lon="11.630336636337596"><ele>191.0</ele><time>2026-04-25T13:37:10.964Z</time></trkpt><trkpt lat="43.51474654233999" lon="11.63065853693118"><ele>191.0</ele><time>2026-04-25T13:37:11.964Z</time></trkpt><trkpt lat="43.5148355524281" lon="11.63097836045974"><ele>191.0</ele><time>2026-04-25T13:37:12.964Z</time></trkpt><trkpt lat="43.514913904675886" lon="11.63128801095819"><ele>187.5</ele><time>2026-04-25T13:37:13.964Z</time></trkpt><trkpt lat="43.51497845111047" lon="11.631597224769603"><ele>184.0</ele><time>2026-04-25T13:37:14.965Z</time></trkpt><trkpt lat="43.51502919145946" lon="11.631906815138064"><ele>178.5</ele><time>2026-04-25T13:37:15.965Z</time></trkpt><trkpt lat="43.51506963432124" lon="11.632219781574676"><ele>173.0</ele><time>2026-04-25T13:37:16.965Z</time></trkpt><trkpt lat="43.51509978354569" lon="11.632536411780404"><ele>169.5</ele><time>2026-04-25T13:37:17.965Z</time></trkpt><trkpt lat="43.515119753766825" lon="11.632855248846395"><ele>166.0</ele><time>2026-04-25T13:37:18.965Z</time></trkpt><trkpt lat="43.51512639010264" lon="11.633174435926769"><ele>166.0</ele><time>2026-04-25T13:37:19.965Z</time></trkpt><trkpt lat="43.51512331532546" lon="11.63350656784783"><ele>166.0</ele><time>2026-04-25T13:37:20.965Z</time></trkpt><trkpt lat="43.51510751419103" lon="11.633837667800593"><ele>171.0</ele><time>2026-04-25T13:37:21.965Z</time></trkpt><trkpt lat="43.515076417764135" lon="11.634172439002336"><ele>176.0</ele><time>2026-04-25T13:37:22.965Z</time></trkpt><trkpt lat="43.51503105004029" lon="11.63450873134997"><ele>182.5</ele><time>2026-04-25T13:37:23.965Z</time></trkpt><trkpt lat="43.514969143771715" lon="11.63484443860861"><ele>189.0</ele><time>2026-04-25T13:37:24.965Z</time></trkpt><trkpt lat="43.51489347015471" lon="11.635170033196198"><ele>193.0</ele><time>2026-04-25T13:37:25.965Z</time></trkpt><trkpt lat="43.514806879968134" lon="11.63549452664324"><ele>197.0</ele><time>2026-04-25T13:37:26.965Z</time></trkpt><trkpt lat="43.5147022901666" lon="11.63580735990519"><ele>197.0</ele><time>2026-04-25T13:37:27.965Z</time></trkpt><trkpt lat="43.51458923853401" lon="11.636119031492855"><ele>197.0</ele><time>2026-04-25T13:37:28.965Z</time></trkpt><trkpt lat="43.514463380701145" lon="11.636431952707824"><ele>195.0</ele><time>2026-04-25T13:37:29.965Z</time></trkpt><trkpt lat="43.51433500988868" lon="11.636740675417387"><ele>193.0</ele><time>2026-04-25T13:37:30.965Z</time></trkpt><trkpt lat="43.51420898578805" lon="11.637056271745044"><ele>198.0</ele><time>2026-04-25T13:37:31.965Z</time></trkpt><trkpt lat="43.5140764293646" lon="11.637371542226086"><ele>203.0</ele><time>2026-04-25T13:37:32.965Z</time></trkpt><trkpt lat="43.51394645354159" lon="11.637693459396823"><ele>207.0</ele><time>2026-04-25T13:37:33.965Z</time></trkpt><trkpt lat="43.51381703990957" lon="11.638029328576565"><ele>211.0</ele><time>2026-04-25T13:37:34.965Z</time></trkpt><trkpt lat="43.513688013517616" lon="11.638366504438338"><ele>213.5</ele><time>2026-04-25T13:37:35.965Z</time></trkpt><trkpt lat="43.51356543428643" lon="11.638700792430637"><ele>216.0</ele><time>2026-04-25T13:37:36.965Z</time></trkpt><trkpt lat="43.513447376446386" lon="11.639040509008472"><ele>216.0</ele><time>2026-04-25T13:37:37.965Z</time></trkpt><trkpt lat="43.513344901018414" lon="11.639386006801749"><ele>216.0</ele><time>2026-04-25T13:37:38.965Z</time></trkpt><trkpt lat="43.51325643015221" lon="11.639741161805919"><ele>218.5</ele><time>2026-04-25T13:37:39.965Z</time></trkpt><trkpt lat="43.51318509490559" lon="11.640097891620197"><ele>221.0</ele><time>2026-04-25T13:37:40.965Z</time></trkpt><trkpt lat="43.51312209864176" lon="11.640466534809715"><ele>222.0</ele><time>2026-04-25T13:37:41.965Z</time></trkpt><trkpt lat="43.51307076529917" lon="11.640834797138853"><ele>223.0</ele><time>2026-04-25T13:37:42.965Z</time></trkpt><trkpt lat="43.51302134273589" lon="11.641197866003111"><ele>226.0</ele><time>2026-04-25T13:37:43.965Z</time></trkpt><trkpt lat="43.51297192911721" lon="11.641559900513743"><ele>229.0</ele><time>2026-04-25T13:37:44.965Z</time></trkpt><trkpt lat="43.512918570501874" lon="11.641916498985186"><ele>230.5</ele><time>2026-04-25T13:37:45.965Z</time></trkpt><trkpt lat="43.51284890723934" lon="11.64226252793038"><ele>232.0</ele><time>2026-04-25T13:37:46.965Z</time></trkpt><trkpt lat="43.51275945445117" lon="11.64259714348367"><ele>231.5</ele><time>2026-04-25T13:37:47.965Z</time></trkpt><trkpt lat="43.51265253808716" lon="11.642923481037428"><ele>231.0</ele><time>2026-04-25T13:37:48.965Z</time></trkpt><trkpt lat="43.51252774652604" lon="11.643241062071889"><ele>231.0</ele><time>2026-04-25T13:37:49.965Z</time></trkpt><trkpt lat="43.512381700091765" lon="11.643543331628448"><ele>231.0</ele><time>2026-04-25T13:37:50.965Z</time></trkpt><trkpt lat="43.51221857447151" lon="11.643826053841526"><ele>233.0</ele><time>2026-04-25T13:37:51.965Z</time></trkpt><trkpt lat="43.512059139246674" lon="11.644087131715642"><ele>235.0</ele><time>2026-04-25T13:37:52.965Z</time></trkpt><trkpt lat="43.511888748544095" lon="11.644342144608592"><ele>236.5</ele><time>2026-04-25T13:37:53.965Z</time></trkpt><trkpt lat="43.511695043609336" lon="11.644579763383188"><ele>238.0</ele><time>2026-04-25T13:37:54.965Z</time></trkpt><trkpt lat="43.511483127804524" lon="11.644799085237619"><ele>238.0</ele><time>2026-04-25T13:37:55.965Z</time></trkpt><trkpt lat="43.51125890846661" lon="11.645000412123164"><ele>238.0</ele><time>2026-04-25T13:37:56.965Z</time></trkpt><trkpt lat="43.51101651958807" lon="11.645176049168064"><ele>238.0</ele><time>2026-04-25T13:37:57.965Z</time></trkpt><trkpt lat="43.51076756999388" lon="11.645346432599256"><ele>238.0</ele><time>2026-04-25T13:37:58.965Z</time></trkpt><trkpt lat="43.51051921747204" lon="11.645519234641029"><ele>237.5</ele><time>2026-04-25T13:37:59.965Z</time></trkpt><trkpt lat="43.51026608728389" lon="11.645700804705791"><ele>237.0</ele><time>2026-04-25T13:38:00.965Z</time></trkpt><trkpt lat="43.51000715053656" lon="11.645876623664929"><ele>237.0</ele><time>2026-04-25T13:38:01.965Z</time></trkpt><trkpt lat="43.50975592422581" lon="11.64605932307034"><ele>237.0</ele><time>2026-04-25T13:38:02.965Z</time></trkpt><trkpt lat="43.50950863613908" lon="11.646235861686746"><ele>228.0</ele><time>2026-04-25T13:38:03.965Z</time></trkpt><trkpt lat="43.50926841620803" lon="11.64640252083322"><ele>219.0</ele><time>2026-04-25T13:38:04.965Z</time></trkpt><trkpt lat="43.5090403973101" lon="11.646566415981972"><ele>219.0</ele><time>2026-04-25T13:38:05.965Z</time></trkpt><trkpt lat="43.50880991534176" lon="11.64672697801015"><ele>219.0</ele><time>2026-04-25T13:38:06.965Z</time></trkpt><trkpt lat="43.50857617736998" lon="11.6468836201645"><ele>201.5</ele><time>2026-04-25T13:38:07.965Z</time></trkpt><trkpt lat="43.50834453981258" lon="11.647044183777632"><ele>184.0</ele><time>2026-04-25T13:38:08.965Z</time></trkpt><trkpt lat="43.5081117648246" lon="11.647204659921222"><ele>184.5</ele><time>2026-04-25T13:38:09.965Z</time></trkpt><trkpt lat="43.50788162459196" lon="11.647364799696794"><ele>185.0</ele><time>2026-04-25T13:38:10.965Z</time></trkpt><trkpt lat="43.50765034463867" lon="11.647524389763804"><ele>185.0</ele><time>2026-04-25T13:38:11.965Z</time></trkpt><trkpt lat="43.507418854811746" lon="11.647686154458295"><ele>185.0</ele><time>2026-04-25T13:38:12.965Z</time></trkpt><trkpt lat="43.50718532296727" lon="11.647849613457756"><ele>197.0</ele><time>2026-04-25T13:38:13.965Z</time></trkpt><trkpt lat="43.506950116028044" lon="11.648010730682373"><ele>209.0</ele><time>2026-04-25T13:38:14.965Z</time></trkpt><trkpt lat="43.506715834273955" lon="11.648174182889095"><ele>209.0</ele><time>2026-04-25T13:38:15.965Z</time></trkpt><trkpt lat="43.5064822482061" lon="11.648338725191502"><ele>209.0</ele><time>2026-04-25T13:38:16.965Z</time></trkpt><trkpt lat="43.50624846588849" lon="11.648503162027401"><ele>216.5</ele><time>2026-04-25T13:38:17.965Z</time></trkpt><trkpt lat="43.50601527180436" lon="11.648666498660758"><ele>224.0</ele><time>2026-04-25T13:38:18.965Z</time></trkpt><trkpt lat="43.50578046142769" lon="11.648832060496545"><ele>224.0</ele><time>2026-04-25T13:38:19.965Z</time></trkpt><trkpt lat="43.505546554648824" lon="11.648998042434837"><ele>224.0</ele><time>2026-04-25T13:38:20.965Z</time></trkpt><trkpt lat="43.50531332906818" lon="11.649169317640476"><ele>226.5</ele><time>2026-04-25T13:38:21.965Z</time></trkpt><trkpt lat="43.50508078098083" lon="11.649349951378154"><ele>229.0</ele><time>2026-04-25T13:38:22.965Z</time></trkpt><trkpt lat="43.504856209802654" lon="11.649542542920434"><ele>229.0</ele><time>2026-04-25T13:38:23.965Z</time></trkpt><trkpt lat="43.504642327431" lon="11.649745341055867"><ele>229.0</ele><time>2026-04-25T13:38:24.965Z</time></trkpt><trkpt lat="43.50443769439002" lon="11.649961065134375"><ele>230.5</ele><time>2026-04-25T13:38:25.965Z</time></trkpt><trkpt lat="43.504238934503306" lon="11.650188467243927"><ele>232.0</ele><time>2026-04-25T13:38:26.965Z</time></trkpt><trkpt lat="43.50404815533409" lon="11.650416120729071"><ele>232.0</ele><time>2026-04-25T13:38:27.965Z</time></trkpt><trkpt lat="43.50386186141669" lon="11.650648988308683"><ele>232.0</ele><time>2026-04-25T13:38:28.965Z</time></trkpt><trkpt lat="43.5036835471767" lon="11.650888916862716"><ele>234.5</ele><time>2026-04-25T13:38:29.965Z</time></trkpt><trkpt lat="43.503506945128166" lon="11.65113319833739"><ele>237.0</ele><time>2026-04-25T13:38:30.965Z</time></trkpt><trkpt lat="43.503338534355755" lon="11.651385996778929"><ele>237.0</ele><time>2026-04-25T13:38:31.965Z</time></trkpt><trkpt lat="43.50318156131902" lon="11.651651760715795"><ele>237.0</ele><time>2026-04-25T13:38:32.965Z</time></trkpt><trkpt lat="43.50302713258223" lon="11.651921078199358"><ele>239.0</ele><time>2026-04-25T13:38:33.965Z</time></trkpt><trkpt lat="43.50287909239244" lon="11.65219694144248"><ele>241.0</ele><time>2026-04-25T13:38:34.965Z</time></trkpt><trkpt lat="43.502731423476476" lon="11.652475144425331"><ele>241.0</ele><time>2026-04-25T13:38:35.965Z</time></trkpt><trkpt lat="43.50257962222081" lon="11.652747869934693"><ele>241.0</ele><time>2026-04-25T13:38:36.965Z</time></trkpt><trkpt lat="43.50242626312653" lon="11.653027344851209"><ele>241.5</ele><time>2026-04-25T13:38:37.965Z</time></trkpt><trkpt lat="43.50227068638076" lon="11.653308519276303"><ele>242.0</ele><time>2026-04-25T13:38:38.965Z</time></trkpt><trkpt lat="43.50211519481457" lon="11.653590022038925"><ele>237.0</ele><time>2026-04-25T13:38:39.963Z</time></trkpt><trkpt lat="43.5019580978372" lon="11.653875107237546"><ele>232.0</ele><time>2026-04-25T13:38:40.963Z</time></trkpt><trkpt lat="43.50180277002172" lon="11.654161434767502"><ele>232.0</ele><time>2026-04-25T13:38:41.963Z</time></trkpt><trkpt lat="43.50164744408004" lon="11.654446294680625"><ele>232.0</ele><time>2026-04-25T13:38:42.963Z</time></trkpt><trkpt lat="43.501492088701646" lon="11.654731844313487"><ele>229.0</ele><time>2026-04-25T13:38:43.963Z</time></trkpt><trkpt lat="43.501332981415544" lon="11.655012873750957"><ele>226.0</ele><time>2026-04-25T13:38:44.963Z</time></trkpt><trkpt lat="43.50117397662962" lon="11.655296878782686"><ele>234.0</ele><time>2026-04-25T13:38:45.963Z</time></trkpt><trkpt lat="43.501016450753205" lon="11.655583217146651"><ele>242.0</ele><time>2026-04-25T13:38:46.963Z</time></trkpt><trkpt lat="43.50086434618632" lon="11.6558701942586"><ele>239.5</ele><time>2026-04-25T13:38:47.963Z</time></trkpt><trkpt lat="43.500718513095364" lon="11.656169950413435"><ele>237.0</ele><time>2026-04-25T13:38:48.963Z</time></trkpt><trkpt lat="43.5005772912114" lon="11.656471559897312"><ele>237.0</ele><time>2026-04-25T13:38:49.963Z</time></trkpt><trkpt lat="43.5004348529124" lon="11.656770633650451"><ele>237.0</ele><time>2026-04-25T13:38:50.963Z</time></trkpt><trkpt lat="43.50029552189031" lon="11.657070380382057"><ele>242.5</ele><time>2026-04-25T13:38:51.962Z</time></trkpt><trkpt lat="43.500156281039075" lon="11.657377526731183"><ele>248.0</ele><time>2026-04-25T13:38:52.963Z</time></trkpt><trkpt lat="43.50002396525381" lon="11.657694728520756"><ele>246.5</ele><time>2026-04-25T13:38:53.963Z</time></trkpt><trkpt lat="43.49990018302498" lon="11.658017503433346"><ele>245.0</ele><time>2026-04-25T13:38:54.963Z</time></trkpt><trkpt lat="43.4997794471001" lon="11.65833817030588"><ele>245.0</ele><time>2026-04-25T13:38:55.963Z</time></trkpt><trkpt lat="43.499658726198156" lon="11.65866143055559"><ele>245.0</ele><time>2026-04-25T13:38:56.963Z</time></trkpt><trkpt lat="43.49953523857683" lon="11.658990745668232"><ele>245.0</ele><time>2026-04-25T13:38:57.963Z</time></trkpt><trkpt lat="43.499412744094684" lon="11.659332171331563"><ele>245.0</ele><time>2026-04-25T13:38:58.963Z</time></trkpt><trkpt lat="43.49928163578506" lon="11.65969180812557"><ele>245.0</ele><time>2026-04-25T13:38:59.963Z</time></trkpt><trkpt lat="43.499144548614005" lon="11.660056377410374"><ele>245.0</ele><time>2026-04-25T13:39:00.963Z</time></trkpt><trkpt lat="43.49901718601493" lon="11.660418825436786"><ele>245.0</ele><time>2026-04-25T13:39:01.963Z</time></trkpt><trkpt lat="43.49888930373146" lon="11.660759524460317"><ele>245.0</ele><time>2026-04-25T13:39:02.963Z</time></trkpt><trkpt lat="43.498767959332994" lon="11.661093794939168"><ele>244.0</ele><time>2026-04-25T13:39:03.963Z</time></trkpt><trkpt lat="43.49864984909031" lon="11.661424784308883"><ele>243.0</ele><time>2026-04-25T13:39:04.963Z</time></trkpt><trkpt lat="43.49853389765344" lon="11.6617488423926"><ele>240.5</ele><time>2026-04-25T13:39:05.963Z</time></trkpt><trkpt lat="43.49841613051521" lon="11.662068398865397"><ele>238.0</ele><time>2026-04-25T13:39:06.963Z</time></trkpt><trkpt lat="43.49829547029304" lon="11.662391023892598"><ele>238.0</ele><time>2026-04-25T13:39:07.963Z</time></trkpt><trkpt lat="43.49816931520652" lon="11.662701305803035"><ele>238.0</ele><time>2026-04-25T13:39:08.963Z</time></trkpt><trkpt lat="43.49803217749117" lon="11.663004216841298"><ele>240.0</ele><time>2026-04-25T13:39:09.963Z</time></trkpt><trkpt lat="43.49788963547432" lon="11.66330465672537"><ele>242.0</ele><time>2026-04-25T13:39:10.963Z</time></trkpt><trkpt lat="43.497735432379585" lon="11.663595780447439"><ele>243.5</ele><time>2026-04-25T13:39:11.963Z</time></trkpt><trkpt lat="43.497573629807015" lon="11.663889533343678"><ele>245.0</ele><time>2026-04-25T13:39:12.963Z</time></trkpt><trkpt lat="43.497410355421366" lon="11.664182825709052"><ele>245.0</ele><time>2026-04-25T13:39:13.963Z</time></trkpt><trkpt lat="43.497241200796836" lon="11.664470810287325"><ele>245.0</ele><time>2026-04-25T13:39:14.963Z</time></trkpt><trkpt lat="43.497066209620286" lon="11.664749405194511"><ele>245.0</ele><time>2026-04-25T13:39:15.963Z</time></trkpt><trkpt lat="43.49688215333832" lon="11.665025332183514"><ele>245.0</ele><time>2026-04-25T13:39:16.963Z</time></trkpt><trkpt lat="43.49668714371122" lon="11.665292915227443"><ele>243.5</ele><time>2026-04-25T13:39:17.963Z</time></trkpt><trkpt lat="43.49648697485301" lon="11.665554838252776"><ele>242.0</ele><time>2026-04-25T13:39:18.963Z</time></trkpt><trkpt lat="43.4962790255086" lon="11.66580377234317"><ele>238.5</ele><time>2026-04-25T13:39:19.963Z</time></trkpt><trkpt lat="43.496068186665376" lon="11.666041206444937"><ele>235.0</ele><time>2026-04-25T13:39:20.963Z</time></trkpt><trkpt lat="43.49585348161453" lon="11.66627333011778"><ele>235.5</ele><time>2026-04-25T13:39:21.963Z</time></trkpt><trkpt lat="43.49563505785301" lon="11.666497952681596"><ele>236.0</ele><time>2026-04-25T13:39:22.963Z</time></trkpt><trkpt lat="43.49541495715624" lon="11.666716533887806"><ele>236.0</ele><time>2026-04-25T13:39:23.963Z</time></trkpt><trkpt lat="43.49519484148946" lon="11.666939502978586"><ele>236.0</ele><time>2026-04-25T13:39:24.963Z</time></trkpt><trkpt lat="43.49497618825331" lon="11.667166766292388"><ele>234.5</ele><time>2026-04-25T13:39:25.963Z</time></trkpt><trkpt lat="43.494756065156096" lon="11.667391948503289"><ele>233.0</ele><time>2026-04-25T13:39:26.963Z</time></trkpt><trkpt lat="43.49453508915181" lon="11.667612174635591"><ele>234.0</ele><time>2026-04-25T13:39:27.963Z</time></trkpt><trkpt lat="43.494314852621045" lon="11.66783661965076"><ele>235.0</ele><time>2026-04-25T13:39:28.963Z</time></trkpt><trkpt lat="43.49409890247479" lon="11.668066402334487"><ele>235.0</ele><time>2026-04-25T13:39:29.963Z</time></trkpt><trkpt lat="43.49389045806721" lon="11.668305257443567"><ele>235.0</ele><time>2026-04-25T13:39:30.963Z</time></trkpt><trkpt lat="43.49369095431781" lon="11.668556908255768"><ele>237.0</ele><time>2026-04-25T13:39:31.963Z</time></trkpt><trkpt lat="43.493493743645836" lon="11.66881584440343"><ele>239.0</ele><time>2026-04-25T13:39:32.963Z</time></trkpt><trkpt lat="43.493303207088815" lon="11.669086884540317"><ele>239.0</ele><time>2026-04-25T13:39:33.963Z</time></trkpt><trkpt lat="43.49311821520603" lon="11.669363931657651"><ele>239.0</ele><time>2026-04-25T13:39:34.963Z</time></trkpt><trkpt lat="43.49293845105309" lon="11.6696507524672"><ele>242.0</ele><time>2026-04-25T13:39:35.963Z</time></trkpt><trkpt lat="43.49276608512027" lon="11.669945145813987"><ele>245.0</ele><time>2026-04-25T13:39:36.963Z</time></trkpt><trkpt lat="43.492602945875454" lon="11.670244280032883"><ele>245.0</ele><time>2026-04-25T13:39:37.963Z</time></trkpt><trkpt lat="43.49244551510747" lon="11.670551635577214"><ele>245.0</ele><time>2026-04-25T13:39:38.963Z</time></trkpt><trkpt lat="43.49229883858063" lon="11.670866011048492"><ele>242.0</ele><time>2026-04-25T13:39:39.963Z</time></trkpt><trkpt lat="43.49215947837706" lon="11.67118470391476"><ele>239.0</ele><time>2026-04-25T13:39:40.963Z</time></trkpt><trkpt lat="43.49202803755568" lon="11.671507271680508"><ele>239.0</ele><time>2026-04-25T13:39:41.963Z</time></trkpt><trkpt lat="43.491906854697824" lon="11.671833968959376"><ele>239.0</ele><time>2026-04-25T13:39:42.963Z</time></trkpt><trkpt lat="43.491791896357775" lon="11.672167632686199"><ele>241.0</ele><time>2026-04-25T13:39:43.963Z</time></trkpt><trkpt lat="43.491687327544675" lon="11.672502089957083"><ele>243.0</ele><time>2026-04-25T13:39:44.963Z</time></trkpt><trkpt lat="43.49158946297463" lon="11.672838146064622"><ele>244.5</ele><time>2026-04-25T13:39:45.963Z</time></trkpt><trkpt lat="43.49149895166884" lon="11.673175869786915"><ele>246.0</ele><time>2026-04-25T13:39:46.963Z</time></trkpt><trkpt lat="43.491418613575846" lon="11.673518687586638"><ele>246.0</ele><time>2026-04-25T13:39:47.963Z</time></trkpt><trkpt lat="43.49134291648384" lon="11.673863863296999"><ele>246.0</ele><time>2026-04-25T13:39:48.963Z</time></trkpt><trkpt lat="43.49126931619877" lon="11.674211224510259"><ele>245.0</ele><time>2026-04-25T13:39:49.963Z</time></trkpt><trkpt lat="43.491197858920934" lon="11.674561770642356"><ele>244.0</ele><time>2026-04-25T13:39:50.963Z</time></trkpt><trkpt lat="43.49112738374402" lon="11.674913945419512"><ele>244.0</ele><time>2026-04-25T13:39:51.963Z</time></trkpt><trkpt lat="43.49105795791296" lon="11.675259807048926"><ele>244.0</ele><time>2026-04-25T13:39:52.963Z</time></trkpt><trkpt lat="43.49098505227969" lon="11.675599649849797"><ele>240.5</ele><time>2026-04-25T13:39:53.963Z</time></trkpt><trkpt lat="43.49091462158163" lon="11.675937662415175"><ele>237.0</ele><time>2026-04-25T13:39:54.963Z</time></trkpt><trkpt lat="43.4908413050036" lon="11.676271646933428"><ele>233.5</ele><time>2026-04-25T13:39:55.963Z</time></trkpt><trkpt lat="43.490771654515584" lon="11.676606769162854"><ele>230.0</ele><time>2026-04-25T13:39:56.963Z</time></trkpt><trkpt lat="43.49069820636865" lon="11.676942657339735"><ele>230.0</ele><time>2026-04-25T13:39:57.963Z</time></trkpt><trkpt lat="43.49062948909839" lon="11.677282466762145"><ele>230.0</ele><time>2026-04-25T13:39:58.963Z</time></trkpt><trkpt lat="43.490560291481856" lon="11.677614524520395"><ele>231.5</ele><time>2026-04-25T13:39:59.963Z</time></trkpt><trkpt lat="43.490492157683676" lon="11.677947032315213"><ele>233.0</ele><time>2026-04-25T13:40:00.963Z</time></trkpt><trkpt lat="43.49042226743455" lon="11.678289631419707"><ele>234.0</ele><time>2026-04-25T13:40:01.963Z</time></trkpt><trkpt lat="43.49035284930249" lon="11.678635869723674"><ele>235.0</ele><time>2026-04-25T13:40:02.963Z</time></trkpt><trkpt lat="43.490282179587474" lon="11.678987982860072"><ele>235.0</ele><time>2026-04-25T13:40:03.963Z</time></trkpt><trkpt lat="43.49020858137506" lon="11.679338172520788"><ele>235.0</ele><time>2026-04-25T13:40:04.963Z</time></trkpt><trkpt lat="43.49013688463052" lon="11.679688689756494"><ele>237.5</ele><time>2026-04-25T13:40:05.963Z</time></trkpt><trkpt lat="43.49006496331714" lon="11.680043942383094"><ele>240.0</ele><time>2026-04-25T13:40:06.963Z</time></trkpt><trkpt lat="43.489990750796395" lon="11.680401285782098"><ele>242.5</ele><time>2026-04-25T13:40:07.963Z</time></trkpt><trkpt lat="43.48991573589021" lon="11.680756942751989"><ele>245.0</ele><time>2026-04-25T13:40:08.963Z</time></trkpt><trkpt lat="43.4898433239137" lon="11.681112364612316"><ele>249.0</ele><time>2026-04-25T13:40:09.963Z</time></trkpt><trkpt lat="43.48977171314168" lon="11.681466013206542"><ele>253.0</ele><time>2026-04-25T13:40:10.963Z</time></trkpt><trkpt lat="43.489702572621304" lon="11.681818420657368"><ele>253.0</ele><time>2026-04-25T13:40:11.963Z</time></trkpt><trkpt lat="43.48963008509268" lon="11.68216918431748"><ele>253.0</ele><time>2026-04-25T13:40:12.963Z</time></trkpt><trkpt lat="43.48955659214614" lon="11.68252268414561"><ele>251.0</ele><time>2026-04-25T13:40:13.963Z</time></trkpt><trkpt lat="43.48948344546166" lon="11.682880993688968"><ele>249.0</ele><time>2026-04-25T13:40:14.963Z</time></trkpt><trkpt lat="43.48941113963638" lon="11.683240619452288"><ele>248.5</ele><time>2026-04-25T13:40:15.963Z</time></trkpt><trkpt lat="43.48933863811135" lon="11.683601824497607"><ele>248.0</ele><time>2026-04-25T13:40:16.963Z</time></trkpt><trkpt lat="43.48926289943401" lon="11.68396388129665"><ele>248.0</ele><time>2026-04-25T13:40:17.963Z</time></trkpt><trkpt lat="43.48918555922828" lon="11.684328784160982"><ele>248.0</ele><time>2026-04-25T13:40:18.963Z</time></trkpt><trkpt lat="43.48910689266364" lon="11.684700026578533"><ele>247.5</ele><time>2026-04-25T13:40:19.963Z</time></trkpt><trkpt lat="43.48902955241025" lon="11.685075900623346"><ele>247.0</ele><time>2026-04-25T13:40:20.963Z</time></trkpt><trkpt lat="43.48895099238423" lon="11.685452826518805"><ele>247.0</ele><time>2026-04-25T13:40:21.963Z</time></trkpt><trkpt lat="43.48887042408751" lon="11.685830708513715"><ele>247.0</ele><time>2026-04-25T13:40:22.963Z</time></trkpt><trkpt lat="43.48879235761186" lon="11.686214767220399"><ele>248.5</ele><time>2026-04-25T13:40:23.963Z</time></trkpt><trkpt lat="43.48871225870656" lon="11.686608415259863"><ele>250.0</ele><time>2026-04-25T13:40:24.963Z</time></trkpt><trkpt lat="43.48863398701652" lon="11.68699867463685"><ele>250.0</ele><time>2026-04-25T13:40:25.963Z</time></trkpt><trkpt lat="43.48855696526331" lon="11.687389956522493"><ele>250.0</ele><time>2026-04-25T13:40:26.963Z</time></trkpt><trkpt lat="43.48847353048921" lon="11.687774990350023"><ele>250.5</ele><time>2026-04-25T13:40:27.963Z</time></trkpt><trkpt lat="43.48839450794146" lon="11.68815828734789"><ele>251.0</ele><time>2026-04-25T13:40:28.963Z</time></trkpt><trkpt lat="43.48831634191063" lon="11.688543773750572"><ele>250.5</ele><time>2026-04-25T13:40:29.963Z</time></trkpt><trkpt lat="43.488236463114205" lon="11.688935232040075"><ele>250.0</ele><time>2026-04-25T13:40:30.963Z</time></trkpt><trkpt lat="43.48815310060925" lon="11.68933009251386"><ele>248.5</ele><time>2026-04-25T13:40:31.963Z</time></trkpt><trkpt lat="43.48806814881272" lon="11.68972187825696"><ele>247.0</ele><time>2026-04-25T13:40:32.963Z</time></trkpt><trkpt lat="43.48798483788048" lon="11.69011184422124"><ele>247.0</ele><time>2026-04-25T13:40:33.963Z</time></trkpt><trkpt lat="43.48790475261867" lon="11.690501589913936"><ele>247.0</ele><time>2026-04-25T13:40:34.963Z</time></trkpt><trkpt lat="43.48782153840112" lon="11.690889674691283"><ele>248.5</ele><time>2026-04-25T13:40:35.963Z</time></trkpt><trkpt lat="43.48774140619772" lon="11.691270991856456"><ele>250.0</ele><time>2026-04-25T13:40:36.963Z</time></trkpt><trkpt lat="43.48766303144586" lon="11.691642346923407"><ele>250.5</ele><time>2026-04-25T13:40:37.963Z</time></trkpt><trkpt lat="43.48758859072369" lon="11.692012232344963"><ele>251.0</ele><time>2026-04-25T13:40:38.963Z</time></trkpt><trkpt lat="43.48751527289039" lon="11.6923813403062"><ele>251.0</ele><time>2026-04-25T13:40:39.963Z</time></trkpt><trkpt lat="43.48744101986483" lon="11.692751042830627"><ele>251.0</ele><time>2026-04-25T13:40:40.963Z</time></trkpt><trkpt lat="43.48736671569981" lon="11.69311980497616"><ele>250.5</ele><time>2026-04-25T13:40:41.963Z</time></trkpt><trkpt lat="43.48729340770227" lon="11.693491602627786"><ele>250.0</ele><time>2026-04-25T13:40:42.963Z</time></trkpt><trkpt lat="43.487220102681526" lon="11.693865326076399"><ele>249.5</ele><time>2026-04-25T13:40:43.963Z</time></trkpt><trkpt lat="43.4871455576415" lon="11.694235892777051"><ele>249.0</ele><time>2026-04-25T13:40:44.963Z</time></trkpt><trkpt lat="43.48706640707369" lon="11.694607299437981"><ele>248.0</ele><time>2026-04-25T13:40:45.961Z</time></trkpt><trkpt lat="43.48698530545913" lon="11.694976033890857"><ele>247.0</ele><time>2026-04-25T13:40:46.961Z</time></trkpt><trkpt lat="43.486908737187015" lon="11.695343609512813"><ele>245.5</ele><time>2026-04-25T13:40:47.961Z</time></trkpt><trkpt lat="43.48682905662499" lon="11.695709474479244"><ele>244.0</ele><time>2026-04-25T13:40:48.961Z</time></trkpt><trkpt lat="43.4867542788331" lon="11.696077958233998"><ele>244.5</ele><time>2026-04-25T13:40:49.961Z</time></trkpt><trkpt lat="43.48667793601966" lon="11.696450868035553"><ele>245.0</ele><time>2026-04-25T13:40:50.961Z</time></trkpt><trkpt lat="43.486604966972344" lon="11.696824639709941"><ele>247.5</ele><time>2026-04-25T13:40:51.961Z</time></trkpt><trkpt lat="43.486530496660215" lon="11.697198426235845"><ele>250.0</ele><time>2026-04-25T13:40:52.961Z</time></trkpt><trkpt lat="43.48645904023839" lon="11.697570032319945"><ele>248.0</ele><time>2026-04-25T13:40:53.961Z</time></trkpt><trkpt lat="43.48638540945809" lon="11.697939760096915"><ele>246.0</ele><time>2026-04-25T13:40:54.961Z</time></trkpt><trkpt lat="43.48630961954397" lon="11.698310634007198"><ele>245.0</ele><time>2026-04-25T13:40:55.96Z</time></trkpt><trkpt lat="43.48623029760444" lon="11.698675349975092"><ele>244.0</ele><time>2026-04-25T13:40:56.96Z</time></trkpt><trkpt lat="43.486151342299664" lon="11.699041688964702"><ele>244.0</ele><time>2026-04-25T13:40:57.96Z</time></trkpt><trkpt lat="43.486070078637276" lon="11.699401712848177"><ele>244.0</ele><time>2026-04-25T13:40:58.96Z</time></trkpt><trkpt lat="43.48598999056792" lon="11.69976042965067"><ele>243.0</ele><time>2026-04-25T13:40:59.96Z</time></trkpt><trkpt lat="43.48590932225859" lon="11.700120774943345"><ele>242.0</ele><time>2026-04-25T13:41:00.96Z</time></trkpt><trkpt lat="43.48582665545161" lon="11.700477361842884"><ele>244.0</ele><time>2026-04-25T13:41:01.96Z</time></trkpt><trkpt lat="43.48574477870743" lon="11.7008315777743"><ele>246.0</ele><time>2026-04-25T13:41:02.96Z</time></trkpt><trkpt lat="43.48566409089071" lon="11.70118358604895"><ele>246.0</ele><time>2026-04-25T13:41:03.96Z</time></trkpt><trkpt lat="43.48558191259956" lon="11.70153581063594"><ele>246.0</ele><time>2026-04-25T13:41:04.96Z</time></trkpt><trkpt lat="43.485500428701634" lon="11.701888815497966"><ele>242.0</ele><time>2026-04-25T13:41:05.96Z</time></trkpt><trkpt lat="43.48541875400669" lon="11.702235727178161"><ele>238.0</ele><time>2026-04-25T13:41:06.961Z</time></trkpt><trkpt lat="43.48534236961353" lon="11.702590322173355"><ele>240.5</ele><time>2026-04-25T13:41:07.961Z</time></trkpt><trkpt lat="43.48526281146719" lon="11.702952581139582"><ele>243.0</ele><time>2026-04-25T13:41:08.961Z</time></trkpt><trkpt lat="43.4851799212227" lon="11.703307710786946"><ele>246.5</ele><time>2026-04-25T13:41:09.961Z</time></trkpt><trkpt lat="43.48509793296903" lon="11.703664436044905"><ele>250.0</ele><time>2026-04-25T13:41:10.961Z</time></trkpt><trkpt lat="43.48501826302602" lon="11.704017644372204"><ele>250.0</ele><time>2026-04-25T13:41:11.961Z</time></trkpt><trkpt lat="43.48494050576705" lon="11.704371061127416"><ele>250.0</ele><time>2026-04-25T13:41:12.961Z</time></trkpt><trkpt lat="43.48486457036618" lon="11.70471953445649"><ele>250.5</ele><time>2026-04-25T13:41:13.961Z</time></trkpt><trkpt lat="43.48478740027947" lon="11.705064424096998"><ele>251.0</ele><time>2026-04-25T13:41:14.961Z</time></trkpt><trkpt lat="43.48471046505005" lon="11.70540856976656"><ele>251.0</ele><time>2026-04-25T13:41:15.961Z</time></trkpt><trkpt lat="43.48463107370198" lon="11.705753350684038"><ele>251.0</ele><time>2026-04-25T13:41:16.961Z</time></trkpt><trkpt lat="43.48455115917126" lon="11.706098499221959"><ele>253.0</ele><time>2026-04-25T13:41:17.961Z</time></trkpt><trkpt lat="43.4844705027917" lon="11.706442767026342"><ele>255.0</ele><time>2026-04-25T13:41:18.961Z</time></trkpt><trkpt lat="43.484395224384" lon="11.706783558854463"><ele>252.5</ele><time>2026-04-25T13:41:19.961Z</time></trkpt><trkpt lat="43.48432218003738" lon="11.707127404595171"><ele>250.0</ele><time>2026-04-25T13:41:20.961Z</time></trkpt><trkpt lat="43.484246677992324" lon="11.70747355634961"><ele>246.5</ele><time>2026-04-25T13:41:21.961Z</time></trkpt><trkpt lat="43.4841677477509" lon="11.707823400514995"><ele>243.0</ele><time>2026-04-25T13:41:22.961Z</time></trkpt><trkpt lat="43.48408965235653" lon="11.708171819918537"><ele>243.0</ele><time>2026-04-25T13:41:23.961Z</time></trkpt><trkpt lat="43.48401433775004" lon="11.708515901558723"><ele>243.0</ele><time>2026-04-25T13:41:24.961Z</time></trkpt><trkpt lat="43.48394391924894" lon="11.70886470497145"><ele>241.0</ele><time>2026-04-25T13:41:25.961Z</time></trkpt><trkpt lat="43.48387962947629" lon="11.709217801815056"><ele>239.0</ele><time>2026-04-25T13:41:26.961Z</time></trkpt><trkpt lat="43.48382989549549" lon="11.709564057718614"><ele>243.0</ele><time>2026-04-25T13:41:27.961Z</time></trkpt><trkpt lat="43.48378341362201" lon="11.70991579589266"><ele>247.0</ele><time>2026-04-25T13:41:28.961Z</time></trkpt><trkpt lat="43.48374472386451" lon="11.710268514512967"><ele>249.5</ele><time>2026-04-25T13:41:29.961Z</time></trkpt><trkpt lat="43.48371238880271" lon="11.71062097260498"><ele>252.0</ele><time>2026-04-25T13:41:30.961Z</time></trkpt><trkpt lat="43.483685975315524" lon="11.710972417748392"><ele>250.5</ele><time>2026-04-25T13:41:31.961Z</time></trkpt><trkpt lat="43.483667198661045" lon="11.711328873010528"><ele>249.0</ele><time>2026-04-25T13:41:32.961Z</time></trkpt><trkpt lat="43.48365591158357" lon="11.71169013786499"><ele>250.5</ele><time>2026-04-25T13:41:33.961Z</time></trkpt><trkpt lat="43.483659857762056" lon="11.71204089623435"><ele>252.0</ele><time>2026-04-25T13:41:34.961Z</time></trkpt><trkpt lat="43.4836663482357" lon="11.71240143381004"><ele>249.0</ele><time>2026-04-25T13:41:35.961Z</time></trkpt><trkpt lat="43.483675717271055" lon="11.71275978203531"><ele>246.0</ele><time>2026-04-25T13:41:36.961Z</time></trkpt><trkpt lat="43.483691593391576" lon="11.713120144852818"><ele>246.0</ele><time>2026-04-25T13:41:37.961Z</time></trkpt><trkpt lat="43.48371448143868" lon="11.713477482080267"><ele>246.0</ele><time>2026-04-25T13:41:38.961Z</time></trkpt><trkpt lat="43.483741707068205" lon="11.713834841321649"><ele>243.5</ele><time>2026-04-25T13:41:39.961Z</time></trkpt><trkpt lat="43.48376909901078" lon="11.714186455624512"><ele>241.0</ele><time>2026-04-25T13:41:40.961Z</time></trkpt><trkpt lat="43.483794312966836" lon="11.714541797259788"><ele>241.0</ele><time>2026-04-25T13:41:41.961Z</time></trkpt><trkpt lat="43.48381504528607" lon="11.714903226402049"><ele>241.0</ele><time>2026-04-25T13:41:42.961Z</time></trkpt><trkpt lat="43.483838226395775" lon="11.715260192551852"><ele>246.0</ele><time>2026-04-25T13:41:43.961Z</time></trkpt><trkpt lat="43.48386393861383" lon="11.71560955304482"><ele>251.0</ele><time>2026-04-25T13:41:44.961Z</time></trkpt><trkpt lat="43.483889327842256" lon="11.715961287954965"><ele>253.0</ele><time>2026-04-25T13:41:45.961Z</time></trkpt><trkpt lat="43.48391784788615" lon="11.71631084450724"><ele>255.0</ele><time>2026-04-25T13:41:46.961Z</time></trkpt><trkpt lat="43.483947455790755" lon="11.716664617554303"><ele>255.5</ele><time>2026-04-25T13:41:47.961Z</time></trkpt><trkpt lat="43.48397614112437" lon="11.717019450742104"><ele>256.0</ele><time>2026-04-25T13:41:48.961Z</time></trkpt><trkpt lat="43.48400688774471" lon="11.717373023764472"><ele>256.0</ele><time>2026-04-25T13:41:49.961Z</time></trkpt><trkpt lat="43.48403110155037" lon="11.71772421203202"><ele>256.0</ele><time>2026-04-25T13:41:50.961Z</time></trkpt><trkpt lat="43.48404861574325" lon="11.71807867712495"><ele>255.5</ele><time>2026-04-25T13:41:51.961Z</time></trkpt><trkpt lat="43.48404670368857" lon="11.718435034494782"><ele>255.0</ele><time>2026-04-25T13:41:52.961Z</time></trkpt><trkpt lat="43.4840292213615" lon="11.718784092812113"><ele>255.0</ele><time>2026-04-25T13:41:53.961Z</time></trkpt><trkpt lat="43.483998364367835" lon="11.719133957643852"><ele>255.0</ele><time>2026-04-25T13:41:54.961Z</time></trkpt><trkpt lat="43.483951858475" lon="11.719487674956119"><ele>253.0</ele><time>2026-04-25T13:41:55.961Z</time></trkpt><trkpt lat="43.483888680251276" lon="11.719841440105652"><ele>251.0</ele><time>2026-04-25T13:41:56.961Z</time></trkpt><trkpt lat="43.48381148893229" lon="11.720182079356922"><ele>252.0</ele><time>2026-04-25T13:41:57.961Z</time></trkpt><trkpt lat="43.48371775492336" lon="11.720519019812853"><ele>253.0</ele><time>2026-04-25T13:41:58.961Z</time></trkpt><trkpt lat="43.48361321171319" lon="11.720847299394963"><ele>254.0</ele><time>2026-04-25T13:41:59.961Z</time></trkpt><trkpt lat="43.48349073682874" lon="11.721169747818086"><ele>255.0</ele><time>2026-04-25T13:42:00.961Z</time></trkpt><trkpt lat="43.48336150505982" lon="11.721489565992627"><ele>255.0</ele><time>2026-04-25T13:42:01.961Z</time></trkpt><trkpt lat="43.4832251553646" lon="11.721806393391065"><ele>255.0</ele><time>2026-04-25T13:42:02.961Z</time></trkpt><trkpt lat="43.48308765460621" lon="11.722123783683083"><ele>256.0</ele><time>2026-04-25T13:42:03.961Z</time></trkpt><trkpt lat="43.4829548719339" lon="11.722445514197313"><ele>257.0</ele><time>2026-04-25T13:42:04.961Z</time></trkpt><trkpt lat="43.482820580236435" lon="11.722766148143467"><ele>259.0</ele><time>2026-04-25T13:42:05.961Z</time></trkpt><trkpt lat="43.482692110673646" lon="11.723097595487625"><ele>261.0</ele><time>2026-04-25T13:42:06.961Z</time></trkpt><trkpt lat="43.48255676309656" lon="11.723425341969842"><ele>262.0</ele><time>2026-04-25T13:42:07.961Z</time></trkpt><trkpt lat="43.482422069201725" lon="11.723758313190535"><ele>263.0</ele><time>2026-04-25T13:42:08.961Z</time></trkpt><trkpt lat="43.48228690460672" lon="11.724091838932017"><ele>261.5</ele><time>2026-04-25T13:42:09.961Z</time></trkpt><trkpt lat="43.482153255069875" lon="11.72442932268722"><ele>260.0</ele><time>2026-04-25T13:42:10.961Z</time></trkpt><trkpt lat="43.48202192531817" lon="11.724764955865123"><ele>259.5</ele><time>2026-04-25T13:42:11.961Z</time></trkpt><trkpt lat="43.48189371919952" lon="11.725105128204182"><ele>259.0</ele><time>2026-04-25T13:42:12.961Z</time></trkpt><trkpt lat="43.48176492304969" lon="11.725445027327543"><ele>259.0</ele><time>2026-04-25T13:42:13.961Z</time></trkpt><trkpt lat="43.48163478333991" lon="11.725782857371234"><ele>259.0</ele><time>2026-04-25T13:42:14.961Z</time></trkpt><trkpt lat="43.481503151716744" lon="11.726120860297474"><ele>259.0</ele><time>2026-04-25T13:42:15.961Z</time></trkpt><trkpt lat="43.48137059214778" lon="11.726458721642139"><ele>259.0</ele><time>2026-04-25T13:42:16.961Z</time></trkpt><trkpt lat="43.48123844612179" lon="11.726795736995106"><ele>263.5</ele><time>2026-04-25T13:42:17.961Z</time></trkpt><trkpt lat="43.48110799654604" lon="11.727134430382485"><ele>268.0</ele><time>2026-04-25T13:42:18.961Z</time></trkpt><trkpt lat="43.48098016310791" lon="11.727472685089776"><ele>268.0</ele><time>2026-04-25T13:42:19.961Z</time></trkpt><trkpt lat="43.48085407362549" lon="11.727811754166959"><ele>268.0</ele><time>2026-04-25T13:42:20.961Z</time></trkpt><trkpt lat="43.480728617384" lon="11.728152484355657"><ele>268.0</ele><time>2026-04-25T13:42:21.961Z</time></trkpt><trkpt lat="43.48060236712387" lon="11.728494523661306"><ele>268.0</ele><time>2026-04-25T13:42:22.961Z</time></trkpt><trkpt lat="43.48047817060109" lon="11.728839300993656"><ele>277.5</ele><time>2026-04-25T13:42:23.961Z</time></trkpt><trkpt lat="43.48035276342731" lon="11.729183103902551"><ele>287.0</ele><time>2026-04-25T13:42:24.961Z</time></trkpt><trkpt lat="43.48022221017956" lon="11.729525829181966"><ele>287.0</ele><time>2026-04-25T13:42:25.961Z</time></trkpt><trkpt lat="43.48009250223061" lon="11.72986589810245"><ele>287.0</ele><time>2026-04-25T13:42:26.961Z</time></trkpt><trkpt lat="43.479965228347424" lon="11.73020044155872"><ele>282.0</ele><time>2026-04-25T13:42:27.961Z</time></trkpt><trkpt lat="43.47983974337778" lon="11.730530847370833"><ele>277.0</ele><time>2026-04-25T13:42:28.961Z</time></trkpt><trkpt lat="43.47971272126494" lon="11.730855353929027"><ele>277.0</ele><time>2026-04-25T13:42:29.961Z</time></trkpt><trkpt lat="43.479587358690154" lon="11.731183885608266"><ele>277.0</ele><time>2026-04-25T13:42:30.961Z</time></trkpt><trkpt lat="43.47946038544505" lon="11.731514810159592"><ele>277.0</ele><time>2026-04-25T13:42:31.961Z</time></trkpt><trkpt lat="43.47933494738502" lon="11.731843257930594"><ele>277.0</ele><time>2026-04-25T13:42:32.961Z</time></trkpt><trkpt lat="43.4792105933267" lon="11.732170406410589"><ele>277.0</ele><time>2026-04-25T13:42:33.961Z</time></trkpt><trkpt lat="43.47908725887457" lon="11.73249484307647"><ele>277.0</ele><time>2026-04-25T13:42:34.961Z</time></trkpt><trkpt lat="43.47896902025965" lon="11.732821260751066"><ele>277.0</ele><time>2026-04-25T13:42:35.961Z</time></trkpt><trkpt lat="43.478846885773365" lon="11.733145390074561"><ele>277.0</ele><time>2026-04-25T13:42:36.961Z</time></trkpt><trkpt lat="43.47872620237901" lon="11.73346857615872"><ele>275.0</ele><time>2026-04-25T13:42:37.961Z</time></trkpt><trkpt lat="43.478601471701445" lon="11.733790740189367"><ele>273.0</ele><time>2026-04-25T13:42:38.961Z</time></trkpt><trkpt lat="43.478470566193494" lon="11.734109061340071"><ele>272.5</ele><time>2026-04-25T13:42:39.961Z</time></trkpt><trkpt lat="43.47833415131583" lon="11.734425986790928"><ele>272.0</ele><time>2026-04-25T13:42:40.961Z</time></trkpt><trkpt lat="43.47818928822205" lon="11.734743832519538"><ele>272.0</ele><time>2026-04-25T13:42:41.961Z</time></trkpt><trkpt lat="43.47803741079307" lon="11.735055149748357"><ele>272.0</ele><time>2026-04-25T13:42:42.961Z</time></trkpt><trkpt lat="43.477878869429496" lon="11.735359020067989"><ele>276.0</ele><time>2026-04-25T13:42:43.961Z</time></trkpt><trkpt lat="43.47771398282698" lon="11.735654824301832"><ele>280.0</ele><time>2026-04-25T13:42:44.961Z</time></trkpt><trkpt lat="43.47754320975105" lon="11.735946445289997"><ele>280.0</ele><time>2026-04-25T13:42:45.961Z</time></trkpt><trkpt lat="43.477366122727624" lon="11.736229250738567"><ele>280.0</ele><time>2026-04-25T13:42:46.961Z</time></trkpt><trkpt lat="43.47718250118206" lon="11.736498744413725"><ele>281.0</ele><time>2026-04-25T13:42:47.961Z</time></trkpt><trkpt lat="43.47699321341443" lon="11.736761888205367"><ele>282.0</ele><time>2026-04-25T13:42:48.961Z</time></trkpt><trkpt lat="43.476797236914194" lon="11.737017043451118"><ele>282.0</ele><time>2026-04-25T13:42:49.961Z</time></trkpt><trkpt lat="43.47659813260285" lon="11.737267907489091"><ele>282.0</ele><time>2026-04-25T13:42:50.961Z</time></trkpt><trkpt lat="43.47638884146259" lon="11.737512380272294"><ele>283.5</ele><time>2026-04-25T13:42:51.959Z</time></trkpt><trkpt lat="43.476176292230996" lon="11.737752737178422"><ele>285.0</ele><time>2026-04-25T13:42:52.959Z</time></trkpt><trkpt lat="43.47595542521102" lon="11.737985881981773"><ele>285.0</ele><time>2026-04-25T13:42:53.959Z</time></trkpt><trkpt lat="43.475732491863525" lon="11.73820806342756"><ele>285.0</ele><time>2026-04-25T13:42:54.959Z</time></trkpt><trkpt lat="43.47550370842966" lon="11.738419756714732"><ele>283.0</ele><time>2026-04-25T13:42:55.959Z</time></trkpt><trkpt lat="43.47526865802375" lon="11.738620788853611"><ele>281.0</ele><time>2026-04-25T13:42:56.959Z</time></trkpt><trkpt lat="43.47502861343269" lon="11.738809240025997"><ele>281.0</ele><time>2026-04-25T13:42:57.959Z</time></trkpt><trkpt lat="43.474785206400774" lon="11.738988999324901"><ele>281.0</ele><time>2026-04-25T13:42:58.959Z</time></trkpt><trkpt lat="43.474537099145635" lon="11.739156821356067"><ele>279.5</ele><time>2026-04-25T13:42:59.959Z</time></trkpt><trkpt lat="43.47428565608304" lon="11.739318898659215"><ele>278.0</ele><time>2026-04-25T13:43:00.959Z</time></trkpt><trkpt lat="43.47403370405133" lon="11.739479879957209"><ele>277.5</ele><time>2026-04-25T13:43:01.959Z</time></trkpt><trkpt lat="43.473782205864104" lon="11.739639748594394"><ele>277.0</ele><time>2026-04-25T13:43:02.959Z</time></trkpt><trkpt lat="43.47352998380883" lon="11.739800629763263"><ele>282.0</ele><time>2026-04-25T13:43:03.959Z</time></trkpt><trkpt lat="43.47327961343747" lon="11.739961354406427"><ele>287.0</ele><time>2026-04-25T13:43:04.959Z</time></trkpt><trkpt lat="43.47303308122701" lon="11.74012403995196"><ele>285.5</ele><time>2026-04-25T13:43:05.959Z</time></trkpt><trkpt lat="43.472785229315356" lon="11.74028707336008"><ele>284.0</ele><time>2026-04-25T13:43:06.959Z</time></trkpt><trkpt lat="43.472540532742485" lon="11.740455356229985"><ele>284.0</ele><time>2026-04-25T13:43:07.959Z</time></trkpt><trkpt lat="43.47230161320311" lon="11.740625938940662"><ele>284.0</ele><time>2026-04-25T13:43:08.959Z</time></trkpt><trkpt lat="43.47206408233616" lon="11.740802356166096"><ele>282.5</ele><time>2026-04-25T13:43:09.959Z</time></trkpt><trkpt lat="43.471829320525025" lon="11.740987005748922"><ele>281.0</ele><time>2026-04-25T13:43:10.959Z</time></trkpt><trkpt lat="43.47159418962521" lon="11.74117246859573"><ele>281.5</ele><time>2026-04-25T13:43:11.959Z</time></trkpt><trkpt lat="43.47136163810767" lon="11.741362105858192"><ele>282.0</ele><time>2026-04-25T13:43:12.959Z</time></trkpt><trkpt lat="43.47112969891684" lon="11.741552710411556"><ele>282.0</ele><time>2026-04-25T13:43:13.959Z</time></trkpt><trkpt lat="43.47090136188077" lon="11.741748797493349"><ele>282.0</ele><time>2026-04-25T13:43:14.959Z</time></trkpt><trkpt lat="43.470672234214156" lon="11.741948970207083"><ele>281.5</ele><time>2026-04-25T13:43:15.959Z</time></trkpt><trkpt lat="43.47044983590766" lon="11.742155399691908"><ele>281.0</ele><time>2026-04-25T13:43:16.959Z</time></trkpt><trkpt lat="43.470230810321546" lon="11.74236554565617"><ele>282.5</ele><time>2026-04-25T13:43:17.959Z</time></trkpt><trkpt lat="43.470016832169755" lon="11.742581208372037"><ele>284.0</ele><time>2026-04-25T13:43:18.959Z</time></trkpt><trkpt lat="43.469807235842126" lon="11.742800321370389"><ele>288.0</ele><time>2026-04-25T13:43:19.959Z</time></trkpt><trkpt lat="43.46959650858212" lon="11.743023965999864"><ele>292.0</ele><time>2026-04-25T13:43:20.959Z</time></trkpt><trkpt lat="43.46939181145585" lon="11.743246848066189"><ele>292.0</ele><time>2026-04-25T13:43:21.959Z</time></trkpt><trkpt lat="43.46918890544292" lon="11.743468115577482"><ele>292.0</ele><time>2026-04-25T13:43:22.959Z</time></trkpt><trkpt lat="43.46898360135373" lon="11.743683546446597"><ele>291.5</ele><time>2026-04-25T13:43:23.959Z</time></trkpt><trkpt lat="43.46877414926605" lon="11.74389744003581"><ele>291.0</ele><time>2026-04-25T13:43:24.959Z</time></trkpt><trkpt lat="43.468567914628956" lon="11.744117550429351"><ele>291.0</ele><time>2026-04-25T13:43:25.959Z</time></trkpt><trkpt lat="43.4683625678216" lon="11.744339616097225"><ele>291.0</ele><time>2026-04-25T13:43:26.959Z</time></trkpt><trkpt lat="43.468159897371265" lon="11.744558946490017"><ele>291.0</ele><time>2026-04-25T13:43:27.959Z</time></trkpt><trkpt lat="43.46795569634968" lon="11.744777153427668"><ele>291.0</ele><time>2026-04-25T13:43:28.959Z</time></trkpt><trkpt lat="43.46774933454056" lon="11.744995557018242"><ele>287.5</ele><time>2026-04-25T13:43:29.959Z</time></trkpt><trkpt lat="43.46754311296829" lon="11.745216969410901"><ele>284.0</ele><time>2026-04-25T13:43:30.959Z</time></trkpt><trkpt lat="43.46733458483334" lon="11.745436965001645"><ele>284.0</ele><time>2026-04-25T13:43:31.959Z</time></trkpt><trkpt lat="43.467127438067905" lon="11.745657729779463"><ele>284.0</ele><time>2026-04-25T13:43:32.959Z</time></trkpt><trkpt lat="43.466918936386605" lon="11.745880124500545"><ele>286.5</ele><time>2026-04-25T13:43:33.959Z</time></trkpt><trkpt lat="43.466710346001484" lon="11.74610515342314"><ele>289.0</ele><time>2026-04-25T13:43:34.959Z</time></trkpt><trkpt lat="43.46650274685391" lon="11.746331795223867"><ele>289.0</ele><time>2026-04-25T13:43:35.959Z</time></trkpt><trkpt lat="43.46629485104349" lon="11.746555091680898"><ele>289.0</ele><time>2026-04-25T13:43:36.959Z</time></trkpt><trkpt lat="43.46608828189967" lon="11.746777789452521"><ele>288.0</ele><time>2026-04-25T13:43:37.959Z</time></trkpt><trkpt lat="43.46588229378903" lon="11.747002554053983"><ele>287.0</ele><time>2026-04-25T13:43:38.959Z</time></trkpt><trkpt lat="43.46567580842352" lon="11.747222024786154"><ele>287.0</ele><time>2026-04-25T13:43:39.959Z</time></trkpt><trkpt lat="43.46546970933349" lon="11.747441109121631"><ele>287.0</ele><time>2026-04-25T13:43:40.959Z</time></trkpt><trkpt lat="43.46526377824049" lon="11.747659544619024"><ele>290.0</ele><time>2026-04-25T13:43:41.959Z</time></trkpt><trkpt lat="43.46505731335374" lon="11.747879034893534"><ele>293.0</ele><time>2026-04-25T13:43:42.959Z</time></trkpt><trkpt lat="43.46485313764564" lon="11.74809574151051"><ele>293.0</ele><time>2026-04-25T13:43:43.959Z</time></trkpt><trkpt lat="43.464651185315674" lon="11.748310644006233"><ele>293.0</ele><time>2026-04-25T13:43:44.959Z</time></trkpt><trkpt lat="43.464449828815944" lon="11.748522570853646"><ele>294.5</ele><time>2026-04-25T13:43:45.959Z</time></trkpt><trkpt lat="43.46425152528066" lon="11.748737326325493"><ele>296.0</ele><time>2026-04-25T13:43:46.959Z</time></trkpt><trkpt lat="43.464055024572225" lon="11.748951454584427"><ele>296.0</ele><time>2026-04-25T13:43:47.959Z</time></trkpt><trkpt lat="43.4638597516784" lon="11.74916202999694"><ele>296.0</ele><time>2026-04-25T13:43:48.959Z</time></trkpt><trkpt lat="43.46366355963835" lon="11.749366261748134"><ele>299.0</ele><time>2026-04-25T13:43:49.96Z</time></trkpt><trkpt lat="43.46346891701439" lon="11.749572982072085"><ele>302.0</ele><time>2026-04-25T13:43:50.96Z</time></trkpt><trkpt lat="43.46327343105477" lon="11.749776354052464"><ele>302.0</ele><time>2026-04-25T13:43:51.96Z</time></trkpt><trkpt lat="43.463077910372284" lon="11.749980773890643"><ele>302.0</ele><time>2026-04-25T13:43:52.96Z</time></trkpt><trkpt lat="43.4628838778559" lon="11.750191039097604"><ele>309.0</ele><time>2026-04-25T13:43:53.96Z</time></trkpt><trkpt lat="43.462690216129154" lon="11.75040185471142"><ele>316.0</ele><time>2026-04-25T13:43:54.961Z</time></trkpt><trkpt lat="43.46248868382234" lon="11.750612164705474"><ele>316.0</ele><time>2026-04-25T13:43:55.961Z</time></trkpt><trkpt lat="43.46228405537855" lon="11.750826023610154"><ele>316.0</ele><time>2026-04-25T13:43:56.961Z</time></trkpt><trkpt lat="43.46208207142717" lon="11.751042374274265"><ele>320.0</ele><time>2026-04-25T13:43:57.961Z</time></trkpt><trkpt lat="43.461880707413954" lon="11.751256437221075"><ele>324.0</ele><time>2026-04-25T13:43:58.961Z</time></trkpt><trkpt lat="43.46167104763477" lon="11.75146316508623"><ele>324.0</ele><time>2026-04-25T13:43:59.961Z</time></trkpt><trkpt lat="43.46145312445913" lon="11.751665364227975"><ele>324.0</ele><time>2026-04-25T13:44:00.962Z</time></trkpt><trkpt lat="43.461222842892774" lon="11.751861302098511"><ele>329.0</ele><time>2026-04-25T13:44:01.962Z</time></trkpt><trkpt lat="43.46098650363507" lon="11.752052968755434"><ele>334.0</ele><time>2026-04-25T13:44:02.962Z</time></trkpt><trkpt lat="43.460741548669546" lon="11.752237963248922"><ele>334.0</ele><time>2026-04-25T13:44:03.962Z</time></trkpt><trkpt lat="43.460491826268246" lon="11.75241264312827"><ele>334.0</ele><time>2026-04-25T13:44:04.962Z</time></trkpt><trkpt lat="43.460240728859304" lon="11.752569327669736"><ele>334.0</ele><time>2026-04-25T13:44:05.962Z</time></trkpt><trkpt lat="43.45998163492067" lon="11.752709220167617"><ele>334.0</ele><time>2026-04-25T13:44:06.962Z</time></trkpt><trkpt lat="43.45972348624158" lon="11.752838451128207"><ele>329.5</ele><time>2026-04-25T13:44:07.962Z</time></trkpt><trkpt lat="43.45946904029601" lon="11.752958927531878"><ele>325.0</ele><time>2026-04-25T13:44:08.962Z</time></trkpt><trkpt lat="43.459209960517406" lon="11.753068409196224"><ele>325.0</ele><time>2026-04-25T13:44:09.962Z</time></trkpt><trkpt lat="43.45895047601344" lon="11.753162180403248"><ele>325.0</ele><time>2026-04-25T13:44:10.962Z</time></trkpt><trkpt lat="43.45868982555728" lon="11.753237735325817"><ele>326.5</ele><time>2026-04-25T13:44:11.962Z</time></trkpt><trkpt lat="43.458430437222184" lon="11.753307625428459"><ele>328.0</ele><time>2026-04-25T13:44:12.963Z</time></trkpt><trkpt lat="43.45816898522542" lon="11.753384520352643"><ele>334.5</ele><time>2026-04-25T13:44:13.963Z</time></trkpt><trkpt lat="43.45790937823066" lon="11.753460030708933"><ele>341.0</ele><time>2026-04-25T13:44:14.963Z</time></trkpt><trkpt lat="43.457652286799274" lon="11.753533699744033"><ele>343.5</ele><time>2026-04-25T13:44:15.963Z</time></trkpt><trkpt lat="43.45739806228864" lon="11.75360700796691"><ele>346.0</ele><time>2026-04-25T13:44:16.963Z</time></trkpt><trkpt lat="43.4571416722524" lon="11.753681231977772"><ele>346.5</ele><time>2026-04-25T13:44:17.963Z</time></trkpt><trkpt lat="43.45688968030645" lon="11.753760019506819"><ele>347.0</ele><time>2026-04-25T13:44:18.963Z</time></trkpt><trkpt lat="43.45663023739994" lon="11.753850391059435"><ele>347.0</ele><time>2026-04-25T13:44:19.963Z</time></trkpt><trkpt lat="43.45636082640959" lon="11.753947085172651"><ele>347.0</ele><time>2026-04-25T13:44:20.963Z</time></trkpt><trkpt lat="43.45608999195145" lon="11.754038811608673"><ele>345.0</ele><time>2026-04-25T13:44:21.963Z</time></trkpt><trkpt lat="43.455799930744796" lon="11.75415049739721"><ele>343.0</ele><time>2026-04-25T13:44:22.963Z</time></trkpt><trkpt lat="43.455505830384816" lon="11.754269523960282"><ele>345.0</ele><time>2026-04-25T13:44:23.963Z</time></trkpt><trkpt lat="43.455233807342324" lon="11.754338719406276"><ele>347.0</ele><time>2026-04-25T13:44:24.963Z</time></trkpt><trkpt lat="43.454974745975356" lon="11.754377530354242"><ele>347.5</ele><time>2026-04-25T13:44:25.963Z</time></trkpt><trkpt lat="43.45472174273682" lon="11.754451196325567"><ele>348.0</ele><time>2026-04-25T13:44:26.963Z</time></trkpt><trkpt lat="43.4544761386809" lon="11.754523442212793"><ele>340.5</ele><time>2026-04-25T13:44:27.963Z</time></trkpt><trkpt lat="43.454235572236136" lon="11.754591194261861"><ele>333.0</ele><time>2026-04-25T13:44:28.963Z</time></trkpt><trkpt lat="43.453998817407566" lon="11.754655239870871"><ele>329.5</ele><time>2026-04-25T13:44:29.963Z</time></trkpt><trkpt lat="43.4537627679917" lon="11.754718806963462"><ele>326.0</ele><time>2026-04-25T13:44:30.963Z</time></trkpt><trkpt lat="43.45352941222458" lon="11.754788390833076"><ele>326.0</ele><time>2026-04-25T13:44:31.963Z</time></trkpt><trkpt lat="43.453293079852656" lon="11.754843516173391"><ele>326.0</ele><time>2026-04-25T13:44:32.963Z</time></trkpt><trkpt lat="43.45305688850347" lon="11.75491353899744"><ele>324.0</ele><time>2026-04-25T13:44:33.963Z</time></trkpt><trkpt lat="43.45281725695715" lon="11.754979395887643"><ele>322.0</ele><time>2026-04-25T13:44:34.963Z</time></trkpt><trkpt lat="43.45257892746778" lon="11.755041722772303"><ele>322.0</ele><time>2026-04-25T13:44:35.963Z</time></trkpt><trkpt lat="43.45233923438203" lon="11.755106360251412"><ele>322.0</ele><time>2026-04-25T13:44:36.963Z</time></trkpt><trkpt lat="43.452105608472515" lon="11.75517279864449"><ele>322.5</ele><time>2026-04-25T13:44:37.963Z</time></trkpt><trkpt lat="43.451878008700106" lon="11.755234690605988"><ele>323.0</ele><time>2026-04-25T13:44:38.963Z</time></trkpt><trkpt lat="43.45165239015064" lon="11.75529810094989"><ele>323.0</ele><time>2026-04-25T13:44:39.963Z</time></trkpt><trkpt lat="43.45143001886297" lon="11.755362789629737"><ele>323.0</ele><time>2026-04-25T13:44:40.963Z</time></trkpt><trkpt lat="43.45121113903792" lon="11.755426653577565"><ele>320.6666666666667</ele><time>2026-04-25T13:44:41.963Z</time></trkpt><trkpt lat="43.45099658445908" lon="11.7555056686279"><ele>318.3333333333333</ele><time>2026-04-25T13:44:42.963Z</time></trkpt><trkpt lat="43.450784573030866" lon="11.755605554086006"><ele>316.0</ele><time>2026-04-25T13:44:43.963Z</time></trkpt><trkpt lat="43.45057807579925" lon="11.75572312368811"><ele>311.5</ele><time>2026-04-25T13:44:44.963Z</time></trkpt><trkpt lat="43.450369023538286" lon="11.755857371734642"><ele>307.0</ele><time>2026-04-25T13:44:45.963Z</time></trkpt><trkpt lat="43.45017395246889" lon="11.7560079790098"><ele>314.5</ele><time>2026-04-25T13:44:46.963Z</time></trkpt><trkpt lat="43.44998377441024" lon="11.756176234639222"><ele>322.0</ele><time>2026-04-25T13:44:47.963Z</time></trkpt><trkpt lat="43.4498039110811" lon="11.75635955883651"><ele>322.0</ele><time>2026-04-25T13:44:48.963Z</time></trkpt><trkpt lat="43.44963556975248" lon="11.756555141651747"><ele>322.0</ele><time>2026-04-25T13:44:49.963Z</time></trkpt><trkpt lat="43.44947843218584" lon="11.75675648454361"><ele>322.0</ele><time>2026-04-25T13:44:50.963Z</time></trkpt><trkpt lat="43.44932917355806" lon="11.756968043639793"><ele>318.3333333333333</ele><time>2026-04-25T13:44:51.963Z</time></trkpt><trkpt lat="43.44919218279277" lon="11.757198062223052"><ele>314.6666666666667</ele><time>2026-04-25T13:44:52.963Z</time></trkpt><trkpt lat="43.449063737652544" lon="11.757440921296944"><ele>311.0</ele><time>2026-04-25T13:44:53.963Z</time></trkpt><trkpt lat="43.44894592100916" lon="11.757692076688702"><ele>312.6666666666667</ele><time>2026-04-25T13:44:54.963Z</time></trkpt><trkpt lat="43.448829440974365" lon="11.757957538581898"><ele>314.3333333333333</ele><time>2026-04-25T13:44:55.964Z</time></trkpt><trkpt lat="43.44873224709093" lon="11.75823538447563"><ele>316.0</ele><time>2026-04-25T13:44:56.964Z</time></trkpt><trkpt lat="43.44864408339911" lon="11.758529765912337"><ele>305.5</ele><time>2026-04-25T13:44:57.963Z</time></trkpt><trkpt lat="43.448574358335954" lon="11.758840925231853"><ele>295.0</ele><time>2026-04-25T13:44:58.962Z</time></trkpt><trkpt lat="43.44851086199091" lon="11.759175565016294"><ele>295.0</ele><time>2026-04-25T13:44:59.962Z</time></trkpt><trkpt lat="43.448458640440144" lon="11.759529116987183"><ele>295.0</ele><time>2026-04-25T13:45:00.962Z</time></trkpt><trkpt lat="43.44839600613831" lon="11.759893115095416"><ele>293.5</ele><time>2026-04-25T13:45:01.963Z</time></trkpt><trkpt lat="43.44832747264236" lon="11.760262885809988"><ele>292.0</ele><time>2026-04-25T13:45:02.963Z</time></trkpt><trkpt lat="43.448258847782384" lon="11.760639941617494"><ele>292.0</ele><time>2026-04-25T13:45:03.963Z</time></trkpt><trkpt lat="43.44818652129069" lon="11.76102519560095"><ele>292.0</ele><time>2026-04-25T13:45:04.962Z</time></trkpt><trkpt lat="43.44810611359589" lon="11.761408382102648"><ele>292.0</ele><time>2026-04-25T13:45:05.962Z</time></trkpt><trkpt lat="43.44802173325113" lon="11.761795528170216"><ele>292.0</ele><time>2026-04-25T13:45:06.963Z</time></trkpt><trkpt lat="43.447939727778774" lon="11.762186815315625"><ele>290.0</ele><time>2026-04-25T13:45:07.962Z</time></trkpt><trkpt lat="43.44786809992646" lon="11.762572388067316"><ele>288.0</ele><time>2026-04-25T13:45:08.962Z</time></trkpt><trkpt lat="43.44779567813776" lon="11.762959530276959"><ele>285.5</ele><time>2026-04-25T13:45:09.963Z</time></trkpt><trkpt lat="43.44771451995066" lon="11.763342368214653"><ele>283.0</ele><time>2026-04-25T13:45:10.962Z</time></trkpt><trkpt lat="43.44762393307224" lon="11.763719508401516"><ele>283.0</ele><time>2026-04-25T13:45:11.962Z</time></trkpt><trkpt lat="43.44752185374499" lon="11.764091991875738"><ele>283.0</ele><time>2026-04-25T13:45:12.962Z</time></trkpt><trkpt lat="43.44741503459268" lon="11.764448669227132"><ele>283.0</ele><time>2026-04-25T13:45:13.962Z</time></trkpt><trkpt lat="43.447307446928676" lon="11.764798094207803"><ele>283.0</ele><time>2026-04-25T13:45:14.962Z</time></trkpt><trkpt lat="43.447193881370666" lon="11.765137918181598"><ele>280.0</ele><time>2026-04-25T13:45:15.962Z</time></trkpt><trkpt lat="43.447071249297665" lon="11.765463985038858"><ele>277.0</ele><time>2026-04-25T13:45:16.962Z</time></trkpt><trkpt lat="43.44694260244736" lon="11.765790079084784"><ele>278.5</ele><time>2026-04-25T13:45:17.962Z</time></trkpt><trkpt lat="43.44680811491186" lon="11.76610982082054"><ele>280.0</ele><time>2026-04-25T13:45:18.962Z</time></trkpt><trkpt lat="43.44666548879695" lon="11.766422325376434"><ele>280.0</ele><time>2026-04-25T13:45:19.962Z</time></trkpt><trkpt lat="43.44651784579032" lon="11.766727108606341"><ele>280.0</ele><time>2026-04-25T13:45:20.962Z</time></trkpt><trkpt lat="43.44636215960271" lon="11.767025345963615"><ele>276.5</ele><time>2026-04-25T13:45:21.962Z</time></trkpt><trkpt lat="43.446199372149984" lon="11.76731836460833"><ele>273.0</ele><time>2026-04-25T13:45:22.962Z</time></trkpt><trkpt lat="43.44603568688695" lon="11.767602145625519"><ele>274.5</ele><time>2026-04-25T13:45:23.962Z</time></trkpt><trkpt lat="43.4458635274587" lon="11.767873274751109"><ele>276.0</ele><time>2026-04-25T13:45:24.962Z</time></trkpt><trkpt lat="43.445689622666656" lon="11.768140618054376"><ele>276.0</ele><time>2026-04-25T13:45:25.962Z</time></trkpt><trkpt lat="43.44551207187618" lon="11.768396399246129"><ele>276.0</ele><time>2026-04-25T13:45:26.962Z</time></trkpt><trkpt lat="43.44533489863872" lon="11.76864832427115"><ele>274.0</ele><time>2026-04-25T13:45:27.962Z</time></trkpt><trkpt lat="43.44515595539172" lon="11.768898037091597"><ele>272.0</ele><time>2026-04-25T13:45:28.962Z</time></trkpt><trkpt lat="43.4449781575821" lon="11.76914538540366"><ele>271.0</ele><time>2026-04-25T13:45:29.962Z</time></trkpt><trkpt lat="43.44480269673495" lon="11.769391587878895"><ele>270.0</ele><time>2026-04-25T13:45:30.962Z</time></trkpt><trkpt lat="43.44463034674853" lon="11.769630257733414"><ele>273.5</ele><time>2026-04-25T13:45:31.962Z</time></trkpt><trkpt lat="43.44446237446396" lon="11.76986832034594"><ele>277.0</ele><time>2026-04-25T13:45:32.962Z</time></trkpt><trkpt lat="43.44429686228079" lon="11.770102496651997"><ele>274.5</ele><time>2026-04-25T13:45:33.962Z</time></trkpt><trkpt lat="43.44413293334906" lon="11.770337413544759"><ele>272.0</ele><time>2026-04-25T13:45:34.962Z</time></trkpt><trkpt lat="43.44396810557142" lon="11.770565836101673"><ele>272.0</ele><time>2026-04-25T13:45:35.962Z</time></trkpt><trkpt lat="43.443801617277884" lon="11.770802226185445"><ele>272.0</ele><time>2026-04-25T13:45:36.962Z</time></trkpt><trkpt lat="43.44363572404315" lon="11.771035564277645"><ele>271.0</ele><time>2026-04-25T13:45:37.962Z</time></trkpt><trkpt lat="43.443472039732455" lon="11.771270188452712"><ele>270.0</ele><time>2026-04-25T13:45:38.962Z</time></trkpt><trkpt lat="43.443309781898385" lon="11.771498099746688"><ele>270.0</ele><time>2026-04-25T13:45:39.962Z</time></trkpt><trkpt lat="43.44314279399486" lon="11.771729125192858"><ele>270.0</ele><time>2026-04-25T13:45:40.962Z</time></trkpt><trkpt lat="43.4429695912578" lon="11.771953855710548"><ele>270.0</ele><time>2026-04-25T13:45:41.962Z</time></trkpt><trkpt lat="43.442793035071624" lon="11.77217057590836"><ele>270.0</ele><time>2026-04-25T13:45:42.962Z</time></trkpt><trkpt lat="43.44261050757632" lon="11.77238058574676"><ele>270.0</ele><time>2026-04-25T13:45:43.962Z</time></trkpt><trkpt lat="43.44242567326424" lon="11.772581799075908"><ele>270.0</ele><time>2026-04-25T13:45:44.962Z</time></trkpt><trkpt lat="43.44223895615365" lon="11.772777413945743"><ele>269.0</ele><time>2026-04-25T13:45:45.962Z</time></trkpt><trkpt lat="43.442046356126056" lon="11.772969861897987"><ele>268.0</ele><time>2026-04-25T13:45:46.962Z</time></trkpt><trkpt lat="43.441852747487786" lon="11.773155421722505"><ele>268.0</ele><time>2026-04-25T13:45:47.962Z</time></trkpt><trkpt lat="43.44165285224791" lon="11.773334589855585"><ele>268.0</ele><time>2026-04-25T13:45:48.962Z</time></trkpt><trkpt lat="43.44144746873466" lon="11.773503133894675"><ele>268.5</ele><time>2026-04-25T13:45:49.962Z</time></trkpt><trkpt lat="43.44123794357086" lon="11.773664838127612"><ele>269.0</ele><time>2026-04-25T13:45:50.962Z</time></trkpt><trkpt lat="43.44102463974455" lon="11.773816898632779"><ele>269.0</ele><time>2026-04-25T13:45:51.962Z</time></trkpt><trkpt lat="43.44081081317526" lon="11.773964105114691"><ele>269.0</ele><time>2026-04-25T13:45:52.962Z</time></trkpt><trkpt lat="43.440603562760366" lon="11.774092158773096"><ele>268.33333333333337</ele><time>2026-04-25T13:45:53.962Z</time></trkpt><trkpt lat="43.44040026613629" lon="11.774210494925008"><ele>267.6666666666667</ele><time>2026-04-25T13:45:54.962Z</time></trkpt><trkpt lat="43.440199080074166" lon="11.774325100967044"><ele>267.0</ele><time>2026-04-25T13:45:55.962Z</time></trkpt><trkpt lat="43.44000556485879" lon="11.77442544068322"><ele>267.0</ele><time>2026-04-25T13:45:56.962Z</time></trkpt><trkpt lat="43.439816063386225" lon="11.774516597319941"><ele>267.0</ele><time>2026-04-25T13:45:57.962Z</time></trkpt><trkpt lat="43.43963228798357" lon="11.77459976710002"><ele>267.0</ele><time>2026-04-25T13:45:58.962Z</time></trkpt><trkpt lat="43.439453911863936" lon="11.77467539028428"><ele>267.3333333333333</ele><time>2026-04-25T13:45:59.962Z</time></trkpt><trkpt lat="43.4392939728629" lon="11.774743412169494"><ele>267.66666666666663</ele><time>2026-04-25T13:46:00.962Z</time></trkpt><trkpt lat="43.43914458769059" lon="11.774809593189918"><ele>268.0</ele><time>2026-04-25T13:46:01.962Z</time></trkpt><trkpt lat="43.43900144102278" lon="11.774871618794633"><ele>268.0</ele><time>2026-04-25T13:46:02.962Z</time></trkpt><trkpt lat="43.43887121771282" lon="11.774925040762975"><ele>268.0</ele><time>2026-04-25T13:46:03.962Z</time></trkpt><trkpt lat="43.43874453173775" lon="11.774973030058803"><ele>268.0</ele><time>2026-04-25T13:46:04.962Z</time></trkpt><trkpt lat="43.43862169300303" lon="11.77500074459974"><ele>268.0</ele><time>2026-04-25T13:46:05.962Z</time></trkpt><trkpt lat="43.43849571866783" lon="11.77500943384634"><ele>267.6</ele><time>2026-04-25T13:46:06.962Z</time></trkpt><trkpt lat="43.43837974130274" lon="11.774992557409483"><ele>267.20000000000005</ele><time>2026-04-25T13:46:07.962Z</time></trkpt><trkpt lat="43.438273834311104" lon="11.774952936009884"><ele>266.8</ele><time>2026-04-25T13:46:08.962Z</time></trkpt><trkpt lat="43.438175220929494" lon="11.77487743550467"><ele>266.40000000000003</ele><time>2026-04-25T13:46:09.962Z</time></trkpt><trkpt lat="43.43810504678192" lon="11.77476339520975"><ele>266.0</ele><time>2026-04-25T13:46:10.962Z</time></trkpt><trkpt lat="43.438051949650564" lon="11.774651187785267"><ele>266.0</ele><time>2026-04-25T13:46:11.962Z</time></trkpt><trkpt lat="43.43800947280379" lon="11.774538298926048"><ele>266.0</ele><time>2026-04-25T13:46:12.962Z</time></trkpt><trkpt lat="43.43801130101874" lon="11.774397278512192"><ele>266.0</ele><time>2026-04-25T13:46:13.962Z</time></trkpt><trkpt lat="43.43803463185844" lon="11.774254353616376"><ele>266.0</ele><time>2026-04-25T13:46:14.962Z</time></trkpt><trkpt lat="43.438080969259715" lon="11.774120874338966"><ele>266.0</ele><time>2026-04-25T13:46:15.962Z</time></trkpt><trkpt lat="43.438152524161225" lon="11.774012799257246"><ele>266.6</ele><time>2026-04-25T13:46:16.962Z</time></trkpt><trkpt lat="43.43824200849559" lon="11.77394437607117"><ele>267.20000000000005</ele><time>2026-04-25T13:46:17.962Z</time></trkpt><trkpt lat="43.43834061697279" lon="11.773902106538555"><ele>267.79999999999995</ele><time>2026-04-25T13:46:18.962Z</time></trkpt><trkpt lat="43.438448764348536" lon="11.773898835829858"><ele>268.4</ele><time>2026-04-25T13:46:19.962Z</time></trkpt><trkpt lat="43.43855826371723" lon="11.773951474456545"><ele>269.0</ele><time>2026-04-25T13:46:20.962Z</time></trkpt><trkpt lat="43.43864295602784" lon="11.774027398372366"><ele>269.0</ele><time>2026-04-25T13:46:21.962Z</time></trkpt><trkpt lat="43.43871146786098" lon="11.774136415528616"><ele>269.0</ele><time>2026-04-25T13:46:22.962Z</time></trkpt><trkpt lat="43.4387609983847" lon="11.774279094907882"><ele>269.0</ele><time>2026-04-25T13:46:23.962Z</time></trkpt><trkpt lat="43.43880124498821" lon="11.774441526238759"><ele>269.0</ele><time>2026-04-25T13:46:24.962Z</time></trkpt><trkpt lat="43.43883804082882" lon="11.774624256346305"><ele>268.6666666666667</ele><time>2026-04-25T13:46:25.962Z</time></trkpt><trkpt lat="43.43888405475728" lon="11.774819177111782"><ele>268.3333333333333</ele><time>2026-04-25T13:46:26.962Z</time></trkpt><trkpt lat="43.43893255514566" lon="11.775026078343386"><ele>268.0</ele><time>2026-04-25T13:46:27.962Z</time></trkpt><trkpt lat="43.43897543399581" lon="11.775229625598609"><ele>267.75</ele><time>2026-04-25T13:46:28.962Z</time></trkpt><trkpt lat="43.439017309003255" lon="11.775414953886987"><ele>267.5</ele><time>2026-04-25T13:46:29.962Z</time></trkpt><trkpt lat="43.43905144487209" lon="11.775600594976288"><ele>267.25</ele><time>2026-04-25T13:46:30.962Z</time></trkpt><trkpt lat="43.439071692813854" lon="11.775772808399196"><ele>267.0</ele><time>2026-04-25T13:46:31.962Z</time></trkpt><trkpt lat="43.43907097214129" lon="11.775932702559796"><ele>266.5</ele><time>2026-04-25T13:46:32.962Z</time></trkpt><trkpt lat="43.4390432429538" lon="11.776090772453092"><ele>266.0</ele><time>2026-04-25T13:46:33.962Z</time></trkpt><trkpt lat="43.439005240740656" lon="11.776238110063105"><ele>265.5</ele><time>2026-04-25T13:46:34.962Z</time></trkpt><trkpt lat="43.43896325348568" lon="11.77637830305872"><ele>265.0</ele><time>2026-04-25T13:46:35.962Z</time></trkpt><trkpt lat="43.438916129569776" lon="11.776514217154881"><ele>265.0</ele><time>2026-04-25T13:46:36.962Z</time></trkpt><trkpt lat="43.43886263764979" lon="11.776642619800466"><ele>265.0</ele><time>2026-04-25T13:46:37.962Z</time></trkpt><trkpt lat="43.43880867993476" lon="11.776767899966686"><ele>265.0</ele><time>2026-04-25T13:46:38.962Z</time></trkpt><trkpt lat="43.43874878494208" lon="11.77688790875402"><ele>265.0</ele><time>2026-04-25T13:46:39.962Z</time></trkpt><trkpt lat="43.4386892139087" lon="11.777003694807439"><ele>265.0</ele><time>2026-04-25T13:46:40.962Z</time></trkpt><trkpt lat="43.438629184732164" lon="11.777109868767333"><ele>264.99999999999994</ele><time>2026-04-25T13:46:41.962Z</time></trkpt><trkpt lat="43.43857615823554" lon="11.777197131607247"><ele>265.0</ele><time>2026-04-25T13:46:42.962Z</time></trkpt><trkpt lat="43.43853118883849" lon="11.777271836707508"><ele>265.0</ele><time>2026-04-25T13:46:43.962Z</time></trkpt><trkpt lat="43.43848977428882" lon="11.777343653907057"><ele>265.0</ele><time>2026-04-25T13:46:44.962Z</time></trkpt><trkpt lat="43.43844841166004" lon="11.777413537736194"><ele>265.0</ele><time>2026-04-25T13:46:45.962Z</time></trkpt><trkpt lat="43.43839859428853" lon="11.777491478618181"><ele>264.99999999999994</ele><time>2026-04-25T13:46:46.962Z</time></trkpt><trkpt lat="43.43835533155254" lon="11.777573135459853"><ele>265.0</ele><time>2026-04-25T13:46:47.962Z</time></trkpt><trkpt lat="43.43827493193009" lon="11.777669666470507"><ele>264.66666666666663</ele><time>2026-04-25T13:46:48.962Z</time></trkpt><trkpt lat="43.4381835801433" lon="11.777756593188192"><ele>264.3333333333333</ele><time>2026-04-25T13:46:49.962Z</time></trkpt><trkpt lat="43.438101297468414" lon="11.77782680618205"><ele>264.0</ele><time>2026-04-25T13:46:50.962Z</time></trkpt><trkpt lat="43.43803353597998" lon="11.777901425933052"><ele>263.6666666666667</ele><time>2026-04-25T13:46:51.962Z</time></trkpt><trkpt lat="43.43797761872434" lon="11.777978668120317"><ele>263.33333333333337</ele><time>2026-04-25T13:46:52.962Z</time></trkpt><trkpt lat="43.43793279559351" lon="11.778053547561932"><ele>263.0</ele><time>2026-04-25T13:46:53.962Z</time></trkpt><trkpt lat="43.43785810333138" lon="11.77818757834969"><ele>263.0</ele><time>2026-04-25T13:46:55.962Z</time></trkpt><trkpt lat="43.4378318587449" lon="11.778333434477311"><ele>263.0</ele><time>2026-04-25T13:46:57.962Z</time></trkpt><trkpt lat="43.437845029759096" lon="11.778430993490018"><ele>263.0</ele><time>2026-04-25T13:46:58.962Z</time></trkpt><trkpt lat="43.43787995345779" lon="11.778581229898505"><ele>263.0</ele><time>2026-04-25T13:46:59.962Z</time></trkpt><trkpt lat="43.43792080627363" lon="11.778759358984395"><ele>263.0</ele><time>2026-04-25T13:47:00.962Z</time></trkpt><trkpt lat="43.43796787018683" lon="11.778973407002207"><ele>262.6666666666667</ele><time>2026-04-25T13:47:01.962Z</time></trkpt><trkpt lat="43.438012700581496" lon="11.779219214733835"><ele>262.3333333333333</ele><time>2026-04-25T13:47:02.962Z</time></trkpt><trkpt lat="43.43806886638093" lon="11.779493464243942"><ele>262.0</ele><time>2026-04-25T13:47:03.96Z</time></trkpt><trkpt lat="43.4381372277689" lon="11.779763886813583"><ele>262.0</ele><time>2026-04-25T13:47:04.96Z</time></trkpt><trkpt lat="43.43821455759142" lon="11.780041000781104"><ele>262.0</ele><time>2026-04-25T13:47:05.96Z</time></trkpt><trkpt lat="43.43829164243441" lon="11.780323216817445"><ele>262.0</ele><time>2026-04-25T13:47:06.961Z</time></trkpt><trkpt lat="43.43837199619293" lon="11.780601032188427"><ele>262.0</ele><time>2026-04-25T13:47:07.96Z</time></trkpt><trkpt lat="43.438458144107365" lon="11.780895176257577"><ele>262.0</ele><time>2026-04-25T13:47:08.96Z</time></trkpt><trkpt lat="43.43854619052012" lon="11.781183924721125"><ele>261.5</ele><time>2026-04-25T13:47:09.96Z</time></trkpt><trkpt lat="43.43863358555106" lon="11.781475707722617"><ele>261.0</ele><time>2026-04-25T13:47:10.96Z</time></trkpt><trkpt lat="43.438731975695184" lon="11.781779238368449"><ele>261.0</ele><time>2026-04-25T13:47:11.96Z</time></trkpt><trkpt lat="43.43883148842766" lon="11.78208294259433"><ele>261.0</ele><time>2026-04-25T13:47:12.96Z</time></trkpt><trkpt lat="43.438937883720406" lon="11.782375201580733"><ele>261.0</ele><time>2026-04-25T13:47:13.96Z</time></trkpt><trkpt lat="43.43903822264877" lon="11.782661481101478"><ele>261.0</ele><time>2026-04-25T13:47:14.96Z</time></trkpt><trkpt lat="43.439137267531976" lon="11.78293263149298"><ele>261.6666666666667</ele><time>2026-04-25T13:47:15.961Z</time></trkpt><trkpt lat="43.439235588145905" lon="11.78319548182778"><ele>262.33333333333337</ele><time>2026-04-25T13:47:16.96Z</time></trkpt><trkpt lat="43.43933210708054" lon="11.783443172709065"><ele>263.0</ele><time>2026-04-25T13:47:17.96Z</time></trkpt><trkpt lat="43.439426860715464" lon="11.78367950534232"><ele>263.33333333333337</ele><time>2026-04-25T13:47:18.96Z</time></trkpt><trkpt lat="43.439516292641294" lon="11.783906630132426"><ele>263.6666666666667</ele><time>2026-04-25T13:47:19.96Z</time></trkpt><trkpt lat="43.43959924178698" lon="11.784123268658215"><ele>264.0</ele><time>2026-04-25T13:47:20.96Z</time></trkpt><trkpt lat="43.43968403500894" lon="11.784340953075453"><ele>264.6666666666667</ele><time>2026-04-25T13:47:21.96Z</time></trkpt><trkpt lat="43.43976906438337" lon="11.784564581092198"><ele>265.33333333333337</ele><time>2026-04-25T13:47:22.96Z</time></trkpt><trkpt lat="43.43985900847981" lon="11.784790546972618"><ele>266.0</ele><time>2026-04-25T13:47:23.96Z</time></trkpt><trkpt lat="43.439943351367674" lon="11.785016988102093"><ele>267.6666666666667</ele><time>2026-04-25T13:47:24.96Z</time></trkpt><trkpt lat="43.44003495311384" lon="11.785251440150208"><ele>269.3333333333333</ele><time>2026-04-25T13:47:25.96Z</time></trkpt><trkpt lat="43.44013326314395" lon="11.785495049378996"><ele>271.0</ele><time>2026-04-25T13:47:26.96Z</time></trkpt><trkpt lat="43.440235035925156" lon="11.785742930270377"><ele>271.0</ele><time>2026-04-25T13:47:27.96Z</time></trkpt><trkpt lat="43.440330251343745" lon="11.785984223035653"><ele>271.0</ele><time>2026-04-25T13:47:28.96Z</time></trkpt><trkpt lat="43.44041610807422" lon="11.786208695403037"><ele>271.0</ele><time>2026-04-25T13:47:29.96Z</time></trkpt><trkpt lat="43.440497242688146" lon="11.786428248862666"><ele>272.3333333333333</ele><time>2026-04-25T13:47:30.96Z</time></trkpt><trkpt lat="43.440585047490536" lon="11.786655476595184"><ele>273.6666666666667</ele><time>2026-04-25T13:47:31.96Z</time></trkpt><trkpt lat="43.440677114063064" lon="11.786886584242298"><ele>275.0</ele><time>2026-04-25T13:47:32.96Z</time></trkpt><trkpt lat="43.44076802391563" lon="11.787116202678847"><ele>275.0</ele><time>2026-04-25T13:47:33.96Z</time></trkpt><trkpt lat="43.44085499160243" lon="11.787347508192703"><ele>275.0</ele><time>2026-04-25T13:47:34.96Z</time></trkpt><trkpt lat="43.44094408683348" lon="11.787570102783693"><ele>275.0</ele><time>2026-04-25T13:47:35.96Z</time></trkpt><trkpt lat="43.441027288618656" lon="11.787782179041482"><ele>273.33333333333337</ele><time>2026-04-25T13:47:36.96Z</time></trkpt><trkpt lat="43.441109393380174" lon="11.787993362387983"><ele>271.6666666666667</ele><time>2026-04-25T13:47:37.96Z</time></trkpt><trkpt lat="43.441189484504775" lon="11.788196356994444"><ele>270.0</ele><time>2026-04-25T13:47:38.96Z</time></trkpt><trkpt lat="43.44126528261811" lon="11.788404373317881"><ele>268.6666666666667</ele><time>2026-04-25T13:47:39.96Z</time></trkpt><trkpt lat="43.44134294224728" lon="11.78860883387197"><ele>267.33333333333337</ele><time>2026-04-25T13:47:40.96Z</time></trkpt><trkpt lat="43.441424381462575" lon="11.788821006414272"><ele>266.0</ele><time>2026-04-25T13:47:41.96Z</time></trkpt><trkpt lat="43.441507057581155" lon="11.789040184666437"><ele>266.0</ele><time>2026-04-25T13:47:42.96Z</time></trkpt><trkpt lat="43.441593870922055" lon="11.789266582525064"><ele>266.0</ele><time>2026-04-25T13:47:43.96Z</time></trkpt><trkpt lat="43.44167654565719" lon="11.789488894201472"><ele>266.0</ele><time>2026-04-25T13:47:44.96Z</time></trkpt><trkpt lat="43.44176462216349" lon="11.789715597977196"><ele>264.33333333333337</ele><time>2026-04-25T13:47:45.96Z</time></trkpt><trkpt lat="43.44184818451422" lon="11.789934594808253"><ele>262.6666666666667</ele><time>2026-04-25T13:47:46.96Z</time></trkpt><trkpt lat="43.44193306632533" lon="11.790155237583095"><ele>261.0</ele><time>2026-04-25T13:47:47.96Z</time></trkpt><trkpt lat="43.44202094592006" lon="11.790379717037744"><ele>260.0</ele><time>2026-04-25T13:47:48.96Z</time></trkpt><trkpt lat="43.44211081531173" lon="11.790609890914833"><ele>259.0</ele><time>2026-04-25T13:47:49.96Z</time></trkpt><trkpt lat="43.44220373902172" lon="11.790844076960159"><ele>258.0</ele><time>2026-04-25T13:47:50.96Z</time></trkpt><trkpt lat="43.44229703816438" lon="11.79107762143284"><ele>257.3333333333333</ele><time>2026-04-25T13:47:51.96Z</time></trkpt><trkpt lat="43.442389810138266" lon="11.791312075900494"><ele>256.66666666666663</ele><time>2026-04-25T13:47:52.96Z</time></trkpt><trkpt lat="43.44248432130832" lon="11.791546533982965"><ele>256.0</ele><time>2026-04-25T13:47:53.96Z</time></trkpt><trkpt lat="43.442577577062345" lon="11.7917793270664"><ele>256.0</ele><time>2026-04-25T13:47:54.96Z</time></trkpt><trkpt lat="43.44266737164223" lon="11.79201599440465"><ele>256.0</ele><time>2026-04-25T13:47:55.96Z</time></trkpt><trkpt lat="43.442751657231675" lon="11.79224484792722"><ele>256.0</ele><time>2026-04-25T13:47:56.96Z</time></trkpt><trkpt lat="43.442842564276845" lon="11.79248664221611"><ele>255.33333333333331</ele><time>2026-04-25T13:47:57.96Z</time></trkpt><trkpt lat="43.44293874751046" lon="11.792733874880085"><ele>254.66666666666669</ele><time>2026-04-25T13:47:58.96Z</time></trkpt><trkpt lat="43.44303760907887" lon="11.792988139443237"><ele>254.0</ele><time>2026-04-25T13:47:59.96Z</time></trkpt><trkpt lat="43.44313534657085" lon="11.793236143680213"><ele>253.66666666666669</ele><time>2026-04-25T13:48:00.96Z</time></trkpt><trkpt lat="43.443230442050385" lon="11.793469105006919"><ele>253.33333333333331</ele><time>2026-04-25T13:48:01.96Z</time></trkpt><trkpt lat="43.443322957661486" lon="11.793698773537297"><ele>253.0</ele><time>2026-04-25T13:48:02.96Z</time></trkpt><trkpt lat="43.443419631604755" lon="11.793921182822613"><ele>253.0</ele><time>2026-04-25T13:48:03.96Z</time></trkpt><trkpt lat="43.44351691438696" lon="11.79413523382272"><ele>253.0</ele><time>2026-04-25T13:48:04.96Z</time></trkpt><trkpt lat="43.44361050683196" lon="11.794337216936595"><ele>253.0</ele><time>2026-04-25T13:48:05.96Z</time></trkpt><trkpt lat="43.44370884061228" lon="11.794536514503898"><ele>252.33333333333331</ele><time>2026-04-25T13:48:06.96Z</time></trkpt><trkpt lat="43.44380522367498" lon="11.794726602197098"><ele>251.66666666666669</ele><time>2026-04-25T13:48:07.96Z</time></trkpt><trkpt lat="43.44390258905489" lon="11.794906394428844"><ele>251.0</ele><time>2026-04-25T13:48:08.96Z</time></trkpt><trkpt lat="43.44399858806018" lon="11.795075946990458"><ele>250.33333333333334</ele><time>2026-04-25T13:48:09.96Z</time></trkpt><trkpt lat="43.44409483485877" lon="11.795238856119395"><ele>249.66666666666669</ele><time>2026-04-25T13:48:10.96Z</time></trkpt><trkpt lat="43.444195311592644" lon="11.79540353672303"><ele>249.0</ele><time>2026-04-25T13:48:11.96Z</time></trkpt><trkpt lat="43.44429939249924" lon="11.795566555080294"><ele>249.0</ele><time>2026-04-25T13:48:12.96Z</time></trkpt><trkpt lat="43.44441088939729" lon="11.795729737545331"><ele>249.0</ele><time>2026-04-25T13:48:13.96Z</time></trkpt><trkpt lat="43.44452491023292" lon="11.795888977315053"><ele>249.0</ele><time>2026-04-25T13:48:14.96Z</time></trkpt><trkpt lat="43.444623863663374" lon="11.796059061358841"><ele>249.33333333333331</ele><time>2026-04-25T13:48:15.96Z</time></trkpt><trkpt lat="43.44473308407168" lon="11.796201339984831"><ele>249.66666666666666</ele><time>2026-04-25T13:48:16.96Z</time></trkpt><trkpt lat="43.44484090646594" lon="11.796346867676018"><ele>250.0</ele><time>2026-04-25T13:48:17.96Z</time></trkpt><trkpt lat="43.444946686558445" lon="11.79649508223901"><ele>250.0</ele><time>2026-04-25T13:48:18.96Z</time></trkpt><trkpt lat="43.44505619622899" lon="11.796647645041956"><ele>250.0</ele><time>2026-04-25T13:48:19.96Z</time></trkpt><trkpt lat="43.44516571492017" lon="11.796801941611761"><ele>250.0</ele><time>2026-04-25T13:48:20.96Z</time></trkpt><trkpt lat="43.445276310152416" lon="11.79695656327586"><ele>250.0</ele><time>2026-04-25T13:48:21.96Z</time></trkpt><trkpt lat="43.44538432152904" lon="11.79710682921565"><ele>250.0</ele><time>2026-04-25T13:48:22.96Z</time></trkpt><trkpt lat="43.44548929718559" lon="11.797252701629006"><ele>250.0</ele><time>2026-04-25T13:48:23.96Z</time></trkpt><trkpt lat="43.445594691534644" lon="11.797395632637167"><ele>250.0</ele><time>2026-04-25T13:48:24.96Z</time></trkpt><trkpt lat="43.44570389104151" lon="11.797545639483037"><ele>250.0</ele><time>2026-04-25T13:48:25.96Z</time></trkpt><trkpt lat="43.44581834674323" lon="11.797697370970232"><ele>250.0</ele><time>2026-04-25T13:48:26.96Z</time></trkpt><trkpt lat="43.4459401843911" lon="11.797850629540765"><ele>249.66666666666666</ele><time>2026-04-25T13:48:27.96Z</time></trkpt><trkpt lat="43.4460621412787" lon="11.798010374800615"><ele>249.33333333333331</ele><time>2026-04-25T13:48:28.96Z</time></trkpt><trkpt lat="43.44618295667489" lon="11.798165454245588"><ele>249.0</ele><time>2026-04-25T13:48:29.96Z</time></trkpt><trkpt lat="43.446302035889545" lon="11.798330258964473"><ele>249.0</ele><time>2026-04-25T13:48:30.96Z</time></trkpt><trkpt lat="43.4464204476442" lon="11.798495457293638"><ele>249.0</ele><time>2026-04-25T13:48:31.96Z</time></trkpt><trkpt lat="43.44654060548685" lon="11.798658397919755"><ele>249.0</ele><time>2026-04-25T13:48:32.96Z</time></trkpt><trkpt lat="43.4466664259278" lon="11.798823516689922"><ele>248.66666666666669</ele><time>2026-04-25T13:48:33.96Z</time></trkpt><trkpt lat="43.446788908101475" lon="11.798984548687724"><ele>248.33333333333334</ele><time>2026-04-25T13:48:34.96Z</time></trkpt><trkpt lat="43.446907951733714" lon="11.799136960552998"><ele>248.0</ele><time>2026-04-25T13:48:35.96Z</time></trkpt><trkpt lat="43.44701937270565" lon="11.799286426856531"><ele>247.5</ele><time>2026-04-25T13:48:36.96Z</time></trkpt><trkpt lat="43.44713002925687" lon="11.799432255273498"><ele>247.0</ele><time>2026-04-25T13:48:37.96Z</time></trkpt><trkpt lat="43.447239119970185" lon="11.799570583290386"><ele>246.5</ele><time>2026-04-25T13:48:38.96Z</time></trkpt><trkpt lat="43.44734202567097" lon="11.799705231008437"><ele>246.0</ele><time>2026-04-25T13:48:39.96Z</time></trkpt><trkpt lat="43.447440496230385" lon="11.799842595492477"><ele>246.0</ele><time>2026-04-25T13:48:40.96Z</time></trkpt><trkpt lat="43.44754518106806" lon="11.79998273700361"><ele>246.0</ele><time>2026-04-25T13:48:41.96Z</time></trkpt><trkpt lat="43.447647023765484" lon="11.800123890132529"><ele>246.0</ele><time>2026-04-25T13:48:42.96Z</time></trkpt><trkpt lat="43.44774282829074" lon="11.800257271814775"><ele>246.0</ele><time>2026-04-25T13:48:43.96Z</time></trkpt><trkpt lat="43.44893957734633" lon="11.801897172098046"><ele>248.0</ele><time>2026-04-25T13:48:57.733Z</time></trkpt><trkpt lat="43.44948825738976" lon="11.80261392310154"><ele>248.25</ele><time>2026-04-25T13:49:02.683Z</time></trkpt><trkpt lat="43.44958706942628" lon="11.802742070729563"><ele>248.5</ele><time>2026-04-25T13:49:03.633Z</time></trkpt><trkpt lat="43.449679494584444" lon="11.802873738027989"><ele>248.75</ele><time>2026-04-25T13:49:04.585Z</time></trkpt><trkpt lat="43.449775126305745" lon="11.803000420828607"><ele>249.0</ele><time>2026-04-25T13:49:05.537Z</time></trkpt><trkpt lat="43.449881685593645" lon="11.803141579317248"><ele>248.33333333333331</ele><time>2026-04-25T13:49:06.49Z</time></trkpt><trkpt lat="43.45000973710961" lon="11.803284861666176"><ele>247.66666666666666</ele><time>2026-04-25T13:49:07.442Z</time></trkpt><trkpt lat="43.45013092447243" lon="11.803461659046786"><ele>247.0</ele><time>2026-04-25T13:49:08.394Z</time></trkpt><trkpt lat="43.45026423893096" lon="11.80364786740007"><ele>247.0</ele><time>2026-04-25T13:49:09.346Z</time></trkpt><trkpt lat="43.450396230661624" lon="11.803825973602835"><ele>247.0</ele><time>2026-04-25T13:49:10.298Z</time></trkpt><trkpt lat="43.45054763193625" lon="11.804036143100936"><ele>247.0</ele><time>2026-04-25T13:49:11.25Z</time></trkpt><trkpt lat="43.4506870650136" lon="11.804225899820254"><ele>247.33333333333331</ele><time>2026-04-25T13:49:12.201Z</time></trkpt><trkpt lat="43.45083622724311" lon="11.804413310611814"><ele>247.66666666666669</ele><time>2026-04-25T13:49:13.153Z</time></trkpt><trkpt lat="43.45096952475834" lon="11.80459002772511"><ele>248.0</ele><time>2026-04-25T13:49:14.104Z</time></trkpt><trkpt lat="43.45110195007985" lon="11.804764127127953"><ele>248.0</ele><time>2026-04-25T13:49:15.056Z</time></trkpt><trkpt lat="43.45122976091917" lon="11.804938333268026"><ele>248.0</ele><time>2026-04-25T13:49:16.007Z</time></trkpt><trkpt lat="43.451355074421365" lon="11.805112154617168"><ele>248.0</ele><time>2026-04-25T13:49:16.983Z</time></trkpt><trkpt lat="43.45149230362081" lon="11.805301297770384"><ele>247.66666666666669</ele><time>2026-04-25T13:49:17.984Z</time></trkpt><trkpt lat="43.45162851002001" lon="11.80548397668841"><ele>247.33333333333331</ele><time>2026-04-25T13:49:18.985Z</time></trkpt><trkpt lat="43.45176314299385" lon="11.805665694950093"><ele>247.0</ele><time>2026-04-25T13:49:19.986Z</time></trkpt><trkpt lat="43.45189123931317" lon="11.805838321707935"><ele>247.0</ele><time>2026-04-25T13:49:20.987Z</time></trkpt><trkpt lat="43.45200750956414" lon="11.80599286505762"><ele>247.0</ele><time>2026-04-25T13:49:21.988Z</time></trkpt><trkpt lat="43.45212823923614" lon="11.806155170164425"><ele>247.0</ele><time>2026-04-25T13:49:22.989Z</time></trkpt><trkpt lat="43.45223783323473" lon="11.806303877134194"><ele>246.75</ele><time>2026-04-25T13:49:23.99Z</time></trkpt><trkpt lat="43.452342962810974" lon="11.806448532653494"><ele>246.5</ele><time>2026-04-25T13:49:24.99Z</time></trkpt><trkpt lat="43.452440580198655" lon="11.806580924943349"><ele>246.25</ele><time>2026-04-25T13:49:25.991Z</time></trkpt><trkpt lat="43.452544028352186" lon="11.806718049463635"><ele>246.0</ele><time>2026-04-25T13:49:26.992Z</time></trkpt><trkpt lat="43.45264036587113" lon="11.806847321101914"><ele>245.75</ele><time>2026-04-25T13:49:27.992Z</time></trkpt><trkpt lat="43.45273998189535" lon="11.80698143146653"><ele>245.5</ele><time>2026-04-25T13:49:28.993Z</time></trkpt><trkpt lat="43.45282713280765" lon="11.807124242942578"><ele>245.25</ele><time>2026-04-25T13:49:29.993Z</time></trkpt><trkpt lat="43.45293764333621" lon="11.807272371989434"><ele>245.0</ele><time>2026-04-25T13:49:30.994Z</time></trkpt><trkpt lat="43.453052098452645" lon="11.807421827577476"><ele>245.33333333333334</ele><time>2026-04-25T13:49:31.994Z</time></trkpt><trkpt lat="43.45316825563313" lon="11.807582215655323"><ele>245.66666666666669</ele><time>2026-04-25T13:49:32.995Z</time></trkpt><trkpt lat="43.453297420783464" lon="11.807755199461466"><ele>246.0</ele><time>2026-04-25T13:49:33.995Z</time></trkpt><trkpt lat="43.453429959213345" lon="11.80793090121285"><ele>246.0</ele><time>2026-04-25T13:49:34.996Z</time></trkpt><trkpt lat="43.45356463340647" lon="11.808107456925123"><ele>246.0</ele><time>2026-04-25T13:49:35.996Z</time></trkpt><trkpt lat="43.45369199656528" lon="11.80827965971655"><ele>246.0</ele><time>2026-04-25T13:49:36.996Z</time></trkpt><trkpt lat="43.453817660580185" lon="11.808439381953251"><ele>245.66666666666669</ele><time>2026-04-25T13:49:37.997Z</time></trkpt><trkpt lat="43.45393311108143" lon="11.808598869637887"><ele>245.33333333333334</ele><time>2026-04-25T13:49:38.997Z</time></trkpt><trkpt lat="43.454043660471" lon="11.808754664465987"><ele>245.0</ele><time>2026-04-25T13:49:39.997Z</time></trkpt><trkpt lat="43.45416197352023" lon="11.808915238696244"><ele>245.0</ele><time>2026-04-25T13:49:40.998Z</time></trkpt><trkpt lat="43.454289335086365" lon="11.809082231440994"><ele>245.0</ele><time>2026-04-25T13:49:41.998Z</time></trkpt><trkpt lat="43.454417241764354" lon="11.809252171358553"><ele>245.0</ele><time>2026-04-25T13:49:42.998Z</time></trkpt><trkpt lat="43.45455011074098" lon="11.809426070647794"><ele>245.33333333333334</ele><time>2026-04-25T13:49:43.998Z</time></trkpt><trkpt lat="43.45468267034424" lon="11.809608854430106"><ele>245.66666666666669</ele><time>2026-04-25T13:49:44.999Z</time></trkpt><trkpt lat="43.45481711545519" lon="11.809789709409124"><ele>246.0</ele><time>2026-04-25T13:49:45.999Z</time></trkpt><trkpt lat="43.45494811968563" lon="11.809970426559845"><ele>246.0</ele><time>2026-04-25T13:49:46.999Z</time></trkpt><trkpt lat="43.455076059084476" lon="11.81014533794415"><ele>246.0</ele><time>2026-04-25T13:49:47.999Z</time></trkpt><trkpt lat="43.45520069094374" lon="11.810317009209653"><ele>246.0</ele><time>2026-04-25T13:49:48.999Z</time></trkpt><trkpt lat="43.45532447542295" lon="11.810487998119163"><ele>246.0</ele><time>2026-04-25T13:49:49.999Z</time></trkpt><trkpt lat="43.45544839025132" lon="11.81065402473132"><ele>246.0</ele><time>2026-04-25T13:49:51Z</time></trkpt><trkpt lat="43.45557041695027" lon="11.810816561870656"><ele>246.0</ele><time>2026-04-25T13:49:52Z</time></trkpt><trkpt lat="43.45568931166241" lon="11.81097293343583"><ele>245.33333333333331</ele><time>2026-04-25T13:49:53Z</time></trkpt><trkpt lat="43.45580952179245" lon="11.811126152118069"><ele>244.66666666666666</ele><time>2026-04-25T13:49:54Z</time></trkpt><trkpt lat="43.4559238193886" lon="11.811279303458763"><ele>244.0</ele><time>2026-04-25T13:49:55Z</time></trkpt><trkpt lat="43.456027579069406" lon="11.81143919745122"><ele>244.0</ele><time>2026-04-25T13:49:56Z</time></trkpt><trkpt lat="43.45614526595256" lon="11.811601415748608"><ele>244.0</ele><time>2026-04-25T13:49:57Z</time></trkpt><trkpt lat="43.45626506658465" lon="11.81176465136791"><ele>244.0</ele><time>2026-04-25T13:49:58Z</time></trkpt><trkpt lat="43.45638965714284" lon="11.811931195863846"><ele>244.0</ele><time>2026-04-25T13:49:59Z</time></trkpt><trkpt lat="43.456515374261535" lon="11.812099057685938"><ele>244.0</ele><time>2026-04-25T13:50:00.001Z</time></trkpt><trkpt lat="43.45663453327984" lon="11.812269609669519"><ele>244.0</ele><time>2026-04-25T13:50:01.001Z</time></trkpt><trkpt lat="43.45676313933555" lon="11.812442198662957"><ele>244.0</ele><time>2026-04-25T13:50:02.001Z</time></trkpt><trkpt lat="43.45689179836362" lon="11.812616568162799"><ele>244.0</ele><time>2026-04-25T13:50:03.001Z</time></trkpt><trkpt lat="43.45702604040298" lon="11.812789432098956"><ele>244.0</ele><time>2026-04-25T13:50:04.001Z</time></trkpt><trkpt lat="43.457144888269774" lon="11.812970845598986"><ele>244.0</ele><time>2026-04-25T13:50:05.001Z</time></trkpt><trkpt lat="43.45726175563514" lon="11.813152264274716"><ele>244.0</ele><time>2026-04-25T13:50:06.001Z</time></trkpt><trkpt lat="43.45737018122894" lon="11.813331952189658"><ele>244.0</ele><time>2026-04-25T13:50:07.001Z</time></trkpt><trkpt lat="43.457474039989144" lon="11.813517158021567"><ele>244.33333333333331</ele><time>2026-04-25T13:50:08.001Z</time></trkpt><trkpt lat="43.457575947685605" lon="11.813705636163295"><ele>244.66666666666669</ele><time>2026-04-25T13:50:09.001Z</time></trkpt><trkpt lat="43.457683968568276" lon="11.81389049016186"><ele>245.0</ele><time>2026-04-25T13:50:10.001Z</time></trkpt><trkpt lat="43.457785206794675" lon="11.814087182737412"><ele>245.0</ele><time>2026-04-25T13:50:11.001Z</time></trkpt><trkpt lat="43.45788684877418" lon="11.814288941755354"><ele>245.0</ele><time>2026-04-25T13:50:12.001Z</time></trkpt><trkpt lat="43.45798056694862" lon="11.81450090829954"><ele>245.0</ele><time>2026-04-25T13:50:13.001Z</time></trkpt><trkpt lat="43.45807065719861" lon="11.814718578510645"><ele>245.33333333333334</ele><time>2026-04-25T13:50:14.001Z</time></trkpt><trkpt lat="43.45816593055121" lon="11.814952907924742"><ele>245.66666666666669</ele><time>2026-04-25T13:50:15.001Z</time></trkpt><trkpt lat="43.45825554687529" lon="11.815218199244551"><ele>246.0</ele><time>2026-04-25T13:50:16.001Z</time></trkpt><trkpt lat="43.458348399103045" lon="11.815509030480337"><ele>246.0</ele><time>2026-04-25T13:50:17.002Z</time></trkpt><trkpt lat="43.45843450117173" lon="11.815804774476158"><ele>246.0</ele><time>2026-04-25T13:50:18.002Z</time></trkpt><trkpt lat="43.458512840729554" lon="11.81609131053427"><ele>245.66666666666669</ele><time>2026-04-25T13:50:19.002Z</time></trkpt><trkpt lat="43.458584019443336" lon="11.816361785040284"><ele>245.33333333333334</ele><time>2026-04-25T13:50:20.002Z</time></trkpt><trkpt lat="43.45865647644019" lon="11.816615782887277"><ele>245.0</ele><time>2026-04-25T13:50:21.002Z</time></trkpt><trkpt lat="43.4587290858878" lon="11.816873791267131"><ele>245.33333333333334</ele><time>2026-04-25T13:50:22.002Z</time></trkpt><trkpt lat="43.45879665799054" lon="11.817118780511352"><ele>245.66666666666669</ele><time>2026-04-25T13:50:23.002Z</time></trkpt><trkpt lat="43.45886228862637" lon="11.817352923308148"><ele>246.0</ele><time>2026-04-25T13:50:24.002Z</time></trkpt><trkpt lat="43.458930531301036" lon="11.817575721764085"><ele>245.0</ele><time>2026-04-25T13:50:25.002Z</time></trkpt><trkpt lat="43.45898988340978" lon="11.817799885456964"><ele>244.0</ele><time>2026-04-25T13:50:26.002Z</time></trkpt><trkpt lat="43.45904624108638" lon="11.81802484351726"><ele>243.0</ele><time>2026-04-25T13:50:27.002Z</time></trkpt><trkpt lat="43.4590998465601" lon="11.818231667807147"><ele>243.0</ele><time>2026-04-25T13:50:28.002Z</time></trkpt><trkpt lat="43.459158804026906" lon="11.818440407818068"><ele>243.0</ele><time>2026-04-25T13:50:29.002Z</time></trkpt><trkpt lat="43.459222461278976" lon="11.818652306151066"><ele>243.0</ele><time>2026-04-25T13:50:30.002Z</time></trkpt><trkpt lat="43.459286514571346" lon="11.818878353279828"><ele>242.0</ele><time>2026-04-25T13:50:31.002Z</time></trkpt><trkpt lat="43.4593564533578" lon="11.819112494299375"><ele>241.0</ele><time>2026-04-25T13:50:32.002Z</time></trkpt><trkpt lat="43.4594245074339" lon="11.819350024119332"><ele>240.0</ele><time>2026-04-25T13:50:33.002Z</time></trkpt><trkpt lat="43.459494862435996" lon="11.819600592199139"><ele>240.0</ele><time>2026-04-25T13:50:34.002Z</time></trkpt><trkpt lat="43.45956196639025" lon="11.819837482433464"><ele>240.0</ele><time>2026-04-25T13:50:35.002Z</time></trkpt><trkpt lat="43.45962677000662" lon="11.820067614425126"><ele>240.0</ele><time>2026-04-25T13:50:36.002Z</time></trkpt><trkpt lat="43.4596867077679" lon="11.820289101358417"><ele>241.0</ele><time>2026-04-25T13:50:37.002Z</time></trkpt><trkpt lat="43.45974945803437" lon="11.820515958652276"><ele>242.0</ele><time>2026-04-25T13:50:38.002Z</time></trkpt><trkpt lat="43.45981349503283" lon="11.82073730429192"><ele>243.0</ele><time>2026-04-25T13:50:39.002Z</time></trkpt><trkpt lat="43.459876704333" lon="11.820957053548176"><ele>243.66666666666669</ele><time>2026-04-25T13:50:40.002Z</time></trkpt><trkpt lat="43.459932801000406" lon="11.821169131038635"><ele>244.33333333333334</ele><time>2026-04-25T13:50:41.002Z</time></trkpt><trkpt lat="43.45999181137394" lon="11.821375790319452"><ele>245.0</ele><time>2026-04-25T13:50:42.002Z</time></trkpt><trkpt lat="43.46005157883425" lon="11.821579232275164"><ele>245.0</ele><time>2026-04-25T13:50:43.002Z</time></trkpt><trkpt lat="43.460102959002604" lon="11.821798345707206"><ele>245.0</ele><time>2026-04-25T13:50:44.002Z</time></trkpt><trkpt lat="43.460162016373005" lon="11.822022613768546"><ele>245.0</ele><time>2026-04-25T13:50:45.002Z</time></trkpt><trkpt lat="43.46021574787318" lon="11.82223860608791"><ele>244.66666666666669</ele><time>2026-04-25T13:50:46.002Z</time></trkpt><trkpt lat="43.46026646091877" lon="11.822463056151443"><ele>244.33333333333331</ele><time>2026-04-25T13:50:47.002Z</time></trkpt><trkpt lat="43.46031906922036" lon="11.822682407797894"><ele>244.0</ele><time>2026-04-25T13:50:48.002Z</time></trkpt><trkpt lat="43.46036314145989" lon="11.82290853846724"><ele>244.0</ele><time>2026-04-25T13:50:49.002Z</time></trkpt><trkpt lat="43.460412418454396" lon="11.823127593495942"><ele>244.0</ele><time>2026-04-25T13:50:50.002Z</time></trkpt><trkpt lat="43.46045957313333" lon="11.823361837314463"><ele>244.0</ele><time>2026-04-25T13:50:51.002Z</time></trkpt><trkpt lat="43.4605033657526" lon="11.82358797973749"><ele>244.33333333333331</ele><time>2026-04-25T13:50:52.002Z</time></trkpt><trkpt lat="43.46055506088078" lon="11.823826631593553"><ele>244.66666666666669</ele><time>2026-04-25T13:50:53.002Z</time></trkpt><trkpt lat="43.46059905155783" lon="11.824067172775022"><ele>245.0</ele><time>2026-04-25T13:50:54.002Z</time></trkpt><trkpt lat="43.460646834946694" lon="11.824317282776171"><ele>245.66666666666669</ele><time>2026-04-25T13:50:55.002Z</time></trkpt><trkpt lat="43.46069383970105" lon="11.82457666816681"><ele>246.33333333333331</ele><time>2026-04-25T13:50:56.002Z</time></trkpt><trkpt lat="43.46074263504709" lon="11.824846159938785"><ele>247.0</ele><time>2026-04-25T13:50:57.002Z</time></trkpt><trkpt lat="43.46079453315533" lon="11.82511007086349"><ele>246.66666666666666</ele><time>2026-04-25T13:50:58.002Z</time></trkpt><trkpt lat="43.46083173924682" lon="11.825369349097178"><ele>246.33333333333331</ele><time>2026-04-25T13:50:59.002Z</time></trkpt><trkpt lat="43.46087218083534" lon="11.825638920487002"><ele>246.0</ele><time>2026-04-25T13:51:00.002Z</time></trkpt><trkpt lat="43.46090287696664" lon="11.825894208799012"><ele>245.33333333333331</ele><time>2026-04-25T13:51:01.002Z</time></trkpt><trkpt lat="43.46093632029729" lon="11.826151264809269"><ele>244.66666666666666</ele><time>2026-04-25T13:51:02.002Z</time></trkpt><trkpt lat="43.460963304188425" lon="11.826411479577489"><ele>244.0</ele><time>2026-04-25T13:51:03.002Z</time></trkpt><trkpt lat="43.46100296458887" lon="11.826690785786868"><ele>244.0</ele><time>2026-04-25T13:51:04.002Z</time></trkpt><trkpt lat="43.46103644092699" lon="11.826942730663207"><ele>244.0</ele><time>2026-04-25T13:51:05.003Z</time></trkpt><trkpt lat="43.46106572448326" lon="11.827208549071353"><ele>244.0</ele><time>2026-04-25T13:51:06.003Z</time></trkpt><trkpt lat="43.46109883851489" lon="11.82747710023263"><ele>244.33333333333331</ele><time>2026-04-25T13:51:07.003Z</time></trkpt><trkpt lat="43.46112715645342" lon="11.827760380477853"><ele>244.66666666666669</ele><time>2026-04-25T13:51:08.003Z</time></trkpt><trkpt lat="43.461143980380534" lon="11.828037470060396"><ele>245.0</ele><time>2026-04-25T13:51:09.003Z</time></trkpt><trkpt lat="43.46117397056987" lon="11.828350721413871"><ele>244.0</ele><time>2026-04-25T13:51:10.003Z</time></trkpt><trkpt lat="43.46120606144809" lon="11.82868688211437"><ele>243.0</ele><time>2026-04-25T13:51:11.003Z</time></trkpt><trkpt lat="43.46124809391111" lon="11.829034919301343"><ele>243.5</ele><time>2026-04-25T13:51:12.003Z</time></trkpt><trkpt lat="43.46128252961068" lon="11.82940585709129"><ele>244.0</ele><time>2026-04-25T13:51:13.003Z</time></trkpt><trkpt lat="43.461318762903154" lon="11.829773675667168"><ele>244.0</ele><time>2026-04-25T13:51:14.003Z</time></trkpt><trkpt lat="43.46134605429104" lon="11.830106756150805"><ele>244.0</ele><time>2026-04-25T13:51:15.003Z</time></trkpt><trkpt lat="43.46137357927359" lon="11.830422692159333"><ele>244.33333333333331</ele><time>2026-04-25T13:51:16.003Z</time></trkpt><trkpt lat="43.46140229619037" lon="11.830721338866251"><ele>244.66666666666669</ele><time>2026-04-25T13:51:17.003Z</time></trkpt><trkpt lat="43.461429143525805" lon="11.831007394998704"><ele>245.0</ele><time>2026-04-25T13:51:18.003Z</time></trkpt><trkpt lat="43.461455881804646" lon="11.831279913825975"><ele>245.0</ele><time>2026-04-25T13:51:19.003Z</time></trkpt><trkpt lat="43.4614875598891" lon="11.83154036848072"><ele>245.0</ele><time>2026-04-25T13:51:20.003Z</time></trkpt><trkpt lat="43.461511116396025" lon="11.831795967686547"><ele>245.0</ele><time>2026-04-25T13:51:21.003Z</time></trkpt><trkpt lat="43.461531120686836" lon="11.832034828179717"><ele>244.66666666666669</ele><time>2026-04-25T13:51:22.003Z</time></trkpt><trkpt lat="43.46156127396214" lon="11.832276612380108"><ele>244.33333333333331</ele><time>2026-04-25T13:51:23.003Z</time></trkpt><trkpt lat="43.46159178046768" lon="11.832520459042877"><ele>244.0</ele><time>2026-04-25T13:51:24.003Z</time></trkpt><trkpt lat="43.46161734199303" lon="11.832755224218879"><ele>243.66666666666666</ele><time>2026-04-25T13:51:25.003Z</time></trkpt><trkpt lat="43.461635390598836" lon="11.832985311027945"><ele>243.33333333333331</ele><time>2026-04-25T13:51:26.003Z</time></trkpt><trkpt lat="43.46166573144967" lon="11.833222049675939"><ele>243.0</ele><time>2026-04-25T13:51:27.003Z</time></trkpt><trkpt lat="43.46169269240549" lon="11.833466208098848"><ele>243.0</ele><time>2026-04-25T13:51:28.003Z</time></trkpt><trkpt lat="43.461716527839876" lon="11.833705554671464"><ele>243.0</ele><time>2026-04-25T13:51:29.003Z</time></trkpt><trkpt lat="43.46174644878838" lon="11.833940978272171"><ele>243.0</ele><time>2026-04-25T13:51:30.003Z</time></trkpt><trkpt lat="43.46176973993857" lon="11.834173543571145"><ele>243.66666666666669</ele><time>2026-04-25T13:51:31.003Z</time></trkpt><trkpt lat="43.46179534400172" lon="11.83440885398659"><ele>244.33333333333334</ele><time>2026-04-25T13:51:32.003Z</time></trkpt><trkpt lat="43.46182098430299" lon="11.834631152392923"><ele>245.0</ele><time>2026-04-25T13:51:33.003Z</time></trkpt><trkpt lat="43.461850866048586" lon="11.83485042603995"><ele>245.0</ele><time>2026-04-25T13:51:34.003Z</time></trkpt><trkpt lat="43.461890353841234" lon="11.835075920434912"><ele>245.0</ele><time>2026-04-25T13:51:35.003Z</time></trkpt><trkpt lat="43.461931363167395" lon="11.835297313882583"><ele>245.0</ele><time>2026-04-25T13:51:36.003Z</time></trkpt><trkpt lat="43.46197839404044" lon="11.835511475278977"><ele>245.0</ele><time>2026-04-25T13:51:37.003Z</time></trkpt><trkpt lat="43.462038173894264" lon="11.835722836036982"><ele>245.0</ele><time>2026-04-25T13:51:38.003Z</time></trkpt><trkpt lat="43.462107359657246" lon="11.835928364473757"><ele>245.0</ele><time>2026-04-25T13:51:39.003Z</time></trkpt><trkpt lat="43.46218502223846" lon="11.836135633309937"><ele>245.0</ele><time>2026-04-25T13:51:40.003Z</time></trkpt><trkpt lat="43.462274698043714" lon="11.836335808258175"><ele>245.0</ele><time>2026-04-25T13:51:41.003Z</time></trkpt><trkpt lat="43.4623678449952" lon="11.836527937185625"><ele>245.0</ele><time>2026-04-25T13:51:42.003Z</time></trkpt><trkpt lat="43.462468321107" lon="11.836706596895397"><ele>245.66666666666669</ele><time>2026-04-25T13:51:43.003Z</time></trkpt><trkpt lat="43.46257473512724" lon="11.836878732811078"><ele>246.33333333333331</ele><time>2026-04-25T13:51:44.003Z</time></trkpt><trkpt lat="43.46268158458026" lon="11.837046766935375"><ele>247.0</ele><time>2026-04-25T13:51:45.003Z</time></trkpt><trkpt lat="43.46279638574951" lon="11.837216205283942"><ele>247.0</ele><time>2026-04-25T13:51:46.003Z</time></trkpt><trkpt lat="43.462910213492464" lon="11.837382545453249"><ele>247.0</ele><time>2026-04-25T13:51:47.003Z</time></trkpt><trkpt lat="43.46303043117026" lon="11.837540984426166"><ele>247.0</ele><time>2026-04-25T13:51:48.003Z</time></trkpt><trkpt lat="43.463160158124815" lon="11.837697911788652"><ele>247.33333333333331</ele><time>2026-04-25T13:51:49.003Z</time></trkpt><trkpt lat="43.46329167979927" lon="11.837845680386819"><ele>247.66666666666669</ele><time>2026-04-25T13:51:50.003Z</time></trkpt><trkpt lat="43.46342840331382" lon="11.83798086478214"><ele>248.0</ele><time>2026-04-25T13:51:51.003Z</time></trkpt><trkpt lat="43.46357232087564" lon="11.838118078937644"><ele>248.0</ele><time>2026-04-25T13:51:52.003Z</time></trkpt><trkpt lat="43.46371074330788" lon="11.838244128904558"><ele>248.0</ele><time>2026-04-25T13:51:53.003Z</time></trkpt><trkpt lat="43.463857681232" lon="11.838370647598962"><ele>248.0</ele><time>2026-04-25T13:51:54.003Z</time></trkpt><trkpt lat="43.463998312499285" lon="11.838484900153928"><ele>247.33333333333334</ele><time>2026-04-25T13:51:55.003Z</time></trkpt><trkpt lat="43.46414482275793" lon="11.83861235643798"><ele>246.66666666666669</ele><time>2026-04-25T13:51:56.003Z</time></trkpt><trkpt lat="43.46429429538488" lon="11.83873040877728"><ele>246.0</ele><time>2026-04-25T13:51:57.003Z</time></trkpt><trkpt lat="43.46444506247885" lon="11.838858384772434"><ele>246.0</ele><time>2026-04-25T13:51:58.003Z</time></trkpt><trkpt lat="43.46459709098099" lon="11.838986300786704"><ele>246.0</ele><time>2026-04-25T13:51:59.003Z</time></trkpt><trkpt lat="43.46474952540239" lon="11.839112857584045"><ele>246.0</ele><time>2026-04-25T13:52:00.003Z</time></trkpt><trkpt lat="43.46489969002631" lon="11.839236967979922"><ele>245.33333333333331</ele><time>2026-04-25T13:52:01.003Z</time></trkpt><trkpt lat="43.46504089030578" lon="11.839358519289261"><ele>244.66666666666666</ele><time>2026-04-25T13:52:02.003Z</time></trkpt><trkpt lat="43.46518410806291" lon="11.839474867125828"><ele>244.0</ele><time>2026-04-25T13:52:03.003Z</time></trkpt><trkpt lat="43.46532648559624" lon="11.839595878099326"><ele>244.0</ele><time>2026-04-25T13:52:04.003Z</time></trkpt><trkpt lat="43.465466665422895" lon="11.839716052965551"><ele>244.0</ele><time>2026-04-25T13:52:05.003Z</time></trkpt><trkpt lat="43.46560343317429" lon="11.839843403723945"><ele>244.0</ele><time>2026-04-25T13:52:06.003Z</time></trkpt><trkpt lat="43.46574536969671" lon="11.839962084570457"><ele>244.0</ele><time>2026-04-25T13:52:07.003Z</time></trkpt><trkpt lat="43.465889821985805" lon="11.840082529407034"><ele>244.0</ele><time>2026-04-25T13:52:08.003Z</time></trkpt><trkpt lat="43.466034118968835" lon="11.840198918901205"><ele>244.0</ele><time>2026-04-25T13:52:09.003Z</time></trkpt><trkpt lat="43.466177739256636" lon="11.840327560140775"><ele>245.0</ele><time>2026-04-25T13:52:10.003Z</time></trkpt><trkpt lat="43.46631413277476" lon="11.840446804505504"><ele>246.0</ele><time>2026-04-25T13:52:11.003Z</time></trkpt><trkpt lat="43.466454039689744" lon="11.84057230154363"><ele>247.0</ele><time>2026-04-25T13:52:12.003Z</time></trkpt><trkpt lat="43.46659034993531" lon="11.840705267596027"><ele>247.0</ele><time>2026-04-25T13:52:13.003Z</time></trkpt><trkpt lat="43.46671700200557" lon="11.840839687292549"><ele>247.0</ele><time>2026-04-25T13:52:14.003Z</time></trkpt><trkpt lat="43.466846319053104" lon="11.840985149380765"><ele>247.0</ele><time>2026-04-25T13:52:15.003Z</time></trkpt><trkpt lat="43.466972184365844" lon="11.841139402824336"><ele>247.33333333333331</ele><time>2026-04-25T13:52:16.003Z</time></trkpt><trkpt lat="43.467097333881725" lon="11.84129358490885"><ele>247.66666666666669</ele><time>2026-04-25T13:52:17.003Z</time></trkpt><trkpt lat="43.46722064086175" lon="11.841459280279599"><ele>248.0</ele><time>2026-04-25T13:52:18.004Z</time></trkpt><trkpt lat="43.46733842406372" lon="11.841630394451487"><ele>247.0</ele><time>2026-04-25T13:52:19.004Z</time></trkpt><trkpt lat="43.46745301726475" lon="11.841799711821002"><ele>246.0</ele><time>2026-04-25T13:52:20.004Z</time></trkpt><trkpt lat="43.46755988871518" lon="11.841978328228853"><ele>245.0</ele><time>2026-04-25T13:52:21.004Z</time></trkpt><trkpt lat="43.46766453367487" lon="11.842154102107328"><ele>245.0</ele><time>2026-04-25T13:52:22.004Z</time></trkpt><trkpt lat="43.46776545245816" lon="11.842338226492291"><ele>245.0</ele><time>2026-04-25T13:52:23.004Z</time></trkpt><trkpt lat="43.46786373839454" lon="11.842530609441047"><ele>245.0</ele><time>2026-04-25T13:52:24.004Z</time></trkpt><trkpt lat="43.4679636371889" lon="11.842728778688555"><ele>245.66666666666669</ele><time>2026-04-25T13:52:25.004Z</time></trkpt><trkpt lat="43.46805700287855" lon="11.84293533049009"><ele>246.33333333333331</ele><time>2026-04-25T13:52:26.004Z</time></trkpt><trkpt lat="43.46814528561985" lon="11.843144337732847"><ele>247.0</ele><time>2026-04-25T13:52:27.004Z</time></trkpt><trkpt lat="43.46822714384023" lon="11.843352042356603"><ele>247.0</ele><time>2026-04-25T13:52:28.004Z</time></trkpt><trkpt lat="43.46832072671243" lon="11.843577144151277"><ele>247.0</ele><time>2026-04-25T13:52:29.004Z</time></trkpt><trkpt lat="43.46840202223533" lon="11.843796185576394"><ele>247.0</ele><time>2026-04-25T13:52:30.004Z</time></trkpt><trkpt lat="43.468476078785784" lon="11.844020566362378"><ele>247.0</ele><time>2026-04-25T13:52:31.004Z</time></trkpt><trkpt lat="43.46854462733367" lon="11.844242843136831"><ele>247.0</ele><time>2026-04-25T13:52:32.004Z</time></trkpt><trkpt lat="43.468600556511895" lon="11.844465403290524"><ele>247.0</ele><time>2026-04-25T13:52:33.004Z</time></trkpt><trkpt lat="43.468654114673896" lon="11.84470337213312"><ele>247.33333333333331</ele><time>2026-04-25T13:52:34.004Z</time></trkpt><trkpt lat="43.46870548113779" lon="11.844936317616186"><ele>247.66666666666669</ele><time>2026-04-25T13:52:35.004Z</time></trkpt><trkpt lat="43.46875420901616" lon="11.84516315059793"><ele>248.0</ele><time>2026-04-25T13:52:36.004Z</time></trkpt><trkpt lat="43.468796328815515" lon="11.845394020874618"><ele>247.33333333333334</ele><time>2026-04-25T13:52:37.004Z</time></trkpt><trkpt lat="43.46883369980373" lon="11.84562013123406"><ele>246.66666666666669</ele><time>2026-04-25T13:52:38.004Z</time></trkpt><trkpt lat="43.46886197676174" lon="11.845852487430347"><ele>246.0</ele><time>2026-04-25T13:52:39.004Z</time></trkpt><trkpt lat="43.468886906512566" lon="11.8460845379887"><ele>246.0</ele><time>2026-04-25T13:52:40.004Z</time></trkpt><trkpt lat="43.46890953863767" lon="11.846315698213134"><ele>246.0</ele><time>2026-04-25T13:52:41.004Z</time></trkpt><trkpt lat="43.468931117527625" lon="11.846541051371332"><ele>246.0</ele><time>2026-04-25T13:52:42.004Z</time></trkpt><trkpt lat="43.46893944335003" lon="11.8467767472698"><ele>246.0</ele><time>2026-04-25T13:52:43.004Z</time></trkpt><trkpt lat="43.46894486120874" lon="11.847007077932531"><ele>246.0</ele><time>2026-04-25T13:52:44.004Z</time></trkpt><trkpt lat="43.46894670108111" lon="11.847254798239895"><ele>246.0</ele><time>2026-04-25T13:52:45.004Z</time></trkpt><trkpt lat="43.468937016972085" lon="11.847496187507964"><ele>245.66666666666669</ele><time>2026-04-25T13:52:46.004Z</time></trkpt><trkpt lat="43.46893624515948" lon="11.847745690654977"><ele>245.33333333333334</ele><time>2026-04-25T13:52:47.004Z</time></trkpt><trkpt lat="43.46892382095795" lon="11.848006605401014"><ele>245.0</ele><time>2026-04-25T13:52:48.004Z</time></trkpt><trkpt lat="43.468915189180606" lon="11.848245740008553"><ele>245.0</ele><time>2026-04-25T13:52:49.004Z</time></trkpt><trkpt lat="43.4689022667102" lon="11.848493180704379"><ele>245.0</ele><time>2026-04-25T13:52:50.004Z</time></trkpt><trkpt lat="43.46888982523557" lon="11.84873770030882"><ele>245.0</ele><time>2026-04-25T13:52:51.004Z</time></trkpt><trkpt lat="43.468886526564205" lon="11.848993508784961"><ele>245.0</ele><time>2026-04-25T13:52:52.004Z</time></trkpt><trkpt lat="43.46886861463092" lon="11.849239936258812"><ele>245.0</ele><time>2026-04-25T13:52:53.004Z</time></trkpt><trkpt lat="43.468850402187826" lon="11.8494893269488"><ele>245.0</ele><time>2026-04-25T13:52:54.004Z</time></trkpt><trkpt lat="43.468842690696185" lon="11.849723270774316"><ele>245.0</ele><time>2026-04-25T13:52:55.004Z</time></trkpt><trkpt lat="43.46882930181277" lon="11.849955478243809"><ele>245.0</ele><time>2026-04-25T13:52:56.004Z</time></trkpt><trkpt lat="43.468814445050064" lon="11.850191972909116"><ele>245.0</ele><time>2026-04-25T13:52:57.004Z</time></trkpt><trkpt lat="43.46879892624942" lon="11.850421062364976"><ele>245.33333333333334</ele><time>2026-04-25T13:52:58.004Z</time></trkpt><trkpt lat="43.46878732873838" lon="11.850653647787448"><ele>245.66666666666669</ele><time>2026-04-25T13:52:59.004Z</time></trkpt><trkpt lat="43.46877810243737" lon="11.85089976493879"><ele>246.0</ele><time>2026-04-25T13:53:00.004Z</time></trkpt><trkpt lat="43.46876467030632" lon="11.851142171653398"><ele>246.66666666666669</ele><time>2026-04-25T13:53:01.004Z</time></trkpt><trkpt lat="43.46875202492335" lon="11.851374671686106"><ele>247.33333333333334</ele><time>2026-04-25T13:53:02.004Z</time></trkpt><trkpt lat="43.468737945175945" lon="11.851612119597133"><ele>248.0</ele><time>2026-04-25T13:53:03.004Z</time></trkpt><trkpt lat="43.46873386729561" lon="11.851840032434549"><ele>248.66666666666669</ele><time>2026-04-25T13:53:04.004Z</time></trkpt><trkpt lat="43.46872424360021" lon="11.852068558009773"><ele>249.33333333333331</ele><time>2026-04-25T13:53:05.004Z</time></trkpt><trkpt lat="43.46871136281484" lon="11.852303868608164"><ele>250.0</ele><time>2026-04-25T13:53:06.004Z</time></trkpt><trkpt lat="43.46870136610313" lon="11.852541841023381"><ele>249.66666666666666</ele><time>2026-04-25T13:53:07.004Z</time></trkpt><trkpt lat="43.468691720540924" lon="11.852773382606056"><ele>249.33333333333331</ele><time>2026-04-25T13:53:08.004Z</time></trkpt><trkpt lat="43.46867949684285" lon="11.852997458815912"><ele>249.0</ele><time>2026-04-25T13:53:09.004Z</time></trkpt><trkpt lat="43.468666696456225" lon="11.853220271617808"><ele>249.0</ele><time>2026-04-25T13:53:10.004Z</time></trkpt><trkpt lat="43.468653777705796" lon="11.853444984001172"><ele>249.0</ele><time>2026-04-25T13:53:11.004Z</time></trkpt><trkpt lat="43.4686384454005" lon="11.853661059642011"><ele>249.0</ele><time>2026-04-25T13:53:12.004Z</time></trkpt><trkpt lat="43.468626304504284" lon="11.853885714052204"><ele>248.0</ele><time>2026-04-25T13:53:13.004Z</time></trkpt><trkpt lat="43.468618839083256" lon="11.854101139298242"><ele>247.0</ele><time>2026-04-25T13:53:14.004Z</time></trkpt><trkpt lat="43.468613589404335" lon="11.854323042322576"><ele>246.0</ele><time>2026-04-25T13:53:15.004Z</time></trkpt><trkpt lat="43.46860000109281" lon="11.854547438788085"><ele>245.66666666666669</ele><time>2026-04-25T13:53:16.004Z</time></trkpt><trkpt lat="43.46858857885164" lon="11.854766834609562"><ele>245.33333333333334</ele><time>2026-04-25T13:53:17.004Z</time></trkpt><trkpt lat="43.46857646104014" lon="11.854981535698192"><ele>245.0</ele><time>2026-04-25T13:53:18.004Z</time></trkpt><trkpt lat="43.468563105270064" lon="11.855198084030759"><ele>245.66666666666669</ele><time>2026-04-25T13:53:19.004Z</time></trkpt><trkpt lat="43.468553043721734" lon="11.855406727581501"><ele>246.33333333333331</ele><time>2026-04-25T13:53:20.004Z</time></trkpt><trkpt lat="43.4685462282284" lon="11.855611267732726"><ele>247.0</ele><time>2026-04-25T13:53:21.004Z</time></trkpt><trkpt lat="43.46853821652369" lon="11.855822035797637"><ele>247.0</ele><time>2026-04-25T13:53:22.004Z</time></trkpt><trkpt lat="43.46852629602546" lon="11.856026014788192"><ele>247.0</ele><time>2026-04-25T13:53:23.004Z</time></trkpt><trkpt lat="43.46851235653897" lon="11.856223095451616"><ele>247.0</ele><time>2026-04-25T13:53:24.004Z</time></trkpt><trkpt lat="43.46850053620068" lon="11.85642300461818"><ele>247.0</ele><time>2026-04-25T13:53:25.004Z</time></trkpt><trkpt lat="43.46848863567418" lon="11.856626404027418"><ele>246.5</ele><time>2026-04-25T13:53:26.004Z</time></trkpt><trkpt lat="43.46847622272835" lon="11.856826070662065"><ele>246.0</ele><time>2026-04-25T13:53:27.004Z</time></trkpt><trkpt lat="43.46846342547012" lon="11.857037013144792"><ele>245.5</ele><time>2026-04-25T13:53:28.004Z</time></trkpt><trkpt lat="43.46845144702669" lon="11.857236583995332"><ele>245.0</ele><time>2026-04-25T13:53:29.004Z</time></trkpt><trkpt lat="43.46844245851285" lon="11.85742463085954"><ele>245.0</ele><time>2026-04-25T13:53:30.004Z</time></trkpt><trkpt lat="43.46843556206661" lon="11.857616751680393"><ele>245.0</ele><time>2026-04-25T13:53:31.004Z</time></trkpt><trkpt lat="43.46843009987711" lon="11.857824016343933"><ele>245.0</ele><time>2026-04-25T13:53:32.004Z</time></trkpt><trkpt lat="43.46841134098759" lon="11.85805187192017"><ele>245.33333333333334</ele><time>2026-04-25T13:53:33.004Z</time></trkpt><trkpt lat="43.46838794802989" lon="11.85829039908442"><ele>245.66666666666669</ele><time>2026-04-25T13:53:34.004Z</time></trkpt><trkpt lat="43.468370106477806" lon="11.858531010275566"><ele>246.0</ele><time>2026-04-25T13:53:35.005Z</time></trkpt><trkpt lat="43.46835424716378" lon="11.858775790505769"><ele>246.0</ele><time>2026-04-25T13:53:36.005Z</time></trkpt><trkpt lat="43.46833865632245" lon="11.859015391337504"><ele>246.0</ele><time>2026-04-25T13:53:37.005Z</time></trkpt><trkpt lat="43.46832813658866" lon="11.859224918572377"><ele>246.0</ele><time>2026-04-25T13:53:38.005Z</time></trkpt><trkpt lat="43.46831335187294" lon="11.859398877326234"><ele>245.83333333333334</ele><time>2026-04-25T13:53:39.005Z</time></trkpt><trkpt lat="43.468294972769876" lon="11.859544061196518"><ele>245.66666666666669</ele><time>2026-04-25T13:53:40.005Z</time></trkpt><trkpt lat="43.46828516292404" lon="11.859659906392542"><ele>245.5</ele><time>2026-04-25T13:53:41.005Z</time></trkpt><trkpt lat="43.46827145648563" lon="11.859748613336073"><ele>245.33333333333334</ele><time>2026-04-25T13:53:42.005Z</time></trkpt><trkpt lat="43.468252727775536" lon="11.859860488846078"><ele>245.16666666666669</ele><time>2026-04-25T13:53:44.005Z</time></trkpt><trkpt lat="43.468242957912146" lon="11.859964232861497"><ele>245.0</ele><time>2026-04-25T13:53:46.005Z</time></trkpt><trkpt lat="43.46821628926555" lon="11.860127990858503"><ele>245.0</ele><time>2026-04-25T13:53:48.005Z</time></trkpt><trkpt lat="43.46817223567953" lon="11.86024746874357"><ele>245.0</ele><time>2026-04-25T13:53:49.005Z</time></trkpt><trkpt lat="43.46811232356757" lon="11.860363043076143"><ele>245.0</ele><time>2026-04-25T13:53:50.005Z</time></trkpt><trkpt lat="43.46803575284806" lon="11.860464794290303"><ele>245.0</ele><time>2026-04-25T13:53:51.005Z</time></trkpt><trkpt lat="43.46794371297653" lon="11.860569080685073"><ele>245.0</ele><time>2026-04-25T13:53:52.005Z</time></trkpt><trkpt lat="43.467859784879586" lon="11.86067982870835"><ele>245.75</ele><time>2026-04-25T13:53:53.005Z</time></trkpt><trkpt lat="43.467789094305886" lon="11.860813588766842"><ele>246.5</ele><time>2026-04-25T13:53:54.005Z</time></trkpt><trkpt lat="43.46775881600624" lon="11.860988702775812"><ele>247.25</ele><time>2026-04-25T13:53:55.005Z</time></trkpt><trkpt lat="43.46774898875156" lon="11.861156435830589"><ele>248.0</ele><time>2026-04-25T13:53:56.005Z</time></trkpt><trkpt lat="43.46774835842508" lon="11.86132495880589"><ele>248.0</ele><time>2026-04-25T13:53:57.005Z</time></trkpt><trkpt lat="43.4677836231584" lon="11.861524123731543"><ele>248.0</ele><time>2026-04-25T13:53:58.005Z</time></trkpt><trkpt lat="43.46785803729388" lon="11.861759318282939"><ele>248.0</ele><time>2026-04-25T13:53:59.005Z</time></trkpt><trkpt lat="43.46787713847581" lon="11.86197681146425"><ele>247.66666666666669</ele><time>2026-04-25T13:54:00.005Z</time></trkpt><trkpt lat="43.467869278473955" lon="11.862203727350778"><ele>247.33333333333331</ele><time>2026-04-25T13:54:01.005Z</time></trkpt><trkpt lat="43.46784089650485" lon="11.862423527347529"><ele>247.0</ele><time>2026-04-25T13:54:02.005Z</time></trkpt><trkpt lat="43.46779310375897" lon="11.862624313932566"><ele>247.0</ele><time>2026-04-25T13:54:03.005Z</time></trkpt><trkpt lat="43.46773820031991" lon="11.862799489491167"><ele>247.0</ele><time>2026-04-25T13:54:04.005Z</time></trkpt><trkpt lat="43.46766105244622" lon="11.862984466289793"><ele>247.0</ele><time>2026-04-25T13:54:05.005Z</time></trkpt><trkpt lat="43.467581318851025" lon="11.863133391022423"><ele>247.0</ele><time>2026-04-25T13:54:06.005Z</time></trkpt><trkpt lat="43.467484923707126" lon="11.86326252257468"><ele>247.0</ele><time>2026-04-25T13:54:07.005Z</time></trkpt><trkpt lat="43.467352564951014" lon="11.863390439882787"><ele>247.0</ele><time>2026-04-25T13:54:08.005Z</time></trkpt><trkpt lat="43.46720178902385" lon="11.863512310349234"><ele>247.0</ele><time>2026-04-25T13:54:09.005Z</time></trkpt><trkpt lat="43.46705493343229" lon="11.86362374638472"><ele>247.66666666666666</ele><time>2026-04-25T13:54:10.005Z</time></trkpt><trkpt lat="43.466913074963585" lon="11.863751241347074"><ele>248.33333333333331</ele><time>2026-04-25T13:54:11.005Z</time></trkpt><trkpt lat="43.46677145597878" lon="11.863896758125005"><ele>249.0</ele><time>2026-04-25T13:54:12.005Z</time></trkpt><trkpt lat="43.46663772139772" lon="11.864077852536585"><ele>249.0</ele><time>2026-04-25T13:54:13.005Z</time></trkpt><trkpt lat="43.46651979292418" lon="11.864279472333969"><ele>249.0</ele><time>2026-04-25T13:54:14.005Z</time></trkpt><trkpt lat="43.466422035481266" lon="11.864513834689525"><ele>249.0</ele><time>2026-04-25T13:54:15.005Z</time></trkpt><trkpt lat="43.466342299586636" lon="11.864773087378829"><ele>248.66666666666669</ele><time>2026-04-25T13:54:16.005Z</time></trkpt><trkpt lat="43.46628168486018" lon="11.86504957805838"><ele>248.33333333333334</ele><time>2026-04-25T13:54:17.005Z</time></trkpt><trkpt lat="43.4662430253391" lon="11.865314958695954"><ele>248.0</ele><time>2026-04-25T13:54:18.005Z</time></trkpt><trkpt lat="43.46620557788986" lon="11.865571015705187"><ele>248.66666666666669</ele><time>2026-04-25T13:54:19.005Z</time></trkpt><trkpt lat="43.46616435259055" lon="11.865808400072657"><ele>249.33333333333331</ele><time>2026-04-25T13:54:20.005Z</time></trkpt><trkpt lat="43.466114174394704" lon="11.866027006673901"><ele>250.0</ele><time>2026-04-25T13:54:21.005Z</time></trkpt><trkpt lat="43.46606047272647" lon="11.866243283947416"><ele>250.33333333333331</ele><time>2026-04-25T13:54:22.005Z</time></trkpt><trkpt lat="43.46600818915957" lon="11.866444944460657"><ele>250.66666666666669</ele><time>2026-04-25T13:54:23.005Z</time></trkpt><trkpt lat="43.46594885218551" lon="11.866639512973302"><ele>251.0</ele><time>2026-04-25T13:54:24.005Z</time></trkpt><trkpt lat="43.46592835860732" lon="11.866868048336038"><ele>251.0</ele><time>2026-04-25T13:54:25.005Z</time></trkpt><trkpt lat="43.46590386118612" lon="11.867115420733255"><ele>251.0</ele><time>2026-04-25T13:54:26.005Z</time></trkpt><trkpt lat="43.46589914419588" lon="11.867370319782871"><ele>251.0</ele><time>2026-04-25T13:54:27.005Z</time></trkpt><trkpt lat="43.465892875887555" lon="11.867632678367826"><ele>250.33333333333334</ele><time>2026-04-25T13:54:28.005Z</time></trkpt><trkpt lat="43.46589061880126" lon="11.867878959826344"><ele>249.66666666666669</ele><time>2026-04-25T13:54:29.005Z</time></trkpt><trkpt lat="43.465879957255" lon="11.868122716014772"><ele>249.0</ele><time>2026-04-25T13:54:30.005Z</time></trkpt><trkpt lat="43.46584964199645" lon="11.868335080639953"><ele>248.75</ele><time>2026-04-25T13:54:31.005Z</time></trkpt><trkpt lat="43.46580785401145" lon="11.868526820842815"><ele>248.5</ele><time>2026-04-25T13:54:32.005Z</time></trkpt><trkpt lat="43.46574228081868" lon="11.868708240399034"><ele>248.25</ele><time>2026-04-25T13:54:33.005Z</time></trkpt><trkpt lat="43.465649603482234" lon="11.868879668906429"><ele>248.0</ele><time>2026-04-25T13:54:34.005Z</time></trkpt><trkpt lat="43.46553569208931" lon="11.86905249528825"><ele>249.33333333333334</ele><time>2026-04-25T13:54:35.005Z</time></trkpt><trkpt lat="43.4654139698946" lon="11.869230239087727"><ele>250.66666666666669</ele><time>2026-04-25T13:54:36.005Z</time></trkpt><trkpt lat="43.46531701191017" lon="11.869408903266823"><ele>252.0</ele><time>2026-04-25T13:54:37.005Z</time></trkpt><trkpt lat="43.46523613643682" lon="11.869577927730278"><ele>252.2</ele><time>2026-04-25T13:54:38.005Z</time></trkpt><trkpt lat="43.46518140255512" lon="11.869750884186207"><ele>252.39999999999998</ele><time>2026-04-25T13:54:39.005Z</time></trkpt><trkpt lat="43.465140418925486" lon="11.869886494682655"><ele>252.60000000000002</ele><time>2026-04-25T13:54:40.005Z</time></trkpt><trkpt lat="43.46509841118654" lon="11.87000493763029"><ele>252.8</ele><time>2026-04-25T13:54:41.005Z</time></trkpt><trkpt lat="43.465037768833525" lon="11.870093726028799"><ele>253.0</ele><time>2026-04-25T13:54:42.005Z</time></trkpt><trkpt lat="43.46496987331466" lon="11.870144689873053"><ele>253.0</ele><time>2026-04-25T13:54:43.005Z</time></trkpt><trkpt lat="43.46488778932239" lon="11.870167419991592"><ele>253.0</ele><time>2026-04-25T13:54:44.005Z</time></trkpt><trkpt lat="43.46479933389192" lon="11.870150851904683"><ele>253.0</ele><time>2026-04-25T13:54:45.005Z</time></trkpt><trkpt lat="43.46470554431174" lon="11.870090429355797"><ele>253.0</ele><time>2026-04-25T13:54:46.005Z</time></trkpt><trkpt lat="43.46461080827525" lon="11.869982338347542"><ele>253.0</ele><time>2026-04-25T13:54:47.005Z</time></trkpt><trkpt lat="43.46451285529219" lon="11.869865193834572"><ele>252.8</ele><time>2026-04-25T13:54:48.005Z</time></trkpt><trkpt lat="43.464440642612004" lon="11.86974666421423"><ele>252.60000000000002</ele><time>2026-04-25T13:54:49.005Z</time></trkpt><trkpt lat="43.464354538904715" lon="11.869674855882133"><ele>252.39999999999998</ele><time>2026-04-25T13:54:50.006Z</time></trkpt><trkpt lat="43.46429271540492" lon="11.869587029386535"><ele>252.2</ele><time>2026-04-25T13:54:51.006Z</time></trkpt><trkpt lat="43.464226656033766" lon="11.869518573400557"><ele>252.0</ele><time>2026-04-25T13:54:52.006Z</time></trkpt><trkpt lat="43.46428707152238" lon="11.869428564415978"><ele>252.0</ele><time>2026-04-25T13:54:53.006Z</time></trkpt><trkpt lat="43.46433179051477" lon="11.869280849420916"><ele>252.0</ele><time>2026-04-25T13:54:54.006Z</time></trkpt><trkpt lat="43.464365917263834" lon="11.869101983745018"><ele>252.0</ele><time>2026-04-25T13:54:55.006Z</time></trkpt><trkpt lat="43.46439935054705" lon="11.8689134927224"><ele>252.0</ele><time>2026-04-25T13:54:56.006Z</time></trkpt><trkpt lat="43.464447238785425" lon="11.868679502218756"><ele>251.66666666666669</ele><time>2026-04-25T13:54:57.006Z</time></trkpt><trkpt lat="43.46447722810723" lon="11.868431166360713"><ele>251.33333333333334</ele><time>2026-04-25T13:54:58.006Z</time></trkpt><trkpt lat="43.46449340706264" lon="11.868174288562019"><ele>251.0</ele><time>2026-04-25T13:54:59.006Z</time></trkpt><trkpt lat="43.46450604017511" lon="11.867940563016012"><ele>251.0</ele><time>2026-04-25T13:55:00.006Z</time></trkpt><trkpt lat="43.46454129031236" lon="11.867688800157492"><ele>251.0</ele><time>2026-04-25T13:55:01.006Z</time></trkpt><trkpt lat="43.464564276381644" lon="11.867429519233184"><ele>251.0</ele><time>2026-04-25T13:55:02.006Z</time></trkpt><trkpt lat="43.46459290368989" lon="11.867173420310445"><ele>251.33333333333334</ele><time>2026-04-25T13:55:03.006Z</time></trkpt><trkpt lat="43.46460932689689" lon="11.866923559388804"><ele>251.66666666666669</ele><time>2026-04-25T13:55:04.006Z</time></trkpt><trkpt lat="43.46462185740618" lon="11.866699669021557"><ele>252.0</ele><time>2026-04-25T13:55:05.006Z</time></trkpt><trkpt lat="43.464627281003516" lon="11.866478438029162"><ele>251.33333333333331</ele><time>2026-04-25T13:55:06.006Z</time></trkpt><trkpt lat="43.46462240977757" lon="11.86623479524222"><ele>250.66666666666666</ele><time>2026-04-25T13:55:07.006Z</time></trkpt><trkpt lat="43.46458354461213" lon="11.866008776390807"><ele>250.0</ele><time>2026-04-25T13:55:08.006Z</time></trkpt><trkpt lat="43.464564475187785" lon="11.865770862953049"><ele>249.66666666666666</ele><time>2026-04-25T13:55:09.006Z</time></trkpt><trkpt lat="43.464548911429794" lon="11.865538078231662"><ele>249.33333333333331</ele><time>2026-04-25T13:55:10.006Z</time></trkpt><trkpt lat="43.46452478276572" lon="11.865333729274338"><ele>249.0</ele><time>2026-04-25T13:55:11.006Z</time></trkpt><trkpt lat="43.46450918212403" lon="11.865135980609788"><ele>248.79999999999998</ele><time>2026-04-25T13:55:12.006Z</time></trkpt><trkpt lat="43.464498602642486" lon="11.864947180534566"><ele>248.59999999999997</ele><time>2026-04-25T13:55:13.006Z</time></trkpt><trkpt lat="43.46448718313267" lon="11.864776942390296"><ele>248.4</ele><time>2026-04-25T13:55:14.006Z</time></trkpt><trkpt lat="43.46447495884631" lon="11.864641471963003"><ele>248.2</ele><time>2026-04-25T13:55:15.006Z</time></trkpt><trkpt lat="43.46446493287191" lon="11.86454056321792"><ele>248.0</ele><time>2026-04-25T13:55:16.006Z</time></trkpt><trkpt lat="43.46445999428829" lon="11.864425981570724"><ele>248.00000000000003</ele><time>2026-04-25T13:55:18.006Z</time></trkpt><trkpt lat="43.46443567815945" lon="11.864345776973813"><ele>248.0</ele><time>2026-04-25T13:55:24.006Z</time></trkpt><trkpt lat="43.464417206393776" lon="11.864219200683435"><ele>248.0</ele><time>2026-04-25T13:55:31.006Z</time></trkpt><trkpt lat="43.464405340536246" lon="11.864126870947562"><ele>248.0</ele><time>2026-04-25T13:55:32.006Z</time></trkpt><trkpt lat="43.46439915844159" lon="11.86401039307097"><ele>248.00000000000003</ele><time>2026-04-25T13:55:33.006Z</time></trkpt><trkpt lat="43.464408040885864" lon="11.863899767742064"><ele>248.0</ele><time>2026-04-25T13:55:34.006Z</time></trkpt><trkpt lat="43.46440139011153" lon="11.86380453646081"><ele>248.50000000000003</ele><time>2026-04-25T13:55:35.006Z</time></trkpt><trkpt lat="43.46436135314648" lon="11.86365946723993"><ele>249.0</ele><time>2026-04-25T13:55:37.006Z</time></trkpt><trkpt lat="43.4643988763111" lon="11.863580235322255"><ele>249.5</ele><time>2026-04-25T13:55:40.006Z</time></trkpt><trkpt lat="43.46446589300103" lon="11.863554898226896"><ele>250.0</ele><time>2026-04-25T13:55:42.006Z</time></trkpt><trkpt lat="43.4645616391596" lon="11.863543966766159"><ele>250.50000000000003</ele><time>2026-04-25T13:55:44.006Z</time></trkpt><trkpt lat="43.464630537430814" lon="11.863557531636292"><ele>251.0</ele><time>2026-04-25T13:55:49.006Z</time></trkpt><trkpt lat="43.46476585664502" lon="11.863580219760369"><ele>252.0</ele><time>2026-04-25T13:55:58.006Z</time></trkpt><trkpt lat="43.46479235320839" lon="11.863664959612297"><ele>252.0</ele><time>2026-04-25T13:56:05.006Z</time></trkpt><trkpt lat="43.464847341124056" lon="11.863744091723795"><ele>252.0</ele><time>2026-04-25T13:56:10.007Z</time></trkpt></trkseg></trk></gpx>